<?xml version='1.0' encoding='UTF-8'?><gpx version="1.1" creator="JPX - https://github.com/jenetics/jpx" xmlns="http://www.topografix.com/GPX/1/1"><trk><trkseg><trkpt lat="45.80394303430412" lon="9.476278731608275"><ele>872.0</ele><time>2026-04-27T12:45:18.999Z</time></trkpt><trkpt lat="45.80390753694419" lon="9.47635425255585"><ele>872.0</ele><time>2026-04-27T12:45:19.999Z</time></trkpt><trkpt lat="45.80388497426613" lon="9.476484293731938"><ele>872.0</ele><time>2026-04-27T12:45:22.999Z</time></trkpt><trkpt lat="45.8038249125017" lon="9.476385926326447"><ele>872.0</ele><time>2026-04-27T12:45:23.999Z</time></trkpt><trkpt lat="45.803745368702344" lon="9.476410772155312"><ele>872.0</ele><time>2026-04-27T12:45:24.999Z</time></trkpt><trkpt lat="45.80359574619214" lon="9.476538338439468"><ele>862.3333333333334</ele><time>2026-04-27T12:45:25.999Z</time></trkpt><trkpt lat="45.80348996999313" lon="9.476633589464058"><ele>852.6666666666667</ele><time>2026-04-27T12:45:26.999Z</time></trkpt><trkpt lat="45.8033093368842" lon="9.476741815031426"><ele>843.0</ele><time>2026-04-27T12:45:27.999Z</time></trkpt><trkpt lat="45.803040535586035" lon="9.476808748940176"><ele>843.0</ele><time>2026-04-27T12:45:28.999Z</time></trkpt><trkpt lat="45.802961587658274" lon="9.476910776367438"><ele>843.0</ele><time>2026-04-27T12:45:29.999Z</time></trkpt><trkpt lat="45.802838521005995" lon="9.47707508117733"><ele>843.0</ele><time>2026-04-27T12:45:30.999Z</time></trkpt><trkpt lat="45.80276073268837" lon="9.477185367442985"><ele>843.0</ele><time>2026-04-27T12:45:32Z</time></trkpt><trkpt lat="45.80267469289725" lon="9.477300178178464"><ele>842.0</ele><time>2026-04-27T12:45:33Z</time></trkpt><trkpt lat="45.802599598803035" lon="9.477392644484388"><ele>841.0</ele><time>2026-04-27T12:45:34Z</time></trkpt><trkpt lat="45.80252166845049" lon="9.477482345715815"><ele>840.0</ele><time>2026-04-27T12:45:35Z</time></trkpt><trkpt lat="45.80240967695973" lon="9.477605445233339"><ele>839.0</ele><time>2026-04-27T12:45:36Z</time></trkpt><trkpt lat="45.802349731059124" lon="9.47768404059382"><ele>838.0</ele><time>2026-04-27T12:45:37Z</time></trkpt><trkpt lat="45.80230477241372" lon="9.47777679299807"><ele>838.0</ele><time>2026-04-27T12:45:38Z</time></trkpt><trkpt lat="45.80237636830333" lon="9.477808225708484"><ele>838.0</ele><time>2026-04-27T12:45:42Z</time></trkpt><trkpt lat="45.802560849876194" lon="9.477673127500344"><ele>838.0</ele><time>2026-04-27T12:45:43Z</time></trkpt><trkpt lat="45.802626916186675" lon="9.47761036516093"><ele>838.0</ele><time>2026-04-27T12:45:44Z</time></trkpt><trkpt lat="45.802732868886665" lon="9.477488911529607"><ele>846.0</ele><time>2026-04-27T12:45:45Z</time></trkpt><trkpt lat="45.80283159297464" lon="9.4774427530608"><ele>854.0</ele><time>2026-04-27T12:45:46Z</time></trkpt><trkpt lat="45.80293559219412" lon="9.477344786179993"><ele>862.0</ele><time>2026-04-27T12:45:47Z</time></trkpt><trkpt lat="45.80306867479152" lon="9.477279817714487"><ele>870.0</ele><time>2026-04-27T12:45:48Z</time></trkpt><trkpt lat="45.80319546422601" lon="9.47721010316332"><ele>870.0</ele><time>2026-04-27T12:45:49Z</time></trkpt><trkpt lat="45.80331969513665" lon="9.47711976528605"><ele>870.0</ele><time>2026-04-27T12:45:50Z</time></trkpt><trkpt lat="45.80346840969405" lon="9.477061101144844"><ele>870.0</ele><time>2026-04-27T12:45:51Z</time></trkpt><trkpt lat="45.80360268080492" lon="9.477046728124922"><ele>870.0</ele><time>2026-04-27T12:45:52Z</time></trkpt><trkpt lat="45.803746449232406" lon="9.477017180904115"><ele>870.5</ele><time>2026-04-27T12:45:53Z</time></trkpt><trkpt lat="45.8038828315956" lon="9.477013582857444"><ele>871.0</ele><time>2026-04-27T12:45:54Z</time></trkpt><trkpt lat="45.8040148797393" lon="9.477023903332228"><ele>871.5</ele><time>2026-04-27T12:45:55Z</time></trkpt><trkpt lat="45.80409426976584" lon="9.4770163186218"><ele>872.0</ele><time>2026-04-27T12:45:56Z</time></trkpt><trkpt lat="45.80420841687475" lon="9.477023679058611"><ele>872.0</ele><time>2026-04-27T12:45:57Z</time></trkpt><trkpt lat="45.80428076239881" lon="9.476982491284511"><ele>872.0</ele><time>2026-04-27T12:45:58Z</time></trkpt><trkpt lat="45.8043409142094" lon="9.476847027957849"><ele>872.0</ele><time>2026-04-27T12:45:59Z</time></trkpt><trkpt lat="45.80439338617745" lon="9.476657860593651"><ele>872.0</ele><time>2026-04-27T12:46:00Z</time></trkpt><trkpt lat="45.80446577331708" lon="9.47648812688586"><ele>879.8</ele><time>2026-04-27T12:46:01Z</time></trkpt><trkpt lat="45.80446268236146" lon="9.47637774609604"><ele>887.6</ele><time>2026-04-27T12:46:02Z</time></trkpt><trkpt lat="45.804475760816" lon="9.476194323264986"><ele>895.3999999999999</ele><time>2026-04-27T12:46:03Z</time></trkpt><trkpt lat="45.80448240875778" lon="9.476021701041418"><ele>903.1999999999999</ele><time>2026-04-27T12:46:04Z</time></trkpt><trkpt lat="45.804494707759204" lon="9.475862670956454"><ele>911.0</ele><time>2026-04-27T12:46:05Z</time></trkpt><trkpt lat="45.80451483355183" lon="9.475701335374367"><ele>911.0</ele><time>2026-04-27T12:46:06Z</time></trkpt><trkpt lat="45.804533897144616" lon="9.475564735304605"><ele>911.0</ele><time>2026-04-27T12:46:07Z</time></trkpt><trkpt lat="45.80459310362704" lon="9.475374501308078"><ele>911.0</ele><time>2026-04-27T12:46:08Z</time></trkpt><trkpt lat="45.80464260610548" lon="9.475218584346802"><ele>911.0</ele><time>2026-04-27T12:46:09Z</time></trkpt><trkpt lat="45.80471261131296" lon="9.475046836375364"><ele>908.1999999999999</ele><time>2026-04-27T12:46:10Z</time></trkpt><trkpt lat="45.80476231700766" lon="9.474894049749059"><ele>905.3999999999999</ele><time>2026-04-27T12:46:11Z</time></trkpt><trkpt lat="45.80480553545819" lon="9.474765786085504"><ele>902.6</ele><time>2026-04-27T12:46:12Z</time></trkpt><trkpt lat="45.80482556789978" lon="9.474667698547652"><ele>899.8</ele><time>2026-04-27T12:46:13Z</time></trkpt><trkpt lat="45.80487661519891" lon="9.474560266651705"><ele>897.0</ele><time>2026-04-27T12:46:14Z</time></trkpt><trkpt lat="45.804974231080045" lon="9.474438231765065"><ele>893.6666666666666</ele><time>2026-04-27T12:46:16Z</time></trkpt><trkpt lat="45.805051436222385" lon="9.474371877558639"><ele>890.3333333333333</ele><time>2026-04-27T12:46:17Z</time></trkpt><trkpt lat="45.805120562206085" lon="9.474313010345087"><ele>887.0</ele><time>2026-04-27T12:46:18Z</time></trkpt><trkpt lat="45.80518248772351" lon="9.47426330301499"><ele>883.6666666666666</ele><time>2026-04-27T12:46:19Z</time></trkpt><trkpt lat="45.80527243244496" lon="9.474214981417965"><ele>880.3333333333333</ele><time>2026-04-27T12:46:21Z</time></trkpt><trkpt lat="45.80537666099068" lon="9.474272976625544"><ele>877.0</ele><time>2026-04-27T12:46:23Z</time></trkpt><trkpt lat="45.80543315134819" lon="9.474391333747175"><ele>877.0</ele><time>2026-04-27T12:46:24Z</time></trkpt><trkpt lat="45.80550927002355" lon="9.474471621052892"><ele>877.0</ele><time>2026-04-27T12:46:25Z</time></trkpt><trkpt lat="45.80557453210344" lon="9.474585939666113"><ele>877.0</ele><time>2026-04-27T12:46:26Z</time></trkpt><trkpt lat="45.80565389286416" lon="9.474694112828423"><ele>877.0</ele><time>2026-04-27T12:46:27Z</time></trkpt><trkpt lat="45.805752296495726" lon="9.474781152358645"><ele>877.0</ele><time>2026-04-27T12:46:28Z</time></trkpt><trkpt lat="45.80582551535553" lon="9.474879444682404"><ele>875.4000000000001</ele><time>2026-04-27T12:46:29Z</time></trkpt><trkpt lat="45.805912143182226" lon="9.474985349406877"><ele>873.8000000000001</ele><time>2026-04-27T12:46:30Z</time></trkpt><trkpt lat="45.80600456804127" lon="9.475076328301794"><ele>872.2</ele><time>2026-04-27T12:46:31Z</time></trkpt><trkpt lat="45.80606980877798" lon="9.4751691221055"><ele>870.6</ele><time>2026-04-27T12:46:32Z</time></trkpt><trkpt lat="45.80616523671931" lon="9.475244588369137"><ele>869.0</ele><time>2026-04-27T12:46:33Z</time></trkpt><trkpt lat="45.80625548972039" lon="9.475310040377614"><ele>869.0</ele><time>2026-04-27T12:46:34Z</time></trkpt><trkpt lat="45.80633860374232" lon="9.475418968159794"><ele>869.0</ele><time>2026-04-27T12:46:36Z</time></trkpt><trkpt lat="45.806179852803304" lon="9.47534277344947"><ele>869.0</ele><time>2026-04-27T12:46:42Z</time></trkpt><trkpt lat="45.80608699521855" lon="9.47531847485217"><ele>869.0</ele><time>2026-04-27T12:46:43Z</time></trkpt><trkpt lat="45.80595864324148" lon="9.47524048886587"><ele>874.0000000000001</ele><time>2026-04-27T12:46:45Z</time></trkpt><trkpt lat="45.805873982369036" lon="9.475198414690507"><ele>879.0</ele><time>2026-04-27T12:46:46Z</time></trkpt><trkpt lat="45.80579317288302" lon="9.47515676113475"><ele>884.0</ele><time>2026-04-27T12:46:47Z</time></trkpt><trkpt lat="45.805713493581514" lon="9.475128918789146"><ele>889.0</ele><time>2026-04-27T12:46:48Z</time></trkpt><trkpt lat="45.80563109478158" lon="9.475095562156422"><ele>894.0000000000001</ele><time>2026-04-27T12:46:49Z</time></trkpt><trkpt lat="45.80556681151658" lon="9.47509966049427"><ele>899.0</ele><time>2026-04-27T12:46:50Z</time></trkpt><trkpt lat="45.80549607027882" lon="9.475107652429868"><ele>899.0000000000001</ele><time>2026-04-27T12:46:51Z</time></trkpt><trkpt lat="45.805371714114244" lon="9.475143066342575"><ele>899.0</ele><time>2026-04-27T12:46:53Z</time></trkpt><trkpt lat="45.8053184079441" lon="9.475194023269374"><ele>899.0</ele><time>2026-04-27T12:46:54Z</time></trkpt><trkpt lat="45.80525993635823" lon="9.475274488502055"><ele>899.0</ele><time>2026-04-27T12:46:55Z</time></trkpt><trkpt lat="45.80521070566288" lon="9.47534195720794"><ele>899.0000000000001</ele><time>2026-04-27T12:46:56Z</time></trkpt><trkpt lat="45.80516671321966" lon="9.47544904382678"><ele>899.0</ele><time>2026-04-27T12:46:57Z</time></trkpt><trkpt lat="45.80510704222416" lon="9.4755529918304"><ele>901.4000000000001</ele><time>2026-04-27T12:46:58Z</time></trkpt><trkpt lat="45.80505683241371" lon="9.475653850113163"><ele>903.8000000000001</ele><time>2026-04-27T12:46:59Z</time></trkpt><trkpt lat="45.80505231086685" lon="9.475778138037837"><ele>906.1999999999999</ele><time>2026-04-27T12:47:00Z</time></trkpt><trkpt lat="45.805044870019735" lon="9.475897669324297"><ele>908.5999999999999</ele><time>2026-04-27T12:47:01Z</time></trkpt><trkpt lat="45.805044353653216" lon="9.476023071563368"><ele>911.0</ele><time>2026-04-27T12:47:02Z</time></trkpt><trkpt lat="45.80505572622207" lon="9.476174584627454"><ele>912.0</ele><time>2026-04-27T12:47:03Z</time></trkpt><trkpt lat="45.80507083691291" lon="9.47635369580744"><ele>912.9999999999999</ele><time>2026-04-27T12:47:04Z</time></trkpt><trkpt lat="45.80511355454112" lon="9.476523861788396"><ele>913.9999999999999</ele><time>2026-04-27T12:47:05Z</time></trkpt><trkpt lat="45.805130908443516" lon="9.476622658725029"><ele>915.0</ele><time>2026-04-27T12:47:06Z</time></trkpt><trkpt lat="45.80516035156003" lon="9.476750719848132"><ele>916.0</ele><time>2026-04-27T12:47:07Z</time></trkpt><trkpt lat="45.80520148071417" lon="9.476884741126163"><ele>923.1999999999999</ele><time>2026-04-27T12:47:08Z</time></trkpt><trkpt lat="45.80523848629648" lon="9.477027050724239"><ele>930.3999999999999</ele><time>2026-04-27T12:47:09Z</time></trkpt><trkpt lat="45.805267272059325" lon="9.47716896200986"><ele>937.6</ele><time>2026-04-27T12:47:10Z</time></trkpt><trkpt lat="45.80528593164478" lon="9.477278063582338"><ele>944.8</ele><time>2026-04-27T12:47:11Z</time></trkpt><trkpt lat="45.8053055765625" lon="9.477422534267129"><ele>952.0</ele><time>2026-04-27T12:47:12Z</time></trkpt><trkpt lat="45.8053219288005" lon="9.477564147684832"><ele>953.3333333333333</ele><time>2026-04-27T12:47:13Z</time></trkpt><trkpt lat="45.8053357807584" lon="9.477731586452077"><ele>954.6666666666666</ele><time>2026-04-27T12:47:14Z</time></trkpt><trkpt lat="45.80535831862625" lon="9.477868504971168"><ele>956.0</ele><time>2026-04-27T12:47:15Z</time></trkpt><trkpt lat="45.80533731818462" lon="9.477970455183995"><ele>957.3333333333333</ele><time>2026-04-27T12:47:16Z</time></trkpt><trkpt lat="45.80530020591205" lon="9.478052206625957"><ele>958.6666666666666</ele><time>2026-04-27T12:47:18Z</time></trkpt><trkpt lat="45.80524124178126" lon="9.47812777808577"><ele>960.0</ele><time>2026-04-27T12:47:20Z</time></trkpt><trkpt lat="45.805172274600174" lon="9.478223326055653"><ele>957.6666666666666</ele><time>2026-04-27T12:47:21.999Z</time></trkpt><trkpt lat="45.805089970225104" lon="9.478284309607648"><ele>955.3333333333333</ele><time>2026-04-27T12:47:23.999Z</time></trkpt><trkpt lat="45.805022852311865" lon="9.478302555220665"><ele>953.0</ele><time>2026-04-27T12:47:24.999Z</time></trkpt><trkpt lat="45.8049579853793" lon="9.478356002090974"><ele>950.6666666666666</ele><time>2026-04-27T12:47:25.999Z</time></trkpt><trkpt lat="45.804880163478785" lon="9.478395759142371"><ele>948.3333333333333</ele><time>2026-04-27T12:47:26.999Z</time></trkpt><trkpt lat="45.80475960692334" lon="9.478429435789192"><ele>946.0</ele><time>2026-04-27T12:47:28.999Z</time></trkpt><trkpt lat="45.804674782823824" lon="9.47851656688913"><ele>945.9999999999999</ele><time>2026-04-27T12:47:30.999Z</time></trkpt><trkpt lat="45.80468033903327" lon="9.47861810372734"><ele>946.0</ele><time>2026-04-27T12:47:31.999Z</time></trkpt><trkpt lat="45.80463291111711" lon="9.478732843406462"><ele>946.0</ele><time>2026-04-27T12:47:33.999Z</time></trkpt><trkpt lat="45.80459247771255" lon="9.478813485022062"><ele>946.0</ele><time>2026-04-27T12:47:34.999Z</time></trkpt><trkpt lat="45.80453049195181" lon="9.478768186105244"><ele>945.9999999999999</ele><time>2026-04-27T12:47:35.999Z</time></trkpt><trkpt lat="45.80445342238" lon="9.478756952125503"><ele>946.0</ele><time>2026-04-27T12:47:36.999Z</time></trkpt><trkpt lat="45.804351322720656" lon="9.478770191309641"><ele>944.8333333333333</ele><time>2026-04-27T12:47:37.999Z</time></trkpt><trkpt lat="45.804268068158315" lon="9.478766433449529"><ele>943.6666666666666</ele><time>2026-04-27T12:47:38.999Z</time></trkpt><trkpt lat="45.80418127153066" lon="9.478803182814987"><ele>942.5</ele><time>2026-04-27T12:47:39.999Z</time></trkpt><trkpt lat="45.8041190986922" lon="9.478823617418282"><ele>941.3333333333333</ele><time>2026-04-27T12:47:40.999Z</time></trkpt><trkpt lat="45.80405870679681" lon="9.47885055333464"><ele>940.1666666666666</ele><time>2026-04-27T12:47:41.999Z</time></trkpt><trkpt lat="45.8039925545725" lon="9.478915701045413"><ele>939.0</ele><time>2026-04-27T12:47:42.999Z</time></trkpt><trkpt lat="45.80399303468855" lon="9.479015563726053"><ele>942.6666666666666</ele><time>2026-04-27T12:47:44.999Z</time></trkpt><trkpt lat="45.80403745573043" lon="9.479095375100263"><ele>946.3333333333333</ele><time>2026-04-27T12:47:45.999Z</time></trkpt><trkpt lat="45.80414835729666" lon="9.479087073787348"><ele>950.0</ele><time>2026-04-27T12:47:47.999Z</time></trkpt><trkpt lat="45.804210316545806" lon="9.479040422954322"><ele>953.6666666666666</ele><time>2026-04-27T12:47:48.999Z</time></trkpt><trkpt lat="45.804268826590146" lon="9.47899043452376"><ele>957.3333333333333</ele><time>2026-04-27T12:47:49.999Z</time></trkpt><trkpt lat="45.80434413962518" lon="9.478958685601919"><ele>961.0</ele><time>2026-04-27T12:47:51.999Z</time></trkpt><trkpt lat="45.80439921810239" lon="9.479060456407371"><ele>966.4</ele><time>2026-04-27T12:47:54Z</time></trkpt><trkpt lat="45.80449954082912" lon="9.479115040935397"><ele>971.8</ele><time>2026-04-27T12:47:55Z</time></trkpt><trkpt lat="45.80465266542128" lon="9.479134070885946"><ele>977.1999999999999</ele><time>2026-04-27T12:47:56Z</time></trkpt><trkpt lat="45.80475991463732" lon="9.479093432273233"><ele>982.5999999999999</ele><time>2026-04-27T12:47:57Z</time></trkpt><trkpt lat="45.8048231189678" lon="9.47904351107755"><ele>988.0</ele><time>2026-04-27T12:47:58Z</time></trkpt><trkpt lat="45.80496953095663" lon="9.478994216139812"><ele>988.0</ele><time>2026-04-27T12:48:00Z</time></trkpt><trkpt lat="45.805067066611656" lon="9.478988352806327"><ele>988.0</ele><time>2026-04-27T12:48:02Z</time></trkpt><trkpt lat="45.80519843779824" lon="9.478946554751513"><ele>988.0</ele><time>2026-04-27T12:48:04Z</time></trkpt><trkpt lat="45.80533790897067" lon="9.478928585095643"><ele>988.0</ele><time>2026-04-27T12:48:06Z</time></trkpt><trkpt lat="45.805417803755525" lon="9.478849253785196"><ele>985.25</ele><time>2026-04-27T12:48:07Z</time></trkpt><trkpt lat="45.805499441469955" lon="9.478756775537505"><ele>982.5</ele><time>2026-04-27T12:48:08Z</time></trkpt><trkpt lat="45.80558336299617" lon="9.478672355640365"><ele>979.75</ele><time>2026-04-27T12:48:09Z</time></trkpt><trkpt lat="45.80569453418089" lon="9.478519477075144"><ele>977.0</ele><time>2026-04-27T12:48:10Z</time></trkpt><trkpt lat="45.80580898667495" lon="9.478414313901315"><ele>977.0</ele><time>2026-04-27T12:48:11Z</time></trkpt><trkpt lat="45.8058732993789" lon="9.47832954896425"><ele>977.0</ele><time>2026-04-27T12:48:12Z</time></trkpt><trkpt lat="45.80592529130145" lon="9.47824820917864"><ele>977.0</ele><time>2026-04-27T12:48:13Z</time></trkpt><trkpt lat="45.8059279796216" lon="9.478016006945252"><ele>977.0</ele><time>2026-04-27T12:48:15Z</time></trkpt><trkpt lat="45.80592118694437" lon="9.477900188290889"><ele>977.0</ele><time>2026-04-27T12:48:16Z</time></trkpt><trkpt lat="45.805941825400126" lon="9.477783341749387"><ele>979.8</ele><time>2026-04-27T12:48:18Z</time></trkpt><trkpt lat="45.80602910649619" lon="9.477768262041186"><ele>982.6</ele><time>2026-04-27T12:48:24Z</time></trkpt><trkpt lat="45.806093166035886" lon="9.477880917666381"><ele>985.3999999999999</ele><time>2026-04-27T12:48:25Z</time></trkpt><trkpt lat="45.80612632334667" lon="9.478001709110783"><ele>988.1999999999999</ele><time>2026-04-27T12:48:26Z</time></trkpt><trkpt lat="45.80617558198635" lon="9.478131134276554"><ele>991.0</ele><time>2026-04-27T12:48:27Z</time></trkpt><trkpt lat="45.806215957595185" lon="9.4782382250248"><ele>991.0</ele><time>2026-04-27T12:48:28Z</time></trkpt><trkpt lat="45.806271258307596" lon="9.478320233154538"><ele>990.9999999999999</ele><time>2026-04-27T12:48:29Z</time></trkpt><trkpt lat="45.80634838183728" lon="9.478379648977985"><ele>990.9999999999999</ele><time>2026-04-27T12:48:30Z</time></trkpt><trkpt lat="45.80642462508496" lon="9.478432884690012"><ele>991.0</ele><time>2026-04-27T12:48:31Z</time></trkpt><trkpt lat="45.8065018390105" lon="9.47848422313132"><ele>991.0</ele><time>2026-04-27T12:48:32Z</time></trkpt><trkpt lat="45.80662105000249" lon="9.478559502920618"><ele>991.0</ele><time>2026-04-27T12:48:34Z</time></trkpt><trkpt lat="45.80668753417889" lon="9.47860167965063"><ele>991.0</ele><time>2026-04-27T12:48:36Z</time></trkpt><trkpt lat="45.80638481582892" lon="9.478296442078483"><ele>991.0</ele><time>2026-04-27T12:48:41Z</time></trkpt><trkpt lat="45.806332670121066" lon="9.478400604099981"><ele>990.9999999999999</ele><time>2026-04-27T12:48:43Z</time></trkpt><trkpt lat="45.80624287047248" lon="9.478432525722985"><ele>991.0</ele><time>2026-04-27T12:48:45Z</time></trkpt><trkpt lat="45.8061892681739" lon="9.478481122699133"><ele>991.0</ele><time>2026-04-27T12:48:46Z</time></trkpt><trkpt lat="45.80614093296606" lon="9.478570008352438"><ele>991.0</ele><time>2026-04-27T12:48:47Z</time></trkpt><trkpt lat="45.80607416449959" lon="9.478645500520855"><ele>990.9999999999999</ele><time>2026-04-27T12:48:48Z</time></trkpt><trkpt lat="45.80602137776424" lon="9.478740649382184"><ele>991.0</ele><time>2026-04-27T12:48:49Z</time></trkpt><trkpt lat="45.80596556067381" lon="9.478855816796296"><ele>993.8</ele><time>2026-04-27T12:48:50Z</time></trkpt><trkpt lat="45.805879127832114" lon="9.478948214215473"><ele>996.5999999999999</ele><time>2026-04-27T12:48:51Z</time></trkpt><trkpt lat="45.80580264816473" lon="9.479054205852428"><ele>999.4</ele><time>2026-04-27T12:48:52Z</time></trkpt><trkpt lat="45.8057258310979" lon="9.47916896538008"><ele>1002.2</ele><time>2026-04-27T12:48:53Z</time></trkpt><trkpt lat="45.80564277457408" lon="9.479269476316782"><ele>1005.0</ele><time>2026-04-27T12:48:54Z</time></trkpt><trkpt lat="45.80555090381265" lon="9.47940082570655"><ele>1005.0</ele><time>2026-04-27T12:48:55Z</time></trkpt><trkpt lat="45.8054767254453" lon="9.479512583824055"><ele>1005.0</ele><time>2026-04-27T12:48:56Z</time></trkpt><trkpt lat="45.80540781719346" lon="9.479620644911304"><ele>1005.0</ele><time>2026-04-27T12:48:57Z</time></trkpt><trkpt lat="45.80529160931083" lon="9.479690029497082"><ele>1005.0</ele><time>2026-04-27T12:48:59Z</time></trkpt><trkpt lat="45.8051870331163" lon="9.479813131887921"><ele>1005.0</ele><time>2026-04-27T12:49:01Z</time></trkpt><trkpt lat="45.80514127574158" lon="9.479881503978385"><ele>1005.0</ele><time>2026-04-27T12:49:02Z</time></trkpt><trkpt lat="45.80507434051831" lon="9.479972791303288"><ele>1005.0</ele><time>2026-04-27T12:49:04Z</time></trkpt><trkpt lat="45.80511268833359" lon="9.48007927426847"><ele>1005.0</ele><time>2026-04-27T12:49:05Z</time></trkpt><trkpt lat="45.805189242865715" lon="9.48017502877959"><ele>1005.0</ele><time>2026-04-27T12:49:06Z</time></trkpt><trkpt lat="45.805244462899594" lon="9.480295523722969"><ele>1005.0</ele><time>2026-04-27T12:49:07Z</time></trkpt><trkpt lat="45.80526779261443" lon="9.480430584646577"><ele>1013.4</ele><time>2026-04-27T12:49:08Z</time></trkpt><trkpt lat="45.805276615072955" lon="9.48054681865888"><ele>1021.8</ele><time>2026-04-27T12:49:09Z</time></trkpt><trkpt lat="45.805273053823996" lon="9.480680358227"><ele>1030.2</ele><time>2026-04-27T12:49:10Z</time></trkpt><trkpt lat="45.80525386850274" lon="9.480807823299248"><ele>1038.6</ele><time>2026-04-27T12:49:11Z</time></trkpt><trkpt lat="45.80522427923208" lon="9.480937983242374"><ele>1047.0</ele><time>2026-04-27T12:49:12Z</time></trkpt><trkpt lat="45.80516940006518" lon="9.481040039174706"><ele>1044.8333333333333</ele><time>2026-04-27T12:49:14Z</time></trkpt><trkpt lat="45.80512299620482" lon="9.481116678615559"><ele>1042.6666666666667</ele><time>2026-04-27T12:49:15Z</time></trkpt><trkpt lat="45.805053640091685" lon="9.481155868618222"><ele>1040.5</ele><time>2026-04-27T12:49:16Z</time></trkpt><trkpt lat="45.80499874950264" lon="9.481210567912425"><ele>1038.3333333333335</ele><time>2026-04-27T12:49:17Z</time></trkpt><trkpt lat="45.804942088162356" lon="9.481285402256493"><ele>1036.1666666666667</ele><time>2026-04-27T12:49:18Z</time></trkpt><trkpt lat="45.80487359926904" lon="9.481366163529458"><ele>1034.0</ele><time>2026-04-27T12:49:19Z</time></trkpt><trkpt lat="45.804817091478164" lon="9.481469556521432"><ele>1034.0</ele><time>2026-04-27T12:49:20Z</time></trkpt><trkpt lat="45.80476904550059" lon="9.48158556755119"><ele>1034.0</ele><time>2026-04-27T12:49:21Z</time></trkpt><trkpt lat="45.804736477671476" lon="9.481731366502466"><ele>1034.0</ele><time>2026-04-27T12:49:22Z</time></trkpt><trkpt lat="45.80469956208152" lon="9.48188453120257"><ele>1034.0</ele><time>2026-04-27T12:49:23Z</time></trkpt><trkpt lat="45.80466428560897" lon="9.482042211415427"><ele>1034.0</ele><time>2026-04-27T12:49:24Z</time></trkpt><trkpt lat="45.8046318305262" lon="9.482175855852407"><ele>1037.4</ele><time>2026-04-27T12:49:25Z</time></trkpt><trkpt lat="45.8046061191911" lon="9.482307349785412"><ele>1040.8000000000002</ele><time>2026-04-27T12:49:26Z</time></trkpt><trkpt lat="45.80457512338662" lon="9.482390705928871"><ele>1044.1999999999998</ele><time>2026-04-27T12:49:27Z</time></trkpt><trkpt lat="45.80455327785942" lon="9.482531646129061"><ele>1047.6</ele><time>2026-04-27T12:49:29Z</time></trkpt><trkpt lat="45.80443457330363" lon="9.482589236836434"><ele>1051.0</ele><time>2026-04-27T12:49:31Z</time></trkpt><trkpt lat="45.80433465634112" lon="9.482703307047268"><ele>1049.2</ele><time>2026-04-27T12:49:33Z</time></trkpt><trkpt lat="45.804286414711946" lon="9.482816007742489"><ele>1047.3999999999999</ele><time>2026-04-27T12:49:34Z</time></trkpt><trkpt lat="45.80422450668995" lon="9.482919510826871"><ele>1045.6</ele><time>2026-04-27T12:49:35Z</time></trkpt><trkpt lat="45.80417286134728" lon="9.483055270498316"><ele>1043.8</ele><time>2026-04-27T12:49:36Z</time></trkpt><trkpt lat="45.80411130707682" lon="9.48319136304847"><ele>1042.0</ele><time>2026-04-27T12:49:37Z</time></trkpt><trkpt lat="45.80404616742813" lon="9.48333826538532"><ele>1042.0</ele><time>2026-04-27T12:49:38Z</time></trkpt><trkpt lat="45.80398604682801" lon="9.48345540259104"><ele>1042.0</ele><time>2026-04-27T12:49:39Z</time></trkpt><trkpt lat="45.803935685057816" lon="9.483542913800816"><ele>1042.0</ele><time>2026-04-27T12:49:40Z</time></trkpt><trkpt lat="45.80389003820079" lon="9.483633112477104"><ele>1042.0</ele><time>2026-04-27T12:49:41Z</time></trkpt><trkpt lat="45.80384556087133" lon="9.483832036727227"><ele>1042.0</ele><time>2026-04-27T12:49:43Z</time></trkpt><trkpt lat="45.803816141982395" lon="9.483964401761082"><ele>1045.0</ele><time>2026-04-27T12:49:44Z</time></trkpt><trkpt lat="45.80376152806191" lon="9.484122161565937"><ele>1048.0</ele><time>2026-04-27T12:49:45Z</time></trkpt><trkpt lat="45.80375969000066" lon="9.484245085454297"><ele>1051.0</ele><time>2026-04-27T12:49:47Z</time></trkpt><trkpt lat="45.80380180023317" lon="9.484328505003475"><ele>1054.0</ele><time>2026-04-27T12:49:48Z</time></trkpt><trkpt lat="45.803864324218885" lon="9.484440050087127"><ele>1057.0</ele><time>2026-04-27T12:49:49Z</time></trkpt><trkpt lat="45.80391291330079" lon="9.48453619911604"><ele>1057.0</ele><time>2026-04-27T12:49:50Z</time></trkpt><trkpt lat="45.80396091212019" lon="9.484595392230332"><ele>1057.0</ele><time>2026-04-27T12:49:52Z</time></trkpt><trkpt lat="45.80399273785299" lon="9.484469899650133"><ele>1057.0</ele><time>2026-04-27T12:49:56Z</time></trkpt><trkpt lat="45.80396805406461" lon="9.484319817413235"><ele>1057.0</ele><time>2026-04-27T12:49:58Z</time></trkpt><trkpt lat="45.80392615321202" lon="9.484200606197362"><ele>1057.0</ele><time>2026-04-27T12:49:59Z</time></trkpt><trkpt lat="45.803980082975826" lon="9.484029068952331"><ele>1057.0</ele><time>2026-04-27T12:50:01Z</time></trkpt><trkpt lat="45.804049847047885" lon="9.48396229703346"><ele>1057.0</ele><time>2026-04-27T12:50:02Z</time></trkpt><trkpt lat="45.80412696022222" lon="9.483821368853066"><ele>1057.0</ele><time>2026-04-27T12:50:03Z</time></trkpt><trkpt lat="45.80419414253484" lon="9.483707625854551"><ele>1057.0</ele><time>2026-04-27T12:50:04Z</time></trkpt><trkpt lat="45.804252121857694" lon="9.48361290426399"><ele>1057.0</ele><time>2026-04-27T12:50:05Z</time></trkpt><trkpt lat="45.80432950526945" lon="9.483540952801947"><ele>1060.8</ele><time>2026-04-27T12:50:06Z</time></trkpt><trkpt lat="45.804414477512346" lon="9.483458318566427"><ele>1064.6</ele><time>2026-04-27T12:50:07Z</time></trkpt><trkpt lat="45.80452375329731" lon="9.483387434166715"><ele>1068.3999999999999</ele><time>2026-04-27T12:50:08Z</time></trkpt><trkpt lat="45.8046179777271" lon="9.483308955153118"><ele>1072.2</ele><time>2026-04-27T12:50:09Z</time></trkpt><trkpt lat="45.804698979765455" lon="9.483283075963595"><ele>1076.0</ele><time>2026-04-27T12:50:10Z</time></trkpt><trkpt lat="45.80478073866715" lon="9.483245718255079"><ele>1076.0</ele><time>2026-04-27T12:50:11Z</time></trkpt><trkpt lat="45.80486701824507" lon="9.483241753315099"><ele>1076.0</ele><time>2026-04-27T12:50:12Z</time></trkpt><trkpt lat="45.804939220776426" lon="9.483212702684805"><ele>1076.0</ele><time>2026-04-27T12:50:13Z</time></trkpt><trkpt lat="45.80500584044232" lon="9.483147101054696"><ele>1076.0</ele><time>2026-04-27T12:50:14Z</time></trkpt><trkpt lat="45.80504219709426" lon="9.48292729454669"><ele>1076.0</ele><time>2026-04-27T12:50:16Z</time></trkpt><trkpt lat="45.80509944106505" lon="9.482830003052351"><ele>1077.3999999999999</ele><time>2026-04-27T12:50:17Z</time></trkpt><trkpt lat="45.8051908718787" lon="9.482785744119631"><ele>1078.8</ele><time>2026-04-27T12:50:18Z</time></trkpt><trkpt lat="45.80527060892605" lon="9.482697996094057"><ele>1080.1999999999998</ele><time>2026-04-27T12:50:19Z</time></trkpt><trkpt lat="45.80535830206381" lon="9.482646927954045"><ele>1081.6</ele><time>2026-04-27T12:50:20Z</time></trkpt><trkpt lat="45.80543140597145" lon="9.482583195925942"><ele>1083.0</ele><time>2026-04-27T12:50:21Z</time></trkpt><trkpt lat="45.805577952594156" lon="9.482456061880699"><ele>1083.0</ele><time>2026-04-27T12:50:22Z</time></trkpt><trkpt lat="45.80567967416169" lon="9.482381006623996"><ele>1083.0</ele><time>2026-04-27T12:50:23Z</time></trkpt><trkpt lat="45.80578599341202" lon="9.482320597511405"><ele>1083.0</ele><time>2026-04-27T12:50:24Z</time></trkpt><trkpt lat="45.805872972279964" lon="9.482268349691434"><ele>1083.0</ele><time>2026-04-27T12:50:25Z</time></trkpt><trkpt lat="45.805946045951636" lon="9.482234471605244"><ele>1083.0</ele><time>2026-04-27T12:50:26Z</time></trkpt><trkpt lat="45.80600303930174" lon="9.482193972471753"><ele>1083.0</ele><time>2026-04-27T12:50:27Z</time></trkpt><trkpt lat="45.80606421675903" lon="9.482121651687043"><ele>1083.0</ele><time>2026-04-27T12:50:29Z</time></trkpt><trkpt lat="45.805979648960296" lon="9.482231400467002"><ele>1083.0</ele><time>2026-04-27T12:50:35Z</time></trkpt><trkpt lat="45.80589891446563" lon="9.48231047655635"><ele>1083.0</ele><time>2026-04-27T12:50:36Z</time></trkpt><trkpt lat="45.80582343347458" lon="9.482383889477328"><ele>1083.0</ele><time>2026-04-27T12:50:37Z</time></trkpt><trkpt lat="45.80575997409604" lon="9.482467615961248"><ele>1083.0</ele><time>2026-04-27T12:50:38Z</time></trkpt><trkpt lat="45.80571516238537" lon="9.482561726563455"><ele>1083.0</ele><time>2026-04-27T12:50:39Z</time></trkpt><trkpt lat="45.80566438441951" lon="9.4826399484146"><ele>1083.0</ele><time>2026-04-27T12:50:40Z</time></trkpt><trkpt lat="45.80559529434586" lon="9.482739914115188"><ele>1083.0</ele><time>2026-04-27T12:50:41Z</time></trkpt><trkpt lat="45.80554558650447" lon="9.48284500967202"><ele>1083.0</ele><time>2026-04-27T12:50:42Z</time></trkpt><trkpt lat="45.805460787761824" lon="9.482930741546712"><ele>1083.0</ele><time>2026-04-27T12:50:43Z</time></trkpt><trkpt lat="45.805399567229124" lon="9.482996410198771"><ele>1081.6</ele><time>2026-04-27T12:50:44Z</time></trkpt><trkpt lat="45.80532427182032" lon="9.483149339845838"><ele>1080.1999999999998</ele><time>2026-04-27T12:50:46Z</time></trkpt><trkpt lat="45.8052872001478" lon="9.483259964640416"><ele>1078.8</ele><time>2026-04-27T12:50:47Z</time></trkpt><trkpt lat="45.80525087772049" lon="9.483386406685094"><ele>1077.3999999999999</ele><time>2026-04-27T12:50:48Z</time></trkpt><trkpt lat="45.80521141069553" lon="9.483490110105642"><ele>1076.0</ele><time>2026-04-27T12:50:49Z</time></trkpt><trkpt lat="45.805149280501446" lon="9.483542681933415"><ele>1076.0</ele><time>2026-04-27T12:50:50Z</time></trkpt><trkpt lat="45.805061197247426" lon="9.483588591471767"><ele>1076.0</ele><time>2026-04-27T12:50:51Z</time></trkpt><trkpt lat="45.804984467838544" lon="9.483632551096347"><ele>1076.0</ele><time>2026-04-27T12:50:52Z</time></trkpt><trkpt lat="45.804926254821105" lon="9.48367122087177"><ele>1076.0</ele><time>2026-04-27T12:50:53Z</time></trkpt><trkpt lat="45.80486252674194" lon="9.483842457736962"><ele>1076.0</ele><time>2026-04-27T12:50:55Z</time></trkpt><trkpt lat="45.80480362231711" lon="9.483937172868515"><ele>1078.8</ele><time>2026-04-27T12:50:56Z</time></trkpt><trkpt lat="45.804763694728095" lon="9.484086868527946"><ele>1081.6</ele><time>2026-04-27T12:50:57Z</time></trkpt><trkpt lat="45.80473718385557" lon="9.484220399288736"><ele>1084.4</ele><time>2026-04-27T12:50:58Z</time></trkpt><trkpt lat="45.80468839993597" lon="9.48428695033222"><ele>1087.2</ele><time>2026-04-27T12:50:59Z</time></trkpt><trkpt lat="45.80464448428584" lon="9.484375439713917"><ele>1090.0</ele><time>2026-04-27T12:51:02Z</time></trkpt><trkpt lat="45.80474353268964" lon="9.484377102423558"><ele>1090.0</ele><time>2026-04-27T12:51:14Z</time></trkpt><trkpt lat="45.804812009517015" lon="9.484238908896824"><ele>1090.0</ele><time>2026-04-27T12:51:16Z</time></trkpt><trkpt lat="45.80489135032669" lon="9.48416221496379"><ele>1090.0</ele><time>2026-04-27T12:51:17Z</time></trkpt><trkpt lat="45.80497350775285" lon="9.48410367389134"><ele>1090.0</ele><time>2026-04-27T12:51:18Z</time></trkpt><trkpt lat="45.80507543124966" lon="9.484021394072641"><ele>1090.0</ele><time>2026-04-27T12:51:19Z</time></trkpt><trkpt lat="45.80518488457537" lon="9.483949736479243"><ele>1092.0</ele><time>2026-04-27T12:51:20Z</time></trkpt><trkpt lat="45.80527821331027" lon="9.4838513369684"><ele>1094.0</ele><time>2026-04-27T12:51:21Z</time></trkpt><trkpt lat="45.805375275846544" lon="9.4837740925886"><ele>1096.0</ele><time>2026-04-27T12:51:22Z</time></trkpt><trkpt lat="45.805461452811585" lon="9.483679774194556"><ele>1098.0</ele><time>2026-04-27T12:51:23Z</time></trkpt><trkpt lat="45.80552729808107" lon="9.48358317467136"><ele>1100.0</ele><time>2026-04-27T12:51:24Z</time></trkpt><trkpt lat="45.80559752371053" lon="9.483445061447645"><ele>1100.0</ele><time>2026-04-27T12:51:25Z</time></trkpt><trkpt lat="45.80565074755868" lon="9.483326523224864"><ele>1100.0</ele><time>2026-04-27T12:51:26Z</time></trkpt><trkpt lat="45.805713612790036" lon="9.483198782881534"><ele>1100.0</ele><time>2026-04-27T12:51:27Z</time></trkpt><trkpt lat="45.80576528309089" lon="9.483125197923163"><ele>1100.0</ele><time>2026-04-27T12:51:28Z</time></trkpt><trkpt lat="45.80573751431488" lon="9.48329017664526"><ele>1100.0</ele><time>2026-04-27T12:51:35Z</time></trkpt><trkpt lat="45.80571789188127" lon="9.483411336206265"><ele>1100.0</ele><time>2026-04-27T12:51:36Z</time></trkpt><trkpt lat="45.80571445206434" lon="9.483539456898495"><ele>1100.0</ele><time>2026-04-27T12:51:37Z</time></trkpt><trkpt lat="45.80573300898469" lon="9.483678884986343"><ele>1100.0</ele><time>2026-04-27T12:51:38Z</time></trkpt><trkpt lat="45.80573335833471" lon="9.483769655353274"><ele>1100.0</ele><time>2026-04-27T12:51:39Z</time></trkpt><trkpt lat="45.805672476933076" lon="9.483958717428049"><ele>1100.0</ele><time>2026-04-27T12:51:41Z</time></trkpt><trkpt lat="45.805657759670886" lon="9.484052761957706"><ele>1103.2</ele><time>2026-04-27T12:51:42Z</time></trkpt><trkpt lat="45.805622014685696" lon="9.484186105440179"><ele>1106.4</ele><time>2026-04-27T12:51:43Z</time></trkpt><trkpt lat="45.80558522707464" lon="9.484336204999494"><ele>1109.6</ele><time>2026-04-27T12:51:44Z</time></trkpt><trkpt lat="45.80553014981918" lon="9.4844921255972"><ele>1112.8</ele><time>2026-04-27T12:51:45Z</time></trkpt><trkpt lat="45.80546724447304" lon="9.484611608354342"><ele>1116.0</ele><time>2026-04-27T12:51:46Z</time></trkpt><trkpt lat="45.80541244708184" lon="9.484735144616478"><ele>1113.6666666666667</ele><time>2026-04-27T12:51:47Z</time></trkpt><trkpt lat="45.805360155536626" lon="9.484858154565993"><ele>1111.3333333333333</ele><time>2026-04-27T12:51:48Z</time></trkpt><trkpt lat="45.80530407034087" lon="9.48494250372342"><ele>1109.0</ele><time>2026-04-27T12:51:49Z</time></trkpt><trkpt lat="45.805265509275195" lon="9.485033989635493"><ele>1106.6666666666665</ele><time>2026-04-27T12:51:50Z</time></trkpt><trkpt lat="45.80520675700565" lon="9.48511400732205"><ele>1104.3333333333333</ele><time>2026-04-27T12:51:51Z</time></trkpt><trkpt lat="45.805152255159065" lon="9.485251669162308"><ele>1102.0</ele><time>2026-04-27T12:51:53Z</time></trkpt><trkpt lat="45.80515234800313" lon="9.485348749825905"><ele>1107.0</ele><time>2026-04-27T12:51:55Z</time></trkpt><trkpt lat="45.80519274543259" lon="9.48542138646628"><ele>1112.0</ele><time>2026-04-27T12:51:56Z</time></trkpt><trkpt lat="45.80522466227047" lon="9.485526498250566"><ele>1117.0</ele><time>2026-04-27T12:51:57Z</time></trkpt><trkpt lat="45.80527639407441" lon="9.485645470291882"><ele>1122.0</ele><time>2026-04-27T12:51:58Z</time></trkpt><trkpt lat="45.80529689670702" lon="9.485765847619145"><ele>1127.0</ele><time>2026-04-27T12:51:59Z</time></trkpt><trkpt lat="45.805330719723486" lon="9.485878375350016"><ele>1132.0</ele><time>2026-04-27T12:52:00Z</time></trkpt><trkpt lat="45.80535895274468" lon="9.485990889675318"><ele>1133.8333333333333</ele><time>2026-04-27T12:52:01Z</time></trkpt><trkpt lat="45.80538926540005" lon="9.486101859725864"><ele>1135.6666666666665</ele><time>2026-04-27T12:52:02Z</time></trkpt><trkpt lat="45.805394205756485" lon="9.48620602541857"><ele>1137.5</ele><time>2026-04-27T12:52:03Z</time></trkpt><trkpt lat="45.80538949969881" lon="9.486326597947262"><ele>1139.3333333333333</ele><time>2026-04-27T12:52:04Z</time></trkpt><trkpt lat="45.80539277506882" lon="9.486452766893331"><ele>1141.1666666666667</ele><time>2026-04-27T12:52:05Z</time></trkpt><trkpt lat="45.805355544768595" lon="9.486614140029161"><ele>1143.0</ele><time>2026-04-27T12:52:06Z</time></trkpt><trkpt lat="45.80533004658222" lon="9.486742351645209"><ele>1143.8333333333333</ele><time>2026-04-27T12:52:07Z</time></trkpt><trkpt lat="45.80529526944435" lon="9.486858741781726"><ele>1144.6666666666667</ele><time>2026-04-27T12:52:08Z</time></trkpt><trkpt lat="45.805259868019704" lon="9.486941215441"><ele>1145.5</ele><time>2026-04-27T12:52:09Z</time></trkpt><trkpt lat="45.805210317682366" lon="9.487021159910412"><ele>1146.3333333333335</ele><time>2026-04-27T12:52:10Z</time></trkpt><trkpt lat="45.80513630496433" lon="9.487109695761108"><ele>1147.1666666666667</ele><time>2026-04-27T12:52:11Z</time></trkpt><trkpt lat="45.80505229924017" lon="9.487208355439826"><ele>1148.0</ele><time>2026-04-27T12:52:12Z</time></trkpt><trkpt lat="45.80494605118502" lon="9.487325837926292"><ele>1144.5</ele><time>2026-04-27T12:52:13Z</time></trkpt><trkpt lat="45.80483744246075" lon="9.487439970500912"><ele>1141.0</ele><time>2026-04-27T12:52:14Z</time></trkpt><trkpt lat="45.804757262693194" lon="9.487542766418365"><ele>1137.5</ele><time>2026-04-27T12:52:15Z</time></trkpt><trkpt lat="45.80462734938525" lon="9.487631403018518"><ele>1134.0</ele><time>2026-04-27T12:52:16Z</time></trkpt><trkpt lat="45.80455061831722" lon="9.487717159189344"><ele>1134.0</ele><time>2026-04-27T12:52:17Z</time></trkpt><trkpt lat="45.80450870921596" lon="9.48781700540183"><ele>1134.0</ele><time>2026-04-27T12:52:18Z</time></trkpt><trkpt lat="45.80443479747389" lon="9.487872582687423"><ele>1134.0</ele><time>2026-04-27T12:52:19Z</time></trkpt><trkpt lat="45.80436200795146" lon="9.487979248165253"><ele>1134.0</ele><time>2026-04-27T12:52:20Z</time></trkpt><trkpt lat="45.804275172005624" lon="9.488067293525397"><ele>1134.0</ele><time>2026-04-27T12:52:21Z</time></trkpt><trkpt lat="45.804217111039264" lon="9.48815260836664"><ele>1135.2</ele><time>2026-04-27T12:52:22Z</time></trkpt><trkpt lat="45.804152442559236" lon="9.488188019343385"><ele>1136.4</ele><time>2026-04-27T12:52:23Z</time></trkpt><trkpt lat="45.8040902408258" lon="9.488263621656653"><ele>1137.6</ele><time>2026-04-27T12:52:24Z</time></trkpt><trkpt lat="45.80399623118962" lon="9.488381455324953"><ele>1138.8</ele><time>2026-04-27T12:52:25Z</time></trkpt><trkpt lat="45.80392280045484" lon="9.488514248496221"><ele>1140.0</ele><time>2026-04-27T12:52:26Z</time></trkpt><trkpt lat="45.80384356275749" lon="9.48867495175816"><ele>1145.0</ele><time>2026-04-27T12:52:27Z</time></trkpt><trkpt lat="45.80375050225169" lon="9.488792270690626"><ele>1150.0</ele><time>2026-04-27T12:52:28Z</time></trkpt><trkpt lat="45.80368712866683" lon="9.488901585489387"><ele>1155.0</ele><time>2026-04-27T12:52:29Z</time></trkpt><trkpt lat="45.803614135583246" lon="9.488956327420892"><ele>1160.0</ele><time>2026-04-27T12:52:30Z</time></trkpt><trkpt lat="45.80356022996495" lon="9.489004489353125"><ele>1165.0</ele><time>2026-04-27T12:52:31Z</time></trkpt><trkpt lat="45.80345059052136" lon="9.48904503855503"><ele>1165.0</ele><time>2026-04-27T12:52:33Z</time></trkpt><trkpt lat="45.803383467895735" lon="9.489021596316782"><ele>1165.0</ele><time>2026-04-27T12:52:34Z</time></trkpt><trkpt lat="45.803316361270845" lon="9.48895811919817"><ele>1165.0</ele><time>2026-04-27T12:52:35Z</time></trkpt><trkpt lat="45.80325439359817" lon="9.488906612424485"><ele>1165.0</ele><time>2026-04-27T12:52:36Z</time></trkpt><trkpt lat="45.80312924279905" lon="9.48875438423304"><ele>1165.0</ele><time>2026-04-27T12:52:38Z</time></trkpt><trkpt lat="45.803064380068705" lon="9.488666461954509"><ele>1163.25</ele><time>2026-04-27T12:52:39Z</time></trkpt><trkpt lat="45.802982801134846" lon="9.488572539166611"><ele>1161.5</ele><time>2026-04-27T12:52:40Z</time></trkpt><trkpt lat="45.80288184510415" lon="9.488499046715468"><ele>1159.75</ele><time>2026-04-27T12:52:41Z</time></trkpt><trkpt lat="45.80274169872126" lon="9.488431667611046"><ele>1158.0</ele><time>2026-04-27T12:52:42Z</time></trkpt><trkpt lat="45.80262103691696" lon="9.48837233648534"><ele>1158.0</ele><time>2026-04-27T12:52:43Z</time></trkpt><trkpt lat="45.80254188584058" lon="9.48830088566092"><ele>1158.0</ele><time>2026-04-27T12:52:44Z</time></trkpt><trkpt lat="45.80246960799819" lon="9.488291569020348"><ele>1158.0</ele><time>2026-04-27T12:52:45Z</time></trkpt><trkpt lat="45.80238391993973" lon="9.488301224689891"><ele>1158.0</ele><time>2026-04-27T12:52:46Z</time></trkpt><trkpt lat="45.80229848127554" lon="9.488375204991431"><ele>1158.0</ele><time>2026-04-27T12:52:47Z</time></trkpt><trkpt lat="45.802198562613526" lon="9.48843121754612"><ele>1158.0</ele><time>2026-04-27T12:52:48Z</time></trkpt><trkpt lat="45.80211722229124" lon="9.488464948700948"><ele>1158.0</ele><time>2026-04-27T12:52:49Z</time></trkpt><trkpt lat="45.802002594748515" lon="9.48851407169804"><ele>1158.0</ele><time>2026-04-27T12:52:51Z</time></trkpt><trkpt lat="45.802006310292825" lon="9.488615176816081"><ele>1158.0</ele><time>2026-04-27T12:52:54Z</time></trkpt><trkpt lat="45.80209782686287" lon="9.488645995864587"><ele>1158.0</ele><time>2026-04-27T12:52:57Z</time></trkpt><trkpt lat="45.80217146439813" lon="9.488682312013024"><ele>1158.0</ele><time>2026-04-27T12:52:58Z</time></trkpt><trkpt lat="45.802256208411656" lon="9.488698210151824"><ele>1158.0</ele><time>2026-04-27T12:52:59Z</time></trkpt><trkpt lat="45.802319621024196" lon="9.488710106142948"><ele>1158.0</ele><time>2026-04-27T12:53:00Z</time></trkpt><trkpt lat="45.80240959750344" lon="9.48873376833152"><ele>1158.0</ele><time>2026-04-27T12:53:01Z</time></trkpt><trkpt lat="45.802564701594406" lon="9.48887030612645"><ele>1158.0</ele><time>2026-04-27T12:53:03Z</time></trkpt><trkpt lat="45.80262574536318" lon="9.48894675124356"><ele>1158.0</ele><time>2026-04-27T12:53:04Z</time></trkpt><trkpt lat="45.80275224386156" lon="9.48912602834444"><ele>1159.75</ele><time>2026-04-27T12:53:05Z</time></trkpt><trkpt lat="45.802816190538984" lon="9.489240683066786"><ele>1161.5</ele><time>2026-04-27T12:53:06Z</time></trkpt><trkpt lat="45.80291408223357" lon="9.489371815040787"><ele>1163.25</ele><time>2026-04-27T12:53:07Z</time></trkpt><trkpt lat="45.80300359811537" lon="9.48946659346879"><ele>1165.0</ele><time>2026-04-27T12:53:08Z</time></trkpt><trkpt lat="45.80311510587472" lon="9.489530628814483"><ele>1172.75</ele><time>2026-04-27T12:53:09Z</time></trkpt><trkpt lat="45.803238069989845" lon="9.489606927734107"><ele>1180.5</ele><time>2026-04-27T12:53:10Z</time></trkpt><trkpt lat="45.80337161524662" lon="9.489667064610886"><ele>1188.25</ele><time>2026-04-27T12:53:11Z</time></trkpt><trkpt lat="45.80350035471469" lon="9.489714824583512"><ele>1196.0</ele><time>2026-04-27T12:53:12Z</time></trkpt><trkpt lat="45.80361231883623" lon="9.489732801404688"><ele>1196.6</ele><time>2026-04-27T12:53:13Z</time></trkpt><trkpt lat="45.80371549497112" lon="9.489767779007858"><ele>1197.1999999999998</ele><time>2026-04-27T12:53:14Z</time></trkpt><trkpt lat="45.80382605999331" lon="9.489796433494206"><ele>1197.8000000000002</ele><time>2026-04-27T12:53:15Z</time></trkpt><trkpt lat="45.8039279727795" lon="9.489821144374348"><ele>1198.4</ele><time>2026-04-27T12:53:16Z</time></trkpt><trkpt lat="45.804019044130705" lon="9.489826622430837"><ele>1199.0</ele><time>2026-04-27T12:53:17Z</time></trkpt><trkpt lat="45.80409884542108" lon="9.489793113046526"><ele>1199.0</ele><time>2026-04-27T12:53:18Z</time></trkpt><trkpt lat="45.80419496219676" lon="9.489748249828066"><ele>1199.0</ele><time>2026-04-27T12:53:19Z</time></trkpt><trkpt lat="45.80426034827032" lon="9.489693122368015"><ele>1199.0</ele><time>2026-04-27T12:53:20Z</time></trkpt><trkpt lat="45.80434728939398" lon="9.489639225458708"><ele>1199.0</ele><time>2026-04-27T12:53:21Z</time></trkpt><trkpt lat="45.804467418745155" lon="9.489579990212476"><ele>1199.0</ele><time>2026-04-27T12:53:22Z</time></trkpt><trkpt lat="45.80457636121565" lon="9.48953071772818"><ele>1197.6666666666667</ele><time>2026-04-27T12:53:23Z</time></trkpt><trkpt lat="45.80467572974251" lon="9.489473239809449"><ele>1196.3333333333335</ele><time>2026-04-27T12:53:24Z</time></trkpt><trkpt lat="45.80473708896225" lon="9.48937908146585"><ele>1195.0</ele><time>2026-04-27T12:53:25Z</time></trkpt><trkpt lat="45.80478848909642" lon="9.48928314464289"><ele>1193.6666666666667</ele><time>2026-04-27T12:53:26Z</time></trkpt><trkpt lat="45.80482133809435" lon="9.489162792306445"><ele>1192.3333333333333</ele><time>2026-04-27T12:53:27Z</time></trkpt><trkpt lat="45.804854082523384" lon="9.489078516424803"><ele>1191.0</ele><time>2026-04-27T12:53:28Z</time></trkpt><trkpt lat="45.80490643657379" lon="9.489018306391078"><ele>1191.0</ele><time>2026-04-27T12:53:29Z</time></trkpt><trkpt lat="45.80499652328975" lon="9.488966598243442"><ele>1191.0</ele><time>2026-04-27T12:53:30Z</time></trkpt><trkpt lat="45.80510674810558" lon="9.488920907664252"><ele>1191.0</ele><time>2026-04-27T12:53:31Z</time></trkpt><trkpt lat="45.8052306758855" lon="9.488847082535653"><ele>1191.0</ele><time>2026-04-27T12:53:32Z</time></trkpt><trkpt lat="45.80536316797936" lon="9.488816875441168"><ele>1189.0</ele><time>2026-04-27T12:53:33Z</time></trkpt><trkpt lat="45.805465769345645" lon="9.488794220724063"><ele>1187.0</ele><time>2026-04-27T12:53:34Z</time></trkpt><trkpt lat="45.80555481431499" lon="9.48878032053945"><ele>1185.0</ele><time>2026-04-27T12:53:35Z</time></trkpt><trkpt lat="45.805649847082506" lon="9.488746895228942"><ele>1183.0</ele><time>2026-04-27T12:53:36Z</time></trkpt><trkpt lat="45.80573330891727" lon="9.488691225280222"><ele>1181.0</ele><time>2026-04-27T12:53:37Z</time></trkpt><trkpt lat="45.80582958828794" lon="9.488650950120853"><ele>1181.0</ele><time>2026-04-27T12:53:38Z</time></trkpt><trkpt lat="45.80591864915666" lon="9.488657849346458"><ele>1181.0</ele><time>2026-04-27T12:53:39Z</time></trkpt><trkpt lat="45.80600282565916" lon="9.488652895104856"><ele>1181.0</ele><time>2026-04-27T12:53:40Z</time></trkpt><trkpt lat="45.80607753896494" lon="9.488658074017259"><ele>1181.0</ele><time>2026-04-27T12:53:41Z</time></trkpt><trkpt lat="45.80616740186184" lon="9.488696467548959"><ele>1181.0</ele><time>2026-04-27T12:53:43Z</time></trkpt><trkpt lat="45.80624320964561" lon="9.488738446611658"><ele>1181.0</ele><time>2026-04-27T12:53:44Z</time></trkpt><trkpt lat="45.8063177494415" lon="9.48878098657929"><ele>1185.2</ele><time>2026-04-27T12:53:45Z</time></trkpt><trkpt lat="45.80639933995585" lon="9.488766869317129"><ele>1189.3999999999999</ele><time>2026-04-27T12:53:46Z</time></trkpt><trkpt lat="45.80647069013205" lon="9.488714280903528"><ele>1193.6</ele><time>2026-04-27T12:53:47Z</time></trkpt><trkpt lat="45.80654667574881" lon="9.48864020145517"><ele>1197.8</ele><time>2026-04-27T12:53:48Z</time></trkpt><trkpt lat="45.806613824533095" lon="9.488547413969224"><ele>1202.0</ele><time>2026-04-27T12:53:49Z</time></trkpt><trkpt lat="45.80668482258887" lon="9.488421011271148"><ele>1202.0</ele><time>2026-04-27T12:53:50Z</time></trkpt><trkpt lat="45.806727498551155" lon="9.488289824935519"><ele>1202.0</ele><time>2026-04-27T12:53:51Z</time></trkpt><trkpt lat="45.8068004152505" lon="9.488139839458047"><ele>1202.0</ele><time>2026-04-27T12:53:52Z</time></trkpt><trkpt lat="45.80685742968632" lon="9.487953311355689"><ele>1202.0</ele><time>2026-04-27T12:53:53Z</time></trkpt><trkpt lat="45.80693974035054" lon="9.487774442135278"><ele>1208.0</ele><time>2026-04-27T12:53:54Z</time></trkpt><trkpt lat="45.80703006993478" lon="9.48760904745801"><ele>1214.0</ele><time>2026-04-27T12:53:55Z</time></trkpt><trkpt lat="45.807090864018406" lon="9.487474320328072"><ele>1220.0</ele><time>2026-04-27T12:53:56Z</time></trkpt><trkpt lat="45.80714793581383" lon="9.487315295162196"><ele>1226.0</ele><time>2026-04-27T12:53:57Z</time></trkpt><trkpt lat="45.80718920357547" lon="9.487189715707347"><ele>1226.0</ele><time>2026-04-27T12:53:58Z</time></trkpt><trkpt lat="45.807219653252005" lon="9.487095788196351"><ele>1226.0</ele><time>2026-04-27T12:54:00Z</time></trkpt><trkpt lat="45.80727911611725" lon="9.487144453139031"><ele>1226.0</ele><time>2026-04-27T12:54:03Z</time></trkpt><trkpt lat="45.807274582370425" lon="9.487305048175278"><ele>1226.0</ele><time>2026-04-27T12:54:05Z</time></trkpt><trkpt lat="45.80721444597751" lon="9.487415613547306"><ele>1226.0</ele><time>2026-04-27T12:54:06Z</time></trkpt><trkpt lat="45.807170692707565" lon="9.487566510412046"><ele>1226.0</ele><time>2026-04-27T12:54:07Z</time></trkpt><trkpt lat="45.80711847002046" lon="9.487743991671273"><ele>1226.0</ele><time>2026-04-27T12:54:08Z</time></trkpt><trkpt lat="45.80707348178366" lon="9.48792778023383"><ele>1226.0</ele><time>2026-04-27T12:54:09Z</time></trkpt><trkpt lat="45.8070373309873" lon="9.488109150841442"><ele>1226.0</ele><time>2026-04-27T12:54:10Z</time></trkpt><trkpt lat="45.806999263025425" lon="9.48828202625635"><ele>1229.8</ele><time>2026-04-27T12:54:11Z</time></trkpt><trkpt lat="45.8069629485711" lon="9.488432353594598"><ele>1233.6</ele><time>2026-04-27T12:54:12Z</time></trkpt><trkpt lat="45.80692379826851" lon="9.488569964537344"><ele>1237.4</ele><time>2026-04-27T12:54:13Z</time></trkpt><trkpt lat="45.806922168134385" lon="9.488706854827168"><ele>1241.2</ele><time>2026-04-27T12:54:14Z</time></trkpt><trkpt lat="45.8069071690573" lon="9.488849094862971"><ele>1245.0</ele><time>2026-04-27T12:54:15Z</time></trkpt><trkpt lat="45.80688953705919" lon="9.488992991898355"><ele>1246.4</ele><time>2026-04-27T12:54:16Z</time></trkpt><trkpt lat="45.8068425454942" lon="9.489128253842596"><ele>1247.8</ele><time>2026-04-27T12:54:17Z</time></trkpt><trkpt lat="45.80677014945073" lon="9.489255191922298"><ele>1249.2</ele><time>2026-04-27T12:54:18Z</time></trkpt><trkpt lat="45.8066979114984" lon="9.489354201771333"><ele>1250.6</ele><time>2026-04-27T12:54:19Z</time></trkpt><trkpt lat="45.806607661365916" lon="9.489440965195506"><ele>1252.0</ele><time>2026-04-27T12:54:20Z</time></trkpt><trkpt lat="45.80649602229397" lon="9.489537346050081"><ele>1249.0</ele><time>2026-04-27T12:54:21Z</time></trkpt><trkpt lat="45.806376586287044" lon="9.4896163130357"><ele>1246.0</ele><time>2026-04-27T12:54:22Z</time></trkpt><trkpt lat="45.80625372628287" lon="9.489701624345756"><ele>1243.0</ele><time>2026-04-27T12:54:23Z</time></trkpt><trkpt lat="45.80614206932976" lon="9.489752475261897"><ele>1240.0</ele><time>2026-04-27T12:54:24Z</time></trkpt><trkpt lat="45.806049247945026" lon="9.489826940945084"><ele>1237.5</ele><time>2026-04-27T12:54:25Z</time></trkpt><trkpt lat="45.805943567718586" lon="9.489943278484319"><ele>1235.0</ele><time>2026-04-27T12:54:26Z</time></trkpt><trkpt lat="45.80583729522061" lon="9.490065490994967"><ele>1232.5</ele><time>2026-04-27T12:54:27Z</time></trkpt><trkpt lat="45.80570823142775" lon="9.490183134855627"><ele>1230.0</ele><time>2026-04-27T12:54:28Z</time></trkpt><trkpt lat="45.80557467659092" lon="9.490303762656408"><ele>1237.3333333333333</ele><time>2026-04-27T12:54:29Z</time></trkpt><trkpt lat="45.80544213697164" lon="9.490437727406755"><ele>1244.6666666666665</ele><time>2026-04-27T12:54:30Z</time></trkpt><trkpt lat="45.8052986349318" lon="9.490584369051492"><ele>1252.0</ele><time>2026-04-27T12:54:31Z</time></trkpt><trkpt lat="45.8051683459678" lon="9.490681375115024"><ele>1247.3333333333333</ele><time>2026-04-27T12:54:32Z</time></trkpt><trkpt lat="45.805026926406434" lon="9.490800821444827"><ele>1242.6666666666667</ele><time>2026-04-27T12:54:33Z</time></trkpt><trkpt lat="45.80489513839298" lon="9.490915314924099"><ele>1238.0</ele><time>2026-04-27T12:54:34Z</time></trkpt><trkpt lat="45.80478250106852" lon="9.491015904662707"><ele>1238.0</ele><time>2026-04-27T12:54:35Z</time></trkpt><trkpt lat="45.804673258465826" lon="9.491130079310748"><ele>1238.0</ele><time>2026-04-27T12:54:36Z</time></trkpt><trkpt lat="45.80454997243807" lon="9.491264504251026"><ele>1238.0</ele><time>2026-04-27T12:54:37Z</time></trkpt><trkpt lat="45.804429707315684" lon="9.491411521129669"><ele>1238.0</ele><time>2026-04-27T12:54:38Z</time></trkpt><trkpt lat="45.80432659833707" lon="9.491540903063864"><ele>1240.5</ele><time>2026-04-27T12:54:39Z</time></trkpt><trkpt lat="45.80421213069036" lon="9.491649833587184"><ele>1243.0</ele><time>2026-04-27T12:54:40Z</time></trkpt><trkpt lat="45.8040965208763" lon="9.491746241187256"><ele>1245.5</ele><time>2026-04-27T12:54:41Z</time></trkpt><trkpt lat="45.803995601137" lon="9.491817429616605"><ele>1248.0</ele><time>2026-04-27T12:54:42Z</time></trkpt><trkpt lat="45.80389493803707" lon="9.491867641215135"><ele>1248.0</ele><time>2026-04-27T12:54:43Z</time></trkpt><trkpt lat="45.80376983199397" lon="9.49189691710928"><ele>1248.0</ele><time>2026-04-27T12:54:44Z</time></trkpt><trkpt lat="45.80366841299925" lon="9.491880037863568"><ele>1248.0</ele><time>2026-04-27T12:54:45Z</time></trkpt><trkpt lat="45.80356102504279" lon="9.491885878991324"><ele>1248.0</ele><time>2026-04-27T12:54:46Z</time></trkpt><trkpt lat="45.80347015350281" lon="9.491917222463284"><ele>1248.0</ele><time>2026-04-27T12:54:47Z</time></trkpt><trkpt lat="45.803394333792774" lon="9.491979592160838"><ele>1247.5</ele><time>2026-04-27T12:54:48Z</time></trkpt><trkpt lat="45.80330993648947" lon="9.492018830028112"><ele>1247.0</ele><time>2026-04-27T12:54:49Z</time></trkpt><trkpt lat="45.803220975576075" lon="9.49201757445462"><ele>1246.5</ele><time>2026-04-27T12:54:50Z</time></trkpt><trkpt lat="45.8031472962321" lon="9.491992737189314"><ele>1246.0</ele><time>2026-04-27T12:54:51Z</time></trkpt><trkpt lat="45.80307315035508" lon="9.491963233968228"><ele>1245.5</ele><time>2026-04-27T12:54:52Z</time></trkpt><trkpt lat="45.80300695991268" lon="9.491934921684761"><ele>1245.0</ele><time>2026-04-27T12:54:53Z</time></trkpt><trkpt lat="45.80292245581045" lon="9.49192073426041"><ele>1245.0</ele><time>2026-04-27T12:54:54Z</time></trkpt><trkpt lat="45.80284068647075" lon="9.491846846300442"><ele>1245.0</ele><time>2026-04-27T12:54:55Z</time></trkpt><trkpt lat="45.802749736497" lon="9.491804258904294"><ele>1245.0</ele><time>2026-04-27T12:54:56Z</time></trkpt><trkpt lat="45.80265585406845" lon="9.491760543087704"><ele>1245.0</ele><time>2026-04-27T12:54:57Z</time></trkpt><trkpt lat="45.80256866468455" lon="9.491736825180375"><ele>1245.0</ele><time>2026-04-27T12:54:58Z</time></trkpt><trkpt lat="45.802398599680124" lon="9.491671349742546"><ele>1247.6</ele><time>2026-04-27T12:55:00Z</time></trkpt><trkpt lat="45.802295172544355" lon="9.491611263212477"><ele>1250.2</ele><time>2026-04-27T12:55:01Z</time></trkpt><trkpt lat="45.80222391204656" lon="9.4915768390707"><ele>1252.8</ele><time>2026-04-27T12:55:02Z</time></trkpt><trkpt lat="45.80212764256823" lon="9.491549440984274"><ele>1255.4</ele><time>2026-04-27T12:55:04Z</time></trkpt><trkpt lat="45.80201138469515" lon="9.491612269071465"><ele>1258.0</ele><time>2026-04-27T12:55:06Z</time></trkpt><trkpt lat="45.8019975343039" lon="9.491789386906918"><ele>1258.0</ele><time>2026-04-27T12:55:08Z</time></trkpt><trkpt lat="45.80204045763346" lon="9.49189090597499"><ele>1258.0</ele><time>2026-04-27T12:55:09Z</time></trkpt><trkpt lat="45.80211073252803" lon="9.491987208985853"><ele>1258.0</ele><time>2026-04-27T12:55:10Z</time></trkpt><trkpt lat="45.802216352139396" lon="9.492059076242208"><ele>1258.0</ele><time>2026-04-27T12:55:11Z</time></trkpt><trkpt lat="45.80233939529785" lon="9.492135848747653"><ele>1258.0</ele><time>2026-04-27T12:55:12Z</time></trkpt><trkpt lat="45.802450342353204" lon="9.492227047858071"><ele>1260.2</ele><time>2026-04-27T12:55:13Z</time></trkpt><trkpt lat="45.80254768368402" lon="9.49231076826618"><ele>1262.4</ele><time>2026-04-27T12:55:14Z</time></trkpt><trkpt lat="45.802631138668836" lon="9.492409019554874"><ele>1264.6000000000001</ele><time>2026-04-27T12:55:15Z</time></trkpt><trkpt lat="45.80269730322244" lon="9.492526893319733"><ele>1266.8</ele><time>2026-04-27T12:55:16Z</time></trkpt><trkpt lat="45.80275392989251" lon="9.492648188164974"><ele>1269.0</ele><time>2026-04-27T12:55:17Z</time></trkpt><trkpt lat="45.802794745737856" lon="9.492803743751615"><ele>1272.8000000000002</ele><time>2026-04-27T12:55:18Z</time></trkpt><trkpt lat="45.80284164210232" lon="9.492924197102369"><ele>1276.6000000000001</ele><time>2026-04-27T12:55:19Z</time></trkpt><trkpt lat="45.802928542779945" lon="9.49301541713326"><ele>1280.4</ele><time>2026-04-27T12:55:20Z</time></trkpt><trkpt lat="45.80303406284249" lon="9.493075931840323"><ele>1284.2</ele><time>2026-04-27T12:55:21Z</time></trkpt><trkpt lat="45.803157776801534" lon="9.493088224722495"><ele>1288.0</ele><time>2026-04-27T12:55:22Z</time></trkpt><trkpt lat="45.80328004643027" lon="9.493093926754446"><ele>1288.0</ele><time>2026-04-27T12:55:23Z</time></trkpt><trkpt lat="45.80339161527772" lon="9.493100856783872"><ele>1288.0</ele><time>2026-04-27T12:55:24Z</time></trkpt><trkpt lat="45.80349930397117" lon="9.493115842512667"><ele>1288.0</ele><time>2026-04-27T12:55:25Z</time></trkpt><trkpt lat="45.80361244111195" lon="9.493131991097894"><ele>1288.0</ele><time>2026-04-27T12:55:26Z</time></trkpt><trkpt lat="45.803723822611886" lon="9.4931478433074"><ele>1288.0</ele><time>2026-04-27T12:55:27Z</time></trkpt><trkpt lat="45.80383163075914" lon="9.493149428156098"><ele>1289.25</ele><time>2026-04-27T12:55:28Z</time></trkpt><trkpt lat="45.803936257298574" lon="9.493145203423701"><ele>1290.5</ele><time>2026-04-27T12:55:29Z</time></trkpt><trkpt lat="45.80404814726739" lon="9.493132218674992"><ele>1291.75</ele><time>2026-04-27T12:55:30Z</time></trkpt><trkpt lat="45.80418017199396" lon="9.493122173060202"><ele>1293.0</ele><time>2026-04-27T12:55:31Z</time></trkpt><trkpt lat="45.804287881884434" lon="9.49310440382736"><ele>1296.25</ele><time>2026-04-27T12:55:32Z</time></trkpt><trkpt lat="45.8044067536186" lon="9.493084025763807"><ele>1299.5</ele><time>2026-04-27T12:55:33Z</time></trkpt><trkpt lat="45.8045163053428" lon="9.493065592710213"><ele>1302.75</ele><time>2026-04-27T12:55:34Z</time></trkpt><trkpt lat="45.80462445907975" lon="9.493049118425237"><ele>1306.0</ele><time>2026-04-27T12:55:35Z</time></trkpt><trkpt lat="45.80474435437441" lon="9.49304776781524"><ele>1306.0</ele><time>2026-04-27T12:55:36Z</time></trkpt><trkpt lat="45.80486488365845" lon="9.493038382454431"><ele>1306.0</ele><time>2026-04-27T12:55:37Z</time></trkpt><trkpt lat="45.80497707361763" lon="9.493017282296744"><ele>1306.0</ele><time>2026-04-27T12:55:38Z</time></trkpt><trkpt lat="45.8050844062484" lon="9.492979490132667"><ele>1306.0</ele><time>2026-04-27T12:55:39Z</time></trkpt><trkpt lat="45.8051907453849" lon="9.492933657871596"><ele>1305.0</ele><time>2026-04-27T12:55:40Z</time></trkpt><trkpt lat="45.80531156067821" lon="9.492894759409532"><ele>1304.0</ele><time>2026-04-27T12:55:41Z</time></trkpt><trkpt lat="45.80542514908565" lon="9.492846868434322"><ele>1303.0</ele><time>2026-04-27T12:55:42Z</time></trkpt><trkpt lat="45.8055280287887" lon="9.492791447220844"><ele>1302.0</ele><time>2026-04-27T12:55:43Z</time></trkpt><trkpt lat="45.8056337408627" lon="9.49272371140316"><ele>1302.0</ele><time>2026-04-27T12:55:44.001Z</time></trkpt><trkpt lat="45.80573347776961" lon="9.492651175348627"><ele>1302.0</ele><time>2026-04-27T12:55:45.001Z</time></trkpt><trkpt lat="45.805811013102335" lon="9.49257981155975"><ele>1302.0</ele><time>2026-04-27T12:55:46.001Z</time></trkpt><trkpt lat="45.80589340570085" lon="9.492507163987904"><ele>1302.0</ele><time>2026-04-27T12:55:47.001Z</time></trkpt><trkpt lat="45.8059732207856" lon="9.492451787617876"><ele>1302.0</ele><time>2026-04-27T12:55:48.001Z</time></trkpt><trkpt lat="45.80604481224986" lon="9.49242845280301"><ele>1301.5</ele><time>2026-04-27T12:55:49.001Z</time></trkpt><trkpt lat="45.80613360606053" lon="9.492449779360998"><ele>1301.0</ele><time>2026-04-27T12:55:50.001Z</time></trkpt><trkpt lat="45.80623338583432" lon="9.492518152290621"><ele>1300.5</ele><time>2026-04-27T12:55:51.001Z</time></trkpt><trkpt lat="45.80630851200867" lon="9.492593153898078"><ele>1300.0</ele><time>2026-04-27T12:55:52.001Z</time></trkpt><trkpt lat="45.80636546031106" lon="9.49266155800425"><ele>1299.5</ele><time>2026-04-27T12:55:53.001Z</time></trkpt><trkpt lat="45.806404756103" lon="9.492732877280934"><ele>1299.0</ele><time>2026-04-27T12:55:54.001Z</time></trkpt><trkpt lat="45.806438564824695" lon="9.49281878365788"><ele>1299.8000000000002</ele><time>2026-04-27T12:55:55.001Z</time></trkpt><trkpt lat="45.80647428380855" lon="9.492927790713523"><ele>1300.6000000000001</ele><time>2026-04-27T12:55:56.001Z</time></trkpt><trkpt lat="45.80648881004592" lon="9.493062624524363"><ele>1301.4</ele><time>2026-04-27T12:55:57.001Z</time></trkpt><trkpt lat="45.80648295077482" lon="9.493194769917983"><ele>1302.2</ele><time>2026-04-27T12:55:58.001Z</time></trkpt><trkpt lat="45.80646865791771" lon="9.493319292164651"><ele>1303.0</ele><time>2026-04-27T12:55:59.001Z</time></trkpt><trkpt lat="45.80644605882405" lon="9.493458792613321"><ele>1303.0</ele><time>2026-04-27T12:56:00.001Z</time></trkpt><trkpt lat="45.80639760474574" lon="9.493628226316092"><ele>1303.0</ele><time>2026-04-27T12:56:01.001Z</time></trkpt><trkpt lat="45.80632862634287" lon="9.493774841407289"><ele>1303.0</ele><time>2026-04-27T12:56:02.001Z</time></trkpt><trkpt lat="45.80623903960042" lon="9.493901402062482"><ele>1303.0</ele><time>2026-04-27T12:56:03Z</time></trkpt><trkpt lat="45.806136436596184" lon="9.49400507291156"><ele>1304.25</ele><time>2026-04-27T12:56:04Z</time></trkpt><trkpt lat="45.806024382059114" lon="9.494083891327149"><ele>1305.5</ele><time>2026-04-27T12:56:05Z</time></trkpt><trkpt lat="45.805882557704926" lon="9.49413439055425"><ele>1306.75</ele><time>2026-04-27T12:56:06Z</time></trkpt><trkpt lat="45.80576194107241" lon="9.494207258236731"><ele>1308.0</ele><time>2026-04-27T12:56:07Z</time></trkpt><trkpt lat="45.805621904462484" lon="9.49428895441328"><ele>1308.0</ele><time>2026-04-27T12:56:08Z</time></trkpt><trkpt lat="45.80549222856637" lon="9.494372966100864"><ele>1308.0</ele><time>2026-04-27T12:56:09Z</time></trkpt><trkpt lat="45.805347766345044" lon="9.494479830309755"><ele>1308.0</ele><time>2026-04-27T12:56:10Z</time></trkpt><trkpt lat="45.805210486229335" lon="9.49458835696868"><ele>1303.75</ele><time>2026-04-27T12:56:11Z</time></trkpt><trkpt lat="45.80507327128094" lon="9.494692699493982"><ele>1299.5</ele><time>2026-04-27T12:56:12Z</time></trkpt><trkpt lat="45.8049431209957" lon="9.494788203346438"><ele>1295.25</ele><time>2026-04-27T12:56:13Z</time></trkpt><trkpt lat="45.804811176826526" lon="9.494879411863778"><ele>1291.0</ele><time>2026-04-27T12:56:14Z</time></trkpt><trkpt lat="45.80467351478895" lon="9.4949669799243"><ele>1291.0</ele><time>2026-04-27T12:56:15Z</time></trkpt><trkpt lat="45.80453650026871" lon="9.495043402206939"><ele>1291.0</ele><time>2026-04-27T12:56:16Z</time></trkpt><trkpt lat="45.80438968348464" lon="9.495124376743838"><ele>1291.0</ele><time>2026-04-27T12:56:17Z</time></trkpt><trkpt lat="45.804240847258434" lon="9.495188191039103"><ele>1293.0</ele><time>2026-04-27T12:56:18Z</time></trkpt><trkpt lat="45.80409334347738" lon="9.4952307838302"><ele>1295.0</ele><time>2026-04-27T12:56:19Z</time></trkpt><trkpt lat="45.80394585656389" lon="9.495256285428015"><ele>1297.0</ele><time>2026-04-27T12:56:20Z</time></trkpt><trkpt lat="45.80378156855611" lon="9.495270234409105"><ele>1297.0</ele><time>2026-04-27T12:56:21Z</time></trkpt><trkpt lat="45.80361035428476" lon="9.495283083026807"><ele>1297.0</ele><time>2026-04-27T12:56:22Z</time></trkpt><trkpt lat="45.803437399450026" lon="9.4952879456436"><ele>1297.0</ele><time>2026-04-27T12:56:23Z</time></trkpt><trkpt lat="45.80327260705229" lon="9.495289426671874"><ele>1294.6666666666665</ele><time>2026-04-27T12:56:24Z</time></trkpt><trkpt lat="45.80310328674027" lon="9.495299919115196"><ele>1292.3333333333333</ele><time>2026-04-27T12:56:25Z</time></trkpt><trkpt lat="45.80293264434904" lon="9.495301010784859"><ele>1290.0</ele><time>2026-04-27T12:56:26Z</time></trkpt><trkpt lat="45.80275275199633" lon="9.49530065198016"><ele>1288.6666666666667</ele><time>2026-04-27T12:56:27Z</time></trkpt><trkpt lat="45.80257537364459" lon="9.49532018167455"><ele>1287.3333333333335</ele><time>2026-04-27T12:56:28Z</time></trkpt><trkpt lat="45.80239854241335" lon="9.495368794653753"><ele>1286.0</ele><time>2026-04-27T12:56:29Z</time></trkpt><trkpt lat="45.80220920188553" lon="9.495449802218722"><ele>1282.0</ele><time>2026-04-27T12:56:30Z</time></trkpt><trkpt lat="45.802030130113465" lon="9.495546085466065"><ele>1278.0</ele><time>2026-04-27T12:56:31Z</time></trkpt><trkpt lat="45.801879721834815" lon="9.495665183875918"><ele>1274.0</ele><time>2026-04-27T12:56:32Z</time></trkpt><trkpt lat="45.80171841007402" lon="9.495764656840485"><ele>1274.0</ele><time>2026-04-27T12:56:33Z</time></trkpt><trkpt lat="45.80154285310667" lon="9.495853416804774"><ele>1274.0</ele><time>2026-04-27T12:56:34Z</time></trkpt><trkpt lat="45.801363687552126" lon="9.495930712930475"><ele>1274.0</ele><time>2026-04-27T12:56:35Z</time></trkpt><trkpt lat="45.801175312675966" lon="9.49604571275778"><ele>1274.0</ele><time>2026-04-27T12:56:36Z</time></trkpt><trkpt lat="45.80100352035472" lon="9.496122986527256"><ele>1274.0</ele><time>2026-04-27T12:56:37Z</time></trkpt><trkpt lat="45.800841052686735" lon="9.496209380905887"><ele>1274.0</ele><time>2026-04-27T12:56:38Z</time></trkpt><trkpt lat="45.800685658095006" lon="9.496267129913429"><ele>1273.6666666666667</ele><time>2026-04-27T12:56:39Z</time></trkpt><trkpt lat="45.80050328574476" lon="9.49633374004817"><ele>1273.3333333333333</ele><time>2026-04-27T12:56:40Z</time></trkpt><trkpt lat="45.800299446318014" lon="9.496324397235856"><ele>1273.0</ele><time>2026-04-27T12:56:41Z</time></trkpt><trkpt lat="45.80010529302753" lon="9.496413200116454"><ele>1273.0</ele><time>2026-04-27T12:56:42Z</time></trkpt><trkpt lat="45.79990566580464" lon="9.496518494156488"><ele>1273.0</ele><time>2026-04-27T12:56:43Z</time></trkpt><trkpt lat="45.79973492780783" lon="9.496609684572554"><ele>1273.0</ele><time>2026-04-27T12:56:44Z</time></trkpt><trkpt lat="45.79954810372579" lon="9.496708005365578"><ele>1273.0</ele><time>2026-04-27T12:56:45Z</time></trkpt><trkpt lat="45.799391599758934" lon="9.496783802489778"><ele>1273.0</ele><time>2026-04-27T12:56:46Z</time></trkpt><trkpt lat="45.799225919444396" lon="9.49685767161193"><ele>1273.0</ele><time>2026-04-27T12:56:47Z</time></trkpt><trkpt lat="45.79907449260957" lon="9.496926693612682"><ele>1278.0</ele><time>2026-04-27T12:56:48Z</time></trkpt><trkpt lat="45.798922257411824" lon="9.497002510370796"><ele>1283.0</ele><time>2026-04-27T12:56:49Z</time></trkpt><trkpt lat="45.79878372304953" lon="9.497086955565472"><ele>1288.0</ele><time>2026-04-27T12:56:50Z</time></trkpt><trkpt lat="45.798636624826266" lon="9.497167794594821"><ele>1281.6666666666665</ele><time>2026-04-27T12:56:51Z</time></trkpt><trkpt lat="45.798492088854246" lon="9.49729779940392"><ele>1275.3333333333333</ele><time>2026-04-27T12:56:52Z</time></trkpt><trkpt lat="45.79837589280425" lon="9.497406577495703"><ele>1269.0</ele><time>2026-04-27T12:56:53Z</time></trkpt><trkpt lat="45.79824928415918" lon="9.497531139858722"><ele>1269.0</ele><time>2026-04-27T12:56:54Z</time></trkpt><trkpt lat="45.79813759781251" lon="9.497644726530469"><ele>1269.0</ele><time>2026-04-27T12:56:55Z</time></trkpt><trkpt lat="45.79801414370069" lon="9.497759395622925"><ele>1269.0</ele><time>2026-04-27T12:56:56Z</time></trkpt><trkpt lat="45.797908124531325" lon="9.497890006553465"><ele>1269.0</ele><time>2026-04-27T12:56:57Z</time></trkpt><trkpt lat="45.797729186121195" lon="9.498074286012022"><ele>1267.0</ele><time>2026-04-27T12:56:58Z</time></trkpt><trkpt lat="45.79759570936414" lon="9.498238636445603"><ele>1265.0</ele><time>2026-04-27T12:56:59Z</time></trkpt><trkpt lat="45.797457212268114" lon="9.49833177851141"><ele>1263.0</ele><time>2026-04-27T12:57:00Z</time></trkpt><trkpt lat="45.7973065821658" lon="9.498564536756115"><ele>1263.0</ele><time>2026-04-27T12:57:01Z</time></trkpt><trkpt lat="45.79719930768853" lon="9.498692859700094"><ele>1263.0</ele><time>2026-04-27T12:57:02Z</time></trkpt><trkpt lat="45.797021951005114" lon="9.498847379610558"><ele>1263.0</ele><time>2026-04-27T12:57:03Z</time></trkpt><trkpt lat="45.79690969038803" lon="9.49903542465283"><ele>1261.0</ele><time>2026-04-27T12:57:04Z</time></trkpt><trkpt lat="45.79682803140216" lon="9.49920531225817"><ele>1259.0</ele><time>2026-04-27T12:57:05Z</time></trkpt><trkpt lat="45.79673964014514" lon="9.49942589068119"><ele>1257.0</ele><time>2026-04-27T12:57:06Z</time></trkpt><trkpt lat="45.79666659116747" lon="9.499630144383413"><ele>1246.0</ele><time>2026-04-27T12:57:07Z</time></trkpt><trkpt lat="45.7965670388187" lon="9.499915453844727"><ele>1235.0</ele><time>2026-04-27T12:57:08Z</time></trkpt><trkpt lat="45.79645339489049" lon="9.50020211197196"><ele>1229.6666666666667</ele><time>2026-04-27T12:57:09Z</time></trkpt><trkpt lat="45.796354800461685" lon="9.500449406456909"><ele>1224.3333333333333</ele><time>2026-04-27T12:57:10Z</time></trkpt><trkpt lat="45.7962533975035" lon="9.500699153092864"><ele>1219.0</ele><time>2026-04-27T12:57:11Z</time></trkpt><trkpt lat="45.79616903177839" lon="9.500962240153571"><ele>1219.0</ele><time>2026-04-27T12:57:12Z</time></trkpt><trkpt lat="45.79608841315351" lon="9.501224490065518"><ele>1219.0</ele><time>2026-04-27T12:57:13Z</time></trkpt><trkpt lat="45.796026654403875" lon="9.501511012220842"><ele>1219.0</ele><time>2026-04-27T12:57:14Z</time></trkpt><trkpt lat="45.79595969988089" lon="9.501774396041531"><ele>1217.0</ele><time>2026-04-27T12:57:15Z</time></trkpt><trkpt lat="45.79588229128613" lon="9.502027732003715"><ele>1215.0</ele><time>2026-04-27T12:57:16Z</time></trkpt><trkpt lat="45.79581097394303" lon="9.50228921927911"><ele>1213.0</ele><time>2026-04-27T12:57:17Z</time></trkpt><trkpt lat="45.79573403085223" lon="9.502554161561777"><ele>1213.0</ele><time>2026-04-27T12:57:18Z</time></trkpt><trkpt lat="45.79566308907915" lon="9.50280332493587"><ele>1213.0</ele><time>2026-04-27T12:57:19Z</time></trkpt><trkpt lat="45.79559257019288" lon="9.503024012771562"><ele>1213.0</ele><time>2026-04-27T12:57:20Z</time></trkpt><trkpt lat="45.79550419762674" lon="9.503220800997624"><ele>1208.0</ele><time>2026-04-27T12:57:21Z</time></trkpt><trkpt lat="45.79538436621375" lon="9.503460843894999"><ele>1203.0</ele><time>2026-04-27T12:57:22Z</time></trkpt><trkpt lat="45.79523552336236" lon="9.503752108718563"><ele>1204.0</ele><time>2026-04-27T12:57:23Z</time></trkpt><trkpt lat="45.795095032131144" lon="9.504013908570288"><ele>1205.0</ele><time>2026-04-27T12:57:24Z</time></trkpt><trkpt lat="45.79497115151433" lon="9.50425213584967"><ele>1206.0</ele><time>2026-04-27T12:57:25Z</time></trkpt><trkpt lat="45.79483116193653" lon="9.504489085354864"><ele>1202.3333333333333</ele><time>2026-04-27T12:57:26Z</time></trkpt><trkpt lat="45.794729216410545" lon="9.504702155545708"><ele>1198.6666666666665</ele><time>2026-04-27T12:57:27Z</time></trkpt><trkpt lat="45.79461051160345" lon="9.50492089991982"><ele>1195.0</ele><time>2026-04-27T12:57:28Z</time></trkpt><trkpt lat="45.79451307124653" lon="9.505147349286602"><ele>1195.0</ele><time>2026-04-27T12:57:29Z</time></trkpt><trkpt lat="45.794418741499946" lon="9.50533312311519"><ele>1195.0</ele><time>2026-04-27T12:57:30Z</time></trkpt><trkpt lat="45.794350396490366" lon="9.505521753993785"><ele>1195.0</ele><time>2026-04-27T12:57:31Z</time></trkpt><trkpt lat="45.794266413055034" lon="9.505709853852375"><ele>1198.3333333333333</ele><time>2026-04-27T12:57:32Z</time></trkpt><trkpt lat="45.79419441246198" lon="9.505962222113386"><ele>1201.6666666666667</ele><time>2026-04-27T12:57:33Z</time></trkpt><trkpt lat="45.79409163681603" lon="9.506158921592743"><ele>1205.0</ele><time>2026-04-27T12:57:34Z</time></trkpt><trkpt lat="45.794004354346235" lon="9.506341000110478"><ele>1199.75</ele><time>2026-04-27T12:57:35Z</time></trkpt><trkpt lat="45.79393796210586" lon="9.506521554738717"><ele>1194.5</ele><time>2026-04-27T12:57:36Z</time></trkpt><trkpt lat="45.79387633651128" lon="9.506697645623989"><ele>1189.25</ele><time>2026-04-27T12:57:37Z</time></trkpt><trkpt lat="45.79383910347061" lon="9.50686519406713"><ele>1184.0</ele><time>2026-04-27T12:57:38Z</time></trkpt><trkpt lat="45.79382512911354" lon="9.507009061422917"><ele>1184.0</ele><time>2026-04-27T12:57:39Z</time></trkpt><trkpt lat="45.79382223820953" lon="9.507122029653749"><ele>1184.0</ele><time>2026-04-27T12:57:40Z</time></trkpt><trkpt lat="45.793861833884684" lon="9.507210247866007"><ele>1184.0</ele><time>2026-04-27T12:57:42Z</time></trkpt><trkpt lat="45.79394511144256" lon="9.507232301913831"><ele>1184.0</ele><time>2026-04-27T12:57:45Z</time></trkpt><trkpt lat="45.794035068168014" lon="9.507127227542055"><ele>1184.0</ele><time>2026-04-27T12:58:14Z</time></trkpt><trkpt lat="45.79409383414153" lon="9.507025298319082"><ele>1184.0</ele><time>2026-04-27T12:58:15Z</time></trkpt><trkpt lat="45.7941635004968" lon="9.506892529697666"><ele>1184.0</ele><time>2026-04-27T12:58:16Z</time></trkpt><trkpt lat="45.794238898611525" lon="9.506764569008347"><ele>1184.0</ele><time>2026-04-27T12:58:17Z</time></trkpt><trkpt lat="45.7943219074215" lon="9.506607731075409"><ele>1184.0</ele><time>2026-04-27T12:58:18Z</time></trkpt><trkpt lat="45.79441750822754" lon="9.506440779660798"><ele>1184.0</ele><time>2026-04-27T12:58:19Z</time></trkpt><trkpt lat="45.79451302300195" lon="9.506298517069164"><ele>1183.25</ele><time>2026-04-27T12:58:20Z</time></trkpt><trkpt lat="45.79460502863291" lon="9.50616327468568"><ele>1182.5</ele><time>2026-04-27T12:58:21Z</time></trkpt><trkpt lat="45.79467907309663" lon="9.506031846398269"><ele>1181.75</ele><time>2026-04-27T12:58:22Z</time></trkpt><trkpt lat="45.794763993813014" lon="9.50593565513969"><ele>1181.0</ele><time>2026-04-27T12:58:23Z</time></trkpt><trkpt lat="45.79487621156654" lon="9.505884554427737"><ele>1181.0</ele><time>2026-04-27T12:58:24Z</time></trkpt><trkpt lat="45.79499145230915" lon="9.505901511566911"><ele>1181.0</ele><time>2026-04-27T12:58:25Z</time></trkpt><trkpt lat="45.79509690577781" lon="9.505925698278597"><ele>1181.0</ele><time>2026-04-27T12:58:26Z</time></trkpt><trkpt lat="45.79521036140907" lon="9.505827800193325"><ele>1181.0</ele><time>2026-04-27T12:58:27Z</time></trkpt><trkpt lat="45.79529742758443" lon="9.505685924656111"><ele>1177.6666666666667</ele><time>2026-04-27T12:58:28Z</time></trkpt><trkpt lat="45.79538093619052" lon="9.50550247748021"><ele>1174.3333333333333</ele><time>2026-04-27T12:58:29Z</time></trkpt><trkpt lat="45.79545313054846" lon="9.505289822410878"><ele>1171.0</ele><time>2026-04-27T12:58:30Z</time></trkpt><trkpt lat="45.795545495554606" lon="9.505085589886408"><ele>1171.0</ele><time>2026-04-27T12:58:31Z</time></trkpt><trkpt lat="45.79561937600886" lon="9.504916385475974"><ele>1171.0</ele><time>2026-04-27T12:58:32Z</time></trkpt><trkpt lat="45.79571887969506" lon="9.504765059113707"><ele>1171.0</ele><time>2026-04-27T12:58:33Z</time></trkpt><trkpt lat="45.79582607320288" lon="9.504611955697703"><ele>1171.0</ele><time>2026-04-27T12:58:34Z</time></trkpt><trkpt lat="45.79595388531907" lon="9.504491531585016"><ele>1169.0</ele><time>2026-04-27T12:58:35Z</time></trkpt><trkpt lat="45.79608187445768" lon="9.504384982553061"><ele>1167.0</ele><time>2026-04-27T12:58:36Z</time></trkpt><trkpt lat="45.796231646032375" lon="9.504381722004226"><ele>1165.0</ele><time>2026-04-27T12:58:37Z</time></trkpt><trkpt lat="45.79637583845827" lon="9.504356113642933"><ele>1163.0</ele><time>2026-04-27T12:58:38Z</time></trkpt><trkpt lat="45.79651713988227" lon="9.504316850187443"><ele>1163.0</ele><time>2026-04-27T12:58:39Z</time></trkpt><trkpt lat="45.7966633772011" lon="9.504182134993497"><ele>1163.0</ele><time>2026-04-27T12:58:40Z</time></trkpt><trkpt lat="45.796803958751724" lon="9.504024419190003"><ele>1163.0</ele><time>2026-04-27T12:58:41Z</time></trkpt><trkpt lat="45.79696964498422" lon="9.503870645897763"><ele>1160.3333333333335</ele><time>2026-04-27T12:58:42Z</time></trkpt><trkpt lat="45.79713597248759" lon="9.503719223854898"><ele>1157.6666666666667</ele><time>2026-04-27T12:58:43Z</time></trkpt><trkpt lat="45.79729960960195" lon="9.50355570234168"><ele>1155.0</ele><time>2026-04-27T12:58:44Z</time></trkpt><trkpt lat="45.797453585640156" lon="9.503425138400651"><ele>1155.0</ele><time>2026-04-27T12:58:45Z</time></trkpt><trkpt lat="45.797592272894974" lon="9.503303438997223"><ele>1155.0</ele><time>2026-04-27T12:58:46Z</time></trkpt><trkpt lat="45.79771255390685" lon="9.503161503390162"><ele>1155.0</ele><time>2026-04-27T12:58:47Z</time></trkpt><trkpt lat="45.79780183645982" lon="9.503067763201429"><ele>1155.0</ele><time>2026-04-27T12:58:48Z</time></trkpt><trkpt lat="45.79785248624407" lon="9.502947290672493"><ele>1151.5</ele><time>2026-04-27T12:58:49Z</time></trkpt><trkpt lat="45.79788047351014" lon="9.502778385028929"><ele>1148.0</ele><time>2026-04-27T12:58:50Z</time></trkpt><trkpt lat="45.797874264530016" lon="9.50261541403844"><ele>1144.5</ele><time>2026-04-27T12:58:51Z</time></trkpt><trkpt lat="45.79785668633203" lon="9.502410257851151"><ele>1141.0</ele><time>2026-04-27T12:58:52Z</time></trkpt><trkpt lat="45.79782085194827" lon="9.502218168197642"><ele>1141.0</ele><time>2026-04-27T12:58:53Z</time></trkpt><trkpt lat="45.79778095428536" lon="9.502098381397762"><ele>1141.0</ele><time>2026-04-27T12:58:54Z</time></trkpt><trkpt lat="45.79776074484505" lon="9.502007000911192"><ele>1141.0</ele><time>2026-04-27T12:58:55Z</time></trkpt><trkpt lat="45.797768519140746" lon="9.501892174040803"><ele>1141.0</ele><time>2026-04-27T12:58:56Z</time></trkpt><trkpt lat="45.797861058856896" lon="9.501745771836095"><ele>1141.0</ele><time>2026-04-27T12:58:57Z</time></trkpt><trkpt lat="45.79798543228177" lon="9.501481874725666"><ele>1141.0</ele><time>2026-04-27T12:58:58Z</time></trkpt><trkpt lat="45.79812659240404" lon="9.501306571736492"><ele>1141.0</ele><time>2026-04-27T12:58:59Z</time></trkpt><trkpt lat="45.798261637999865" lon="9.501158700681442"><ele>1141.0</ele><time>2026-04-27T12:59:00Z</time></trkpt><trkpt lat="45.79842031876996" lon="9.501023526278958"><ele>1138.3333333333333</ele><time>2026-04-27T12:59:01Z</time></trkpt><trkpt lat="45.798581228289" lon="9.500922208948587"><ele>1135.6666666666667</ele><time>2026-04-27T12:59:02Z</time></trkpt><trkpt lat="45.79873063765064" lon="9.500840982053695"><ele>1133.0</ele><time>2026-04-27T12:59:03Z</time></trkpt><trkpt lat="45.798871678770155" lon="9.5007820105666"><ele>1133.0</ele><time>2026-04-27T12:59:04Z</time></trkpt><trkpt lat="45.79900776877802" lon="9.500715801713676"><ele>1133.0</ele><time>2026-04-27T12:59:05Z</time></trkpt><trkpt lat="45.79916288726818" lon="9.500687956470992"><ele>1133.0</ele><time>2026-04-27T12:59:06Z</time></trkpt><trkpt lat="45.7993037641027" lon="9.50068048348217"><ele>1133.0</ele><time>2026-04-27T12:59:07Z</time></trkpt><trkpt lat="45.79944755890751" lon="9.500670534139497"><ele>1138.0</ele><time>2026-04-27T12:59:08Z</time></trkpt><trkpt lat="45.799592019384676" lon="9.500644583136864"><ele>1143.0</ele><time>2026-04-27T12:59:09Z</time></trkpt><trkpt lat="45.799790277557946" lon="9.500548019980386"><ele>1148.0</ele><time>2026-04-27T12:59:10Z</time></trkpt><trkpt lat="45.799958760372355" lon="9.500379549689155"><ele>1148.0</ele><time>2026-04-27T12:59:11Z</time></trkpt><trkpt lat="45.800148125317484" lon="9.500264014158335"><ele>1148.0</ele><time>2026-04-27T12:59:12Z</time></trkpt><trkpt lat="45.80032799287229" lon="9.500181202800798"><ele>1148.0</ele><time>2026-04-27T12:59:13Z</time></trkpt><trkpt lat="45.800514711564325" lon="9.50009608859182"><ele>1140.3333333333335</ele><time>2026-04-27T12:59:14Z</time></trkpt><trkpt lat="45.800719271978515" lon="9.500025954827178"><ele>1132.6666666666667</ele><time>2026-04-27T12:59:15Z</time></trkpt><trkpt lat="45.80095064776629" lon="9.499991135431584"><ele>1125.0</ele><time>2026-04-27T12:59:16Z</time></trkpt><trkpt lat="45.80117622006918" lon="9.499987074639263"><ele>1122.6666666666667</ele><time>2026-04-27T12:59:17Z</time></trkpt><trkpt lat="45.80132383579685" lon="9.499992554743157"><ele>1120.3333333333335</ele><time>2026-04-27T12:59:18Z</time></trkpt><trkpt lat="45.80153867003829" lon="9.500003380836688"><ele>1118.0</ele><time>2026-04-27T12:59:19Z</time></trkpt><trkpt lat="45.80174169355325" lon="9.50002955182065"><ele>1115.6666666666667</ele><time>2026-04-27T12:59:20Z</time></trkpt><trkpt lat="45.80191865277134" lon="9.500059110173433"><ele>1113.3333333333333</ele><time>2026-04-27T12:59:21Z</time></trkpt><trkpt lat="45.80205654629973" lon="9.500080572852017"><ele>1111.0</ele><time>2026-04-27T12:59:22Z</time></trkpt><trkpt lat="45.80220255794174" lon="9.500093868650751"><ele>1111.0</ele><time>2026-04-27T12:59:23Z</time></trkpt><trkpt lat="45.802366075977595" lon="9.500085025257773"><ele>1111.0</ele><time>2026-04-27T12:59:24Z</time></trkpt><trkpt lat="45.8025218544384" lon="9.500049999167297"><ele>1111.0</ele><time>2026-04-27T12:59:25Z</time></trkpt><trkpt lat="45.802670764224224" lon="9.500000801372202"><ele>1107.0</ele><time>2026-04-27T12:59:26Z</time></trkpt><trkpt lat="45.802879235813606" lon="9.499900403262348"><ele>1103.0</ele><time>2026-04-27T12:59:27Z</time></trkpt><trkpt lat="45.80305657040809" lon="9.4998196195345"><ele>1099.0</ele><time>2026-04-27T12:59:28Z</time></trkpt><trkpt lat="45.80324044116384" lon="9.499786191012634"><ele>1099.0</ele><time>2026-04-27T12:59:29Z</time></trkpt><trkpt lat="45.803425478417964" lon="9.499798182168776"><ele>1099.0</ele><time>2026-04-27T12:59:30Z</time></trkpt><trkpt lat="45.803597644290015" lon="9.499806207493991"><ele>1099.0</ele><time>2026-04-27T12:59:31Z</time></trkpt><trkpt lat="45.803778755042906" lon="9.499776807933337"><ele>1094.3333333333333</ele><time>2026-04-27T12:59:32Z</time></trkpt><trkpt lat="45.803965274165044" lon="9.499747497771457"><ele>1089.6666666666667</ele><time>2026-04-27T12:59:33Z</time></trkpt><trkpt lat="45.80414274156184" lon="9.499723231621314"><ele>1085.0</ele><time>2026-04-27T12:59:34Z</time></trkpt><trkpt lat="45.80431018930957" lon="9.49970614755057"><ele>1082.0</ele><time>2026-04-27T12:59:35Z</time></trkpt><trkpt lat="45.804465521022486" lon="9.499706742486104"><ele>1079.0</ele><time>2026-04-27T12:59:36Z</time></trkpt><trkpt lat="45.80462842312537" lon="9.499727665635632"><ele>1076.0</ele><time>2026-04-27T12:59:37Z</time></trkpt><trkpt lat="45.804792495029034" lon="9.499752294703018"><ele>1076.0</ele><time>2026-04-27T12:59:38Z</time></trkpt><trkpt lat="45.80493541022209" lon="9.499761560970727"><ele>1076.0</ele><time>2026-04-27T12:59:39Z</time></trkpt><trkpt lat="45.80501586758098" lon="9.499759508261139"><ele>1076.0</ele><time>2026-04-27T12:59:40Z</time></trkpt><trkpt lat="45.80514037812627" lon="9.499751287110662"><ele>1076.0</ele><time>2026-04-27T12:59:41Z</time></trkpt><trkpt lat="45.80529777462355" lon="9.49973602383272"><ele>1069.3333333333335</ele><time>2026-04-27T12:59:42Z</time></trkpt><trkpt lat="45.8054755363941" lon="9.499628279163423"><ele>1062.6666666666667</ele><time>2026-04-27T12:59:43Z</time></trkpt><trkpt lat="45.805658704945515" lon="9.499544273953806"><ele>1056.0</ele><time>2026-04-27T12:59:44Z</time></trkpt><trkpt lat="45.805869157612285" lon="9.49947249936011"><ele>1066.0</ele><time>2026-04-27T12:59:45Z</time></trkpt><trkpt lat="45.8060914954304" lon="9.499432037534865"><ele>1076.0</ele><time>2026-04-27T12:59:46Z</time></trkpt><trkpt lat="45.80630255968998" lon="9.49939485638431"><ele>1086.0</ele><time>2026-04-27T12:59:47Z</time></trkpt><trkpt lat="45.80651862887405" lon="9.49936895432378"><ele>1086.0</ele><time>2026-04-27T12:59:48Z</time></trkpt><trkpt lat="45.80671976372597" lon="9.499353970428764"><ele>1086.0</ele><time>2026-04-27T12:59:49Z</time></trkpt><trkpt lat="45.80689791079777" lon="9.499365407953562"><ele>1086.0</ele><time>2026-04-27T12:59:50Z</time></trkpt><trkpt lat="45.80700647751616" lon="9.499427310526528"><ele>1084.0</ele><time>2026-04-27T12:59:52Z</time></trkpt><trkpt lat="45.80717364544521" lon="9.499513580107624"><ele>1082.0</ele><time>2026-04-27T12:59:53Z</time></trkpt><trkpt lat="45.80732680872664" lon="9.499603002975423"><ele>1080.0</ele><time>2026-04-27T12:59:54Z</time></trkpt><trkpt lat="45.80747384347953" lon="9.499687063088516"><ele>1074.6</ele><time>2026-04-27T12:59:55Z</time></trkpt><trkpt lat="45.8075833229496" lon="9.49973942162028"><ele>1069.2</ele><time>2026-04-27T12:59:56Z</time></trkpt><trkpt lat="45.807675019235816" lon="9.499757465116398"><ele>1063.8</ele><time>2026-04-27T12:59:57Z</time></trkpt><trkpt lat="45.80777751784961" lon="9.49975443316847"><ele>1058.4</ele><time>2026-04-27T12:59:58.001Z</time></trkpt><trkpt lat="45.80788707101683" lon="9.499741415728383"><ele>1053.0</ele><time>2026-04-27T12:59:59.001Z</time></trkpt><trkpt lat="45.80799619619442" lon="9.49973584838611"><ele>1051.6666666666667</ele><time>2026-04-27T13:00:00.001Z</time></trkpt><trkpt lat="45.808126627718835" lon="9.49974205528215"><ele>1050.3333333333335</ele><time>2026-04-27T13:00:01.001Z</time></trkpt><trkpt lat="45.80827166166111" lon="9.499756033518691"><ele>1049.0</ele><time>2026-04-27T13:00:02.001Z</time></trkpt><trkpt lat="45.80844996375595" lon="9.499711964437022"><ele>1052.0</ele><time>2026-04-27T13:00:03.001Z</time></trkpt><trkpt lat="45.80861455379604" lon="9.499694759281677"><ele>1055.0</ele><time>2026-04-27T13:00:04.001Z</time></trkpt><trkpt lat="45.808790764575924" lon="9.499602982416597"><ele>1058.0</ele><time>2026-04-27T13:00:05.001Z</time></trkpt><trkpt lat="45.80899526005597" lon="9.49950579916966"><ele>1058.0</ele><time>2026-04-27T13:00:06.001Z</time></trkpt><trkpt lat="45.80914773548337" lon="9.499382473496452"><ele>1058.0</ele><time>2026-04-27T13:00:07.001Z</time></trkpt><trkpt lat="45.809300290551185" lon="9.499322102730636"><ele>1058.0</ele><time>2026-04-27T13:00:08.001Z</time></trkpt><trkpt lat="45.809458007844064" lon="9.499302868599058"><ele>1055.2</ele><time>2026-04-27T13:00:09.001Z</time></trkpt><trkpt lat="45.80958091558052" lon="9.499289192766678"><ele>1052.4</ele><time>2026-04-27T13:00:10.001Z</time></trkpt><trkpt lat="45.80968840767268" lon="9.499268276575846"><ele>1049.6000000000001</ele><time>2026-04-27T13:00:11.001Z</time></trkpt><trkpt lat="45.80977061757983" lon="9.499271248357996"><ele>1046.8</ele><time>2026-04-27T13:00:12.001Z</time></trkpt><trkpt lat="45.809837621329905" lon="9.49933202117398"><ele>1044.0</ele><time>2026-04-27T13:00:14.001Z</time></trkpt><trkpt lat="45.80984017973423" lon="9.499423527145668"><ele>1044.0</ele><time>2026-04-27T13:00:15.001Z</time></trkpt><trkpt lat="45.80970636598245" lon="9.499456036866777"><ele>1044.0</ele><time>2026-04-27T13:00:17.001Z</time></trkpt><trkpt lat="45.80962300302385" lon="9.499462224077755"><ele>1044.0</ele><time>2026-04-27T13:00:18.001Z</time></trkpt><trkpt lat="45.809519445858925" lon="9.499472821302593"><ele>1044.0</ele><time>2026-04-27T13:00:19Z</time></trkpt><trkpt lat="45.80939863139565" lon="9.499487406147754"><ele>1044.0</ele><time>2026-04-27T13:00:20Z</time></trkpt><trkpt lat="45.80929529945997" lon="9.499518913896727"><ele>1042.8</ele><time>2026-04-27T13:00:21Z</time></trkpt><trkpt lat="45.80919397545869" lon="9.499572204840332"><ele>1041.6000000000001</ele><time>2026-04-27T13:00:22Z</time></trkpt><trkpt lat="45.80910310559498" lon="9.499667856623441"><ele>1040.4</ele><time>2026-04-27T13:00:23Z</time></trkpt><trkpt lat="45.80904894186768" lon="9.499808006645049"><ele>1039.2</ele><time>2026-04-27T13:00:24Z</time></trkpt><trkpt lat="45.809006943244455" lon="9.499963579229156"><ele>1038.0</ele><time>2026-04-27T13:00:25Z</time></trkpt><trkpt lat="45.80898158727448" lon="9.500126603138689"><ele>1038.0</ele><time>2026-04-27T13:00:26Z</time></trkpt><trkpt lat="45.808957992099074" lon="9.500255662671819"><ele>1038.0</ele><time>2026-04-27T13:00:27Z</time></trkpt><trkpt lat="45.80894064913037" lon="9.500357878073203"><ele>1038.0</ele><time>2026-04-27T13:00:28Z</time></trkpt><trkpt lat="45.80895492446222" lon="9.500449360409355"><ele>1038.0</ele><time>2026-04-27T13:00:29Z</time></trkpt><trkpt lat="45.80902064306224" lon="9.500493051133112"><ele>1038.0</ele><time>2026-04-27T13:00:31Z</time></trkpt><trkpt lat="45.80915213069293" lon="9.500409706935066"><ele>1038.0</ele><time>2026-04-27T13:00:39Z</time></trkpt><trkpt lat="45.80919684699015" lon="9.500256785058037"><ele>1038.0</ele><time>2026-04-27T13:00:40Z</time></trkpt><trkpt lat="45.809278241957564" lon="9.500124196294134"><ele>1038.0</ele><time>2026-04-27T13:00:41Z</time></trkpt><trkpt lat="45.80936184965594" lon="9.499962961234788"><ele>1038.0</ele><time>2026-04-27T13:00:42Z</time></trkpt><trkpt lat="45.80948754595319" lon="9.499857412778065"><ele>1038.0</ele><time>2026-04-27T13:00:43Z</time></trkpt><trkpt lat="45.809627488019984" lon="9.499845684012909"><ele>1036.0</ele><time>2026-04-27T13:00:44Z</time></trkpt><trkpt lat="45.80977064908975" lon="9.499851010978244"><ele>1034.0</ele><time>2026-04-27T13:00:45Z</time></trkpt><trkpt lat="45.809917875646306" lon="9.499836220636396"><ele>1032.0</ele><time>2026-04-27T13:00:46Z</time></trkpt><trkpt lat="45.81006648244813" lon="9.499817549476811"><ele>1030.0</ele><time>2026-04-27T13:00:47Z</time></trkpt><trkpt lat="45.81019941468774" lon="9.49970431441063"><ele>1029.6666666666665</ele><time>2026-04-27T13:00:48Z</time></trkpt><trkpt lat="45.8103407114743" lon="9.499535939955464"><ele>1029.3333333333333</ele><time>2026-04-27T13:00:49Z</time></trkpt><trkpt lat="45.81048598893452" lon="9.499352297616769"><ele>1029.0</ele><time>2026-04-27T13:00:50Z</time></trkpt><trkpt lat="45.81065203402797" lon="9.499198391294431"><ele>1029.0</ele><time>2026-04-27T13:00:51Z</time></trkpt><trkpt lat="45.810788664192884" lon="9.499057045590485"><ele>1029.0</ele><time>2026-04-27T13:00:52Z</time></trkpt><trkpt lat="45.81093501886373" lon="9.498916468328536"><ele>1029.0</ele><time>2026-04-27T13:00:53Z</time></trkpt><trkpt lat="45.811068126399086" lon="9.498768235573744"><ele>1024.0</ele><time>2026-04-27T13:00:54Z</time></trkpt><trkpt lat="45.81119272435885" lon="9.49857622496153"><ele>1019.0</ele><time>2026-04-27T13:00:55Z</time></trkpt><trkpt lat="45.81131666219924" lon="9.49837212806284"><ele>1014.0</ele><time>2026-04-27T13:00:56Z</time></trkpt><trkpt lat="45.81142433927985" lon="9.498183465330523"><ele>1014.0</ele><time>2026-04-27T13:00:57Z</time></trkpt><trkpt lat="45.81151102396549" lon="9.497974509830188"><ele>1014.0</ele><time>2026-04-27T13:00:58Z</time></trkpt><trkpt lat="45.811601435533156" lon="9.4977698607887"><ele>1014.0</ele><time>2026-04-27T13:00:59Z</time></trkpt><trkpt lat="45.81166876805055" lon="9.497524630931077"><ele>1015.6666666666667</ele><time>2026-04-27T13:01:00Z</time></trkpt><trkpt lat="45.811750815993776" lon="9.497270416760957"><ele>1017.3333333333334</ele><time>2026-04-27T13:01:01Z</time></trkpt><trkpt lat="45.81182655017296" lon="9.496999564884323"><ele>1019.0</ele><time>2026-04-27T13:01:02Z</time></trkpt><trkpt lat="45.81191519691398" lon="9.496758031169204"><ele>1013.0</ele><time>2026-04-27T13:01:03Z</time></trkpt><trkpt lat="45.81200764016171" lon="9.496534277396657"><ele>1007.0</ele><time>2026-04-27T13:01:04Z</time></trkpt><trkpt lat="45.8121028592984" lon="9.49631309099291"><ele>1001.0</ele><time>2026-04-27T13:01:05Z</time></trkpt><trkpt lat="45.81219485961548" lon="9.496086672784639"><ele>1001.0</ele><time>2026-04-27T13:01:06Z</time></trkpt><trkpt lat="45.81229129718688" lon="9.495849347502203"><ele>1001.0</ele><time>2026-04-27T13:01:07Z</time></trkpt><trkpt lat="45.81237673232786" lon="9.49558865253558"><ele>1001.0</ele><time>2026-04-27T13:01:08Z</time></trkpt><trkpt lat="45.812456910411825" lon="9.495345669535425"><ele>1003.0</ele><time>2026-04-27T13:01:09Z</time></trkpt><trkpt lat="45.812503154018174" lon="9.495101199156434"><ele>1005.0</ele><time>2026-04-27T13:01:10Z</time></trkpt><trkpt lat="45.81256795436511" lon="9.494873762244424"><ele>1007.0</ele><time>2026-04-27T13:01:11Z</time></trkpt><trkpt lat="45.81262841821301" lon="9.494660078165913"><ele>998.0</ele><time>2026-04-27T13:01:12Z</time></trkpt><trkpt lat="45.81268412634667" lon="9.494469442448942"><ele>989.0</ele><time>2026-04-27T13:01:13Z</time></trkpt><trkpt lat="45.81272826178609" lon="9.494283248880295"><ele>980.0</ele><time>2026-04-27T13:01:14Z</time></trkpt><trkpt lat="45.81275936071788" lon="9.494089150298977"><ele>971.0</ele><time>2026-04-27T13:01:15Z</time></trkpt><trkpt lat="45.81273284152049" lon="9.493866248282277"><ele>969.0</ele><time>2026-04-27T13:01:16Z</time></trkpt><trkpt lat="45.81268270835865" lon="9.493635319943737"><ele>967.0</ele><time>2026-04-27T13:01:17Z</time></trkpt><trkpt lat="45.81262826954646" lon="9.493398236904628"><ele>965.0</ele><time>2026-04-27T13:01:18Z</time></trkpt><trkpt lat="45.81262107596601" lon="9.493166104830323"><ele>967.0</ele><time>2026-04-27T13:01:19Z</time></trkpt><trkpt lat="45.812628069779954" lon="9.492939783125752"><ele>969.0</ele><time>2026-04-27T13:01:20Z</time></trkpt><trkpt lat="45.812647964172534" lon="9.49270645770532"><ele>971.0</ele><time>2026-04-27T13:01:21Z</time></trkpt><trkpt lat="45.81268129474954" lon="9.492463648205986"><ele>971.0</ele><time>2026-04-27T13:01:22Z</time></trkpt><trkpt lat="45.81273220860546" lon="9.492207265277216"><ele>971.0</ele><time>2026-04-27T13:01:23Z</time></trkpt><trkpt lat="45.81278392795628" lon="9.491985513254686"><ele>971.0</ele><time>2026-04-27T13:01:24Z</time></trkpt><trkpt lat="45.81284568460489" lon="9.491736616489074"><ele>972.5</ele><time>2026-04-27T13:01:25Z</time></trkpt><trkpt lat="45.812890781834824" lon="9.49151454118455"><ele>974.0</ele><time>2026-04-27T13:01:26Z</time></trkpt><trkpt lat="45.81294449159588" lon="9.491327559912996"><ele>975.5</ele><time>2026-04-27T13:01:27Z</time></trkpt><trkpt lat="45.81298283914489" lon="9.49119409432715"><ele>977.0</ele><time>2026-04-27T13:01:28Z</time></trkpt><trkpt lat="45.813044367545366" lon="9.491071608562924"><ele>977.0000000000001</ele><time>2026-04-27T13:01:29Z</time></trkpt><trkpt lat="45.8130881759679" lon="9.490970929760872"><ele>977.0</ele><time>2026-04-27T13:01:30Z</time></trkpt><trkpt lat="45.813132146964335" lon="9.490904343709735"><ele>977.0</ele><time>2026-04-27T13:01:32Z</time></trkpt><trkpt lat="45.813193197378276" lon="9.491015183469063"><ele>977.0</ele><time>2026-04-27T13:01:33Z</time></trkpt><trkpt lat="45.81321846607858" lon="9.491111807708636"><ele>977.0000000000001</ele><time>2026-04-27T13:01:34Z</time></trkpt><trkpt lat="45.813187515155" lon="9.491243008075246"><ele>977.0</ele><time>2026-04-27T13:01:35Z</time></trkpt><trkpt lat="45.81314365228778" lon="9.491387828538047"><ele>977.0</ele><time>2026-04-27T13:01:36Z</time></trkpt><trkpt lat="45.8131138648489" lon="9.491604116950889"><ele>977.0</ele><time>2026-04-27T13:01:37Z</time></trkpt><trkpt lat="45.813121952418314" lon="9.491842807936704"><ele>977.0</ele><time>2026-04-27T13:01:38Z</time></trkpt><trkpt lat="45.81311716967453" lon="9.492092018887016"><ele>975.5</ele><time>2026-04-27T13:01:39Z</time></trkpt><trkpt lat="45.8131346079739" lon="9.492335900726118"><ele>974.0</ele><time>2026-04-27T13:01:40Z</time></trkpt><trkpt lat="45.8131616203782" lon="9.492542743612145"><ele>972.5</ele><time>2026-04-27T13:01:41Z</time></trkpt><trkpt lat="45.813122053294784" lon="9.49271432031159"><ele>971.0</ele><time>2026-04-27T13:01:42Z</time></trkpt><trkpt lat="45.81308580603694" lon="9.492865614560575"><ele>970.0000000000001</ele><time>2026-04-27T13:01:43Z</time></trkpt><trkpt lat="45.813049688191036" lon="9.492987670187063"><ele>969.0</ele><time>2026-04-27T13:01:44Z</time></trkpt><trkpt lat="45.81304545710673" lon="9.493096635335611"><ele>968.0</ele><time>2026-04-27T13:01:45Z</time></trkpt><trkpt lat="45.81309701860781" lon="9.493182377509056"><ele>967.0</ele><time>2026-04-27T13:01:46Z</time></trkpt><trkpt lat="45.81319716371683" lon="9.49319404683183"><ele>966.0000000000001</ele><time>2026-04-27T13:01:47Z</time></trkpt><trkpt lat="45.8132872010828" lon="9.493129505503452"><ele>965.0</ele><time>2026-04-27T13:01:48Z</time></trkpt><trkpt lat="45.813325471672975" lon="9.493002469037036"><ele>967.0</ele><time>2026-04-27T13:01:49Z</time></trkpt><trkpt lat="45.81335525384182" lon="9.492777398642827"><ele>969.0</ele><time>2026-04-27T13:01:50Z</time></trkpt><trkpt lat="45.813385349541974" lon="9.492545297786286"><ele>971.0</ele><time>2026-04-27T13:01:51Z</time></trkpt><trkpt lat="45.81342088698818" lon="9.49231540684992"><ele>973.0</ele><time>2026-04-27T13:01:52Z</time></trkpt><trkpt lat="45.81346642854768" lon="9.492073219967702"><ele>975.0</ele><time>2026-04-27T13:01:53Z</time></trkpt><trkpt lat="45.813523628453595" lon="9.491797028106312"><ele>977.0</ele><time>2026-04-27T13:01:54Z</time></trkpt><trkpt lat="45.81358507626457" lon="9.491514586045433"><ele>967.6666666666667</ele><time>2026-04-27T13:01:55Z</time></trkpt><trkpt lat="45.8136476955113" lon="9.491237039633234"><ele>958.3333333333333</ele><time>2026-04-27T13:01:56Z</time></trkpt><trkpt lat="45.81368743759869" lon="9.490983254735392"><ele>949.0</ele><time>2026-04-27T13:01:57Z</time></trkpt><trkpt lat="45.81374163381059" lon="9.490761242205322"><ele>949.0</ele><time>2026-04-27T13:01:58Z</time></trkpt><trkpt lat="45.813808322819064" lon="9.490557254080157"><ele>949.0</ele><time>2026-04-27T13:01:59Z</time></trkpt><trkpt lat="45.81390827576123" lon="9.490451619544496"><ele>949.0</ele><time>2026-04-27T13:02:00Z</time></trkpt><trkpt lat="45.81399134192947" lon="9.490362430284042"><ele>949.0</ele><time>2026-04-27T13:02:01Z</time></trkpt><trkpt lat="45.81412616707059" lon="9.490230484039353"><ele>953.3333333333333</ele><time>2026-04-27T13:02:02Z</time></trkpt><trkpt lat="45.81425644031686" lon="9.490123987738771"><ele>957.6666666666667</ele><time>2026-04-27T13:02:03Z</time></trkpt><trkpt lat="45.81437229519248" lon="9.489986706693463"><ele>962.0</ele><time>2026-04-27T13:02:04.001Z</time></trkpt><trkpt lat="45.81447981972218" lon="9.489821262534472"><ele>953.6666666666667</ele><time>2026-04-27T13:02:05.001Z</time></trkpt><trkpt lat="45.81457911219385" lon="9.489629134834756"><ele>945.3333333333333</ele><time>2026-04-27T13:02:06Z</time></trkpt><trkpt lat="45.81465686421126" lon="9.48943090860338"><ele>937.0</ele><time>2026-04-27T13:02:07Z</time></trkpt><trkpt lat="45.81476811346873" lon="9.489268623457011"><ele>937.0</ele><time>2026-04-27T13:02:08Z</time></trkpt><trkpt lat="45.81487078857479" lon="9.489097343573043"><ele>937.0</ele><time>2026-04-27T13:02:09Z</time></trkpt><trkpt lat="45.815031142800315" lon="9.488953782134239"><ele>937.0</ele><time>2026-04-27T13:02:10Z</time></trkpt><trkpt lat="45.81520772020277" lon="9.488869204969271"><ele>933.6666666666666</ele><time>2026-04-27T13:02:11Z</time></trkpt><trkpt lat="45.815356595533" lon="9.488768513252152"><ele>930.3333333333333</ele><time>2026-04-27T13:02:12Z</time></trkpt><trkpt lat="45.81548712503017" lon="9.488649864132315"><ele>927.0</ele><time>2026-04-27T13:02:13Z</time></trkpt><trkpt lat="45.81559630262431" lon="9.488485929763923"><ele>927.0</ele><time>2026-04-27T13:02:14Z</time></trkpt><trkpt lat="45.815676394882196" lon="9.488263701147718"><ele>927.0</ele><time>2026-04-27T13:02:15Z</time></trkpt><trkpt lat="45.81573616337801" lon="9.488008314109448"><ele>927.0</ele><time>2026-04-27T13:02:16Z</time></trkpt><trkpt lat="45.81580254675202" lon="9.487737282271985"><ele>930.3333333333333</ele><time>2026-04-27T13:02:17Z</time></trkpt><trkpt lat="45.81588036391417" lon="9.487472114124962"><ele>933.6666666666666</ele><time>2026-04-27T13:02:18Z</time></trkpt><trkpt lat="45.815981668517885" lon="9.487234081158862"><ele>937.0</ele><time>2026-04-27T13:02:19Z</time></trkpt><trkpt lat="45.816079038679035" lon="9.48699841632022"><ele>927.0</ele><time>2026-04-27T13:02:20Z</time></trkpt><trkpt lat="45.81617699132631" lon="9.486769093329654"><ele>917.0</ele><time>2026-04-27T13:02:21Z</time></trkpt><trkpt lat="45.816282157284824" lon="9.486532763936296"><ele>907.0</ele><time>2026-04-27T13:02:22Z</time></trkpt><trkpt lat="45.816389756935344" lon="9.486312680890954"><ele>910.0</ele><time>2026-04-27T13:02:23Z</time></trkpt><trkpt lat="45.81649174730086" lon="9.486105226489382"><ele>913.0</ele><time>2026-04-27T13:02:24Z</time></trkpt><trkpt lat="45.8165771374257" lon="9.485913236142279"><ele>916.0</ele><time>2026-04-27T13:02:25Z</time></trkpt><trkpt lat="45.816664028661044" lon="9.485733279472777"><ele>916.0</ele><time>2026-04-27T13:02:26Z</time></trkpt><trkpt lat="45.816756955327854" lon="9.48561253882316"><ele>916.0</ele><time>2026-04-27T13:02:27Z</time></trkpt><trkpt lat="45.81687561522107" lon="9.485535431767598"><ele>916.0</ele><time>2026-04-27T13:02:28Z</time></trkpt><trkpt lat="45.81705812232725" lon="9.485377721484765"><ele>914.3333333333333</ele><time>2026-04-27T13:02:29Z</time></trkpt><trkpt lat="45.817239687475286" lon="9.485305175876087"><ele>912.6666666666667</ele><time>2026-04-27T13:02:30Z</time></trkpt><trkpt lat="45.81742525633056" lon="9.48522909924721"><ele>911.0</ele><time>2026-04-27T13:02:31Z</time></trkpt><trkpt lat="45.81760082659395" lon="9.48515364175843"><ele>904.0</ele><time>2026-04-27T13:02:32Z</time></trkpt><trkpt lat="45.81775831060833" lon="9.485083988844224"><ele>897.0</ele><time>2026-04-27T13:02:33Z</time></trkpt><trkpt lat="45.81789970186145" lon="9.485030049667255"><ele>890.0</ele><time>2026-04-27T13:02:34Z</time></trkpt><trkpt lat="45.8180460196015" lon="9.484915532987038"><ele>890.0</ele><time>2026-04-27T13:02:35Z</time></trkpt><trkpt lat="45.818170136430616" lon="9.484728585411853"><ele>890.0</ele><time>2026-04-27T13:02:36Z</time></trkpt><trkpt lat="45.81828918702105" lon="9.484480951073483"><ele>890.0</ele><time>2026-04-27T13:02:37Z</time></trkpt><trkpt lat="45.818425427962595" lon="9.484270806263536"><ele>885.3333333333334</ele><time>2026-04-27T13:02:38Z</time></trkpt><trkpt lat="45.81856696315485" lon="9.484076938633313"><ele>880.6666666666667</ele><time>2026-04-27T13:02:39Z</time></trkpt><trkpt lat="45.81873387456403" lon="9.483928719913347"><ele>876.0</ele><time>2026-04-27T13:02:40Z</time></trkpt><trkpt lat="45.8188925653137" lon="9.483782763995288"><ele>874.0</ele><time>2026-04-27T13:02:41Z</time></trkpt><trkpt lat="45.819042250515096" lon="9.483652056002144"><ele>872.0</ele><time>2026-04-27T13:02:42Z</time></trkpt><trkpt lat="45.8191890191513" lon="9.483547230677518"><ele>870.0</ele><time>2026-04-27T13:02:43Z</time></trkpt><trkpt lat="45.81934637343276" lon="9.483469482755947"><ele>870.0</ele><time>2026-04-27T13:02:44Z</time></trkpt><trkpt lat="45.819536496960346" lon="9.483423153857336"><ele>870.0</ele><time>2026-04-27T13:02:45Z</time></trkpt><trkpt lat="45.8197198142273" lon="9.483389860119233"><ele>870.0</ele><time>2026-04-27T13:02:46Z</time></trkpt><trkpt lat="45.8198924399989" lon="9.483331541461148"><ele>870.0</ele><time>2026-04-27T13:02:47Z</time></trkpt><trkpt lat="45.82006313510312" lon="9.48322270944419"><ele>870.0</ele><time>2026-04-27T13:02:48Z</time></trkpt><trkpt lat="45.82021330612689" lon="9.483087872776382"><ele>870.0</ele><time>2026-04-27T13:02:49Z</time></trkpt><trkpt lat="45.82034598853232" lon="9.482930214429967"><ele>868.5</ele><time>2026-04-27T13:02:50Z</time></trkpt><trkpt lat="45.82046509066272" lon="9.482761864883361"><ele>867.0</ele><time>2026-04-27T13:02:51Z</time></trkpt><trkpt lat="45.82054274801295" lon="9.482605209534253"><ele>865.5</ele><time>2026-04-27T13:02:52Z</time></trkpt><trkpt lat="45.82066148253247" lon="9.482512295797443"><ele>864.0</ele><time>2026-04-27T13:02:53Z</time></trkpt><trkpt lat="45.820830682484555" lon="9.48241204284219"><ele>859.6666666666667</ele><time>2026-04-27T13:02:54Z</time></trkpt><trkpt lat="45.82102306101293" lon="9.482377176430235"><ele>855.3333333333334</ele><time>2026-04-27T13:02:55Z</time></trkpt><trkpt lat="45.82121415465625" lon="9.482331503153157"><ele>851.0</ele><time>2026-04-27T13:02:56Z</time></trkpt><trkpt lat="45.82139710824569" lon="9.482253178142434"><ele>851.0</ele><time>2026-04-27T13:02:57Z</time></trkpt><trkpt lat="45.821594161674035" lon="9.48217650377225"><ele>851.0</ele><time>2026-04-27T13:02:58Z</time></trkpt><trkpt lat="45.82177175443327" lon="9.482122252134747"><ele>851.0</ele><time>2026-04-27T13:02:59Z</time></trkpt><trkpt lat="45.82195356732721" lon="9.482049743747607"><ele>853.3333333333334</ele><time>2026-04-27T13:03:00Z</time></trkpt><trkpt lat="45.822129457703404" lon="9.481989706674412"><ele>855.6666666666667</ele><time>2026-04-27T13:03:01Z</time></trkpt><trkpt lat="45.82230032395321" lon="9.481945594254256"><ele>858.0</ele><time>2026-04-27T13:03:02Z</time></trkpt><trkpt lat="45.82246176553199" lon="9.48191654957665"><ele>858.0</ele><time>2026-04-27T13:03:03Z</time></trkpt><trkpt lat="45.8226197453806" lon="9.481883952140413"><ele>858.0</ele><time>2026-04-27T13:03:04Z</time></trkpt><trkpt lat="45.822763980188846" lon="9.481838913483498"><ele>858.0</ele><time>2026-04-27T13:03:05Z</time></trkpt><trkpt lat="45.82288182456806" lon="9.481802653359155"><ele>858.0</ele><time>2026-04-27T13:03:06Z</time></trkpt><trkpt lat="45.82296244431925" lon="9.481788878300975"><ele>858.5999999999999</ele><time>2026-04-27T13:03:07Z</time></trkpt><trkpt lat="45.82307292386359" lon="9.481855680348675"><ele>859.1999999999999</ele><time>2026-04-27T13:03:09Z</time></trkpt><trkpt lat="45.82307089612688" lon="9.481949093195409"><ele>859.8</ele><time>2026-04-27T13:03:10Z</time></trkpt><trkpt lat="45.8230442921786" lon="9.48205857108205"><ele>860.4</ele><time>2026-04-27T13:03:11Z</time></trkpt><trkpt lat="45.822986862559766" lon="9.48210549459387"><ele>861.0</ele><time>2026-04-27T13:03:12Z</time></trkpt><trkpt lat="45.82285328086355" lon="9.48212620050998"><ele>853.0</ele><time>2026-04-27T13:03:13Z</time></trkpt><trkpt lat="45.8226739906025" lon="9.482166306472866"><ele>845.0</ele><time>2026-04-27T13:03:14Z</time></trkpt><trkpt lat="45.82252971199344" lon="9.48222203596019"><ele>837.0</ele><time>2026-04-27T13:03:15Z</time></trkpt><trkpt lat="45.82238993918688" lon="9.482315440797665"><ele>837.0</ele><time>2026-04-27T13:03:16Z</time></trkpt><trkpt lat="45.82229783317918" lon="9.482447981828543"><ele>837.0</ele><time>2026-04-27T13:03:17Z</time></trkpt><trkpt lat="45.822250694282495" lon="9.482644874527544"><ele>837.0</ele><time>2026-04-27T13:03:18Z</time></trkpt><trkpt lat="45.82225031833605" lon="9.482889009156278"><ele>837.0</ele><time>2026-04-27T13:03:19Z</time></trkpt><trkpt lat="45.822255367214346" lon="9.483155373358377"><ele>834.25</ele><time>2026-04-27T13:03:20Z</time></trkpt><trkpt lat="45.82223881495397" lon="9.483389896726813"><ele>831.5</ele><time>2026-04-27T13:03:21Z</time></trkpt><trkpt lat="45.822229578739844" lon="9.483598152626495"><ele>828.75</ele><time>2026-04-27T13:03:22Z</time></trkpt><trkpt lat="45.82220745023212" lon="9.483777977825861"><ele>826.0</ele><time>2026-04-27T13:03:23Z</time></trkpt><trkpt lat="45.8221295302483" lon="9.483913306527649"><ele>824.5</ele><time>2026-04-27T13:03:24Z</time></trkpt><trkpt lat="45.822046053868746" lon="9.484055914865685"><ele>823.0</ele><time>2026-04-27T13:03:25Z</time></trkpt><trkpt lat="45.82195188522018" lon="9.484181047735571"><ele>821.5</ele><time>2026-04-27T13:03:26Z</time></trkpt><trkpt lat="45.82182885740498" lon="9.48423712376431"><ele>820.0</ele><time>2026-04-27T13:03:27Z</time></trkpt><trkpt lat="45.821697808436376" lon="9.484210678160336"><ele>820.0</ele><time>2026-04-27T13:03:28Z</time></trkpt><trkpt lat="45.821600620423084" lon="9.484207090336723"><ele>820.0</ele><time>2026-04-27T13:03:29Z</time></trkpt><trkpt lat="45.821489940955125" lon="9.484254586813481"><ele>820.0</ele><time>2026-04-27T13:03:30Z</time></trkpt><trkpt lat="45.82131455480703" lon="9.484334740974553"><ele>820.0</ele><time>2026-04-27T13:03:31Z</time></trkpt><trkpt lat="45.821174427183315" lon="9.48442606413794"><ele>820.0</ele><time>2026-04-27T13:03:32Z</time></trkpt><trkpt lat="45.821053177210075" lon="9.484488188251394"><ele>820.0</ele><time>2026-04-27T13:03:33Z</time></trkpt><trkpt lat="45.82094419636305" lon="9.484573240376259"><ele>820.0</ele><time>2026-04-27T13:03:34Z</time></trkpt><trkpt lat="45.82085580248793" lon="9.48468987842605"><ele>820.0</ele><time>2026-04-27T13:03:35Z</time></trkpt><trkpt lat="45.82081607840764" lon="9.484880584804507"><ele>818.25</ele><time>2026-04-27T13:03:36Z</time></trkpt><trkpt lat="45.82085499089455" lon="9.485117449443694"><ele>816.5</ele><time>2026-04-27T13:03:37Z</time></trkpt><trkpt lat="45.82088809552339" lon="9.485278785249022"><ele>814.75</ele><time>2026-04-27T13:03:38Z</time></trkpt><trkpt lat="45.820891966221275" lon="9.485456630087755"><ele>813.0</ele><time>2026-04-27T13:03:39Z</time></trkpt><trkpt lat="45.820890894468434" lon="9.485641852766712"><ele>811.75</ele><time>2026-04-27T13:03:40Z</time></trkpt><trkpt lat="45.820896860051334" lon="9.485850231887456"><ele>810.5</ele><time>2026-04-27T13:03:41Z</time></trkpt><trkpt lat="45.82091472755103" lon="9.486037260064867"><ele>809.25</ele><time>2026-04-27T13:03:42Z</time></trkpt><trkpt lat="45.82091216774041" lon="9.48619770504241"><ele>808.0</ele><time>2026-04-27T13:03:43Z</time></trkpt><trkpt lat="45.82087563590019" lon="9.48632731242615"><ele>804.6666666666666</ele><time>2026-04-27T13:03:44Z</time></trkpt><trkpt lat="45.820785735851" lon="9.486493573190328"><ele>801.3333333333333</ele><time>2026-04-27T13:03:45Z</time></trkpt><trkpt lat="45.82066446628916" lon="9.486625136173284"><ele>798.0</ele><time>2026-04-27T13:03:46Z</time></trkpt><trkpt lat="45.82054406261581" lon="9.48678133073732"><ele>798.0</ele><time>2026-04-27T13:03:47Z</time></trkpt><trkpt lat="45.820412077736385" lon="9.486894866790744"><ele>798.0</ele><time>2026-04-27T13:03:48Z</time></trkpt><trkpt lat="45.820297493941524" lon="9.487001179599153"><ele>798.0</ele><time>2026-04-27T13:03:49Z</time></trkpt><trkpt lat="45.82020196266373" lon="9.48713892528967"><ele>798.0</ele><time>2026-04-27T13:03:50Z</time></trkpt><trkpt lat="45.82011989913047" lon="9.487285711235982"><ele>796.5999999999999</ele><time>2026-04-27T13:03:51Z</time></trkpt><trkpt lat="45.820039839203055" lon="9.48738190930715"><ele>795.1999999999999</ele><time>2026-04-27T13:03:52Z</time></trkpt><trkpt lat="45.8200173008153" lon="9.487482103945148"><ele>793.8</ele><time>2026-04-27T13:03:53Z</time></trkpt><trkpt lat="45.820057653356024" lon="9.487609957433037"><ele>792.4</ele><time>2026-04-27T13:03:54Z</time></trkpt><trkpt lat="45.82010709542064" lon="9.487701405072496"><ele>791.0</ele><time>2026-04-27T13:03:55Z</time></trkpt><trkpt lat="45.820295102582065" lon="9.487765437880416"><ele>789.3333333333334</ele><time>2026-04-27T13:03:56Z</time></trkpt><trkpt lat="45.82043647282051" lon="9.487765834724632"><ele>787.6666666666667</ele><time>2026-04-27T13:03:57Z</time></trkpt><trkpt lat="45.820594986432674" lon="9.487705457461367"><ele>786.0</ele><time>2026-04-27T13:03:58Z</time></trkpt><trkpt lat="45.82076560937203" lon="9.487608612848954"><ele>786.0</ele><time>2026-04-27T13:03:59Z</time></trkpt><trkpt lat="45.82088243518723" lon="9.487480078678184"><ele>786.0</ele><time>2026-04-27T13:04:00Z</time></trkpt><trkpt lat="45.82098432265991" lon="9.487373871259344"><ele>786.0</ele><time>2026-04-27T13:04:01Z</time></trkpt><trkpt lat="45.82107741685927" lon="9.487232864264087"><ele>786.0</ele><time>2026-04-27T13:04:02Z</time></trkpt><trkpt lat="45.82116213548998" lon="9.487183167522012"><ele>782.75</ele><time>2026-04-27T13:04:03Z</time></trkpt><trkpt lat="45.82127329955733" lon="9.487142547018136"><ele>779.5</ele><time>2026-04-27T13:04:04Z</time></trkpt><trkpt lat="45.821363818088344" lon="9.487210727848025"><ele>776.25</ele><time>2026-04-27T13:04:05Z</time></trkpt><trkpt lat="45.8215029701261" lon="9.487305182938536"><ele>773.0</ele><time>2026-04-27T13:04:06Z</time></trkpt><trkpt lat="45.82160050234053" lon="9.487371582969546"><ele>773.0</ele><time>2026-04-27T13:04:07Z</time></trkpt><trkpt lat="45.82172903801079" lon="9.487408297213948"><ele>773.0</ele><time>2026-04-27T13:04:08Z</time></trkpt><trkpt lat="45.821878511547325" lon="9.487390038085245"><ele>773.0</ele><time>2026-04-27T13:04:09Z</time></trkpt><trkpt lat="45.821992694050735" lon="9.487274153697383"><ele>773.0</ele><time>2026-04-27T13:04:10Z</time></trkpt><trkpt lat="45.82215157050293" lon="9.487206820019393"><ele>771.8</ele><time>2026-04-27T13:04:11Z</time></trkpt><trkpt lat="45.82224985710451" lon="9.487161088510776"><ele>770.5999999999999</ele><time>2026-04-27T13:04:12Z</time></trkpt><trkpt lat="45.822343168277" lon="9.48714830312731"><ele>769.4000000000001</ele><time>2026-04-27T13:04:13Z</time></trkpt><trkpt lat="45.82243014190991" lon="9.487216931588788"><ele>768.2</ele><time>2026-04-27T13:04:14Z</time></trkpt><trkpt lat="45.8225101491319" lon="9.487367231538023"><ele>767.0</ele><time>2026-04-27T13:04:15Z</time></trkpt><trkpt lat="45.822568098762645" lon="9.487546526830384"><ele>767.25</ele><time>2026-04-27T13:04:16Z</time></trkpt><trkpt lat="45.82265047517796" lon="9.487745008891828"><ele>767.5</ele><time>2026-04-27T13:04:17Z</time></trkpt><trkpt lat="45.82274878159899" lon="9.487871391371414"><ele>767.75</ele><time>2026-04-27T13:04:18Z</time></trkpt><trkpt lat="45.8228931643701" lon="9.487943871202456"><ele>768.0</ele><time>2026-04-27T13:04:19Z</time></trkpt><trkpt lat="45.823031493545294" lon="9.487974272800162"><ele>764.3333333333334</ele><time>2026-04-27T13:04:20Z</time></trkpt><trkpt lat="45.82323019768272" lon="9.488015585058703"><ele>760.6666666666667</ele><time>2026-04-27T13:04:21Z</time></trkpt><trkpt lat="45.82338107262168" lon="9.488095252210925"><ele>757.0</ele><time>2026-04-27T13:04:22Z</time></trkpt><trkpt lat="45.8236090572465" lon="9.488156535029846"><ele>756.0</ele><time>2026-04-27T13:04:23Z</time></trkpt><trkpt lat="45.82379398564318" lon="9.488243672705261"><ele>755.0</ele><time>2026-04-27T13:04:24Z</time></trkpt><trkpt lat="45.82396523830874" lon="9.488359928043167"><ele>754.0</ele><time>2026-04-27T13:04:25Z</time></trkpt><trkpt lat="45.824138324830194" lon="9.488467787105584"><ele>754.0</ele><time>2026-04-27T13:04:26Z</time></trkpt><trkpt lat="45.824285662740714" lon="9.488582800257882"><ele>754.0</ele><time>2026-04-27T13:04:27Z</time></trkpt><trkpt lat="45.82444816270315" lon="9.488695672809914"><ele>754.0</ele><time>2026-04-27T13:04:28Z</time></trkpt><trkpt lat="45.82460448335472" lon="9.488815719212285"><ele>751.6666666666667</ele><time>2026-04-27T13:04:29Z</time></trkpt><trkpt lat="45.82475685661521" lon="9.488928555566465"><ele>749.3333333333334</ele><time>2026-04-27T13:04:30Z</time></trkpt><trkpt lat="45.8249008489081" lon="9.48902621189685"><ele>747.0</ele><time>2026-04-27T13:04:31Z</time></trkpt><trkpt lat="45.825038339067895" lon="9.489090103841878"><ele>747.6</ele><time>2026-04-27T13:04:32Z</time></trkpt><trkpt lat="45.82514615842137" lon="9.489146547305857"><ele>748.2</ele><time>2026-04-27T13:04:33Z</time></trkpt><trkpt lat="45.82526015074071" lon="9.489224145872655"><ele>748.8</ele><time>2026-04-27T13:04:34Z</time></trkpt><trkpt lat="45.82533901831133" lon="9.489320304428112"><ele>749.4</ele><time>2026-04-27T13:04:35Z</time></trkpt><trkpt lat="45.82539758394813" lon="9.489413484119408"><ele>750.0</ele><time>2026-04-27T13:04:36Z</time></trkpt><trkpt lat="45.825447706481384" lon="9.489564112941432"><ele>748.2</ele><time>2026-04-27T13:04:37Z</time></trkpt><trkpt lat="45.825464157813" lon="9.489678202178357"><ele>746.4</ele><time>2026-04-27T13:04:38Z</time></trkpt><trkpt lat="45.82546552073597" lon="9.48979044206978"><ele>744.5999999999999</ele><time>2026-04-27T13:04:39Z</time></trkpt><trkpt lat="45.82548362205543" lon="9.489931138361005"><ele>742.8</ele><time>2026-04-27T13:04:40Z</time></trkpt><trkpt lat="45.825546420681164" lon="9.490070664772395"><ele>741.0</ele><time>2026-04-27T13:04:41Z</time></trkpt><trkpt lat="45.82562066656048" lon="9.490205219514458"><ele>741.0</ele><time>2026-04-27T13:04:42Z</time></trkpt><trkpt lat="45.8257236553982" lon="9.49034611978505"><ele>741.0</ele><time>2026-04-27T13:04:43Z</time></trkpt><trkpt lat="45.82585416637123" lon="9.49046873395527"><ele>741.0</ele><time>2026-04-27T13:04:44Z</time></trkpt><trkpt lat="45.82596765302806" lon="9.490604929772399"><ele>741.0</ele><time>2026-04-27T13:04:45Z</time></trkpt><trkpt lat="45.82608693796314" lon="9.490712771037202"><ele>741.0</ele><time>2026-04-27T13:04:46Z</time></trkpt><trkpt lat="45.82619349542156" lon="9.49082896654265"><ele>741.0</ele><time>2026-04-27T13:04:47Z</time></trkpt><trkpt lat="45.8263097359084" lon="9.490945623858641"><ele>741.0</ele><time>2026-04-27T13:04:48Z</time></trkpt><trkpt lat="45.82640417360149" lon="9.491082994774525"><ele>741.0</ele><time>2026-04-27T13:04:49Z</time></trkpt><trkpt lat="45.826457772145595" lon="9.491268460956103"><ele>738.0</ele><time>2026-04-27T13:04:50Z</time></trkpt><trkpt lat="45.82650554305474" lon="9.491449967690276"><ele>735.0</ele><time>2026-04-27T13:04:51Z</time></trkpt><trkpt lat="45.82652915241717" lon="9.491639906630175"><ele>732.0</ele><time>2026-04-27T13:04:52Z</time></trkpt><trkpt lat="45.82657115024413" lon="9.491810908084346"><ele>729.0</ele><time>2026-04-27T13:04:53Z</time></trkpt><trkpt lat="45.826659088803645" lon="9.491956130687951"><ele>726.0</ele><time>2026-04-27T13:04:54Z</time></trkpt><trkpt lat="45.826778807837066" lon="9.492099949487313"><ele>723.0</ele><time>2026-04-27T13:04:55Z</time></trkpt><trkpt lat="45.82688910049564" lon="9.492207964402256"><ele>720.0</ele><time>2026-04-27T13:04:56Z</time></trkpt><trkpt lat="45.82701465668619" lon="9.492292287024105"><ele>717.0</ele><time>2026-04-27T13:04:57Z</time></trkpt><trkpt lat="45.82716435789831" lon="9.492346486112433"><ele>716.6666666666666</ele><time>2026-04-27T13:04:58Z</time></trkpt><trkpt lat="45.82733810582232" lon="9.492371862808598"><ele>716.3333333333333</ele><time>2026-04-27T13:04:59Z</time></trkpt><trkpt lat="45.82748840904991" lon="9.492383909441752"><ele>716.0</ele><time>2026-04-27T13:05:00Z</time></trkpt><trkpt lat="45.827629606213165" lon="9.492381685111273"><ele>712.25</ele><time>2026-04-27T13:05:01Z</time></trkpt><trkpt lat="45.827746287927226" lon="9.492398019437633"><ele>708.5</ele><time>2026-04-27T13:05:02Z</time></trkpt><trkpt lat="45.82785639669287" lon="9.492377393276355"><ele>704.75</ele><time>2026-04-27T13:05:03Z</time></trkpt><trkpt lat="45.82796469125612" lon="9.492342243942531"><ele>701.0</ele><time>2026-04-27T13:05:04Z</time></trkpt><trkpt lat="45.828079883671926" lon="9.492230069101398"><ele>701.0</ele><time>2026-04-27T13:05:05Z</time></trkpt><trkpt lat="45.82819842917501" lon="9.492100839270021"><ele>701.0</ele><time>2026-04-27T13:05:06Z</time></trkpt><trkpt lat="45.828318730732924" lon="9.491981184023645"><ele>701.0</ele><time>2026-04-27T13:05:07Z</time></trkpt><trkpt lat="45.82843382849091" lon="9.491871004143404"><ele>701.0</ele><time>2026-04-27T13:05:08Z</time></trkpt><trkpt lat="45.82854728987802" lon="9.491782421082464"><ele>701.25</ele><time>2026-04-27T13:05:09Z</time></trkpt><trkpt lat="45.82862262100685" lon="9.491697718679152"><ele>701.5</ele><time>2026-04-27T13:05:10Z</time></trkpt><trkpt lat="45.828722055001435" lon="9.4915282217259"><ele>701.75</ele><time>2026-04-27T13:05:11Z</time></trkpt><trkpt lat="45.82879995851045" lon="9.491341316038485"><ele>702.0</ele><time>2026-04-27T13:05:12Z</time></trkpt><trkpt lat="45.828871469781284" lon="9.491142326939153"><ele>702.0</ele><time>2026-04-27T13:05:13Z</time></trkpt><trkpt lat="45.8289240994677" lon="9.490982783603817"><ele>702.0</ele><time>2026-04-27T13:05:14Z</time></trkpt><trkpt lat="45.82896461736896" lon="9.490857324537592"><ele>702.0</ele><time>2026-04-27T13:05:15Z</time></trkpt><trkpt lat="45.82901141968203" lon="9.490709213520702"><ele>702.0</ele><time>2026-04-27T13:05:16Z</time></trkpt><trkpt lat="45.82905724222283" lon="9.490524127335123"><ele>703.3333333333334</ele><time>2026-04-27T13:05:17Z</time></trkpt><trkpt lat="45.82915844344399" lon="9.490253850613831"><ele>704.6666666666667</ele><time>2026-04-27T13:05:18Z</time></trkpt><trkpt lat="45.82924586305634" lon="9.490012795196533"><ele>706.0</ele><time>2026-04-27T13:05:19Z</time></trkpt><trkpt lat="45.82932900253965" lon="9.489755626640669"><ele>700.5</ele><time>2026-04-27T13:05:20Z</time></trkpt><trkpt lat="45.829357341108015" lon="9.48954213812504"><ele>695.0</ele><time>2026-04-27T13:05:21Z</time></trkpt><trkpt lat="45.82941160820782" lon="9.489354689789646"><ele>689.5</ele><time>2026-04-27T13:05:22Z</time></trkpt><trkpt lat="45.829448149615835" lon="9.48918441874578"><ele>684.0</ele><time>2026-04-27T13:05:23Z</time></trkpt><trkpt lat="45.82945473537573" lon="9.489017186545341"><ele>684.0</ele><time>2026-04-27T13:05:24Z</time></trkpt><trkpt lat="45.829436448156926" lon="9.488868401964774"><ele>684.0</ele><time>2026-04-27T13:05:25Z</time></trkpt><trkpt lat="45.8294212523989" lon="9.48875422835547"><ele>684.0</ele><time>2026-04-27T13:05:26Z</time></trkpt><trkpt lat="45.829467915991586" lon="9.488630307149496"><ele>684.0</ele><time>2026-04-27T13:05:28Z</time></trkpt><trkpt lat="45.829573828814816" lon="9.488695010318088"><ele>684.0</ele><time>2026-04-27T13:05:30Z</time></trkpt><trkpt lat="45.82960168324257" lon="9.488812407676239"><ele>684.0</ele><time>2026-04-27T13:05:31Z</time></trkpt><trkpt lat="45.8295685574144" lon="9.48894925480414"><ele>684.0</ele><time>2026-04-27T13:05:32Z</time></trkpt><trkpt lat="45.82956776537077" lon="9.489121787171689"><ele>684.0</ele><time>2026-04-27T13:05:33Z</time></trkpt><trkpt lat="45.829547080867734" lon="9.48932745347107"><ele>684.0</ele><time>2026-04-27T13:05:34Z</time></trkpt><trkpt lat="45.829531974248795" lon="9.489547401795576"><ele>682.25</ele><time>2026-04-27T13:05:35Z</time></trkpt><trkpt lat="45.829519355919636" lon="9.489751340962137"><ele>680.5</ele><time>2026-04-27T13:05:36Z</time></trkpt><trkpt lat="45.82950671735871" lon="9.489944840265313"><ele>678.75</ele><time>2026-04-27T13:05:37Z</time></trkpt><trkpt lat="45.829488289306774" lon="9.490136817695351"><ele>677.0</ele><time>2026-04-27T13:05:38Z</time></trkpt><trkpt lat="45.82947694907693" lon="9.49031339215032"><ele>676.5</ele><time>2026-04-27T13:05:39Z</time></trkpt><trkpt lat="45.8295170135215" lon="9.490499861666114"><ele>676.0</ele><time>2026-04-27T13:05:40Z</time></trkpt><trkpt lat="45.82960133808269" lon="9.49067743762936"><ele>675.5</ele><time>2026-04-27T13:05:41Z</time></trkpt><trkpt lat="45.829659265304194" lon="9.490829365450058"><ele>675.0</ele><time>2026-04-27T13:05:42Z</time></trkpt><trkpt lat="45.829704263999446" lon="9.49098836147981"><ele>675.0</ele><time>2026-04-27T13:05:43Z</time></trkpt><trkpt lat="45.829712775652794" lon="9.491136220477394"><ele>675.0</ele><time>2026-04-27T13:05:44Z</time></trkpt><trkpt lat="45.82969128503361" lon="9.491313837558447"><ele>675.0</ele><time>2026-04-27T13:05:45Z</time></trkpt><trkpt lat="45.829664194061635" lon="9.491530743150143"><ele>675.0</ele><time>2026-04-27T13:05:46Z</time></trkpt><trkpt lat="45.82959723916222" lon="9.49175865584486"><ele>673.3333333333334</ele><time>2026-04-27T13:05:47Z</time></trkpt><trkpt lat="45.829526070678085" lon="9.491952270494538"><ele>671.6666666666667</ele><time>2026-04-27T13:05:48Z</time></trkpt><trkpt lat="45.82945075795157" lon="9.492174698344044"><ele>670.0</ele><time>2026-04-27T13:05:49Z</time></trkpt><trkpt lat="45.829399409360114" lon="9.492386309198613"><ele>668.5</ele><time>2026-04-27T13:05:50Z</time></trkpt><trkpt lat="45.82936263309752" lon="9.492594119833427"><ele>667.0</ele><time>2026-04-27T13:05:51Z</time></trkpt><trkpt lat="45.82932910390566" lon="9.492762462902787"><ele>665.5</ele><time>2026-04-27T13:05:52Z</time></trkpt><trkpt lat="45.82928241769225" lon="9.492953554114893"><ele>664.0</ele><time>2026-04-27T13:05:53Z</time></trkpt><trkpt lat="45.82920029723797" lon="9.49308835657457"><ele>664.0</ele><time>2026-04-27T13:05:54Z</time></trkpt><trkpt lat="45.829113161147724" lon="9.493215249835977"><ele>664.0</ele><time>2026-04-27T13:05:55Z</time></trkpt><trkpt lat="45.82900634898432" lon="9.493364399005126"><ele>664.0</ele><time>2026-04-27T13:05:56Z</time></trkpt><trkpt lat="45.828922155282946" lon="9.493506352736704"><ele>664.0</ele><time>2026-04-27T13:05:57Z</time></trkpt><trkpt lat="45.828802174869296" lon="9.493628426679775"><ele>665.2</ele><time>2026-04-27T13:05:58Z</time></trkpt><trkpt lat="45.82871210392542" lon="9.49375692162539"><ele>666.4000000000001</ele><time>2026-04-27T13:05:59Z</time></trkpt><trkpt lat="45.82864275943867" lon="9.493837296537137"><ele>667.6</ele><time>2026-04-27T13:06:00Z</time></trkpt><trkpt lat="45.828559736198905" lon="9.493949360867001"><ele>668.8</ele><time>2026-04-27T13:06:01Z</time></trkpt><trkpt lat="45.82851448711657" lon="9.494063895662517"><ele>670.0</ele><time>2026-04-27T13:06:02Z</time></trkpt><trkpt lat="45.828437263964744" lon="9.494199003189808"><ele>665.25</ele><time>2026-04-27T13:06:03Z</time></trkpt><trkpt lat="45.82855733163148" lon="9.494408411783077"><ele>660.5</ele><time>2026-04-27T13:06:04Z</time></trkpt><trkpt lat="45.82860893977036" lon="9.494585698057142"><ele>655.75</ele><time>2026-04-27T13:06:05Z</time></trkpt><trkpt lat="45.82865231685926" lon="9.494735558859292"><ele>651.0</ele><time>2026-04-27T13:06:06Z</time></trkpt><trkpt lat="45.82867801288659" lon="9.494866257085844"><ele>650.5999999999999</ele><time>2026-04-27T13:06:07Z</time></trkpt><trkpt lat="45.82868687577103" lon="9.494986326240062"><ele>650.2</ele><time>2026-04-27T13:06:08Z</time></trkpt><trkpt lat="45.82865742564324" lon="9.495105987237975"><ele>649.8</ele><time>2026-04-27T13:06:09Z</time></trkpt><trkpt lat="45.82858262808234" lon="9.495200934299424"><ele>649.4000000000001</ele><time>2026-04-27T13:06:10Z</time></trkpt><trkpt lat="45.828514473539805" lon="9.495301964140614"><ele>649.0</ele><time>2026-04-27T13:06:11Z</time></trkpt><trkpt lat="45.828438435783745" lon="9.495444044987641"><ele>649.0</ele><time>2026-04-27T13:06:12Z</time></trkpt><trkpt lat="45.8283457449975" lon="9.495579567187296"><ele>649.0</ele><time>2026-04-27T13:06:13Z</time></trkpt><trkpt lat="45.82826910043617" lon="9.495695395674554"><ele>649.0</ele><time>2026-04-27T13:06:14Z</time></trkpt><trkpt lat="45.828195479307446" lon="9.495779646614828"><ele>649.0</ele><time>2026-04-27T13:06:15Z</time></trkpt><trkpt lat="45.82810121681586" lon="9.495823381208218"><ele>649.0</ele><time>2026-04-27T13:06:16Z</time></trkpt><trkpt lat="45.82801027368357" lon="9.495781150023761"><ele>649.0</ele><time>2026-04-27T13:06:17Z</time></trkpt><trkpt lat="45.82790727996877" lon="9.495749898898678"><ele>649.0</ele><time>2026-04-27T13:06:18Z</time></trkpt><trkpt lat="45.827795872942005" lon="9.495712183992225"><ele>649.0</ele><time>2026-04-27T13:06:19Z</time></trkpt><trkpt lat="45.82762407697525" lon="9.495662126427725"><ele>649.0</ele><time>2026-04-27T13:06:20Z</time></trkpt><trkpt lat="45.82747862721873" lon="9.495610240591411"><ele>647.5</ele><time>2026-04-27T13:06:21Z</time></trkpt><trkpt lat="45.827344384274895" lon="9.495542469061343"><ele>646.0</ele><time>2026-04-27T13:06:22Z</time></trkpt><trkpt lat="45.82720880565943" lon="9.495499679818144"><ele>644.5</ele><time>2026-04-27T13:06:23Z</time></trkpt><trkpt lat="45.82706480959433" lon="9.495464246642442"><ele>643.0</ele><time>2026-04-27T13:06:24Z</time></trkpt><trkpt lat="45.82689835245116" lon="9.495488122411976"><ele>642.4</ele><time>2026-04-27T13:06:25Z</time></trkpt><trkpt lat="45.82675699557297" lon="9.49554250342215"><ele>641.8</ele><time>2026-04-27T13:06:26Z</time></trkpt><trkpt lat="45.82665466192209" lon="9.49557333958724"><ele>641.2</ele><time>2026-04-27T13:06:27Z</time></trkpt><trkpt lat="45.826570767345615" lon="9.4956100133068"><ele>640.6</ele><time>2026-04-27T13:06:28Z</time></trkpt><trkpt lat="45.8264981802665" lon="9.49568666498025"><ele>640.0</ele><time>2026-04-27T13:06:29Z</time></trkpt><trkpt lat="45.82643160237457" lon="9.495838756789816"><ele>640.0</ele><time>2026-04-27T13:06:30Z</time></trkpt><trkpt lat="45.82638776108746" lon="9.496056743860617"><ele>640.0</ele><time>2026-04-27T13:06:31Z</time></trkpt><trkpt lat="45.82637883305858" lon="9.496263877575966"><ele>640.0</ele><time>2026-04-27T13:06:32Z</time></trkpt><trkpt lat="45.82635585591599" lon="9.496453555127983"><ele>640.0</ele><time>2026-04-27T13:06:33Z</time></trkpt><trkpt lat="45.82635799081302" lon="9.496603639035058"><ele>638.6</ele><time>2026-04-27T13:06:34Z</time></trkpt><trkpt lat="45.826377162871346" lon="9.49673994694157"><ele>637.2</ele><time>2026-04-27T13:06:35Z</time></trkpt><trkpt lat="45.82643659456778" lon="9.496840488425796"><ele>635.8</ele><time>2026-04-27T13:06:36Z</time></trkpt><trkpt lat="45.8265201901817" lon="9.496895073045263"><ele>634.4</ele><time>2026-04-27T13:06:37Z</time></trkpt><trkpt lat="45.826637179952215" lon="9.49695273876446"><ele>633.0</ele><time>2026-04-27T13:06:38Z</time></trkpt><trkpt lat="45.826766727830474" lon="9.496988071195025"><ele>632.0</ele><time>2026-04-27T13:06:39Z</time></trkpt><trkpt lat="45.826919769233754" lon="9.497040169919849"><ele>631.0</ele><time>2026-04-27T13:06:40Z</time></trkpt><trkpt lat="45.827060929984206" lon="9.497085413651249"><ele>630.0</ele><time>2026-04-27T13:06:41Z</time></trkpt><trkpt lat="45.82719253602765" lon="9.497140234759424"><ele>629.0</ele><time>2026-04-27T13:06:42Z</time></trkpt><trkpt lat="45.82731243773946" lon="9.497175280171668"><ele>627.4</ele><time>2026-04-27T13:06:43Z</time></trkpt><trkpt lat="45.82742451498811" lon="9.497178115323873"><ele>625.8</ele><time>2026-04-27T13:06:44Z</time></trkpt><trkpt lat="45.827524613120495" lon="9.497142570841438"><ele>624.2</ele><time>2026-04-27T13:06:45Z</time></trkpt><trkpt lat="45.82760797594658" lon="9.49710625953291"><ele>622.6</ele><time>2026-04-27T13:06:46Z</time></trkpt><trkpt lat="45.827687109427536" lon="9.49712945064257"><ele>621.0</ele><time>2026-04-27T13:06:48Z</time></trkpt><trkpt lat="45.82768319826215" lon="9.497315071445"><ele>619.6</ele><time>2026-04-27T13:06:50Z</time></trkpt><trkpt lat="45.82758347294072" lon="9.497348500775107"><ele>618.2</ele><time>2026-04-27T13:06:51Z</time></trkpt><trkpt lat="45.82751957418868" lon="9.497397966803671"><ele>616.8</ele><time>2026-04-27T13:06:52Z</time></trkpt><trkpt lat="45.82740237355353" lon="9.497520794046657"><ele>615.4</ele><time>2026-04-27T13:06:53Z</time></trkpt><trkpt lat="45.827329992347266" lon="9.497626945385356"><ele>614.0</ele><time>2026-04-27T13:06:54Z</time></trkpt><trkpt lat="45.827275625830794" lon="9.49769960334271"><ele>614.0</ele><time>2026-04-27T13:06:55Z</time></trkpt><trkpt lat="45.8272440094213" lon="9.49786151602531"><ele>614.0</ele><time>2026-04-27T13:06:57Z</time></trkpt><trkpt lat="45.827268100043824" lon="9.497972042526312"><ele>614.0</ele><time>2026-04-27T13:06:58Z</time></trkpt><trkpt lat="45.827322654862996" lon="9.498120713151094"><ele>614.0</ele><time>2026-04-27T13:06:59Z</time></trkpt><trkpt lat="45.827339403427985" lon="9.49826963369061"><ele>614.0</ele><time>2026-04-27T13:07:00Z</time></trkpt><trkpt lat="45.827352447617436" lon="9.49839176110196"><ele>612.3333333333333</ele><time>2026-04-27T13:07:01Z</time></trkpt><trkpt lat="45.82736682279323" lon="9.498513222904558"><ele>610.6666666666666</ele><time>2026-04-27T13:07:02Z</time></trkpt><trkpt lat="45.827377664854154" lon="9.49863693646374"><ele>609.0</ele><time>2026-04-27T13:07:03Z</time></trkpt><trkpt lat="45.8273998589801" lon="9.498773664860906"><ele>607.3333333333334</ele><time>2026-04-27T13:07:04Z</time></trkpt><trkpt lat="45.827424323873906" lon="9.498895086309776"><ele>605.6666666666667</ele><time>2026-04-27T13:07:05Z</time></trkpt><trkpt lat="45.82746695388559" lon="9.499002717375346"><ele>604.0</ele><time>2026-04-27T13:07:06Z</time></trkpt><trkpt lat="45.8275312035955" lon="9.499078014937522"><ele>602.0</ele><time>2026-04-27T13:07:07Z</time></trkpt><trkpt lat="45.82761525272952" lon="9.499116840667147"><ele>600.0</ele><time>2026-04-27T13:07:08Z</time></trkpt><trkpt lat="45.82771502182198" lon="9.499125906734287"><ele>598.0</ele><time>2026-04-27T13:07:09Z</time></trkpt><trkpt lat="45.82781100227531" lon="9.499085001386478"><ele>596.0</ele><time>2026-04-27T13:07:10Z</time></trkpt><trkpt lat="45.827880575014134" lon="9.499058247523386"><ele>594.0</ele><time>2026-04-27T13:07:11Z</time></trkpt><trkpt lat="45.82796405221076" lon="9.49918792600263"><ele>593.4</ele><time>2026-04-27T13:07:13Z</time></trkpt><trkpt lat="45.82795137913771" lon="9.49930123797484"><ele>592.8</ele><time>2026-04-27T13:07:14Z</time></trkpt><trkpt lat="45.827881982227964" lon="9.499403245139508"><ele>592.2</ele><time>2026-04-27T13:07:15Z</time></trkpt><trkpt lat="45.82780779536622" lon="9.499555185849578"><ele>591.6</ele><time>2026-04-27T13:07:16Z</time></trkpt><trkpt lat="45.82775694805359" lon="9.499652490814812"><ele>591.0</ele><time>2026-04-27T13:07:17Z</time></trkpt><trkpt lat="45.82768513014116" lon="9.499670739472203"><ele>589.6</ele><time>2026-04-27T13:07:18Z</time></trkpt><trkpt lat="45.82758744678989" lon="9.499675864002832"><ele>588.2</ele><time>2026-04-27T13:07:19Z</time></trkpt><trkpt lat="45.82747455575626" lon="9.499687708587388"><ele>586.8</ele><time>2026-04-27T13:07:20Z</time></trkpt><trkpt lat="45.82734184728952" lon="9.499713884861837"><ele>585.4</ele><time>2026-04-27T13:07:21Z</time></trkpt><trkpt lat="45.82724066090806" lon="9.499693266335676"><ele>584.0</ele><time>2026-04-27T13:07:22Z</time></trkpt><trkpt lat="45.82713202425332" lon="9.49972763812801"><ele>584.0</ele><time>2026-04-27T13:07:24Z</time></trkpt><trkpt lat="45.82711298764503" lon="9.4998141459418"><ele>584.0</ele><time>2026-04-27T13:07:25Z</time></trkpt><trkpt lat="45.82715096395715" lon="9.499907354045366"><ele>584.0</ele><time>2026-04-27T13:07:26Z</time></trkpt><trkpt lat="45.82721851601409" lon="9.499979434587877"><ele>584.0</ele><time>2026-04-27T13:07:27Z</time></trkpt><trkpt lat="45.82731884142164" lon="9.499958907302068"><ele>584.0</ele><time>2026-04-27T13:07:28Z</time></trkpt><trkpt lat="45.827409639836176" lon="9.499953044977811"><ele>584.0</ele><time>2026-04-27T13:07:29Z</time></trkpt><trkpt lat="45.82750542117975" lon="9.499997584668114"><ele>584.0</ele><time>2026-04-27T13:07:30Z</time></trkpt><trkpt lat="45.827592017722004" lon="9.500110486507777"><ele>584.0</ele><time>2026-04-27T13:07:31Z</time></trkpt><trkpt lat="45.82765935307097" lon="9.500255984367666"><ele>584.0</ele><time>2026-04-27T13:07:32Z</time></trkpt><trkpt lat="45.827734230184866" lon="9.500378909766379"><ele>584.0</ele><time>2026-04-27T13:07:33Z</time></trkpt><trkpt lat="45.82778903016347" lon="9.500503345703603"><ele>581.0</ele><time>2026-04-27T13:07:34Z</time></trkpt><trkpt lat="45.82786074817717" lon="9.50057896629145"><ele>578.0</ele><time>2026-04-27T13:07:35Z</time></trkpt><trkpt lat="45.827924506037306" lon="9.500569795457501"><ele>575.0</ele><time>2026-04-27T13:07:36Z</time></trkpt><trkpt lat="45.827986829167116" lon="9.500519789400435"><ele>572.0</ele><time>2026-04-27T13:07:37Z</time></trkpt><trkpt lat="45.82804693292499" lon="9.500491327787307"><ele>569.0</ele><time>2026-04-27T13:07:39Z</time></trkpt><trkpt lat="45.82803067966685" lon="9.500630890060442"><ele>566.0</ele><time>2026-04-27T13:07:41Z</time></trkpt><trkpt lat="45.827955024809754" lon="9.50068798842968"><ele>566.0</ele><time>2026-04-27T13:07:42Z</time></trkpt><trkpt lat="45.827873390455196" lon="9.500786634363239"><ele>566.0</ele><time>2026-04-27T13:07:43Z</time></trkpt><trkpt lat="45.82781896947531" lon="9.500901088231549"><ele>566.0</ele><time>2026-04-27T13:07:44Z</time></trkpt><trkpt lat="45.827798753833285" lon="9.501054222967065"><ele>566.0</ele><time>2026-04-27T13:07:45Z</time></trkpt><trkpt lat="45.827811824864604" lon="9.50119401672319"><ele>566.0</ele><time>2026-04-27T13:07:46Z</time></trkpt><trkpt lat="45.827818293059906" lon="9.501329895505462"><ele>563.2</ele><time>2026-04-27T13:07:47Z</time></trkpt><trkpt lat="45.8278204481494" lon="9.501450445657873"><ele>560.4000000000001</ele><time>2026-04-27T13:07:48Z</time></trkpt><trkpt lat="45.82780453141248" lon="9.501599248417158"><ele>557.6</ele><time>2026-04-27T13:07:49Z</time></trkpt><trkpt lat="45.827780150947476" lon="9.50175417674511"><ele>554.8000000000001</ele><time>2026-04-27T13:07:50Z</time></trkpt><trkpt lat="45.827790172623004" lon="9.501862859564365"><ele>552.0</ele><time>2026-04-27T13:07:51Z</time></trkpt><trkpt lat="45.8277859453107" lon="9.501981292280842"><ele>551.8000000000001</ele><time>2026-04-27T13:07:52Z</time></trkpt><trkpt lat="45.82769216386311" lon="9.502130556793402"><ele>551.6</ele><time>2026-04-27T13:07:54Z</time></trkpt><trkpt lat="45.82759990761877" lon="9.502211266736465"><ele>551.4000000000001</ele><time>2026-04-27T13:07:55Z</time></trkpt><trkpt lat="45.82752876464685" lon="9.502284130870759"><ele>551.2</ele><time>2026-04-27T13:07:56Z</time></trkpt><trkpt lat="45.827494941532905" lon="9.502412162452554"><ele>551.0</ele><time>2026-04-27T13:07:57Z</time></trkpt><trkpt lat="45.827494427620884" lon="9.502564716976394"><ele>551.0</ele><time>2026-04-27T13:07:58Z</time></trkpt><trkpt lat="45.82748694946193" lon="9.502696890440658"><ele>551.0</ele><time>2026-04-27T13:07:59Z</time></trkpt><trkpt lat="45.82746832607092" lon="9.502820270755391"><ele>551.0</ele><time>2026-04-27T13:08:00Z</time></trkpt><trkpt lat="45.827423222462514" lon="9.502895678874811"><ele>551.0</ele><time>2026-04-27T13:08:01Z</time></trkpt><trkpt lat="45.82727901409733" lon="9.502767602521264"><ele>551.0</ele><time>2026-04-27T13:08:03Z</time></trkpt><trkpt lat="45.8272061550318" lon="9.502754835023365"><ele>551.0</ele><time>2026-04-27T13:08:05Z</time></trkpt><trkpt lat="45.827146973790335" lon="9.502818557856573"><ele>551.0</ele><time>2026-04-27T13:08:06Z</time></trkpt><trkpt lat="45.82711936931298" lon="9.50291263138753"><ele>551.0</ele><time>2026-04-27T13:08:07Z</time></trkpt><trkpt lat="45.827129444586085" lon="9.503013518280007"><ele>551.0</ele><time>2026-04-27T13:08:08Z</time></trkpt><trkpt lat="45.82718824431521" lon="9.5031166177714"><ele>551.0</ele><time>2026-04-27T13:08:09Z</time></trkpt><trkpt lat="45.827292454892785" lon="9.503206191058403"><ele>551.0</ele><time>2026-04-27T13:08:10Z</time></trkpt><trkpt lat="45.82740900925683" lon="9.503323192744356"><ele>549.6</ele><time>2026-04-27T13:08:11Z</time></trkpt><trkpt lat="45.82749938654305" lon="9.503437900443885"><ele>548.2</ele><time>2026-04-27T13:08:12Z</time></trkpt><trkpt lat="45.827553204941125" lon="9.503565056651327"><ele>546.8</ele><time>2026-04-27T13:08:13Z</time></trkpt><trkpt lat="45.82765949994952" lon="9.503573589816495"><ele>545.4</ele><time>2026-04-27T13:08:14Z</time></trkpt><trkpt lat="45.82773034545329" lon="9.503559690612468"><ele>544.0</ele><time>2026-04-27T13:08:15Z</time></trkpt><trkpt lat="45.82767607029115" lon="9.503657817177556"><ele>543.2</ele><time>2026-04-27T13:08:19Z</time></trkpt><trkpt lat="45.827605232466645" lon="9.50363702683988"><ele>542.4</ele><time>2026-04-27T13:08:20Z</time></trkpt><trkpt lat="45.82752815166959" lon="9.503619796216444"><ele>541.6</ele><time>2026-04-27T13:08:20.999Z</time></trkpt><trkpt lat="45.82739984361286" lon="9.503586101141702"><ele>540.8</ele><time>2026-04-27T13:08:22Z</time></trkpt><trkpt lat="45.827269007394555" lon="9.5035724885883"><ele>540.0</ele><time>2026-04-27T13:08:23Z</time></trkpt><trkpt lat="45.827143339232116" lon="9.503571444313874"><ele>540.0</ele><time>2026-04-27T13:08:24Z</time></trkpt><trkpt lat="45.82703971355386" lon="9.503571177494324"><ele>540.0</ele><time>2026-04-27T13:08:25Z</time></trkpt><trkpt lat="45.82696651550962" lon="9.50352032050943"><ele>540.0</ele><time>2026-04-27T13:08:26Z</time></trkpt><trkpt lat="45.826905693144205" lon="9.503450561029931"><ele>540.0</ele><time>2026-04-27T13:08:27Z</time></trkpt><trkpt lat="45.82689264183978" lon="9.50333023214492"><ele>540.0</ele><time>2026-04-27T13:08:28Z</time></trkpt><trkpt lat="45.82683754354491" lon="9.503268656033868"><ele>540.0</ele><time>2026-04-27T13:08:29Z</time></trkpt><trkpt lat="45.826767847117495" lon="9.503125356435659"><ele>538.4</ele><time>2026-04-27T13:08:30Z</time></trkpt><trkpt lat="45.826667419127965" lon="9.503092553133866"><ele>536.8</ele><time>2026-04-27T13:08:31Z</time></trkpt><trkpt lat="45.826573736279414" lon="9.503084554991236"><ele>535.2</ele><time>2026-04-27T13:08:32Z</time></trkpt><trkpt lat="45.82650847867883" lon="9.503120565567846"><ele>533.6</ele><time>2026-04-27T13:08:33Z</time></trkpt><trkpt lat="45.8264641207202" lon="9.503233248967815"><ele>532.0</ele><time>2026-04-27T13:08:34Z</time></trkpt><trkpt lat="45.82641878264963" lon="9.50335545150104"><ele>532.0</ele><time>2026-04-27T13:08:35Z</time></trkpt><trkpt lat="45.82639101648174" lon="9.503461402371991"><ele>532.0</ele><time>2026-04-27T13:08:36Z</time></trkpt><trkpt lat="45.82633418654285" lon="9.503530720950117"><ele>532.0</ele><time>2026-04-27T13:08:37Z</time></trkpt><trkpt lat="45.8262099250159" lon="9.503583313171937"><ele>532.0</ele><time>2026-04-27T13:08:38Z</time></trkpt><trkpt lat="45.82609963385821" lon="9.503573876128842"><ele>532.0</ele><time>2026-04-27T13:08:39Z</time></trkpt><trkpt lat="45.82600019220016" lon="9.503537390237334"><ele>533.4</ele><time>2026-04-27T13:08:40Z</time></trkpt><trkpt lat="45.82589383251438" lon="9.503446180535258"><ele>534.8000000000001</ele><time>2026-04-27T13:08:41Z</time></trkpt><trkpt lat="45.82583312860114" lon="9.50336646110601"><ele>536.2</ele><time>2026-04-27T13:08:42Z</time></trkpt><trkpt lat="45.82576668490163" lon="9.503358996416493"><ele>537.6</ele><time>2026-04-27T13:08:43Z</time></trkpt><trkpt lat="45.825670852145635" lon="9.503506166971464"><ele>539.0</ele><time>2026-04-27T13:08:45Z</time></trkpt><trkpt lat="45.8256826356807" lon="9.503629456093204"><ele>537.5</ele><time>2026-04-27T13:08:46Z</time></trkpt><trkpt lat="45.82570679228292" lon="9.503815352683565"><ele>536.0</ele><time>2026-04-27T13:08:47Z</time></trkpt><trkpt lat="45.82576857132912" lon="9.503980863659924"><ele>534.5</ele><time>2026-04-27T13:08:48Z</time></trkpt><trkpt lat="45.82590878629143" lon="9.504056079663359"><ele>533.0</ele><time>2026-04-27T13:08:49Z</time></trkpt><trkpt lat="45.82592391131348" lon="9.504233367997298"><ele>533.0</ele><time>2026-04-27T13:08:50Z</time></trkpt><trkpt lat="45.82592226947479" lon="9.50443014252741"><ele>533.0</ele><time>2026-04-27T13:08:51Z</time></trkpt><trkpt lat="45.825911717370936" lon="9.504638013650302"><ele>533.0</ele><time>2026-04-27T13:08:52Z</time></trkpt><trkpt lat="45.82592084653981" lon="9.504819946904433"><ele>533.0</ele><time>2026-04-27T13:08:53Z</time></trkpt><trkpt lat="45.825902411128844" lon="9.504998493512023"><ele>531.0</ele><time>2026-04-27T13:08:54Z</time></trkpt><trkpt lat="45.825888857919836" lon="9.505183347771526"><ele>529.0</ele><time>2026-04-27T13:08:55Z</time></trkpt><trkpt lat="45.82585106964627" lon="9.505363988431794"><ele>527.0</ele><time>2026-04-27T13:08:56Z</time></trkpt><trkpt lat="45.82582608360567" lon="9.505529097846392"><ele>525.0</ele><time>2026-04-27T13:08:57Z</time></trkpt><trkpt lat="45.82577247507163" lon="9.505685635368414"><ele>521.3333333333334</ele><time>2026-04-27T13:08:58Z</time></trkpt><trkpt lat="45.825673669498315" lon="9.505843017553413"><ele>517.6666666666667</ele><time>2026-04-27T13:08:59Z</time></trkpt><trkpt lat="45.8255437357516" lon="9.505991937009586"><ele>514.0</ele><time>2026-04-27T13:09:00Z</time></trkpt><trkpt lat="45.82544880975219" lon="9.506156588986345"><ele>512.0</ele><time>2026-04-27T13:09:01Z</time></trkpt><trkpt lat="45.825371394273446" lon="9.506321045738144"><ele>510.0</ele><time>2026-04-27T13:09:02Z</time></trkpt><trkpt lat="45.8252960920885" lon="9.506463330848712"><ele>508.0</ele><time>2026-04-27T13:09:03Z</time></trkpt><trkpt lat="45.825175131090134" lon="9.506556365859025"><ele>506.0</ele><time>2026-04-27T13:09:04Z</time></trkpt><trkpt lat="45.82508035252315" lon="9.506671491672993"><ele>506.0</ele><time>2026-04-27T13:09:05Z</time></trkpt><trkpt lat="45.82498130192175" lon="9.50682226734847"><ele>506.0</ele><time>2026-04-27T13:09:06Z</time></trkpt><trkpt lat="45.82489260769033" lon="9.50696209366315"><ele>506.0</ele><time>2026-04-27T13:09:07Z</time></trkpt><trkpt lat="45.82479285110241" lon="9.507061754316197"><ele>506.0</ele><time>2026-04-27T13:09:08Z</time></trkpt><trkpt lat="45.82466301282073" lon="9.507086715494863"><ele>504.25</ele><time>2026-04-27T13:09:09Z</time></trkpt><trkpt lat="45.8245230399852" lon="9.507130377527728"><ele>502.5</ele><time>2026-04-27T13:09:10Z</time></trkpt><trkpt lat="45.82440665832441" lon="9.507131370016106"><ele>500.75</ele><time>2026-04-27T13:09:11Z</time></trkpt><trkpt lat="45.82426519737106" lon="9.507198414139555"><ele>499.0</ele><time>2026-04-27T13:09:12Z</time></trkpt><trkpt lat="45.82415458476305" lon="9.507299127405973"><ele>499.0</ele><time>2026-04-27T13:09:13Z</time></trkpt><trkpt lat="45.82406562156633" lon="9.50745284100934"><ele>499.0</ele><time>2026-04-27T13:09:14Z</time></trkpt><trkpt lat="45.82401218302585" lon="9.507639669709741"><ele>499.0</ele><time>2026-04-27T13:09:15Z</time></trkpt><trkpt lat="45.82392566327685" lon="9.507772175994713"><ele>499.0</ele><time>2026-04-27T13:09:16Z</time></trkpt><trkpt lat="45.823809723273285" lon="9.507845033377045"><ele>497.6666666666667</ele><time>2026-04-27T13:09:17Z</time></trkpt><trkpt lat="45.82369192365214" lon="9.507939093816598"><ele>496.33333333333337</ele><time>2026-04-27T13:09:18Z</time></trkpt><trkpt lat="45.82352631507563" lon="9.508057480075092"><ele>495.0</ele><time>2026-04-27T13:09:19Z</time></trkpt><trkpt lat="45.82339324205049" lon="9.508229630503193"><ele>495.0</ele><time>2026-04-27T13:09:20Z</time></trkpt><trkpt lat="45.82326800496099" lon="9.508425510508356"><ele>495.0</ele><time>2026-04-27T13:09:21Z</time></trkpt><trkpt lat="45.8231647532456" lon="9.508633290126852"><ele>495.0</ele><time>2026-04-27T13:09:22Z</time></trkpt><trkpt lat="45.8230538194835" lon="9.508818876763511"><ele>491.75</ele><time>2026-04-27T13:09:23Z</time></trkpt><trkpt lat="45.82293788804073" lon="9.508983682432827"><ele>488.5</ele><time>2026-04-27T13:09:24Z</time></trkpt><trkpt lat="45.82284011007089" lon="9.509078915819314"><ele>485.25</ele><time>2026-04-27T13:09:25Z</time></trkpt><trkpt lat="45.82276292781762" lon="9.50920885672616"><ele>482.0</ele><time>2026-04-27T13:09:26Z</time></trkpt><trkpt lat="45.82268831245789" lon="9.50933652425625"><ele>482.0</ele><time>2026-04-27T13:09:27Z</time></trkpt><trkpt lat="45.822627906312555" lon="9.509451249567988"><ele>482.00000000000006</ele><time>2026-04-27T13:09:28Z</time></trkpt><trkpt lat="45.82259544228369" lon="9.509584995793361"><ele>482.00000000000006</ele><time>2026-04-27T13:09:30Z</time></trkpt><trkpt lat="45.82264034705839" lon="9.509707992408103"><ele>482.0</ele><time>2026-04-27T13:09:32Z</time></trkpt><trkpt lat="45.82270352813468" lon="9.509693426057433"><ele>482.0</ele><time>2026-04-27T13:10:09Z</time></trkpt><trkpt lat="45.82281400902271" lon="9.509565690827076"><ele>482.0</ele><time>2026-04-27T13:10:11Z</time></trkpt><trkpt lat="45.82290315874755" lon="9.50941699625049"><ele>482.0</ele><time>2026-04-27T13:10:12Z</time></trkpt><trkpt lat="45.8229819993854" lon="9.509280303019372"><ele>482.0</ele><time>2026-04-27T13:10:12.999Z</time></trkpt><trkpt lat="45.82307174877444" lon="9.509197942080828"><ele>482.0</ele><time>2026-04-27T13:10:13.999Z</time></trkpt><trkpt lat="45.82315867642746" lon="9.509138215461704"><ele>482.0</ele><time>2026-04-27T13:10:14.999Z</time></trkpt><trkpt lat="45.82326084534883" lon="9.509097721499371"><ele>482.00000000000006</ele><time>2026-04-27T13:10:15.999Z</time></trkpt><trkpt lat="45.82336188972268" lon="9.509080983163658"><ele>482.00000000000006</ele><time>2026-04-27T13:10:16.999Z</time></trkpt><trkpt lat="45.82345369924386" lon="9.50910724737657"><ele>482.0</ele><time>2026-04-27T13:10:18.999Z</time></trkpt><trkpt lat="45.82343909975" lon="9.509220023412643"><ele>482.0</ele><time>2026-04-27T13:10:20.999Z</time></trkpt><trkpt lat="45.823394787489676" lon="9.509294989192721"><ele>482.0</ele><time>2026-04-27T13:10:21.999Z</time></trkpt><trkpt lat="45.82328146535979" lon="9.509306946216554"><ele>482.0</ele><time>2026-04-27T13:10:22.999Z</time></trkpt><trkpt lat="45.82316969130328" lon="9.509375548420278"><ele>482.0</ele><time>2026-04-27T13:10:23.999Z</time></trkpt><trkpt lat="45.823052388226564" lon="9.50944863149551"><ele>482.0</ele><time>2026-04-27T13:10:24.999Z</time></trkpt><trkpt lat="45.822963191676884" lon="9.509551098241584"><ele>478.5</ele><time>2026-04-27T13:10:25.999Z</time></trkpt><trkpt lat="45.82290285451127" lon="9.509702891526395"><ele>475.0</ele><time>2026-04-27T13:10:26.999Z</time></trkpt><trkpt lat="45.822883613843096" lon="9.50991159073429"><ele>471.5</ele><time>2026-04-27T13:10:27.999Z</time></trkpt><trkpt lat="45.82283406814869" lon="9.510083660303742"><ele>468.0</ele><time>2026-04-27T13:10:28.999Z</time></trkpt><trkpt lat="45.82278124124977" lon="9.510240035035162"><ele>468.0</ele><time>2026-04-27T13:10:29.999Z</time></trkpt><trkpt lat="45.822691016019334" lon="9.510369935889637"><ele>468.0</ele><time>2026-04-27T13:10:30.999Z</time></trkpt><trkpt lat="45.822587399732576" lon="9.510487678991263"><ele>468.0</ele><time>2026-04-27T13:10:31.999Z</time></trkpt><trkpt lat="45.82250257520607" lon="9.51057920429236"><ele>468.0</ele><time>2026-04-27T13:10:32.999Z</time></trkpt><trkpt lat="45.82240106265128" lon="9.5107007464575"><ele>466.75</ele><time>2026-04-27T13:10:33.999Z</time></trkpt><trkpt lat="45.82228931072458" lon="9.510831721632137"><ele>465.5</ele><time>2026-04-27T13:10:34.999Z</time></trkpt><trkpt lat="45.82217697576155" lon="9.510969004632697"><ele>464.25</ele><time>2026-04-27T13:10:35.999Z</time></trkpt><trkpt lat="45.82207663176757" lon="9.511100057865027"><ele>463.0</ele><time>2026-04-27T13:10:36.999Z</time></trkpt><trkpt lat="45.82198154101053" lon="9.51123150045094"><ele>464.5</ele><time>2026-04-27T13:10:37.999Z</time></trkpt><trkpt lat="45.82189212127686" lon="9.5113503038074"><ele>466.0</ele><time>2026-04-27T13:10:38.999Z</time></trkpt><trkpt lat="45.821812433487814" lon="9.511445564042448"><ele>467.5</ele><time>2026-04-27T13:10:39.999Z</time></trkpt><trkpt lat="45.82170563121516" lon="9.511566367852623"><ele>469.0</ele><time>2026-04-27T13:10:40.999Z</time></trkpt><trkpt lat="45.82160110813255" lon="9.511702542059437"><ele>466.25</ele><time>2026-04-27T13:10:41.999Z</time></trkpt><trkpt lat="45.82148731063224" lon="9.511847029068296"><ele>463.5</ele><time>2026-04-27T13:10:42.999Z</time></trkpt><trkpt lat="45.82137546252825" lon="9.511971073463434"><ele>460.75</ele><time>2026-04-27T13:10:43.999Z</time></trkpt><trkpt lat="45.82127792188212" lon="9.512076875714975"><ele>458.0</ele><time>2026-04-27T13:10:44.999Z</time></trkpt><trkpt lat="45.82115494540297" lon="9.51219259899848"><ele>458.0</ele><time>2026-04-27T13:10:45.999Z</time></trkpt><trkpt lat="45.821035721446165" lon="9.512287649559596"><ele>458.0</ele><time>2026-04-27T13:10:46.999Z</time></trkpt><trkpt lat="45.820916859291934" lon="9.512360663109071"><ele>458.0</ele><time>2026-04-27T13:10:47.999Z</time></trkpt><trkpt lat="45.82081392378452" lon="9.51244369924298"><ele>458.0</ele><time>2026-04-27T13:10:48.999Z</time></trkpt><trkpt lat="45.8207287161317" lon="9.51255012010266"><ele>459.0</ele><time>2026-04-27T13:10:49.999Z</time></trkpt><trkpt lat="45.82066984582025" lon="9.512697452150912"><ele>460.0</ele><time>2026-04-27T13:10:50.999Z</time></trkpt><trkpt lat="45.820658194800004" lon="9.512925309106267"><ele>461.0</ele><time>2026-04-27T13:10:51.999Z</time></trkpt><trkpt lat="45.820646650993815" lon="9.513105437497915"><ele>462.0</ele><time>2026-04-27T13:10:52.999Z</time></trkpt><trkpt lat="45.82061430724528" lon="9.513261825981093"><ele>460.40000000000003</ele><time>2026-04-27T13:10:53.999Z</time></trkpt><trkpt lat="45.82057600836197" lon="9.513408747205272"><ele>458.80000000000007</ele><time>2026-04-27T13:10:54.999Z</time></trkpt><trkpt lat="45.82052037228773" lon="9.513529267435539"><ele>457.2</ele><time>2026-04-27T13:10:55.999Z</time></trkpt><trkpt lat="45.82045174179843" lon="9.51361463839141"><ele>455.6</ele><time>2026-04-27T13:10:56.999Z</time></trkpt><trkpt lat="45.820366860741636" lon="9.513688211640414"><ele>454.0</ele><time>2026-04-27T13:10:57.999Z</time></trkpt><trkpt lat="45.82027460254559" lon="9.513770459293594"><ele>454.0</ele><time>2026-04-27T13:10:58.999Z</time></trkpt><trkpt lat="45.82019902943805" lon="9.513877394098028"><ele>454.0</ele><time>2026-04-27T13:10:59.999Z</time></trkpt><trkpt lat="45.82014086437687" lon="9.514004886110303"><ele>454.0</ele><time>2026-04-27T13:11:00.999Z</time></trkpt><trkpt lat="45.82010062064187" lon="9.514159730594894"><ele>454.0</ele><time>2026-04-27T13:11:01.999Z</time></trkpt><trkpt lat="45.82005922845598" lon="9.51430816667721"><ele>454.0</ele><time>2026-04-27T13:11:02.999Z</time></trkpt><trkpt lat="45.8200063762304" lon="9.514455713940265"><ele>451.79999999999995</ele><time>2026-04-27T13:11:03.999Z</time></trkpt><trkpt lat="45.81995368434085" lon="9.514593935681424"><ele>449.59999999999997</ele><time>2026-04-27T13:11:04.999Z</time></trkpt><trkpt lat="45.8199445823746" lon="9.51473921489336"><ele>447.4</ele><time>2026-04-27T13:11:05.999Z</time></trkpt><trkpt lat="45.81991667753928" lon="9.514833881435658"><ele>445.2</ele><time>2026-04-27T13:11:06.999Z</time></trkpt><trkpt lat="45.81994096315146" lon="9.514949785771895"><ele>443.0</ele><time>2026-04-27T13:11:07.999Z</time></trkpt><trkpt lat="45.819898468138064" lon="9.515091332218017"><ele>443.0</ele><time>2026-04-27T13:11:08.999Z</time></trkpt><trkpt lat="45.81989227846331" lon="9.51522988894021"><ele>442.99999999999994</ele><time>2026-04-27T13:11:09.999Z</time></trkpt><trkpt lat="45.81986918833487" lon="9.515353213079491"><ele>442.99999999999994</ele><time>2026-04-27T13:11:10.999Z</time></trkpt><trkpt lat="45.81983910020197" lon="9.515481407076368"><ele>443.0</ele><time>2026-04-27T13:11:11.999Z</time></trkpt><trkpt lat="45.819841560923805" lon="9.515581957266171"><ele>443.0</ele><time>2026-04-27T13:11:23.999Z</time></trkpt><trkpt lat="45.81989237812372" lon="9.515384279352551"><ele>443.0</ele><time>2026-04-27T13:11:30.999Z</time></trkpt><trkpt lat="45.81994173395585" lon="9.515255177310184"><ele>442.99999999999994</ele><time>2026-04-27T13:11:31.999Z</time></trkpt><trkpt lat="45.81996877360404" lon="9.51510733029951"><ele>442.99999999999994</ele><time>2026-04-27T13:11:32.999Z</time></trkpt><trkpt lat="45.82000311869902" lon="9.51494666988801"><ele>443.0</ele><time>2026-04-27T13:11:33.999Z</time></trkpt><trkpt lat="45.82003231024982" lon="9.514785029867765"><ele>443.0</ele><time>2026-04-27T13:11:34.999Z</time></trkpt><trkpt lat="45.82006327581192" lon="9.514650978619636"><ele>443.79999999999995</ele><time>2026-04-27T13:11:35.999Z</time></trkpt><trkpt lat="45.82007956574164" lon="9.51451803871007"><ele>444.59999999999997</ele><time>2026-04-27T13:11:36.999Z</time></trkpt><trkpt lat="45.82009759426463" lon="9.51438526583094"><ele>445.40000000000003</ele><time>2026-04-27T13:11:37.999Z</time></trkpt><trkpt lat="45.82012370474919" lon="9.514232135162615"><ele>446.20000000000005</ele><time>2026-04-27T13:11:38.999Z</time></trkpt><trkpt lat="45.82016754259666" lon="9.514076299009755"><ele>447.0</ele><time>2026-04-27T13:11:39.999Z</time></trkpt><trkpt lat="45.820214556637914" lon="9.513961705044506"><ele>448.25</ele><time>2026-04-27T13:11:40.999Z</time></trkpt><trkpt lat="45.82027579380209" lon="9.513841617862749"><ele>449.5</ele><time>2026-04-27T13:11:41.999Z</time></trkpt><trkpt lat="45.82036092494728" lon="9.513722585760666"><ele>450.75</ele><time>2026-04-27T13:11:42.999Z</time></trkpt><trkpt lat="45.82046236622315" lon="9.513620098924877"><ele>452.0</ele><time>2026-04-27T13:11:43.999Z</time></trkpt><trkpt lat="45.820568601785695" lon="9.513527488374226"><ele>452.0</ele><time>2026-04-27T13:11:44.999Z</time></trkpt><trkpt lat="45.820663967997966" lon="9.513425256726297"><ele>452.0</ele><time>2026-04-27T13:11:45.999Z</time></trkpt><trkpt lat="45.82071313719287" lon="9.513244272663478"><ele>452.0</ele><time>2026-04-27T13:11:46.999Z</time></trkpt><trkpt lat="45.8207349625299" lon="9.513033154350257"><ele>452.0</ele><time>2026-04-27T13:11:47.999Z</time></trkpt><trkpt lat="45.82075337903243" lon="9.512832541622059"><ele>453.5</ele><time>2026-04-27T13:11:48.999Z</time></trkpt><trkpt lat="45.82077879143119" lon="9.512660631295867"><ele>455.0</ele><time>2026-04-27T13:11:49.999Z</time></trkpt><trkpt lat="45.8208251746331" lon="9.512512855940754"><ele>456.5</ele><time>2026-04-27T13:11:50.999Z</time></trkpt><trkpt lat="45.82090509348989" lon="9.51240221014461"><ele>458.0</ele><time>2026-04-27T13:11:51.999Z</time></trkpt><trkpt lat="45.82101352727702" lon="9.51230824030988"><ele>458.0</ele><time>2026-04-27T13:11:52.999Z</time></trkpt><trkpt lat="45.82112809400315" lon="9.512240661087114"><ele>458.0</ele><time>2026-04-27T13:11:53.999Z</time></trkpt><trkpt lat="45.82123370575792" lon="9.512181563143965"><ele>458.0</ele><time>2026-04-27T13:11:54.999Z</time></trkpt><trkpt lat="45.821344051838366" lon="9.512092758889183"><ele>458.0</ele><time>2026-04-27T13:11:55.999Z</time></trkpt><trkpt lat="45.821454994833886" lon="9.511992400890835"><ele>457.66666666666663</ele><time>2026-04-27T13:11:56.999Z</time></trkpt><trkpt lat="45.821571367468124" lon="9.511841787893891"><ele>457.33333333333337</ele><time>2026-04-27T13:11:57.999Z</time></trkpt><trkpt lat="45.82169871260646" lon="9.51168376472609"><ele>457.0</ele><time>2026-04-27T13:11:58.999Z</time></trkpt><trkpt lat="45.82183097387234" lon="9.511521952314588"><ele>458.5</ele><time>2026-04-27T13:11:59.999Z</time></trkpt><trkpt lat="45.821951395070734" lon="9.511370171609302"><ele>460.0</ele><time>2026-04-27T13:12:00.999Z</time></trkpt><trkpt lat="45.822061137624324" lon="9.511227202889044"><ele>461.5</ele><time>2026-04-27T13:12:01.999Z</time></trkpt><trkpt lat="45.82215659917274" lon="9.511099178624859"><ele>463.0</ele><time>2026-04-27T13:12:02.999Z</time></trkpt><trkpt lat="45.82223070601984" lon="9.51100621265228"><ele>463.00000000000006</ele><time>2026-04-27T13:12:03.999Z</time></trkpt><trkpt lat="45.822296090492614" lon="9.5109445072463"><ele>463.0</ele><time>2026-04-27T13:12:04.999Z</time></trkpt><trkpt lat="45.82236876235278" lon="9.510901092205506"><ele>463.0</ele><time>2026-04-27T13:12:05.999Z</time></trkpt><trkpt lat="45.82244246803295" lon="9.510854297700492"><ele>463.0</ele><time>2026-04-27T13:12:06.999Z</time></trkpt><trkpt lat="45.82252399411325" lon="9.510783859856529"><ele>463.00000000000006</ele><time>2026-04-27T13:12:07.999Z</time></trkpt><trkpt lat="45.82258966077725" lon="9.510745167934727"><ele>463.0</ele><time>2026-04-27T13:12:08.999Z</time></trkpt><trkpt lat="45.822668306950355" lon="9.51074219169303"><ele>465.83333333333337</ele><time>2026-04-27T13:12:09.999Z</time></trkpt><trkpt lat="45.82275478302456" lon="9.510767708364328"><ele>468.6666666666667</ele><time>2026-04-27T13:12:10.999Z</time></trkpt><trkpt lat="45.82282557947213" lon="9.51082266196385"><ele>471.5</ele><time>2026-04-27T13:12:11.999Z</time></trkpt><trkpt lat="45.822887861082336" lon="9.510853536766469"><ele>474.33333333333337</ele><time>2026-04-27T13:12:12.999Z</time></trkpt><trkpt lat="45.82296981564667" lon="9.510865523683652"><ele>477.1666666666667</ele><time>2026-04-27T13:12:13.999Z</time></trkpt><trkpt lat="45.823073107090295" lon="9.510842427985082"><ele>480.0</ele><time>2026-04-27T13:12:14.999Z</time></trkpt><trkpt lat="45.82315671386775" lon="9.510796806802976"><ele>480.0</ele><time>2026-04-27T13:12:15.999Z</time></trkpt><trkpt lat="45.823284202437435" lon="9.510705839412369"><ele>480.0</ele><time>2026-04-27T13:12:16.999Z</time></trkpt><trkpt lat="45.82334473432283" lon="9.510634646583725"><ele>480.0</ele><time>2026-04-27T13:12:17.999Z</time></trkpt><trkpt lat="45.823414273245" lon="9.510535661904866"><ele>480.0</ele><time>2026-04-27T13:12:18.999Z</time></trkpt><trkpt lat="45.823509337946625" lon="9.510325467502094"><ele>482.6</ele><time>2026-04-27T13:12:19.999Z</time></trkpt><trkpt lat="45.823591738975004" lon="9.510137572439131"><ele>485.2</ele><time>2026-04-27T13:12:20.999Z</time></trkpt><trkpt lat="45.823660227777566" lon="9.510007818563412"><ele>487.79999999999995</ele><time>2026-04-27T13:12:21.999Z</time></trkpt><trkpt lat="45.8236955297121" lon="9.509887032425427"><ele>490.4</ele><time>2026-04-27T13:12:22.999Z</time></trkpt><trkpt lat="45.82374437314382" lon="9.509801512107634"><ele>493.0</ele><time>2026-04-27T13:12:24.999Z</time></trkpt><trkpt lat="45.82380938735081" lon="9.509916965404297"><ele>493.0</ele><time>2026-04-27T13:12:27.999Z</time></trkpt><trkpt lat="45.82379823881948" lon="9.510052070855684"><ele>492.99999999999994</ele><time>2026-04-27T13:12:28.999Z</time></trkpt><trkpt lat="45.82378075108451" lon="9.510197922276777"><ele>492.99999999999994</ele><time>2026-04-27T13:12:29.999Z</time></trkpt><trkpt lat="45.82376979857423" lon="9.510351466780875"><ele>493.0</ele><time>2026-04-27T13:12:30.999Z</time></trkpt><trkpt lat="45.82373619885244" lon="9.510518382875162"><ele>493.0</ele><time>2026-04-27T13:12:31.999Z</time></trkpt><trkpt lat="45.82366789152969" lon="9.51069202014869"><ele>495.25</ele><time>2026-04-27T13:12:32.999Z</time></trkpt><trkpt lat="45.82360373568609" lon="9.510861698322314"><ele>497.5</ele><time>2026-04-27T13:12:33.999Z</time></trkpt><trkpt lat="45.823538665999834" lon="9.511036621630499"><ele>499.75</ele><time>2026-04-27T13:12:34.999Z</time></trkpt><trkpt lat="45.82344883385662" lon="9.511161389900268"><ele>502.0</ele><time>2026-04-27T13:12:35.999Z</time></trkpt><trkpt lat="45.823388668740165" lon="9.511243219767028"><ele>502.0</ele><time>2026-04-27T13:12:36.999Z</time></trkpt><trkpt lat="45.823329304076545" lon="9.511337974568423"><ele>502.00000000000006</ele><time>2026-04-27T13:12:37.999Z</time></trkpt><trkpt lat="45.823248068466974" lon="9.51143505509179"><ele>502.00000000000006</ele><time>2026-04-27T13:12:38.999Z</time></trkpt><trkpt lat="45.823202838510795" lon="9.511583210864046"><ele>502.0</ele><time>2026-04-27T13:12:39.999Z</time></trkpt><trkpt lat="45.823171875851955" lon="9.511708840883939"><ele>502.0</ele><time>2026-04-27T13:12:40.999Z</time></trkpt><trkpt lat="45.8231431733489" lon="9.511805253991882"><ele>502.0</ele><time>2026-04-27T13:12:41.999Z</time></trkpt><trkpt lat="45.82318600564396" lon="9.511935323261666"><ele>502.00000000000006</ele><time>2026-04-27T13:12:43.999Z</time></trkpt><trkpt lat="45.823257877136385" lon="9.511994135324349"><ele>502.00000000000006</ele><time>2026-04-27T13:12:44.999Z</time></trkpt><trkpt lat="45.82335348291807" lon="9.512030476647833"><ele>502.0</ele><time>2026-04-27T13:12:45.999Z</time></trkpt><trkpt lat="45.82346712256232" lon="9.512052078084634"><ele>502.0</ele><time>2026-04-27T13:12:46.999Z</time></trkpt><trkpt lat="45.82358672930604" lon="9.512066299729632"><ele>501.8</ele><time>2026-04-27T13:12:47.999Z</time></trkpt><trkpt lat="45.82370051544515" lon="9.512052302682903"><ele>501.6</ele><time>2026-04-27T13:12:48.999Z</time></trkpt><trkpt lat="45.823795813093405" lon="9.512063771624847"><ele>501.40000000000003</ele><time>2026-04-27T13:12:49.999Z</time></trkpt><trkpt lat="45.82387371557157" lon="9.512093104819897"><ele>501.20000000000005</ele><time>2026-04-27T13:12:50.999Z</time></trkpt><trkpt lat="45.82397545653691" lon="9.512097337595844"><ele>501.0</ele><time>2026-04-27T13:12:51.999Z</time></trkpt><trkpt lat="45.824083660739994" lon="9.512098508809194"><ele>501.0</ele><time>2026-04-27T13:12:52.999Z</time></trkpt><trkpt lat="45.82423178697361" lon="9.512094554754347"><ele>501.0</ele><time>2026-04-27T13:12:53.999Z</time></trkpt><trkpt lat="45.824363824167264" lon="9.512044928276921"><ele>501.0</ele><time>2026-04-27T13:12:54.999Z</time></trkpt><trkpt lat="45.82443860403094" lon="9.512080963999447"><ele>501.0</ele><time>2026-04-27T13:12:55.999Z</time></trkpt><trkpt lat="45.8245226069726" lon="9.512070237862089"><ele>501.0</ele><time>2026-04-27T13:12:57.999Z</time></trkpt><trkpt lat="45.82451853130947" lon="9.511918285640547"><ele>505.8</ele><time>2026-04-27T13:12:59.999Z</time></trkpt><trkpt lat="45.824442393582814" lon="9.511850613089392"><ele>510.6</ele><time>2026-04-27T13:13:00.999Z</time></trkpt><trkpt lat="45.82433000144547" lon="9.511869695824387"><ele>515.4</ele><time>2026-04-27T13:13:01.999Z</time></trkpt><trkpt lat="45.824232384299044" lon="9.5118363626948"><ele>520.2</ele><time>2026-04-27T13:13:02.999Z</time></trkpt><trkpt lat="45.82412692372319" lon="9.511814769481866"><ele>525.0</ele><time>2026-04-27T13:13:03.999Z</time></trkpt><trkpt lat="45.82405591214019" lon="9.511790133849848"><ele>525.0</ele><time>2026-04-27T13:13:04.999Z</time></trkpt><trkpt lat="45.82399971061527" lon="9.511738687309613"><ele>525.0</ele><time>2026-04-27T13:13:05.999Z</time></trkpt><trkpt lat="45.8239792430841" lon="9.511623535242775"><ele>525.0</ele><time>2026-04-27T13:13:07.999Z</time></trkpt><trkpt lat="45.82404937479758" lon="9.511472313856222"><ele>525.0</ele><time>2026-04-27T13:13:09.999Z</time></trkpt><trkpt lat="45.8241298241148" lon="9.511343308209161"><ele>525.0</ele><time>2026-04-27T13:13:10.999Z</time></trkpt><trkpt lat="45.82420395326104" lon="9.511262301602107"><ele>530.25</ele><time>2026-04-27T13:13:11.999Z</time></trkpt><trkpt lat="45.824345956091925" lon="9.511175424980983"><ele>535.5</ele><time>2026-04-27T13:13:12.999Z</time></trkpt><trkpt lat="45.824475782361176" lon="9.511117562102308"><ele>540.75</ele><time>2026-04-27T13:13:13.999Z</time></trkpt><trkpt lat="45.82459945613375" lon="9.511062115156133"><ele>546.0</ele><time>2026-04-27T13:13:14.999Z</time></trkpt><trkpt lat="45.82471337693978" lon="9.511075730240037"><ele>546.0</ele><time>2026-04-27T13:13:15.999Z</time></trkpt><trkpt lat="45.824800680004465" lon="9.511092575440793"><ele>546.0</ele><time>2026-04-27T13:13:16.999Z</time></trkpt><trkpt lat="45.82491959801559" lon="9.511155159257882"><ele>546.0</ele><time>2026-04-27T13:13:17.999Z</time></trkpt><trkpt lat="45.82505375197827" lon="9.511231438750988"><ele>546.0</ele><time>2026-04-27T13:13:18.999Z</time></trkpt><trkpt lat="45.82516990356877" lon="9.511291230751393"><ele>548.25</ele><time>2026-04-27T13:13:19.999Z</time></trkpt><trkpt lat="45.82527406135815" lon="9.511367053665937"><ele>550.5</ele><time>2026-04-27T13:13:20.999Z</time></trkpt><trkpt lat="45.82536564700299" lon="9.51145485061507"><ele>552.75</ele><time>2026-04-27T13:13:21.999Z</time></trkpt><trkpt lat="45.82546883082576" lon="9.511517489090195"><ele>555.0</ele><time>2026-04-27T13:13:22.999Z</time></trkpt><trkpt lat="45.825583453339235" lon="9.511519444164168"><ele>555.0</ele><time>2026-04-27T13:13:23.999Z</time></trkpt><trkpt lat="45.82570265180292" lon="9.511483884642109"><ele>555.0</ele><time>2026-04-27T13:13:24.999Z</time></trkpt><trkpt lat="45.82582229911905" lon="9.511462906029923"><ele>555.0</ele><time>2026-04-27T13:13:25.999Z</time></trkpt><trkpt lat="45.8259490086462" lon="9.511409087179613"><ele>555.0</ele><time>2026-04-27T13:13:26.999Z</time></trkpt><trkpt lat="45.82607313006154" lon="9.511374572763021"><ele>557.25</ele><time>2026-04-27T13:13:27.999Z</time></trkpt><trkpt lat="45.826189858547124" lon="9.511345445891887"><ele>559.5</ele><time>2026-04-27T13:13:28.999Z</time></trkpt><trkpt lat="45.826316670037635" lon="9.511316996860602"><ele>561.75</ele><time>2026-04-27T13:13:30Z</time></trkpt><trkpt lat="45.82644021268937" lon="9.51130732952392"><ele>564.0</ele><time>2026-04-27T13:13:31Z</time></trkpt><trkpt lat="45.826573989131724" lon="9.511284166937001"><ele>564.0</ele><time>2026-04-27T13:13:32Z</time></trkpt><trkpt lat="45.82670947237048" lon="9.51124770950779"><ele>564.0</ele><time>2026-04-27T13:13:33Z</time></trkpt><trkpt lat="45.82682135071564" lon="9.511226548419087"><ele>564.0</ele><time>2026-04-27T13:13:34Z</time></trkpt><trkpt lat="45.8269200603299" lon="9.511242623728595"><ele>564.0</ele><time>2026-04-27T13:13:35Z</time></trkpt><trkpt lat="45.827002886296164" lon="9.511304403497219"><ele>564.0</ele><time>2026-04-27T13:13:36Z</time></trkpt><trkpt lat="45.827071767019255" lon="9.511434080400942"><ele>567.8</ele><time>2026-04-27T13:13:37Z</time></trkpt><trkpt lat="45.82713052968431" lon="9.511540969152346"><ele>571.5999999999999</ele><time>2026-04-27T13:13:38Z</time></trkpt><trkpt lat="45.827236991476425" lon="9.511500390314778"><ele>575.4</ele><time>2026-04-27T13:13:40Z</time></trkpt><trkpt lat="45.827277065516" lon="9.511424086222753"><ele>579.1999999999999</ele><time>2026-04-27T13:13:41Z</time></trkpt><trkpt lat="45.827242260448045" lon="9.511262312099175"><ele>583.0</ele><time>2026-04-27T13:13:42Z</time></trkpt><trkpt lat="45.82718028572098" lon="9.511105696156452"><ele>582.5</ele><time>2026-04-27T13:13:43Z</time></trkpt><trkpt lat="45.82710710911616" lon="9.51099053354755"><ele>582.0</ele><time>2026-04-27T13:13:44Z</time></trkpt><trkpt lat="45.82704106356461" lon="9.510863454715448"><ele>581.5</ele><time>2026-04-27T13:13:45Z</time></trkpt><trkpt lat="45.826956322355514" lon="9.510795066339941"><ele>581.0</ele><time>2026-04-27T13:13:46Z</time></trkpt><trkpt lat="45.82680273369649" lon="9.510778948723322"><ele>581.0</ele><time>2026-04-27T13:13:47Z</time></trkpt><trkpt lat="45.8266698689934" lon="9.510792974986845"><ele>581.0</ele><time>2026-04-27T13:13:48Z</time></trkpt><trkpt lat="45.826528279532994" lon="9.510795331467211"><ele>581.0</ele><time>2026-04-27T13:13:49Z</time></trkpt><trkpt lat="45.82641410073119" lon="9.510747912458658"><ele>581.0</ele><time>2026-04-27T13:13:50Z</time></trkpt><trkpt lat="45.82631685427838" lon="9.510682982517565"><ele>581.0</ele><time>2026-04-27T13:13:51Z</time></trkpt><trkpt lat="45.826250465682655" lon="9.51061442313176"><ele>581.0</ele><time>2026-04-27T13:13:52Z</time></trkpt><trkpt lat="45.826174074065975" lon="9.51054470052223"><ele>581.0</ele><time>2026-04-27T13:13:54Z</time></trkpt><trkpt lat="45.826191231473956" lon="9.510394159903223"><ele>581.0</ele><time>2026-04-27T13:13:56Z</time></trkpt><trkpt lat="45.826239852838505" lon="9.510336311522979"><ele>581.0</ele><time>2026-04-27T13:13:57Z</time></trkpt><trkpt lat="45.82631328344011" lon="9.510352845125952"><ele>581.0</ele><time>2026-04-27T13:13:58Z</time></trkpt><trkpt lat="45.82640806269015" lon="9.510405624166232"><ele>581.0</ele><time>2026-04-27T13:13:59Z</time></trkpt><trkpt lat="45.82650512684073" lon="9.510474745883736"><ele>581.0</ele><time>2026-04-27T13:14:00Z</time></trkpt><trkpt lat="45.826671230744715" lon="9.510535221012926"><ele>581.0</ele><time>2026-04-27T13:14:02Z</time></trkpt><trkpt lat="45.826777583357654" lon="9.510511861328748"><ele>581.0</ele><time>2026-04-27T13:14:03Z</time></trkpt><trkpt lat="45.82688868030027" lon="9.510433668436734"><ele>587.0</ele><time>2026-04-27T13:14:04Z</time></trkpt><trkpt lat="45.82700540429424" lon="9.510321132452082"><ele>593.0</ele><time>2026-04-27T13:14:05Z</time></trkpt><trkpt lat="45.82709513191708" lon="9.510206203257075"><ele>599.0</ele><time>2026-04-27T13:14:06Z</time></trkpt><trkpt lat="45.827182645688566" lon="9.51012446592287"><ele>605.0</ele><time>2026-04-27T13:14:07Z</time></trkpt><trkpt lat="45.82728016044837" lon="9.510066647107708"><ele>605.0</ele><time>2026-04-27T13:14:08Z</time></trkpt><trkpt lat="45.8273988133518" lon="9.510098897598487"><ele>605.0</ele><time>2026-04-27T13:14:09Z</time></trkpt><trkpt lat="45.82750582467307" lon="9.51018876378535"><ele>605.0</ele><time>2026-04-27T13:14:10Z</time></trkpt><trkpt lat="45.827607808637026" lon="9.510303129837864"><ele>605.0</ele><time>2026-04-27T13:14:11Z</time></trkpt><trkpt lat="45.82769925814737" lon="9.510454698591436"><ele>612.25</ele><time>2026-04-27T13:14:12Z</time></trkpt><trkpt lat="45.827797798653286" lon="9.510594404363399"><ele>619.5</ele><time>2026-04-27T13:14:13Z</time></trkpt><trkpt lat="45.827889981347795" lon="9.510705633899853"><ele>626.75</ele><time>2026-04-27T13:14:14Z</time></trkpt><trkpt lat="45.827994109408934" lon="9.510804202065978"><ele>634.0</ele><time>2026-04-27T13:14:15Z</time></trkpt><trkpt lat="45.82807207885123" lon="9.510923688195346"><ele>634.0</ele><time>2026-04-27T13:14:16Z</time></trkpt><trkpt lat="45.82808902702187" lon="9.511071417496325"><ele>634.0</ele><time>2026-04-27T13:14:17Z</time></trkpt><trkpt lat="45.8281194222597" lon="9.511241619918911"><ele>634.0</ele><time>2026-04-27T13:14:18Z</time></trkpt><trkpt lat="45.82818556552614" lon="9.511425287072225"><ele>634.0</ele><time>2026-04-27T13:14:19Z</time></trkpt><trkpt lat="45.82822396041374" lon="9.511630470769157"><ele>635.0</ele><time>2026-04-27T13:14:20Z</time></trkpt><trkpt lat="45.82831687728236" lon="9.511811412180938"><ele>636.0</ele><time>2026-04-27T13:14:21Z</time></trkpt><trkpt lat="45.82837574420037" lon="9.511924638971273"><ele>637.0</ele><time>2026-04-27T13:14:22Z</time></trkpt><trkpt lat="45.828459724513" lon="9.51197305124346"><ele>638.0</ele><time>2026-04-27T13:14:23Z</time></trkpt><trkpt lat="45.82855504855052" lon="9.512021864207737"><ele>639.0</ele><time>2026-04-27T13:14:24Z</time></trkpt><trkpt lat="45.82865044926283" lon="9.511968728677147"><ele>639.0</ele><time>2026-04-27T13:14:25Z</time></trkpt><trkpt lat="45.82873059144232" lon="9.511851862092763"><ele>639.0</ele><time>2026-04-27T13:14:26Z</time></trkpt><trkpt lat="45.82882996146481" lon="9.511775268616551"><ele>639.0</ele><time>2026-04-27T13:14:27Z</time></trkpt><trkpt lat="45.82893900196756" lon="9.511747332945722"><ele>639.0</ele><time>2026-04-27T13:14:28Z</time></trkpt><trkpt lat="45.829045255074746" lon="9.511782733748852"><ele>639.0</ele><time>2026-04-27T13:14:29Z</time></trkpt><trkpt lat="45.829159102922205" lon="9.51181981584338"><ele>639.0</ele><time>2026-04-27T13:14:30Z</time></trkpt><trkpt lat="45.82927663941739" lon="9.511912874961526"><ele>639.0</ele><time>2026-04-27T13:14:31Z</time></trkpt><trkpt lat="45.82939960670782" lon="9.511954406599726"><ele>639.0</ele><time>2026-04-27T13:14:32Z</time></trkpt><trkpt lat="45.829522977721474" lon="9.511954395978124"><ele>639.0</ele><time>2026-04-27T13:14:33Z</time></trkpt><trkpt lat="45.82961473759917" lon="9.511981931222332"><ele>640.8</ele><time>2026-04-27T13:14:34Z</time></trkpt><trkpt lat="45.82968575849052" lon="9.512055832007865"><ele>642.5999999999999</ele><time>2026-04-27T13:14:35Z</time></trkpt><trkpt lat="45.8297351895113" lon="9.512169464640323"><ele>644.4</ele><time>2026-04-27T13:14:36Z</time></trkpt><trkpt lat="45.82979811558681" lon="9.512305418881411"><ele>646.1999999999999</ele><time>2026-04-27T13:14:37Z</time></trkpt><trkpt lat="45.82987781702817" lon="9.512434251484446"><ele>648.0</ele><time>2026-04-27T13:14:38Z</time></trkpt><trkpt lat="45.829948782263955" lon="9.512627168202233"><ele>648.0</ele><time>2026-04-27T13:14:39Z</time></trkpt><trkpt lat="45.83002410242341" lon="9.512768168173514"><ele>648.0</ele><time>2026-04-27T13:14:39.999Z</time></trkpt><trkpt lat="45.83008807351694" lon="9.512881699000689"><ele>648.0</ele><time>2026-04-27T13:14:40.999Z</time></trkpt><trkpt lat="45.8302172105913" lon="9.512951108201886"><ele>648.0</ele><time>2026-04-27T13:14:42.999Z</time></trkpt><trkpt lat="45.83031015674582" lon="9.51299086230997"><ele>650.0</ele><time>2026-04-27T13:14:43.999Z</time></trkpt><trkpt lat="45.83038666474854" lon="9.513073388008728"><ele>652.0</ele><time>2026-04-27T13:14:44.999Z</time></trkpt><trkpt lat="45.830443929862945" lon="9.513178912525774"><ele>654.0</ele><time>2026-04-27T13:14:45.999Z</time></trkpt><trkpt lat="45.83048137949713" lon="9.513339385121247"><ele>656.0</ele><time>2026-04-27T13:14:46.999Z</time></trkpt><trkpt lat="45.83050732524329" lon="9.513510246471776"><ele>658.0</ele><time>2026-04-27T13:14:47.999Z</time></trkpt><trkpt lat="45.830509721372884" lon="9.513655289072886"><ele>658.0</ele><time>2026-04-27T13:14:48.999Z</time></trkpt><trkpt lat="45.8305204590855" lon="9.513766024805479"><ele>658.0</ele><time>2026-04-27T13:14:49.999Z</time></trkpt><trkpt lat="45.83069951218287" lon="9.51366210417924"><ele>658.0</ele><time>2026-04-27T13:14:56.999Z</time></trkpt><trkpt lat="45.83075699118985" lon="9.513533956402679"><ele>658.0</ele><time>2026-04-27T13:14:57.999Z</time></trkpt><trkpt lat="45.83081893356991" lon="9.513409668441383"><ele>658.0</ele><time>2026-04-27T13:14:58.999Z</time></trkpt><trkpt lat="45.83088849466785" lon="9.51328817540939"><ele>658.0</ele><time>2026-04-27T13:14:59.999Z</time></trkpt><trkpt lat="45.83094504925553" lon="9.513175722545355"><ele>658.0</ele><time>2026-04-27T13:15:00.999Z</time></trkpt><trkpt lat="45.83098471025016" lon="9.513068088729398"><ele>658.0</ele><time>2026-04-27T13:15:01.999Z</time></trkpt><trkpt lat="45.831045812648476" lon="9.512968022969442"><ele>658.0</ele><time>2026-04-27T13:15:02.999Z</time></trkpt><trkpt lat="45.8311024899286" lon="9.5128619778206"><ele>657.4</ele><time>2026-04-27T13:15:03.999Z</time></trkpt><trkpt lat="45.83115213502588" lon="9.51276132830605"><ele>656.8</ele><time>2026-04-27T13:15:05Z</time></trkpt><trkpt lat="45.83118575348865" lon="9.512639483607206"><ele>656.2</ele><time>2026-04-27T13:15:06Z</time></trkpt><trkpt lat="45.831218884649815" lon="9.512522246475916"><ele>655.6</ele><time>2026-04-27T13:15:07Z</time></trkpt><trkpt lat="45.831237203884605" lon="9.512409709897081"><ele>655.0</ele><time>2026-04-27T13:15:08Z</time></trkpt><trkpt lat="45.83126018890038" lon="9.51226321534899"><ele>655.0</ele><time>2026-04-27T13:15:09Z</time></trkpt><trkpt lat="45.831294536851196" lon="9.51212325059343"><ele>655.0</ele><time>2026-04-27T13:15:10Z</time></trkpt><trkpt lat="45.83132692581666" lon="9.511974579262935"><ele>655.0</ele><time>2026-04-27T13:15:11Z</time></trkpt><trkpt lat="45.831365060912816" lon="9.51181873324824"><ele>655.0</ele><time>2026-04-27T13:15:12Z</time></trkpt><trkpt lat="45.83140361942192" lon="9.511689267888963"><ele>655.0</ele><time>2026-04-27T13:15:13Z</time></trkpt><trkpt lat="45.83142658102267" lon="9.511561014216625"><ele>656.3333333333334</ele><time>2026-04-27T13:15:14Z</time></trkpt><trkpt lat="45.8314282514429" lon="9.511467793886705"><ele>657.6666666666667</ele><time>2026-04-27T13:15:15Z</time></trkpt><trkpt lat="45.83143434706615" lon="9.511262377672193"><ele>659.0</ele><time>2026-04-27T13:15:17Z</time></trkpt><trkpt lat="45.83143344484103" lon="9.511155185228606"><ele>660.3333333333334</ele><time>2026-04-27T13:15:18Z</time></trkpt><trkpt lat="45.83148203947276" lon="9.51106451881107"><ele>661.6666666666666</ele><time>2026-04-27T13:15:19Z</time></trkpt><trkpt lat="45.831537318325985" lon="9.51101677813061"><ele>663.0</ele><time>2026-04-27T13:15:20Z</time></trkpt><trkpt lat="45.831565104609965" lon="9.510935499573671"><ele>664.5</ele><time>2026-04-27T13:15:21Z</time></trkpt><trkpt lat="45.8316188960447" lon="9.510812215907924"><ele>666.0</ele><time>2026-04-27T13:15:22Z</time></trkpt><trkpt lat="45.83167016429622" lon="9.510653139218142"><ele>667.5</ele><time>2026-04-27T13:15:23Z</time></trkpt><trkpt lat="45.831728310374956" lon="9.510473880941374"><ele>669.0</ele><time>2026-04-27T13:15:24Z</time></trkpt><trkpt lat="45.831771742495135" lon="9.510281495718418"><ele>669.2</ele><time>2026-04-27T13:15:25Z</time></trkpt><trkpt lat="45.831838700241256" lon="9.51014135193855"><ele>669.4000000000001</ele><time>2026-04-27T13:15:26Z</time></trkpt><trkpt lat="45.831875846371204" lon="9.510007802046795"><ele>669.6</ele><time>2026-04-27T13:15:27Z</time></trkpt><trkpt lat="45.831907387851835" lon="9.509887657357591"><ele>669.8</ele><time>2026-04-27T13:15:28Z</time></trkpt><trkpt lat="45.83195274866676" lon="9.509799573234357"><ele>670.0</ele><time>2026-04-27T13:15:29Z</time></trkpt><trkpt lat="45.832075456225" lon="9.509736098090636"><ele>670.0</ele><time>2026-04-27T13:15:31Z</time></trkpt><trkpt lat="45.832179274742906" lon="9.509782212542016"><ele>670.0</ele><time>2026-04-27T13:15:32Z</time></trkpt><trkpt lat="45.83230985959092" lon="9.509805458497762"><ele>670.0</ele><time>2026-04-27T13:15:33Z</time></trkpt><trkpt lat="45.83242574844819" lon="9.509840848809842"><ele>670.0</ele><time>2026-04-27T13:15:34Z</time></trkpt><trkpt lat="45.83255148238659" lon="9.509864463013194"><ele>670.0</ele><time>2026-04-27T13:15:35Z</time></trkpt><trkpt lat="45.83270802399696" lon="9.509859211868756"><ele>670.0</ele><time>2026-04-27T13:15:36Z</time></trkpt><trkpt lat="45.83284338833315" lon="9.50986650206624"><ele>670.0</ele><time>2026-04-27T13:15:37Z</time></trkpt><trkpt lat="45.83299784263761" lon="9.509811026145679"><ele>670.0</ele><time>2026-04-27T13:15:38Z</time></trkpt><trkpt lat="45.8331333452477" lon="9.509775950377184"><ele>670.0</ele><time>2026-04-27T13:15:39Z</time></trkpt><trkpt lat="45.833240953242154" lon="9.509758257870807"><ele>670.0</ele><time>2026-04-27T13:15:40Z</time></trkpt><trkpt lat="45.83332885394074" lon="9.509717012560158"><ele>670.0</ele><time>2026-04-27T13:15:41Z</time></trkpt><trkpt lat="45.833399354131515" lon="9.509648158402557"><ele>670.0</ele><time>2026-04-27T13:15:42Z</time></trkpt><trkpt lat="45.833468964515205" lon="9.509524146813614"><ele>673.6666666666667</ele><time>2026-04-27T13:15:43Z</time></trkpt><trkpt lat="45.83350974363964" lon="9.509395955988103"><ele>677.3333333333334</ele><time>2026-04-27T13:15:44Z</time></trkpt><trkpt lat="45.833566194532374" lon="9.509294141478401"><ele>681.0</ele><time>2026-04-27T13:15:45Z</time></trkpt><trkpt lat="45.83366093922719" lon="9.509274851194355"><ele>684.6666666666666</ele><time>2026-04-27T13:15:46Z</time></trkpt><trkpt lat="45.833724929742296" lon="9.509275383915028"><ele>688.3333333333333</ele><time>2026-04-27T13:15:47Z</time></trkpt><trkpt lat="45.83379884909502" lon="9.509332831088038"><ele>692.0</ele><time>2026-04-27T13:15:48Z</time></trkpt><trkpt lat="45.833849506535095" lon="9.509459083359765"><ele>689.25</ele><time>2026-04-27T13:15:49Z</time></trkpt><trkpt lat="45.833901364337464" lon="9.50957802835633"><ele>686.5</ele><time>2026-04-27T13:15:50Z</time></trkpt><trkpt lat="45.8339679884835" lon="9.509718863709555"><ele>683.75</ele><time>2026-04-27T13:15:51Z</time></trkpt><trkpt lat="45.83405040488745" lon="9.509870490729446"><ele>681.0</ele><time>2026-04-27T13:15:52Z</time></trkpt><trkpt lat="45.834130163639" lon="9.510027957157568"><ele>681.0</ele><time>2026-04-27T13:15:53Z</time></trkpt><trkpt lat="45.834183273987065" lon="9.510163353890226"><ele>681.0</ele><time>2026-04-27T13:15:54Z</time></trkpt><trkpt lat="45.83424512002032" lon="9.510258117842797"><ele>681.0</ele><time>2026-04-27T13:15:55Z</time></trkpt><trkpt lat="45.83433328480154" lon="9.510314820128807"><ele>681.0</ele><time>2026-04-27T13:15:56Z</time></trkpt><trkpt lat="45.83441589271974" lon="9.510355706470575"><ele>681.0</ele><time>2026-04-27T13:15:57Z</time></trkpt><trkpt lat="45.834525695257156" lon="9.510323287369983"><ele>686.0</ele><time>2026-04-27T13:15:58Z</time></trkpt><trkpt lat="45.83464018232385" lon="9.51032389335363"><ele>691.0</ele><time>2026-04-27T13:15:59Z</time></trkpt><trkpt lat="45.83476398096939" lon="9.510360136694663"><ele>696.0</ele><time>2026-04-27T13:16:00Z</time></trkpt><trkpt lat="45.83490547642331" lon="9.510327307129542"><ele>701.0</ele><time>2026-04-27T13:16:01Z</time></trkpt><trkpt lat="45.83499342644494" lon="9.51034516844569"><ele>701.0</ele><time>2026-04-27T13:16:02Z</time></trkpt><trkpt lat="45.83508029203984" lon="9.510365647916311"><ele>701.0</ele><time>2026-04-27T13:16:03Z</time></trkpt><trkpt lat="45.835159316405154" lon="9.5104175584569"><ele>701.0</ele><time>2026-04-27T13:16:04Z</time></trkpt><trkpt lat="45.835195728932355" lon="9.51062882069687"><ele>701.0</ele><time>2026-04-27T13:16:05Z</time></trkpt><trkpt lat="45.83524878450246" lon="9.510730052948372"><ele>701.0</ele><time>2026-04-27T13:16:06Z</time></trkpt><trkpt lat="45.83534108874454" lon="9.51090617330557"><ele>701.5</ele><time>2026-04-27T13:16:07Z</time></trkpt><trkpt lat="45.83542789439561" lon="9.51107180223685"><ele>702.0</ele><time>2026-04-27T13:16:08Z</time></trkpt><trkpt lat="45.83548557232521" lon="9.511209240821117"><ele>702.5</ele><time>2026-04-27T13:16:09Z</time></trkpt><trkpt lat="45.83555294503095" lon="9.5113314450244"><ele>703.0</ele><time>2026-04-27T13:16:10Z</time></trkpt><trkpt lat="45.835718109723565" lon="9.511394962237054"><ele>701.0</ele><time>2026-04-27T13:16:12Z</time></trkpt><trkpt lat="45.83584114164529" lon="9.511412697170085"><ele>699.0</ele><time>2026-04-27T13:16:13Z</time></trkpt><trkpt lat="45.83597566735209" lon="9.5114342667923"><ele>697.0</ele><time>2026-04-27T13:16:14Z</time></trkpt><trkpt lat="45.83607667160519" lon="9.511446787592494"><ele>695.0</ele><time>2026-04-27T13:16:15Z</time></trkpt><trkpt lat="45.836156147017526" lon="9.511482876425893"><ele>693.0</ele><time>2026-04-27T13:16:16Z</time></trkpt><trkpt lat="45.83624597991853" lon="9.511521482892205"><ele>693.0</ele><time>2026-04-27T13:16:17Z</time></trkpt><trkpt lat="45.83632514158835" lon="9.511602672896313"><ele>693.0</ele><time>2026-04-27T13:16:18Z</time></trkpt><trkpt lat="45.83635931058871" lon="9.51173095498797"><ele>693.0</ele><time>2026-04-27T13:16:19Z</time></trkpt><trkpt lat="45.836378497314854" lon="9.51184696917304"><ele>693.0</ele><time>2026-04-27T13:16:20Z</time></trkpt><trkpt lat="45.836411955721765" lon="9.511943831636161"><ele>693.0</ele><time>2026-04-27T13:16:21Z</time></trkpt><trkpt lat="45.83645098062993" lon="9.512041747891303"><ele>693.0</ele><time>2026-04-27T13:16:22Z</time></trkpt><trkpt lat="45.83649609650387" lon="9.512155421850853"><ele>691.6666666666666</ele><time>2026-04-27T13:16:23Z</time></trkpt><trkpt lat="45.8365629548583" lon="9.512267571948653"><ele>690.3333333333334</ele><time>2026-04-27T13:16:24Z</time></trkpt><trkpt lat="45.83664944941507" lon="9.51232643486623"><ele>689.0</ele><time>2026-04-27T13:16:25Z</time></trkpt><trkpt lat="45.83670147564959" lon="9.512387656348155"><ele>687.6666666666667</ele><time>2026-04-27T13:16:26Z</time></trkpt><trkpt lat="45.836772912678306" lon="9.512427375066684"><ele>686.3333333333334</ele><time>2026-04-27T13:16:27Z</time></trkpt><trkpt lat="45.83683431754358" lon="9.512467379970627"><ele>685.0</ele><time>2026-04-27T13:16:28Z</time></trkpt><trkpt lat="45.83690072238754" lon="9.512483789734155"><ele>685.0</ele><time>2026-04-27T13:16:29Z</time></trkpt><trkpt lat="45.83697949853722" lon="9.512449377324865"><ele>685.0</ele><time>2026-04-27T13:16:30Z</time></trkpt><trkpt lat="45.837053392139126" lon="9.512397396512394"><ele>685.0</ele><time>2026-04-27T13:16:31Z</time></trkpt><trkpt lat="45.83713125429502" lon="9.512379883916815"><ele>685.0</ele><time>2026-04-27T13:16:32Z</time></trkpt><trkpt lat="45.83724895953825" lon="9.512341597026388"><ele>685.0</ele><time>2026-04-27T13:16:33Z</time></trkpt><trkpt lat="45.83738379348473" lon="9.512308719700581"><ele>685.0</ele><time>2026-04-27T13:16:34Z</time></trkpt><trkpt lat="45.83750970048924" lon="9.512284326117808"><ele>685.0</ele><time>2026-04-27T13:16:35Z</time></trkpt><trkpt lat="45.837639698967656" lon="9.512287885440161"><ele>685.0</ele><time>2026-04-27T13:16:36Z</time></trkpt><trkpt lat="45.837768778171224" lon="9.512280782617275"><ele>685.0</ele><time>2026-04-27T13:16:37Z</time></trkpt><trkpt lat="45.83788661832841" lon="9.512237632467066"><ele>684.8</ele><time>2026-04-27T13:16:38Z</time></trkpt><trkpt lat="45.83801993992528" lon="9.512205708854161"><ele>684.6</ele><time>2026-04-27T13:16:39Z</time></trkpt><trkpt lat="45.8381281622547" lon="9.51214565896694"><ele>684.4000000000001</ele><time>2026-04-27T13:16:40Z</time></trkpt><trkpt lat="45.838218491993935" lon="9.512093447659392"><ele>684.2</ele><time>2026-04-27T13:16:41Z</time></trkpt><trkpt lat="45.838302879861146" lon="9.512029853017413"><ele>684.0</ele><time>2026-04-27T13:16:42Z</time></trkpt><trkpt lat="45.83836982684035" lon="9.512010734402871"><ele>684.0</ele><time>2026-04-27T13:16:44Z</time></trkpt><trkpt lat="45.838258367909795" lon="9.512002078679737"><ele>684.0</ele><time>2026-04-27T13:16:49.999Z</time></trkpt><trkpt lat="45.83815701818132" lon="9.512098209726089"><ele>684.0</ele><time>2026-04-27T13:16:51.999Z</time></trkpt><trkpt lat="45.83808745913827" lon="9.512103864935584"><ele>684.0</ele><time>2026-04-27T13:16:52.999Z</time></trkpt><trkpt lat="45.83806619493995" lon="9.512008654392858"><ele>684.0</ele><time>2026-04-27T13:16:55.999Z</time></trkpt><trkpt lat="45.838103648171334" lon="9.511818385035017"><ele>684.0</ele><time>2026-04-27T13:16:57.999Z</time></trkpt><trkpt lat="45.838149767375455" lon="9.511685617417651"><ele>684.0</ele><time>2026-04-27T13:16:58.999Z</time></trkpt><trkpt lat="45.838168148415726" lon="9.511540564471286"><ele>684.0</ele><time>2026-04-27T13:16:59.999Z</time></trkpt><trkpt lat="45.8382210645211" lon="9.511377418481342"><ele>684.0</ele><time>2026-04-27T13:17:00.999Z</time></trkpt><trkpt lat="45.83824631543716" lon="9.511190010790548"><ele>685.0</ele><time>2026-04-27T13:17:01.999Z</time></trkpt><trkpt lat="45.83829465826648" lon="9.511029557426053"><ele>686.0</ele><time>2026-04-27T13:17:02.999Z</time></trkpt><trkpt lat="45.838360162630906" lon="9.510890626702924"><ele>687.0</ele><time>2026-04-27T13:17:03.999Z</time></trkpt><trkpt lat="45.838435367460896" lon="9.510783197693899"><ele>688.0</ele><time>2026-04-27T13:17:04.999Z</time></trkpt><trkpt lat="45.83850057218179" lon="9.510693846811625"><ele>689.0</ele><time>2026-04-27T13:17:05.999Z</time></trkpt><trkpt lat="45.83855885326633" lon="9.51060839207287"><ele>689.0</ele><time>2026-04-27T13:17:06.999Z</time></trkpt><trkpt lat="45.83860675929081" lon="9.510538575112282"><ele>689.0</ele><time>2026-04-27T13:17:07.999Z</time></trkpt><trkpt lat="45.8386760478574" lon="9.510430018429059"><ele>689.0</ele><time>2026-04-27T13:17:10Z</time></trkpt><trkpt lat="45.83878186709786" lon="9.510349467585206"><ele>689.0</ele><time>2026-04-27T13:17:12Z</time></trkpt><trkpt lat="45.838871361590776" lon="9.510301341420993"><ele>689.0</ele><time>2026-04-27T13:17:14Z</time></trkpt><trkpt lat="45.83894673433745" lon="9.510336554388074"><ele>688.6666666666666</ele><time>2026-04-27T13:17:15Z</time></trkpt><trkpt lat="45.839023500485716" lon="9.510324366828915"><ele>688.3333333333333</ele><time>2026-04-27T13:17:16Z</time></trkpt><trkpt lat="45.83909473595237" lon="9.510330644626658"><ele>688.0</ele><time>2026-04-27T13:17:17Z</time></trkpt><trkpt lat="45.83916203672199" lon="9.510374824937827"><ele>687.6666666666666</ele><time>2026-04-27T13:17:18Z</time></trkpt><trkpt lat="45.83923165814315" lon="9.510400177317223"><ele>687.3333333333334</ele><time>2026-04-27T13:17:19Z</time></trkpt><trkpt lat="45.839317237851404" lon="9.510430236958626"><ele>687.0</ele><time>2026-04-27T13:17:20Z</time></trkpt><trkpt lat="45.83942459486117" lon="9.510448728540016"><ele>689.0</ele><time>2026-04-27T13:17:22Z</time></trkpt><trkpt lat="45.839501617057486" lon="9.51038095070384"><ele>691.0</ele><time>2026-04-27T13:17:23Z</time></trkpt><trkpt lat="45.83955187975044" lon="9.510306366814389"><ele>693.0</ele><time>2026-04-27T13:17:24Z</time></trkpt><trkpt lat="45.839616410039916" lon="9.510266013299288"><ele>695.0</ele><time>2026-04-27T13:17:25Z</time></trkpt><trkpt lat="45.839612680616895" lon="9.510080903529717"><ele>697.0</ele><time>2026-04-27T13:17:26Z</time></trkpt><trkpt lat="45.83962553470032" lon="9.50993261602002"><ele>697.0</ele><time>2026-04-27T13:17:27Z</time></trkpt><trkpt lat="45.83962441694288" lon="9.509777996503397"><ele>697.0</ele><time>2026-04-27T13:17:28Z</time></trkpt><trkpt lat="45.839643787274596" lon="9.509625596278424"><ele>697.0</ele><time>2026-04-27T13:17:29Z</time></trkpt><trkpt lat="45.83964858004129" lon="9.509465185687576"><ele>697.0</ele><time>2026-04-27T13:17:30Z</time></trkpt><trkpt lat="45.83965287863515" lon="9.509332249031333"><ele>697.0</ele><time>2026-04-27T13:17:31Z</time></trkpt><trkpt lat="45.8396561394451" lon="9.509231406409272"><ele>699.6</ele><time>2026-04-27T13:17:32Z</time></trkpt><trkpt lat="45.83966248485572" lon="9.509120107166416"><ele>702.2</ele><time>2026-04-27T13:17:33Z</time></trkpt><trkpt lat="45.83970940956024" lon="9.508952888711576"><ele>704.8</ele><time>2026-04-27T13:17:35Z</time></trkpt><trkpt lat="45.8397863209044" lon="9.508881658291315"><ele>707.4</ele><time>2026-04-27T13:17:36Z</time></trkpt><trkpt lat="45.83987316122425" lon="9.508840335723137"><ele>710.0</ele><time>2026-04-27T13:17:37Z</time></trkpt><trkpt lat="45.839943720998825" lon="9.508775633600589"><ele>710.4</ele><time>2026-04-27T13:17:38Z</time></trkpt><trkpt lat="45.8399936117657" lon="9.508670255590774"><ele>710.8</ele><time>2026-04-27T13:17:39Z</time></trkpt><trkpt lat="45.8400285683968" lon="9.508546716243758"><ele>711.2</ele><time>2026-04-27T13:17:40Z</time></trkpt><trkpt lat="45.840070063332355" lon="9.508435081148374"><ele>711.6</ele><time>2026-04-27T13:17:41Z</time></trkpt><trkpt lat="45.8401102704834" lon="9.508304473351613"><ele>712.0</ele><time>2026-04-27T13:17:42Z</time></trkpt><trkpt lat="45.84014901689933" lon="9.508198537552541"><ele>712.0</ele><time>2026-04-27T13:17:43Z</time></trkpt><trkpt lat="45.84019357791423" lon="9.508079458347513"><ele>712.0</ele><time>2026-04-27T13:17:44Z</time></trkpt><trkpt lat="45.84023584244516" lon="9.507978382688403"><ele>712.0</ele><time>2026-04-27T13:17:45Z</time></trkpt><trkpt lat="45.84029404247163" lon="9.507861637519346"><ele>712.0</ele><time>2026-04-27T13:17:46Z</time></trkpt><trkpt lat="45.840378570409634" lon="9.507781250999459"><ele>712.0</ele><time>2026-04-27T13:17:47Z</time></trkpt><trkpt lat="45.84045798326775" lon="9.507727819122524"><ele>716.1666666666667</ele><time>2026-04-27T13:17:48Z</time></trkpt><trkpt lat="45.84054169423889" lon="9.507677057436725"><ele>720.3333333333334</ele><time>2026-04-27T13:17:49Z</time></trkpt><trkpt lat="45.84062380491941" lon="9.507650233599508"><ele>724.5</ele><time>2026-04-27T13:17:50Z</time></trkpt><trkpt lat="45.84070622632613" lon="9.507627559295157"><ele>728.6666666666666</ele><time>2026-04-27T13:17:51Z</time></trkpt><trkpt lat="45.84077604607435" lon="9.507625672909775"><ele>732.8333333333333</ele><time>2026-04-27T13:17:52Z</time></trkpt><trkpt lat="45.84086408985005" lon="9.507635598832975"><ele>737.0</ele><time>2026-04-27T13:17:53Z</time></trkpt><trkpt lat="45.84095208331455" lon="9.507707301993598"><ele>737.6</ele><time>2026-04-27T13:17:54Z</time></trkpt><trkpt lat="45.84103414836355" lon="9.507778663350786"><ele>738.2</ele><time>2026-04-27T13:17:55Z</time></trkpt><trkpt lat="45.84111552473904" lon="9.507824357265633"><ele>738.8</ele><time>2026-04-27T13:17:56Z</time></trkpt><trkpt lat="45.841225088597334" lon="9.507865339516584"><ele>739.4</ele><time>2026-04-27T13:17:57Z</time></trkpt><trkpt lat="45.84130918882748" lon="9.507900740226441"><ele>740.0</ele><time>2026-04-27T13:17:58Z</time></trkpt><trkpt lat="45.84140423812535" lon="9.507913918840321"><ele>740.0</ele><time>2026-04-27T13:17:59Z</time></trkpt><trkpt lat="45.84153800402845" lon="9.507892856899918"><ele>740.0</ele><time>2026-04-27T13:18:00Z</time></trkpt><trkpt lat="45.84166861084439" lon="9.507819521184501"><ele>740.0</ele><time>2026-04-27T13:18:01Z</time></trkpt><trkpt lat="45.841700557699845" lon="9.507703197879005"><ele>740.0</ele><time>2026-04-27T13:18:02Z</time></trkpt><trkpt lat="45.84175193305741" lon="9.50761418412574"><ele>740.0</ele><time>2026-04-27T13:18:03Z</time></trkpt><trkpt lat="45.841834949161736" lon="9.507504688469567"><ele>738.0</ele><time>2026-04-27T13:18:05Z</time></trkpt><trkpt lat="45.841888683903115" lon="9.507452446391365"><ele>736.0</ele><time>2026-04-27T13:18:06Z</time></trkpt><trkpt lat="45.841951743439125" lon="9.507396551001571"><ele>734.0</ele><time>2026-04-27T13:18:07Z</time></trkpt><trkpt lat="45.84215978180877" lon="9.507271895705436"><ele>732.0</ele><time>2026-04-27T13:18:08Z</time></trkpt><trkpt lat="45.84235259050026" lon="9.507180026071895"><ele>732.0</ele><time>2026-04-27T13:18:09Z</time></trkpt><trkpt lat="45.842523606098084" lon="9.507103990180056"><ele>732.0</ele><time>2026-04-27T13:18:10Z</time></trkpt><trkpt lat="45.842690668802646" lon="9.507020005930524"><ele>732.0</ele><time>2026-04-27T13:18:11Z</time></trkpt><trkpt lat="45.84287197505926" lon="9.506935373104055"><ele>739.3333333333334</ele><time>2026-04-27T13:18:12Z</time></trkpt><trkpt lat="45.843035141337786" lon="9.506846015535704"><ele>746.6666666666667</ele><time>2026-04-27T13:18:13Z</time></trkpt><trkpt lat="45.84322178386578" lon="9.506772619625828"><ele>754.0</ele><time>2026-04-27T13:18:14Z</time></trkpt><trkpt lat="45.8433898998476" lon="9.506705680173441"><ele>750.6666666666667</ele><time>2026-04-27T13:18:15Z</time></trkpt><trkpt lat="45.843535228496805" lon="9.506639483819097"><ele>747.3333333333334</ele><time>2026-04-27T13:18:16Z</time></trkpt><trkpt lat="45.84369049843542" lon="9.506543070338397"><ele>744.0</ele><time>2026-04-27T13:18:17Z</time></trkpt><trkpt lat="45.8438787005676" lon="9.506444142887371"><ele>744.0</ele><time>2026-04-27T13:18:18Z</time></trkpt><trkpt lat="45.84405144096344" lon="9.506342652271757"><ele>744.0</ele><time>2026-04-27T13:18:19Z</time></trkpt><trkpt lat="45.8441882929236" lon="9.506209807708458"><ele>744.0</ele><time>2026-04-27T13:18:20Z</time></trkpt><trkpt lat="45.844324014230025" lon="9.506096736800082"><ele>752.0</ele><time>2026-04-27T13:18:21Z</time></trkpt><trkpt lat="45.844506736009215" lon="9.505976032024186"><ele>760.0</ele><time>2026-04-27T13:18:22Z</time></trkpt><trkpt lat="45.844666109781905" lon="9.505860823428685"><ele>768.0</ele><time>2026-04-27T13:18:23Z</time></trkpt><trkpt lat="45.84482814547115" lon="9.505798351226812"><ele>768.0</ele><time>2026-04-27T13:18:24Z</time></trkpt><trkpt lat="45.844988679676156" lon="9.505753186158822"><ele>768.0</ele><time>2026-04-27T13:18:25Z</time></trkpt><trkpt lat="45.845160783191595" lon="9.50568307952771"><ele>768.0</ele><time>2026-04-27T13:18:26Z</time></trkpt><trkpt lat="45.84533150344421" lon="9.505626427007183"><ele>768.0</ele><time>2026-04-27T13:18:27Z</time></trkpt><trkpt lat="45.84549083423458" lon="9.505550694162704"><ele>768.0</ele><time>2026-04-27T13:18:28Z</time></trkpt><trkpt lat="45.84560919275901" lon="9.505470954326677"><ele>768.0</ele><time>2026-04-27T13:18:29Z</time></trkpt><trkpt lat="45.84571890447973" lon="9.505389162236938"><ele>768.0</ele><time>2026-04-27T13:18:30Z</time></trkpt><trkpt lat="45.845815014896196" lon="9.505295053558324"><ele>768.0</ele><time>2026-04-27T13:18:31Z</time></trkpt><trkpt lat="45.845860797627324" lon="9.505159603083653"><ele>768.0</ele><time>2026-04-27T13:18:32Z</time></trkpt><trkpt lat="45.845863212705915" lon="9.50497922178349"><ele>768.0</ele><time>2026-04-27T13:18:33Z</time></trkpt><trkpt lat="45.84585708148478" lon="9.504796458771681"><ele>768.0</ele><time>2026-04-27T13:18:34Z</time></trkpt><trkpt lat="45.84584169735391" lon="9.504643228023093"><ele>768.4</ele><time>2026-04-27T13:18:35Z</time></trkpt><trkpt lat="45.845824301072675" lon="9.50450555509471"><ele>768.8</ele><time>2026-04-27T13:18:36Z</time></trkpt><trkpt lat="45.84574988495634" lon="9.504392509931531"><ele>769.2</ele><time>2026-04-27T13:18:37Z</time></trkpt><trkpt lat="45.84564415629966" lon="9.504340394894488"><ele>769.6</ele><time>2026-04-27T13:18:38Z</time></trkpt><trkpt lat="45.84553952992893" lon="9.50426136924475"><ele>770.0</ele><time>2026-04-27T13:18:39Z</time></trkpt><trkpt lat="45.84545456511081" lon="9.504224935296305"><ele>770.0</ele><time>2026-04-27T13:18:40Z</time></trkpt><trkpt lat="45.84536948650333" lon="9.504198840560784"><ele>770.0</ele><time>2026-04-27T13:18:41Z</time></trkpt><trkpt lat="45.84530390667796" lon="9.50413026841807"><ele>770.0</ele><time>2026-04-27T13:18:42Z</time></trkpt><trkpt lat="45.84520698322499" lon="9.503985218543297"><ele>770.0</ele><time>2026-04-27T13:18:43Z</time></trkpt><trkpt lat="45.845212375891094" lon="9.503798491189784"><ele>770.0</ele><time>2026-04-27T13:18:44Z</time></trkpt><trkpt lat="45.8452359997514" lon="9.50365494477026"><ele>770.0</ele><time>2026-04-27T13:18:45Z</time></trkpt><trkpt lat="45.845282652223524" lon="9.50347358321666"><ele>770.0</ele><time>2026-04-27T13:18:46Z</time></trkpt><trkpt lat="45.84534342299535" lon="9.503270543139454"><ele>770.0</ele><time>2026-04-27T13:18:47Z</time></trkpt><trkpt lat="45.84541911692789" lon="9.503036727607283"><ele>774.0</ele><time>2026-04-27T13:18:48Z</time></trkpt><trkpt lat="45.84549125386572" lon="9.502805392569858"><ele>778.0</ele><time>2026-04-27T13:18:49Z</time></trkpt><trkpt lat="45.84554427920023" lon="9.50257033178037"><ele>782.0</ele><time>2026-04-27T13:18:50Z</time></trkpt><trkpt lat="45.84561516121316" lon="9.502352902704379"><ele>782.0</ele><time>2026-04-27T13:18:51Z</time></trkpt><trkpt lat="45.845668346055106" lon="9.502169003738407"><ele>782.0</ele><time>2026-04-27T13:18:51.999Z</time></trkpt><trkpt lat="45.84569287739717" lon="9.501997572492268"><ele>782.0</ele><time>2026-04-27T13:18:52.999Z</time></trkpt><trkpt lat="45.84568478346761" lon="9.501806758823482"><ele>782.0</ele><time>2026-04-27T13:18:53.999Z</time></trkpt><trkpt lat="45.84564109863042" lon="9.50163106400594"><ele>784.6666666666667</ele><time>2026-04-27T13:18:54.999Z</time></trkpt><trkpt lat="45.845567988085314" lon="9.501420696735224"><ele>787.3333333333333</ele><time>2026-04-27T13:18:55.999Z</time></trkpt><trkpt lat="45.845477744067225" lon="9.501214824396817"><ele>790.0</ele><time>2026-04-27T13:18:56.999Z</time></trkpt><trkpt lat="45.84539296682567" lon="9.501048870899776"><ele>791.25</ele><time>2026-04-27T13:18:57.999Z</time></trkpt><trkpt lat="45.845306447415304" lon="9.500929750266996"><ele>792.5</ele><time>2026-04-27T13:18:58.999Z</time></trkpt><trkpt lat="45.84523431303129" lon="9.500777486443123"><ele>793.75</ele><time>2026-04-27T13:19:00Z</time></trkpt><trkpt lat="45.84522029948392" lon="9.50066557629904"><ele>795.0</ele><time>2026-04-27T13:19:01Z</time></trkpt><trkpt lat="45.845306332603556" lon="9.500487905846581"><ele>799.0</ele><time>2026-04-27T13:19:03Z</time></trkpt><trkpt lat="45.84540456804648" lon="9.500408573834235"><ele>803.0</ele><time>2026-04-27T13:19:04Z</time></trkpt><trkpt lat="45.84547721913013" lon="9.500313901886043"><ele>807.0</ele><time>2026-04-27T13:19:05Z</time></trkpt><trkpt lat="45.84559942363893" lon="9.50011569320677"><ele>811.0</ele><time>2026-04-27T13:19:06Z</time></trkpt><trkpt lat="45.84567322184563" lon="9.500007653484435"><ele>811.0</ele><time>2026-04-27T13:19:07Z</time></trkpt><trkpt lat="45.84570560910079" lon="9.499899747629962"><ele>811.0</ele><time>2026-04-27T13:19:08Z</time></trkpt><trkpt lat="45.84570758461303" lon="9.499774923898782"><ele>811.0</ele><time>2026-04-27T13:19:09Z</time></trkpt><trkpt lat="45.84566961828195" lon="9.499632795849003"><ele>811.0</ele><time>2026-04-27T13:19:10Z</time></trkpt><trkpt lat="45.84563567940731" lon="9.499453059943297"><ele>811.0</ele><time>2026-04-27T13:19:11Z</time></trkpt><trkpt lat="45.845629642304246" lon="9.499286463482205"><ele>814.5</ele><time>2026-04-27T13:19:12Z</time></trkpt><trkpt lat="45.845675310970314" lon="9.499164270363302"><ele>818.0</ele><time>2026-04-27T13:19:13Z</time></trkpt><trkpt lat="45.84574880155524" lon="9.49904543340384"><ele>821.5</ele><time>2026-04-27T13:19:14Z</time></trkpt><trkpt lat="45.84583375341419" lon="9.498887894017855"><ele>825.0</ele><time>2026-04-27T13:19:15Z</time></trkpt><trkpt lat="45.845937070669216" lon="9.498767126139937"><ele>827.25</ele><time>2026-04-27T13:19:16Z</time></trkpt><trkpt lat="45.845979818814506" lon="9.498605547458343"><ele>829.5</ele><time>2026-04-27T13:19:17Z</time></trkpt><trkpt lat="45.84599837053092" lon="9.498409477401642"><ele>831.75</ele><time>2026-04-27T13:19:18Z</time></trkpt><trkpt lat="45.845980780981314" lon="9.498204586790067"><ele>834.0</ele><time>2026-04-27T13:19:19Z</time></trkpt><trkpt lat="45.84592943618745" lon="9.498023754623683"><ele>833.5</ele><time>2026-04-27T13:19:20Z</time></trkpt><trkpt lat="45.84588042631178" lon="9.497832148054039"><ele>833.0</ele><time>2026-04-27T13:19:21Z</time></trkpt><trkpt lat="45.845835335400025" lon="9.497673619875446"><ele>832.5</ele><time>2026-04-27T13:19:22Z</time></trkpt><trkpt lat="45.84577371439576" lon="9.497486265897784"><ele>832.0</ele><time>2026-04-27T13:19:23Z</time></trkpt><trkpt lat="45.84571178611406" lon="9.497309134870079"><ele>832.0</ele><time>2026-04-27T13:19:24Z</time></trkpt><trkpt lat="45.845654942406696" lon="9.497142076104991"><ele>832.0</ele><time>2026-04-27T13:19:25Z</time></trkpt><trkpt lat="45.84561452252923" lon="9.497003624484309"><ele>832.0</ele><time>2026-04-27T13:19:26Z</time></trkpt><trkpt lat="45.845584575913755" lon="9.496873037809547"><ele>832.0</ele><time>2026-04-27T13:19:27Z</time></trkpt><trkpt lat="45.84558438261593" lon="9.496777046899997"><ele>832.0</ele><time>2026-04-27T13:19:28Z</time></trkpt><trkpt lat="45.8456716715259" lon="9.496690672233232"><ele>838.25</ele><time>2026-04-27T13:19:30Z</time></trkpt><trkpt lat="45.845792167195796" lon="9.496716900998358"><ele>844.5</ele><time>2026-04-27T13:19:31Z</time></trkpt><trkpt lat="45.84580323332118" lon="9.496851689770672"><ele>850.75</ele><time>2026-04-27T13:19:32Z</time></trkpt><trkpt lat="45.845920863764505" lon="9.496954177408327"><ele>857.0</ele><time>2026-04-27T13:19:33Z</time></trkpt><trkpt lat="45.84603120643329" lon="9.497057167375328"><ele>850.0</ele><time>2026-04-27T13:19:34Z</time></trkpt><trkpt lat="45.84615275269351" lon="9.497098540843995"><ele>843.0</ele><time>2026-04-27T13:19:35Z</time></trkpt><trkpt lat="45.84629312781417" lon="9.497100961773134"><ele>836.0</ele><time>2026-04-27T13:19:36Z</time></trkpt><trkpt lat="45.84643440435971" lon="9.497103765813629"><ele>829.0</ele><time>2026-04-27T13:19:37Z</time></trkpt><trkpt lat="45.84657660980283" lon="9.497092649394013"><ele>829.0</ele><time>2026-04-27T13:19:38Z</time></trkpt><trkpt lat="45.8467395627498" lon="9.49709245326975"><ele>829.0</ele><time>2026-04-27T13:19:39Z</time></trkpt><trkpt lat="45.84685282412482" lon="9.497100587999386"><ele>829.0</ele><time>2026-04-27T13:19:40Z</time></trkpt><trkpt lat="45.84695073966797" lon="9.497149149569982"><ele>829.0</ele><time>2026-04-27T13:19:41Z</time></trkpt><trkpt lat="45.84702727095957" lon="9.49725482805348"><ele>836.0</ele><time>2026-04-27T13:19:42Z</time></trkpt><trkpt lat="45.84710830905088" lon="9.497379779138072"><ele>843.0</ele><time>2026-04-27T13:19:43Z</time></trkpt><trkpt lat="45.847181007911345" lon="9.497472642788518"><ele>850.0000000000001</ele><time>2026-04-27T13:19:44Z</time></trkpt><trkpt lat="45.847271538636136" lon="9.497512872814305"><ele>857.0</ele><time>2026-04-27T13:19:46Z</time></trkpt><trkpt lat="45.84733727746305" lon="9.497498363725011"><ele>864.0</ele><time>2026-04-27T13:19:47Z</time></trkpt><trkpt lat="45.84741486544183" lon="9.497548463705854"><ele>864.0</ele><time>2026-04-27T13:19:48Z</time></trkpt><trkpt lat="45.847464724092035" lon="9.497634104477864"><ele>864.0000000000001</ele><time>2026-04-27T13:19:49Z</time></trkpt><trkpt lat="45.847505265951305" lon="9.497799630411158"><ele>864.0000000000001</ele><time>2026-04-27T13:19:50Z</time></trkpt><trkpt lat="45.847560741535226" lon="9.497933449904908"><ele>864.0</ele><time>2026-04-27T13:19:51Z</time></trkpt><trkpt lat="45.847595195769465" lon="9.498122204144815"><ele>864.0</ele><time>2026-04-27T13:19:52Z</time></trkpt><trkpt lat="45.847635229254934" lon="9.498218445133556"><ele>865.3333333333334</ele><time>2026-04-27T13:19:53Z</time></trkpt><trkpt lat="45.847695348230324" lon="9.498250484164908"><ele>866.6666666666667</ele><time>2026-04-27T13:19:54Z</time></trkpt><trkpt lat="45.84777336041349" lon="9.498257808237806"><ele>868.0</ele><time>2026-04-27T13:19:55Z</time></trkpt><trkpt lat="45.847855216439434" lon="9.498212814998224"><ele>869.3333333333334</ele><time>2026-04-27T13:19:56Z</time></trkpt><trkpt lat="45.84793294609957" lon="9.4982258382781"><ele>870.6666666666667</ele><time>2026-04-27T13:19:57Z</time></trkpt><trkpt lat="45.84804748134742" lon="9.498277782853904"><ele>872.0</ele><time>2026-04-27T13:19:59Z</time></trkpt><trkpt lat="45.848063318181374" lon="9.498436289232098"><ele>872.0</ele><time>2026-04-27T13:20:00Z</time></trkpt><trkpt lat="45.848108546054" lon="9.498683132466503"><ele>872.0</ele><time>2026-04-27T13:20:01Z</time></trkpt><trkpt lat="45.848164221335026" lon="9.498837022496451"><ele>872.0</ele><time>2026-04-27T13:20:02Z</time></trkpt><trkpt lat="45.84821550091545" lon="9.498986135761792"><ele>872.0</ele><time>2026-04-27T13:20:03Z</time></trkpt><trkpt lat="45.848273866941575" lon="9.499091406022394"><ele>872.2</ele><time>2026-04-27T13:20:04Z</time></trkpt><trkpt lat="45.84833925473654" lon="9.49921401301652"><ele>872.4000000000001</ele><time>2026-04-27T13:20:06Z</time></trkpt><trkpt lat="45.8484434171172" lon="9.499215271513986"><ele>872.5999999999999</ele><time>2026-04-27T13:20:07Z</time></trkpt><trkpt lat="45.84854844580345" lon="9.499235154299159"><ele>872.8</ele><time>2026-04-27T13:20:08Z</time></trkpt><trkpt lat="45.848667577917354" lon="9.499288900529082"><ele>873.0</ele><time>2026-04-27T13:20:09Z</time></trkpt><trkpt lat="45.848772993025015" lon="9.499337896649696"><ele>873.0</ele><time>2026-04-27T13:20:10Z</time></trkpt><trkpt lat="45.848874142036614" lon="9.499402636541449"><ele>873.0</ele><time>2026-04-27T13:20:11Z</time></trkpt><trkpt lat="45.848994393978785" lon="9.499460702664598"><ele>873.0</ele><time>2026-04-27T13:20:12Z</time></trkpt><trkpt lat="45.84910868933283" lon="9.499494138117225"><ele>873.0</ele><time>2026-04-27T13:20:13Z</time></trkpt><trkpt lat="45.84925434530361" lon="9.499492955591846"><ele>871.6666666666667</ele><time>2026-04-27T13:20:14Z</time></trkpt><trkpt lat="45.849401594939266" lon="9.499538235116123"><ele>870.3333333333334</ele><time>2026-04-27T13:20:15Z</time></trkpt><trkpt lat="45.84956482034498" lon="9.499718082756898"><ele>869.0</ele><time>2026-04-27T13:20:16Z</time></trkpt><trkpt lat="45.84968361839717" lon="9.499845464231727"><ele>869.0</ele><time>2026-04-27T13:20:17Z</time></trkpt><trkpt lat="45.84978744121568" lon="9.499999706846314"><ele>869.0000000000001</ele><time>2026-04-27T13:20:18.001Z</time></trkpt><trkpt lat="45.8499110695801" lon="9.500052639993283"><ele>869.0000000000001</ele><time>2026-04-27T13:20:19.001Z</time></trkpt><trkpt lat="45.850005715672886" lon="9.50006562063719"><ele>869.0</ele><time>2026-04-27T13:20:20.001Z</time></trkpt><trkpt lat="45.85007353271092" lon="9.500094177523861"><ele>869.0</ele><time>2026-04-27T13:20:21.001Z</time></trkpt><trkpt lat="45.85017008706158" lon="9.500163377246828"><ele>873.75</ele><time>2026-04-27T13:20:22.001Z</time></trkpt><trkpt lat="45.850281922162154" lon="9.500233173327405"><ele>878.5</ele><time>2026-04-27T13:20:23.001Z</time></trkpt><trkpt lat="45.8503199407726" lon="9.500384571909462"><ele>883.25</ele><time>2026-04-27T13:20:24.001Z</time></trkpt><trkpt lat="45.85036985353857" lon="9.500540140382961"><ele>888.0</ele><time>2026-04-27T13:20:25.001Z</time></trkpt><trkpt lat="45.8504917047312" lon="9.500718288501798"><ele>888.0</ele><time>2026-04-27T13:20:26.001Z</time></trkpt><trkpt lat="45.85058047453096" lon="9.500903128878948"><ele>888.0</ele><time>2026-04-27T13:20:27.001Z</time></trkpt><trkpt lat="45.850688425622145" lon="9.501078651867545"><ele>888.0</ele><time>2026-04-27T13:20:28.001Z</time></trkpt><trkpt lat="45.85081920307065" lon="9.50126975405476"><ele>892.0</ele><time>2026-04-27T13:20:29.001Z</time></trkpt><trkpt lat="45.85097716817102" lon="9.501397358688237"><ele>896.0</ele><time>2026-04-27T13:20:30.001Z</time></trkpt><trkpt lat="45.85109503786021" lon="9.501566789671065"><ele>900.0</ele><time>2026-04-27T13:20:31.001Z</time></trkpt><trkpt lat="45.85116615384586" lon="9.50176131298535"><ele>900.0</ele><time>2026-04-27T13:20:32.001Z</time></trkpt><trkpt lat="45.85120763802833" lon="9.5019383171983"><ele>900.0</ele><time>2026-04-27T13:20:33.001Z</time></trkpt><trkpt lat="45.85123432796457" lon="9.502063132278808"><ele>900.0</ele><time>2026-04-27T13:20:34.001Z</time></trkpt><trkpt lat="45.85120505556212" lon="9.502190630698225"><ele>900.0</ele><time>2026-04-27T13:20:35.001Z</time></trkpt><trkpt lat="45.851162158398296" lon="9.502311591990331"><ele>900.0</ele><time>2026-04-27T13:20:36.001Z</time></trkpt><trkpt lat="45.851055897166006" lon="9.502280959130367"><ele>887.25</ele><time>2026-04-27T13:20:37.001Z</time></trkpt><trkpt lat="45.85090036857469" lon="9.502401728549199"><ele>874.5</ele><time>2026-04-27T13:20:38.001Z</time></trkpt><trkpt lat="45.85085722998271" lon="9.502487090082377"><ele>861.75</ele><time>2026-04-27T13:20:39.001Z</time></trkpt><trkpt lat="45.85082874542384" lon="9.502611767724392"><ele>849.0</ele><time>2026-04-27T13:20:40.001Z</time></trkpt><trkpt lat="45.85082208247236" lon="9.502772319350058"><ele>849.0</ele><time>2026-04-27T13:20:41.001Z</time></trkpt><trkpt lat="45.850812317859166" lon="9.50290497721703"><ele>849.0</ele><time>2026-04-27T13:20:42.001Z</time></trkpt><trkpt lat="45.85083651272947" lon="9.503000064557712"><ele>849.0</ele><time>2026-04-27T13:20:43.001Z</time></trkpt><trkpt lat="45.850904276674754" lon="9.503038875902739"><ele>849.0</ele><time>2026-04-27T13:20:44.001Z</time></trkpt><trkpt lat="45.85100022897917" lon="9.503043565194401"><ele>849.0</ele><time>2026-04-27T13:20:45.001Z</time></trkpt><trkpt lat="45.8511013203675" lon="9.503033949986008"><ele>849.0</ele><time>2026-04-27T13:20:46.001Z</time></trkpt><trkpt lat="45.85120125022583" lon="9.50304944042389"><ele>858.0</ele><time>2026-04-27T13:20:47.001Z</time></trkpt><trkpt lat="45.85125803211935" lon="9.503149658269487"><ele>867.0</ele><time>2026-04-27T13:20:48.001Z</time></trkpt><trkpt lat="45.85130572800201" lon="9.503260476077665"><ele>876.0</ele><time>2026-04-27T13:20:49.001Z</time></trkpt><trkpt lat="45.85137038845406" lon="9.503416457712115"><ele>885.0</ele><time>2026-04-27T13:20:50.001Z</time></trkpt><trkpt lat="45.851439064329604" lon="9.503673004575697"><ele>877.6666666666667</ele><time>2026-04-27T13:20:51.001Z</time></trkpt><trkpt lat="45.8514808893054" lon="9.503972886011509"><ele>870.3333333333334</ele><time>2026-04-27T13:20:52.001Z</time></trkpt><trkpt lat="45.8514902097197" lon="9.504227407922615"><ele>863.0</ele><time>2026-04-27T13:20:53.001Z</time></trkpt><trkpt lat="45.851491557845165" lon="9.50442920245797"><ele>861.4</ele><time>2026-04-27T13:20:54.001Z</time></trkpt><trkpt lat="45.85146994959352" lon="9.504627072363878"><ele>859.8</ele><time>2026-04-27T13:20:55.001Z</time></trkpt><trkpt lat="45.85146470119928" lon="9.504785723080833"><ele>858.2</ele><time>2026-04-27T13:20:56.001Z</time></trkpt><trkpt lat="45.85144795398076" lon="9.50490632636577"><ele>856.6</ele><time>2026-04-27T13:20:57.001Z</time></trkpt><trkpt lat="45.851508163698725" lon="9.505025218065526"><ele>855.0</ele><time>2026-04-27T13:20:58Z</time></trkpt><trkpt lat="45.85159185633692" lon="9.505091340400519"><ele>855.0</ele><time>2026-04-27T13:20:59Z</time></trkpt><trkpt lat="45.851698122179215" lon="9.50511655452077"><ele>855.0</ele><time>2026-04-27T13:21:00Z</time></trkpt><trkpt lat="45.85182379441878" lon="9.504996073719514"><ele>855.0</ele><time>2026-04-27T13:21:01Z</time></trkpt><trkpt lat="45.85193349761897" lon="9.50491134480237"><ele>855.0</ele><time>2026-04-27T13:21:02Z</time></trkpt><trkpt lat="45.852018693599945" lon="9.504788123272254"><ele>855.5</ele><time>2026-04-27T13:21:03Z</time></trkpt><trkpt lat="45.85208459323722" lon="9.504639931611695"><ele>856.0</ele><time>2026-04-27T13:21:04Z</time></trkpt><trkpt lat="45.85210089276173" lon="9.504466594237654"><ele>856.5</ele><time>2026-04-27T13:21:05Z</time></trkpt><trkpt lat="45.85210976942477" lon="9.504251212671496"><ele>857.0</ele><time>2026-04-27T13:21:06Z</time></trkpt><trkpt lat="45.852136778055915" lon="9.504033706615806"><ele>859.3333333333334</ele><time>2026-04-27T13:21:07Z</time></trkpt><trkpt lat="45.852179055015775" lon="9.503805411440844"><ele>861.6666666666667</ele><time>2026-04-27T13:21:08Z</time></trkpt><trkpt lat="45.85222689574368" lon="9.503575605018334"><ele>864.0</ele><time>2026-04-27T13:21:09Z</time></trkpt><trkpt lat="45.85229146235834" lon="9.503297275481001"><ele>869.3333333333333</ele><time>2026-04-27T13:21:10Z</time></trkpt><trkpt lat="45.85236276826069" lon="9.5030443247623"><ele>874.6666666666666</ele><time>2026-04-27T13:21:11Z</time></trkpt><trkpt lat="45.85244523665666" lon="9.502802840535528"><ele>880.0</ele><time>2026-04-27T13:21:12Z</time></trkpt><trkpt lat="45.852540012138064" lon="9.502553467089946"><ele>878.75</ele><time>2026-04-27T13:21:13Z</time></trkpt><trkpt lat="45.852612885960866" lon="9.502347711360013"><ele>877.5</ele><time>2026-04-27T13:21:14Z</time></trkpt><trkpt lat="45.85263259139868" lon="9.502260984428066"><ele>876.25</ele><time>2026-04-27T13:21:15Z</time></trkpt><trkpt lat="45.85262560596592" lon="9.502066240257548"><ele>875.0</ele><time>2026-04-27T13:21:16Z</time></trkpt><trkpt lat="45.85259686204898" lon="9.50185979279575"><ele>880.3333333333334</ele><time>2026-04-27T13:21:17Z</time></trkpt><trkpt lat="45.852558728285345" lon="9.501628908931146"><ele>885.6666666666667</ele><time>2026-04-27T13:21:18Z</time></trkpt><trkpt lat="45.8525134049069" lon="9.501387087632065"><ele>891.0</ele><time>2026-04-27T13:21:19Z</time></trkpt><trkpt lat="45.852471962663074" lon="9.50118109235787"><ele>892.8</ele><time>2026-04-27T13:21:20Z</time></trkpt><trkpt lat="45.85244203398957" lon="9.501029405475393"><ele>894.5999999999999</ele><time>2026-04-27T13:21:21Z</time></trkpt><trkpt lat="45.85243183680178" lon="9.500924747611197"><ele>896.4</ele><time>2026-04-27T13:21:22Z</time></trkpt><trkpt lat="45.8524597124986" lon="9.500772590705674"><ele>898.2</ele><time>2026-04-27T13:21:24Z</time></trkpt><trkpt lat="45.85253753316895" lon="9.500743239446615"><ele>900.0</ele><time>2026-04-27T13:21:25Z</time></trkpt><trkpt lat="45.85262272488835" lon="9.500826629357036"><ele>899.8</ele><time>2026-04-27T13:21:26Z</time></trkpt><trkpt lat="45.85271708241813" lon="9.500899060516666"><ele>899.6</ele><time>2026-04-27T13:21:27Z</time></trkpt><trkpt lat="45.85280886862577" lon="9.500991132515695"><ele>899.4000000000001</ele><time>2026-04-27T13:21:28Z</time></trkpt><trkpt lat="45.85291206896958" lon="9.501039781912654"><ele>899.2</ele><time>2026-04-27T13:21:29Z</time></trkpt><trkpt lat="45.85303018008857" lon="9.501062568992065"><ele>899.0</ele><time>2026-04-27T13:21:30Z</time></trkpt><trkpt lat="45.853146998974246" lon="9.501036620821655"><ele>899.0</ele><time>2026-04-27T13:21:31Z</time></trkpt><trkpt lat="45.85328393492412" lon="9.500975791623192"><ele>899.0</ele><time>2026-04-27T13:21:32Z</time></trkpt><trkpt lat="45.85344734998432" lon="9.500929570681564"><ele>899.0</ele><time>2026-04-27T13:21:33Z</time></trkpt><trkpt lat="45.85359504793044" lon="9.500868041248753"><ele>900.0</ele><time>2026-04-27T13:21:34Z</time></trkpt><trkpt lat="45.85377996642978" lon="9.500797200315702"><ele>901.0</ele><time>2026-04-27T13:21:35Z</time></trkpt><trkpt lat="45.853948659308394" lon="9.500737987970457"><ele>902.0</ele><time>2026-04-27T13:21:36Z</time></trkpt><trkpt lat="45.854112585027885" lon="9.500664942667349"><ele>902.0</ele><time>2026-04-27T13:21:37Z</time></trkpt><trkpt lat="45.85427112225279" lon="9.500603781252536"><ele>902.0</ele><time>2026-04-27T13:21:38Z</time></trkpt><trkpt lat="45.854385007775655" lon="9.500540051463549"><ele>902.0</ele><time>2026-04-27T13:21:39Z</time></trkpt><trkpt lat="45.854492177877226" lon="9.500480704366701"><ele>902.0</ele><time>2026-04-27T13:21:40Z</time></trkpt><trkpt lat="45.854610436185325" lon="9.50042892302923"><ele>903.5</ele><time>2026-04-27T13:21:41Z</time></trkpt><trkpt lat="45.85472982572588" lon="9.500356686018296"><ele>905.0</ele><time>2026-04-27T13:21:42Z</time></trkpt><trkpt lat="45.854877007365886" lon="9.50026951049093"><ele>906.5</ele><time>2026-04-27T13:21:43Z</time></trkpt><trkpt lat="45.85500267353149" lon="9.500175243215514"><ele>908.0</ele><time>2026-04-27T13:21:44Z</time></trkpt><trkpt lat="45.85510471352227" lon="9.5000941242974"><ele>909.5</ele><time>2026-04-27T13:21:45Z</time></trkpt><trkpt lat="45.855197657781275" lon="9.499976704242497"><ele>911.0</ele><time>2026-04-27T13:21:46Z</time></trkpt><trkpt lat="45.85527191323258" lon="9.499799624997761"><ele>912.5</ele><time>2026-04-27T13:21:47Z</time></trkpt><trkpt lat="45.85536606621454" lon="9.499616406526997"><ele>914.0</ele><time>2026-04-27T13:21:48Z</time></trkpt><trkpt lat="45.855435370800855" lon="9.49944249523396"><ele>914.0</ele><time>2026-04-27T13:21:49Z</time></trkpt><trkpt lat="45.85554863628948" lon="9.499324875342083"><ele>914.0</ele><time>2026-04-27T13:21:50Z</time></trkpt><trkpt lat="45.85567691254461" lon="9.499187127836061"><ele>914.0</ele><time>2026-04-27T13:21:51Z</time></trkpt><trkpt lat="45.8558052033333" lon="9.4990572231338"><ele>914.0</ele><time>2026-04-27T13:21:52.001Z</time></trkpt><trkpt lat="45.855912000106116" lon="9.498953704583636"><ele>914.0</ele><time>2026-04-27T13:21:53.001Z</time></trkpt><trkpt lat="45.856038861241984" lon="9.498867146091403"><ele>914.0</ele><time>2026-04-27T13:21:54.001Z</time></trkpt><trkpt lat="45.856130689983004" lon="9.49872166231376"><ele>914.0</ele><time>2026-04-27T13:21:55.001Z</time></trkpt><trkpt lat="45.85621389491353" lon="9.49854075478757"><ele>914.0</ele><time>2026-04-27T13:21:56.001Z</time></trkpt><trkpt lat="45.85633024789276" lon="9.498371289085798"><ele>914.0</ele><time>2026-04-27T13:21:57.001Z</time></trkpt><trkpt lat="45.85645083141047" lon="9.498205674590176"><ele>914.0</ele><time>2026-04-27T13:21:58.001Z</time></trkpt><trkpt lat="45.85658540931559" lon="9.498007763364567"><ele>919.0</ele><time>2026-04-27T13:21:59.001Z</time></trkpt><trkpt lat="45.85670462785627" lon="9.49781051902466"><ele>924.0</ele><time>2026-04-27T13:22:00.001Z</time></trkpt><trkpt lat="45.85679538683114" lon="9.497623945702642"><ele>929.0</ele><time>2026-04-27T13:22:01.001Z</time></trkpt><trkpt lat="45.85689239029334" lon="9.497482476370648"><ele>930.0</ele><time>2026-04-27T13:22:02.001Z</time></trkpt><trkpt lat="45.85698025433557" lon="9.497371136671475"><ele>931.0</ele><time>2026-04-27T13:22:03.001Z</time></trkpt><trkpt lat="45.85704747756795" lon="9.497249327716732"><ele>932.0</ele><time>2026-04-27T13:22:04.001Z</time></trkpt><trkpt lat="45.8570916589462" lon="9.497072669649189"><ele>933.0</ele><time>2026-04-27T13:22:05.001Z</time></trkpt><trkpt lat="45.85713965460335" lon="9.496880679666972"><ele>938.75</ele><time>2026-04-27T13:22:06.001Z</time></trkpt><trkpt lat="45.857202980948784" lon="9.496687074533265"><ele>944.5</ele><time>2026-04-27T13:22:07.001Z</time></trkpt><trkpt lat="45.857257297935426" lon="9.496512027897149"><ele>950.25</ele><time>2026-04-27T13:22:08.001Z</time></trkpt><trkpt lat="45.857351083684655" lon="9.496386150808906"><ele>956.0</ele><time>2026-04-27T13:22:09.001Z</time></trkpt><trkpt lat="45.85739956712784" lon="9.496313055836437"><ele>956.0</ele><time>2026-04-27T13:22:10.001Z</time></trkpt><trkpt lat="45.857500170473806" lon="9.496311454721253"><ele>955.9999999999999</ele><time>2026-04-27T13:22:12.001Z</time></trkpt><trkpt lat="45.85756300006755" lon="9.496363470101773"><ele>955.9999999999999</ele><time>2026-04-27T13:22:13.001Z</time></trkpt><trkpt lat="45.85761195396704" lon="9.496442205618422"><ele>956.0</ele><time>2026-04-27T13:22:14.001Z</time></trkpt><trkpt lat="45.857658206263615" lon="9.496578433729946"><ele>956.0</ele><time>2026-04-27T13:22:15.001Z</time></trkpt><trkpt lat="45.85770835521741" lon="9.496730555182596"><ele>965.0</ele><time>2026-04-27T13:22:16.001Z</time></trkpt><trkpt lat="45.85779286757477" lon="9.496986044615037"><ele>974.0</ele><time>2026-04-27T13:22:17.001Z</time></trkpt><trkpt lat="45.857885726297056" lon="9.497197582236794"><ele>983.0</ele><time>2026-04-27T13:22:18.001Z</time></trkpt><trkpt lat="45.857969655485405" lon="9.497422269642435"><ele>983.0</ele><time>2026-04-27T13:22:19.001Z</time></trkpt><trkpt lat="45.85804351315772" lon="9.497627075607378"><ele>983.0</ele><time>2026-04-27T13:22:20.001Z</time></trkpt><trkpt lat="45.85811395830202" lon="9.497793415330166"><ele>983.0</ele><time>2026-04-27T13:22:21.001Z</time></trkpt><trkpt lat="45.85819670588037" lon="9.497921048188338"><ele>983.0</ele><time>2026-04-27T13:22:22.001Z</time></trkpt><trkpt lat="45.85828829612887" lon="9.497996451810852"><ele>985.25</ele><time>2026-04-27T13:22:23.001Z</time></trkpt><trkpt lat="45.858394157037246" lon="9.498041340528658"><ele>987.5</ele><time>2026-04-27T13:22:24.001Z</time></trkpt><trkpt lat="45.85849228117081" lon="9.498125171459506"><ele>989.75</ele><time>2026-04-27T13:22:25.001Z</time></trkpt><trkpt lat="45.85856070143896" lon="9.498279669660825"><ele>992.0</ele><time>2026-04-27T13:22:26.001Z</time></trkpt><trkpt lat="45.85861033727901" lon="9.498417079183678"><ele>992.0</ele><time>2026-04-27T13:22:27.001Z</time></trkpt><trkpt lat="45.85867113503263" lon="9.498509766206556"><ele>992.0000000000001</ele><time>2026-04-27T13:22:28.001Z</time></trkpt><trkpt lat="45.85872740211263" lon="9.498579153268187"><ele>992.0</ele><time>2026-04-27T13:22:29.001Z</time></trkpt><trkpt lat="45.85878758042059" lon="9.498631871455187"><ele>992.0</ele><time>2026-04-27T13:22:30.001Z</time></trkpt><trkpt lat="45.858853615980024" lon="9.498615307621776"><ele>992.0000000000001</ele><time>2026-04-27T13:22:31.001Z</time></trkpt><trkpt lat="45.858917616985856" lon="9.498628123707716"><ele>992.0</ele><time>2026-04-27T13:22:32.001Z</time></trkpt><trkpt lat="45.85898480598714" lon="9.498643869465939"><ele>992.0</ele><time>2026-04-27T13:22:33.001Z</time></trkpt><trkpt lat="45.859124003488674" lon="9.498734321509984"><ele>989.6</ele><time>2026-04-27T13:22:35.001Z</time></trkpt><trkpt lat="45.85918349627747" lon="9.498843713118148"><ele>987.2</ele><time>2026-04-27T13:22:36.001Z</time></trkpt><trkpt lat="45.8592694430496" lon="9.49887317986566"><ele>984.8</ele><time>2026-04-27T13:22:37.001Z</time></trkpt><trkpt lat="45.859399261997225" lon="9.498866780242212"><ele>982.4</ele><time>2026-04-27T13:22:38.001Z</time></trkpt><trkpt lat="45.85951922116655" lon="9.498900634518654"><ele>980.0</ele><time>2026-04-27T13:22:39.001Z</time></trkpt><trkpt lat="45.859639381766705" lon="9.498928965153116"><ele>980.0</ele><time>2026-04-27T13:22:40.001Z</time></trkpt><trkpt lat="45.8597910122958" lon="9.49899147035473"><ele>980.0</ele><time>2026-04-27T13:22:41.001Z</time></trkpt><trkpt lat="45.85992214530784" lon="9.499038188778224"><ele>980.0</ele><time>2026-04-27T13:22:42.001Z</time></trkpt><trkpt lat="45.86009677166012" lon="9.49908326771139"><ele>983.8</ele><time>2026-04-27T13:22:43.001Z</time></trkpt><trkpt lat="45.860241498766925" lon="9.499147957031434"><ele>987.6</ele><time>2026-04-27T13:22:44.001Z</time></trkpt><trkpt lat="45.86035407529483" lon="9.499169031620603"><ele>991.4000000000001</ele><time>2026-04-27T13:22:45.001Z</time></trkpt><trkpt lat="45.86042405084509" lon="9.49920843891491"><ele>995.2</ele><time>2026-04-27T13:22:46.001Z</time></trkpt><trkpt lat="45.860511026236445" lon="9.499160922729162"><ele>999.0</ele><time>2026-04-27T13:22:48.001Z</time></trkpt><trkpt lat="45.86053722106268" lon="9.499029706657636"><ele>999.0</ele><time>2026-04-27T13:22:50.001Z</time></trkpt><trkpt lat="45.86042240447847" lon="9.498894375788321"><ele>999.0</ele><time>2026-04-27T13:22:51.001Z</time></trkpt><trkpt lat="45.8602941471646" lon="9.498896268441225"><ele>999.0</ele><time>2026-04-27T13:22:52.001Z</time></trkpt><trkpt lat="45.86019738356272" lon="9.49885462347094"><ele>999.0</ele><time>2026-04-27T13:22:53.001Z</time></trkpt><trkpt lat="45.86011072626136" lon="9.498813789475737"><ele>999.0</ele><time>2026-04-27T13:22:54.001Z</time></trkpt><trkpt lat="45.860060680458915" lon="9.498752576345323"><ele>999.0000000000001</ele><time>2026-04-27T13:22:56.001Z</time></trkpt><trkpt lat="45.86012985899888" lon="9.498747535196149"><ele>999.0000000000001</ele><time>2026-04-27T13:22:58.001Z</time></trkpt><trkpt lat="45.86025738378119" lon="9.498809601749624"><ele>999.0</ele><time>2026-04-27T13:23:00.001Z</time></trkpt><trkpt lat="45.86035741728774" lon="9.498858989505688"><ele>999.0</ele><time>2026-04-27T13:23:01.001Z</time></trkpt><trkpt lat="45.86047841261149" lon="9.498883386571077"><ele>999.0</ele><time>2026-04-27T13:23:02.001Z</time></trkpt><trkpt lat="45.860559678511095" lon="9.498881487790705"><ele>999.0000000000001</ele><time>2026-04-27T13:23:03.001Z</time></trkpt><trkpt lat="45.860635759713205" lon="9.498779276668234"><ele>999.0000000000001</ele><time>2026-04-27T13:23:06.001Z</time></trkpt><trkpt lat="45.86057949856163" lon="9.498677867531125"><ele>999.0</ele><time>2026-04-27T13:23:07.001Z</time></trkpt><trkpt lat="45.86048331081247" lon="9.49863795700719"><ele>999.0</ele><time>2026-04-27T13:23:08.001Z</time></trkpt><trkpt lat="45.86036019988552" lon="9.49861145794229"><ele>1004.0</ele><time>2026-04-27T13:23:09.001Z</time></trkpt><trkpt lat="45.86025034325164" lon="9.498572379822711"><ele>1009.0</ele><time>2026-04-27T13:23:10.001Z</time></trkpt><trkpt lat="45.86012278842493" lon="9.498532624132574"><ele>1014.0</ele><time>2026-04-27T13:23:11.001Z</time></trkpt><trkpt lat="45.85998605997733" lon="9.498496236623968"><ele>1019.0</ele><time>2026-04-27T13:23:12.001Z</time></trkpt><trkpt lat="45.85986068592434" lon="9.498430442244478"><ele>1019.0</ele><time>2026-04-27T13:23:13.001Z</time></trkpt><trkpt lat="45.85974173666296" lon="9.49836085973805"><ele>1019.0</ele><time>2026-04-27T13:23:14.001Z</time></trkpt><trkpt lat="45.85965211863687" lon="9.498266508511428"><ele>1019.0</ele><time>2026-04-27T13:23:15.001Z</time></trkpt><trkpt lat="45.85957562982371" lon="9.498154235634182"><ele>1019.0</ele><time>2026-04-27T13:23:16.001Z</time></trkpt><trkpt lat="45.859528087328165" lon="9.497961419715368"><ele>1027.4</ele><time>2026-04-27T13:23:18.001Z</time></trkpt><trkpt lat="45.85951538375294" lon="9.497835612663735"><ele>1035.8000000000002</ele><time>2026-04-27T13:23:19.001Z</time></trkpt><trkpt lat="45.85945613485418" lon="9.497700514608301"><ele>1044.1999999999998</ele><time>2026-04-27T13:23:20Z</time></trkpt><trkpt lat="45.859380027222336" lon="9.497565154239773"><ele>1052.6</ele><time>2026-04-27T13:23:21Z</time></trkpt><trkpt lat="45.859330024050195" lon="9.497470271388838"><ele>1061.0</ele><time>2026-04-27T13:23:22Z</time></trkpt><trkpt lat="45.85931854873649" lon="9.497327361696453"><ele>1061.0</ele><time>2026-04-27T13:23:24Z</time></trkpt><trkpt lat="45.85942056830442" lon="9.497454901876385"><ele>1061.0</ele><time>2026-04-27T13:23:26Z</time></trkpt><trkpt lat="45.859484292643046" lon="9.49753763910914"><ele>1061.0</ele><time>2026-04-27T13:23:28Z</time></trkpt><trkpt lat="45.85952459560308" lon="9.497679817774882"><ele>1061.0</ele><time>2026-04-27T13:23:29Z</time></trkpt><trkpt lat="45.8595809818687" lon="9.49781755144067"><ele>1061.0</ele><time>2026-04-27T13:23:30Z</time></trkpt><trkpt lat="45.85964326187516" lon="9.49794425724474"><ele>1050.5</ele><time>2026-04-27T13:23:31Z</time></trkpt><trkpt lat="45.8597308493727" lon="9.49802195279466"><ele>1040.0</ele><time>2026-04-27T13:23:32Z</time></trkpt><trkpt lat="45.85983135538525" lon="9.498112739865366"><ele>1029.5</ele><time>2026-04-27T13:23:33Z</time></trkpt><trkpt lat="45.85996053171185" lon="9.498125880293168"><ele>1019.0</ele><time>2026-04-27T13:23:34Z</time></trkpt><trkpt lat="45.860103295700014" lon="9.49813548966893"><ele>1024.0</ele><time>2026-04-27T13:23:35Z</time></trkpt><trkpt lat="45.86024598146958" lon="9.498117993456322"><ele>1029.0</ele><time>2026-04-27T13:23:36Z</time></trkpt><trkpt lat="45.86038966966527" lon="9.498106545753554"><ele>1034.0</ele><time>2026-04-27T13:23:37Z</time></trkpt><trkpt lat="45.86053037844639" lon="9.49809423505627"><ele>1039.0</ele><time>2026-04-27T13:23:38Z</time></trkpt><trkpt lat="45.860674264826045" lon="9.498081716127345"><ele>1039.0</ele><time>2026-04-27T13:23:39Z</time></trkpt><trkpt lat="45.86081707853712" lon="9.498065615246873"><ele>1039.0</ele><time>2026-04-27T13:23:40Z</time></trkpt><trkpt lat="45.8609561557063" lon="9.498041992267348"><ele>1039.0</ele><time>2026-04-27T13:23:41Z</time></trkpt><trkpt lat="45.86108685351592" lon="9.497989615739417"><ele>1039.0</ele><time>2026-04-27T13:23:42Z</time></trkpt><trkpt lat="45.861196023933076" lon="9.497917938620528"><ele>1043.3333333333333</ele><time>2026-04-27T13:23:43Z</time></trkpt><trkpt lat="45.86128100245862" lon="9.497876551798578"><ele>1047.6666666666665</ele><time>2026-04-27T13:23:44Z</time></trkpt><trkpt lat="45.86135784834313" lon="9.497849550129509"><ele>1052.0</ele><time>2026-04-27T13:23:45Z</time></trkpt><trkpt lat="45.86144189351738" lon="9.497915653989677"><ele>1056.3333333333333</ele><time>2026-04-27T13:23:46Z</time></trkpt><trkpt lat="45.861515673779095" lon="9.497996783446046"><ele>1060.6666666666667</ele><time>2026-04-27T13:23:47Z</time></trkpt><trkpt lat="45.86152029720511" lon="9.49812342917985"><ele>1065.0</ele><time>2026-04-27T13:23:48Z</time></trkpt><trkpt lat="45.861591246857785" lon="9.498303046227761"><ele>1065.0</ele><time>2026-04-27T13:23:49Z</time></trkpt><trkpt lat="45.861617786882206" lon="9.498498978653656"><ele>1065.0</ele><time>2026-04-27T13:23:50Z</time></trkpt><trkpt lat="45.86169318291438" lon="9.498571207855584"><ele>1065.0</ele><time>2026-04-27T13:23:51Z</time></trkpt><trkpt lat="45.861756996019395" lon="9.498649351027785"><ele>1065.0</ele><time>2026-04-27T13:23:52Z</time></trkpt><trkpt lat="45.86181869509679" lon="9.498695516275909"><ele>1065.0</ele><time>2026-04-27T13:23:53Z</time></trkpt><trkpt lat="45.861897547347304" lon="9.498657416954625"><ele>1068.25</ele><time>2026-04-27T13:23:54.001Z</time></trkpt><trkpt lat="45.8619952760048" lon="9.498587050749988"><ele>1071.5</ele><time>2026-04-27T13:23:55.001Z</time></trkpt><trkpt lat="45.86210540869127" lon="9.498491903667839"><ele>1074.75</ele><time>2026-04-27T13:23:56.001Z</time></trkpt><trkpt lat="45.862225069808396" lon="9.498374316698623"><ele>1078.0</ele><time>2026-04-27T13:23:57.001Z</time></trkpt><trkpt lat="45.86237402951414" lon="9.498265152578826"><ele>1078.0</ele><time>2026-04-27T13:23:58.001Z</time></trkpt><trkpt lat="45.862484750459274" lon="9.498130478693904"><ele>1078.0</ele><time>2026-04-27T13:23:59.001Z</time></trkpt><trkpt lat="45.862582846011335" lon="9.498013929486143"><ele>1078.0</ele><time>2026-04-27T13:24:00.001Z</time></trkpt><trkpt lat="45.86267696341071" lon="9.497917956799958"><ele>1078.0</ele><time>2026-04-27T13:24:01.001Z</time></trkpt><trkpt lat="45.8627484990076" lon="9.497828503731448"><ele>1086.75</ele><time>2026-04-27T13:24:02.001Z</time></trkpt><trkpt lat="45.86280032566279" lon="9.497768298728076"><ele>1095.5</ele><time>2026-04-27T13:24:03.001Z</time></trkpt><trkpt lat="45.86292623051142" lon="9.497817503549804"><ele>1104.25</ele><time>2026-04-27T13:24:05.001Z</time></trkpt><trkpt lat="45.862961413785705" lon="9.497970472895089"><ele>1113.0</ele><time>2026-04-27T13:24:06.001Z</time></trkpt><trkpt lat="45.86293993009064" lon="9.498190870603349"><ele>1113.0</ele><time>2026-04-27T13:24:08.001Z</time></trkpt><trkpt lat="45.862933105248935" lon="9.498348905974956"><ele>1113.0</ele><time>2026-04-27T13:24:09.001Z</time></trkpt><trkpt lat="45.86293598220827" lon="9.49852197946529"><ele>1113.0</ele><time>2026-04-27T13:24:10.001Z</time></trkpt><trkpt lat="45.862924270728335" lon="9.498688172414607"><ele>1113.0</ele><time>2026-04-27T13:24:11.001Z</time></trkpt><trkpt lat="45.86295747687579" lon="9.498923665368629"><ele>1112.75</ele><time>2026-04-27T13:24:12.001Z</time></trkpt><trkpt lat="45.862963461548304" lon="9.499124653291485"><ele>1112.5</ele><time>2026-04-27T13:24:13.001Z</time></trkpt><trkpt lat="45.86298297159088" lon="9.499333445287723"><ele>1112.25</ele><time>2026-04-27T13:24:14.001Z</time></trkpt><trkpt lat="45.86301436447267" lon="9.499520644334934"><ele>1112.0</ele><time>2026-04-27T13:24:15.001Z</time></trkpt><trkpt lat="45.86302167363166" lon="9.499707314295325"><ele>1110.0</ele><time>2026-04-27T13:24:16.001Z</time></trkpt><trkpt lat="45.86303779556394" lon="9.499868846035268"><ele>1108.0</ele><time>2026-04-27T13:24:17.001Z</time></trkpt><trkpt lat="45.86306793954126" lon="9.499979247233169"><ele>1106.0</ele><time>2026-04-27T13:24:18.001Z</time></trkpt><trkpt lat="45.86310920983131" lon="9.50008503249285"><ele>1104.0</ele><time>2026-04-27T13:24:19.001Z</time></trkpt><trkpt lat="45.86319116600061" lon="9.500140550733216"><ele>1102.0</ele><time>2026-04-27T13:24:20.001Z</time></trkpt><trkpt lat="45.86326476757446" lon="9.50018211790963"><ele>1102.0</ele><time>2026-04-27T13:24:21.001Z</time></trkpt><trkpt lat="45.86338110058461" lon="9.500279019172632"><ele>1102.0</ele><time>2026-04-27T13:24:22.001Z</time></trkpt><trkpt lat="45.86348771492816" lon="9.500335232558621"><ele>1102.0</ele><time>2026-04-27T13:24:23.001Z</time></trkpt><trkpt lat="45.86355248559031" lon="9.500403472176528"><ele>1102.0</ele><time>2026-04-27T13:24:24.001Z</time></trkpt><trkpt lat="45.86359666130767" lon="9.500506692766058"><ele>1102.0</ele><time>2026-04-27T13:24:25.001Z</time></trkpt><trkpt lat="45.863609402297506" lon="9.500643751417783"><ele>1100.4</ele><time>2026-04-27T13:24:26.001Z</time></trkpt><trkpt lat="45.8635470219285" lon="9.500750559807088"><ele>1098.8000000000002</ele><time>2026-04-27T13:24:27.001Z</time></trkpt><trkpt lat="45.86349335173575" lon="9.50087114001471"><ele>1097.2</ele><time>2026-04-27T13:24:28.001Z</time></trkpt><trkpt lat="45.86343613470461" lon="9.50102438186231"><ele>1095.6000000000001</ele><time>2026-04-27T13:24:29.001Z</time></trkpt><trkpt lat="45.863370480351364" lon="9.501181713829626"><ele>1094.0</ele><time>2026-04-27T13:24:30.001Z</time></trkpt><trkpt lat="45.86330097178777" lon="9.501337933222295"><ele>1097.8</ele><time>2026-04-27T13:24:31.001Z</time></trkpt><trkpt lat="45.863254194455116" lon="9.501499821516573"><ele>1101.6000000000001</ele><time>2026-04-27T13:24:32.001Z</time></trkpt><trkpt lat="45.86324795520243" lon="9.501654986005025"><ele>1105.4</ele><time>2026-04-27T13:24:33.001Z</time></trkpt><trkpt lat="45.86322655142572" lon="9.501762999279972"><ele>1109.2</ele><time>2026-04-27T13:24:34.001Z</time></trkpt><trkpt lat="45.86327442776631" lon="9.501836794999686"><ele>1113.0</ele><time>2026-04-27T13:24:35.001Z</time></trkpt><trkpt lat="45.86330939060861" lon="9.501945277127572"><ele>1113.0</ele><time>2026-04-27T13:24:36.001Z</time></trkpt><trkpt lat="45.86338791488513" lon="9.502047963526003"><ele>1113.0</ele><time>2026-04-27T13:24:37.001Z</time></trkpt><trkpt lat="45.863473862272635" lon="9.502167592543811"><ele>1113.0</ele><time>2026-04-27T13:24:38.001Z</time></trkpt><trkpt lat="45.86354589945948" lon="9.502302072557445"><ele>1113.0</ele><time>2026-04-27T13:24:39.001Z</time></trkpt><trkpt lat="45.863559116582934" lon="9.502458983808895"><ele>1123.6</ele><time>2026-04-27T13:24:40.001Z</time></trkpt><trkpt lat="45.8635597112556" lon="9.50259648413559"><ele>1134.1999999999998</ele><time>2026-04-27T13:24:41.001Z</time></trkpt><trkpt lat="45.86354272443451" lon="9.502779657353017"><ele>1144.8</ele><time>2026-04-27T13:24:42.001Z</time></trkpt><trkpt lat="45.86351473290749" lon="9.502901080705211"><ele>1155.3999999999999</ele><time>2026-04-27T13:24:43.001Z</time></trkpt><trkpt lat="45.8634655311245" lon="9.503065102296821"><ele>1166.0</ele><time>2026-04-27T13:24:44.001Z</time></trkpt><trkpt lat="45.86345428279135" lon="9.503196300251236"><ele>1165.2</ele><time>2026-04-27T13:24:45.001Z</time></trkpt><trkpt lat="45.863439150906274" lon="9.50331734843957"><ele>1164.3999999999999</ele><time>2026-04-27T13:24:46.001Z</time></trkpt><trkpt lat="45.863458609559004" lon="9.503445532166948"><ele>1163.6</ele><time>2026-04-27T13:24:47.001Z</time></trkpt><trkpt lat="45.86351336856443" lon="9.503588761842384"><ele>1162.8</ele><time>2026-04-27T13:24:48.001Z</time></trkpt><trkpt lat="45.86358668422841" lon="9.503654258962552"><ele>1162.0</ele><time>2026-04-27T13:24:49.001Z</time></trkpt><trkpt lat="45.86366151021023" lon="9.503755955454361"><ele>1162.0</ele><time>2026-04-27T13:24:50.001Z</time></trkpt><trkpt lat="45.863749266226" lon="9.503907535678113"><ele>1162.0</ele><time>2026-04-27T13:24:51.001Z</time></trkpt><trkpt lat="45.86381800186783" lon="9.50405736988372"><ele>1162.0</ele><time>2026-04-27T13:24:52.001Z</time></trkpt><trkpt lat="45.86386562104505" lon="9.504202784931104"><ele>1162.0</ele><time>2026-04-27T13:24:53.001Z</time></trkpt><trkpt lat="45.86389764678599" lon="9.504361630889896"><ele>1162.0</ele><time>2026-04-27T13:24:54.001Z</time></trkpt><trkpt lat="45.86392120893212" lon="9.504473304395024"><ele>1162.0</ele><time>2026-04-27T13:24:55.001Z</time></trkpt><trkpt lat="45.86394775937378" lon="9.504563737944046"><ele>1162.0</ele><time>2026-04-27T13:24:56.001Z</time></trkpt><trkpt lat="45.864015064585836" lon="9.504650646137764"><ele>1162.0</ele><time>2026-04-27T13:24:58.001Z</time></trkpt><trkpt lat="45.86408385250239" lon="9.504674478559167"><ele>1162.0</ele><time>2026-04-27T13:25:00.001Z</time></trkpt><trkpt lat="45.86408747388719" lon="9.504566755553336"><ele>1162.0</ele><time>2026-04-27T13:25:05.001Z</time></trkpt><trkpt lat="45.86405620393599" lon="9.504432698733165"><ele>1162.0</ele><time>2026-04-27T13:25:07.001Z</time></trkpt><trkpt lat="45.86403005630527" lon="9.504283293369793"><ele>1162.0</ele><time>2026-04-27T13:25:09.001Z</time></trkpt><trkpt lat="45.8640121089671" lon="9.50417016932534"><ele>1162.0</ele><time>2026-04-27T13:25:10.001Z</time></trkpt><trkpt lat="45.8639933420504" lon="9.504053380214136"><ele>1162.0</ele><time>2026-04-27T13:25:11.001Z</time></trkpt><trkpt lat="45.863960385660235" lon="9.503937297613364"><ele>1162.0</ele><time>2026-04-27T13:25:12.001Z</time></trkpt><trkpt lat="45.86390594047934" lon="9.503808263849065"><ele>1164.0</ele><time>2026-04-27T13:25:13.001Z</time></trkpt><trkpt lat="45.86384943389511" lon="9.50369392735741"><ele>1166.0</ele><time>2026-04-27T13:25:14.001Z</time></trkpt><trkpt lat="45.86379657555992" lon="9.50358357720286"><ele>1168.0</ele><time>2026-04-27T13:25:15.001Z</time></trkpt><trkpt lat="45.863727934481496" lon="9.503518904722553"><ele>1170.0</ele><time>2026-04-27T13:25:16.001Z</time></trkpt><trkpt lat="45.86370086213307" lon="9.503424229721318"><ele>1172.0</ele><time>2026-04-27T13:25:17.001Z</time></trkpt><trkpt lat="45.86370095011169" lon="9.503306906939443"><ele>1174.0</ele><time>2026-04-27T13:25:18.001Z</time></trkpt><trkpt lat="45.86370620400082" lon="9.503182650124923"><ele>1174.0</ele><time>2026-04-27T13:25:19.001Z</time></trkpt><trkpt lat="45.863745054512975" lon="9.503058569170806"><ele>1174.0</ele><time>2026-04-27T13:25:20.001Z</time></trkpt><trkpt lat="45.86377221942336" lon="9.50289174787203"><ele>1174.0</ele><time>2026-04-27T13:25:21.001Z</time></trkpt><trkpt lat="45.86381347869788" lon="9.502695743385528"><ele>1174.0</ele><time>2026-04-27T13:25:22.001Z</time></trkpt><trkpt lat="45.86384952634106" lon="9.502546330679262"><ele>1172.0</ele><time>2026-04-27T13:25:23.001Z</time></trkpt><trkpt lat="45.86386515267191" lon="9.502346724456872"><ele>1170.0</ele><time>2026-04-27T13:25:24.001Z</time></trkpt><trkpt lat="45.86383047650494" lon="9.502200547044488"><ele>1168.0</ele><time>2026-04-27T13:25:25.001Z</time></trkpt><trkpt lat="45.86379277365305" lon="9.502063019771679"><ele>1166.0</ele><time>2026-04-27T13:25:26.001Z</time></trkpt><trkpt lat="45.86376022873395" lon="9.501882448517861"><ele>1165.3999999999999</ele><time>2026-04-27T13:25:27.001Z</time></trkpt><trkpt lat="45.86374578610258" lon="9.501760034910662"><ele>1164.8</ele><time>2026-04-27T13:25:28.001Z</time></trkpt><trkpt lat="45.863763824020374" lon="9.501596281489181"><ele>1164.1999999999998</ele><time>2026-04-27T13:25:30.001Z</time></trkpt><trkpt lat="45.863804269781085" lon="9.501474789638968"><ele>1163.6</ele><time>2026-04-27T13:25:32.001Z</time></trkpt><trkpt lat="45.86384021461313" lon="9.501373347842346"><ele>1163.0</ele><time>2026-04-27T13:25:33.001Z</time></trkpt><trkpt lat="45.86390073664816" lon="9.501205166970388"><ele>1159.25</ele><time>2026-04-27T13:25:34.001Z</time></trkpt><trkpt lat="45.86398911704559" lon="9.501020890019799"><ele>1155.5</ele><time>2026-04-27T13:25:35.001Z</time></trkpt><trkpt lat="45.86405782474602" lon="9.500895698775894"><ele>1151.75</ele><time>2026-04-27T13:25:36.001Z</time></trkpt><trkpt lat="45.86409639568992" lon="9.500753184373744"><ele>1148.0</ele><time>2026-04-27T13:25:37.001Z</time></trkpt><trkpt lat="45.86413819023293" lon="9.50062334477625"><ele>1148.0</ele><time>2026-04-27T13:25:38.001Z</time></trkpt><trkpt lat="45.8641808075542" lon="9.500469238394667"><ele>1148.0</ele><time>2026-04-27T13:25:40.001Z</time></trkpt><trkpt lat="45.864154172937084" lon="9.500323704176132"><ele>1148.0</ele><time>2026-04-27T13:25:42.001Z</time></trkpt><trkpt lat="45.86406222992" lon="9.50010811118912"><ele>1148.0</ele><time>2026-04-27T13:25:44.001Z</time></trkpt><trkpt lat="45.86397268032363" lon="9.500020724424752"><ele>1149.5</ele><time>2026-04-27T13:25:45.001Z</time></trkpt><trkpt lat="45.86387901365816" lon="9.499847760788262"><ele>1151.0</ele><time>2026-04-27T13:25:46.001Z</time></trkpt><trkpt lat="45.86380904973155" lon="9.49972923847271"><ele>1152.5</ele><time>2026-04-27T13:25:47.001Z</time></trkpt><trkpt lat="45.863762289630614" lon="9.499633229725593"><ele>1154.0</ele><time>2026-04-27T13:25:48.001Z</time></trkpt><trkpt lat="45.86373227589354" lon="9.499429869294712"><ele>1157.6000000000001</ele><time>2026-04-27T13:25:50.001Z</time></trkpt><trkpt lat="45.86377670326597" lon="9.499308582498497"><ele>1161.2</ele><time>2026-04-27T13:25:51.001Z</time></trkpt><trkpt lat="45.86379586222537" lon="9.499164699307945"><ele>1164.8000000000002</ele><time>2026-04-27T13:25:52.001Z</time></trkpt><trkpt lat="45.86381960415693" lon="9.499010579173051"><ele>1168.4</ele><time>2026-04-27T13:25:53.001Z</time></trkpt><trkpt lat="45.86384993084972" lon="9.498817892568379"><ele>1172.0</ele><time>2026-04-27T13:25:54.001Z</time></trkpt><trkpt lat="45.863881267559755" lon="9.498638625430951"><ele>1172.25</ele><time>2026-04-27T13:25:55.001Z</time></trkpt><trkpt lat="45.86390331776953" lon="9.498442531719185"><ele>1172.5</ele><time>2026-04-27T13:25:56.001Z</time></trkpt><trkpt lat="45.863971066498436" lon="9.49825205018316"><ele>1172.75</ele><time>2026-04-27T13:25:57.001Z</time></trkpt><trkpt lat="45.86398150066375" lon="9.498035704929855"><ele>1173.0</ele><time>2026-04-27T13:25:58.001Z</time></trkpt><trkpt lat="45.86400835152417" lon="9.497828391487484"><ele>1172.5</ele><time>2026-04-27T13:25:59.001Z</time></trkpt><trkpt lat="45.86403517564265" lon="9.497648370729392"><ele>1172.0</ele><time>2026-04-27T13:26:00.001Z</time></trkpt><trkpt lat="45.864075946678504" lon="9.497477282165336"><ele>1171.5</ele><time>2026-04-27T13:26:01.001Z</time></trkpt><trkpt lat="45.86406392070904" lon="9.497314667372747"><ele>1171.0</ele><time>2026-04-27T13:26:02.001Z</time></trkpt><trkpt lat="45.864101356755604" lon="9.497187260684173"><ele>1171.3999999999999</ele><time>2026-04-27T13:26:03.001Z</time></trkpt><trkpt lat="45.864135175878566" lon="9.497030009385977"><ele>1171.8</ele><time>2026-04-27T13:26:04.001Z</time></trkpt><trkpt lat="45.8641557438575" lon="9.496912061891667"><ele>1172.1999999999998</ele><time>2026-04-27T13:26:05.001Z</time></trkpt><trkpt lat="45.86415945396736" lon="9.4967819696178"><ele>1172.6</ele><time>2026-04-27T13:26:06.001Z</time></trkpt><trkpt lat="45.86418721169993" lon="9.496643982363283"><ele>1173.0</ele><time>2026-04-27T13:26:07.001Z</time></trkpt><trkpt lat="45.86421571596198" lon="9.496499923574817"><ele>1173.0</ele><time>2026-04-27T13:26:08.001Z</time></trkpt><trkpt lat="45.8642370696641" lon="9.496333837684109"><ele>1173.0</ele><time>2026-04-27T13:26:09.001Z</time></trkpt><trkpt lat="45.864245345925156" lon="9.496216496880882"><ele>1173.0</ele><time>2026-04-27T13:26:10.001Z</time></trkpt><trkpt lat="45.86426400265374" lon="9.496094918981722"><ele>1173.0</ele><time>2026-04-27T13:26:11.001Z</time></trkpt><trkpt lat="45.86427678095886" lon="9.495978499933106"><ele>1173.0</ele><time>2026-04-27T13:26:12.001Z</time></trkpt><trkpt lat="45.86428141074613" lon="9.495859510944822"><ele>1174.5</ele><time>2026-04-27T13:26:13.001Z</time></trkpt><trkpt lat="45.864336837039204" lon="9.495703716686569"><ele>1176.0</ele><time>2026-04-27T13:26:16.001Z</time></trkpt><trkpt lat="45.86437768061421" lon="9.495626548561738"><ele>1177.5</ele><time>2026-04-27T13:26:17.001Z</time></trkpt><trkpt lat="45.86435933057706" lon="9.49551946993187"><ele>1179.0</ele><time>2026-04-27T13:26:19.001Z</time></trkpt><trkpt lat="45.86427459791856" lon="9.495444825654216"><ele>1180.5</ele><time>2026-04-27T13:26:21.001Z</time></trkpt><trkpt lat="45.864195164013324" lon="9.495444684475174"><ele>1182.0</ele><time>2026-04-27T13:26:22.001Z</time></trkpt><trkpt lat="45.864091851741236" lon="9.495472849948248"><ele>1182.0</ele><time>2026-04-27T13:26:23.001Z</time></trkpt><trkpt lat="45.86401314422848" lon="9.495490913461078"><ele>1182.0</ele><time>2026-04-27T13:26:24.001Z</time></trkpt><trkpt lat="45.86392840785838" lon="9.495491601824789"><ele>1182.0</ele><time>2026-04-27T13:26:25.001Z</time></trkpt><trkpt lat="45.863825552459296" lon="9.49548358493282"><ele>1182.0</ele><time>2026-04-27T13:26:26.001Z</time></trkpt><trkpt lat="45.86373566223875" lon="9.495497117875681"><ele>1182.0</ele><time>2026-04-27T13:26:27.001Z</time></trkpt><trkpt lat="45.863682123638156" lon="9.495584260824801"><ele>1182.0</ele><time>2026-04-27T13:26:28.001Z</time></trkpt><trkpt lat="45.863542091120806" lon="9.495675506665053"><ele>1182.0</ele><time>2026-04-27T13:26:30.001Z</time></trkpt><trkpt lat="45.863457436731764" lon="9.4957042032394"><ele>1182.0</ele><time>2026-04-27T13:26:31.001Z</time></trkpt><trkpt lat="45.863347738760766" lon="9.495743964074533"><ele>1182.0</ele><time>2026-04-27T13:26:32.001Z</time></trkpt><trkpt lat="45.86323366515334" lon="9.49578539673614"><ele>1182.0</ele><time>2026-04-27T13:26:33.001Z</time></trkpt><trkpt lat="45.86313494070721" lon="9.495809814161248"><ele>1182.0</ele><time>2026-04-27T13:26:34.001Z</time></trkpt><trkpt lat="45.86304638201745" lon="9.495800270837606"><ele>1182.8</ele><time>2026-04-27T13:26:35.001Z</time></trkpt><trkpt lat="45.862934227273776" lon="9.495818339496532"><ele>1183.6</ele><time>2026-04-27T13:26:36.001Z</time></trkpt><trkpt lat="45.86281756869472" lon="9.495840009210704"><ele>1184.3999999999999</ele><time>2026-04-27T13:26:37.001Z</time></trkpt><trkpt lat="45.86271218227787" lon="9.495872868227988"><ele>1185.2</ele><time>2026-04-27T13:26:38.001Z</time></trkpt><trkpt lat="45.86263305871112" lon="9.495892174560822"><ele>1186.0</ele><time>2026-04-27T13:26:39.001Z</time></trkpt><trkpt lat="45.862548416043296" lon="9.495942146684456"><ele>1187.8</ele><time>2026-04-27T13:26:40.001Z</time></trkpt><trkpt lat="45.86244762721737" lon="9.495949240780792"><ele>1189.6</ele><time>2026-04-27T13:26:41.001Z</time></trkpt><trkpt lat="45.8623743981731" lon="9.495917182431777"><ele>1191.4</ele><time>2026-04-27T13:26:42.001Z</time></trkpt><trkpt lat="45.86230899140425" lon="9.495900273054238"><ele>1193.2</ele><time>2026-04-27T13:26:43.001Z</time></trkpt><trkpt lat="45.86222484962475" lon="9.49576386838534"><ele>1195.0</ele><time>2026-04-27T13:26:44.001Z</time></trkpt><trkpt lat="45.86218019955836" lon="9.495668100669908"><ele>1195.0</ele><time>2026-04-27T13:26:45.001Z</time></trkpt><trkpt lat="45.86211459486082" lon="9.49561334574328"><ele>1195.0</ele><time>2026-04-27T13:26:46.001Z</time></trkpt><trkpt lat="45.86198246738874" lon="9.49551400673181"><ele>1195.0</ele><time>2026-04-27T13:26:48.001Z</time></trkpt><trkpt lat="45.86189965384" lon="9.495482670542572"><ele>1195.0</ele><time>2026-04-27T13:26:49.001Z</time></trkpt><trkpt lat="45.861839780016425" lon="9.495414999018928"><ele>1195.0</ele><time>2026-04-27T13:26:50.001Z</time></trkpt><trkpt lat="45.86177212535013" lon="9.49535199185116"><ele>1200.75</ele><time>2026-04-27T13:26:51.001Z</time></trkpt><trkpt lat="45.861686124684056" lon="9.49529861152465"><ele>1206.5</ele><time>2026-04-27T13:26:52.001Z</time></trkpt><trkpt lat="45.86160859466561" lon="9.495248860052149"><ele>1212.25</ele><time>2026-04-27T13:26:53.001Z</time></trkpt><trkpt lat="45.86151299800839" lon="9.495217305818885"><ele>1218.0</ele><time>2026-04-27T13:26:54.001Z</time></trkpt><trkpt lat="45.86134617093695" lon="9.49514549424836"><ele>1218.0</ele><time>2026-04-27T13:26:55.001Z</time></trkpt><trkpt lat="45.861208981632764" lon="9.49503226676544"><ele>1218.0</ele><time>2026-04-27T13:26:57.001Z</time></trkpt><trkpt lat="45.86114484901911" lon="9.494963955250235"><ele>1218.0</ele><time>2026-04-27T13:26:58.001Z</time></trkpt><trkpt lat="45.86104605158532" lon="9.494887693263804"><ele>1218.0</ele><time>2026-04-27T13:26:59.001Z</time></trkpt><trkpt lat="45.86099464281824" lon="9.494833541737705"><ele>1218.0</ele><time>2026-04-27T13:27:00.001Z</time></trkpt><trkpt lat="45.86085805008918" lon="9.49475479502034"><ele>1219.4</ele><time>2026-04-27T13:27:01.001Z</time></trkpt><trkpt lat="45.860776940939544" lon="9.494706564329942"><ele>1220.8</ele><time>2026-04-27T13:27:02.001Z</time></trkpt><trkpt lat="45.860694797142706" lon="9.494627487095784"><ele>1222.2</ele><time>2026-04-27T13:27:03.001Z</time></trkpt><trkpt lat="45.86061223253137" lon="9.494541370075341"><ele>1223.6</ele><time>2026-04-27T13:27:04.001Z</time></trkpt><trkpt lat="45.86055865210803" lon="9.494407152154567"><ele>1225.0</ele><time>2026-04-27T13:27:05.001Z</time></trkpt><trkpt lat="45.86046453968332" lon="9.494221116350307"><ele>1225.0</ele><time>2026-04-27T13:27:07.001Z</time></trkpt><trkpt lat="45.86040000393705" lon="9.494093996970218"><ele>1225.0</ele><time>2026-04-27T13:27:08.001Z</time></trkpt><trkpt lat="45.86030335487116" lon="9.493937208786011"><ele>1225.0</ele><time>2026-04-27T13:27:09.001Z</time></trkpt><trkpt lat="45.86021917504555" lon="9.493850457293622"><ele>1225.0</ele><time>2026-04-27T13:27:10.001Z</time></trkpt><trkpt lat="45.860137196511545" lon="9.49375475638197"><ele>1222.3333333333333</ele><time>2026-04-27T13:27:11.001Z</time></trkpt><trkpt lat="45.86005064899778" lon="9.4936745666637"><ele>1219.6666666666665</ele><time>2026-04-27T13:27:12.001Z</time></trkpt><trkpt lat="45.85999830659885" lon="9.493615461144284"><ele>1217.0</ele><time>2026-04-27T13:27:13.001Z</time></trkpt><trkpt lat="45.85993151550258" lon="9.493576422047411"><ele>1214.3333333333333</ele><time>2026-04-27T13:27:14.001Z</time></trkpt><trkpt lat="45.85987967767178" lon="9.493519189245635"><ele>1211.6666666666667</ele><time>2026-04-27T13:27:18.001Z</time></trkpt><trkpt lat="45.85994056839696" lon="9.493558650545435"><ele>1209.0</ele><time>2026-04-27T13:27:33.001Z</time></trkpt><trkpt lat="45.860013378217964" lon="9.49359354941805"><ele>1209.0</ele><time>2026-04-27T13:27:34.001Z</time></trkpt><trkpt lat="45.86006370828376" lon="9.493647865980046"><ele>1209.0</ele><time>2026-04-27T13:27:35.001Z</time></trkpt><trkpt lat="45.86013723905105" lon="9.493717686526734"><ele>1209.0</ele><time>2026-04-27T13:27:36.001Z</time></trkpt><trkpt lat="45.86020822889954" lon="9.49376999004005"><ele>1209.0</ele><time>2026-04-27T13:27:37.001Z</time></trkpt><trkpt lat="45.8602719230268" lon="9.493822138840743"><ele>1209.0</ele><time>2026-04-27T13:27:38.001Z</time></trkpt><trkpt lat="45.86033578626132" lon="9.493870364163106"><ele>1209.0</ele><time>2026-04-27T13:27:39.001Z</time></trkpt><trkpt lat="45.86046050866576" lon="9.493804716640403"><ele>1211.6666666666667</ele><time>2026-04-27T13:27:40.001Z</time></trkpt><trkpt lat="45.86054683635801" lon="9.493887220571352"><ele>1214.3333333333333</ele><time>2026-04-27T13:27:41.001Z</time></trkpt><trkpt lat="45.860632719152115" lon="9.49395955087467"><ele>1217.0</ele><time>2026-04-27T13:27:42.001Z</time></trkpt><trkpt lat="45.8606982343353" lon="9.494027542658431"><ele>1219.6666666666665</ele><time>2026-04-27T13:27:43.001Z</time></trkpt><trkpt lat="45.860765762009635" lon="9.494087683885459"><ele>1222.3333333333333</ele><time>2026-04-27T13:27:44.001Z</time></trkpt><trkpt lat="45.860836676594396" lon="9.494146025006131"><ele>1225.0</ele><time>2026-04-27T13:27:45.001Z</time></trkpt><trkpt lat="45.86090714634872" lon="9.494192720195452"><ele>1229.1666666666665</ele><time>2026-04-27T13:27:46.001Z</time></trkpt><trkpt lat="45.860991473497485" lon="9.494212558901987"><ele>1233.3333333333333</ele><time>2026-04-27T13:27:47.001Z</time></trkpt><trkpt lat="45.8610671309872" lon="9.494258536665496"><ele>1237.5</ele><time>2026-04-27T13:27:48.001Z</time></trkpt><trkpt lat="45.861142353800616" lon="9.49426459593694"><ele>1241.6666666666667</ele><time>2026-04-27T13:27:49.001Z</time></trkpt><trkpt lat="45.861225852179125" lon="9.494287623217168"><ele>1245.8333333333335</ele><time>2026-04-27T13:27:50.001Z</time></trkpt><trkpt lat="45.86130065643493" lon="9.494343243956811"><ele>1250.0</ele><time>2026-04-27T13:27:51.001Z</time></trkpt><trkpt lat="45.861434558666026" lon="9.49439166950998"><ele>1250.0</ele><time>2026-04-27T13:27:53.001Z</time></trkpt><trkpt lat="45.86153249601849" lon="9.494430624759849"><ele>1250.0</ele><time>2026-04-27T13:27:54.001Z</time></trkpt><trkpt lat="45.86162037022809" lon="9.494450153978594"><ele>1250.0</ele><time>2026-04-27T13:27:55.001Z</time></trkpt><trkpt lat="45.86170468340938" lon="9.494448032361246"><ele>1250.0</ele><time>2026-04-27T13:27:56.001Z</time></trkpt><trkpt lat="45.86178203543097" lon="9.494425814694628"><ele>1250.0</ele><time>2026-04-27T13:27:57.001Z</time></trkpt><trkpt lat="45.86187043190524" lon="9.494457457711484"><ele>1250.0</ele><time>2026-04-27T13:27:58.001Z</time></trkpt><trkpt lat="45.86196918413249" lon="9.494482978607495"><ele>1252.1666666666667</ele><time>2026-04-27T13:27:59.001Z</time></trkpt><trkpt lat="45.86202649854326" lon="9.494526633132718"><ele>1254.3333333333335</ele><time>2026-04-27T13:28:00.001Z</time></trkpt><trkpt lat="45.86213264895982" lon="9.494544706403994"><ele>1256.5</ele><time>2026-04-27T13:28:02Z</time></trkpt><trkpt lat="45.86219757765366" lon="9.494534994588294"><ele>1258.6666666666667</ele><time>2026-04-27T13:28:03Z</time></trkpt><trkpt lat="45.86227346418297" lon="9.494507292545284"><ele>1260.8333333333333</ele><time>2026-04-27T13:28:04Z</time></trkpt><trkpt lat="45.862369662286035" lon="9.49447188894819"><ele>1263.0</ele><time>2026-04-27T13:28:05Z</time></trkpt><trkpt lat="45.86248558433981" lon="9.494422699959914"><ele>1263.0</ele><time>2026-04-27T13:28:06Z</time></trkpt><trkpt lat="45.86256507878365" lon="9.494380929335478"><ele>1263.0</ele><time>2026-04-27T13:28:07Z</time></trkpt><trkpt lat="45.862663682403785" lon="9.494320093528238"><ele>1263.0</ele><time>2026-04-27T13:28:08Z</time></trkpt><trkpt lat="45.86275248340534" lon="9.494235956791567"><ele>1263.0</ele><time>2026-04-27T13:28:09Z</time></trkpt><trkpt lat="45.86284688324869" lon="9.49418745693884"><ele>1263.0</ele><time>2026-04-27T13:28:10Z</time></trkpt><trkpt lat="45.86295155667337" lon="9.494107774852022"><ele>1266.0</ele><time>2026-04-27T13:28:11Z</time></trkpt><trkpt lat="45.863044404572165" lon="9.494003795803035"><ele>1269.0</ele><time>2026-04-27T13:28:12Z</time></trkpt><trkpt lat="45.86313425325248" lon="9.49389639675422"><ele>1272.0</ele><time>2026-04-27T13:28:13Z</time></trkpt><trkpt lat="45.8632139066482" lon="9.493766337814161"><ele>1275.0</ele><time>2026-04-27T13:28:14Z</time></trkpt><trkpt lat="45.86328389219052" lon="9.493673871127633"><ele>1275.0</ele><time>2026-04-27T13:28:15Z</time></trkpt><trkpt lat="45.86333490614506" lon="9.493581228070363"><ele>1275.0</ele><time>2026-04-27T13:28:16Z</time></trkpt><trkpt lat="45.863409735981925" lon="9.49348697507368"><ele>1275.0</ele><time>2026-04-27T13:28:17Z</time></trkpt><trkpt lat="45.8634911576383" lon="9.493443567421783"><ele>1275.0</ele><time>2026-04-27T13:28:19Z</time></trkpt><trkpt lat="45.86352912932331" lon="9.49335978403096"><ele>1275.0</ele><time>2026-04-27T13:28:27Z</time></trkpt><trkpt lat="45.86341620269053" lon="9.493368724872456"><ele>1275.0</ele><time>2026-04-27T13:28:30Z</time></trkpt><trkpt lat="45.86331333155949" lon="9.493457965494578"><ele>1275.0</ele><time>2026-04-27T13:28:31Z</time></trkpt><trkpt lat="45.86322741790978" lon="9.493504135957117"><ele>1275.0</ele><time>2026-04-27T13:28:32Z</time></trkpt><trkpt lat="45.86314070439386" lon="9.49354368621571"><ele>1275.0</ele><time>2026-04-27T13:28:33Z</time></trkpt><trkpt lat="45.86304908867552" lon="9.493643242869668"><ele>1275.0</ele><time>2026-04-27T13:28:34.001Z</time></trkpt><trkpt lat="45.86292755174441" lon="9.493720657524312"><ele>1272.0</ele><time>2026-04-27T13:28:35.001Z</time></trkpt><trkpt lat="45.86280214532875" lon="9.493789406450468"><ele>1269.0</ele><time>2026-04-27T13:28:36.001Z</time></trkpt><trkpt lat="45.862686801661184" lon="9.493843573028597"><ele>1266.0</ele><time>2026-04-27T13:28:37.001Z</time></trkpt><trkpt lat="45.862582511328974" lon="9.493824031690794"><ele>1263.0</ele><time>2026-04-27T13:28:38.001Z</time></trkpt><trkpt lat="45.86246566225306" lon="9.493847513794384"><ele>1263.0</ele><time>2026-04-27T13:28:39.001Z</time></trkpt><trkpt lat="45.86234413296616" lon="9.493870019449938"><ele>1263.0</ele><time>2026-04-27T13:28:40.001Z</time></trkpt><trkpt lat="45.86222870520273" lon="9.49388129826218"><ele>1263.0</ele><time>2026-04-27T13:28:41.001Z</time></trkpt><trkpt lat="45.86208245500511" lon="9.493851607075769"><ele>1263.0</ele><time>2026-04-27T13:28:43.001Z</time></trkpt><trkpt lat="45.86200852359241" lon="9.493841210333306"><ele>1267.0</ele><time>2026-04-27T13:28:44.001Z</time></trkpt><trkpt lat="45.86202254080731" lon="9.493746628990905"><ele>1271.0</ele><time>2026-04-27T13:28:49.001Z</time></trkpt><trkpt lat="45.86208306925436" lon="9.493676517505193"><ele>1275.0</ele><time>2026-04-27T13:28:51.001Z</time></trkpt><trkpt lat="45.8621496455646" lon="9.493663144578216"><ele>1279.0</ele><time>2026-04-27T13:28:52.001Z</time></trkpt><trkpt lat="45.86225142196312" lon="9.493631911618824"><ele>1283.0</ele><time>2026-04-27T13:28:54.001Z</time></trkpt><trkpt lat="45.86235444234727" lon="9.49358378053945"><ele>1287.0</ele><time>2026-04-27T13:28:55.001Z</time></trkpt><trkpt lat="45.86244408761861" lon="9.493554645894697"><ele>1287.0</ele><time>2026-04-27T13:28:56.001Z</time></trkpt><trkpt lat="45.8625100394044" lon="9.493532231558847"><ele>1287.0</ele><time>2026-04-27T13:28:57.001Z</time></trkpt><trkpt lat="45.86262975779157" lon="9.49345000315998"><ele>1287.0</ele><time>2026-04-27T13:28:59.001Z</time></trkpt><trkpt lat="45.862689922595095" lon="9.493389845345819"><ele>1287.0</ele><time>2026-04-27T13:29:00.001Z</time></trkpt><trkpt lat="45.86275074726923" lon="9.493312784545074"><ele>1287.0</ele><time>2026-04-27T13:29:01.001Z</time></trkpt><trkpt lat="45.862815070795726" lon="9.493231145360365"><ele>1287.0</ele><time>2026-04-27T13:29:02.001Z</time></trkpt><trkpt lat="45.86287886230021" lon="9.493148963375873"><ele>1284.6</ele><time>2026-04-27T13:29:03.001Z</time></trkpt><trkpt lat="45.86296672163989" lon="9.49304485697179"><ele>1282.1999999999998</ele><time>2026-04-27T13:29:04.001Z</time></trkpt><trkpt lat="45.86307196298364" lon="9.492926391347845"><ele>1279.8</ele><time>2026-04-27T13:29:05.001Z</time></trkpt><trkpt lat="45.86313521771585" lon="9.492828633528136"><ele>1277.4</ele><time>2026-04-27T13:29:06.001Z</time></trkpt><trkpt lat="45.86317623465493" lon="9.492749776179394"><ele>1275.0</ele><time>2026-04-27T13:29:07.001Z</time></trkpt><trkpt lat="45.86323313525803" lon="9.492682427587427"><ele>1279.3333333333333</ele><time>2026-04-27T13:29:08.001Z</time></trkpt><trkpt lat="45.86328970727557" lon="9.492595662784861"><ele>1283.6666666666667</ele><time>2026-04-27T13:29:10.001Z</time></trkpt><trkpt lat="45.86334080909377" lon="9.492530251638629"><ele>1288.0</ele><time>2026-04-27T13:29:11.001Z</time></trkpt><trkpt lat="45.86342729688501" lon="9.492443017427902"><ele>1292.3333333333335</ele><time>2026-04-27T13:29:12.001Z</time></trkpt><trkpt lat="45.863517162402715" lon="9.492365660260456"><ele>1296.6666666666667</ele><time>2026-04-27T13:29:13.001Z</time></trkpt><trkpt lat="45.86359079390926" lon="9.492301800746315"><ele>1301.0</ele><time>2026-04-27T13:29:14.001Z</time></trkpt><trkpt lat="45.86368347723039" lon="9.492240528348633"><ele>1301.0</ele><time>2026-04-27T13:29:15.001Z</time></trkpt><trkpt lat="45.86374276979247" lon="9.492193581156677"><ele>1301.0</ele><time>2026-04-27T13:29:16.001Z</time></trkpt><trkpt lat="45.86383440518454" lon="9.492129186890802"><ele>1301.0</ele><time>2026-04-27T13:29:18.001Z</time></trkpt><trkpt lat="45.86377042154481" lon="9.492054911447191"><ele>1301.0</ele><time>2026-04-27T13:29:22.001Z</time></trkpt><trkpt lat="45.86364937436489" lon="9.492075034283106"><ele>1301.0</ele><time>2026-04-27T13:29:24.001Z</time></trkpt><trkpt lat="45.86358263791791" lon="9.492077571999854"><ele>1301.0</ele><time>2026-04-27T13:29:25.001Z</time></trkpt><trkpt lat="45.86347346189991" lon="9.492179371416766"><ele>1302.5</ele><time>2026-04-27T13:29:26.001Z</time></trkpt><trkpt lat="45.863379478403296" lon="9.492237775405734"><ele>1304.0</ele><time>2026-04-27T13:29:27.001Z</time></trkpt><trkpt lat="45.86328981239421" lon="9.4922679078204"><ele>1305.5</ele><time>2026-04-27T13:29:28.001Z</time></trkpt><trkpt lat="45.86320932031776" lon="9.492277224126305"><ele>1307.0</ele><time>2026-04-27T13:29:29.001Z</time></trkpt><trkpt lat="45.86314410025674" lon="9.4922717373421"><ele>1308.5</ele><time>2026-04-27T13:29:30.001Z</time></trkpt><trkpt lat="45.863099369524015" lon="9.492175243132216"><ele>1310.0</ele><time>2026-04-27T13:29:34.001Z</time></trkpt><trkpt lat="45.86303043391714" lon="9.492134876422785"><ele>1310.0</ele><time>2026-04-27T13:29:36.001Z</time></trkpt><trkpt lat="45.86309766295145" lon="9.492166158930639"><ele>1310.0</ele><time>2026-04-27T13:29:41.001Z</time></trkpt><trkpt lat="45.863155245350264" lon="9.492218723248428"><ele>1310.0</ele><time>2026-04-27T13:29:42.001Z</time></trkpt><trkpt lat="45.86321883528972" lon="9.492201759023322"><ele>1310.0</ele><time>2026-04-27T13:29:43.001Z</time></trkpt><trkpt lat="45.86328137003986" lon="9.492163902092457"><ele>1310.0</ele><time>2026-04-27T13:29:45.001Z</time></trkpt><trkpt lat="45.863367040897124" lon="9.492101625243443"><ele>1310.0</ele><time>2026-04-27T13:29:46.001Z</time></trkpt><trkpt lat="45.863450951760896" lon="9.492010069024568"><ele>1315.6666666666667</ele><time>2026-04-27T13:29:48Z</time></trkpt><trkpt lat="45.86350710363246" lon="9.491965706279881"><ele>1321.3333333333335</ele><time>2026-04-27T13:29:49Z</time></trkpt><trkpt lat="45.863594179649624" lon="9.491921555910807"><ele>1327.0</ele><time>2026-04-27T13:29:51Z</time></trkpt><trkpt lat="45.86367621808665" lon="9.491881259357854"><ele>1332.6666666666667</ele><time>2026-04-27T13:29:53Z</time></trkpt><trkpt lat="45.86375386445776" lon="9.491860194728996"><ele>1338.3333333333333</ele><time>2026-04-27T13:29:56Z</time></trkpt><trkpt lat="45.8638212592078" lon="9.491827081329152"><ele>1344.0</ele><time>2026-04-27T13:29:58Z</time></trkpt><trkpt lat="45.863912796299466" lon="9.491802019614322"><ele>1344.0</ele><time>2026-04-27T13:30:00Z</time></trkpt><trkpt lat="45.86399065737758" lon="9.49175560555518"><ele>1344.0</ele><time>2026-04-27T13:30:02Z</time></trkpt><trkpt lat="45.86409045778204" lon="9.491728266273467"><ele>1344.0</ele><time>2026-04-27T13:30:04Z</time></trkpt><trkpt lat="45.86416703841206" lon="9.491721435990543"><ele>1344.0</ele><time>2026-04-27T13:30:05Z</time></trkpt><trkpt lat="45.86427082045946" lon="9.491745336763401"><ele>1344.0</ele><time>2026-04-27T13:30:06Z</time></trkpt><trkpt lat="45.86436122941937" lon="9.49177006106892"><ele>1345.0</ele><time>2026-04-27T13:30:07Z</time></trkpt><trkpt lat="45.86445233530186" lon="9.491778471325832"><ele>1346.0</ele><time>2026-04-27T13:30:08Z</time></trkpt><trkpt lat="45.86452554526448" lon="9.49181285234274"><ele>1347.0</ele><time>2026-04-27T13:30:09Z</time></trkpt><trkpt lat="45.86460460482092" lon="9.491809497837348"><ele>1348.0</ele><time>2026-04-27T13:30:10Z</time></trkpt><trkpt lat="45.86468742168333" lon="9.491781480649411"><ele>1349.0</ele><time>2026-04-27T13:30:11Z</time></trkpt><trkpt lat="45.8647774573756" lon="9.491764057926126"><ele>1350.0</ele><time>2026-04-27T13:30:12Z</time></trkpt><trkpt lat="45.864877522686236" lon="9.491748718202688"><ele>1350.0</ele><time>2026-04-27T13:30:13Z</time></trkpt><trkpt lat="45.86496478760679" lon="9.491751303596468"><ele>1350.0</ele><time>2026-04-27T13:30:14Z</time></trkpt><trkpt lat="45.86506298939523" lon="9.491782039071708"><ele>1350.0</ele><time>2026-04-27T13:30:15Z</time></trkpt><trkpt lat="45.86516882272234" lon="9.49182269499611"><ele>1350.0</ele><time>2026-04-27T13:30:16Z</time></trkpt><trkpt lat="45.865337548019575" lon="9.491858975663996"><ele>1352.5</ele><time>2026-04-27T13:30:17Z</time></trkpt><trkpt lat="45.86548351114898" lon="9.491869474494365"><ele>1355.0</ele><time>2026-04-27T13:30:18Z</time></trkpt><trkpt lat="45.86562450619892" lon="9.491888857684666"><ele>1357.5</ele><time>2026-04-27T13:30:19Z</time></trkpt><trkpt lat="45.86573104146518" lon="9.491894204758376"><ele>1360.0</ele><time>2026-04-27T13:30:20Z</time></trkpt><trkpt lat="45.86582788389453" lon="9.491906677196114"><ele>1360.0</ele><time>2026-04-27T13:30:21Z</time></trkpt><trkpt lat="45.86589726473969" lon="9.491900691993536"><ele>1360.0</ele><time>2026-04-27T13:30:22Z</time></trkpt><trkpt lat="45.86601629493698" lon="9.491971805523397"><ele>1360.0</ele><time>2026-04-27T13:30:24Z</time></trkpt><trkpt lat="45.86611964981613" lon="9.491993207843233"><ele>1360.0</ele><time>2026-04-27T13:30:25Z</time></trkpt><trkpt lat="45.866240933338496" lon="9.492070568195652"><ele>1360.0</ele><time>2026-04-27T13:30:26Z</time></trkpt><trkpt lat="45.866331744985864" lon="9.49209978774114"><ele>1359.0</ele><time>2026-04-27T13:30:27Z</time></trkpt><trkpt lat="45.866426368273714" lon="9.49216991553019"><ele>1358.0</ele><time>2026-04-27T13:30:28Z</time></trkpt><trkpt lat="45.86652903427115" lon="9.49221320628197"><ele>1357.0</ele><time>2026-04-27T13:30:29Z</time></trkpt><trkpt lat="45.86663344943701" lon="9.492212104453992"><ele>1356.0</ele><time>2026-04-27T13:30:30Z</time></trkpt><trkpt lat="45.86673058436714" lon="9.492227151699083"><ele>1355.0</ele><time>2026-04-27T13:30:31Z</time></trkpt><trkpt lat="45.86680154913754" lon="9.492251540602476"><ele>1352.3333333333335</ele><time>2026-04-27T13:30:32Z</time></trkpt><trkpt lat="45.86685793457276" lon="9.492301785824289"><ele>1349.6666666666667</ele><time>2026-04-27T13:30:34Z</time></trkpt><trkpt lat="45.86692848351389" lon="9.492359898733321"><ele>1347.0</ele><time>2026-04-27T13:30:36Z</time></trkpt><trkpt lat="45.866996475563575" lon="9.492458728361195"><ele>1344.3333333333333</ele><time>2026-04-27T13:30:38Z</time></trkpt><trkpt lat="45.86705333257741" lon="9.492558398994593"><ele>1341.6666666666665</ele><time>2026-04-27T13:30:39Z</time></trkpt><trkpt lat="45.8671269167554" lon="9.492679937046331"><ele>1339.0</ele><time>2026-04-27T13:30:40Z</time></trkpt><trkpt lat="45.867194468734944" lon="9.49279505223751"><ele>1339.0</ele><time>2026-04-27T13:30:41Z</time></trkpt><trkpt lat="45.86726319739549" lon="9.492912174149149"><ele>1339.0</ele><time>2026-04-27T13:30:42Z</time></trkpt><trkpt lat="45.8673054517379" lon="9.49298023829099"><ele>1339.0</ele><time>2026-04-27T13:30:43Z</time></trkpt><trkpt lat="45.8673674636102" lon="9.493072834392423"><ele>1339.0</ele><time>2026-04-27T13:30:44Z</time></trkpt><trkpt lat="45.86744978182898" lon="9.493185487485418"><ele>1339.0</ele><time>2026-04-27T13:30:46Z</time></trkpt><trkpt lat="45.867549149504576" lon="9.493328266238922"><ele>1338.4</ele><time>2026-04-27T13:30:47Z</time></trkpt><trkpt lat="45.867602928543754" lon="9.493409211757939"><ele>1337.8000000000002</ele><time>2026-04-27T13:30:48Z</time></trkpt><trkpt lat="45.867674321141806" lon="9.493516199335986"><ele>1337.1999999999998</ele><time>2026-04-27T13:30:49Z</time></trkpt><trkpt lat="45.86774148136965" lon="9.493621987223328"><ele>1336.6</ele><time>2026-04-27T13:30:50Z</time></trkpt><trkpt lat="45.86783950559918" lon="9.493783556635865"><ele>1336.0</ele><time>2026-04-27T13:30:51Z</time></trkpt><trkpt lat="45.8679329589029" lon="9.49398576677959"><ele>1336.0</ele><time>2026-04-27T13:30:52Z</time></trkpt><trkpt lat="45.86797737925617" lon="9.494096610779852"><ele>1336.0</ele><time>2026-04-27T13:30:53Z</time></trkpt><trkpt lat="45.868033507842654" lon="9.494234628244282"><ele>1336.0</ele><time>2026-04-27T13:30:54Z</time></trkpt><trkpt lat="45.868083225904435" lon="9.494343301840601"><ele>1336.0</ele><time>2026-04-27T13:30:55Z</time></trkpt><trkpt lat="45.86811233540991" lon="9.494472485530322"><ele>1336.0</ele><time>2026-04-27T13:30:56Z</time></trkpt><trkpt lat="45.86813113651852" lon="9.494587603099927"><ele>1342.5</ele><time>2026-04-27T13:30:57Z</time></trkpt><trkpt lat="45.86817553257434" lon="9.494757040358529"><ele>1349.0</ele><time>2026-04-27T13:30:58Z</time></trkpt><trkpt lat="45.8682273017961" lon="9.494939314242037"><ele>1355.5</ele><time>2026-04-27T13:30:59Z</time></trkpt><trkpt lat="45.86825637361922" lon="9.495076018939068"><ele>1362.0</ele><time>2026-04-27T13:31:00Z</time></trkpt><trkpt lat="45.868319480771895" lon="9.49527667434012"><ele>1387.0</ele><time>2026-04-27T13:31:01Z</time></trkpt><trkpt lat="45.86794989900797" lon="9.496044537612889"><ele>1387.0</ele><time>2026-04-27T13:31:02Z</time></trkpt><trkpt lat="45.86799827653788" lon="9.496226402101584"><ele>1387.0</ele><time>2026-04-27T13:31:03Z</time></trkpt><trkpt lat="45.86800198692076" lon="9.49636570398814"><ele>1387.0</ele><time>2026-04-27T13:31:04Z</time></trkpt><trkpt lat="45.86803099353511" lon="9.496523830612187"><ele>1387.0</ele><time>2026-04-27T13:31:05Z</time></trkpt><trkpt lat="45.86806844930944" lon="9.496688425752653"><ele>1389.8</ele><time>2026-04-27T13:31:06Z</time></trkpt><trkpt lat="45.8680658276367" lon="9.49683393337534"><ele>1392.6</ele><time>2026-04-27T13:31:07Z</time></trkpt><trkpt lat="45.8680728782019" lon="9.49699650210115"><ele>1395.3999999999999</ele><time>2026-04-27T13:31:08Z</time></trkpt><trkpt lat="45.86807067756868" lon="9.497129658664669"><ele>1398.1999999999998</ele><time>2026-04-27T13:31:09Z</time></trkpt><trkpt lat="45.86806087791311" lon="9.497255633438979"><ele>1401.0</ele><time>2026-04-27T13:31:10Z</time></trkpt><trkpt lat="45.86805042558756" lon="9.497372989943848"><ele>1401.0</ele><time>2026-04-27T13:31:11Z</time></trkpt><trkpt lat="45.868018323666284" lon="9.497542330975309"><ele>1401.0</ele><time>2026-04-27T13:31:13Z</time></trkpt><trkpt lat="45.868006003213225" lon="9.497694547777698"><ele>1401.0</ele><time>2026-04-27T13:31:15Z</time></trkpt><trkpt lat="45.86800236024529" lon="9.49782832292847"><ele>1401.0</ele><time>2026-04-27T13:31:17Z</time></trkpt><trkpt lat="45.86799601636665" lon="9.497918937738378"><ele>1401.0</ele><time>2026-04-27T13:31:18Z</time></trkpt><trkpt lat="45.86800307358696" lon="9.498027783650965"><ele>1400.75</ele><time>2026-04-27T13:31:19Z</time></trkpt><trkpt lat="45.867997004902485" lon="9.498168693522219"><ele>1400.5</ele><time>2026-04-27T13:31:20Z</time></trkpt><trkpt lat="45.86801917450486" lon="9.498332902810754"><ele>1400.25</ele><time>2026-04-27T13:31:21Z</time></trkpt><trkpt lat="45.86806076094687" lon="9.498512269347685"><ele>1400.0</ele><time>2026-04-27T13:31:22Z</time></trkpt><trkpt lat="45.86811253034349" lon="9.49872605234755"><ele>1401.0</ele><time>2026-04-27T13:31:23Z</time></trkpt><trkpt lat="45.868175577635164" lon="9.498959550408994"><ele>1402.0</ele><time>2026-04-27T13:31:24Z</time></trkpt><trkpt lat="45.868248539063075" lon="9.499207072508067"><ele>1403.0</ele><time>2026-04-27T13:31:25Z</time></trkpt><trkpt lat="45.86829513612388" lon="9.499418831220733"><ele>1404.0</ele><time>2026-04-27T13:31:26Z</time></trkpt><trkpt lat="45.868339042640926" lon="9.499604734543599"><ele>1405.0</ele><time>2026-04-27T13:31:27Z</time></trkpt><trkpt lat="45.86836603970223" lon="9.499734706181306"><ele>1406.0</ele><time>2026-04-27T13:31:28Z</time></trkpt><trkpt lat="45.86840119600069" lon="9.49988274315314"><ele>1407.0</ele><time>2026-04-27T13:31:29Z</time></trkpt><trkpt lat="45.86842472779001" lon="9.500010419340617"><ele>1408.0</ele><time>2026-04-27T13:31:30Z</time></trkpt><trkpt lat="45.86844388135088" lon="9.500120483892925"><ele>1404.4</ele><time>2026-04-27T13:31:31Z</time></trkpt><trkpt lat="45.868474747336556" lon="9.500241622169867"><ele>1400.8000000000002</ele><time>2026-04-27T13:31:32Z</time></trkpt><trkpt lat="45.868504056073824" lon="9.500365694343087"><ele>1397.2</ele><time>2026-04-27T13:31:33Z</time></trkpt><trkpt lat="45.86852654834137" lon="9.500485439758425"><ele>1393.6</ele><time>2026-04-27T13:31:34Z</time></trkpt><trkpt lat="45.86855143227479" lon="9.50064134929623"><ele>1390.0</ele><time>2026-04-27T13:31:35Z</time></trkpt><trkpt lat="45.868568664561586" lon="9.500817857859863"><ele>1390.0</ele><time>2026-04-27T13:31:36Z</time></trkpt><trkpt lat="45.86857538653637" lon="9.500985969198428"><ele>1390.0</ele><time>2026-04-27T13:31:37Z</time></trkpt><trkpt lat="45.86857357140418" lon="9.501136511852732"><ele>1390.0</ele><time>2026-04-27T13:31:38Z</time></trkpt><trkpt lat="45.86857767911313" lon="9.501272512247644"><ele>1390.0</ele><time>2026-04-27T13:31:39Z</time></trkpt><trkpt lat="45.86859634672991" lon="9.501361994073344"><ele>1390.0</ele><time>2026-04-27T13:31:41Z</time></trkpt><trkpt lat="45.868663194187455" lon="9.501440817888016"><ele>1393.2</ele><time>2026-04-27T13:31:43Z</time></trkpt><trkpt lat="45.86872435101529" lon="9.501561864448782"><ele>1396.4</ele><time>2026-04-27T13:31:45Z</time></trkpt><trkpt lat="45.868755700188785" lon="9.50166170829136"><ele>1399.6</ele><time>2026-04-27T13:31:46Z</time></trkpt><trkpt lat="45.86880109885065" lon="9.501780737136647"><ele>1402.8</ele><time>2026-04-27T13:31:47Z</time></trkpt><trkpt lat="45.86886017989073" lon="9.50189538210809"><ele>1406.0</ele><time>2026-04-27T13:31:48Z</time></trkpt><trkpt lat="45.8689231316052" lon="9.50201425803986"><ele>1406.0</ele><time>2026-04-27T13:31:49Z</time></trkpt><trkpt lat="45.86900417191879" lon="9.502120506153041"><ele>1406.0</ele><time>2026-04-27T13:31:50Z</time></trkpt><trkpt lat="45.86905361429423" lon="9.502236707176925"><ele>1406.0</ele><time>2026-04-27T13:31:51Z</time></trkpt><trkpt lat="45.869097275316605" lon="9.502318587356825"><ele>1406.0</ele><time>2026-04-27T13:31:52Z</time></trkpt><trkpt lat="45.86918004002201" lon="9.502503301875814"><ele>1406.0</ele><time>2026-04-27T13:31:54Z</time></trkpt><trkpt lat="45.86924184410219" lon="9.502597590601773"><ele>1405.6666666666667</ele><time>2026-04-27T13:31:55Z</time></trkpt><trkpt lat="45.8692809674867" lon="9.502692473167157"><ele>1405.3333333333335</ele><time>2026-04-27T13:31:57Z</time></trkpt><trkpt lat="45.86927729697083" lon="9.502806680708597"><ele>1405.0</ele><time>2026-04-27T13:31:59Z</time></trkpt><trkpt lat="45.869306021281496" lon="9.502887736617037"><ele>1404.6666666666667</ele><time>2026-04-27T13:32:00Z</time></trkpt><trkpt lat="45.86936231131123" lon="9.503000015147853"><ele>1404.3333333333333</ele><time>2026-04-27T13:32:01Z</time></trkpt><trkpt lat="45.86940921484719" lon="9.503075124355272"><ele>1404.0</ele><time>2026-04-27T13:32:02Z</time></trkpt><trkpt lat="45.86945230947694" lon="9.503173596684219"><ele>1404.0</ele><time>2026-04-27T13:32:03Z</time></trkpt><trkpt lat="45.8694770089154" lon="9.503297377763362"><ele>1404.0</ele><time>2026-04-27T13:32:04Z</time></trkpt><trkpt lat="45.869525154919515" lon="9.503449404551406"><ele>1404.0</ele><time>2026-04-27T13:32:05Z</time></trkpt><trkpt lat="45.869555818372284" lon="9.503600024419098"><ele>1404.0</ele><time>2026-04-27T13:32:06Z</time></trkpt><trkpt lat="45.869596286667914" lon="9.503766660430012"><ele>1404.0</ele><time>2026-04-27T13:32:08Z</time></trkpt><trkpt lat="45.86962038103455" lon="9.503883332710954"><ele>1406.6</ele><time>2026-04-27T13:32:09Z</time></trkpt><trkpt lat="45.86964590081638" lon="9.503991414392846"><ele>1409.2</ele><time>2026-04-27T13:32:10Z</time></trkpt><trkpt lat="45.86966851596748" lon="9.504100553194968"><ele>1411.8</ele><time>2026-04-27T13:32:11Z</time></trkpt><trkpt lat="45.86968307980127" lon="9.504224260760688"><ele>1414.3999999999999</ele><time>2026-04-27T13:32:12Z</time></trkpt><trkpt lat="45.86970177547459" lon="9.504375916875107"><ele>1417.0</ele><time>2026-04-27T13:32:13Z</time></trkpt><trkpt lat="45.86971854478812" lon="9.504528918965198"><ele>1418.6</ele><time>2026-04-27T13:32:14Z</time></trkpt><trkpt lat="45.86971834675323" lon="9.504688544679862"><ele>1420.1999999999998</ele><time>2026-04-27T13:32:16Z</time></trkpt><trkpt lat="45.86973142424955" lon="9.504845146390114"><ele>1421.8</ele><time>2026-04-27T13:32:18Z</time></trkpt><trkpt lat="45.869751727871666" lon="9.504936787981844"><ele>1423.4</ele><time>2026-04-27T13:32:19Z</time></trkpt><trkpt lat="45.869777385940026" lon="9.505061606188542"><ele>1425.0</ele><time>2026-04-27T13:32:20Z</time></trkpt><trkpt lat="45.86981751585758" lon="9.505208042434994"><ele>1425.0</ele><time>2026-04-27T13:32:21Z</time></trkpt><trkpt lat="45.869850012303445" lon="9.50534461406546"><ele>1425.0</ele><time>2026-04-27T13:32:22Z</time></trkpt><trkpt lat="45.86987348868752" lon="9.505464454164152"><ele>1425.0</ele><time>2026-04-27T13:32:23Z</time></trkpt><trkpt lat="45.869901053411226" lon="9.505617436727103"><ele>1425.0</ele><time>2026-04-27T13:32:24Z</time></trkpt><trkpt lat="45.869931100309806" lon="9.505780629086637"><ele>1425.0</ele><time>2026-04-27T13:32:25Z</time></trkpt><trkpt lat="45.86995236112899" lon="9.505924262365529"><ele>1424.6</ele><time>2026-04-27T13:32:26Z</time></trkpt><trkpt lat="45.86997011718177" lon="9.506071691433245"><ele>1424.2</ele><time>2026-04-27T13:32:27Z</time></trkpt><trkpt lat="45.869977427807726" lon="9.506237787196177"><ele>1423.8000000000002</ele><time>2026-04-27T13:32:28Z</time></trkpt><trkpt lat="45.86998651359768" lon="9.506387573884343"><ele>1423.4</ele><time>2026-04-27T13:32:29Z</time></trkpt><trkpt lat="45.86999560003148" lon="9.506520295560248"><ele>1423.0</ele><time>2026-04-27T13:32:30Z</time></trkpt><trkpt lat="45.87000338571574" lon="9.506658553462458"><ele>1422.5</ele><time>2026-04-27T13:32:31Z</time></trkpt><trkpt lat="45.87001362481481" lon="9.50680347473152"><ele>1422.0</ele><time>2026-04-27T13:32:32Z</time></trkpt><trkpt lat="45.87002951148805" lon="9.506950520835057"><ele>1421.5</ele><time>2026-04-27T13:32:33Z</time></trkpt><trkpt lat="45.870054976031525" lon="9.50712847217162"><ele>1421.0</ele><time>2026-04-27T13:32:34Z</time></trkpt><trkpt lat="45.87008776723918" lon="9.507302892856666"><ele>1416.0</ele><time>2026-04-27T13:32:35Z</time></trkpt><trkpt lat="45.87011691294818" lon="9.507487611072335"><ele>1411.0</ele><time>2026-04-27T13:32:36Z</time></trkpt><trkpt lat="45.87014967797285" lon="9.507683071951961"><ele>1406.0</ele><time>2026-04-27T13:32:37Z</time></trkpt><trkpt lat="45.8701798913903" lon="9.507867364968403"><ele>1401.0</ele><time>2026-04-27T13:32:38Z</time></trkpt><trkpt lat="45.87020617091405" lon="9.508052633772358"><ele>1401.0</ele><time>2026-04-27T13:32:39Z</time></trkpt><trkpt lat="45.870227410932884" lon="9.508244822802256"><ele>1401.0</ele><time>2026-04-27T13:32:40Z</time></trkpt><trkpt lat="45.8702520637116" lon="9.50842975697982"><ele>1401.0</ele><time>2026-04-27T13:32:41Z</time></trkpt><trkpt lat="45.870276126680324" lon="9.508612171570485"><ele>1401.0</ele><time>2026-04-27T13:32:42Z</time></trkpt><trkpt lat="45.87030070267078" lon="9.508783441872197"><ele>1403.75</ele><time>2026-04-27T13:32:43Z</time></trkpt><trkpt lat="45.87032985286861" lon="9.508954809771678"><ele>1406.5</ele><time>2026-04-27T13:32:44Z</time></trkpt><trkpt lat="45.87037870723318" lon="9.509136735862633"><ele>1409.25</ele><time>2026-04-27T13:32:45Z</time></trkpt><trkpt lat="45.87043522182222" lon="9.50929588777296"><ele>1412.0</ele><time>2026-04-27T13:32:46Z</time></trkpt><trkpt lat="45.87048835682686" lon="9.509462498521938"><ele>1415.5</ele><time>2026-04-27T13:32:47Z</time></trkpt><trkpt lat="45.870549905310114" lon="9.509648031488473"><ele>1419.0</ele><time>2026-04-27T13:32:48Z</time></trkpt><trkpt lat="45.87059384267117" lon="9.509851899809062"><ele>1422.5</ele><time>2026-04-27T13:32:49Z</time></trkpt><trkpt lat="45.87062294793255" lon="9.510024723968233"><ele>1426.0</ele><time>2026-04-27T13:32:50Z</time></trkpt><trkpt lat="45.87064409394796" lon="9.510202588707285"><ele>1426.0</ele><time>2026-04-27T13:32:51Z</time></trkpt><trkpt lat="45.870652941106165" lon="9.51035520864886"><ele>1426.0</ele><time>2026-04-27T13:32:52Z</time></trkpt><trkpt lat="45.870660636078675" lon="9.510522027106276"><ele>1426.0</ele><time>2026-04-27T13:32:53Z</time></trkpt><trkpt lat="45.87065018093725" lon="9.510686258426391"><ele>1426.0</ele><time>2026-04-27T13:32:54Z</time></trkpt><trkpt lat="45.870653411732405" lon="9.510820006645348"><ele>1426.0</ele><time>2026-04-27T13:32:55Z</time></trkpt><trkpt lat="45.87066035556783" lon="9.510927657168324"><ele>1429.1999999999998</ele><time>2026-04-27T13:32:56Z</time></trkpt><trkpt lat="45.870671032181065" lon="9.511044948945157"><ele>1432.3999999999999</ele><time>2026-04-27T13:32:57Z</time></trkpt><trkpt lat="45.87067618495843" lon="9.51116529114949"><ele>1435.6</ele><time>2026-04-27T13:32:58Z</time></trkpt><trkpt lat="45.870671160724164" lon="9.511300701583325"><ele>1438.8</ele><time>2026-04-27T13:32:59Z</time></trkpt><trkpt lat="45.870665844050656" lon="9.511459876476263"><ele>1442.0</ele><time>2026-04-27T13:33:00Z</time></trkpt><trkpt lat="45.87065585858038" lon="9.511618972663662"><ele>1444.8</ele><time>2026-04-27T13:33:01Z</time></trkpt><trkpt lat="45.87064440195918" lon="9.511762228905157"><ele>1447.6</ele><time>2026-04-27T13:33:02Z</time></trkpt><trkpt lat="45.87061933889814" lon="9.511909200236925"><ele>1450.3999999999999</ele><time>2026-04-27T13:33:03Z</time></trkpt><trkpt lat="45.870594368715736" lon="9.512062486833422"><ele>1453.1999999999998</ele><time>2026-04-27T13:33:04Z</time></trkpt><trkpt lat="45.87056493920376" lon="9.512213364983307"><ele>1456.0</ele><time>2026-04-27T13:33:05Z</time></trkpt><trkpt lat="45.87053604384235" lon="9.512320255357356"><ele>1458.1999999999998</ele><time>2026-04-27T13:33:06Z</time></trkpt><trkpt lat="45.87050591947353" lon="9.51243156363888"><ele>1460.3999999999999</ele><time>2026-04-27T13:33:07Z</time></trkpt><trkpt lat="45.87047109609075" lon="9.512550181745095"><ele>1462.6</ele><time>2026-04-27T13:33:08Z</time></trkpt><trkpt lat="45.87041946957749" lon="9.51263320669116"><ele>1464.8</ele><time>2026-04-27T13:33:10Z</time></trkpt><trkpt lat="45.87038280930278" lon="9.512783834107083"><ele>1467.0</ele><time>2026-04-27T13:33:12Z</time></trkpt><trkpt lat="45.87029709478545" lon="9.512823628098788"><ele>1467.0</ele><time>2026-04-27T13:33:32Z</time></trkpt><trkpt lat="45.87019154182556" lon="9.51286907412761"><ele>1467.0</ele><time>2026-04-27T13:33:34Z</time></trkpt><trkpt lat="45.870123233701946" lon="9.512892288790173"><ele>1467.0</ele><time>2026-04-27T13:33:35Z</time></trkpt><trkpt lat="45.87004055164256" lon="9.512908424036462"><ele>1467.0</ele><time>2026-04-27T13:33:37Z</time></trkpt><trkpt lat="45.86995884141616" lon="9.512914064767985"><ele>1467.0</ele><time>2026-04-27T13:33:39Z</time></trkpt><trkpt lat="45.869841010866374" lon="9.512907189830182"><ele>1465.6</ele><time>2026-04-27T13:33:41Z</time></trkpt><trkpt lat="45.86972379550684" lon="9.512915528096075"><ele>1464.1999999999998</ele><time>2026-04-27T13:33:43Z</time></trkpt><trkpt lat="45.86965729103736" lon="9.51290018445069"><ele>1462.8</ele><time>2026-04-27T13:33:44Z</time></trkpt><trkpt lat="45.86956890363008" lon="9.512894335785004"><ele>1461.4</ele><time>2026-04-27T13:33:46Z</time></trkpt><trkpt lat="45.8694765093893" lon="9.512882254738438"><ele>1460.0</ele><time>2026-04-27T13:33:48Z</time></trkpt><trkpt lat="45.869359474266844" lon="9.512886574068947"><ele>1459.3333333333335</ele><time>2026-04-27T13:33:50Z</time></trkpt><trkpt lat="45.86926966123828" lon="9.51295739497287"><ele>1458.6666666666667</ele><time>2026-04-27T13:33:52Z</time></trkpt><trkpt lat="45.86921705876121" lon="9.513034957618613"><ele>1458.0</ele><time>2026-04-27T13:33:53Z</time></trkpt><trkpt lat="45.86915084446479" lon="9.513115267880796"><ele>1457.3333333333333</ele><time>2026-04-27T13:33:54Z</time></trkpt><trkpt lat="45.86909109101658" lon="9.513214186602069"><ele>1456.6666666666665</ele><time>2026-04-27T13:33:55Z</time></trkpt><trkpt lat="45.86904326426813" lon="9.513308703856342"><ele>1456.0</ele><time>2026-04-27T13:33:56Z</time></trkpt><trkpt lat="45.868983648387974" lon="9.513460946468022"><ele>1456.0</ele><time>2026-04-27T13:33:57Z</time></trkpt><trkpt lat="45.868931703725785" lon="9.513576409509508"><ele>1456.0</ele><time>2026-04-27T13:33:58Z</time></trkpt><trkpt lat="45.86887159151565" lon="9.513726663994902"><ele>1456.0</ele><time>2026-04-27T13:33:59Z</time></trkpt><trkpt lat="45.86882130399555" lon="9.513848893580791"><ele>1456.0</ele><time>2026-04-27T13:34:00Z</time></trkpt><trkpt lat="45.86878912767778" lon="9.513992989514463"><ele>1456.0</ele><time>2026-04-27T13:34:01Z</time></trkpt><trkpt lat="45.868772454774394" lon="9.514134047129666"><ele>1457.5</ele><time>2026-04-27T13:34:02Z</time></trkpt><trkpt lat="45.868755617106395" lon="9.514297677438591"><ele>1459.0</ele><time>2026-04-27T13:34:03Z</time></trkpt><trkpt lat="45.86874639367687" lon="9.514497070036766"><ele>1460.5</ele><time>2026-04-27T13:34:04Z</time></trkpt><trkpt lat="45.86873992768168" lon="9.51470251307904"><ele>1462.0</ele><time>2026-04-27T13:34:05Z</time></trkpt><trkpt lat="45.86873952085413" lon="9.514880195545572"><ele>1462.75</ele><time>2026-04-27T13:34:06Z</time></trkpt><trkpt lat="45.868741459567" lon="9.515068756104515"><ele>1463.5</ele><time>2026-04-27T13:34:07Z</time></trkpt><trkpt lat="45.868741593599246" lon="9.515240876351717"><ele>1464.25</ele><time>2026-04-27T13:34:08Z</time></trkpt><trkpt lat="45.86874753440511" lon="9.515394479696566"><ele>1465.0</ele><time>2026-04-27T13:34:09Z</time></trkpt><trkpt lat="45.86876161219741" lon="9.515546040841341"><ele>1465.4</ele><time>2026-04-27T13:34:10Z</time></trkpt><trkpt lat="45.86877227082555" lon="9.515685026228667"><ele>1465.8</ele><time>2026-04-27T13:34:11Z</time></trkpt><trkpt lat="45.86877953781198" lon="9.515795618594554"><ele>1466.1999999999998</ele><time>2026-04-27T13:34:12Z</time></trkpt><trkpt lat="45.868777667665434" lon="9.515927005507187"><ele>1466.6</ele><time>2026-04-27T13:34:14Z</time></trkpt><trkpt lat="45.86878245839596" lon="9.516058252686694"><ele>1467.0</ele><time>2026-04-27T13:34:16Z</time></trkpt><trkpt lat="45.86877481105826" lon="9.516212472388046"><ele>1466.3999999999999</ele><time>2026-04-27T13:34:18Z</time></trkpt><trkpt lat="45.86877387982986" lon="9.516369526585823"><ele>1465.8</ele><time>2026-04-27T13:34:20Z</time></trkpt><trkpt lat="45.868765672618395" lon="9.51652378466653"><ele>1465.2</ele><time>2026-04-27T13:34:22Z</time></trkpt><trkpt lat="45.86874989284671" lon="9.516686332331526"><ele>1464.6</ele><time>2026-04-27T13:34:24Z</time></trkpt><trkpt lat="45.8687731673499" lon="9.516829745046282"><ele>1464.0</ele><time>2026-04-27T13:34:26Z</time></trkpt><trkpt lat="45.86879597159567" lon="9.516964864906434"><ele>1462.5</ele><time>2026-04-27T13:34:28Z</time></trkpt><trkpt lat="45.86881501805131" lon="9.51710504681413"><ele>1461.0</ele><time>2026-04-27T13:34:30Z</time></trkpt><trkpt lat="45.86883125024096" lon="9.517211862769313"><ele>1459.5</ele><time>2026-04-27T13:34:32Z</time></trkpt><trkpt lat="45.868845814778695" lon="9.517310650044276"><ele>1458.0</ele><time>2026-04-27T13:34:34Z</time></trkpt><trkpt lat="45.86886808755248" lon="9.517406913174973"><ele>1456.5</ele><time>2026-04-27T13:34:36Z</time></trkpt><trkpt lat="45.868886624276406" lon="9.51750208812799"><ele>1455.0</ele><time>2026-04-27T13:34:38Z</time></trkpt><trkpt lat="45.86890800498875" lon="9.517600634792151"><ele>1455.0</ele><time>2026-04-27T13:34:40Z</time></trkpt><trkpt lat="45.86893646967998" lon="9.51773834178728"><ele>1455.0</ele><time>2026-04-27T13:34:43Z</time></trkpt><trkpt lat="45.868961823391686" lon="9.517871714858865"><ele>1455.0</ele><time>2026-04-27T13:34:45Z</time></trkpt><trkpt lat="45.86897459562875" lon="9.517963230658816"><ele>1455.0</ele><time>2026-04-27T13:34:50Z</time></trkpt><trkpt lat="45.868970493555395" lon="9.518145364554478"><ele>1455.0</ele><time>2026-04-27T13:34:52Z</time></trkpt><trkpt lat="45.86889578525224" lon="9.518290633890107"><ele>1454.8</ele><time>2026-04-27T13:34:54Z</time></trkpt><trkpt lat="45.86885339482701" lon="9.518370412408748"><ele>1454.6</ele><time>2026-04-27T13:34:55Z</time></trkpt><trkpt lat="45.868806232899686" lon="9.518458602490414"><ele>1454.4</ele><time>2026-04-27T13:34:56Z</time></trkpt><trkpt lat="45.86875777505131" lon="9.518535843422201"><ele>1454.2</ele><time>2026-04-27T13:34:57Z</time></trkpt><trkpt lat="45.86868713417672" lon="9.5186800219068"><ele>1454.0</ele><time>2026-04-27T13:34:59Z</time></trkpt><trkpt lat="45.86861949683032" lon="9.518825275842246"><ele>1452.0</ele><time>2026-04-27T13:35:01Z</time></trkpt><trkpt lat="45.86858160649881" lon="9.51892944792545"><ele>1450.0</ele><time>2026-04-27T13:35:02Z</time></trkpt><trkpt lat="45.86855171083905" lon="9.519036495335708"><ele>1448.0</ele><time>2026-04-27T13:35:03Z</time></trkpt><trkpt lat="45.868522534235154" lon="9.51914012416553"><ele>1446.0</ele><time>2026-04-27T13:35:04Z</time></trkpt><trkpt lat="45.868467060706685" lon="9.519304321797296"><ele>1444.0</ele><time>2026-04-27T13:35:06Z</time></trkpt><trkpt lat="45.86844162565989" lon="9.519389738304039"><ele>1442.0</ele><time>2026-04-27T13:35:07Z</time></trkpt><trkpt lat="45.868426352208246" lon="9.519482780931572"><ele>1443.6</ele><time>2026-04-27T13:35:08Z</time></trkpt><trkpt lat="45.868400476291264" lon="9.519639540507573"><ele>1445.1999999999998</ele><time>2026-04-27T13:35:10Z</time></trkpt><trkpt lat="45.86838570190498" lon="9.519798438014433"><ele>1446.8</ele><time>2026-04-27T13:35:12Z</time></trkpt><trkpt lat="45.868375546648466" lon="9.519952882418787"><ele>1448.4</ele><time>2026-04-27T13:35:14Z</time></trkpt><trkpt lat="45.86834577187079" lon="9.520107626353145"><ele>1450.0</ele><time>2026-04-27T13:35:16Z</time></trkpt><trkpt lat="45.86834871092329" lon="9.520237513408873"><ele>1450.0</ele><time>2026-04-27T13:35:18Z</time></trkpt><trkpt lat="45.868351236488756" lon="9.520364791792764"><ele>1450.0</ele><time>2026-04-27T13:35:20Z</time></trkpt><trkpt lat="45.86833210387947" lon="9.520477437584086"><ele>1450.0</ele><time>2026-04-27T13:35:23Z</time></trkpt><trkpt lat="45.8682935135331" lon="9.520596732034628"><ele>1450.0</ele><time>2026-04-27T13:35:27Z</time></trkpt><trkpt lat="45.86829105944939" lon="9.520737954843575"><ele>1450.0</ele><time>2026-04-27T13:35:29Z</time></trkpt><trkpt lat="45.86829105945176" lon="9.520863813446633"><ele>1450.0</ele><time>2026-04-27T13:35:31Z</time></trkpt><trkpt lat="45.86827821098505" lon="9.521019261591473"><ele>1449.25</ele><time>2026-04-27T13:35:32Z</time></trkpt><trkpt lat="45.868314111717574" lon="9.521135291751643"><ele>1448.5</ele><time>2026-04-27T13:35:34Z</time></trkpt><trkpt lat="45.86836464826002" lon="9.52126905424934"><ele>1447.75</ele><time>2026-04-27T13:35:36Z</time></trkpt><trkpt lat="45.86840269300198" lon="9.521364609515219"><ele>1447.0</ele><time>2026-04-27T13:35:38Z</time></trkpt><trkpt lat="45.86899221418246" lon="9.522030794967328"><ele>1453.6666666666665</ele><time>2026-04-27T13:35:53Z</time></trkpt><trkpt lat="45.8690885510186" lon="9.522102535158137"><ele>1460.3333333333333</ele><time>2026-04-27T13:35:55Z</time></trkpt><trkpt lat="45.8691685011002" lon="9.522154480096697"><ele>1467.0</ele><time>2026-04-27T13:35:57Z</time></trkpt><trkpt lat="45.869236793048884" lon="9.522195471146684"><ele>1473.6666666666667</ele><time>2026-04-27T13:35:58Z</time></trkpt><trkpt lat="45.86930695177247" lon="9.522261437963577"><ele>1480.3333333333335</ele><time>2026-04-27T13:35:59Z</time></trkpt><trkpt lat="45.86937855519235" lon="9.522264746100074"><ele>1487.0</ele><time>2026-04-27T13:36:01Z</time></trkpt><trkpt lat="45.869450887116564" lon="9.522280750406056"><ele>1489.3333333333335</ele><time>2026-04-27T13:36:03Z</time></trkpt><trkpt lat="45.869524781377116" lon="9.522350757091466"><ele>1491.6666666666667</ele><time>2026-04-27T13:36:10Z</time></trkpt><trkpt lat="45.86960454130383" lon="9.52244119227327"><ele>1494.0</ele><time>2026-04-27T13:36:12Z</time></trkpt><trkpt lat="45.86966659680884" lon="9.522545177771523"><ele>1496.3333333333333</ele><time>2026-04-27T13:36:14Z</time></trkpt><trkpt lat="45.86971407478759" lon="9.522643930324996"><ele>1498.6666666666665</ele><time>2026-04-27T13:36:16Z</time></trkpt><trkpt lat="45.86977721273557" lon="9.52265206324696"><ele>1501.0</ele><time>2026-04-27T13:36:20Z</time></trkpt><trkpt lat="45.86977854994881" lon="9.522509874603347"><ele>1501.0</ele><time>2026-04-27T13:36:22Z</time></trkpt><trkpt lat="45.86974537599013" lon="9.522406854708604"><ele>1501.0</ele><time>2026-04-27T13:36:23Z</time></trkpt><trkpt lat="45.86970693083695" lon="9.522298215556347"><ele>1501.0</ele><time>2026-04-27T13:36:24Z</time></trkpt><trkpt lat="45.86966591467899" lon="9.522186134952907"><ele>1501.0</ele><time>2026-04-27T13:36:25Z</time></trkpt><trkpt lat="45.869628535116505" lon="9.521996891792973"><ele>1501.0</ele><time>2026-04-27T13:36:27Z</time></trkpt><trkpt lat="45.86962705968906" lon="9.521851866863102"><ele>1497.0</ele><time>2026-04-27T13:36:28Z</time></trkpt><trkpt lat="45.86962881059737" lon="9.521654763492537"><ele>1493.0</ele><time>2026-04-27T13:36:29Z</time></trkpt><trkpt lat="45.86962794099751" lon="9.521445164159744"><ele>1489.0</ele><time>2026-04-27T13:36:30Z</time></trkpt><trkpt lat="45.86961207627027" lon="9.521234194766832"><ele>1485.0</ele><time>2026-04-27T13:36:31Z</time></trkpt><trkpt lat="45.86959435721892" lon="9.521011213203849"><ele>1485.0</ele><time>2026-04-27T13:36:32Z</time></trkpt><trkpt lat="45.86957527120913" lon="9.520794413457145"><ele>1485.0</ele><time>2026-04-27T13:36:33Z</time></trkpt><trkpt lat="45.869548502349396" lon="9.520622707024925"><ele>1485.0</ele><time>2026-04-27T13:36:34Z</time></trkpt><trkpt lat="45.86952227683283" lon="9.520498708621533"><ele>1485.0</ele><time>2026-04-27T13:36:35Z</time></trkpt><trkpt lat="45.86948635461087" lon="9.520359165479272"><ele>1485.142857142857</ele><time>2026-04-27T13:36:36Z</time></trkpt><trkpt lat="45.869468957514655" lon="9.520259033579714"><ele>1485.2857142857142</ele><time>2026-04-27T13:36:38Z</time></trkpt><trkpt lat="45.86948613555757" lon="9.520170658235493"><ele>1485.4285714285716</ele><time>2026-04-27T13:36:41Z</time></trkpt><trkpt lat="45.869413418839734" lon="9.520176013959684"><ele>1485.5714285714284</ele><time>2026-04-27T13:36:49Z</time></trkpt><trkpt lat="45.86934949279393" lon="9.520194783241903"><ele>1485.7142857142856</ele><time>2026-04-27T13:36:51Z</time></trkpt><trkpt lat="45.86928409588403" lon="9.520178123991679"><ele>1485.857142857143</ele><time>2026-04-27T13:36:55Z</time></trkpt><trkpt lat="45.869230698132625" lon="9.520263116177716"><ele>1486.0</ele><time>2026-04-27T13:41:13Z</time></trkpt><trkpt lat="45.86930951070318" lon="9.520293870971907"><ele>1485.8333333333333</ele><time>2026-04-27T13:41:16Z</time></trkpt><trkpt lat="45.869378524792666" lon="9.520266119388186"><ele>1485.6666666666665</ele><time>2026-04-27T13:41:18Z</time></trkpt><trkpt lat="45.86946477642483" lon="9.52031325188359"><ele>1485.5</ele><time>2026-04-27T13:41:21Z</time></trkpt><trkpt lat="45.869506743789664" lon="9.520413795018758"><ele>1485.3333333333333</ele><time>2026-04-27T13:41:23Z</time></trkpt><trkpt lat="45.86952688799367" lon="9.52054585372452"><ele>1485.1666666666667</ele><time>2026-04-27T13:41:25Z</time></trkpt><trkpt lat="45.86954228113313" lon="9.52069017385206"><ele>1485.0</ele><time>2026-04-27T13:41:27Z</time></trkpt><trkpt lat="45.8695702076337" lon="9.5208253756671"><ele>1485.0</ele><time>2026-04-27T13:41:29Z</time></trkpt><trkpt lat="45.869584749819204" lon="9.52099311121294"><ele>1485.0</ele><time>2026-04-27T13:41:31Z</time></trkpt><trkpt lat="45.869589595450215" lon="9.521154131434143"><ele>1485.0</ele><time>2026-04-27T13:41:33Z</time></trkpt><trkpt lat="45.86957053966492" lon="9.521241774688194"><ele>1485.0</ele><time>2026-04-27T13:41:34Z</time></trkpt><trkpt lat="45.8695084812935" lon="9.521394652264656"><ele>1485.0</ele><time>2026-04-27T13:41:36Z</time></trkpt><trkpt lat="45.86943925218588" lon="9.521484454602525"><ele>1484.8</ele><time>2026-04-27T13:41:38Z</time></trkpt><trkpt lat="45.86937797933842" lon="9.521509900611582"><ele>1484.6</ele><time>2026-04-27T13:41:39Z</time></trkpt><trkpt lat="45.86928790481843" lon="9.521546123502652"><ele>1484.4</ele><time>2026-04-27T13:41:41Z</time></trkpt><trkpt lat="45.86920644559879" lon="9.521627860684902"><ele>1484.2</ele><time>2026-04-27T13:41:43Z</time></trkpt><trkpt lat="45.869130178868595" lon="9.521722422213491"><ele>1484.0</ele><time>2026-04-27T13:41:45Z</time></trkpt><trkpt lat="45.869050840876554" lon="9.521802252820505"><ele>1483.0</ele><time>2026-04-27T13:41:47Z</time></trkpt><trkpt lat="45.86899857997923" lon="9.521856908902098"><ele>1482.0</ele><time>2026-04-27T13:41:49Z</time></trkpt><trkpt lat="45.86894068055493" lon="9.521937549349214"><ele>1481.0</ele><time>2026-04-27T13:41:51Z</time></trkpt><trkpt lat="45.868866227448365" lon="9.52186494608267"><ele>1480.0</ele><time>2026-04-27T13:41:54.999Z</time></trkpt><trkpt lat="45.86883681698328" lon="9.521682026138116"><ele>1479.0</ele><time>2026-04-27T13:41:56.999Z</time></trkpt><trkpt lat="45.868827075107774" lon="9.521592500366618"><ele>1478.0</ele><time>2026-04-27T13:41:58Z</time></trkpt><trkpt lat="45.868798480401246" lon="9.521455372945677"><ele>1478.0</ele><time>2026-04-27T13:42:00Z</time></trkpt><trkpt lat="45.86876835053877" lon="9.52133153707229"><ele>1478.0</ele><time>2026-04-27T13:42:02Z</time></trkpt><trkpt lat="45.868738187413705" lon="9.521225275222742"><ele>1478.0</ele><time>2026-04-27T13:42:04Z</time></trkpt><trkpt lat="45.868714397858426" lon="9.52113629801109"><ele>1478.0</ele><time>2026-04-27T13:42:06Z</time></trkpt><trkpt lat="45.86865294819182" lon="9.521045629110269"><ele>1478.0</ele><time>2026-04-27T13:42:08Z</time></trkpt><trkpt lat="45.86859390898957" lon="9.520966685118507"><ele>1478.0</ele><time>2026-04-27T13:42:10Z</time></trkpt><trkpt lat="45.86849130805797" lon="9.520938639746294"><ele>1474.5</ele><time>2026-04-27T13:42:12Z</time></trkpt><trkpt lat="45.868422520650135" lon="9.520872193388405"><ele>1471.0</ele><time>2026-04-27T13:42:14Z</time></trkpt><trkpt lat="45.86843068055795" lon="9.520769059170556"><ele>1467.5</ele><time>2026-04-27T13:42:16Z</time></trkpt><trkpt lat="45.868427540678375" lon="9.52066513326121"><ele>1464.0</ele><time>2026-04-27T13:42:18Z</time></trkpt><trkpt lat="45.868394314151566" lon="9.520556357368964"><ele>1460.5</ele><time>2026-04-27T13:42:20Z</time></trkpt><trkpt lat="45.86836566293916" lon="9.520469103782716"><ele>1457.0</ele><time>2026-04-27T13:42:22Z</time></trkpt><trkpt lat="45.86838134353911" lon="9.520364235405033"><ele>1455.25</ele><time>2026-04-27T13:42:24Z</time></trkpt><trkpt lat="45.86835399598375" lon="9.520206127436715"><ele>1453.5</ele><time>2026-04-27T13:42:26Z</time></trkpt><trkpt lat="45.86836518406563" lon="9.520022014755632"><ele>1451.75</ele><time>2026-04-27T13:42:28Z</time></trkpt><trkpt lat="45.86839433021976" lon="9.519864862494822"><ele>1450.0</ele><time>2026-04-27T13:42:30Z</time></trkpt><trkpt lat="45.86841244169761" lon="9.519721390191929"><ele>1448.4</ele><time>2026-04-27T13:42:32Z</time></trkpt><trkpt lat="45.86842270494214" lon="9.519548079017126"><ele>1446.8</ele><time>2026-04-27T13:42:34Z</time></trkpt><trkpt lat="45.86846683187633" lon="9.519371678977903"><ele>1445.1999999999998</ele><time>2026-04-27T13:42:36Z</time></trkpt><trkpt lat="45.86849236913163" lon="9.519254323628154"><ele>1443.6</ele><time>2026-04-27T13:42:37Z</time></trkpt><trkpt lat="45.86852416435164" lon="9.519162446042893"><ele>1442.0</ele><time>2026-04-27T13:42:38Z</time></trkpt><trkpt lat="45.8685653590534" lon="9.519058069660561"><ele>1444.3999999999999</ele><time>2026-04-27T13:42:39Z</time></trkpt><trkpt lat="45.868594707592806" lon="9.5189542761263"><ele>1446.8</ele><time>2026-04-27T13:42:40Z</time></trkpt><trkpt lat="45.868629072905215" lon="9.518848984613806"><ele>1449.2</ele><time>2026-04-27T13:42:41Z</time></trkpt><trkpt lat="45.868688322370076" lon="9.518701277654522"><ele>1451.6</ele><time>2026-04-27T13:42:43Z</time></trkpt><trkpt lat="45.86876655439449" lon="9.518550629686835"><ele>1454.0</ele><time>2026-04-27T13:42:45Z</time></trkpt><trkpt lat="45.86880759880015" lon="9.51848046823458"><ele>1454.0</ele><time>2026-04-27T13:42:46Z</time></trkpt><trkpt lat="45.86885343292374" lon="9.518394688996365"><ele>1454.0</ele><time>2026-04-27T13:42:47Z</time></trkpt><trkpt lat="45.86892135208418" lon="9.518258995849113"><ele>1454.0</ele><time>2026-04-27T13:42:49Z</time></trkpt><trkpt lat="45.86895586803612" lon="9.518172454039453"><ele>1454.0</ele><time>2026-04-27T13:42:51Z</time></trkpt><trkpt lat="45.86899040589396" lon="9.518070577178413"><ele>1454.0</ele><time>2026-04-27T13:42:53Z</time></trkpt><trkpt lat="45.86899637196592" lon="9.517980376809355"><ele>1454.0</ele><time>2026-04-27T13:42:54Z</time></trkpt><trkpt lat="45.868982461011626" lon="9.517880543840942"><ele>1454.1666666666667</ele><time>2026-04-27T13:42:55Z</time></trkpt><trkpt lat="45.868953197024545" lon="9.517731321532496"><ele>1454.3333333333335</ele><time>2026-04-27T13:42:57Z</time></trkpt><trkpt lat="45.86893051556447" lon="9.517578850570226"><ele>1454.5</ele><time>2026-04-27T13:42:59Z</time></trkpt><trkpt lat="45.86890977705829" lon="9.517490976230494"><ele>1454.6666666666667</ele><time>2026-04-27T13:43:00Z</time></trkpt><trkpt lat="45.86888764489477" lon="9.51740377771096"><ele>1454.8333333333333</ele><time>2026-04-27T13:43:01Z</time></trkpt><trkpt lat="45.86886891230413" lon="9.517311013721354"><ele>1455.0</ele><time>2026-04-27T13:43:02Z</time></trkpt><trkpt lat="45.86884626245224" lon="9.517205086461981"><ele>1457.25</ele><time>2026-04-27T13:43:03Z</time></trkpt><trkpt lat="45.86882102646578" lon="9.517036071060183"><ele>1459.5</ele><time>2026-04-27T13:43:05Z</time></trkpt><trkpt lat="45.868799240919344" lon="9.516868035229542"><ele>1461.75</ele><time>2026-04-27T13:43:07Z</time></trkpt><trkpt lat="45.86877661484319" lon="9.516707974322815"><ele>1464.0</ele><time>2026-04-27T13:43:09Z</time></trkpt><trkpt lat="45.86877312710019" lon="9.516512583762733"><ele>1464.0</ele><time>2026-04-27T13:43:11Z</time></trkpt><trkpt lat="45.868772868797755" lon="9.516408803111098"><ele>1464.0</ele><time>2026-04-27T13:43:12Z</time></trkpt><trkpt lat="45.86878604450721" lon="9.51631789855747"><ele>1464.0</ele><time>2026-04-27T13:43:13Z</time></trkpt><trkpt lat="45.86879687511564" lon="9.516203995466052"><ele>1464.0</ele><time>2026-04-27T13:43:14Z</time></trkpt><trkpt lat="45.86880140196311" lon="9.516076441467538"><ele>1464.0</ele><time>2026-04-27T13:43:15Z</time></trkpt><trkpt lat="45.86879063102256" lon="9.515928119441112"><ele>1464.0</ele><time>2026-04-27T13:43:17Z</time></trkpt><trkpt lat="45.86878905538749" lon="9.515835400815197"><ele>1464.2</ele><time>2026-04-27T13:43:18Z</time></trkpt><trkpt lat="45.86877536509554" lon="9.515636923937752"><ele>1464.4</ele><time>2026-04-27T13:43:20Z</time></trkpt><trkpt lat="45.868766545299586" lon="9.515528387007645"><ele>1464.6</ele><time>2026-04-27T13:43:21Z</time></trkpt><trkpt lat="45.86875722322515" lon="9.515430145610011"><ele>1464.8</ele><time>2026-04-27T13:43:22Z</time></trkpt><trkpt lat="45.86874485147752" lon="9.51527443380584"><ele>1465.0</ele><time>2026-04-27T13:43:23Z</time></trkpt><trkpt lat="45.86873816262149" lon="9.515095217701653"><ele>1465.0</ele><time>2026-04-27T13:43:24Z</time></trkpt><trkpt lat="45.86873969584508" lon="9.514925962645517"><ele>1465.0</ele><time>2026-04-27T13:43:25Z</time></trkpt><trkpt lat="45.868745389478725" lon="9.514766001268208"><ele>1465.0</ele><time>2026-04-27T13:43:26Z</time></trkpt><trkpt lat="45.86875057551907" lon="9.51460728704812"><ele>1465.0</ele><time>2026-04-27T13:43:27Z</time></trkpt><trkpt lat="45.86874887108942" lon="9.514469544918558"><ele>1465.0</ele><time>2026-04-27T13:43:28Z</time></trkpt><trkpt lat="45.86875176565385" lon="9.514335214100738"><ele>1464.5</ele><time>2026-04-27T13:43:29Z</time></trkpt><trkpt lat="45.86875924267896" lon="9.514214339807072"><ele>1464.0</ele><time>2026-04-27T13:43:30Z</time></trkpt><trkpt lat="45.868779329963765" lon="9.514111609549474"><ele>1463.5</ele><time>2026-04-27T13:43:31Z</time></trkpt><trkpt lat="45.86880036234061" lon="9.514004716851943"><ele>1463.0</ele><time>2026-04-27T13:43:32Z</time></trkpt><trkpt lat="45.86882727676281" lon="9.51389233637867"><ele>1462.5</ele><time>2026-04-27T13:43:33Z</time></trkpt><trkpt lat="45.86885751446885" lon="9.513793832826826"><ele>1462.0</ele><time>2026-04-27T13:43:34Z</time></trkpt><trkpt lat="45.86889362618815" lon="9.513691464342337"><ele>1461.142857142857</ele><time>2026-04-27T13:43:35Z</time></trkpt><trkpt lat="45.86892941312286" lon="9.513609868991313"><ele>1460.2857142857142</ele><time>2026-04-27T13:43:36Z</time></trkpt><trkpt lat="45.86897027573208" lon="9.51350833899455"><ele>1459.4285714285716</ele><time>2026-04-27T13:43:37Z</time></trkpt><trkpt lat="45.86900768822804" lon="9.513419658180322"><ele>1458.5714285714284</ele><time>2026-04-27T13:43:38Z</time></trkpt><trkpt lat="45.86904657321468" lon="9.513335215981291"><ele>1457.7142857142858</ele><time>2026-04-27T13:43:39Z</time></trkpt><trkpt lat="45.86908488012935" lon="9.51325202127168"><ele>1456.857142857143</ele><time>2026-04-27T13:43:40Z</time></trkpt><trkpt lat="45.869132629915356" lon="9.51316391553817"><ele>1456.0</ele><time>2026-04-27T13:43:41Z</time></trkpt><trkpt lat="45.869176752726304" lon="9.513095379619351"><ele>1456.0</ele><time>2026-04-27T13:43:42Z</time></trkpt><trkpt lat="45.86925916130055" lon="9.513004893144513"><ele>1456.0</ele><time>2026-04-27T13:43:44Z</time></trkpt><trkpt lat="45.86933036827036" lon="9.512921339146315"><ele>1456.0</ele><time>2026-04-27T13:43:45.999Z</time></trkpt><trkpt lat="45.86939666783888" lon="9.51288331505657"><ele>1456.0</ele><time>2026-04-27T13:43:47.999Z</time></trkpt><trkpt lat="45.869483771762596" lon="9.51288418747551"><ele>1456.0</ele><time>2026-04-27T13:43:49.999Z</time></trkpt><trkpt lat="45.86960056190198" lon="9.512895224740278"><ele>1456.5</ele><time>2026-04-27T13:43:51.999Z</time></trkpt><trkpt lat="45.86969375378042" lon="9.512872593113482"><ele>1457.0</ele><time>2026-04-27T13:43:53.999Z</time></trkpt><trkpt lat="45.86980129250717" lon="9.512888665879634"><ele>1457.5</ele><time>2026-04-27T13:43:55.999Z</time></trkpt><trkpt lat="45.86987328597185" lon="9.512898103477633"><ele>1458.0</ele><time>2026-04-27T13:43:56.999Z</time></trkpt><trkpt lat="45.8699559153925" lon="9.512905008353831"><ele>1458.5</ele><time>2026-04-27T13:43:57.999Z</time></trkpt><trkpt lat="45.870040636074776" lon="9.512908245535"><ele>1459.0</ele><time>2026-04-27T13:43:58.999Z</time></trkpt><trkpt lat="45.87017265135519" lon="9.512878187276584"><ele>1460.6</ele><time>2026-04-27T13:44:00.999Z</time></trkpt><trkpt lat="45.87025301156025" lon="9.512845960637065"><ele>1462.2</ele><time>2026-04-27T13:44:01.999Z</time></trkpt><trkpt lat="45.870336544793055" lon="9.512790613253845"><ele>1463.8</ele><time>2026-04-27T13:44:02.999Z</time></trkpt><trkpt lat="45.870392610336" lon="9.512740471797374"><ele>1465.3999999999999</ele><time>2026-04-27T13:44:04Z</time></trkpt><trkpt lat="45.87045879429697" lon="9.512622615264917"><ele>1467.0</ele><time>2026-04-27T13:44:06Z</time></trkpt><trkpt lat="45.87051026346132" lon="9.512489403220917"><ele>1467.0</ele><time>2026-04-27T13:44:08Z</time></trkpt><trkpt lat="45.87055636096586" lon="9.512326314919077"><ele>1467.0</ele><time>2026-04-27T13:44:10Z</time></trkpt><trkpt lat="45.870594077453084" lon="9.512159666560793"><ele>1467.0</ele><time>2026-04-27T13:44:12Z</time></trkpt><trkpt lat="45.870634063764065" lon="9.511998640306299"><ele>1467.0</ele><time>2026-04-27T13:44:14Z</time></trkpt><trkpt lat="45.87064841354945" lon="9.511825823298096"><ele>1464.8</ele><time>2026-04-27T13:44:16Z</time></trkpt><trkpt lat="45.87066648088192" lon="9.511668650304802"><ele>1462.6</ele><time>2026-04-27T13:44:18Z</time></trkpt><trkpt lat="45.87067957499035" lon="9.511523149089289"><ele>1460.3999999999999</ele><time>2026-04-27T13:44:20Z</time></trkpt><trkpt lat="45.8706865778382" lon="9.511394508530417"><ele>1458.1999999999998</ele><time>2026-04-27T13:44:22Z</time></trkpt><trkpt lat="45.87069259408352" lon="9.511274859241169"><ele>1456.0</ele><time>2026-04-27T13:44:24Z</time></trkpt><trkpt lat="45.87068975484183" lon="9.511162342287975"><ele>1453.1999999999998</ele><time>2026-04-27T13:44:26Z</time></trkpt><trkpt lat="45.87068730456734" lon="9.51100777057385"><ele>1450.3999999999999</ele><time>2026-04-27T13:44:28Z</time></trkpt><trkpt lat="45.870676919764286" lon="9.510819446096878"><ele>1447.6</ele><time>2026-04-27T13:44:30Z</time></trkpt><trkpt lat="45.870677756625845" lon="9.510716056572313"><ele>1444.8</ele><time>2026-04-27T13:44:31Z</time></trkpt><trkpt lat="45.87068299602201" lon="9.510600885045916"><ele>1442.0</ele><time>2026-04-27T13:44:32Z</time></trkpt><trkpt lat="45.8706728510112" lon="9.510509481195474"><ele>1439.3333333333335</ele><time>2026-04-27T13:44:33Z</time></trkpt><trkpt lat="45.87067116940654" lon="9.510395304725543"><ele>1436.6666666666667</ele><time>2026-04-27T13:44:34Z</time></trkpt><trkpt lat="45.87066182660302" lon="9.510270544416413"><ele>1434.0</ele><time>2026-04-27T13:44:35Z</time></trkpt><trkpt lat="45.87064410010427" lon="9.510138659749803"><ele>1431.3333333333333</ele><time>2026-04-27T13:44:36Z</time></trkpt><trkpt lat="45.870628621276744" lon="9.510023544133295"><ele>1428.6666666666665</ele><time>2026-04-27T13:44:37Z</time></trkpt><trkpt lat="45.87060831897683" lon="9.509912421244952"><ele>1426.0</ele><time>2026-04-27T13:44:38Z</time></trkpt><trkpt lat="45.870592063922565" lon="9.509800858331015"><ele>1426.0</ele><time>2026-04-27T13:44:39Z</time></trkpt><trkpt lat="45.87056890522105" lon="9.50969816172535"><ele>1426.0</ele><time>2026-04-27T13:44:40Z</time></trkpt><trkpt lat="45.87054043358483" lon="9.509593249724393"><ele>1426.0</ele><time>2026-04-27T13:44:41Z</time></trkpt><trkpt lat="45.87050539267481" lon="9.509477886374432"><ele>1426.0</ele><time>2026-04-27T13:44:42Z</time></trkpt><trkpt lat="45.87047572799049" lon="9.509379861104009"><ele>1426.0</ele><time>2026-04-27T13:44:43Z</time></trkpt><trkpt lat="45.870441020205085" lon="9.509276690288239"><ele>1426.0</ele><time>2026-04-27T13:44:44Z</time></trkpt><trkpt lat="45.8704071182873" lon="9.50917076188531"><ele>1423.1999999999998</ele><time>2026-04-27T13:44:45Z</time></trkpt><trkpt lat="45.870371529837854" lon="9.509040391707329"><ele>1420.3999999999999</ele><time>2026-04-27T13:44:46Z</time></trkpt><trkpt lat="45.870333755207355" lon="9.508907532983153"><ele>1417.6</ele><time>2026-04-27T13:44:47Z</time></trkpt><trkpt lat="45.87030923462565" lon="9.5087759462369"><ele>1414.8</ele><time>2026-04-27T13:44:48Z</time></trkpt><trkpt lat="45.870289596774704" lon="9.508627896197694"><ele>1412.0</ele><time>2026-04-27T13:44:49Z</time></trkpt><trkpt lat="45.870273938415515" lon="9.508459771352488"><ele>1409.25</ele><time>2026-04-27T13:44:50Z</time></trkpt><trkpt lat="45.87025088052058" lon="9.508274116847346"><ele>1406.5</ele><time>2026-04-27T13:44:51Z</time></trkpt><trkpt lat="45.87022202635281" lon="9.508047631751797"><ele>1403.75</ele><time>2026-04-27T13:44:52Z</time></trkpt><trkpt lat="45.87019234289849" lon="9.507863747044548"><ele>1401.0</ele><time>2026-04-27T13:44:53Z</time></trkpt><trkpt lat="45.87016720076741" lon="9.507694881501939"><ele>1399.25</ele><time>2026-04-27T13:44:54Z</time></trkpt><trkpt lat="45.870134072196635" lon="9.507486882994217"><ele>1397.5</ele><time>2026-04-27T13:44:55Z</time></trkpt><trkpt lat="45.87009711472432" lon="9.507297835470183"><ele>1395.75</ele><time>2026-04-27T13:44:56Z</time></trkpt><trkpt lat="45.87006468260121" lon="9.507091522666414"><ele>1394.0</ele><time>2026-04-27T13:44:57Z</time></trkpt><trkpt lat="45.87003323307438" lon="9.50689208269569"><ele>1400.75</ele><time>2026-04-27T13:44:58Z</time></trkpt><trkpt lat="45.870008288541996" lon="9.506691814523709"><ele>1407.5</ele><time>2026-04-27T13:44:59Z</time></trkpt><trkpt lat="45.86999859719417" lon="9.506480522757842"><ele>1414.25</ele><time>2026-04-27T13:45:00Z</time></trkpt><trkpt lat="45.86999309780581" lon="9.50629299507252"><ele>1421.0</ele><time>2026-04-27T13:45:01Z</time></trkpt><trkpt lat="45.869985956013586" lon="9.506135682312992"><ele>1421.5</ele><time>2026-04-27T13:45:02Z</time></trkpt><trkpt lat="45.86997518746073" lon="9.505960082637326"><ele>1422.0</ele><time>2026-04-27T13:45:03Z</time></trkpt><trkpt lat="45.86994567014966" lon="9.505752596101456"><ele>1422.5</ele><time>2026-04-27T13:45:04Z</time></trkpt><trkpt lat="45.869910003772574" lon="9.505586471151442"><ele>1423.0</ele><time>2026-04-27T13:45:05Z</time></trkpt><trkpt lat="45.86987689018075" lon="9.50543287777937"><ele>1423.3333333333333</ele><time>2026-04-27T13:45:06Z</time></trkpt><trkpt lat="45.869850293806806" lon="9.50529222333294"><ele>1423.6666666666665</ele><time>2026-04-27T13:45:07Z</time></trkpt><trkpt lat="45.869825657804896" lon="9.505139501088495"><ele>1424.0</ele><time>2026-04-27T13:45:08Z</time></trkpt><trkpt lat="45.86979834774259" lon="9.505005121800199"><ele>1424.3333333333333</ele><time>2026-04-27T13:45:09Z</time></trkpt><trkpt lat="45.869773279697206" lon="9.504907756762073"><ele>1424.6666666666667</ele><time>2026-04-27T13:45:10Z</time></trkpt><trkpt lat="45.86975426450056" lon="9.504817884650759"><ele>1425.0</ele><time>2026-04-27T13:45:11Z</time></trkpt><trkpt lat="45.86974319332917" lon="9.504617075636006"><ele>1423.6666666666667</ele><time>2026-04-27T13:45:13Z</time></trkpt><trkpt lat="45.86974686492391" lon="9.504521111886836"><ele>1422.3333333333333</ele><time>2026-04-27T13:45:14Z</time></trkpt><trkpt lat="45.86974294993521" lon="9.50441016938335"><ele>1421.0</ele><time>2026-04-27T13:45:15Z</time></trkpt><trkpt lat="45.86973103499997" lon="9.504317535644564"><ele>1419.6666666666665</ele><time>2026-04-27T13:45:16Z</time></trkpt><trkpt lat="45.86969005373878" lon="9.504178455234408"><ele>1418.3333333333333</ele><time>2026-04-27T13:45:18Z</time></trkpt><trkpt lat="45.86965856826247" lon="9.50401765449826"><ele>1417.0</ele><time>2026-04-27T13:45:20Z</time></trkpt><trkpt lat="45.86963839686141" lon="9.503920566350837"><ele>1417.0</ele><time>2026-04-27T13:45:21Z</time></trkpt><trkpt lat="45.86961752580339" lon="9.50381037784824"><ele>1417.0</ele><time>2026-04-27T13:45:22Z</time></trkpt><trkpt lat="45.86959713125118" lon="9.503710766151132"><ele>1417.0</ele><time>2026-04-27T13:45:23Z</time></trkpt><trkpt lat="45.869580271615874" lon="9.503621581375885"><ele>1417.0</ele><time>2026-04-27T13:45:24Z</time></trkpt><trkpt lat="45.86955575097012" lon="9.503536595798021"><ele>1417.0</ele><time>2026-04-27T13:45:25Z</time></trkpt><trkpt lat="45.86952589412046" lon="9.503413596500135"><ele>1417.0</ele><time>2026-04-27T13:45:26Z</time></trkpt><trkpt lat="45.86949325908834" lon="9.503299545221491"><ele>1414.8</ele><time>2026-04-27T13:45:27Z</time></trkpt><trkpt lat="45.86945911763795" lon="9.503187640493929"><ele>1412.6</ele><time>2026-04-27T13:45:28Z</time></trkpt><trkpt lat="45.869424762257445" lon="9.503074799673104"><ele>1410.3999999999999</ele><time>2026-04-27T13:45:29Z</time></trkpt><trkpt lat="45.869384640237364" lon="9.502971585282365"><ele>1408.1999999999998</ele><time>2026-04-27T13:45:30Z</time></trkpt><trkpt lat="45.86931409681498" lon="9.50284119062767"><ele>1406.0</ele><time>2026-04-27T13:45:32Z</time></trkpt><trkpt lat="45.86926103796398" lon="9.50272222119016"><ele>1406.0</ele><time>2026-04-27T13:45:34Z</time></trkpt><trkpt lat="45.869252737394106" lon="9.502601277308354"><ele>1406.0</ele><time>2026-04-27T13:45:36Z</time></trkpt><trkpt lat="45.86920783811469" lon="9.502532127370984"><ele>1406.0</ele><time>2026-04-27T13:45:37Z</time></trkpt><trkpt lat="45.86914710632808" lon="9.502448515570181"><ele>1406.0</ele><time>2026-04-27T13:45:38Z</time></trkpt><trkpt lat="45.86909569846102" lon="9.502355004933964"><ele>1406.0</ele><time>2026-04-27T13:45:39Z</time></trkpt><trkpt lat="45.86903618337265" lon="9.502206246525736"><ele>1406.0</ele><time>2026-04-27T13:45:40Z</time></trkpt><trkpt lat="45.86896057942117" lon="9.502057089407419"><ele>1406.0</ele><time>2026-04-27T13:45:41Z</time></trkpt><trkpt lat="45.86887085488904" lon="9.501888753852393"><ele>1406.0</ele><time>2026-04-27T13:45:42Z</time></trkpt><trkpt lat="45.86878253068279" lon="9.501718181251688"><ele>1406.0</ele><time>2026-04-27T13:45:43Z</time></trkpt><trkpt lat="45.86870247350386" lon="9.501570043222804"><ele>1406.0</ele><time>2026-04-27T13:45:44Z</time></trkpt><trkpt lat="45.868634992324985" lon="9.501450689743226"><ele>1406.0</ele><time>2026-04-27T13:45:45Z</time></trkpt><trkpt lat="45.86859520640818" lon="9.501364975148455"><ele>1406.0</ele><time>2026-04-27T13:45:46Z</time></trkpt><trkpt lat="45.86859312487768" lon="9.501213320237374"><ele>1406.0</ele><time>2026-04-27T13:45:48Z</time></trkpt><trkpt lat="45.86859812075638" lon="9.50106416400534"><ele>1406.0</ele><time>2026-04-27T13:45:49Z</time></trkpt><trkpt lat="45.86859353777684" lon="9.50089769250341"><ele>1406.0</ele><time>2026-04-27T13:45:50Z</time></trkpt><trkpt lat="45.868581412277905" lon="9.50071768571523"><ele>1406.4</ele><time>2026-04-27T13:45:51Z</time></trkpt><trkpt lat="45.86855907504108" lon="9.500543421794724"><ele>1406.8</ele><time>2026-04-27T13:45:52Z</time></trkpt><trkpt lat="45.86852785371611" lon="9.500378007556982"><ele>1407.2</ele><time>2026-04-27T13:45:53Z</time></trkpt><trkpt lat="45.86849859878313" lon="9.50023071946509"><ele>1407.6000000000001</ele><time>2026-04-27T13:45:54Z</time></trkpt><trkpt lat="45.86847221574315" lon="9.500112586578128"><ele>1408.0</ele><time>2026-04-27T13:45:54.999Z</time></trkpt><trkpt lat="45.8684380016724" lon="9.4999643776388"><ele>1408.0</ele><time>2026-04-27T13:45:55.999Z</time></trkpt><trkpt lat="45.868395926712026" lon="9.499780303026306"><ele>1408.0</ele><time>2026-04-27T13:45:56.999Z</time></trkpt><trkpt lat="45.86835259008957" lon="9.499593129676905"><ele>1408.0</ele><time>2026-04-27T13:45:57.999Z</time></trkpt><trkpt lat="45.868305557143096" lon="9.49940562250324"><ele>1408.0</ele><time>2026-04-27T13:45:58.999Z</time></trkpt><trkpt lat="45.868265978066084" lon="9.499236609311225"><ele>1406.3333333333333</ele><time>2026-04-27T13:45:59.999Z</time></trkpt><trkpt lat="45.86821549338629" lon="9.49904396690429"><ele>1404.6666666666667</ele><time>2026-04-27T13:46:00.999Z</time></trkpt><trkpt lat="45.86815955064107" lon="9.498815393341749"><ele>1403.0</ele><time>2026-04-27T13:46:01.999Z</time></trkpt><trkpt lat="45.86810575486697" lon="9.498602412047385"><ele>1402.4</ele><time>2026-04-27T13:46:02.999Z</time></trkpt><trkpt lat="45.86806695135811" lon="9.498441770441472"><ele>1401.8000000000002</ele><time>2026-04-27T13:46:03.999Z</time></trkpt><trkpt lat="45.86803788357285" lon="9.498299796374347"><ele>1401.2</ele><time>2026-04-27T13:46:04.999Z</time></trkpt><trkpt lat="45.86802555705664" lon="9.498188833079325"><ele>1400.6</ele><time>2026-04-27T13:46:05.999Z</time></trkpt><trkpt lat="45.86801208581158" lon="9.498020425764494"><ele>1400.0</ele><time>2026-04-27T13:46:07.999Z</time></trkpt><trkpt lat="45.86801582944575" lon="9.497928763132528"><ele>1400.2</ele><time>2026-04-27T13:46:08.999Z</time></trkpt><trkpt lat="45.86802506185185" lon="9.497770846935463"><ele>1400.4</ele><time>2026-04-27T13:46:11Z</time></trkpt><trkpt lat="45.86803049294399" lon="9.497632877793848"><ele>1400.6</ele><time>2026-04-27T13:46:13Z</time></trkpt><trkpt lat="45.86804617093187" lon="9.497500321918602"><ele>1400.8</ele><time>2026-04-27T13:46:15Z</time></trkpt><trkpt lat="45.8680750549624" lon="9.497329706587001"><ele>1401.0</ele><time>2026-04-27T13:46:17Z</time></trkpt><trkpt lat="45.86809826674253" lon="9.497139142282757"><ele>1401.5</ele><time>2026-04-27T13:46:19Z</time></trkpt><trkpt lat="45.86810150789442" lon="9.497028318222249"><ele>1402.0</ele><time>2026-04-27T13:46:20Z</time></trkpt><trkpt lat="45.86809493214462" lon="9.496906984354212"><ele>1402.5</ele><time>2026-04-27T13:46:21Z</time></trkpt><trkpt lat="45.86808004621293" lon="9.496799228594744"><ele>1403.0</ele><time>2026-04-27T13:46:22Z</time></trkpt><trkpt lat="45.86806459095487" lon="9.496683348659502"><ele>1403.5</ele><time>2026-04-27T13:46:23Z</time></trkpt><trkpt lat="45.86804720237055" lon="9.496587547833263"><ele>1404.0</ele><time>2026-04-27T13:46:24Z</time></trkpt><trkpt lat="45.86802586153673" lon="9.496472911197447"><ele>1404.0</ele><time>2026-04-27T13:46:25Z</time></trkpt><trkpt lat="45.86800788596927" lon="9.496362932724136"><ele>1404.0</ele><time>2026-04-27T13:46:26Z</time></trkpt><trkpt lat="45.86798821625578" lon="9.49625714733756"><ele>1404.0</ele><time>2026-04-27T13:46:27Z</time></trkpt><trkpt lat="45.86797437672626" lon="9.496137791012496"><ele>1404.0</ele><time>2026-04-27T13:46:28Z</time></trkpt><trkpt lat="45.86795465393243" lon="9.49603012826938"><ele>1404.0</ele><time>2026-04-27T13:46:29Z</time></trkpt><trkpt lat="45.86793304831396" lon="9.495896292200827"><ele>1404.0</ele><time>2026-04-27T13:46:30Z</time></trkpt><trkpt lat="45.86789962259201" lon="9.495783273062553"><ele>1401.1666666666667</ele><time>2026-04-27T13:46:31Z</time></trkpt><trkpt lat="45.86786763338905" lon="9.495669616916846"><ele>1398.3333333333333</ele><time>2026-04-27T13:46:32Z</time></trkpt><trkpt lat="45.867839329363015" lon="9.495575080516355"><ele>1395.5</ele><time>2026-04-27T13:46:33Z</time></trkpt><trkpt lat="45.8678083132054" lon="9.495470311838288"><ele>1392.6666666666665</ele><time>2026-04-27T13:46:34Z</time></trkpt><trkpt lat="45.86777227861229" lon="9.495352148961558"><ele>1389.8333333333333</ele><time>2026-04-27T13:46:35Z</time></trkpt><trkpt lat="45.867739791865105" lon="9.495234546390677"><ele>1387.0</ele><time>2026-04-27T13:46:36Z</time></trkpt><trkpt lat="45.86771043196776" lon="9.495111947328153"><ele>1383.6666666666665</ele><time>2026-04-27T13:46:37Z</time></trkpt><trkpt lat="45.86768094065125" lon="9.494994429223452"><ele>1380.3333333333333</ele><time>2026-04-27T13:46:38Z</time></trkpt><trkpt lat="45.8676560517378" lon="9.494882692996814"><ele>1377.0</ele><time>2026-04-27T13:46:39Z</time></trkpt><trkpt lat="45.86763523290987" lon="9.494774324885835"><ele>1373.6666666666667</ele><time>2026-04-27T13:46:40Z</time></trkpt><trkpt lat="45.86761244004125" lon="9.494657141162374"><ele>1370.3333333333335</ele><time>2026-04-27T13:46:41Z</time></trkpt><trkpt lat="45.86758794739108" lon="9.494534027882983"><ele>1367.0</ele><time>2026-04-27T13:46:42Z</time></trkpt><trkpt lat="45.86756665280056" lon="9.494419578632238"><ele>1367.0</ele><time>2026-04-27T13:46:43Z</time></trkpt><trkpt lat="45.86754727682315" lon="9.494319367100932"><ele>1367.0</ele><time>2026-04-27T13:46:44Z</time></trkpt><trkpt lat="45.86752323305321" lon="9.494197008889856"><ele>1367.0</ele><time>2026-04-27T13:46:45Z</time></trkpt><trkpt lat="45.86749099079347" lon="9.494063733597399"><ele>1367.0</ele><time>2026-04-27T13:46:46Z</time></trkpt><trkpt lat="45.867459984888924" lon="9.49392910056301"><ele>1367.0</ele><time>2026-04-27T13:46:47Z</time></trkpt><trkpt lat="45.86743581458549" lon="9.493824528732112"><ele>1367.0</ele><time>2026-04-27T13:46:48Z</time></trkpt><trkpt lat="45.86737348122975" lon="9.493612856162942"><ele>1365.1666666666667</ele><time>2026-04-27T13:46:50Z</time></trkpt><trkpt lat="45.867320945373656" lon="9.493475584228824"><ele>1363.3333333333335</ele><time>2026-04-27T13:46:51Z</time></trkpt><trkpt lat="45.8672591647087" lon="9.493360055877364"><ele>1361.5</ele><time>2026-04-27T13:46:52Z</time></trkpt><trkpt lat="45.8672047007703" lon="9.49326152044283"><ele>1359.6666666666667</ele><time>2026-04-27T13:46:53Z</time></trkpt><trkpt lat="45.86717053685278" lon="9.493175657531243"><ele>1357.8333333333333</ele><time>2026-04-27T13:46:54Z</time></trkpt><trkpt lat="45.86713761875275" lon="9.493081180169014"><ele>1356.0</ele><time>2026-04-27T13:46:55Z</time></trkpt><trkpt lat="45.86709762327512" lon="9.492990868196049"><ele>1351.75</ele><time>2026-04-27T13:46:56Z</time></trkpt><trkpt lat="45.867184660096335" lon="9.492667234777835"><ele>1347.5</ele><time>2026-04-27T13:46:58Z</time></trkpt><trkpt lat="45.867117724275005" lon="9.492556076040804"><ele>1343.25</ele><time>2026-04-27T13:47:00Z</time></trkpt><trkpt lat="45.8670637777229" lon="9.492464081110809"><ele>1339.0</ele><time>2026-04-27T13:47:02Z</time></trkpt><trkpt lat="45.86702043915096" lon="9.492387570142155"><ele>1339.0</ele><time>2026-04-27T13:47:04Z</time></trkpt><trkpt lat="45.86697607637583" lon="9.492309252801107"><ele>1339.0</ele><time>2026-04-27T13:47:08Z</time></trkpt><trkpt lat="45.86701350385118" lon="9.492423010266137"><ele>1339.0</ele><time>2026-04-27T13:47:13Z</time></trkpt><trkpt lat="45.867048765029125" lon="9.492563069819317"><ele>1339.0</ele><time>2026-04-27T13:47:15Z</time></trkpt><trkpt lat="45.86716085570763" lon="9.492708448995016"><ele>1339.0</ele><time>2026-04-27T13:47:17Z</time></trkpt><trkpt lat="45.867235491266534" lon="9.492842806125138"><ele>1343.25</ele><time>2026-04-27T13:47:18Z</time></trkpt><trkpt lat="45.867314755416544" lon="9.49297214228352"><ele>1347.5</ele><time>2026-04-27T13:47:19Z</time></trkpt><trkpt lat="45.867402076981975" lon="9.493114348717112"><ele>1351.75</ele><time>2026-04-27T13:47:20Z</time></trkpt><trkpt lat="45.867501190509984" lon="9.493252938001545"><ele>1356.0</ele><time>2026-04-27T13:47:21Z</time></trkpt><trkpt lat="45.86758385229475" lon="9.493364753529184"><ele>1351.0</ele><time>2026-04-27T13:47:22Z</time></trkpt><trkpt lat="45.8676567435078" lon="9.493468064483588"><ele>1346.0</ele><time>2026-04-27T13:47:23Z</time></trkpt><trkpt lat="45.86773629126112" lon="9.493574746912063"><ele>1341.0</ele><time>2026-04-27T13:47:24Z</time></trkpt><trkpt lat="45.86781661940767" lon="9.493708158715243"><ele>1336.0</ele><time>2026-04-27T13:47:25Z</time></trkpt><trkpt lat="45.867907815221216" lon="9.493891391602888"><ele>1336.0</ele><time>2026-04-27T13:47:26Z</time></trkpt><trkpt lat="45.867995146703784" lon="9.494087417045813"><ele>1336.0</ele><time>2026-04-27T13:47:27Z</time></trkpt><trkpt lat="45.86806960749648" lon="9.4942587291693"><ele>1336.0</ele><time>2026-04-27T13:47:28Z</time></trkpt><trkpt lat="45.86814178490892" lon="9.494433564379909"><ele>1336.0</ele><time>2026-04-27T13:47:29Z</time></trkpt><trkpt lat="45.86822636155121" lon="9.49460127080959"><ele>1331.25</ele><time>2026-04-27T13:47:30Z</time></trkpt><trkpt lat="45.86831075301473" lon="9.494745061646976"><ele>1326.5</ele><time>2026-04-27T13:47:31Z</time></trkpt><trkpt lat="45.868393142454494" lon="9.494874406586812"><ele>1321.75</ele><time>2026-04-27T13:47:32Z</time></trkpt><trkpt lat="45.868473853538546" lon="9.494995888338593"><ele>1317.0</ele><time>2026-04-27T13:47:33Z</time></trkpt><trkpt lat="45.868551563382916" lon="9.495099017748245"><ele>1317.0</ele><time>2026-04-27T13:47:34Z</time></trkpt><trkpt lat="45.868623119803296" lon="9.495203080864043"><ele>1317.0</ele><time>2026-04-27T13:47:35Z</time></trkpt><trkpt lat="45.86868390922299" lon="9.495308212933807"><ele>1317.0</ele><time>2026-04-27T13:47:36Z</time></trkpt><trkpt lat="45.86874235267579" lon="9.495434229112723"><ele>1317.0</ele><time>2026-04-27T13:47:37Z</time></trkpt><trkpt lat="45.86879593051363" lon="9.495592488672637"><ele>1317.0</ele><time>2026-04-27T13:47:38Z</time></trkpt><trkpt lat="45.86885064058145" lon="9.495750309141814"><ele>1320.6</ele><time>2026-04-27T13:47:39Z</time></trkpt><trkpt lat="45.86888721029099" lon="9.495883497087126"><ele>1324.1999999999998</ele><time>2026-04-27T13:47:40Z</time></trkpt><trkpt lat="45.868941696755684" lon="9.496030715375374"><ele>1327.8</ele><time>2026-04-27T13:47:41Z</time></trkpt><trkpt lat="45.86899231898306" lon="9.496160446594912"><ele>1331.4</ele><time>2026-04-27T13:47:42Z</time></trkpt><trkpt lat="45.869043425134954" lon="9.496269788025113"><ele>1335.0</ele><time>2026-04-27T13:47:43Z</time></trkpt><trkpt lat="45.86909777441689" lon="9.49637151692735"><ele>1337.5</ele><time>2026-04-27T13:47:44Z</time></trkpt><trkpt lat="45.86914450164966" lon="9.496464116009387"><ele>1340.0</ele><time>2026-04-27T13:47:45Z</time></trkpt><trkpt lat="45.86920249040929" lon="9.49654927273223"><ele>1342.5</ele><time>2026-04-27T13:47:46Z</time></trkpt><trkpt lat="45.86926664429009" lon="9.496698575060426"><ele>1345.0</ele><time>2026-04-27T13:47:48Z</time></trkpt><trkpt lat="45.86928309432717" lon="9.496789882607828"><ele>1347.5</ele><time>2026-04-27T13:47:49Z</time></trkpt><trkpt lat="45.86929242807494" lon="9.496879929126282"><ele>1350.0</ele><time>2026-04-27T13:47:50Z</time></trkpt><trkpt lat="45.869283655345534" lon="9.496979266380276"><ele>1349.8333333333333</ele><time>2026-04-27T13:47:51Z</time></trkpt><trkpt lat="45.86926505686808" lon="9.49709362002919"><ele>1349.6666666666667</ele><time>2026-04-27T13:47:52Z</time></trkpt><trkpt lat="45.86924306788357" lon="9.497208527147725"><ele>1349.5</ele><time>2026-04-27T13:47:53Z</time></trkpt><trkpt lat="45.86921929224415" lon="9.49732232676346"><ele>1349.3333333333335</ele><time>2026-04-27T13:47:54Z</time></trkpt><trkpt lat="45.86920886979025" lon="9.497440270663397"><ele>1349.1666666666667</ele><time>2026-04-27T13:47:55Z</time></trkpt><trkpt lat="45.86919295646799" lon="9.497541206490219"><ele>1349.0</ele><time>2026-04-27T13:47:56Z</time></trkpt><trkpt lat="45.86919139422549" lon="9.497643463907417"><ele>1349.0</ele><time>2026-04-27T13:47:57Z</time></trkpt><trkpt lat="45.86918548892007" lon="9.497774955762374"><ele>1349.0</ele><time>2026-04-27T13:47:57.999Z</time></trkpt><trkpt lat="45.86917776951506" lon="9.497875639092594"><ele>1349.0</ele><time>2026-04-27T13:47:58.999Z</time></trkpt><trkpt lat="45.86916828070325" lon="9.49799487727302"><ele>1349.0</ele><time>2026-04-27T13:47:59.999Z</time></trkpt><trkpt lat="45.869201982907725" lon="9.498163114289278"><ele>1349.0</ele><time>2026-04-27T13:48:00.999Z</time></trkpt><trkpt lat="45.869234507102625" lon="9.498337511705808"><ele>1342.2</ele><time>2026-04-27T13:48:01.999Z</time></trkpt><trkpt lat="45.869283943554095" lon="9.49848142476152"><ele>1335.4</ele><time>2026-04-27T13:48:02.999Z</time></trkpt><trkpt lat="45.86932746138665" lon="9.498605932142727"><ele>1328.6</ele><time>2026-04-27T13:48:03.999Z</time></trkpt><trkpt lat="45.869385802601414" lon="9.498736668326247"><ele>1321.8</ele><time>2026-04-27T13:48:04.999Z</time></trkpt><trkpt lat="45.86944239386098" lon="9.498805270748196"><ele>1315.0</ele><time>2026-04-27T13:48:05.999Z</time></trkpt><trkpt lat="45.86949150120734" lon="9.498893066476677"><ele>1315.0</ele><time>2026-04-27T13:48:06.999Z</time></trkpt><trkpt lat="45.869533649494194" lon="9.498972366948367"><ele>1315.0</ele><time>2026-04-27T13:48:07.999Z</time></trkpt><trkpt lat="45.8695625006631" lon="9.4990564910378"><ele>1315.0</ele><time>2026-04-27T13:48:08.999Z</time></trkpt><trkpt lat="45.86959218086728" lon="9.49915207168542"><ele>1315.0</ele><time>2026-04-27T13:48:09.999Z</time></trkpt><trkpt lat="45.86963056388525" lon="9.499239457795351"><ele>1315.0</ele><time>2026-04-27T13:48:10.999Z</time></trkpt><trkpt lat="45.86968232084591" lon="9.499352326118661"><ele>1315.0</ele><time>2026-04-27T13:48:12.999Z</time></trkpt><trkpt lat="45.869752752526" lon="9.4993512715833"><ele>1315.0</ele><time>2026-04-27T13:48:16Z</time></trkpt><trkpt lat="45.86977623792515" lon="9.499260988753512"><ele>1315.0</ele><time>2026-04-27T13:48:18Z</time></trkpt><trkpt lat="45.869714774266484" lon="9.499042893036624"><ele>1315.0</ele><time>2026-04-27T13:48:20Z</time></trkpt><trkpt lat="45.869681738631186" lon="9.498927361908944"><ele>1315.0</ele><time>2026-04-27T13:48:21Z</time></trkpt><trkpt lat="45.86965096079654" lon="9.498821178785008"><ele>1315.0</ele><time>2026-04-27T13:48:22Z</time></trkpt><trkpt lat="45.86962246446341" lon="9.498715224991287"><ele>1315.0</ele><time>2026-04-27T13:48:23Z</time></trkpt><trkpt lat="45.869590833138545" lon="9.498598855565875"><ele>1312.0</ele><time>2026-04-27T13:48:24Z</time></trkpt><trkpt lat="45.86956305258706" lon="9.49849555028949"><ele>1309.0</ele><time>2026-04-27T13:48:25Z</time></trkpt><trkpt lat="45.86953025662437" lon="9.498363746251712"><ele>1306.0</ele><time>2026-04-27T13:48:26Z</time></trkpt><trkpt lat="45.869512609147094" lon="9.498234149750603"><ele>1303.0</ele><time>2026-04-27T13:48:27Z</time></trkpt><trkpt lat="45.86949946600516" lon="9.498087592210812"><ele>1300.0</ele><time>2026-04-27T13:48:28Z</time></trkpt><trkpt lat="45.869527916711654" lon="9.497944040206677"><ele>1300.6</ele><time>2026-04-27T13:48:29Z</time></trkpt><trkpt lat="45.86954949223855" lon="9.49783686109385"><ele>1301.2</ele><time>2026-04-27T13:48:30Z</time></trkpt><trkpt lat="45.869568855385054" lon="9.497726015325355"><ele>1301.8000000000002</ele><time>2026-04-27T13:48:31Z</time></trkpt><trkpt lat="45.869622401555304" lon="9.497614236741658"><ele>1302.4</ele><time>2026-04-27T13:48:32Z</time></trkpt><trkpt lat="45.86967234442605" lon="9.497447306279476"><ele>1303.0</ele><time>2026-04-27T13:48:33Z</time></trkpt><trkpt lat="45.86972164876553" lon="9.497364747520932"><ele>1303.0</ele><time>2026-04-27T13:48:34Z</time></trkpt><trkpt lat="45.869764622420476" lon="9.497256364526859"><ele>1303.0</ele><time>2026-04-27T13:48:35Z</time></trkpt><trkpt lat="45.86982040043177" lon="9.497173793861421"><ele>1303.0</ele><time>2026-04-27T13:48:36Z</time></trkpt><trkpt lat="45.869849695664826" lon="9.497065561795385"><ele>1303.0</ele><time>2026-04-27T13:48:37Z</time></trkpt><trkpt lat="45.869929419507855" lon="9.496947081427262"><ele>1303.0</ele><time>2026-04-27T13:48:38Z</time></trkpt><trkpt lat="45.86997304103347" lon="9.49682730636736"><ele>1302.0</ele><time>2026-04-27T13:48:39Z</time></trkpt><trkpt lat="45.87003686872523" lon="9.496740486220197"><ele>1301.0</ele><time>2026-04-27T13:48:40Z</time></trkpt><trkpt lat="45.87010161157302" lon="9.496638239536802"><ele>1300.0</ele><time>2026-04-27T13:48:41Z</time></trkpt><trkpt lat="45.8701334020911" lon="9.49650642998576"><ele>1299.0</ele><time>2026-04-27T13:48:43Z</time></trkpt><trkpt lat="45.87014734094685" lon="9.496352682813301"><ele>1298.0</ele><time>2026-04-27T13:48:45Z</time></trkpt><trkpt lat="45.870087587599535" lon="9.496170538017848"><ele>1298.0</ele><time>2026-04-27T13:48:47Z</time></trkpt><trkpt lat="45.870014283003606" lon="9.49601825524573"><ele>1298.0</ele><time>2026-04-27T13:48:48Z</time></trkpt><trkpt lat="45.86989860154701" lon="9.49589168486438"><ele>1298.0</ele><time>2026-04-27T13:48:49Z</time></trkpt><trkpt lat="45.86982563297282" lon="9.495782447592335"><ele>1298.0</ele><time>2026-04-27T13:48:50Z</time></trkpt><trkpt lat="45.86976341824492" lon="9.495686131736418"><ele>1298.0</ele><time>2026-04-27T13:48:51Z</time></trkpt><trkpt lat="45.86970584853837" lon="9.495599994244797"><ele>1298.0</ele><time>2026-04-27T13:48:52Z</time></trkpt><trkpt lat="45.86965615191132" lon="9.495517263388528"><ele>1298.0</ele><time>2026-04-27T13:48:53Z</time></trkpt><trkpt lat="45.86959895203704" lon="9.495307967784644"><ele>1298.0</ele><time>2026-04-27T13:48:55Z</time></trkpt><trkpt lat="45.86957863637169" lon="9.495152762375119"><ele>1298.0</ele><time>2026-04-27T13:48:56Z</time></trkpt><trkpt lat="45.86955166742542" lon="9.495026845282638"><ele>1294.0</ele><time>2026-04-27T13:48:57Z</time></trkpt><trkpt lat="45.86955808797654" lon="9.494908421253847"><ele>1290.0</ele><time>2026-04-27T13:48:58Z</time></trkpt><trkpt lat="45.86954134228992" lon="9.494788445086238"><ele>1286.0</ele><time>2026-04-27T13:48:59Z</time></trkpt><trkpt lat="45.86952281986143" lon="9.494686286900247"><ele>1282.0</ele><time>2026-04-27T13:49:00Z</time></trkpt><trkpt lat="45.86950710125623" lon="9.494595991046616"><ele>1278.0</ele><time>2026-04-27T13:49:01Z</time></trkpt><trkpt lat="45.86948453889379" lon="9.494511461271328"><ele>1274.0</ele><time>2026-04-27T13:49:02Z</time></trkpt><trkpt lat="45.86943613171152" lon="9.494346050194613"><ele>1270.4</ele><time>2026-04-27T13:49:04Z</time></trkpt><trkpt lat="45.869343663272524" lon="9.494232420313505"><ele>1266.8000000000002</ele><time>2026-04-27T13:49:06Z</time></trkpt><trkpt lat="45.86925364178807" lon="9.494157042408082"><ele>1263.1999999999998</ele><time>2026-04-27T13:49:07Z</time></trkpt><trkpt lat="45.86920183944545" lon="9.49407954550329"><ele>1259.6</ele><time>2026-04-27T13:49:08Z</time></trkpt><trkpt lat="45.8691168999718" lon="9.493962633780894"><ele>1256.0</ele><time>2026-04-27T13:49:10Z</time></trkpt><trkpt lat="45.869040774297645" lon="9.493762147766079"><ele>1259.2</ele><time>2026-04-27T13:49:12Z</time></trkpt><trkpt lat="45.869018395192555" lon="9.493648481687286"><ele>1262.3999999999999</ele><time>2026-04-27T13:49:13Z</time></trkpt><trkpt lat="45.86900692202663" lon="9.493515451251747"><ele>1265.6</ele><time>2026-04-27T13:49:14Z</time></trkpt><trkpt lat="45.868973477615434" lon="9.493393130141412"><ele>1268.8</ele><time>2026-04-27T13:49:15Z</time></trkpt><trkpt lat="45.868968604913974" lon="9.493251755781012"><ele>1272.0</ele><time>2026-04-27T13:49:16Z</time></trkpt><trkpt lat="45.86896591422632" lon="9.493095721578836"><ele>1272.0</ele><time>2026-04-27T13:49:17Z</time></trkpt><trkpt lat="45.86894008729709" lon="9.492969335461883"><ele>1272.0</ele><time>2026-04-27T13:49:18Z</time></trkpt><trkpt lat="45.86894289380565" lon="9.49286276419579"><ele>1272.0</ele><time>2026-04-27T13:49:19Z</time></trkpt><trkpt lat="45.86895147282696" lon="9.49271364081663"><ele>1272.0</ele><time>2026-04-27T13:49:21Z</time></trkpt><trkpt lat="45.86894156649793" lon="9.492496834741223"><ele>1272.0</ele><time>2026-04-27T13:49:23Z</time></trkpt><trkpt lat="45.86883539777183" lon="9.4923223111086"><ele>1269.6</ele><time>2026-04-27T13:49:25Z</time></trkpt><trkpt lat="45.86878114434825" lon="9.492273615518567"><ele>1267.2</ele><time>2026-04-27T13:49:27Z</time></trkpt><trkpt lat="45.86869097680917" lon="9.492142800702005"><ele>1264.8</ele><time>2026-04-27T13:49:29Z</time></trkpt><trkpt lat="45.8686241093107" lon="9.491983145466373"><ele>1262.4</ele><time>2026-04-27T13:49:30Z</time></trkpt><trkpt lat="45.86859040399873" lon="9.49186605170642"><ele>1260.0</ele><time>2026-04-27T13:49:31Z</time></trkpt><trkpt lat="45.86854514943121" lon="9.491670964970863"><ele>1261.2</ele><time>2026-04-27T13:49:32Z</time></trkpt><trkpt lat="45.868492091645855" lon="9.491519387880263"><ele>1262.4</ele><time>2026-04-27T13:49:33Z</time></trkpt><trkpt lat="45.86848873491969" lon="9.491359806986404"><ele>1263.6</ele><time>2026-04-27T13:49:34Z</time></trkpt><trkpt lat="45.86847573280254" lon="9.491248012580906"><ele>1264.8</ele><time>2026-04-27T13:49:35Z</time></trkpt><trkpt lat="45.86845242777554" lon="9.491160272758242"><ele>1266.0</ele><time>2026-04-27T13:49:36Z</time></trkpt><trkpt lat="45.868421214426995" lon="9.491047593816175"><ele>1266.0</ele><time>2026-04-27T13:49:39Z</time></trkpt><trkpt lat="45.868346633575186" lon="9.490770435495218"><ele>1266.0</ele><time>2026-04-27T13:49:41Z</time></trkpt><trkpt lat="45.86825022425868" lon="9.490601205487422"><ele>1266.0</ele><time>2026-04-27T13:49:42Z</time></trkpt><trkpt lat="45.868175356397074" lon="9.490515091581893"><ele>1266.0</ele><time>2026-04-27T13:49:43Z</time></trkpt><trkpt lat="45.86812142001166" lon="9.490456779449257"><ele>1266.0</ele><time>2026-04-27T13:49:44Z</time></trkpt><trkpt lat="45.86804428956391" lon="9.490373407281188"><ele>1266.0</ele><time>2026-04-27T13:49:46Z</time></trkpt><trkpt lat="45.867971724467665" lon="9.49024361127237"><ele>1266.0</ele><time>2026-04-27T13:49:48Z</time></trkpt><trkpt lat="45.867917892383495" lon="9.490185701397218"><ele>1266.0</ele><time>2026-04-27T13:49:49.999Z</time></trkpt><trkpt lat="45.86789518732907" lon="9.490068702709424"><ele>1266.0</ele><time>2026-04-27T13:49:51.999Z</time></trkpt><trkpt lat="45.86789887249951" lon="9.489953671917318"><ele>1266.6</ele><time>2026-04-27T13:49:52.999Z</time></trkpt><trkpt lat="45.867962260333314" lon="9.489876619235297"><ele>1267.1999999999998</ele><time>2026-04-27T13:49:53.999Z</time></trkpt><trkpt lat="45.86802751479202" lon="9.489778961825465"><ele>1267.8000000000002</ele><time>2026-04-27T13:49:54.999Z</time></trkpt><trkpt lat="45.8680985056082" lon="9.48970881146862"><ele>1268.4</ele><time>2026-04-27T13:49:55.999Z</time></trkpt><trkpt lat="45.868142593383055" lon="9.48958822370036"><ele>1269.0</ele><time>2026-04-27T13:49:56.999Z</time></trkpt><trkpt lat="45.86821946095518" lon="9.489423387701654"><ele>1269.0</ele><time>2026-04-27T13:49:57.999Z</time></trkpt><trkpt lat="45.86827605635467" lon="9.489325119504535"><ele>1269.0</ele><time>2026-04-27T13:49:58.999Z</time></trkpt><trkpt lat="45.86840864365976" lon="9.489202974303009"><ele>1269.0</ele><time>2026-04-27T13:49:59.999Z</time></trkpt><trkpt lat="45.868518932695665" lon="9.48911475814265"><ele>1269.0</ele><time>2026-04-27T13:50:00.999Z</time></trkpt><trkpt lat="45.86860818188091" lon="9.489063053949897"><ele>1263.5</ele><time>2026-04-27T13:50:01.999Z</time></trkpt><trkpt lat="45.868716497629904" lon="9.489016220760442"><ele>1258.0</ele><time>2026-04-27T13:50:02.999Z</time></trkpt><trkpt lat="45.86878892996049" lon="9.48897162452722"><ele>1252.5</ele><time>2026-04-27T13:50:03.999Z</time></trkpt><trkpt lat="45.868867007475835" lon="9.488927196792767"><ele>1247.0</ele><time>2026-04-27T13:50:04.999Z</time></trkpt><trkpt lat="45.86893853776717" lon="9.488913734620754"><ele>1241.5</ele><time>2026-04-27T13:50:05.999Z</time></trkpt><trkpt lat="45.86900808351617" lon="9.48882526483028"><ele>1236.0</ele><time>2026-04-27T13:50:06.999Z</time></trkpt><trkpt lat="45.869062912790966" lon="9.488772724302093"><ele>1235.2</ele><time>2026-04-27T13:50:07.999Z</time></trkpt><trkpt lat="45.86918089494377" lon="9.488724437824548"><ele>1234.3999999999999</ele><time>2026-04-27T13:50:08.999Z</time></trkpt><trkpt lat="45.8692823644548" lon="9.488688283092587"><ele>1233.6</ele><time>2026-04-27T13:50:10.999Z</time></trkpt><trkpt lat="45.86933975898333" lon="9.488633292832455"><ele>1232.8</ele><time>2026-04-27T13:50:11.999Z</time></trkpt><trkpt lat="45.86942666312658" lon="9.488604051584579"><ele>1232.0</ele><time>2026-04-27T13:50:13.999Z</time></trkpt><trkpt lat="45.86952542155603" lon="9.488562119827948"><ele>1232.0</ele><time>2026-04-27T13:50:15.999Z</time></trkpt><trkpt lat="45.869552241585936" lon="9.488471467457826"><ele>1232.0</ele><time>2026-04-27T13:50:17.999Z</time></trkpt><trkpt lat="45.86951111471717" lon="9.48833478432334"><ele>1232.0</ele><time>2026-04-27T13:50:20.999Z</time></trkpt><trkpt lat="45.86938050288283" lon="9.488202211899743"><ele>1232.0</ele><time>2026-04-27T13:50:23Z</time></trkpt><trkpt lat="45.869304121362575" lon="9.488113823476372"><ele>1232.0</ele><time>2026-04-27T13:50:24Z</time></trkpt><trkpt lat="45.86924386819464" lon="9.488014061516138"><ele>1232.0</ele><time>2026-04-27T13:50:25Z</time></trkpt><trkpt lat="45.86919053103174" lon="9.487911260793082"><ele>1232.0</ele><time>2026-04-27T13:50:26Z</time></trkpt><trkpt lat="45.86914181255931" lon="9.487809611561412"><ele>1232.0</ele><time>2026-04-27T13:50:27Z</time></trkpt><trkpt lat="45.869098824403416" lon="9.4877058538478"><ele>1232.0</ele><time>2026-04-27T13:50:28Z</time></trkpt><trkpt lat="45.86905309599306" lon="9.487593006314535"><ele>1232.0</ele><time>2026-04-27T13:50:29Z</time></trkpt><trkpt lat="45.86900756903582" lon="9.487486278127742"><ele>1232.0</ele><time>2026-04-27T13:50:30Z</time></trkpt><trkpt lat="45.868951835971124" lon="9.487376102487254"><ele>1232.0</ele><time>2026-04-27T13:50:31Z</time></trkpt><trkpt lat="45.86888444665313" lon="9.487276681524014"><ele>1232.0</ele><time>2026-04-27T13:50:32Z</time></trkpt><trkpt lat="45.8688072204087" lon="9.487175963440393"><ele>1232.0</ele><time>2026-04-27T13:50:33Z</time></trkpt><trkpt lat="45.868726676219715" lon="9.487087940462795"><ele>1232.0</ele><time>2026-04-27T13:50:34Z</time></trkpt><trkpt lat="45.8686336065529" lon="9.486999251618617"><ele>1232.0</ele><time>2026-04-27T13:50:35Z</time></trkpt><trkpt lat="45.86856468323821" lon="9.486953973740818"><ele>1232.8</ele><time>2026-04-27T13:50:36Z</time></trkpt><trkpt lat="45.868430963854415" lon="9.486852474936972"><ele>1233.6</ele><time>2026-04-27T13:50:38Z</time></trkpt><trkpt lat="45.86833287934518" lon="9.486770144476314"><ele>1234.3999999999999</ele><time>2026-04-27T13:50:40Z</time></trkpt><trkpt lat="45.86836883603817" lon="9.486694938822355"><ele>1235.2</ele><time>2026-04-27T13:50:46Z</time></trkpt><trkpt lat="45.8684446635078" lon="9.486673955863665"><ele>1236.0</ele><time>2026-04-27T13:50:48Z</time></trkpt><trkpt lat="45.86852567802036" lon="9.48671745580707"><ele>1231.6</ele><time>2026-04-27T13:50:50Z</time></trkpt><trkpt lat="45.86861194612227" lon="9.486742824258032"><ele>1227.1999999999998</ele><time>2026-04-27T13:50:51Z</time></trkpt><trkpt lat="45.86872122114338" lon="9.486801374087324"><ele>1222.8000000000002</ele><time>2026-04-27T13:50:52Z</time></trkpt><trkpt lat="45.8688412775383" lon="9.486832606668179"><ele>1218.4</ele><time>2026-04-27T13:50:53Z</time></trkpt><trkpt lat="45.8689289616755" lon="9.486906462087035"><ele>1214.0</ele><time>2026-04-27T13:50:54Z</time></trkpt><trkpt lat="45.86906082231195" lon="9.487002657325585"><ele>1214.0</ele><time>2026-04-27T13:50:56Z</time></trkpt><trkpt lat="45.86913986517147" lon="9.487082198706716"><ele>1214.0</ele><time>2026-04-27T13:50:57Z</time></trkpt><trkpt lat="45.86920770300401" lon="9.48718254207194"><ele>1214.0</ele><time>2026-04-27T13:50:58Z</time></trkpt><trkpt lat="45.86930846083418" lon="9.487314620572203"><ele>1214.0</ele><time>2026-04-27T13:50:59Z</time></trkpt><trkpt lat="45.86942626056355" lon="9.487414588787797"><ele>1212.8</ele><time>2026-04-27T13:51:00Z</time></trkpt><trkpt lat="45.869487192620724" lon="9.487457025699008"><ele>1211.6000000000001</ele><time>2026-04-27T13:51:01Z</time></trkpt><trkpt lat="45.86958215251769" lon="9.487545402384516"><ele>1210.4</ele><time>2026-04-27T13:51:02Z</time></trkpt><trkpt lat="45.869679470531814" lon="9.487606971038364"><ele>1209.2</ele><time>2026-04-27T13:51:03Z</time></trkpt><trkpt lat="45.869778432864955" lon="9.487669856535522"><ele>1208.0</ele><time>2026-04-27T13:51:04Z</time></trkpt><trkpt lat="45.869869580187945" lon="9.487694935091191"><ele>1208.0</ele><time>2026-04-27T13:51:05Z</time></trkpt><trkpt lat="45.86996846207688" lon="9.48769390284451"><ele>1208.0</ele><time>2026-04-27T13:51:06Z</time></trkpt><trkpt lat="45.87005345810258" lon="9.487670916011382"><ele>1208.0</ele><time>2026-04-27T13:51:07Z</time></trkpt><trkpt lat="45.8701596723415" lon="9.487660495400085"><ele>1208.0</ele><time>2026-04-27T13:51:08Z</time></trkpt><trkpt lat="45.87022713312843" lon="9.48762750583406"><ele>1208.0</ele><time>2026-04-27T13:51:09Z</time></trkpt><trkpt lat="45.870323025971146" lon="9.487596270285392"><ele>1206.0</ele><time>2026-04-27T13:51:10Z</time></trkpt><trkpt lat="45.87041722248943" lon="9.487569864379672"><ele>1204.0</ele><time>2026-04-27T13:51:11Z</time></trkpt><trkpt lat="45.87053424662596" lon="9.487525181620924"><ele>1202.0</ele><time>2026-04-27T13:51:12Z</time></trkpt><trkpt lat="45.870631949158806" lon="9.487531168458048"><ele>1200.0</ele><time>2026-04-27T13:51:13Z</time></trkpt><trkpt lat="45.870718104118026" lon="9.487522275689"><ele>1198.0</ele><time>2026-04-27T13:51:14Z</time></trkpt><trkpt lat="45.87079832440683" lon="9.487514800988748"><ele>1198.0</ele><time>2026-04-27T13:51:15Z</time></trkpt><trkpt lat="45.87087387107347" lon="9.487512367750268"><ele>1198.0</ele><time>2026-04-27T13:51:16Z</time></trkpt><trkpt lat="45.87095505646121" lon="9.487503638066476"><ele>1198.0</ele><time>2026-04-27T13:51:17Z</time></trkpt><trkpt lat="45.871047595314685" lon="9.487501363404764"><ele>1198.0</ele><time>2026-04-27T13:51:18Z</time></trkpt><trkpt lat="45.87113852413869" lon="9.487502964709691"><ele>1198.0</ele><time>2026-04-27T13:51:19Z</time></trkpt><trkpt lat="45.871229416228005" lon="9.487508058448824"><ele>1198.0</ele><time>2026-04-27T13:51:20Z</time></trkpt><trkpt lat="45.87131201448654" lon="9.4875067996044"><ele>1196.5714285714287</ele><time>2026-04-27T13:51:21Z</time></trkpt><trkpt lat="45.87138873013335" lon="9.487500762643892"><ele>1195.142857142857</ele><time>2026-04-27T13:51:22Z</time></trkpt><trkpt lat="45.871457725499724" lon="9.48749166399489"><ele>1193.7142857142858</ele><time>2026-04-27T13:51:23Z</time></trkpt><trkpt lat="45.871527496589664" lon="9.487481400092042"><ele>1192.2857142857142</ele><time>2026-04-27T13:51:24Z</time></trkpt><trkpt lat="45.87160744088891" lon="9.487482100806496"><ele>1190.857142857143</ele><time>2026-04-27T13:51:25Z</time></trkpt><trkpt lat="45.871676236595064" lon="9.487484496451284"><ele>1189.4285714285716</ele><time>2026-04-27T13:51:26Z</time></trkpt><trkpt lat="45.87174792578836" lon="9.48751490500197"><ele>1188.0</ele><time>2026-04-27T13:51:27Z</time></trkpt><trkpt lat="45.87186517186986" lon="9.487561982096867"><ele>1185.0</ele><time>2026-04-27T13:51:29Z</time></trkpt><trkpt lat="45.87193393283195" lon="9.487620588918963"><ele>1182.0</ele><time>2026-04-27T13:51:30Z</time></trkpt><trkpt lat="45.87197908098071" lon="9.4877023668124"><ele>1179.0</ele><time>2026-04-27T13:51:31Z</time></trkpt><trkpt lat="45.87203791518654" lon="9.487817063789036"><ele>1176.0</ele><time>2026-04-27T13:51:32Z</time></trkpt><trkpt lat="45.8721317696387" lon="9.487927775696187"><ele>1173.0</ele><time>2026-04-27T13:51:33Z</time></trkpt><trkpt lat="45.872212891597044" lon="9.488077101782494"><ele>1173.0</ele><time>2026-04-27T13:51:34Z</time></trkpt><trkpt lat="45.87227972031995" lon="9.488183993754946"><ele>1173.0</ele><time>2026-04-27T13:51:35Z</time></trkpt><trkpt lat="45.87234651163906" lon="9.488327886243946"><ele>1173.0</ele><time>2026-04-27T13:51:36Z</time></trkpt><trkpt lat="45.87240963745874" lon="9.488445888559145"><ele>1173.0</ele><time>2026-04-27T13:51:37Z</time></trkpt><trkpt lat="45.87246052252269" lon="9.488532916232433"><ele>1173.0</ele><time>2026-04-27T13:51:38Z</time></trkpt><trkpt lat="45.87251802452324" lon="9.48862759037927"><ele>1173.0</ele><time>2026-04-27T13:51:39Z</time></trkpt><trkpt lat="45.87256417613855" lon="9.488701379781485"><ele>1173.0</ele><time>2026-04-27T13:51:40Z</time></trkpt><trkpt lat="45.872614669788284" lon="9.488786421155975"><ele>1173.0</ele><time>2026-04-27T13:51:41Z</time></trkpt><trkpt lat="45.872659145740684" lon="9.488857233630078"><ele>1173.0</ele><time>2026-04-27T13:51:42Z</time></trkpt><trkpt lat="45.872732539551336" lon="9.48896678061048"><ele>1173.0</ele><time>2026-04-27T13:51:44Z</time></trkpt><trkpt lat="45.872765405276084" lon="9.489115794549464"><ele>1173.0</ele><time>2026-04-27T13:51:46Z</time></trkpt><trkpt lat="45.872802496805335" lon="9.48923940495434"><ele>1169.1666666666667</ele><time>2026-04-27T13:51:48Z</time></trkpt><trkpt lat="45.872894924595435" lon="9.489231718522309"><ele>1165.3333333333333</ele><time>2026-04-27T13:51:49.999Z</time></trkpt><trkpt lat="45.8729529934547" lon="9.489189329214563"><ele>1161.5</ele><time>2026-04-27T13:51:50.999Z</time></trkpt><trkpt lat="45.872965408780146" lon="9.489061462217803"><ele>1157.6666666666665</ele><time>2026-04-27T13:51:51.999Z</time></trkpt><trkpt lat="45.872904701608704" lon="9.48895921258297"><ele>1153.8333333333333</ele><time>2026-04-27T13:51:52.999Z</time></trkpt><trkpt lat="45.872869036249185" lon="9.48885092677707"><ele>1150.0</ele><time>2026-04-27T13:51:53.999Z</time></trkpt><trkpt lat="45.87280534766001" lon="9.488665173441396"><ele>1146.25</ele><time>2026-04-27T13:51:54.999Z</time></trkpt><trkpt lat="45.87274307872465" lon="9.488521389874984"><ele>1142.5</ele><time>2026-04-27T13:51:55.999Z</time></trkpt><trkpt lat="45.87268045889416" lon="9.488371281878658"><ele>1138.75</ele><time>2026-04-27T13:51:56.999Z</time></trkpt><trkpt lat="45.872645157434626" lon="9.48823123163504"><ele>1135.0</ele><time>2026-04-27T13:51:57.999Z</time></trkpt><trkpt lat="45.87259741340891" lon="9.488072216616017"><ele>1140.0</ele><time>2026-04-27T13:51:58.999Z</time></trkpt><trkpt lat="45.87256374363973" lon="9.487937616123757"><ele>1145.0</ele><time>2026-04-27T13:51:59.999Z</time></trkpt><trkpt lat="45.872520586664685" lon="9.487757431352"><ele>1150.0</ele><time>2026-04-27T13:52:01.999Z</time></trkpt><trkpt lat="45.87253735130885" lon="9.487660761928048"><ele>1155.0</ele><time>2026-04-27T13:52:02.999Z</time></trkpt><trkpt lat="45.87249539642336" lon="9.487500146566807"><ele>1160.0</ele><time>2026-04-27T13:52:03.999Z</time></trkpt><trkpt lat="45.87245897420323" lon="9.487382854891997"><ele>1160.0</ele><time>2026-04-27T13:52:04.999Z</time></trkpt><trkpt lat="45.872418995420055" lon="9.487274939889042"><ele>1160.0</ele><time>2026-04-27T13:52:05.999Z</time></trkpt><trkpt lat="45.87234460912601" lon="9.487180787722453"><ele>1160.0</ele><time>2026-04-27T13:52:06.999Z</time></trkpt><trkpt lat="45.8722695305983" lon="9.487088337628247"><ele>1160.0</ele><time>2026-04-27T13:52:07.999Z</time></trkpt><trkpt lat="45.87219287652395" lon="9.487021014740757"><ele>1160.0</ele><time>2026-04-27T13:52:08.999Z</time></trkpt><trkpt lat="45.87212664163248" lon="9.486954170681111"><ele>1158.8</ele><time>2026-04-27T13:52:09.999Z</time></trkpt><trkpt lat="45.872061778496025" lon="9.48686707603011"><ele>1157.6</ele><time>2026-04-27T13:52:10.999Z</time></trkpt><trkpt lat="45.87197770855757" lon="9.486803222370568"><ele>1156.4</ele><time>2026-04-27T13:52:11.999Z</time></trkpt><trkpt lat="45.87186340956651" lon="9.48673273810515"><ele>1155.2</ele><time>2026-04-27T13:52:12.999Z</time></trkpt><trkpt lat="45.87178268625004" lon="9.486679659453781"><ele>1154.0</ele><time>2026-04-27T13:52:13.999Z</time></trkpt><trkpt lat="45.871698236033104" lon="9.486624372096022"><ele>1154.0</ele><time>2026-04-27T13:52:14.999Z</time></trkpt><trkpt lat="45.87160463103023" lon="9.486568107321943"><ele>1154.0</ele><time>2026-04-27T13:52:15.999Z</time></trkpt><trkpt lat="45.87149896739507" lon="9.48649505879707"><ele>1154.0</ele><time>2026-04-27T13:52:16.999Z</time></trkpt><trkpt lat="45.87136599274995" lon="9.486456328852942"><ele>1154.0</ele><time>2026-04-27T13:52:18.999Z</time></trkpt><trkpt lat="45.87128626812334" lon="9.486365100491602"><ele>1154.0</ele><time>2026-04-27T13:52:19.999Z</time></trkpt><trkpt lat="45.87119506386258" lon="9.486300949137652"><ele>1154.0</ele><time>2026-04-27T13:52:20.999Z</time></trkpt><trkpt lat="45.87111144151951" lon="9.486208576383596"><ele>1154.0</ele><time>2026-04-27T13:52:21.999Z</time></trkpt><trkpt lat="45.87099035568232" lon="9.486139983863339"><ele>1154.0</ele><time>2026-04-27T13:52:22.999Z</time></trkpt><trkpt lat="45.870868869857205" lon="9.486067393400516"><ele>1149.0</ele><time>2026-04-27T13:52:23.999Z</time></trkpt><trkpt lat="45.870736881930405" lon="9.486008491986347"><ele>1144.0</ele><time>2026-04-27T13:52:24.999Z</time></trkpt><trkpt lat="45.8706183769689" lon="9.485978289694168"><ele>1139.0</ele><time>2026-04-27T13:52:25.999Z</time></trkpt><trkpt lat="45.870513591203064" lon="9.485916220399584"><ele>1134.0</ele><time>2026-04-27T13:52:26.999Z</time></trkpt><trkpt lat="45.870405449614054" lon="9.48585473942009"><ele>1134.0</ele><time>2026-04-27T13:52:28Z</time></trkpt><trkpt lat="45.8703094872279" lon="9.485743426286962"><ele>1134.0</ele><time>2026-04-27T13:52:29Z</time></trkpt><trkpt lat="45.87023206568422" lon="9.485649684244862"><ele>1134.0</ele><time>2026-04-27T13:52:30Z</time></trkpt><trkpt lat="45.87014460575138" lon="9.485545121711187"><ele>1134.0</ele><time>2026-04-27T13:52:31Z</time></trkpt><trkpt lat="45.870078292451986" lon="9.485447538063148"><ele>1134.0</ele><time>2026-04-27T13:52:32Z</time></trkpt><trkpt lat="45.870015427029756" lon="9.485342607749208"><ele>1134.2</ele><time>2026-04-27T13:52:33Z</time></trkpt><trkpt lat="45.869946234696" lon="9.485247161785212"><ele>1134.4</ele><time>2026-04-27T13:52:34Z</time></trkpt><trkpt lat="45.86988710522667" lon="9.48518562287085"><ele>1134.6</ele><time>2026-04-27T13:52:35Z</time></trkpt><trkpt lat="45.869849035435394" lon="9.485111111116264"><ele>1134.8</ele><time>2026-04-27T13:52:36Z</time></trkpt><trkpt lat="45.869797558264835" lon="9.484993318471215"><ele>1135.0</ele><time>2026-04-27T13:52:38Z</time></trkpt><trkpt lat="45.86986891199286" lon="9.48484074010761"><ele>1135.0</ele><time>2026-04-27T13:52:40Z</time></trkpt><trkpt lat="45.86992416238427" lon="9.484750745361987"><ele>1135.0</ele><time>2026-04-27T13:52:41Z</time></trkpt><trkpt lat="45.869981199679565" lon="9.484637818313718"><ele>1135.0</ele><time>2026-04-27T13:52:42Z</time></trkpt><trkpt lat="45.87007673450875" lon="9.484470313813702"><ele>1135.0</ele><time>2026-04-27T13:52:43Z</time></trkpt><trkpt lat="45.87015721110274" lon="9.484323905155719"><ele>1132.6</ele><time>2026-04-27T13:52:44Z</time></trkpt><trkpt lat="45.87023206514192" lon="9.484205646498138"><ele>1130.2</ele><time>2026-04-27T13:52:45Z</time></trkpt><trkpt lat="45.87030908860262" lon="9.484097203048773"><ele>1127.8</ele><time>2026-04-27T13:52:46Z</time></trkpt><trkpt lat="45.87040542246839" lon="9.484066147232513"><ele>1125.4</ele><time>2026-04-27T13:52:47Z</time></trkpt><trkpt lat="45.87050614770755" lon="9.48402071847758"><ele>1123.0</ele><time>2026-04-27T13:52:48Z</time></trkpt><trkpt lat="45.8706398235772" lon="9.483962383166407"><ele>1123.0</ele><time>2026-04-27T13:52:49Z</time></trkpt><trkpt lat="45.870727398054974" lon="9.483918994942739"><ele>1123.0</ele><time>2026-04-27T13:52:50Z</time></trkpt><trkpt lat="45.87082213269736" lon="9.483829414774869"><ele>1123.0</ele><time>2026-04-27T13:52:51Z</time></trkpt><trkpt lat="45.87091547012954" lon="9.4837610391463"><ele>1123.0</ele><time>2026-04-27T13:52:52Z</time></trkpt><trkpt lat="45.87102295024662" lon="9.483681853252754"><ele>1123.0</ele><time>2026-04-27T13:52:53Z</time></trkpt><trkpt lat="45.87110834593819" lon="9.483601914515818"><ele>1119.0</ele><time>2026-04-27T13:52:54Z</time></trkpt><trkpt lat="45.871181686855884" lon="9.48352862944278"><ele>1115.0</ele><time>2026-04-27T13:52:55Z</time></trkpt><trkpt lat="45.87124212848816" lon="9.483463539999473"><ele>1111.0</ele><time>2026-04-27T13:52:56Z</time></trkpt><trkpt lat="45.8713063954377" lon="9.483378375694064"><ele>1107.0</ele><time>2026-04-27T13:52:57Z</time></trkpt><trkpt lat="45.87136071274298" lon="9.48330028098548"><ele>1103.0</ele><time>2026-04-27T13:52:58Z</time></trkpt><trkpt lat="45.87139675847019" lon="9.483199698922133"><ele>1099.0</ele><time>2026-04-27T13:52:59Z</time></trkpt><trkpt lat="45.87141464144031" lon="9.482980201051241"><ele>1099.8</ele><time>2026-04-27T13:53:01Z</time></trkpt><trkpt lat="45.871378424601104" lon="9.482814916416835"><ele>1100.6000000000001</ele><time>2026-04-27T13:53:02Z</time></trkpt><trkpt lat="45.87135517070824" lon="9.482687724209697"><ele>1101.4</ele><time>2026-04-27T13:53:03Z</time></trkpt><trkpt lat="45.87136904674153" lon="9.482556362718183"><ele>1102.2</ele><time>2026-04-27T13:53:04Z</time></trkpt><trkpt lat="45.87139641794421" lon="9.48243055314443"><ele>1103.0</ele><time>2026-04-27T13:53:05Z</time></trkpt><trkpt lat="45.87145121838543" lon="9.482289688200192"><ele>1103.0</ele><time>2026-04-27T13:53:06Z</time></trkpt><trkpt lat="45.87150218606953" lon="9.482156341374985"><ele>1103.0</ele><time>2026-04-27T13:53:07Z</time></trkpt><trkpt lat="45.87154088322525" lon="9.482021385327334"><ele>1103.0</ele><time>2026-04-27T13:53:08Z</time></trkpt><trkpt lat="45.871580740991085" lon="9.481936007125592"><ele>1103.0</ele><time>2026-04-27T13:53:09Z</time></trkpt><trkpt lat="45.87162997594183" lon="9.481873311218267"><ele>1103.0</ele><time>2026-04-27T13:53:10Z</time></trkpt><trkpt lat="45.87172735760963" lon="9.48184673739139"><ele>1103.0</ele><time>2026-04-27T13:53:12Z</time></trkpt><trkpt lat="45.87178388367457" lon="9.481918370241472"><ele>1101.4</ele><time>2026-04-27T13:53:13Z</time></trkpt><trkpt lat="45.87189507620943" lon="9.481938649020544"><ele>1099.8</ele><time>2026-04-27T13:53:15Z</time></trkpt><trkpt lat="45.87197819065491" lon="9.481877914050589"><ele>1098.2</ele><time>2026-04-27T13:53:16Z</time></trkpt><trkpt lat="45.87207678217379" lon="9.481786118785973"><ele>1096.6</ele><time>2026-04-27T13:53:17Z</time></trkpt><trkpt lat="45.872169062555656" lon="9.481709375477747"><ele>1095.0</ele><time>2026-04-27T13:53:18Z</time></trkpt><trkpt lat="45.87227172588491" lon="9.481682263077277"><ele>1095.0</ele><time>2026-04-27T13:53:19Z</time></trkpt><trkpt lat="45.872371690832665" lon="9.481651249167024"><ele>1095.0</ele><time>2026-04-27T13:53:20Z</time></trkpt><trkpt lat="45.872446595096726" lon="9.48159661189253"><ele>1095.0</ele><time>2026-04-27T13:53:21Z</time></trkpt><trkpt lat="45.87251567714366" lon="9.481625003448732"><ele>1095.0</ele><time>2026-04-27T13:53:22Z</time></trkpt><trkpt lat="45.8726221705058" lon="9.481769438558194"><ele>1095.0</ele><time>2026-04-27T13:53:24Z</time></trkpt><trkpt lat="45.87265805863032" lon="9.481865933273713"><ele>1093.5</ele><time>2026-04-27T13:53:25Z</time></trkpt><trkpt lat="45.87275608976599" lon="9.481910445440688"><ele>1092.0</ele><time>2026-04-27T13:53:27Z</time></trkpt><trkpt lat="45.872844738342025" lon="9.481899798786687"><ele>1090.5</ele><time>2026-04-27T13:53:28Z</time></trkpt><trkpt lat="45.87294663684689" lon="9.481882345113577"><ele>1089.0</ele><time>2026-04-27T13:53:29Z</time></trkpt><trkpt lat="45.87301033026628" lon="9.481897687020844"><ele>1087.5</ele><time>2026-04-27T13:53:30Z</time></trkpt><trkpt lat="45.873098596060736" lon="9.481886878187545"><ele>1086.0</ele><time>2026-04-27T13:53:31Z</time></trkpt><trkpt lat="45.8731911947317" lon="9.481853541224082"><ele>1086.0</ele><time>2026-04-27T13:53:32Z</time></trkpt><trkpt lat="45.87327053340634" lon="9.481850431391422"><ele>1086.0</ele><time>2026-04-27T13:53:33Z</time></trkpt><trkpt lat="45.87335915728442" lon="9.48184511376217"><ele>1086.0</ele><time>2026-04-27T13:53:34Z</time></trkpt><trkpt lat="45.87343736372631" lon="9.481797277269129"><ele>1086.0</ele><time>2026-04-27T13:53:35Z</time></trkpt><trkpt lat="45.87350920945078" lon="9.481748693292351"><ele>1086.0</ele><time>2026-04-27T13:53:36Z</time></trkpt><trkpt lat="45.87355579311106" lon="9.481683134251504"><ele>1086.0</ele><time>2026-04-27T13:53:37Z</time></trkpt><trkpt lat="45.87359763513481" lon="9.481520107350661"><ele>1086.6</ele><time>2026-04-27T13:53:39Z</time></trkpt><trkpt lat="45.873570967115626" lon="9.48140953095789"><ele>1087.1999999999998</ele><time>2026-04-27T13:53:40Z</time></trkpt><trkpt lat="45.87353000296539" lon="9.481324783963704"><ele>1087.8000000000002</ele><time>2026-04-27T13:53:41Z</time></trkpt><trkpt lat="45.87349356697906" lon="9.481164409859558"><ele>1088.4</ele><time>2026-04-27T13:53:43Z</time></trkpt><trkpt lat="45.87348282375052" lon="9.481026907968252"><ele>1089.0</ele><time>2026-04-27T13:53:45Z</time></trkpt><trkpt lat="45.87357846440449" lon="9.480959551117474"><ele>1089.0</ele><time>2026-04-27T13:53:47Z</time></trkpt><trkpt lat="45.873653096177634" lon="9.480985148293458"><ele>1089.0</ele><time>2026-04-27T13:53:48Z</time></trkpt><trkpt lat="45.87375545105297" lon="9.481078147947567"><ele>1089.0</ele><time>2026-04-27T13:53:49Z</time></trkpt><trkpt lat="45.873864688234086" lon="9.481184274260237"><ele>1089.0</ele><time>2026-04-27T13:53:50Z</time></trkpt><trkpt lat="45.873975871698946" lon="9.481255400493216"><ele>1086.4</ele><time>2026-04-27T13:53:50.999Z</time></trkpt><trkpt lat="45.87408227015966" lon="9.481331502929658"><ele>1083.8000000000002</ele><time>2026-04-27T13:53:51.999Z</time></trkpt><trkpt lat="45.87418073613326" lon="9.481364193567952"><ele>1081.1999999999998</ele><time>2026-04-27T13:53:52.999Z</time></trkpt><trkpt lat="45.87426394471881" lon="9.48141949895692"><ele>1078.6</ele><time>2026-04-27T13:53:53.999Z</time></trkpt><trkpt lat="45.874340833754" lon="9.481445924567103"><ele>1076.0</ele><time>2026-04-27T13:53:54.999Z</time></trkpt><trkpt lat="45.874443995614826" lon="9.481411805241976"><ele>1074.6</ele><time>2026-04-27T13:53:56.999Z</time></trkpt><trkpt lat="45.8745248800881" lon="9.48133542040905"><ele>1073.1999999999998</ele><time>2026-04-27T13:53:57.999Z</time></trkpt><trkpt lat="45.874613001858975" lon="9.4812352257537"><ele>1071.8000000000002</ele><time>2026-04-27T13:53:58.999Z</time></trkpt><trkpt lat="45.87468091508367" lon="9.481154452645754"><ele>1070.4</ele><time>2026-04-27T13:53:59.999Z</time></trkpt><trkpt lat="45.87475176159911" lon="9.4810842902072"><ele>1069.0</ele><time>2026-04-27T13:54:00.999Z</time></trkpt><trkpt lat="45.87478511796461" lon="9.480971615482632"><ele>1069.0</ele><time>2026-04-27T13:54:01.999Z</time></trkpt><trkpt lat="45.87481842434436" lon="9.480844677058153"><ele>1069.0</ele><time>2026-04-27T13:54:02.999Z</time></trkpt><trkpt lat="45.874830879846684" lon="9.480696402455495"><ele>1069.0</ele><time>2026-04-27T13:54:03.999Z</time></trkpt><trkpt lat="45.87482139248321" lon="9.480541758108739"><ele>1069.0</ele><time>2026-04-27T13:54:04.999Z</time></trkpt><trkpt lat="45.874802096179245" lon="9.48041621948029"><ele>1069.0</ele><time>2026-04-27T13:54:05.999Z</time></trkpt><trkpt lat="45.87480483028808" lon="9.48023126648941"><ele>1070.2</ele><time>2026-04-27T13:54:07.999Z</time></trkpt><trkpt lat="45.874826481947196" lon="9.480113840062359"><ele>1071.4</ele><time>2026-04-27T13:54:09.999Z</time></trkpt><trkpt lat="45.87490414636015" lon="9.48008888099498"><ele>1072.6</ele><time>2026-04-27T13:54:11.999Z</time></trkpt><trkpt lat="45.87501481750368" lon="9.48023090919828"><ele>1073.8</ele><time>2026-04-27T13:54:13.999Z</time></trkpt><trkpt lat="45.8750879553041" lon="9.48034032612775"><ele>1075.0</ele><time>2026-04-27T13:54:14.999Z</time></trkpt><trkpt lat="45.875151288890706" lon="9.480425818143713"><ele>1075.0</ele><time>2026-04-27T13:54:15.999Z</time></trkpt><trkpt lat="45.87520558987718" lon="9.480495324358268"><ele>1075.0</ele><time>2026-04-27T13:54:16.999Z</time></trkpt><trkpt lat="45.87526046779542" lon="9.480559490799816"><ele>1075.0</ele><time>2026-04-27T13:54:17.999Z</time></trkpt><trkpt lat="45.87539580893003" lon="9.480535213539483"><ele>1075.0</ele><time>2026-04-27T13:54:19.999Z</time></trkpt><trkpt lat="45.87548459456157" lon="9.480474660688284"><ele>1075.0</ele><time>2026-04-27T13:54:20.999Z</time></trkpt><trkpt lat="45.875525233429975" lon="9.480372092495319"><ele>1075.0</ele><time>2026-04-27T13:54:21.999Z</time></trkpt><trkpt lat="45.875642099370836" lon="9.480338086138346"><ele>1075.0</ele><time>2026-04-27T13:54:23.999Z</time></trkpt><trkpt lat="45.875713121093206" lon="9.480359647148594"><ele>1075.0</ele><time>2026-04-27T13:54:24.999Z</time></trkpt><trkpt lat="45.875799206324736" lon="9.480411134325854"><ele>1075.0</ele><time>2026-04-27T13:54:25.999Z</time></trkpt><trkpt lat="45.87588561417461" lon="9.48045719030794"><ele>1075.0</ele><time>2026-04-27T13:54:26.999Z</time></trkpt><trkpt lat="45.875957647855444" lon="9.480483983978381"><ele>1075.0</ele><time>2026-04-27T13:54:27.999Z</time></trkpt><trkpt lat="45.87605537802398" lon="9.480476809875343"><ele>1075.0</ele><time>2026-04-27T13:54:28.999Z</time></trkpt><trkpt lat="45.876173300234285" lon="9.480439667949577"><ele>1075.0</ele><time>2026-04-27T13:54:29.999Z</time></trkpt><trkpt lat="45.87627054425415" lon="9.480352534602424"><ele>1075.0</ele><time>2026-04-27T13:54:30.999Z</time></trkpt><trkpt lat="45.87636445546155" lon="9.480315415585933"><ele>1075.0</ele><time>2026-04-27T13:54:31.999Z</time></trkpt><trkpt lat="45.8764518785017" lon="9.4802368745838"><ele>1075.0</ele><time>2026-04-27T13:54:32.999Z</time></trkpt><trkpt lat="45.876504983693515" lon="9.48014984143753"><ele>1075.0</ele><time>2026-04-27T13:54:34Z</time></trkpt><trkpt lat="45.87658158306709" lon="9.48006375864224"><ele>1075.0</ele><time>2026-04-27T13:54:36Z</time></trkpt><trkpt lat="45.87666452936334" lon="9.48007738909007"><ele>1075.0</ele><time>2026-04-27T13:54:38Z</time></trkpt><trkpt lat="45.87668885741102" lon="9.480255262410992"><ele>1075.0</ele><time>2026-04-27T13:54:39Z</time></trkpt><trkpt lat="45.87665212121714" lon="9.480395804040096"><ele>1073.25</ele><time>2026-04-27T13:54:40Z</time></trkpt><trkpt lat="45.87661209190505" lon="9.480544655477258"><ele>1071.5</ele><time>2026-04-27T13:54:41Z</time></trkpt><trkpt lat="45.876560297573185" lon="9.480712285212931"><ele>1069.75</ele><time>2026-04-27T13:54:42Z</time></trkpt><trkpt lat="45.8765145665277" lon="9.480884552887916"><ele>1068.0</ele><time>2026-04-27T13:54:43Z</time></trkpt><trkpt lat="45.876479902136644" lon="9.481049441003748"><ele>1068.0</ele><time>2026-04-27T13:54:44Z</time></trkpt><trkpt lat="45.87647693543824" lon="9.481202748048753"><ele>1068.0</ele><time>2026-04-27T13:54:45Z</time></trkpt><trkpt lat="45.87647960110139" lon="9.481341579827872"><ele>1068.0</ele><time>2026-04-27T13:54:46Z</time></trkpt><trkpt lat="45.876462967037064" lon="9.481452078528006"><ele>1068.0</ele><time>2026-04-27T13:54:47Z</time></trkpt><trkpt lat="45.87645395674487" lon="9.481610226109755"><ele>1068.0</ele><time>2026-04-27T13:54:48Z</time></trkpt><trkpt lat="45.876441443822664" lon="9.48174322972215"><ele>1067.8333333333333</ele><time>2026-04-27T13:54:49Z</time></trkpt><trkpt lat="45.87643213071367" lon="9.481850794683815"><ele>1067.6666666666667</ele><time>2026-04-27T13:54:50Z</time></trkpt><trkpt lat="45.87642416528112" lon="9.481948770872119"><ele>1067.5</ele><time>2026-04-27T13:54:51Z</time></trkpt><trkpt lat="45.8764142213381" lon="9.482038938240928"><ele>1067.3333333333335</ele><time>2026-04-27T13:54:52Z</time></trkpt><trkpt lat="45.8763905817699" lon="9.482209158964306"><ele>1067.1666666666667</ele><time>2026-04-27T13:54:54Z</time></trkpt><trkpt lat="45.87638795876974" lon="9.482350510631154"><ele>1067.0</ele><time>2026-04-27T13:54:55Z</time></trkpt><trkpt lat="45.876408889380116" lon="9.482501483514882"><ele>1065.0</ele><time>2026-04-27T13:54:57Z</time></trkpt><trkpt lat="45.87643901421458" lon="9.482620687471549"><ele>1063.0</ele><time>2026-04-27T13:54:58Z</time></trkpt><trkpt lat="45.876474802668646" lon="9.482708126330522"><ele>1061.0</ele><time>2026-04-27T13:54:59Z</time></trkpt><trkpt lat="45.876525316808944" lon="9.482768429678877"><ele>1059.0</ele><time>2026-04-27T13:55:00Z</time></trkpt><trkpt lat="45.876596428572945" lon="9.482908669731565"><ele>1057.0</ele><time>2026-04-27T13:55:02Z</time></trkpt><trkpt lat="45.8767088172353" lon="9.483025342288151"><ele>1058.1666666666665</ele><time>2026-04-27T13:55:04Z</time></trkpt><trkpt lat="45.87679543446988" lon="9.483060834505766"><ele>1059.3333333333333</ele><time>2026-04-27T13:55:05Z</time></trkpt><trkpt lat="45.87687228083196" lon="9.483102588380323"><ele>1060.5</ele><time>2026-04-27T13:55:06Z</time></trkpt><trkpt lat="45.876942769379326" lon="9.483160711572777"><ele>1061.6666666666667</ele><time>2026-04-27T13:55:07Z</time></trkpt><trkpt lat="45.87701408344482" lon="9.48320542486405"><ele>1062.8333333333335</ele><time>2026-04-27T13:55:08Z</time></trkpt><trkpt lat="45.87709511913029" lon="9.483259335635926"><ele>1064.0</ele><time>2026-04-27T13:55:09Z</time></trkpt><trkpt lat="45.87719706189186" lon="9.48331817752852"><ele>1064.0</ele><time>2026-04-27T13:55:10Z</time></trkpt><trkpt lat="45.877294141528665" lon="9.483455564646148"><ele>1064.0</ele><time>2026-04-27T13:55:11Z</time></trkpt><trkpt lat="45.877393710464666" lon="9.48355752395306"><ele>1064.0</ele><time>2026-04-27T13:55:12Z</time></trkpt><trkpt lat="45.87747650752705" lon="9.48365544889651"><ele>1064.0</ele><time>2026-04-27T13:55:13Z</time></trkpt><trkpt lat="45.87754960489989" lon="9.483800901702795"><ele>1067.75</ele><time>2026-04-27T13:55:14Z</time></trkpt><trkpt lat="45.877646482150595" lon="9.483949131035375"><ele>1071.5</ele><time>2026-04-27T13:55:15Z</time></trkpt><trkpt lat="45.877728149648746" lon="9.484094972534702"><ele>1075.25</ele><time>2026-04-27T13:55:16Z</time></trkpt><trkpt lat="45.87778265866485" lon="9.484244478076043"><ele>1079.0</ele><time>2026-04-27T13:55:17Z</time></trkpt><trkpt lat="45.87785383953135" lon="9.48435742520308"><ele>1079.0</ele><time>2026-04-27T13:55:18Z</time></trkpt><trkpt lat="45.87791298565145" lon="9.484476738002611"><ele>1079.0</ele><time>2026-04-27T13:55:19Z</time></trkpt><trkpt lat="45.87799139397014" lon="9.484546551444277"><ele>1079.0</ele><time>2026-04-27T13:55:20Z</time></trkpt><trkpt lat="45.878107365145276" lon="9.484588589329723"><ele>1079.0</ele><time>2026-04-27T13:55:21Z</time></trkpt><trkpt lat="45.87820486000626" lon="9.484616846065178"><ele>1079.0</ele><time>2026-04-27T13:55:22Z</time></trkpt><trkpt lat="45.87831490885534" lon="9.484677962258797"><ele>1077.0</ele><time>2026-04-27T13:55:23Z</time></trkpt><trkpt lat="45.878419454959634" lon="9.484807070991785"><ele>1075.0</ele><time>2026-04-27T13:55:24Z</time></trkpt><trkpt lat="45.87852395582483" lon="9.484904853294328"><ele>1073.0</ele><time>2026-04-27T13:55:25Z</time></trkpt><trkpt lat="45.87865468821059" lon="9.48496760707001"><ele>1071.0</ele><time>2026-04-27T13:55:26Z</time></trkpt><trkpt lat="45.878781449308505" lon="9.484951798002887"><ele>1071.0</ele><time>2026-04-27T13:55:27Z</time></trkpt><trkpt lat="45.87891575772089" lon="9.485013214376595"><ele>1071.0</ele><time>2026-04-27T13:55:28Z</time></trkpt><trkpt lat="45.87904783310261" lon="9.485072978665182"><ele>1071.0</ele><time>2026-04-27T13:55:29Z</time></trkpt><trkpt lat="45.878893415841866" lon="9.485002998468012"><ele>1071.0</ele><time>2026-04-27T13:55:30Z</time></trkpt><trkpt lat="45.8790133957616" lon="9.485057862418207"><ele>1071.0</ele><time>2026-04-27T13:55:31Z</time></trkpt><trkpt lat="45.87909798956659" lon="9.485093326009778"><ele>1071.0</ele><time>2026-04-27T13:55:32Z</time></trkpt><trkpt lat="45.87917750569682" lon="9.48511546648717"><ele>1071.0</ele><time>2026-04-27T13:55:33Z</time></trkpt><trkpt lat="45.87926052972297" lon="9.485137401037466"><ele>1071.0</ele><time>2026-04-27T13:55:34Z</time></trkpt><trkpt lat="45.87937293633206" lon="9.48513796957409"><ele>1071.0</ele><time>2026-04-27T13:55:35Z</time></trkpt><trkpt lat="45.879513203431245" lon="9.485106671047953"><ele>1067.0</ele><time>2026-04-27T13:55:36Z</time></trkpt><trkpt lat="45.87967505299262" lon="9.48501915485327"><ele>1063.0</ele><time>2026-04-27T13:55:37Z</time></trkpt><trkpt lat="45.87983602090471" lon="9.484904780757798"><ele>1059.0</ele><time>2026-04-27T13:55:38Z</time></trkpt><trkpt lat="45.8799749378299" lon="9.484835672671556"><ele>1057.75</ele><time>2026-04-27T13:55:39Z</time></trkpt><trkpt lat="45.88010366317929" lon="9.484788239844276"><ele>1056.5</ele><time>2026-04-27T13:55:40Z</time></trkpt><trkpt lat="45.88024649434217" lon="9.484784638319223"><ele>1055.25</ele><time>2026-04-27T13:55:41Z</time></trkpt><trkpt lat="45.88037454860252" lon="9.484781240867553"><ele>1054.0</ele><time>2026-04-27T13:55:42Z</time></trkpt><trkpt lat="45.88049058477937" lon="9.48477629748005"><ele>1054.0</ele><time>2026-04-27T13:55:43Z</time></trkpt><trkpt lat="45.88059732425128" lon="9.484712347037416"><ele>1054.0</ele><time>2026-04-27T13:55:44Z</time></trkpt><trkpt lat="45.88069416014748" lon="9.484695337617483"><ele>1054.0</ele><time>2026-04-27T13:55:45Z</time></trkpt><trkpt lat="45.880790304004" lon="9.48460971197055"><ele>1054.0</ele><time>2026-04-27T13:55:46Z</time></trkpt><trkpt lat="45.88088660055444" lon="9.484545834916084"><ele>1054.0</ele><time>2026-04-27T13:55:47Z</time></trkpt><trkpt lat="45.880958446947496" lon="9.484501390742158"><ele>1058.6000000000001</ele><time>2026-04-27T13:55:48Z</time></trkpt><trkpt lat="45.881055078574" lon="9.484471539695113"><ele>1063.2</ele><time>2026-04-27T13:55:49Z</time></trkpt><trkpt lat="45.88113179654637" lon="9.484449885014637"><ele>1067.8000000000002</ele><time>2026-04-27T13:55:50Z</time></trkpt><trkpt lat="45.881215076557496" lon="9.484446495131438"><ele>1072.4</ele><time>2026-04-27T13:55:51Z</time></trkpt><trkpt lat="45.88129139290998" lon="9.484450727188676"><ele>1077.0</ele><time>2026-04-27T13:55:51.999Z</time></trkpt><trkpt lat="45.88142623684798" lon="9.484448520840902"><ele>1077.0</ele><time>2026-04-27T13:55:52.999Z</time></trkpt><trkpt lat="45.88155920571101" lon="9.484387893068686"><ele>1077.0</ele><time>2026-04-27T13:55:53.999Z</time></trkpt><trkpt lat="45.88165337528039" lon="9.484331805760474"><ele>1077.0</ele><time>2026-04-27T13:55:54.999Z</time></trkpt><trkpt lat="45.881713306590285" lon="9.484299731700563"><ele>1077.0</ele><time>2026-04-27T13:55:55.999Z</time></trkpt><trkpt lat="45.88181856337533" lon="9.48436129050141"><ele>1077.0</ele><time>2026-04-27T13:55:57.999Z</time></trkpt><trkpt lat="45.88188766128828" lon="9.484447666546718"><ele>1076.1666666666667</ele><time>2026-04-27T13:55:58.999Z</time></trkpt><trkpt lat="45.881889975938556" lon="9.484574254119417"><ele>1075.3333333333333</ele><time>2026-04-27T13:55:59.999Z</time></trkpt><trkpt lat="45.881903484665074" lon="9.48468759286444"><ele>1074.5</ele><time>2026-04-27T13:56:00.999Z</time></trkpt><trkpt lat="45.881924409134946" lon="9.48479794084234"><ele>1073.6666666666665</ele><time>2026-04-27T13:56:01.999Z</time></trkpt><trkpt lat="45.881943932472545" lon="9.484944946445667"><ele>1072.8333333333333</ele><time>2026-04-27T13:56:02.999Z</time></trkpt><trkpt lat="45.88195926103445" lon="9.485053644495117"><ele>1072.0</ele><time>2026-04-27T13:56:03.999Z</time></trkpt><trkpt lat="45.88198459621437" lon="9.48517081372356"><ele>1068.0</ele><time>2026-04-27T13:56:04.999Z</time></trkpt><trkpt lat="45.8819970473513" lon="9.485319698713692"><ele>1064.0</ele><time>2026-04-27T13:56:06.999Z</time></trkpt><trkpt lat="45.88209900046672" lon="9.485379119639815"><ele>1060.0</ele><time>2026-04-27T13:56:09.999Z</time></trkpt><trkpt lat="45.88223039148788" lon="9.485352552460958"><ele>1056.0</ele><time>2026-04-27T13:56:10.999Z</time></trkpt><trkpt lat="45.88235826770835" lon="9.485242426074619"><ele>1056.0</ele><time>2026-04-27T13:56:11.999Z</time></trkpt><trkpt lat="45.88246976006362" lon="9.485129867360637"><ele>1056.0</ele><time>2026-04-27T13:56:12.999Z</time></trkpt><trkpt lat="45.8825834666639" lon="9.484999497577768"><ele>1056.0</ele><time>2026-04-27T13:56:13.999Z</time></trkpt><trkpt lat="45.8826693416239" lon="9.48484449810055"><ele>1056.0</ele><time>2026-04-27T13:56:14.999Z</time></trkpt><trkpt lat="45.882759112739286" lon="9.484687119421361"><ele>1051.6666666666667</ele><time>2026-04-27T13:56:15.999Z</time></trkpt><trkpt lat="45.882855330597735" lon="9.484515480531527"><ele>1047.3333333333335</ele><time>2026-04-27T13:56:16.999Z</time></trkpt><trkpt lat="45.882948761900494" lon="9.48434931020211"><ele>1043.0</ele><time>2026-04-27T13:56:17.999Z</time></trkpt><trkpt lat="45.883053062466736" lon="9.484158230814446"><ele>1043.0</ele><time>2026-04-27T13:56:18.999Z</time></trkpt><trkpt lat="45.88313174162359" lon="9.483981746891844"><ele>1043.0</ele><time>2026-04-27T13:56:19.999Z</time></trkpt><trkpt lat="45.883212490509266" lon="9.483820030538425"><ele>1043.0</ele><time>2026-04-27T13:56:20.999Z</time></trkpt><trkpt lat="45.88330334198381" lon="9.483660407213266"><ele>1043.0</ele><time>2026-04-27T13:56:21.999Z</time></trkpt><trkpt lat="45.883389872294025" lon="9.483549350472948"><ele>1039.75</ele><time>2026-04-27T13:56:22.999Z</time></trkpt><trkpt lat="45.8834611334598" lon="9.483423745804625"><ele>1036.5</ele><time>2026-04-27T13:56:23.999Z</time></trkpt><trkpt lat="45.88351232188627" lon="9.483277422504074"><ele>1033.25</ele><time>2026-04-27T13:56:24.999Z</time></trkpt><trkpt lat="45.88356140617484" lon="9.483117154372888"><ele>1030.0</ele><time>2026-04-27T13:56:25.999Z</time></trkpt><trkpt lat="45.8835747019069" lon="9.482918537879696"><ele>1030.0</ele><time>2026-04-27T13:56:26.999Z</time></trkpt><trkpt lat="45.883588792889455" lon="9.482700235895487"><ele>1030.0</ele><time>2026-04-27T13:56:27.999Z</time></trkpt><trkpt lat="45.883602849327005" lon="9.482472564981183"><ele>1030.0</ele><time>2026-04-27T13:56:28.999Z</time></trkpt><trkpt lat="45.88363709076653" lon="9.482262411046493"><ele>1031.0</ele><time>2026-04-27T13:56:29.999Z</time></trkpt><trkpt lat="45.88368483074145" lon="9.48204855575039"><ele>1032.0</ele><time>2026-04-27T13:56:30.999Z</time></trkpt><trkpt lat="45.88374014883949" lon="9.481838476192435"><ele>1033.0</ele><time>2026-04-27T13:56:31.999Z</time></trkpt><trkpt lat="45.88379400612566" lon="9.481639606074761"><ele>1033.0</ele><time>2026-04-27T13:56:32.999Z</time></trkpt><trkpt lat="45.88382624567856" lon="9.481430440080546"><ele>1033.0</ele><time>2026-04-27T13:56:33.999Z</time></trkpt><trkpt lat="45.88386858947049" lon="9.481256398870341"><ele>1033.0</ele><time>2026-04-27T13:56:34.999Z</time></trkpt><trkpt lat="45.88386013783867" lon="9.481118451221588"><ele>1033.0</ele><time>2026-04-27T13:56:35.999Z</time></trkpt><trkpt lat="45.8838426757414" lon="9.481008855248625"><ele>1032.3333333333333</ele><time>2026-04-27T13:56:36.999Z</time></trkpt><trkpt lat="45.883815918773635" lon="9.4809163762329"><ele>1031.6666666666665</ele><time>2026-04-27T13:56:37.999Z</time></trkpt><trkpt lat="45.883766257902444" lon="9.48081761562196"><ele>1031.0</ele><time>2026-04-27T13:56:38.999Z</time></trkpt><trkpt lat="45.88371678524519" lon="9.480757705319906"><ele>1030.3333333333333</ele><time>2026-04-27T13:56:40Z</time></trkpt><trkpt lat="45.883646853111316" lon="9.480667680858408"><ele>1029.6666666666667</ele><time>2026-04-27T13:56:41Z</time></trkpt><trkpt lat="45.88360662864674" lon="9.480574179584323"><ele>1029.0</ele><time>2026-04-27T13:56:42Z</time></trkpt><trkpt lat="45.88363527522126" lon="9.480464088439456"><ele>1028.6000000000001</ele><time>2026-04-27T13:56:43Z</time></trkpt><trkpt lat="45.883736260173016" lon="9.480323447259678"><ele>1028.2</ele><time>2026-04-27T13:56:44Z</time></trkpt><trkpt lat="45.88380256914658" lon="9.480231444476448"><ele>1027.8000000000002</ele><time>2026-04-27T13:56:45Z</time></trkpt><trkpt lat="45.88385693138441" lon="9.480146938559113"><ele>1027.4</ele><time>2026-04-27T13:56:46Z</time></trkpt><trkpt lat="45.88391140727141" lon="9.480029217121979"><ele>1027.0</ele><time>2026-04-27T13:56:47Z</time></trkpt><trkpt lat="45.88392626987591" lon="9.479851513169892"><ele>1027.0</ele><time>2026-04-27T13:56:48Z</time></trkpt><trkpt lat="45.88393022984995" lon="9.479651730479423"><ele>1027.0</ele><time>2026-04-27T13:56:49Z</time></trkpt><trkpt lat="45.8839035354204" lon="9.47947444979305"><ele>1027.0</ele><time>2026-04-27T13:56:50Z</time></trkpt><trkpt lat="45.88390737886418" lon="9.479316357487141"><ele>1027.0</ele><time>2026-04-27T13:56:51Z</time></trkpt><trkpt lat="45.88395572373996" lon="9.479167403977419"><ele>1027.6</ele><time>2026-04-27T13:56:52Z</time></trkpt><trkpt lat="45.88399879993983" lon="9.479047082957049"><ele>1028.2</ele><time>2026-04-27T13:56:53Z</time></trkpt><trkpt lat="45.88400599185883" lon="9.478933216255516"><ele>1028.8</ele><time>2026-04-27T13:56:54Z</time></trkpt><trkpt lat="45.88397925982836" lon="9.47879697443659"><ele>1029.4</ele><time>2026-04-27T13:56:55Z</time></trkpt><trkpt lat="45.88394065781045" lon="9.478669347842855"><ele>1030.0</ele><time>2026-04-27T13:56:56Z</time></trkpt><trkpt lat="45.88381920088653" lon="9.478578269236607"><ele>1032.3333333333333</ele><time>2026-04-27T13:56:57Z</time></trkpt><trkpt lat="45.883738098245246" lon="9.478516717712736"><ele>1034.6666666666665</ele><time>2026-04-27T13:56:58Z</time></trkpt><trkpt lat="45.88368308610389" lon="9.478419069061173"><ele>1037.0</ele><time>2026-04-27T13:56:59Z</time></trkpt><trkpt lat="45.883662068373035" lon="9.478332889528986"><ele>1039.3333333333333</ele><time>2026-04-27T13:57:00Z</time></trkpt><trkpt lat="45.88373764428522" lon="9.478253406613764"><ele>1041.6666666666667</ele><time>2026-04-27T13:57:02Z</time></trkpt><trkpt lat="45.8838206084828" lon="9.478288555950876"><ele>1044.0</ele><time>2026-04-27T13:57:03Z</time></trkpt><trkpt lat="45.88392954715403" lon="9.478307571846363"><ele>1044.0</ele><time>2026-04-27T13:57:04Z</time></trkpt><trkpt lat="45.88406181306379" lon="9.478217966564083"><ele>1044.0</ele><time>2026-04-27T13:57:05Z</time></trkpt><trkpt lat="45.88416115288664" lon="9.478096781191642"><ele>1044.0</ele><time>2026-04-27T13:57:06Z</time></trkpt><trkpt lat="45.88424286604388" lon="9.477995520097922"><ele>1044.0</ele><time>2026-04-27T13:57:07Z</time></trkpt><trkpt lat="45.88432702024871" lon="9.477908630471148"><ele>1046.6000000000001</ele><time>2026-04-27T13:57:08Z</time></trkpt><trkpt lat="45.88442488469758" lon="9.47792421108305"><ele>1049.2</ele><time>2026-04-27T13:57:10Z</time></trkpt><trkpt lat="45.884475209453946" lon="9.477980415173144"><ele>1051.8000000000002</ele><time>2026-04-27T13:57:11Z</time></trkpt><trkpt lat="45.88447735887375" lon="9.47814212914369"><ele>1054.4</ele><time>2026-04-27T13:57:12Z</time></trkpt><trkpt lat="45.884549900646405" lon="9.478294201613018"><ele>1057.0</ele><time>2026-04-27T13:57:13Z</time></trkpt><trkpt lat="45.88456808910556" lon="9.478449878715846"><ele>1057.0</ele><time>2026-04-27T13:57:14Z</time></trkpt><trkpt lat="45.88461397094019" lon="9.478547408283742"><ele>1057.0</ele><time>2026-04-27T13:57:15Z</time></trkpt><trkpt lat="45.88470454019498" lon="9.478665234354597"><ele>1057.0</ele><time>2026-04-27T13:57:17Z</time></trkpt><trkpt lat="45.884805230047064" lon="9.478680926122527"><ele>1057.0</ele><time>2026-04-27T13:57:18Z</time></trkpt><trkpt lat="45.8849310753914" lon="9.47866896855482"><ele>1057.0</ele><time>2026-04-27T13:57:19Z</time></trkpt><trkpt lat="45.88503435557016" lon="9.478732883903067"><ele>1053.5</ele><time>2026-04-27T13:57:20Z</time></trkpt><trkpt lat="45.88515153190864" lon="9.478800846584468"><ele>1050.0</ele><time>2026-04-27T13:57:21Z</time></trkpt><trkpt lat="45.885273350019915" lon="9.478859958969984"><ele>1046.5</ele><time>2026-04-27T13:57:22Z</time></trkpt><trkpt lat="45.885379409751025" lon="9.478959079324504"><ele>1043.0</ele><time>2026-04-27T13:57:23Z</time></trkpt><trkpt lat="45.88545389156155" lon="9.47910173429262"><ele>1043.0</ele><time>2026-04-27T13:57:24Z</time></trkpt><trkpt lat="45.885542999359686" lon="9.479213168112663"><ele>1043.0</ele><time>2026-04-27T13:57:25Z</time></trkpt><trkpt lat="45.885633075181616" lon="9.479297575201691"><ele>1043.0</ele><time>2026-04-27T13:57:26Z</time></trkpt><trkpt lat="45.885722470322584" lon="9.47939881775473"><ele>1043.0</ele><time>2026-04-27T13:57:27Z</time></trkpt><trkpt lat="45.88577768788736" lon="9.479534115409688"><ele>1043.0</ele><time>2026-04-27T13:57:28Z</time></trkpt><trkpt lat="45.88583993355058" lon="9.479612377513268"><ele>1042.3333333333335</ele><time>2026-04-27T13:57:29Z</time></trkpt><trkpt lat="45.88589225106307" lon="9.479666246043326"><ele>1041.6666666666667</ele><time>2026-04-27T13:57:30Z</time></trkpt><trkpt lat="45.885960860242555" lon="9.479665633596754"><ele>1041.0</ele><time>2026-04-27T13:57:31Z</time></trkpt><trkpt lat="45.88602339514532" lon="9.479602399836397"><ele>1040.3333333333333</ele><time>2026-04-27T13:57:32Z</time></trkpt><trkpt lat="45.88605967169221" lon="9.479472956726664"><ele>1039.6666666666665</ele><time>2026-04-27T13:57:33Z</time></trkpt><trkpt lat="45.88608267250924" lon="9.479327866151472"><ele>1039.0</ele><time>2026-04-27T13:57:34Z</time></trkpt><trkpt lat="45.88613529923218" lon="9.479204194413002"><ele>1039.0</ele><time>2026-04-27T13:57:34.999Z</time></trkpt><trkpt lat="45.886179061456595" lon="9.479073928187857"><ele>1039.0</ele><time>2026-04-27T13:57:35.999Z</time></trkpt><trkpt lat="45.8862137394836" lon="9.478925501209721"><ele>1039.0</ele><time>2026-04-27T13:57:36.999Z</time></trkpt><trkpt lat="45.88628053601305" lon="9.47878201616612"><ele>1039.0</ele><time>2026-04-27T13:57:37.999Z</time></trkpt><trkpt lat="45.88635815891271" lon="9.478651750919319"><ele>1039.0</ele><time>2026-04-27T13:57:38.999Z</time></trkpt><trkpt lat="45.8864205660183" lon="9.4785484041527"><ele>1043.0</ele><time>2026-04-27T13:57:39.999Z</time></trkpt><trkpt lat="45.88645299382559" lon="9.478458303203006"><ele>1047.0</ele><time>2026-04-27T13:57:40.999Z</time></trkpt><trkpt lat="45.886540188107084" lon="9.47836276472376"><ele>1051.0</ele><time>2026-04-27T13:57:42.999Z</time></trkpt><trkpt lat="45.88660418471343" lon="9.478367905795206"><ele>1055.0</ele><time>2026-04-27T13:57:43.999Z</time></trkpt><trkpt lat="45.886670711406325" lon="9.478434733273064"><ele>1059.0</ele><time>2026-04-27T13:57:44.999Z</time></trkpt><trkpt lat="45.88678741701554" lon="9.478496809977834"><ele>1059.25</ele><time>2026-04-27T13:57:45.999Z</time></trkpt><trkpt lat="45.88693092613588" lon="9.478497104144433"><ele>1059.5</ele><time>2026-04-27T13:57:46.999Z</time></trkpt><trkpt lat="45.88702172017336" lon="9.478595412906808"><ele>1059.75</ele><time>2026-04-27T13:57:47.999Z</time></trkpt><trkpt lat="45.8871032530122" lon="9.478660614978375"><ele>1060.0</ele><time>2026-04-27T13:57:48.999Z</time></trkpt><trkpt lat="45.88719567371648" lon="9.478793938238924"><ele>1060.0</ele><time>2026-04-27T13:57:50.999Z</time></trkpt><trkpt lat="45.88716693686187" lon="9.478941587540827"><ele>1060.0</ele><time>2026-04-27T13:57:51.999Z</time></trkpt><trkpt lat="45.88720363400129" lon="9.479115722635518"><ele>1060.0</ele><time>2026-04-27T13:57:52.999Z</time></trkpt><trkpt lat="45.887239603636544" lon="9.479332431243424"><ele>1060.0</ele><time>2026-04-27T13:57:53.999Z</time></trkpt><trkpt lat="45.88725251211856" lon="9.479541440108814"><ele>1058.0</ele><time>2026-04-27T13:57:54.999Z</time></trkpt><trkpt lat="45.88723517991063" lon="9.479722034274836"><ele>1056.0</ele><time>2026-04-27T13:57:55.999Z</time></trkpt><trkpt lat="45.88722805840999" lon="9.47989963429609"><ele>1054.0</ele><time>2026-04-27T13:57:56.999Z</time></trkpt><trkpt lat="45.88724102827941" lon="9.480052378824622"><ele>1052.0</ele><time>2026-04-27T13:57:57.999Z</time></trkpt><trkpt lat="45.887264514374145" lon="9.480208935974478"><ele>1052.0</ele><time>2026-04-27T13:57:58.999Z</time></trkpt><trkpt lat="45.887320778625224" lon="9.480342721377811"><ele>1052.0</ele><time>2026-04-27T13:57:59.999Z</time></trkpt><trkpt lat="45.88738989582816" lon="9.480448918906943"><ele>1052.0</ele><time>2026-04-27T13:58:00.999Z</time></trkpt><trkpt lat="45.88746543992125" lon="9.480525019400604"><ele>1052.0</ele><time>2026-04-27T13:58:01.999Z</time></trkpt><trkpt lat="45.8875513663927" lon="9.480579698406853"><ele>1052.0</ele><time>2026-04-27T13:58:02.999Z</time></trkpt><trkpt lat="45.88765104010753" lon="9.480607927679625"><ele>1051.0</ele><time>2026-04-27T13:58:03.999Z</time></trkpt><trkpt lat="45.88774838663783" lon="9.480624627068593"><ele>1050.0</ele><time>2026-04-27T13:58:04.999Z</time></trkpt><trkpt lat="45.887850204778346" lon="9.48054216683564"><ele>1049.0</ele><time>2026-04-27T13:58:05.999Z</time></trkpt><trkpt lat="45.88794412592701" lon="9.480446632953928"><ele>1048.0</ele><time>2026-04-27T13:58:06.999Z</time></trkpt><trkpt lat="45.888051808354234" lon="9.48036203069742"><ele>1048.0</ele><time>2026-04-27T13:58:07.999Z</time></trkpt><trkpt lat="45.888154622395156" lon="9.480274079586897"><ele>1048.0</ele><time>2026-04-27T13:58:08.999Z</time></trkpt><trkpt lat="45.8882426642782" lon="9.480162063388383"><ele>1048.0</ele><time>2026-04-27T13:58:09.999Z</time></trkpt><trkpt lat="45.88834310030991" lon="9.480124392772984"><ele>1048.0</ele><time>2026-04-27T13:58:10.999Z</time></trkpt><trkpt lat="45.88847196459143" lon="9.480118429018189"><ele>1053.0</ele><time>2026-04-27T13:58:11.999Z</time></trkpt><trkpt lat="45.888617335467146" lon="9.480114548702097"><ele>1058.0</ele><time>2026-04-27T13:58:12.999Z</time></trkpt><trkpt lat="45.88877341011004" lon="9.480146408113336"><ele>1063.0</ele><time>2026-04-27T13:58:13.999Z</time></trkpt><trkpt lat="45.88894909318585" lon="9.480157053696608"><ele>1063.0</ele><time>2026-04-27T13:58:14.999Z</time></trkpt><trkpt lat="45.889059043217294" lon="9.480139743403917"><ele>1063.0</ele><time>2026-04-27T13:58:15.999Z</time></trkpt><trkpt lat="45.88914352163673" lon="9.480117692287168"><ele>1063.0</ele><time>2026-04-27T13:58:16.999Z</time></trkpt><trkpt lat="45.88924242103865" lon="9.480166544075816"><ele>1063.0</ele><time>2026-04-27T13:58:18.999Z</time></trkpt><trkpt lat="45.88920392531325" lon="9.480401599817762"><ele>1063.8</ele><time>2026-04-27T13:58:20.999Z</time></trkpt><trkpt lat="45.88911330747636" lon="9.480474665339429"><ele>1064.6</ele><time>2026-04-27T13:58:21.999Z</time></trkpt><trkpt lat="45.88902321611866" lon="9.480596221587634"><ele>1065.4</ele><time>2026-04-27T13:58:22.999Z</time></trkpt><trkpt lat="45.88893851507962" lon="9.480692580586277"><ele>1066.2</ele><time>2026-04-27T13:58:23.999Z</time></trkpt><trkpt lat="45.88884814590193" lon="9.480774093214386"><ele>1067.0</ele><time>2026-04-27T13:58:24.999Z</time></trkpt><trkpt lat="45.888780712125396" lon="9.48094494730848"><ele>1067.0</ele><time>2026-04-27T13:58:25.999Z</time></trkpt><trkpt lat="45.88872256986034" lon="9.481143972089308"><ele>1067.0</ele><time>2026-04-27T13:58:26.999Z</time></trkpt><trkpt lat="45.88865702104916" lon="9.481353453531884"><ele>1067.0</ele><time>2026-04-27T13:58:27.999Z</time></trkpt><trkpt lat="45.88858908992883" lon="9.4815566744711"><ele>1067.25</ele><time>2026-04-27T13:58:28.999Z</time></trkpt><trkpt lat="45.88851970574998" lon="9.481768878112574"><ele>1067.5</ele><time>2026-04-27T13:58:29.999Z</time></trkpt><trkpt lat="45.88844948418428" lon="9.481952927668654"><ele>1067.75</ele><time>2026-04-27T13:58:30.999Z</time></trkpt><trkpt lat="45.88839292223005" lon="9.482135140285921"><ele>1068.0</ele><time>2026-04-27T13:58:31.999Z</time></trkpt><trkpt lat="45.8883308692688" lon="9.482438319592118"><ele>1068.0</ele><time>2026-04-27T13:58:32.999Z</time></trkpt><trkpt lat="45.88826049923025" lon="9.482671554133399"><ele>1068.0</ele><time>2026-04-27T13:58:33.999Z</time></trkpt><trkpt lat="45.8881822032412" lon="9.48286694219711"><ele>1068.0</ele><time>2026-04-27T13:58:34.999Z</time></trkpt><trkpt lat="45.888114987330404" lon="9.48301258308802"><ele>1072.75</ele><time>2026-04-27T13:58:35.999Z</time></trkpt><trkpt lat="45.88804189816384" lon="9.483151844821014"><ele>1077.5</ele><time>2026-04-27T13:58:36.999Z</time></trkpt><trkpt lat="45.88789289074853" lon="9.48320099609124"><ele>1082.25</ele><time>2026-04-27T13:58:37.999Z</time></trkpt><trkpt lat="45.887827892384685" lon="9.483341701292137"><ele>1087.0</ele><time>2026-04-27T13:58:38.999Z</time></trkpt><trkpt lat="45.88782601495351" lon="9.483545647014433"><ele>1087.0</ele><time>2026-04-27T13:58:39.999Z</time></trkpt><trkpt lat="45.88786292471898" lon="9.483306184044146"><ele>1087.0</ele><time>2026-04-27T13:58:40.999Z</time></trkpt><trkpt lat="45.88778760525571" lon="9.48344648396252"><ele>1087.0</ele><time>2026-04-27T13:58:41.999Z</time></trkpt><trkpt lat="45.88778038606393" lon="9.483602530780187"><ele>1087.0</ele><time>2026-04-27T13:58:42.999Z</time></trkpt><trkpt lat="45.88773798091173" lon="9.483755085928236"><ele>1085.0</ele><time>2026-04-27T13:58:43.999Z</time></trkpt><trkpt lat="45.887668008840485" lon="9.483828023189876"><ele>1083.0</ele><time>2026-04-27T13:58:44.999Z</time></trkpt><trkpt lat="45.887596083732284" lon="9.483942489875702"><ele>1081.0</ele><time>2026-04-27T13:58:45.999Z</time></trkpt><trkpt lat="45.8875106109795" lon="9.484046724915029"><ele>1079.0</ele><time>2026-04-27T13:58:46.999Z</time></trkpt><trkpt lat="45.887461308483324" lon="9.484120111682294"><ele>1077.0</ele><time>2026-04-27T13:58:47.999Z</time></trkpt><trkpt lat="45.8875950181786" lon="9.484216835276479"><ele>1084.5</ele><time>2026-04-27T13:58:53Z</time></trkpt><trkpt lat="45.88764829516974" lon="9.484142996675843"><ele>1092.0</ele><time>2026-04-27T13:58:54Z</time></trkpt><trkpt lat="45.88773149381645" lon="9.48401113150575"><ele>1099.5</ele><time>2026-04-27T13:58:55Z</time></trkpt><trkpt lat="45.88785472822572" lon="9.483919872277168"><ele>1107.0</ele><time>2026-04-27T13:58:56Z</time></trkpt><trkpt lat="45.88795353806304" lon="9.483820784052238"><ele>1103.0</ele><time>2026-04-27T13:58:57Z</time></trkpt><trkpt lat="45.88799680579714" lon="9.483699718875188"><ele>1099.0</ele><time>2026-04-27T13:58:58Z</time></trkpt><trkpt lat="45.888019534246475" lon="9.483569214705334"><ele>1095.0</ele><time>2026-04-27T13:58:59Z</time></trkpt><trkpt lat="45.888076540589" lon="9.48349728966614"><ele>1091.0</ele><time>2026-04-27T13:59:00Z</time></trkpt><trkpt lat="45.888194235337544" lon="9.483550719000082"><ele>1087.0</ele><time>2026-04-27T13:59:01Z</time></trkpt><trkpt lat="45.88827319776082" lon="9.483542171338032"><ele>1087.0</ele><time>2026-04-27T13:59:02Z</time></trkpt><trkpt lat="45.888325045812664" lon="9.48347633902577"><ele>1087.0</ele><time>2026-04-27T13:59:03Z</time></trkpt><trkpt lat="45.88836833538118" lon="9.483345346458027"><ele>1087.0</ele><time>2026-04-27T13:59:04Z</time></trkpt><trkpt lat="45.88844524130018" lon="9.483234102070272"><ele>1087.0</ele><time>2026-04-27T13:59:05Z</time></trkpt><trkpt lat="45.88859826825395" lon="9.483113854382566"><ele>1087.8</ele><time>2026-04-27T13:59:06Z</time></trkpt><trkpt lat="45.88872105153454" lon="9.482953527715413"><ele>1088.6</ele><time>2026-04-27T13:59:07Z</time></trkpt><trkpt lat="45.88882292625533" lon="9.482848623927433"><ele>1089.3999999999999</ele><time>2026-04-27T13:59:08Z</time></trkpt><trkpt lat="45.888901711643705" lon="9.482786326716822"><ele>1090.2</ele><time>2026-04-27T13:59:09Z</time></trkpt><trkpt lat="45.88894858013004" lon="9.482715812442748"><ele>1091.0</ele><time>2026-04-27T13:59:10Z</time></trkpt><trkpt lat="45.888972200534155" lon="9.48262742327937"><ele>1091.0</ele><time>2026-04-27T13:59:11Z</time></trkpt><trkpt lat="45.88893519806937" lon="9.48246881737189"><ele>1091.0</ele><time>2026-04-27T13:59:12Z</time></trkpt><trkpt lat="45.88894088019784" lon="9.482325029471879"><ele>1091.0</ele><time>2026-04-27T13:59:13Z</time></trkpt><trkpt lat="45.88902522523773" lon="9.482227590576171"><ele>1091.0</ele><time>2026-04-27T13:59:14Z</time></trkpt><trkpt lat="45.889131564927695" lon="9.482099301604556"><ele>1088.6666666666667</ele><time>2026-04-27T13:59:15Z</time></trkpt><trkpt lat="45.88924881771773" lon="9.481934863634468"><ele>1086.3333333333333</ele><time>2026-04-27T13:59:16Z</time></trkpt><trkpt lat="45.889343569273436" lon="9.481755575642755"><ele>1084.0</ele><time>2026-04-27T13:59:17Z</time></trkpt><trkpt lat="45.88944900844379" lon="9.481623006551906"><ele>1088.5</ele><time>2026-04-27T13:59:18Z</time></trkpt><trkpt lat="45.88957808569648" lon="9.481530788348383"><ele>1093.0</ele><time>2026-04-27T13:59:19Z</time></trkpt><trkpt lat="45.8896947422659" lon="9.481404367732145"><ele>1097.5</ele><time>2026-04-27T13:59:20Z</time></trkpt><trkpt lat="45.889784170666175" lon="9.481281876203465"><ele>1102.0</ele><time>2026-04-27T13:59:21Z</time></trkpt><trkpt lat="45.88986174160475" lon="9.481073096085401"><ele>1102.0</ele><time>2026-04-27T13:59:22Z</time></trkpt><trkpt lat="45.889955020374074" lon="9.48089713015105"><ele>1102.0</ele><time>2026-04-27T13:59:23Z</time></trkpt><trkpt lat="45.890041010805426" lon="9.480721320559702"><ele>1102.0</ele><time>2026-04-27T13:59:24Z</time></trkpt><trkpt lat="45.89008253874646" lon="9.480538365584033"><ele>1102.0</ele><time>2026-04-27T13:59:25Z</time></trkpt><trkpt lat="45.89010376782311" lon="9.480387974517027"><ele>1107.75</ele><time>2026-04-27T13:59:26Z</time></trkpt><trkpt lat="45.89014798621923" lon="9.480263009206391"><ele>1113.5</ele><time>2026-04-27T13:59:27Z</time></trkpt><trkpt lat="45.89025060793169" lon="9.480163420700455"><ele>1119.25</ele><time>2026-04-27T13:59:28Z</time></trkpt><trkpt lat="45.89032941686306" lon="9.48003538944417"><ele>1125.0</ele><time>2026-04-27T13:59:29Z</time></trkpt><trkpt lat="45.89041444637117" lon="9.479908265738315"><ele>1125.0</ele><time>2026-04-27T13:59:30Z</time></trkpt><trkpt lat="45.8905094480297" lon="9.479828881958099"><ele>1125.0</ele><time>2026-04-27T13:59:31Z</time></trkpt><trkpt lat="45.89062350798731" lon="9.479751664755566"><ele>1125.0</ele><time>2026-04-27T13:59:32Z</time></trkpt><trkpt lat="45.8907034476628" lon="9.479658170385456"><ele>1125.0</ele><time>2026-04-27T13:59:33Z</time></trkpt><trkpt lat="45.890768617155594" lon="9.479561442017294"><ele>1125.0</ele><time>2026-04-27T13:59:34Z</time></trkpt><trkpt lat="45.89080228326004" lon="9.479413859813034"><ele>1125.4</ele><time>2026-04-27T13:59:35Z</time></trkpt><trkpt lat="45.89082051458566" lon="9.47928156046135"><ele>1125.8</ele><time>2026-04-27T13:59:36Z</time></trkpt><trkpt lat="45.89076460921825" lon="9.479111726991128"><ele>1126.2</ele><time>2026-04-27T13:59:38Z</time></trkpt><trkpt lat="45.890658626251145" lon="9.479071416056211"><ele>1126.6</ele><time>2026-04-27T13:59:39Z</time></trkpt><trkpt lat="45.89056884017702" lon="9.479004097498937"><ele>1127.0</ele><time>2026-04-27T13:59:40Z</time></trkpt><trkpt lat="45.890447760341345" lon="9.478994158161852"><ele>1127.0</ele><time>2026-04-27T13:59:41Z</time></trkpt><trkpt lat="45.89038480286856" lon="9.47898735976675"><ele>1127.0</ele><time>2026-04-27T13:59:42Z</time></trkpt><trkpt lat="45.890308934685564" lon="9.478953011495959"><ele>1127.0</ele><time>2026-04-27T13:59:43Z</time></trkpt><trkpt lat="45.8902501565565" lon="9.478880395534247"><ele>1127.0</ele><time>2026-04-27T13:59:44Z</time></trkpt><trkpt lat="45.890245125104634" lon="9.47871972586131"><ele>1127.0</ele><time>2026-04-27T13:59:45Z</time></trkpt><trkpt lat="45.89022120502133" lon="9.47852589984388"><ele>1129.0</ele><time>2026-04-27T13:59:46Z</time></trkpt><trkpt lat="45.89020571773689" lon="9.478418214496342"><ele>1131.0</ele><time>2026-04-27T13:59:47Z</time></trkpt><trkpt lat="45.89020106559748" lon="9.478327166464643"><ele>1133.0</ele><time>2026-04-27T13:59:48Z</time></trkpt><trkpt lat="45.8902839332334" lon="9.47824737134013"><ele>1135.0</ele><time>2026-04-27T13:59:49Z</time></trkpt><trkpt lat="45.89034111071948" lon="9.47810844303725"><ele>1137.0</ele><time>2026-04-27T13:59:50Z</time></trkpt><trkpt lat="45.890395528072546" lon="9.477953837017562"><ele>1138.0</ele><time>2026-04-27T13:59:51Z</time></trkpt><trkpt lat="45.89040020780205" lon="9.477747080042791"><ele>1139.0</ele><time>2026-04-27T13:59:52Z</time></trkpt><trkpt lat="45.890379220350646" lon="9.47752752163154"><ele>1140.0</ele><time>2026-04-27T13:59:53Z</time></trkpt><trkpt lat="45.89033433399275" lon="9.47732101661875"><ele>1141.0</ele><time>2026-04-27T13:59:54Z</time></trkpt><trkpt lat="45.89031323453223" lon="9.477166284486504"><ele>1141.6</ele><time>2026-04-27T13:59:55Z</time></trkpt><trkpt lat="45.890302457449835" lon="9.477031997180712"><ele>1142.1999999999998</ele><time>2026-04-27T13:59:56Z</time></trkpt><trkpt lat="45.890281206348035" lon="9.476922742372038"><ele>1142.8000000000002</ele><time>2026-04-27T13:59:57Z</time></trkpt><trkpt lat="45.89015076610647" lon="9.476841040437055"><ele>1143.4</ele><time>2026-04-27T13:59:59Z</time></trkpt><trkpt lat="45.89005967013889" lon="9.47685507337007"><ele>1144.0</ele><time>2026-04-27T14:00:00Z</time></trkpt><trkpt lat="45.88997203289462" lon="9.477050757811579"><ele>1144.0</ele><time>2026-04-27T14:00:01Z</time></trkpt><trkpt lat="45.88988066863148" lon="9.477074578215499"><ele>1144.0</ele><time>2026-04-27T14:00:02Z</time></trkpt><trkpt lat="45.88981914230833" lon="9.477123372674194"><ele>1144.0</ele><time>2026-04-27T14:00:03Z</time></trkpt><trkpt lat="45.88976249782709" lon="9.47707979396156"><ele>1144.0</ele><time>2026-04-27T14:00:08Z</time></trkpt><trkpt lat="45.889833975637906" lon="9.477085954769663"><ele>1144.0</ele><time>2026-04-27T14:00:10.999Z</time></trkpt><trkpt lat="45.889892196027716" lon="9.477004219513837"><ele>1144.0</ele><time>2026-04-27T14:00:11.999Z</time></trkpt><trkpt lat="45.88995932428856" lon="9.476904617757073"><ele>1144.0</ele><time>2026-04-27T14:00:13.999Z</time></trkpt><trkpt lat="45.88999172604426" lon="9.476807153001545"><ele>1144.0</ele><time>2026-04-27T14:00:14.999Z</time></trkpt><trkpt lat="45.8900310847651" lon="9.476711276476562"><ele>1144.0</ele><time>2026-04-27T14:00:15.999Z</time></trkpt><trkpt lat="45.89014079290895" lon="9.47659709330592"><ele>1144.0</ele><time>2026-04-27T14:00:17.999Z</time></trkpt><trkpt lat="45.890242024723754" lon="9.476578190845954"><ele>1144.0</ele><time>2026-04-27T14:00:19.999Z</time></trkpt><trkpt lat="45.89030574527546" lon="9.476580863565504"><ele>1145.2</ele><time>2026-04-27T14:00:20.999Z</time></trkpt><trkpt lat="45.89036589892219" lon="9.476636600261187"><ele>1146.4</ele><time>2026-04-27T14:00:21.999Z</time></trkpt><trkpt lat="45.89046394724748" lon="9.476656991776112"><ele>1147.6</ele><time>2026-04-27T14:00:22.999Z</time></trkpt><trkpt lat="45.89055272751946" lon="9.476693744940505"><ele>1148.8</ele><time>2026-04-27T14:00:23.999Z</time></trkpt><trkpt lat="45.890659606400035" lon="9.476721434744245"><ele>1150.0</ele><time>2026-04-27T14:00:24.999Z</time></trkpt><trkpt lat="45.89075361020991" lon="9.476761086520535"><ele>1150.0</ele><time>2026-04-27T14:00:25.999Z</time></trkpt><trkpt lat="45.89083266736093" lon="9.476827803495665"><ele>1150.0</ele><time>2026-04-27T14:00:26.999Z</time></trkpt><trkpt lat="45.8909365774314" lon="9.476935794636118"><ele>1150.0</ele><time>2026-04-27T14:00:27.999Z</time></trkpt><trkpt lat="45.891003984401024" lon="9.477055266626703"><ele>1150.0</ele><time>2026-04-27T14:00:28.999Z</time></trkpt><trkpt lat="45.89108567481974" lon="9.477165469280637"><ele>1150.0</ele><time>2026-04-27T14:00:29.999Z</time></trkpt><trkpt lat="45.89116807966829" lon="9.477268349825552"><ele>1155.0</ele><time>2026-04-27T14:00:30.999Z</time></trkpt><trkpt lat="45.89124383170136" lon="9.477355993913081"><ele>1160.0</ele><time>2026-04-27T14:00:31.999Z</time></trkpt><trkpt lat="45.89131800276844" lon="9.47743699446928"><ele>1165.0</ele><time>2026-04-27T14:00:32.999Z</time></trkpt><trkpt lat="45.891384009847705" lon="9.477500922155125"><ele>1170.0</ele><time>2026-04-27T14:00:33.999Z</time></trkpt><trkpt lat="45.891446126722315" lon="9.47754919056996"><ele>1175.0</ele><time>2026-04-27T14:00:34.999Z</time></trkpt><trkpt lat="45.89156002732517" lon="9.477571401529211"><ele>1175.0</ele><time>2026-04-27T14:00:36.999Z</time></trkpt><trkpt lat="45.891662967189966" lon="9.477620377708488"><ele>1175.0</ele><time>2026-04-27T14:00:38.999Z</time></trkpt><trkpt lat="45.891710087694" lon="9.477738826606917"><ele>1175.0</ele><time>2026-04-27T14:00:40.999Z</time></trkpt><trkpt lat="45.89170018301473" lon="9.477830627837127"><ele>1175.0</ele><time>2026-04-27T14:00:41.999Z</time></trkpt><trkpt lat="45.891623105747335" lon="9.477836726709471"><ele>1175.0</ele><time>2026-04-27T14:00:42.999Z</time></trkpt><trkpt lat="45.89157968282852" lon="9.477933021575277"><ele>1175.0</ele><time>2026-04-27T14:00:43.999Z</time></trkpt><trkpt lat="45.89151698204989" lon="9.478127892938037"><ele>1174.1666666666667</ele><time>2026-04-27T14:00:44.999Z</time></trkpt><trkpt lat="45.891503249810796" lon="9.478227766342512"><ele>1173.3333333333335</ele><time>2026-04-27T14:00:46.999Z</time></trkpt><trkpt lat="45.89155337590039" lon="9.478330544086178"><ele>1172.5</ele><time>2026-04-27T14:00:48.999Z</time></trkpt><trkpt lat="45.89164027495052" lon="9.478423002678069"><ele>1171.6666666666667</ele><time>2026-04-27T14:00:50.999Z</time></trkpt><trkpt lat="45.89169849745685" lon="9.478490644677898"><ele>1170.8333333333333</ele><time>2026-04-27T14:00:52Z</time></trkpt><trkpt lat="45.89176603091811" lon="9.47855620343527"><ele>1170.0</ele><time>2026-04-27T14:00:53Z</time></trkpt><trkpt lat="45.89185440406771" lon="9.478636986259188"><ele>1175.6666666666667</ele><time>2026-04-27T14:00:54Z</time></trkpt><trkpt lat="45.89193767931305" lon="9.4787440970807"><ele>1181.3333333333333</ele><time>2026-04-27T14:00:55Z</time></trkpt><trkpt lat="45.89201760708493" lon="9.478817522134046"><ele>1187.0</ele><time>2026-04-27T14:00:56Z</time></trkpt><trkpt lat="45.89207491101199" lon="9.478894008703616"><ele>1192.6666666666665</ele><time>2026-04-27T14:00:57Z</time></trkpt><trkpt lat="45.89208862385325" lon="9.478987350172925"><ele>1198.3333333333333</ele><time>2026-04-27T14:00:58Z</time></trkpt><trkpt lat="45.892089122024885" lon="9.479090027090153"><ele>1204.0</ele><time>2026-04-27T14:01:00Z</time></trkpt><trkpt lat="45.892029562315436" lon="9.479415805510591"><ele>1204.0</ele><time>2026-04-27T14:01:02Z</time></trkpt><trkpt lat="45.89197850169812" lon="9.47956860099214"><ele>1204.0</ele><time>2026-04-27T14:01:04Z</time></trkpt><trkpt lat="45.89194961536064" lon="9.479658579312456"><ele>1204.0</ele><time>2026-04-27T14:01:05Z</time></trkpt><trkpt lat="45.891900032660274" lon="9.47980753415935"><ele>1204.0</ele><time>2026-04-27T14:01:07Z</time></trkpt><trkpt lat="45.891888788693194" lon="9.479960410596576"><ele>1204.0</ele><time>2026-04-27T14:01:09Z</time></trkpt><trkpt lat="45.891918262446275" lon="9.480044358659518"><ele>1204.8</ele><time>2026-04-27T14:01:10Z</time></trkpt><trkpt lat="45.89193846087695" lon="9.480222824979375"><ele>1205.6000000000001</ele><time>2026-04-27T14:01:12Z</time></trkpt><trkpt lat="45.89193013268142" lon="9.480367875775947"><ele>1206.4</ele><time>2026-04-27T14:01:13Z</time></trkpt><trkpt lat="45.891917924570635" lon="9.480504751419723"><ele>1207.2</ele><time>2026-04-27T14:01:14Z</time></trkpt><trkpt lat="45.89190472763446" lon="9.480603657679577"><ele>1208.0</ele><time>2026-04-27T14:01:15Z</time></trkpt><trkpt lat="45.89191109781904" lon="9.480721297187841"><ele>1205.5</ele><time>2026-04-27T14:01:17Z</time></trkpt><trkpt lat="45.89202119776689" lon="9.480739884554202"><ele>1203.0</ele><time>2026-04-27T14:01:19Z</time></trkpt><trkpt lat="45.8920839509028" lon="9.48071640018199"><ele>1200.5</ele><time>2026-04-27T14:01:20Z</time></trkpt><trkpt lat="45.89216501275222" lon="9.480684338060307"><ele>1198.0</ele><time>2026-04-27T14:01:21Z</time></trkpt><trkpt lat="45.89224397655315" lon="9.480693427469868"><ele>1195.5</ele><time>2026-04-27T14:01:22Z</time></trkpt><trkpt lat="45.89232776168344" lon="9.48068791665832"><ele>1193.0</ele><time>2026-04-27T14:01:23Z</time></trkpt><trkpt lat="45.89248673562043" lon="9.480713468238621"><ele>1193.0</ele><time>2026-04-27T14:01:24Z</time></trkpt><trkpt lat="45.892563738672266" lon="9.480707514305088"><ele>1193.0</ele><time>2026-04-27T14:01:25Z</time></trkpt><trkpt lat="45.89263485396622" lon="9.4807290660588"><ele>1193.0</ele><time>2026-04-27T14:01:26Z</time></trkpt><trkpt lat="45.892748261486325" lon="9.480709289064055"><ele>1193.0</ele><time>2026-04-27T14:01:28Z</time></trkpt><trkpt lat="45.892760553263805" lon="9.48061152199273"><ele>1193.0</ele><time>2026-04-27T14:01:31Z</time></trkpt><trkpt lat="45.892775016297854" lon="9.480485142094288"><ele>1193.0</ele><time>2026-04-27T14:01:33Z</time></trkpt><trkpt lat="45.89282771685899" lon="9.480340877360783"><ele>1196.8</ele><time>2026-04-27T14:01:35Z</time></trkpt><trkpt lat="45.89288804031877" lon="9.48014280345975"><ele>1200.6</ele><time>2026-04-27T14:01:36Z</time></trkpt><trkpt lat="45.89295374192752" lon="9.480042027131875"><ele>1204.4</ele><time>2026-04-27T14:01:37Z</time></trkpt><trkpt lat="45.893036394429686" lon="9.479948682900048"><ele>1208.2</ele><time>2026-04-27T14:01:38Z</time></trkpt><trkpt lat="45.89309282051422" lon="9.479894962470599"><ele>1212.0</ele><time>2026-04-27T14:01:39Z</time></trkpt><trkpt lat="45.893182871318274" lon="9.479819102078729"><ele>1212.0</ele><time>2026-04-27T14:01:40Z</time></trkpt><trkpt lat="45.893249204963794" lon="9.479738648713202"><ele>1212.0</ele><time>2026-04-27T14:01:41Z</time></trkpt><trkpt lat="45.89332761687584" lon="9.479659515645027"><ele>1212.0</ele><time>2026-04-27T14:01:42Z</time></trkpt><trkpt lat="45.89340926723717" lon="9.479576691603627"><ele>1212.0</ele><time>2026-04-27T14:01:43Z</time></trkpt><trkpt lat="45.89348841322426" lon="9.479512092845043"><ele>1212.0</ele><time>2026-04-27T14:01:44Z</time></trkpt><trkpt lat="45.8935702125009" lon="9.479417291544113"><ele>1213.0</ele><time>2026-04-27T14:01:45Z</time></trkpt><trkpt lat="45.893636542956166" lon="9.47926066835938"><ele>1214.0</ele><time>2026-04-27T14:01:46Z</time></trkpt><trkpt lat="45.89370876401191" lon="9.47920277279561"><ele>1215.0</ele><time>2026-04-27T14:01:47Z</time></trkpt><trkpt lat="45.893753420200355" lon="9.479114057635917"><ele>1216.0</ele><time>2026-04-27T14:01:48Z</time></trkpt><trkpt lat="45.893815473982606" lon="9.478993296768374"><ele>1217.0</ele><time>2026-04-27T14:01:49Z</time></trkpt><trkpt lat="45.89387397941093" lon="9.478885408291973"><ele>1217.0</ele><time>2026-04-27T14:01:50Z</time></trkpt><trkpt lat="45.893948841811095" lon="9.478771165407741"><ele>1217.0</ele><time>2026-04-27T14:01:51Z</time></trkpt><trkpt lat="45.894022975657" lon="9.478658384897026"><ele>1217.0</ele><time>2026-04-27T14:01:52Z</time></trkpt><trkpt lat="45.89406706266028" lon="9.478579751563899"><ele>1217.0</ele><time>2026-04-27T14:01:54Z</time></trkpt><trkpt lat="45.89411545563648" lon="9.478482737284864"><ele>1217.0</ele><time>2026-04-27T14:01:55Z</time></trkpt><trkpt lat="45.89417769271605" lon="9.478358448781638"><ele>1219.3333333333335</ele><time>2026-04-27T14:01:56Z</time></trkpt><trkpt lat="45.894229196322875" lon="9.478260014957094"><ele>1221.6666666666667</ele><time>2026-04-27T14:01:57Z</time></trkpt><trkpt lat="45.89429922876514" lon="9.478149296537902"><ele>1224.0</ele><time>2026-04-27T14:01:58Z</time></trkpt><trkpt lat="45.89436503520891" lon="9.478085271782833"><ele>1226.3333333333333</ele><time>2026-04-27T14:01:59Z</time></trkpt><trkpt lat="45.89445870695506" lon="9.478027776497228"><ele>1228.6666666666665</ele><time>2026-04-27T14:02:01Z</time></trkpt><trkpt lat="45.894533085213496" lon="9.477995238419142"><ele>1231.0</ele><time>2026-04-27T14:02:02Z</time></trkpt><trkpt lat="45.89464270288084" lon="9.478075281799935"><ele>1231.0</ele><time>2026-04-27T14:02:04Z</time></trkpt><trkpt lat="45.894732795071526" lon="9.47808076582389"><ele>1231.0</ele><time>2026-04-27T14:02:05Z</time></trkpt><trkpt lat="45.89480426928586" lon="9.47808860285345"><ele>1231.0</ele><time>2026-04-27T14:02:06Z</time></trkpt><trkpt lat="45.89488089989468" lon="9.478081102946012"><ele>1231.0</ele><time>2026-04-27T14:02:07Z</time></trkpt><trkpt lat="45.895043105665" lon="9.47813126683961"><ele>1231.0</ele><time>2026-04-27T14:02:09Z</time></trkpt><trkpt lat="45.895147433157625" lon="9.47813727661119"><ele>1229.0</ele><time>2026-04-27T14:02:10Z</time></trkpt><trkpt lat="45.89520300981777" lon="9.47809401808645"><ele>1227.0</ele><time>2026-04-27T14:02:11Z</time></trkpt><trkpt lat="45.895314513906335" lon="9.477957650486482"><ele>1225.0</ele><time>2026-04-27T14:02:13Z</time></trkpt><trkpt lat="45.89538494118824" lon="9.47783225575821"><ele>1223.0</ele><time>2026-04-27T14:02:15Z</time></trkpt><trkpt lat="45.895438454158985" lon="9.477755346663189"><ele>1221.0</ele><time>2026-04-27T14:02:16Z</time></trkpt><trkpt lat="45.89554905725162" lon="9.477661415660673"><ele>1225.0</ele><time>2026-04-27T14:02:18Z</time></trkpt><trkpt lat="45.89560720870014" lon="9.477620595100017"><ele>1229.0</ele><time>2026-04-27T14:02:19Z</time></trkpt><trkpt lat="45.89567301718323" lon="9.477550230611694"><ele>1233.0</ele><time>2026-04-27T14:02:20Z</time></trkpt><trkpt lat="45.89575496139021" lon="9.47749695991446"><ele>1237.0</ele><time>2026-04-27T14:02:21Z</time></trkpt><trkpt lat="45.89583112208194" lon="9.477441128482706"><ele>1241.0</ele><time>2026-04-27T14:02:22Z</time></trkpt><trkpt lat="45.89588409938648" lon="9.477388110261"><ele>1245.0</ele><time>2026-04-27T14:02:23Z</time></trkpt><trkpt lat="45.89594976652542" lon="9.477221375412926"><ele>1250.6666666666667</ele><time>2026-04-27T14:02:25Z</time></trkpt><trkpt lat="45.896034081972736" lon="9.477098359815034"><ele>1256.3333333333333</ele><time>2026-04-27T14:02:27Z</time></trkpt><trkpt lat="45.89606154250508" lon="9.477012824808122"><ele>1262.0</ele><time>2026-04-27T14:02:28Z</time></trkpt><trkpt lat="45.89613579810552" lon="9.477033410813965"><ele>1267.6666666666665</ele><time>2026-04-27T14:02:30Z</time></trkpt><trkpt lat="45.896202506474815" lon="9.47705355220371"><ele>1273.3333333333333</ele><time>2026-04-27T14:02:32Z</time></trkpt><trkpt lat="45.896314657713674" lon="9.477062052269336"><ele>1279.0</ele><time>2026-04-27T14:02:33Z</time></trkpt><trkpt lat="45.89642090488755" lon="9.477081433883138"><ele>1273.6666666666665</ele><time>2026-04-27T14:02:34Z</time></trkpt><trkpt lat="45.89651951617624" lon="9.477109184956205"><ele>1268.3333333333333</ele><time>2026-04-27T14:02:35Z</time></trkpt><trkpt lat="45.89660218407925" lon="9.477114387900716"><ele>1263.0</ele><time>2026-04-27T14:02:36Z</time></trkpt><trkpt lat="45.89667850309487" lon="9.477108439159812"><ele>1257.6666666666667</ele><time>2026-04-27T14:02:37Z</time></trkpt><trkpt lat="45.896766294514116" lon="9.477072672716442"><ele>1252.3333333333335</ele><time>2026-04-27T14:02:39Z</time></trkpt><trkpt lat="45.896829270425336" lon="9.477075065230649"><ele>1247.0</ele><time>2026-04-27T14:02:41Z</time></trkpt><trkpt lat="45.89688439307099" lon="9.477026302701372"><ele>1247.0</ele><time>2026-04-27T14:02:42Z</time></trkpt><trkpt lat="45.896951979375885" lon="9.47696568798418"><ele>1247.0</ele><time>2026-04-27T14:02:43Z</time></trkpt><trkpt lat="45.896996197205354" lon="9.476851995459402"><ele>1247.0</ele><time>2026-04-27T14:02:44Z</time></trkpt><trkpt lat="45.897028925954736" lon="9.476744241916256"><ele>1247.0</ele><time>2026-04-27T14:02:45Z</time></trkpt><trkpt lat="45.89706117188542" lon="9.476647848230307"><ele>1247.0</ele><time>2026-04-27T14:02:46Z</time></trkpt><trkpt lat="45.897096634457625" lon="9.476540134908655"><ele>1247.0</ele><time>2026-04-27T14:02:47Z</time></trkpt><trkpt lat="45.897121299107106" lon="9.47642328797695"><ele>1247.0</ele><time>2026-04-27T14:02:48Z</time></trkpt><trkpt lat="45.89715493075421" lon="9.476297773986687"><ele>1247.0</ele><time>2026-04-27T14:02:49Z</time></trkpt><trkpt lat="45.8971786336522" lon="9.476163575452647"><ele>1247.0</ele><time>2026-04-27T14:02:50Z</time></trkpt><trkpt lat="45.89723268981195" lon="9.476028576640637"><ele>1247.0</ele><time>2026-04-27T14:02:51Z</time></trkpt><trkpt lat="45.89728491563678" lon="9.47594151731679"><ele>1247.0</ele><time>2026-04-27T14:02:52Z</time></trkpt><trkpt lat="45.89733645565906" lon="9.475846803330992"><ele>1252.6</ele><time>2026-04-27T14:02:53Z</time></trkpt><trkpt lat="45.89741099539484" lon="9.475762885522137"><ele>1258.2</ele><time>2026-04-27T14:02:54Z</time></trkpt><trkpt lat="45.89753957527356" lon="9.475801060237552"><ele>1263.8</ele><time>2026-04-27T14:02:55Z</time></trkpt><trkpt lat="45.89761545943022" lon="9.475722803926871"><ele>1269.4</ele><time>2026-04-27T14:02:56Z</time></trkpt><trkpt lat="45.897690832928085" lon="9.475649301573437"><ele>1275.0</ele><time>2026-04-27T14:02:58Z</time></trkpt><trkpt lat="45.897775767159835" lon="9.475565890804113"><ele>1275.0</ele><time>2026-04-27T14:03:00Z</time></trkpt><trkpt lat="45.89790368603794" lon="9.475560206948101"><ele>1275.0</ele><time>2026-04-27T14:03:02Z</time></trkpt><trkpt lat="45.89798490135921" lon="9.475579317520715"><ele>1275.0</ele><time>2026-04-27T14:03:03Z</time></trkpt><trkpt lat="45.89805535539683" lon="9.475613652450305"><ele>1275.0</ele><time>2026-04-27T14:03:04Z</time></trkpt><trkpt lat="45.8981534273122" lon="9.475673366656718"><ele>1275.0</ele><time>2026-04-27T14:03:05Z</time></trkpt><trkpt lat="45.89824216752928" lon="9.475749733669272"><ele>1275.0</ele><time>2026-04-27T14:03:06Z</time></trkpt><trkpt lat="45.898326586774296" lon="9.47582193952828"><ele>1275.0</ele><time>2026-04-27T14:03:07Z</time></trkpt><trkpt lat="45.89842560404992" lon="9.475942819208075"><ele>1275.0</ele><time>2026-04-27T14:03:08Z</time></trkpt><trkpt lat="45.89856934730011" lon="9.47605979152101"><ele>1275.0</ele><time>2026-04-27T14:03:09Z</time></trkpt><trkpt lat="45.89864925825251" lon="9.476098650533604"><ele>1275.5</ele><time>2026-04-27T14:03:10Z</time></trkpt><trkpt lat="45.89872462575543" lon="9.476142513776782"><ele>1276.0</ele><time>2026-04-27T14:03:11Z</time></trkpt><trkpt lat="45.89878628726202" lon="9.47618529966593"><ele>1276.5</ele><time>2026-04-27T14:03:12Z</time></trkpt><trkpt lat="45.898877654763005" lon="9.476190719652697"><ele>1277.0</ele><time>2026-04-27T14:03:14Z</time></trkpt><trkpt lat="45.89892668209676" lon="9.476120805039928"><ele>1277.5</ele><time>2026-04-27T14:03:16Z</time></trkpt><trkpt lat="45.89894199440751" lon="9.47602766453697"><ele>1278.0</ele><time>2026-04-27T14:03:17Z</time></trkpt><trkpt lat="45.89897606950152" lon="9.475874613693035"><ele>1278.0</ele><time>2026-04-27T14:03:18Z</time></trkpt><trkpt lat="45.898984143800305" lon="9.47573186624096"><ele>1278.0</ele><time>2026-04-27T14:03:19Z</time></trkpt><trkpt lat="45.89900782883727" lon="9.475613585075058"><ele>1278.0</ele><time>2026-04-27T14:03:20Z</time></trkpt><trkpt lat="45.89903000737059" lon="9.47549190359782"><ele>1278.0</ele><time>2026-04-27T14:03:21Z</time></trkpt><trkpt lat="45.89907295025347" lon="9.475400475434434"><ele>1278.0</ele><time>2026-04-27T14:03:22Z</time></trkpt><trkpt lat="45.89915672282649" lon="9.475372568115516"><ele>1278.0</ele><time>2026-04-27T14:03:23Z</time></trkpt><trkpt lat="45.899249277333006" lon="9.47523703071056"><ele>1279.0</ele><time>2026-04-27T14:03:24Z</time></trkpt><trkpt lat="45.899290601629566" lon="9.475156595682995"><ele>1280.0</ele><time>2026-04-27T14:03:26Z</time></trkpt><trkpt lat="45.89931288326808" lon="9.474999401917037"><ele>1281.0</ele><time>2026-04-27T14:03:29Z</time></trkpt><trkpt lat="45.89926462982589" lon="9.474884121876407"><ele>1282.0</ele><time>2026-04-27T14:03:30Z</time></trkpt><trkpt lat="45.89910438561337" lon="9.474663273099083"><ele>1282.0</ele><time>2026-04-27T14:03:32Z</time></trkpt><trkpt lat="45.8990674993383" lon="9.474534904449534"><ele>1282.0</ele><time>2026-04-27T14:03:34Z</time></trkpt><trkpt lat="45.899078301106854" lon="9.474371333247925"><ele>1282.0</ele><time>2026-04-27T14:03:36Z</time></trkpt><trkpt lat="45.899101022537266" lon="9.47428090611762"><ele>1282.0</ele><time>2026-04-27T14:03:37Z</time></trkpt><trkpt lat="45.89914421808196" lon="9.474187764977678"><ele>1282.0</ele><time>2026-04-27T14:03:38Z</time></trkpt><trkpt lat="45.89919257851458" lon="9.474084343203545"><ele>1282.0</ele><time>2026-04-27T14:03:39Z</time></trkpt><trkpt lat="45.89923173412943" lon="9.473965473553513"><ele>1282.6666666666665</ele><time>2026-04-27T14:03:40Z</time></trkpt><trkpt lat="45.899287017778825" lon="9.473843032356243"><ele>1283.3333333333333</ele><time>2026-04-27T14:03:41Z</time></trkpt><trkpt lat="45.89931725446553" lon="9.473753301607204"><ele>1284.0</ele><time>2026-04-27T14:03:42Z</time></trkpt><trkpt lat="45.89933392272313" lon="9.473638651317323"><ele>1284.6666666666667</ele><time>2026-04-27T14:03:43Z</time></trkpt><trkpt lat="45.89934846913574" lon="9.473548366561829"><ele>1285.3333333333335</ele><time>2026-04-27T14:03:44Z</time></trkpt><trkpt lat="45.89937568904286" lon="9.473412183487019"><ele>1286.0</ele><time>2026-04-27T14:03:46Z</time></trkpt><trkpt lat="45.89944663535978" lon="9.473307460468526"><ele>1286.0</ele><time>2026-04-27T14:03:49Z</time></trkpt><trkpt lat="45.899520759559586" lon="9.473312800697624"><ele>1286.0</ele><time>2026-04-27T14:03:51Z</time></trkpt><trkpt lat="45.899598626680735" lon="9.473345755201505"><ele>1286.0</ele><time>2026-04-27T14:03:53Z</time></trkpt><trkpt lat="45.89966209420664" lon="9.473390647301166"><ele>1286.0</ele><time>2026-04-27T14:03:55Z</time></trkpt><trkpt lat="45.89972251238573" lon="9.473439842763021"><ele>1286.0</ele><time>2026-04-27T14:03:56Z</time></trkpt><trkpt lat="45.89979295489685" lon="9.473507836439605"><ele>1286.0</ele><time>2026-04-27T14:03:58Z</time></trkpt><trkpt lat="45.89988272063587" lon="9.473611166961575"><ele>1286.0</ele><time>2026-04-27T14:04:00Z</time></trkpt><trkpt lat="45.899962570955346" lon="9.473692196967747"><ele>1286.0</ele><time>2026-04-27T14:04:02Z</time></trkpt><trkpt lat="45.90005735026137" lon="9.473760466785683"><ele>1286.0</ele><time>2026-04-27T14:04:04Z</time></trkpt><trkpt lat="45.90013951934857" lon="9.473774642633588"><ele>1286.0</ele><time>2026-04-27T14:04:06Z</time></trkpt><trkpt lat="45.900205976377016" lon="9.473798675819866"><ele>1286.0</ele><time>2026-04-27T14:04:08Z</time></trkpt><trkpt lat="45.90033364706825" lon="9.47379120714422"><ele>1285.0</ele><time>2026-04-27T14:04:10Z</time></trkpt><trkpt lat="45.900427031953065" lon="9.47376072354"><ele>1284.0</ele><time>2026-04-27T14:04:12Z</time></trkpt><trkpt lat="45.900523501484386" lon="9.47370012537382"><ele>1283.0</ele><time>2026-04-27T14:04:14Z</time></trkpt><trkpt lat="45.90062824517652" lon="9.473637501645683"><ele>1282.0</ele><time>2026-04-27T14:04:16Z</time></trkpt><trkpt lat="45.900707693881294" lon="9.473570613107835"><ele>1281.0</ele><time>2026-04-27T14:04:18Z</time></trkpt><trkpt lat="45.90076383632824" lon="9.47346586492219"><ele>1281.0</ele><time>2026-04-27T14:04:19Z</time></trkpt><trkpt lat="45.90085817216076" lon="9.473323960697025"><ele>1281.0</ele><time>2026-04-27T14:04:21Z</time></trkpt><trkpt lat="45.90090087290031" lon="9.47325677934378"><ele>1281.0</ele><time>2026-04-27T14:04:22Z</time></trkpt><trkpt lat="45.90097202341437" lon="9.473133976685496"><ele>1281.0</ele><time>2026-04-27T14:04:23Z</time></trkpt><trkpt lat="45.901072078232886" lon="9.472987950352643"><ele>1286.4</ele><time>2026-04-27T14:04:24Z</time></trkpt><trkpt lat="45.901145781297664" lon="9.472862485586905"><ele>1291.8</ele><time>2026-04-27T14:04:25Z</time></trkpt><trkpt lat="45.90119899913537" lon="9.472743010921391"><ele>1297.2</ele><time>2026-04-27T14:04:26Z</time></trkpt><trkpt lat="45.9012348962208" lon="9.472655069416517"><ele>1302.6000000000001</ele><time>2026-04-27T14:04:27Z</time></trkpt><trkpt lat="45.90129506809811" lon="9.472566428528806"><ele>1308.0</ele><time>2026-04-27T14:04:29Z</time></trkpt><trkpt lat="45.90136964852036" lon="9.472518039199356"><ele>1308.0</ele><time>2026-04-27T14:04:30Z</time></trkpt><trkpt lat="45.901447274852245" lon="9.472499051425237"><ele>1308.0</ele><time>2026-04-27T14:04:31Z</time></trkpt><trkpt lat="45.901501957628746" lon="9.472564169900869"><ele>1308.0</ele><time>2026-04-27T14:04:32Z</time></trkpt><trkpt lat="45.90156180014012" lon="9.472667716762398"><ele>1308.0</ele><time>2026-04-27T14:04:33Z</time></trkpt><trkpt lat="45.90161264265466" lon="9.472808386122303"><ele>1308.0</ele><time>2026-04-27T14:04:34Z</time></trkpt><trkpt lat="45.90166024484874" lon="9.472929400017971"><ele>1304.3333333333333</ele><time>2026-04-27T14:04:35Z</time></trkpt><trkpt lat="45.90169576952507" lon="9.473034436875745"><ele>1300.6666666666667</ele><time>2026-04-27T14:04:36Z</time></trkpt><trkpt lat="45.90172945105472" lon="9.473129729994945"><ele>1297.0</ele><time>2026-04-27T14:04:37Z</time></trkpt><trkpt lat="45.90176903460122" lon="9.4732385818592"><ele>1293.3333333333335</ele><time>2026-04-27T14:04:38Z</time></trkpt><trkpt lat="45.90180117160298" lon="9.47332657500491"><ele>1289.6666666666667</ele><time>2026-04-27T14:04:39Z</time></trkpt><trkpt lat="45.901830443499" lon="9.473410418817114"><ele>1286.0</ele><time>2026-04-27T14:04:40Z</time></trkpt><trkpt lat="45.901880280278206" lon="9.473503479522641"><ele>1290.5</ele><time>2026-04-27T14:04:41Z</time></trkpt><trkpt lat="45.90190711736576" lon="9.47361030114711"><ele>1295.0</ele><time>2026-04-27T14:04:42Z</time></trkpt><trkpt lat="45.90194032183625" lon="9.473688583634836"><ele>1299.5</ele><time>2026-04-27T14:04:43Z</time></trkpt><trkpt lat="45.90202427544044" lon="9.473809067624302"><ele>1304.0</ele><time>2026-04-27T14:04:45Z</time></trkpt><trkpt lat="45.902097990953095" lon="9.473828846377877"><ele>1308.5</ele><time>2026-04-27T14:04:46Z</time></trkpt><trkpt lat="45.902159140820025" lon="9.47385622756302"><ele>1313.0</ele><time>2026-04-27T14:04:47Z</time></trkpt><trkpt lat="45.90221926317976" lon="9.47390596490975"><ele>1313.0</ele><time>2026-04-27T14:04:48Z</time></trkpt><trkpt lat="45.90228824934803" lon="9.47395481251579"><ele>1313.0</ele><time>2026-04-27T14:04:49Z</time></trkpt><trkpt lat="45.9023546251168" lon="9.474092570939117"><ele>1313.0</ele><time>2026-04-27T14:04:51Z</time></trkpt><trkpt lat="45.90237129888321" lon="9.474292320112207"><ele>1313.0</ele><time>2026-04-27T14:04:53Z</time></trkpt><trkpt lat="45.9023736248248" lon="9.47443258464891"><ele>1313.0</ele><time>2026-04-27T14:04:54Z</time></trkpt><trkpt lat="45.902391324625505" lon="9.474560538195185"><ele>1308.6000000000001</ele><time>2026-04-27T14:04:55Z</time></trkpt><trkpt lat="45.90240470478807" lon="9.47470685487513"><ele>1304.2</ele><time>2026-04-27T14:04:56Z</time></trkpt><trkpt lat="45.90243716181231" lon="9.474840051540774"><ele>1299.8</ele><time>2026-04-27T14:04:57Z</time></trkpt><trkpt lat="45.902453321890775" lon="9.474967222421197"><ele>1295.4</ele><time>2026-04-27T14:04:58Z</time></trkpt><trkpt lat="45.90247167038772" lon="9.475118048102493"><ele>1291.0</ele><time>2026-04-27T14:05:00Z</time></trkpt><trkpt lat="45.90255110041499" lon="9.475228383465065"><ele>1297.4</ele><time>2026-04-27T14:05:02Z</time></trkpt><trkpt lat="45.90263592718133" lon="9.475257676193534"><ele>1303.8</ele><time>2026-04-27T14:05:03Z</time></trkpt><trkpt lat="45.902729102938274" lon="9.475290472796763"><ele>1310.2</ele><time>2026-04-27T14:05:04Z</time></trkpt><trkpt lat="45.902834704194554" lon="9.475275416991446"><ele>1316.6000000000001</ele><time>2026-04-27T14:05:05Z</time></trkpt><trkpt lat="45.90294065832528" lon="9.475300858959956"><ele>1323.0</ele><time>2026-04-27T14:05:06Z</time></trkpt><trkpt lat="45.90300386388458" lon="9.475312336341075"><ele>1323.0</ele><time>2026-04-27T14:05:07Z</time></trkpt><trkpt lat="45.90311500028973" lon="9.47534058886319"><ele>1323.0</ele><time>2026-04-27T14:05:09Z</time></trkpt><trkpt lat="45.903133079394294" lon="9.47554163130987"><ele>1323.0</ele><time>2026-04-27T14:05:11Z</time></trkpt><trkpt lat="45.90317231980153" lon="9.475659443585677"><ele>1323.0</ele><time>2026-04-27T14:05:12Z</time></trkpt><trkpt lat="45.90322595778429" lon="9.475809993037283"><ele>1320.2</ele><time>2026-04-27T14:05:13Z</time></trkpt><trkpt lat="45.90326651025757" lon="9.475903835825779"><ele>1317.4</ele><time>2026-04-27T14:05:14Z</time></trkpt><trkpt lat="45.90337538727999" lon="9.476018109460195"><ele>1314.6000000000001</ele><time>2026-04-27T14:05:16Z</time></trkpt><trkpt lat="45.90346956996044" lon="9.476032439684172"><ele>1311.8000000000002</ele><time>2026-04-27T14:05:17Z</time></trkpt><trkpt lat="45.90356320298485" lon="9.476018944397874"><ele>1309.0</ele><time>2026-04-27T14:05:18Z</time></trkpt><trkpt lat="45.903644654660425" lon="9.475986592497033"><ele>1309.0</ele><time>2026-04-27T14:05:19Z</time></trkpt><trkpt lat="45.903723552803314" lon="9.475966086895255"><ele>1309.0</ele><time>2026-04-27T14:05:20Z</time></trkpt><trkpt lat="45.90381796953364" lon="9.476003439131132"><ele>1309.0</ele><time>2026-04-27T14:05:21Z</time></trkpt><trkpt lat="45.90388048052437" lon="9.476090212246234"><ele>1309.0</ele><time>2026-04-27T14:05:22Z</time></trkpt><trkpt lat="45.90402659227814" lon="9.476098521618392"><ele>1309.0</ele><time>2026-04-27T14:05:23Z</time></trkpt><trkpt lat="45.90414915411936" lon="9.476058531751052"><ele>1306.75</ele><time>2026-04-27T14:05:24Z</time></trkpt><trkpt lat="45.90427704133075" lon="9.476082601590855"><ele>1304.5</ele><time>2026-04-27T14:05:25Z</time></trkpt><trkpt lat="45.90441230926265" lon="9.47611614065039"><ele>1302.25</ele><time>2026-04-27T14:05:26Z</time></trkpt><trkpt lat="45.904570519976936" lon="9.47616432726316"><ele>1300.0</ele><time>2026-04-27T14:05:27Z</time></trkpt><trkpt lat="45.904728169745695" lon="9.476222133105246"><ele>1298.8</ele><time>2026-04-27T14:05:28Z</time></trkpt><trkpt lat="45.90481670900757" lon="9.476271130875643"><ele>1297.6</ele><time>2026-04-27T14:05:29Z</time></trkpt><trkpt lat="45.904923708924514" lon="9.476340073745147"><ele>1296.4</ele><time>2026-04-27T14:05:30Z</time></trkpt><trkpt lat="45.904997623328725" lon="9.476484760520469"><ele>1295.2</ele><time>2026-04-27T14:05:32Z</time></trkpt><trkpt lat="45.90505992674733" lon="9.476565896709563"><ele>1294.0</ele><time>2026-04-27T14:05:33Z</time></trkpt><trkpt lat="45.905123999439006" lon="9.476709858277275"><ele>1294.0</ele><time>2026-04-27T14:05:35Z</time></trkpt><trkpt lat="45.90516546664397" lon="9.476845764485818"><ele>1294.0</ele><time>2026-04-27T14:05:36Z</time></trkpt><trkpt lat="45.90514950362729" lon="9.476996812464835"><ele>1294.0</ele><time>2026-04-27T14:05:37Z</time></trkpt><trkpt lat="45.90516648722991" lon="9.477197432838746"><ele>1294.0</ele><time>2026-04-27T14:05:38Z</time></trkpt><trkpt lat="45.90519260184615" lon="9.47738429250158"><ele>1297.0</ele><time>2026-04-27T14:05:39Z</time></trkpt><trkpt lat="45.90520940382752" lon="9.477520226102763"><ele>1300.0</ele><time>2026-04-27T14:05:40Z</time></trkpt><trkpt lat="45.90521998845838" lon="9.477633124944175"><ele>1303.0</ele><time>2026-04-27T14:05:41Z</time></trkpt><trkpt lat="45.90522255910465" lon="9.477740321727591"><ele>1306.0</ele><time>2026-04-27T14:05:42Z</time></trkpt><trkpt lat="45.90521707637384" lon="9.477845636250828"><ele>1309.0</ele><time>2026-04-27T14:05:43Z</time></trkpt><trkpt lat="45.90517332256532" lon="9.477993843408514"><ele>1312.0</ele><time>2026-04-27T14:05:45Z</time></trkpt><trkpt lat="45.90518545513745" lon="9.478120347981962"><ele>1311.8</ele><time>2026-04-27T14:05:47Z</time></trkpt><trkpt lat="45.90523562106037" lon="9.478281605697443"><ele>1311.6</ele><time>2026-04-27T14:05:49Z</time></trkpt><trkpt lat="45.90527429461241" lon="9.478373899503731"><ele>1311.3999999999999</ele><time>2026-04-27T14:05:50Z</time></trkpt><trkpt lat="45.90529136416951" lon="9.478461616741031"><ele>1311.1999999999998</ele><time>2026-04-27T14:05:51Z</time></trkpt><trkpt lat="45.90531477854206" lon="9.47860932549199"><ele>1311.0</ele><time>2026-04-27T14:05:53Z</time></trkpt><trkpt lat="45.90526295964542" lon="9.47877156695101"><ele>1311.0</ele><time>2026-04-27T14:05:55Z</time></trkpt><trkpt lat="45.90521574068745" lon="9.478856027873972"><ele>1311.0</ele><time>2026-04-27T14:05:56Z</time></trkpt><trkpt lat="45.90516583499523" lon="9.478925412892352"><ele>1311.0</ele><time>2026-04-27T14:05:57Z</time></trkpt><trkpt lat="45.905107620956194" lon="9.479051637562403"><ele>1311.0</ele><time>2026-04-27T14:05:59Z</time></trkpt><trkpt lat="45.90508828655496" lon="9.4792424092035"><ele>1311.0</ele><time>2026-04-27T14:06:01Z</time></trkpt><trkpt lat="45.90509591727566" lon="9.479356976671031"><ele>1311.0</ele><time>2026-04-27T14:06:02Z</time></trkpt><trkpt lat="45.90511665541196" lon="9.479462115198872"><ele>1311.0</ele><time>2026-04-27T14:06:03Z</time></trkpt><trkpt lat="45.90510452755803" lon="9.479598408626218"><ele>1311.0</ele><time>2026-04-27T14:06:05Z</time></trkpt><trkpt lat="45.905102115949504" lon="9.479692514269805"><ele>1311.0</ele><time>2026-04-27T14:06:07Z</time></trkpt><trkpt lat="45.90512009036895" lon="9.479789999225792"><ele>1311.0</ele><time>2026-04-27T14:06:09Z</time></trkpt><trkpt lat="45.90515891670699" lon="9.479862549506684"><ele>1311.0</ele><time>2026-04-27T14:06:10Z</time></trkpt><trkpt lat="45.905231414319324" lon="9.479912787745672"><ele>1306.1999999999998</ele><time>2026-04-27T14:06:11Z</time></trkpt><trkpt lat="45.90531656191588" lon="9.479951809201296"><ele>1301.3999999999999</ele><time>2026-04-27T14:06:12Z</time></trkpt><trkpt lat="45.905387761572754" lon="9.479993815005056"><ele>1296.6</ele><time>2026-04-27T14:06:13Z</time></trkpt><trkpt lat="45.90545702554551" lon="9.480020970505342"><ele>1291.8</ele><time>2026-04-27T14:06:14Z</time></trkpt><trkpt lat="45.90558042581055" lon="9.480103633796295"><ele>1287.0</ele><time>2026-04-27T14:06:15Z</time></trkpt><trkpt lat="45.90567207472025" lon="9.48017846004494"><ele>1287.0</ele><time>2026-04-27T14:06:16Z</time></trkpt><trkpt lat="45.9057686631771" lon="9.480230768931353"><ele>1287.0</ele><time>2026-04-27T14:06:17Z</time></trkpt><trkpt lat="45.9058874283514" lon="9.480266239974364"><ele>1287.0</ele><time>2026-04-27T14:06:18Z</time></trkpt><trkpt lat="45.90598978025426" lon="9.48030127263938"><ele>1287.0</ele><time>2026-04-27T14:06:19Z</time></trkpt><trkpt lat="45.90607199580787" lon="9.480342750073348"><ele>1287.0</ele><time>2026-04-27T14:06:20Z</time></trkpt><trkpt lat="45.90619544775896" lon="9.480405116045768"><ele>1287.0</ele><time>2026-04-27T14:06:22Z</time></trkpt><trkpt lat="45.906266001735204" lon="9.480424089554253"><ele>1287.0</ele><time>2026-04-27T14:06:23Z</time></trkpt><trkpt lat="45.90631683114245" lon="9.480481077413074"><ele>1287.0</ele><time>2026-04-27T14:06:24Z</time></trkpt><trkpt lat="45.906373784335685" lon="9.480542876942982"><ele>1287.0</ele><time>2026-04-27T14:06:25Z</time></trkpt><trkpt lat="45.9063973321" lon="9.480688235295704"><ele>1287.0</ele><time>2026-04-27T14:06:27Z</time></trkpt><trkpt lat="45.90637057809247" lon="9.480792083560518"><ele>1287.0</ele><time>2026-04-27T14:06:28Z</time></trkpt><trkpt lat="45.90631355684639" lon="9.480898470923796"><ele>1287.0</ele><time>2026-04-27T14:06:29Z</time></trkpt><trkpt lat="45.906269446078" lon="9.481011673547886"><ele>1287.0</ele><time>2026-04-27T14:06:30Z</time></trkpt><trkpt lat="45.90620608991397" lon="9.481162746697956"><ele>1287.0</ele><time>2026-04-27T14:06:31Z</time></trkpt><trkpt lat="45.906145005456494" lon="9.481295029303908"><ele>1287.0</ele><time>2026-04-27T14:06:32Z</time></trkpt><trkpt lat="45.90606959682803" lon="9.481436033188771"><ele>1287.0</ele><time>2026-04-27T14:06:34Z</time></trkpt><trkpt lat="45.906005634992965" lon="9.481487133100043"><ele>1287.25</ele><time>2026-04-27T14:06:35Z</time></trkpt><trkpt lat="45.90592394139506" lon="9.481649825581844"><ele>1287.5</ele><time>2026-04-27T14:06:37Z</time></trkpt><trkpt lat="45.905896509833504" lon="9.481797358426897"><ele>1287.75</ele><time>2026-04-27T14:06:39Z</time></trkpt><trkpt lat="45.90582672839256" lon="9.481946924698876"><ele>1288.0</ele><time>2026-04-27T14:06:41Z</time></trkpt><trkpt lat="45.90576152471522" lon="9.48203614246858"><ele>1280.3333333333333</ele><time>2026-04-27T14:06:43Z</time></trkpt><trkpt lat="45.9057086352499" lon="9.482112913701522"><ele>1272.6666666666665</ele><time>2026-04-27T14:06:45Z</time></trkpt><trkpt lat="45.90564525389237" lon="9.482185240976806"><ele>1265.0</ele><time>2026-04-27T14:06:47Z</time></trkpt><trkpt lat="45.905610085131876" lon="9.482316497959015"><ele>1257.3333333333333</ele><time>2026-04-27T14:06:49Z</time></trkpt><trkpt lat="45.90563751959347" lon="9.482413482811992"><ele>1249.6666666666667</ele><time>2026-04-27T14:06:50Z</time></trkpt><trkpt lat="45.905695206110565" lon="9.482472078452819"><ele>1242.0</ele><time>2026-04-27T14:06:51Z</time></trkpt><trkpt lat="45.90579123692812" lon="9.482580666179848"><ele>1242.0</ele><time>2026-04-27T14:06:53Z</time></trkpt><trkpt lat="45.905853805046114" lon="9.482619661162616"><ele>1242.0</ele><time>2026-04-27T14:06:54Z</time></trkpt><trkpt lat="45.9058959829065" lon="9.482688498064329"><ele>1242.0</ele><time>2026-04-27T14:06:55Z</time></trkpt><trkpt lat="45.9059555169131" lon="9.482728648916453"><ele>1242.0</ele><time>2026-04-27T14:06:56Z</time></trkpt><trkpt lat="45.90604848610015" lon="9.48281821648766"><ele>1242.0</ele><time>2026-04-27T14:06:58Z</time></trkpt><trkpt lat="45.9061479450737" lon="9.48291875816756"><ele>1242.0</ele><time>2026-04-27T14:07:00Z</time></trkpt><trkpt lat="45.906168319559235" lon="9.483013372370364"><ele>1240.6</ele><time>2026-04-27T14:07:01Z</time></trkpt><trkpt lat="45.906159545518136" lon="9.483184744937978"><ele>1239.2</ele><time>2026-04-27T14:07:03Z</time></trkpt><trkpt lat="45.906120942642175" lon="9.48326426284631"><ele>1237.8</ele><time>2026-04-27T14:07:04Z</time></trkpt><trkpt lat="45.90603956704982" lon="9.483325869877067"><ele>1236.4</ele><time>2026-04-27T14:07:05Z</time></trkpt><trkpt lat="45.90597294148337" lon="9.483464723284744"><ele>1235.0</ele><time>2026-04-27T14:07:06Z</time></trkpt><trkpt lat="45.90590748743073" lon="9.483570907180464"><ele>1235.0</ele><time>2026-04-27T14:07:07Z</time></trkpt><trkpt lat="45.90586367871477" lon="9.483668168669391"><ele>1235.0</ele><time>2026-04-27T14:07:08Z</time></trkpt><trkpt lat="45.9058331536329" lon="9.483779953837157"><ele>1235.0</ele><time>2026-04-27T14:07:09Z</time></trkpt><trkpt lat="45.90579135866133" lon="9.483871940591824"><ele>1235.0</ele><time>2026-04-27T14:07:10Z</time></trkpt><trkpt lat="45.90572512507372" lon="9.484015041825055"><ele>1235.0</ele><time>2026-04-27T14:07:12Z</time></trkpt><trkpt lat="45.90567326120978" lon="9.48416536468888"><ele>1235.2</ele><time>2026-04-27T14:07:14Z</time></trkpt><trkpt lat="45.905627880692364" lon="9.484269633713845"><ele>1235.4</ele><time>2026-04-27T14:07:15Z</time></trkpt><trkpt lat="45.90559271550148" lon="9.484377088286552"><ele>1235.6</ele><time>2026-04-27T14:07:16Z</time></trkpt><trkpt lat="45.90554835814847" lon="9.484474648457125"><ele>1235.8</ele><time>2026-04-27T14:07:17Z</time></trkpt><trkpt lat="45.905513611813724" lon="9.484550667834078"><ele>1236.0</ele><time>2026-04-27T14:07:18Z</time></trkpt><trkpt lat="45.90538923146683" lon="9.484642433901604"><ele>1236.8333333333333</ele><time>2026-04-27T14:07:20Z</time></trkpt><trkpt lat="45.905315056274866" lon="9.484708599508547"><ele>1237.6666666666667</ele><time>2026-04-27T14:07:21Z</time></trkpt><trkpt lat="45.905245158915584" lon="9.48477325937192"><ele>1238.5</ele><time>2026-04-27T14:07:22Z</time></trkpt><trkpt lat="45.90517705947076" lon="9.484862463485792"><ele>1239.3333333333335</ele><time>2026-04-27T14:07:23Z</time></trkpt><trkpt lat="45.90510421302245" lon="9.484929482582071"><ele>1240.1666666666667</ele><time>2026-04-27T14:07:24Z</time></trkpt><trkpt lat="45.90504273890909" lon="9.484995724800152"><ele>1241.0</ele><time>2026-04-27T14:07:25Z</time></trkpt><trkpt lat="45.90498937033615" lon="9.485067795861932"><ele>1241.0</ele><time>2026-04-27T14:07:26Z</time></trkpt><trkpt lat="45.90496255957597" lon="9.485162380863427"><ele>1241.0</ele><time>2026-04-27T14:07:27Z</time></trkpt><trkpt lat="45.90493470458433" lon="9.485281661615987"><ele>1241.0</ele><time>2026-04-27T14:07:28Z</time></trkpt><trkpt lat="45.904893653482354" lon="9.485407635506258"><ele>1241.0</ele><time>2026-04-27T14:07:29Z</time></trkpt><trkpt lat="45.9048487476684" lon="9.48554726919142"><ele>1241.0</ele><time>2026-04-27T14:07:30Z</time></trkpt><trkpt lat="45.9047964421632" lon="9.48562581426345"><ele>1241.0</ele><time>2026-04-27T14:07:31Z</time></trkpt><trkpt lat="45.904738528997505" lon="9.485712952418353"><ele>1239.0</ele><time>2026-04-27T14:07:32Z</time></trkpt><trkpt lat="45.9046780404033" lon="9.485771191018257"><ele>1237.0</ele><time>2026-04-27T14:07:33Z</time></trkpt><trkpt lat="45.90459923369734" lon="9.485861839278533"><ele>1235.0</ele><time>2026-04-27T14:07:34Z</time></trkpt><trkpt lat="45.90453171767087" lon="9.485923282688196"><ele>1233.0</ele><time>2026-04-27T14:07:35Z</time></trkpt><trkpt lat="45.904458987312225" lon="9.485987153843134"><ele>1231.0</ele><time>2026-04-27T14:07:36Z</time></trkpt><trkpt lat="45.90438729107271" lon="9.486044119592684"><ele>1229.0</ele><time>2026-04-27T14:07:37Z</time></trkpt><trkpt lat="45.904291175893825" lon="9.48612521736433"><ele>1231.5</ele><time>2026-04-27T14:07:38Z</time></trkpt><trkpt lat="45.904216107451184" lon="9.486180383137553"><ele>1234.0</ele><time>2026-04-27T14:07:39Z</time></trkpt><trkpt lat="45.90414094979781" lon="9.486246117484706"><ele>1236.5</ele><time>2026-04-27T14:07:40Z</time></trkpt><trkpt lat="45.90408077707548" lon="9.486283736352231"><ele>1239.0</ele><time>2026-04-27T14:07:41Z</time></trkpt><trkpt lat="45.90401629870201" lon="9.486366720478259"><ele>1241.5</ele><time>2026-04-27T14:07:42Z</time></trkpt><trkpt lat="45.903955420681264" lon="9.486444810003531"><ele>1244.0</ele><time>2026-04-27T14:07:43Z</time></trkpt><trkpt lat="45.90387840599585" lon="9.486498765620334"><ele>1244.0</ele><time>2026-04-27T14:07:44Z</time></trkpt><trkpt lat="45.903805957817454" lon="9.486572984680842"><ele>1244.0</ele><time>2026-04-27T14:07:45Z</time></trkpt><trkpt lat="45.903748625217624" lon="9.486646026784287"><ele>1244.0</ele><time>2026-04-27T14:07:46Z</time></trkpt><trkpt lat="45.9036863921765" lon="9.486711924753799"><ele>1244.0</ele><time>2026-04-27T14:07:47Z</time></trkpt><trkpt lat="45.90359565352846" lon="9.486748610483712"><ele>1244.0</ele><time>2026-04-27T14:07:49Z</time></trkpt><trkpt lat="45.90351779030151" lon="9.48677766104516"><ele>1244.0</ele><time>2026-04-27T14:07:50Z</time></trkpt><trkpt lat="45.90342190357455" lon="9.486796193719472"><ele>1244.0</ele><time>2026-04-27T14:07:51Z</time></trkpt><trkpt lat="45.903277599244596" lon="9.486853222628422"><ele>1244.0</ele><time>2026-04-27T14:07:53Z</time></trkpt><trkpt lat="45.90321170195568" lon="9.486878534512323"><ele>1244.0</ele><time>2026-04-27T14:07:54Z</time></trkpt><trkpt lat="45.90310130036837" lon="9.486995900548283"><ele>1244.0</ele><time>2026-04-27T14:07:56Z</time></trkpt><trkpt lat="45.90306917824712" lon="9.487074813085542"><ele>1244.0</ele><time>2026-04-27T14:07:57Z</time></trkpt><trkpt lat="45.90306843425566" lon="9.487293722567134"><ele>1241.75</ele><time>2026-04-27T14:07:59Z</time></trkpt><trkpt lat="45.90301709240899" lon="9.487456015600838"><ele>1239.5</ele><time>2026-04-27T14:08:01Z</time></trkpt><trkpt lat="45.90286356967818" lon="9.487521506188372"><ele>1237.25</ele><time>2026-04-27T14:08:03Z</time></trkpt><trkpt lat="45.902768478231124" lon="9.487609012582759"><ele>1235.0</ele><time>2026-04-27T14:08:04Z</time></trkpt><trkpt lat="45.90270162980317" lon="9.487660155966127"><ele>1235.0</ele><time>2026-04-27T14:08:05Z</time></trkpt><trkpt lat="45.90264681750716" lon="9.48772366766978"><ele>1235.0</ele><time>2026-04-27T14:08:06Z</time></trkpt><trkpt lat="45.90259861698491" lon="9.487824003623617"><ele>1235.0</ele><time>2026-04-27T14:08:07Z</time></trkpt><trkpt lat="45.902530969121024" lon="9.487926312461314"><ele>1235.0</ele><time>2026-04-27T14:08:08Z</time></trkpt><trkpt lat="45.90249096317328" lon="9.488034579169506"><ele>1235.0</ele><time>2026-04-27T14:08:09Z</time></trkpt><trkpt lat="45.90248539600324" lon="9.488234639033502"><ele>1234.75</ele><time>2026-04-27T14:08:11Z</time></trkpt><trkpt lat="45.90247227098665" lon="9.488391493161442"><ele>1234.5</ele><time>2026-04-27T14:08:12Z</time></trkpt><trkpt lat="45.9024469074105" lon="9.488559756934622"><ele>1234.25</ele><time>2026-04-27T14:08:13Z</time></trkpt><trkpt lat="45.902426650943596" lon="9.488747983345114"><ele>1234.0</ele><time>2026-04-27T14:08:14Z</time></trkpt><trkpt lat="45.90241721861344" lon="9.488946275920084"><ele>1233.75</ele><time>2026-04-27T14:08:15Z</time></trkpt><trkpt lat="45.902417600291294" lon="9.489144445579578"><ele>1233.5</ele><time>2026-04-27T14:08:16Z</time></trkpt><trkpt lat="45.90241803278187" lon="9.489342623285744"><ele>1233.25</ele><time>2026-04-27T14:08:17Z</time></trkpt><trkpt lat="45.902410747078996" lon="9.489529769825515"><ele>1233.0</ele><time>2026-04-27T14:08:18Z</time></trkpt><trkpt lat="45.90239218042222" lon="9.489720642654174"><ele>1234.0</ele><time>2026-04-27T14:08:19Z</time></trkpt><trkpt lat="45.90238340116085" lon="9.489892162879798"><ele>1235.0</ele><time>2026-04-27T14:08:20Z</time></trkpt><trkpt lat="45.90237824131432" lon="9.490069430121197"><ele>1236.0</ele><time>2026-04-27T14:08:21Z</time></trkpt><trkpt lat="45.902382389437946" lon="9.490276887196831"><ele>1237.0</ele><time>2026-04-27T14:08:22Z</time></trkpt><trkpt lat="45.902407809268446" lon="9.490472864119127"><ele>1237.0</ele><time>2026-04-27T14:08:23Z</time></trkpt><trkpt lat="45.902422932462144" lon="9.490658220838336"><ele>1237.0</ele><time>2026-04-27T14:08:24Z</time></trkpt><trkpt lat="45.90242271071676" lon="9.490812599347047"><ele>1237.0</ele><time>2026-04-27T14:08:25Z</time></trkpt><trkpt lat="45.90242022573591" lon="9.490993739734757"><ele>1237.0</ele><time>2026-04-27T14:08:26Z</time></trkpt><trkpt lat="45.90241607780056" lon="9.49116670532782"><ele>1237.0</ele><time>2026-04-27T14:08:27Z</time></trkpt><trkpt lat="45.90241600651344" lon="9.491319122855176"><ele>1237.0</ele><time>2026-04-27T14:08:28Z</time></trkpt><trkpt lat="45.90240785319115" lon="9.491442996197947"><ele>1237.0</ele><time>2026-04-27T14:08:29Z</time></trkpt><trkpt lat="45.9024311838055" lon="9.4915585651251"><ele>1237.0</ele><time>2026-04-27T14:08:30Z</time></trkpt><trkpt lat="45.90246596654279" lon="9.491670099839737"><ele>1237.0</ele><time>2026-04-27T14:08:31Z</time></trkpt><trkpt lat="45.90248297432282" lon="9.49181537296245"><ele>1237.0</ele><time>2026-04-27T14:08:33Z</time></trkpt><trkpt lat="45.90248744941733" lon="9.4919484635433"><ele>1237.0</ele><time>2026-04-27T14:08:35Z</time></trkpt><trkpt lat="45.902495896708224" lon="9.492057457321277"><ele>1237.0</ele><time>2026-04-27T14:08:37Z</time></trkpt><trkpt lat="45.902501204731664" lon="9.492156962559104"><ele>1237.0</ele><time>2026-04-27T14:08:41Z</time></trkpt><trkpt lat="45.90263108041981" lon="9.491923093659873"><ele>1237.0</ele><time>2026-04-27T14:08:46Z</time></trkpt><trkpt lat="45.902688896464646" lon="9.491820960852348"><ele>1232.6</ele><time>2026-04-27T14:08:47Z</time></trkpt><trkpt lat="45.90273597078051" lon="9.491734769003003"><ele>1228.2</ele><time>2026-04-27T14:08:48Z</time></trkpt><trkpt lat="45.90276769763972" lon="9.491615781606498"><ele>1223.8</ele><time>2026-04-27T14:08:49Z</time></trkpt><trkpt lat="45.90281352912589" lon="9.491425103070977"><ele>1219.4</ele><time>2026-04-27T14:08:51Z</time></trkpt><trkpt lat="45.902810503031944" lon="9.491293671870032"><ele>1215.0</ele><time>2026-04-27T14:08:52Z</time></trkpt><trkpt lat="45.90280726253759" lon="9.491170162405016"><ele>1215.0</ele><time>2026-04-27T14:08:53Z</time></trkpt><trkpt lat="45.90282106823101" lon="9.491072831277362"><ele>1215.0</ele><time>2026-04-27T14:08:54Z</time></trkpt><trkpt lat="45.90284524887452" lon="9.490964956963182"><ele>1215.0</ele><time>2026-04-27T14:08:55Z</time></trkpt><trkpt lat="45.902862146651664" lon="9.490852427481437"><ele>1215.0</ele><time>2026-04-27T14:08:56Z</time></trkpt><trkpt lat="45.9028582497218" lon="9.490727154590855"><ele>1215.0</ele><time>2026-04-27T14:08:57Z</time></trkpt><trkpt lat="45.90284595919893" lon="9.490478022082652"><ele>1214.4</ele><time>2026-04-27T14:08:59Z</time></trkpt><trkpt lat="45.90282150084263" lon="9.490331700601566"><ele>1213.8</ele><time>2026-04-27T14:09:00Z</time></trkpt><trkpt lat="45.90279801849436" lon="9.490194313421002"><ele>1213.2</ele><time>2026-04-27T14:09:01Z</time></trkpt><trkpt lat="45.90278383904664" lon="9.490061733862145"><ele>1212.6</ele><time>2026-04-27T14:09:02Z</time></trkpt><trkpt lat="45.90276594607058" lon="9.489953378614013"><ele>1212.0</ele><time>2026-04-27T14:09:03Z</time></trkpt><trkpt lat="45.902748830760416" lon="9.489822671708955"><ele>1212.0</ele><time>2026-04-27T14:09:04Z</time></trkpt><trkpt lat="45.90273587075827" lon="9.489681741268715"><ele>1212.0</ele><time>2026-04-27T14:09:05Z</time></trkpt><trkpt lat="45.902722684369806" lon="9.489543568412053"><ele>1212.0</ele><time>2026-04-27T14:09:06Z</time></trkpt><trkpt lat="45.902730152069594" lon="9.489443376938299"><ele>1212.0</ele><time>2026-04-27T14:09:07Z</time></trkpt><trkpt lat="45.90275461997079" lon="9.489323019228591"><ele>1212.0</ele><time>2026-04-27T14:09:08Z</time></trkpt><trkpt lat="45.90278818355533" lon="9.489213401200896"><ele>1212.0</ele><time>2026-04-27T14:09:09Z</time></trkpt><trkpt lat="45.90284927684529" lon="9.489114272691106"><ele>1211.2</ele><time>2026-04-27T14:09:09.999Z</time></trkpt><trkpt lat="45.90292142047356" lon="9.489016810551513"><ele>1210.4</ele><time>2026-04-27T14:09:10.999Z</time></trkpt><trkpt lat="45.90300444223437" lon="9.48890968640384"><ele>1209.6</ele><time>2026-04-27T14:09:11.999Z</time></trkpt><trkpt lat="45.903085882839" lon="9.488828681507853"><ele>1208.8</ele><time>2026-04-27T14:09:12.999Z</time></trkpt><trkpt lat="45.90315696335323" lon="9.48876326289007"><ele>1208.0</ele><time>2026-04-27T14:09:13.999Z</time></trkpt><trkpt lat="45.903234347428196" lon="9.488690140994597"><ele>1208.4</ele><time>2026-04-27T14:09:14.999Z</time></trkpt><trkpt lat="45.90330802085438" lon="9.488626994009572"><ele>1208.8</ele><time>2026-04-27T14:09:16Z</time></trkpt><trkpt lat="45.90337549053287" lon="9.488565143470089"><ele>1209.2</ele><time>2026-04-27T14:09:17Z</time></trkpt><trkpt lat="45.9034856894853" lon="9.488461349082712"><ele>1209.6</ele><time>2026-04-27T14:09:19Z</time></trkpt><trkpt lat="45.90355714880489" lon="9.488375894789275"><ele>1210.0</ele><time>2026-04-27T14:09:21Z</time></trkpt><trkpt lat="45.90363503530311" lon="9.488312859166362"><ele>1210.0</ele><time>2026-04-27T14:09:23Z</time></trkpt><trkpt lat="45.90375169127146" lon="9.488279027693139"><ele>1210.0</ele><time>2026-04-27T14:09:25Z</time></trkpt><trkpt lat="45.90381995936379" lon="9.48828899515264"><ele>1210.0</ele><time>2026-04-27T14:09:26Z</time></trkpt><trkpt lat="45.90394703892435" lon="9.488337328358162"><ele>1210.0</ele><time>2026-04-27T14:09:28Z</time></trkpt><trkpt lat="45.904041610066535" lon="9.488383372614292"><ele>1210.0</ele><time>2026-04-27T14:09:30Z</time></trkpt><trkpt lat="45.90414180358393" lon="9.488370355430911"><ele>1210.0</ele><time>2026-04-27T14:09:32Z</time></trkpt><trkpt lat="45.90420621795235" lon="9.48835651222684"><ele>1210.0</ele><time>2026-04-27T14:09:33Z</time></trkpt><trkpt lat="45.9043261967967" lon="9.48832502228868"><ele>1210.0</ele><time>2026-04-27T14:09:35Z</time></trkpt><trkpt lat="45.904408686787704" lon="9.488307142996984"><ele>1210.0</ele><time>2026-04-27T14:09:37Z</time></trkpt><trkpt lat="45.90447752535734" lon="9.488316139305704"><ele>1210.0</ele><time>2026-04-27T14:09:38Z</time></trkpt><trkpt lat="45.90455567132793" lon="9.48831300548615"><ele>1210.0</ele><time>2026-04-27T14:09:39Z</time></trkpt><trkpt lat="45.904644738894156" lon="9.48831073141133"><ele>1206.6</ele><time>2026-04-27T14:09:41Z</time></trkpt><trkpt lat="45.90473959988665" lon="9.488316306540966"><ele>1203.2</ele><time>2026-04-27T14:09:43Z</time></trkpt><trkpt lat="45.90483393012967" lon="9.488311343447561"><ele>1199.8</ele><time>2026-04-27T14:09:45Z</time></trkpt><trkpt lat="45.90490639395024" lon="9.488202337389453"><ele>1196.4</ele><time>2026-04-27T14:09:47Z</time></trkpt><trkpt lat="45.90494850585645" lon="9.488046602265465"><ele>1193.0</ele><time>2026-04-27T14:09:49Z</time></trkpt><trkpt lat="45.9050035282318" lon="9.48797755191112"><ele>1190.7142857142856</ele><time>2026-04-27T14:09:50Z</time></trkpt><trkpt lat="45.90504473764323" lon="9.487902923893769"><ele>1188.4285714285713</ele><time>2026-04-27T14:09:51Z</time></trkpt><trkpt lat="45.90508609794755" lon="9.487821081824"><ele>1186.142857142857</ele><time>2026-04-27T14:09:52Z</time></trkpt><trkpt lat="45.9051362829215" lon="9.48775170254095"><ele>1183.8571428571427</ele><time>2026-04-27T14:09:53Z</time></trkpt><trkpt lat="45.905198367497135" lon="9.487678202699744"><ele>1181.5714285714284</ele><time>2026-04-27T14:09:54Z</time></trkpt><trkpt lat="45.90526373111334" lon="9.48762413893764"><ele>1179.2857142857142</ele><time>2026-04-27T14:09:55Z</time></trkpt><trkpt lat="45.905337410154225" lon="9.487600807440195"><ele>1177.0</ele><time>2026-04-27T14:09:56Z</time></trkpt><trkpt lat="45.90540915876169" lon="9.487622302668573"><ele>1177.0</ele><time>2026-04-27T14:09:58Z</time></trkpt><trkpt lat="45.90549540267824" lon="9.48757031362973"><ele>1177.0</ele><time>2026-04-27T14:10:00Z</time></trkpt><trkpt lat="45.90557797531556" lon="9.487448846276626"><ele>1177.0</ele><time>2026-04-27T14:10:02Z</time></trkpt><trkpt lat="45.90562725276908" lon="9.487363269455896"><ele>1177.0</ele><time>2026-04-27T14:10:03Z</time></trkpt><trkpt lat="45.905675148418645" lon="9.48726073950382"><ele>1177.0</ele><time>2026-04-27T14:10:05Z</time></trkpt><trkpt lat="45.905749698772425" lon="9.487209848713116"><ele>1177.0</ele><time>2026-04-27T14:10:07Z</time></trkpt><trkpt lat="45.905862093677136" lon="9.487275047556546"><ele>1177.0</ele><time>2026-04-27T14:10:09Z</time></trkpt><trkpt lat="45.90592325199901" lon="9.48732071369464"><ele>1177.0</ele><time>2026-04-27T14:10:10Z</time></trkpt><trkpt lat="45.9060018887413" lon="9.487328079948771"><ele>1177.0</ele><time>2026-04-27T14:10:14Z</time></trkpt><trkpt lat="45.90605157222902" lon="9.487265228825875"><ele>1177.0</ele><time>2026-04-27T14:10:16Z</time></trkpt><trkpt lat="45.90612626055505" lon="9.487146687287606"><ele>1177.0</ele><time>2026-04-27T14:10:18Z</time></trkpt><trkpt lat="45.90618928701986" lon="9.487083696692892"><ele>1172.8</ele><time>2026-04-27T14:10:19Z</time></trkpt><trkpt lat="45.906235155537495" lon="9.486961615841734"><ele>1168.6</ele><time>2026-04-27T14:10:20Z</time></trkpt><trkpt lat="45.90625919895003" lon="9.48687311619953"><ele>1164.3999999999999</ele><time>2026-04-27T14:10:21Z</time></trkpt><trkpt lat="45.9063105589753" lon="9.48669642399257"><ele>1160.2</ele><time>2026-04-27T14:10:23Z</time></trkpt><trkpt lat="45.906313505782784" lon="9.486540874026192"><ele>1156.0</ele><time>2026-04-27T14:10:25Z</time></trkpt><trkpt lat="45.90631853324371" lon="9.486435290147153"><ele>1156.0</ele><time>2026-04-27T14:10:27Z</time></trkpt><trkpt lat="45.90639067717193" lon="9.486412911906982"><ele>1156.0</ele><time>2026-04-27T14:10:32Z</time></trkpt><trkpt lat="45.906393337320694" lon="9.486563048071243"><ele>1156.0</ele><time>2026-04-27T14:10:35Z</time></trkpt><trkpt lat="45.90638723584404" lon="9.486655458358433"><ele>1156.0</ele><time>2026-04-27T14:10:36Z</time></trkpt><trkpt lat="45.90640212588554" lon="9.486771821713443"><ele>1156.0</ele><time>2026-04-27T14:10:38Z</time></trkpt><trkpt lat="45.906465459769485" lon="9.486725798951891"><ele>1156.0</ele><time>2026-04-27T14:10:41Z</time></trkpt><trkpt lat="45.90650467782727" lon="9.486591011456252"><ele>1156.0</ele><time>2026-04-27T14:10:43Z</time></trkpt><trkpt lat="45.90654075585299" lon="9.486484602170133"><ele>1156.0</ele><time>2026-04-27T14:10:44Z</time></trkpt><trkpt lat="45.90658969457415" lon="9.486387894618574"><ele>1156.0</ele><time>2026-04-27T14:10:45Z</time></trkpt><trkpt lat="45.90666119038271" lon="9.486327177693113"><ele>1156.0</ele><time>2026-04-27T14:10:46Z</time></trkpt><trkpt lat="45.90675775228857" lon="9.486240426956202"><ele>1156.0</ele><time>2026-04-27T14:10:48Z</time></trkpt><trkpt lat="45.906822943977836" lon="9.486203540858847"><ele>1156.0</ele><time>2026-04-27T14:10:50Z</time></trkpt><trkpt lat="45.90691723722885" lon="9.486218103726747"><ele>1156.0</ele><time>2026-04-27T14:10:53Z</time></trkpt><trkpt lat="45.906975953945356" lon="9.486251433366746"><ele>1156.0</ele><time>2026-04-27T14:10:57Z</time></trkpt><trkpt lat="45.906919584435066" lon="9.486298502989643"><ele>1156.0</ele><time>2026-04-27T14:10:59Z</time></trkpt><trkpt lat="45.90684484078451" lon="9.48638094754328"><ele>1156.0</ele><time>2026-04-27T14:11:00Z</time></trkpt><trkpt lat="45.90669307249763" lon="9.486576864277055"><ele>1156.0</ele><time>2026-04-27T14:11:01Z</time></trkpt><trkpt lat="45.906641923280496" lon="9.486679301462239"><ele>1156.0</ele><time>2026-04-27T14:11:02Z</time></trkpt><trkpt lat="45.90659043437625" lon="9.486818061574098"><ele>1156.0</ele><time>2026-04-27T14:11:03Z</time></trkpt><trkpt lat="45.90655155727393" lon="9.486925420744672"><ele>1156.0</ele><time>2026-04-27T14:11:04Z</time></trkpt><trkpt lat="45.90652206080702" lon="9.487020753872972"><ele>1156.0</ele><time>2026-04-27T14:11:05Z</time></trkpt><trkpt lat="45.9065053734716" lon="9.487109255782208"><ele>1156.0</ele><time>2026-04-27T14:11:05.999Z</time></trkpt><trkpt lat="45.9065050594375" lon="9.487202609076503"><ele>1156.0</ele><time>2026-04-27T14:11:07.999Z</time></trkpt><trkpt lat="45.90651792364157" lon="9.487363020964535"><ele>1151.6</ele><time>2026-04-27T14:11:09.999Z</time></trkpt><trkpt lat="45.90651918123754" lon="9.48749055047772"><ele>1147.1999999999998</ele><time>2026-04-27T14:11:11.999Z</time></trkpt><trkpt lat="45.90647124362166" lon="9.487558496086177"><ele>1142.8000000000002</ele><time>2026-04-27T14:11:13.999Z</time></trkpt><trkpt lat="45.906607790844326" lon="9.48756303699907"><ele>1138.4</ele><time>2026-04-27T14:11:18.999Z</time></trkpt><trkpt lat="45.90663907325582" lon="9.487454790838308"><ele>1134.0</ele><time>2026-04-27T14:11:19.999Z</time></trkpt><trkpt lat="45.906682876244425" lon="9.487366187081754"><ele>1134.0</ele><time>2026-04-27T14:11:20.999Z</time></trkpt><trkpt lat="45.9067183196157" lon="9.487263651438006"><ele>1134.0</ele><time>2026-04-27T14:11:22Z</time></trkpt><trkpt lat="45.90674480946655" lon="9.487161561354602"><ele>1134.0</ele><time>2026-04-27T14:11:23Z</time></trkpt><trkpt lat="45.90678294532616" lon="9.48707697906955"><ele>1134.0</ele><time>2026-04-27T14:11:24Z</time></trkpt><trkpt lat="45.90680520185969" lon="9.486980081573897"><ele>1134.0</ele><time>2026-04-27T14:11:26Z</time></trkpt><trkpt lat="45.90684879999125" lon="9.48691266061853"><ele>1134.0</ele><time>2026-04-27T14:11:28Z</time></trkpt><trkpt lat="45.90691441230506" lon="9.486917972612757"><ele>1134.0</ele><time>2026-04-27T14:11:31Z</time></trkpt><trkpt lat="45.90689259612437" lon="9.487038110935506"><ele>1129.8333333333333</ele><time>2026-04-27T14:11:36Z</time></trkpt><trkpt lat="45.90688831009396" lon="9.487139383230815"><ele>1125.6666666666667</ele><time>2026-04-27T14:11:38Z</time></trkpt><trkpt lat="45.906854449896294" lon="9.487245916785156"><ele>1121.5</ele><time>2026-04-27T14:11:40Z</time></trkpt><trkpt lat="45.90678743339921" lon="9.487322818809089"><ele>1117.3333333333335</ele><time>2026-04-27T14:11:42Z</time></trkpt><trkpt lat="45.90687628710772" lon="9.487366322727452"><ele>1113.1666666666667</ele><time>2026-04-27T14:11:45Z</time></trkpt><trkpt lat="45.90696598099594" lon="9.487299095883477"><ele>1109.0</ele><time>2026-04-27T14:11:47Z</time></trkpt><trkpt lat="45.90704478505455" lon="9.487228681321803"><ele>1109.0</ele><time>2026-04-27T14:11:49Z</time></trkpt><trkpt lat="45.90706458715613" lon="9.487370106387738"><ele>1109.0</ele><time>2026-04-27T14:11:53Z</time></trkpt><trkpt lat="45.90699653079038" lon="9.487593251629136"><ele>1109.0</ele><time>2026-04-27T14:11:55Z</time></trkpt><trkpt lat="45.906967430996914" lon="9.487681926123946"><ele>1109.0</ele><time>2026-04-27T14:11:56Z</time></trkpt><trkpt lat="45.90692431768223" lon="9.487747918272287"><ele>1109.0</ele><time>2026-04-27T14:11:57Z</time></trkpt><trkpt lat="45.90688126935516" lon="9.487814724809361"><ele>1109.0</ele><time>2026-04-27T14:11:58Z</time></trkpt><trkpt lat="45.90684902786555" lon="9.487943175164807"><ele>1109.0</ele><time>2026-04-27T14:12:00Z</time></trkpt><trkpt lat="45.906910551679346" lon="9.488054548448863"><ele>1109.0</ele><time>2026-04-27T14:12:03Z</time></trkpt><trkpt lat="45.90700417635513" lon="9.488038780016531"><ele>1109.0</ele><time>2026-04-27T14:12:06Z</time></trkpt><trkpt lat="45.90708689287987" lon="9.487970017359748"><ele>1109.0</ele><time>2026-04-27T14:12:08Z</time></trkpt><trkpt lat="45.90714673666088" lon="9.487891422966277"><ele>1109.0</ele><time>2026-04-27T14:12:09Z</time></trkpt><trkpt lat="45.907251173342175" lon="9.487801623620545"><ele>1109.0</ele><time>2026-04-27T14:12:11Z</time></trkpt><trkpt lat="45.907369443991826" lon="9.487643537146978"><ele>1109.0</ele><time>2026-04-27T14:12:13Z</time></trkpt><trkpt lat="45.9074144406477" lon="9.4875077586293"><ele>1109.0</ele><time>2026-04-27T14:12:14Z</time></trkpt><trkpt lat="45.90749613507869" lon="9.48740967626919"><ele>1109.0</ele><time>2026-04-27T14:12:15Z</time></trkpt><trkpt lat="45.907547125403724" lon="9.487343703036002"><ele>1109.0</ele><time>2026-04-27T14:12:16Z</time></trkpt><trkpt lat="45.90764568417474" lon="9.487246481979717"><ele>1109.0</ele><time>2026-04-27T14:12:18Z</time></trkpt><trkpt lat="45.90769983863522" lon="9.487189884122857"><ele>1109.0</ele><time>2026-04-27T14:12:19Z</time></trkpt><trkpt lat="45.90778292736057" lon="9.487162618690022"><ele>1109.0</ele><time>2026-04-27T14:12:20Z</time></trkpt><trkpt lat="45.90787876989021" lon="9.487151163173579"><ele>1109.0</ele><time>2026-04-27T14:12:22Z</time></trkpt><trkpt lat="45.90798337642311" lon="9.487118859469486"><ele>1110.1666666666667</ele><time>2026-04-27T14:12:24Z</time></trkpt><trkpt lat="45.90807621530845" lon="9.487087984749857"><ele>1111.3333333333335</ele><time>2026-04-27T14:12:26Z</time></trkpt><trkpt lat="45.908174046645456" lon="9.487043534982169"><ele>1112.5</ele><time>2026-04-27T14:12:28Z</time></trkpt><trkpt lat="45.908241730704795" lon="9.487021185232672"><ele>1113.6666666666667</ele><time>2026-04-27T14:12:30Z</time></trkpt><trkpt lat="45.90817894638263" lon="9.48709321402339"><ele>1114.8333333333333</ele><time>2026-04-27T14:12:34Z</time></trkpt><trkpt lat="45.908120243726145" lon="9.48714019287517"><ele>1116.0</ele><time>2026-04-27T14:12:35Z</time></trkpt><trkpt lat="45.90802616013549" lon="9.487194005716674"><ele>1111.6</ele><time>2026-04-27T14:12:37Z</time></trkpt><trkpt lat="45.90795108043322" lon="9.487263247813534"><ele>1107.1999999999998</ele><time>2026-04-27T14:12:39Z</time></trkpt><trkpt lat="45.90800369422869" lon="9.487314934007403"><ele>1102.8000000000002</ele><time>2026-04-27T14:12:40Z</time></trkpt><trkpt lat="45.9080915915181" lon="9.487292304234956"><ele>1098.4</ele><time>2026-04-27T14:12:43Z</time></trkpt><trkpt lat="45.908224656097254" lon="9.487338756103311"><ele>1094.0</ele><time>2026-04-27T14:12:44Z</time></trkpt><trkpt lat="45.908331138777136" lon="9.487402650610372"><ele>1091.4</ele><time>2026-04-27T14:12:46Z</time></trkpt><trkpt lat="45.908425934239084" lon="9.487463254051367"><ele>1088.8000000000002</ele><time>2026-04-27T14:12:47Z</time></trkpt><trkpt lat="45.908503698443845" lon="9.487496859045786"><ele>1086.1999999999998</ele><time>2026-04-27T14:12:48Z</time></trkpt><trkpt lat="45.90861920802121" lon="9.487509680089792"><ele>1083.6</ele><time>2026-04-27T14:12:49Z</time></trkpt><trkpt lat="45.9087140065549" lon="9.487503584358985"><ele>1081.0</ele><time>2026-04-27T14:12:50Z</time></trkpt><trkpt lat="45.90878627495124" lon="9.487540102625411"><ele>1081.0</ele><time>2026-04-27T14:12:51Z</time></trkpt><trkpt lat="45.90889259732001" lon="9.487547970451397"><ele>1081.0</ele><time>2026-04-27T14:12:52Z</time></trkpt><trkpt lat="45.90897394835636" lon="9.487479754302338"><ele>1081.0</ele><time>2026-04-27T14:12:54Z</time></trkpt><trkpt lat="45.90908575085806" lon="9.487421363832281"><ele>1081.0</ele><time>2026-04-27T14:12:56Z</time></trkpt><trkpt lat="45.909155220742264" lon="9.487397890421624"><ele>1081.0</ele><time>2026-04-27T14:12:57Z</time></trkpt><trkpt lat="45.909256454621186" lon="9.487313339480867"><ele>1081.0</ele><time>2026-04-27T14:12:59Z</time></trkpt><trkpt lat="45.90932884394634" lon="9.487370411387024"><ele>1081.0</ele><time>2026-04-27T14:13:02Z</time></trkpt><trkpt lat="45.90927737710662" lon="9.487464053452792"><ele>1081.0</ele><time>2026-04-27T14:13:06.999Z</time></trkpt><trkpt lat="45.90918030112829" lon="9.487579403985805"><ele>1081.0</ele><time>2026-04-27T14:13:08.999Z</time></trkpt><trkpt lat="45.90912159626948" lon="9.48762079325465"><ele>1081.0</ele><time>2026-04-27T14:13:09.999Z</time></trkpt><trkpt lat="45.909022223113666" lon="9.4876732375032"><ele>1081.0</ele><time>2026-04-27T14:13:10.999Z</time></trkpt><trkpt lat="45.90896490255089" lon="9.487732599540307"><ele>1081.0</ele><time>2026-04-27T14:13:11.999Z</time></trkpt><trkpt lat="45.90891529243812" lon="9.48779829280595"><ele>1081.0</ele><time>2026-04-27T14:13:12.999Z</time></trkpt><trkpt lat="45.908829854870255" lon="9.487854115108405"><ele>1081.0</ele><time>2026-04-27T14:13:15.999Z</time></trkpt><trkpt lat="45.90888837774766" lon="9.487996420438657"><ele>1081.0</ele><time>2026-04-27T14:13:17.999Z</time></trkpt><trkpt lat="45.9089506226164" lon="9.488071031134846"><ele>1081.0</ele><time>2026-04-27T14:13:20.999Z</time></trkpt><trkpt lat="45.909036264532475" lon="9.488028239954449"><ele>1077.8</ele><time>2026-04-27T14:13:21.999Z</time></trkpt><trkpt lat="45.90911607965082" lon="9.48810020010963"><ele>1074.6</ele><time>2026-04-27T14:13:23.999Z</time></trkpt><trkpt lat="45.90915165554828" lon="9.488219883030355"><ele>1071.4</ele><time>2026-04-27T14:13:25.999Z</time></trkpt><trkpt lat="45.90928761447162" lon="9.488320686759938"><ele>1068.2</ele><time>2026-04-27T14:13:28Z</time></trkpt><trkpt lat="45.90935525314374" lon="9.488391725723318"><ele>1065.0</ele><time>2026-04-27T14:13:30Z</time></trkpt><trkpt lat="45.90944314330784" lon="9.48841505684634"><ele>1060.2</ele><time>2026-04-27T14:13:31Z</time></trkpt><trkpt lat="45.9095822465929" lon="9.488532363352123"><ele>1055.4</ele><time>2026-04-27T14:13:33Z</time></trkpt><trkpt lat="45.90967573846301" lon="9.488587759116108"><ele>1050.6</ele><time>2026-04-27T14:13:34Z</time></trkpt><trkpt lat="45.909756914062925" lon="9.488643633011078"><ele>1045.8</ele><time>2026-04-27T14:13:35Z</time></trkpt><trkpt lat="45.909836123000446" lon="9.488720023745389"><ele>1041.0</ele><time>2026-04-27T14:13:37Z</time></trkpt><trkpt lat="45.90982483340003" lon="9.488624157171905"><ele>1041.0</ele><time>2026-04-27T14:13:43Z</time></trkpt><trkpt lat="45.90977081376685" lon="9.488567903333527"><ele>1041.0</ele><time>2026-04-27T14:13:44Z</time></trkpt><trkpt lat="45.909721991587766" lon="9.488501819431525"><ele>1041.0</ele><time>2026-04-27T14:13:45Z</time></trkpt><trkpt lat="45.90966472061375" lon="9.48839076978979"><ele>1041.0</ele><time>2026-04-27T14:13:46Z</time></trkpt><trkpt lat="45.90961742077126" lon="9.48830988971334"><ele>1041.0</ele><time>2026-04-27T14:13:47Z</time></trkpt><trkpt lat="45.9095402033643" lon="9.488170220865417"><ele>1041.0</ele><time>2026-04-27T14:13:49Z</time></trkpt><trkpt lat="45.90952882171481" lon="9.488072678679659"><ele>1041.0</ele><time>2026-04-27T14:13:51Z</time></trkpt><trkpt lat="45.90960037914543" lon="9.488164427758063"><ele>1041.0</ele><time>2026-04-27T14:13:54Z</time></trkpt><trkpt lat="45.909699821585264" lon="9.488181935418613"><ele>1041.0</ele><time>2026-04-27T14:13:55Z</time></trkpt><trkpt lat="45.90979072057151" lon="9.488221112679774"><ele>1041.0</ele><time>2026-04-27T14:13:56Z</time></trkpt><trkpt lat="45.91000127591158" lon="9.488135770244462"><ele>1036.2</ele><time>2026-04-27T14:13:57Z</time></trkpt><trkpt lat="45.91011244196628" lon="9.488195439743844"><ele>1031.3999999999999</ele><time>2026-04-27T14:13:58Z</time></trkpt><trkpt lat="45.910218300278615" lon="9.488244804091941"><ele>1026.6</ele><time>2026-04-27T14:13:59Z</time></trkpt><trkpt lat="45.9103132920621" lon="9.488231970042118"><ele>1021.8</ele><time>2026-04-27T14:14:01Z</time></trkpt><trkpt lat="45.910405569676826" lon="9.488187528106378"><ele>1017.0</ele><time>2026-04-27T14:14:02Z</time></trkpt><trkpt lat="45.9104887765552" lon="9.488270310862534"><ele>1017.0</ele><time>2026-04-27T14:14:04Z</time></trkpt><trkpt lat="45.91055290025301" lon="9.488282166933415"><ele>1017.0</ele><time>2026-04-27T14:14:05Z</time></trkpt><trkpt lat="45.910616656011314" lon="9.488266299303545"><ele>1017.0</ele><time>2026-04-27T14:14:06Z</time></trkpt><trkpt lat="45.91075738269741" lon="9.488166492047323"><ele>1017.0</ele><time>2026-04-27T14:14:08Z</time></trkpt><trkpt lat="45.910867817253106" lon="9.488141749839508"><ele>1017.0</ele><time>2026-04-27T14:14:10Z</time></trkpt><trkpt lat="45.910926504217954" lon="9.488008160331402"><ele>1016.1666666666666</ele><time>2026-04-27T14:14:12Z</time></trkpt><trkpt lat="45.91098690539063" lon="9.487936853570488"><ele>1015.3333333333333</ele><time>2026-04-27T14:14:13Z</time></trkpt><trkpt lat="45.91103218589534" lon="9.487865766414389"><ele>1014.5</ele><time>2026-04-27T14:14:14Z</time></trkpt><trkpt lat="45.911089854150084" lon="9.487777087975141"><ele>1013.6666666666666</ele><time>2026-04-27T14:14:16Z</time></trkpt><trkpt lat="45.91113393842826" lon="9.487706487648726"><ele>1012.8333333333333</ele><time>2026-04-27T14:14:17Z</time></trkpt><trkpt lat="45.91121041100781" lon="9.487593989279786"><ele>1012.0</ele><time>2026-04-27T14:14:19Z</time></trkpt><trkpt lat="45.91122241688807" lon="9.487690054169224"><ele>1012.0</ele><time>2026-04-27T14:14:22Z</time></trkpt><trkpt lat="45.91112400587948" lon="9.487791586366663"><ele>1012.0</ele><time>2026-04-27T14:14:26Z</time></trkpt><trkpt lat="45.911043433281044" lon="9.487963317483747"><ele>1012.0</ele><time>2026-04-27T14:14:28Z</time></trkpt><trkpt lat="45.91102307941483" lon="9.488082946621667"><ele>1012.0</ele><time>2026-04-27T14:14:29Z</time></trkpt><trkpt lat="45.9109596408602" lon="9.488200372154717"><ele>1012.8333333333333</ele><time>2026-04-27T14:14:30Z</time></trkpt><trkpt lat="45.91088721073502" lon="9.488291265836592"><ele>1013.6666666666666</ele><time>2026-04-27T14:14:31Z</time></trkpt><trkpt lat="45.91084241164517" lon="9.488398311756097"><ele>1014.5</ele><time>2026-04-27T14:14:32Z</time></trkpt><trkpt lat="45.91080446971996" lon="9.48847283371658"><ele>1015.3333333333333</ele><time>2026-04-27T14:14:33Z</time></trkpt><trkpt lat="45.91082010720132" lon="9.488615129715027"><ele>1016.1666666666666</ele><time>2026-04-27T14:14:35Z</time></trkpt><trkpt lat="45.91089228265024" lon="9.48859994058144"><ele>1017.0</ele><time>2026-04-27T14:14:39Z</time></trkpt><trkpt lat="45.91096644735583" lon="9.488554532641494"><ele>1011.1666666666666</ele><time>2026-04-27T14:14:41Z</time></trkpt><trkpt lat="45.91101922557761" lon="9.488498807368098"><ele>1005.3333333333333</ele><time>2026-04-27T14:14:42Z</time></trkpt><trkpt lat="45.91096179393637" lon="9.488587153934933"><ele>999.5</ele><time>2026-04-27T14:14:52Z</time></trkpt><trkpt lat="45.91099158105559" lon="9.488671353413904"><ele>993.6666666666666</ele><time>2026-04-27T14:14:56Z</time></trkpt><trkpt lat="45.91105242335581" lon="9.488622460799174"><ele>987.8333333333333</ele><time>2026-04-27T14:14:59Z</time></trkpt><trkpt lat="45.9110739600432" lon="9.488445945385937"><ele>982.0</ele><time>2026-04-27T14:15:02Z</time></trkpt><trkpt lat="45.9111409303081" lon="9.488277601678394"><ele>982.0</ele><time>2026-04-27T14:15:03Z</time></trkpt><trkpt lat="45.91126780928433" lon="9.488293114691677"><ele>982.0</ele><time>2026-04-27T14:15:04Z</time></trkpt><trkpt lat="45.91124763955201" lon="9.488189854080716"><ele>982.0</ele><time>2026-04-27T14:15:06Z</time></trkpt><trkpt lat="45.91132995253863" lon="9.488114161553934"><ele>982.0</ele><time>2026-04-27T14:15:07Z</time></trkpt><trkpt lat="45.91139771581868" lon="9.488167138281103"><ele>982.0</ele><time>2026-04-27T14:15:09Z</time></trkpt><trkpt lat="45.91132046445886" lon="9.48816637085259"><ele>982.0</ele><time>2026-04-27T14:15:15.999Z</time></trkpt><trkpt lat="45.911384774652824" lon="9.488281529639718"><ele>982.0</ele><time>2026-04-27T14:15:16.999Z</time></trkpt><trkpt lat="45.91146299928761" lon="9.488322486892141"><ele>982.0</ele><time>2026-04-27T14:15:17.999Z</time></trkpt><trkpt lat="45.91153628810347" lon="9.488275635029781"><ele>982.0</ele><time>2026-04-27T14:15:19.999Z</time></trkpt><trkpt lat="45.91163489511154" lon="9.488259791274508"><ele>982.0</ele><time>2026-04-27T14:15:21.999Z</time></trkpt><trkpt lat="45.9118223970826" lon="9.488122618082114"><ele>982.0</ele><time>2026-04-27T14:15:23.999Z</time></trkpt><trkpt lat="45.91188236316614" lon="9.488066863510886"><ele>982.0</ele><time>2026-04-27T14:15:24.999Z</time></trkpt><trkpt lat="45.911937180818406" lon="9.488012948657495"><ele>982.0</ele><time>2026-04-27T14:15:25.999Z</time></trkpt><trkpt lat="45.91204933085113" lon="9.48796106417946"><ele>982.0</ele><time>2026-04-27T14:15:27.999Z</time></trkpt><trkpt lat="45.91212052596628" lon="9.487945907043171"><ele>982.0</ele><time>2026-04-27T14:15:28.999Z</time></trkpt><trkpt lat="45.912268457077104" lon="9.487906660131733"><ele>982.0</ele><time>2026-04-27T14:15:30.999Z</time></trkpt><trkpt lat="45.91234922496781" lon="9.487840269448942"><ele>982.0</ele><time>2026-04-27T14:15:31.999Z</time></trkpt><trkpt lat="45.91241062076545" lon="9.48774120545376"><ele>982.0</ele><time>2026-04-27T14:15:32.999Z</time></trkpt><trkpt lat="45.91246010630538" lon="9.487669972865296"><ele>982.0</ele><time>2026-04-27T14:15:34Z</time></trkpt><trkpt lat="45.91254617466897" lon="9.487558482889707"><ele>982.0</ele><time>2026-04-27T14:15:36Z</time></trkpt><trkpt lat="45.912666208133054" lon="9.487515108732477"><ele>979.4000000000001</ele><time>2026-04-27T14:15:38Z</time></trkpt><trkpt lat="45.91277019501403" lon="9.487641025885658"><ele>976.8000000000001</ele><time>2026-04-27T14:15:39Z</time></trkpt><trkpt lat="45.91284428952128" lon="9.48760754446393"><ele>974.2</ele><time>2026-04-27T14:15:40Z</time></trkpt><trkpt lat="45.91292927887974" lon="9.487618796459664"><ele>971.6</ele><time>2026-04-27T14:15:41Z</time></trkpt><trkpt lat="45.913008255848304" lon="9.487591449711525"><ele>969.0</ele><time>2026-04-27T14:15:42Z</time></trkpt><trkpt lat="45.91310221828397" lon="9.487554167533734"><ele>969.0</ele><time>2026-04-27T14:15:43Z</time></trkpt><trkpt lat="45.91319396548174" lon="9.487537072400633"><ele>969.0</ele><time>2026-04-27T14:15:44Z</time></trkpt><trkpt lat="45.913306900446095" lon="9.487550596951593"><ele>969.0</ele><time>2026-04-27T14:15:45Z</time></trkpt><trkpt lat="45.91344364288659" lon="9.487571000877383"><ele>969.0</ele><time>2026-04-27T14:15:46Z</time></trkpt><trkpt lat="45.91357384672032" lon="9.487576447531708"><ele>966.6666666666666</ele><time>2026-04-27T14:15:47Z</time></trkpt><trkpt lat="45.91365522497867" lon="9.487634036322657"><ele>964.3333333333333</ele><time>2026-04-27T14:15:48Z</time></trkpt><trkpt lat="45.913738957664876" lon="9.48765098077189"><ele>962.0</ele><time>2026-04-27T14:15:49Z</time></trkpt><trkpt lat="45.913819142951766" lon="9.48765084590214"><ele>959.6666666666666</ele><time>2026-04-27T14:15:50Z</time></trkpt><trkpt lat="45.913886444100214" lon="9.487626663621135"><ele>957.3333333333333</ele><time>2026-04-27T14:15:51Z</time></trkpt><trkpt lat="45.91397802057126" lon="9.487574909015715"><ele>955.0</ele><time>2026-04-27T14:15:52Z</time></trkpt><trkpt lat="45.91410000376334" lon="9.487495325057662"><ele>955.0</ele><time>2026-04-27T14:15:53Z</time></trkpt><trkpt lat="45.91422886241347" lon="9.4874429744839"><ele>955.0</ele><time>2026-04-27T14:15:54Z</time></trkpt><trkpt lat="45.91433446287903" lon="9.487419429000498"><ele>955.0</ele><time>2026-04-27T14:15:55Z</time></trkpt><trkpt lat="45.914429185489354" lon="9.487360155256109"><ele>955.0</ele><time>2026-04-27T14:15:56Z</time></trkpt><trkpt lat="45.91451206488497" lon="9.487308966112886"><ele>955.0</ele><time>2026-04-27T14:15:57Z</time></trkpt><trkpt lat="45.9145722928614" lon="9.487260432776658"><ele>956.1666666666666</ele><time>2026-04-27T14:15:58Z</time></trkpt><trkpt lat="45.914632436813754" lon="9.487208469608097"><ele>957.3333333333333</ele><time>2026-04-27T14:16:00Z</time></trkpt><trkpt lat="45.91473368012841" lon="9.48711727318226"><ele>958.5</ele><time>2026-04-27T14:16:04Z</time></trkpt><trkpt lat="45.91478591789728" lon="9.48706142220013"><ele>959.6666666666667</ele><time>2026-04-27T14:16:05Z</time></trkpt><trkpt lat="45.91484803070251" lon="9.487028581568753"><ele>960.8333333333334</ele><time>2026-04-27T14:16:06Z</time></trkpt><trkpt lat="45.91492981184985" lon="9.486974079917752"><ele>962.0</ele><time>2026-04-27T14:16:07Z</time></trkpt><trkpt lat="45.915006821917544" lon="9.48690145888102"><ele>952.0</ele><time>2026-04-27T14:16:07.999Z</time></trkpt><trkpt lat="45.91512719547933" lon="9.486762327622959"><ele>942.0</ele><time>2026-04-27T14:16:08.999Z</time></trkpt><trkpt lat="45.91521522778199" lon="9.48662191855625"><ele>932.0</ele><time>2026-04-27T14:16:09.999Z</time></trkpt><trkpt lat="45.915295132923355" lon="9.486502989510157"><ele>922.0</ele><time>2026-04-27T14:16:10.999Z</time></trkpt><trkpt lat="45.91539143960782" lon="9.486417464528703"><ele>922.0</ele><time>2026-04-27T14:16:11.999Z</time></trkpt><trkpt lat="45.91547984633642" lon="9.486300334805403"><ele>922.0</ele><time>2026-04-27T14:16:12.999Z</time></trkpt><trkpt lat="45.91554546825915" lon="9.486179358931942"><ele>922.0</ele><time>2026-04-27T14:16:13.999Z</time></trkpt><trkpt lat="45.91559545040831" lon="9.486061453971583"><ele>922.0</ele><time>2026-04-27T14:16:14.999Z</time></trkpt><trkpt lat="45.915630442834924" lon="9.485973111355337"><ele>922.0</ele><time>2026-04-27T14:16:15.999Z</time></trkpt><trkpt lat="45.91568801766073" lon="9.485882953365703"><ele>918.25</ele><time>2026-04-27T14:16:16.999Z</time></trkpt><trkpt lat="45.91574528905217" lon="9.485786715009569"><ele>914.5</ele><time>2026-04-27T14:16:18.999Z</time></trkpt><trkpt lat="45.915827707001654" lon="9.48570791697986"><ele>910.75</ele><time>2026-04-27T14:16:20.999Z</time></trkpt><trkpt lat="45.916002916599695" lon="9.4857515564848"><ele>907.0</ele><time>2026-04-27T14:16:22.999Z</time></trkpt><trkpt lat="45.91608204409863" lon="9.485698950131116"><ele>907.0</ele><time>2026-04-27T14:16:24.999Z</time></trkpt><trkpt lat="45.91619601555865" lon="9.48570557698333"><ele>907.0</ele><time>2026-04-27T14:16:27.999Z</time></trkpt><trkpt lat="45.916286923892564" lon="9.48559940351361"><ele>907.0</ele><time>2026-04-27T14:16:29.999Z</time></trkpt><trkpt lat="45.91632910229317" lon="9.48545030950859"><ele>907.0</ele><time>2026-04-27T14:16:30.999Z</time></trkpt><trkpt lat="45.91640760503701" lon="9.485319893185027"><ele>908.3333333333333</ele><time>2026-04-27T14:16:32.999Z</time></trkpt><trkpt lat="45.91644861326511" lon="9.485208916098388"><ele>909.6666666666666</ele><time>2026-04-27T14:16:33.999Z</time></trkpt><trkpt lat="45.91648220661744" lon="9.485110933842714"><ele>911.0</ele><time>2026-04-27T14:16:34.999Z</time></trkpt><trkpt lat="45.916523652053485" lon="9.485013495810135"><ele>912.3333333333333</ele><time>2026-04-27T14:16:35.999Z</time></trkpt><trkpt lat="45.91657272856228" lon="9.48492565938896"><ele>913.6666666666666</ele><time>2026-04-27T14:16:36.999Z</time></trkpt><trkpt lat="45.91661218220083" lon="9.484772223904548"><ele>915.0</ele><time>2026-04-27T14:16:38.999Z</time></trkpt><trkpt lat="45.91665527387591" lon="9.484602015602201"><ele>916.3333333333334</ele><time>2026-04-27T14:16:40.999Z</time></trkpt><trkpt lat="45.91669593605545" lon="9.484488233182853"><ele>917.6666666666667</ele><time>2026-04-27T14:16:41.999Z</time></trkpt><trkpt lat="45.916752486762554" lon="9.48440334507046"><ele>919.0</ele><time>2026-04-27T14:16:42.999Z</time></trkpt><trkpt lat="45.91677889420698" lon="9.484320684807795"><ele>920.3333333333334</ele><time>2026-04-27T14:16:43.999Z</time></trkpt><trkpt lat="45.91680931057185" lon="9.484229995714633"><ele>921.6666666666667</ele><time>2026-04-27T14:16:44.999Z</time></trkpt><trkpt lat="45.91686266969302" lon="9.484142948405417"><ele>923.0</ele><time>2026-04-27T14:16:45.999Z</time></trkpt><trkpt lat="45.91691232268039" lon="9.484065229232193"><ele>919.2</ele><time>2026-04-27T14:16:46.999Z</time></trkpt><trkpt lat="45.91699870080797" lon="9.48399046562626"><ele>915.4</ele><time>2026-04-27T14:16:48.999Z</time></trkpt><trkpt lat="45.91709472498538" lon="9.483956817972182"><ele>911.6000000000001</ele><time>2026-04-27T14:16:50.999Z</time></trkpt><trkpt lat="45.91719900156104" lon="9.483947519718129"><ele>907.8000000000001</ele><time>2026-04-27T14:16:52.999Z</time></trkpt><trkpt lat="45.91729960263922" lon="9.483900992607987"><ele>904.0</ele><time>2026-04-27T14:16:54.999Z</time></trkpt><trkpt lat="45.91737463556163" lon="9.483879282634211"><ele>904.0</ele><time>2026-04-27T14:16:56.999Z</time></trkpt><trkpt lat="45.91746269454473" lon="9.483863689883792"><ele>904.0</ele><time>2026-04-27T14:16:57.999Z</time></trkpt><trkpt lat="45.917564338828335" lon="9.483863530265305"><ele>904.0</ele><time>2026-04-27T14:16:59.999Z</time></trkpt><trkpt lat="45.91762464487499" lon="9.483897579450558"><ele>904.0</ele><time>2026-04-27T14:17:01.999Z</time></trkpt><trkpt lat="45.91779021896574" lon="9.484270047995954"><ele>901.3333333333333</ele><time>2026-04-27T14:17:08.999Z</time></trkpt><trkpt lat="45.91767705502983" lon="9.483985754307401"><ele>898.6666666666667</ele><time>2026-04-27T14:17:12.999Z</time></trkpt><trkpt lat="45.91784467603288" lon="9.484113868891706"><ele>896.0</ele><time>2026-04-27T14:17:16.999Z</time></trkpt><trkpt lat="45.917797015752484" lon="9.484281344920483"><ele>896.0</ele><time>2026-04-27T14:17:17.999Z</time></trkpt><trkpt lat="45.917713055886686" lon="9.48446204552377"><ele>895.9999999999999</ele><time>2026-04-27T14:17:19.999Z</time></trkpt><trkpt lat="45.917677313367655" lon="9.484550471447292"><ele>895.9999999999999</ele><time>2026-04-27T14:17:20.999Z</time></trkpt><trkpt lat="45.9176483427507" lon="9.48463806467165"><ele>896.0</ele><time>2026-04-27T14:17:21.999Z</time></trkpt><trkpt lat="45.91761835634621" lon="9.484736423178205"><ele>896.0</ele><time>2026-04-27T14:17:23.999Z</time></trkpt><trkpt lat="45.9176896263624" lon="9.484804535868944"><ele>891.5</ele><time>2026-04-27T14:17:26.999Z</time></trkpt><trkpt lat="45.917838851864154" lon="9.484849143194719"><ele>887.0</ele><time>2026-04-27T14:17:28.999Z</time></trkpt><trkpt lat="45.91793623113101" lon="9.484831358627893"><ele>882.5</ele><time>2026-04-27T14:17:29.999Z</time></trkpt><trkpt lat="45.91801685621588" lon="9.484803810926593"><ele>878.0</ele><time>2026-04-27T14:17:30.999Z</time></trkpt><trkpt lat="45.91812948698881" lon="9.484756623085895"><ele>878.0</ele><time>2026-04-27T14:17:32.999Z</time></trkpt><trkpt lat="45.91819232258908" lon="9.484724788352167"><ele>878.0</ele><time>2026-04-27T14:17:36.999Z</time></trkpt></trkseg><trkseg><trkpt lat="45.918187195413246" lon="9.484758897100914"><ele>878.0000000000001</ele><time>2026-04-27T14:29:44Z</time></trkpt><trkpt lat="45.918220089409935" lon="9.484678157380783"><ele>878.0</ele><time>2026-04-27T14:29:49Z</time></trkpt><trkpt lat="45.91827574070521" lon="9.484560982337431"><ele>878.0</ele><time>2026-04-27T14:29:54Z</time></trkpt><trkpt lat="45.91824270566156" lon="9.484643676007721"><ele>878.0</ele><time>2026-04-27T14:30:47Z</time></trkpt><trkpt lat="45.91830950594293" lon="9.484661720822308"><ele>878.0000000000001</ele><time>2026-04-27T14:30:57Z</time></trkpt><trkpt lat="45.91840540393139" lon="9.484598007438278"><ele>878.0</ele><time>2026-04-27T14:30:59Z</time></trkpt><trkpt lat="45.91850772747996" lon="9.484556663401262"><ele>877.5999999999999</ele><time>2026-04-27T14:31:01Z</time></trkpt><trkpt lat="45.91859769612336" lon="9.484536367830348"><ele>877.1999999999999</ele><time>2026-04-27T14:31:03Z</time></trkpt><trkpt lat="45.91865887680079" lon="9.484498937837394"><ele>876.8</ele><time>2026-04-27T14:31:04Z</time></trkpt><trkpt lat="45.91875041581788" lon="9.484452218634472"><ele>876.4</ele><time>2026-04-27T14:31:06Z</time></trkpt><trkpt lat="45.91884152886854" lon="9.484344783295127"><ele>876.0</ele><time>2026-04-27T14:31:08Z</time></trkpt><trkpt lat="45.91891825941366" lon="9.484242765198408"><ele>876.0</ele><time>2026-04-27T14:31:10Z</time></trkpt><trkpt lat="45.91901536503152" lon="9.484360808447382"><ele>875.9999999999999</ele><time>2026-04-27T14:31:12Z</time></trkpt><trkpt lat="45.919098821360784" lon="9.484377694046765"><ele>875.9999999999999</ele><time>2026-04-27T14:31:14Z</time></trkpt><trkpt lat="45.919212357675725" lon="9.484322290037174"><ele>876.0</ele><time>2026-04-27T14:31:16Z</time></trkpt><trkpt lat="45.919266277640865" lon="9.484256600001943"><ele>876.0</ele><time>2026-04-27T14:31:17Z</time></trkpt><trkpt lat="45.919359043948596" lon="9.484177571630616"><ele>876.3333333333334</ele><time>2026-04-27T14:31:18Z</time></trkpt><trkpt lat="45.919386936220135" lon="9.484073050437269"><ele>876.6666666666667</ele><time>2026-04-27T14:31:19Z</time></trkpt><trkpt lat="45.91943343958668" lon="9.483973890307738"><ele>877.0</ele><time>2026-04-27T14:31:20Z</time></trkpt><trkpt lat="45.91948782493765" lon="9.483886560536966"><ele>877.3333333333334</ele><time>2026-04-27T14:31:21Z</time></trkpt><trkpt lat="45.91957840938204" lon="9.48378489554524"><ele>877.6666666666667</ele><time>2026-04-27T14:31:23Z</time></trkpt><trkpt lat="45.919622130537604" lon="9.48368985378194"><ele>878.0</ele><time>2026-04-27T14:31:24Z</time></trkpt><trkpt lat="45.91973278833373" lon="9.48365579046145"><ele>878.0</ele><time>2026-04-27T14:31:26Z</time></trkpt><trkpt lat="45.91980137988119" lon="9.483605842963478"><ele>878.0</ele><time>2026-04-27T14:31:27Z</time></trkpt><trkpt lat="45.91987642974882" lon="9.483569659039311"><ele>878.0</ele><time>2026-04-27T14:31:28Z</time></trkpt><trkpt lat="45.91999691039866" lon="9.483533857713345"><ele>878.0</ele><time>2026-04-27T14:31:30Z</time></trkpt><trkpt lat="45.920120544575504" lon="9.48345641060141"><ele>878.0</ele><time>2026-04-27T14:31:32Z</time></trkpt><trkpt lat="45.92018568114584" lon="9.48347252605753"><ele>873.2</ele><time>2026-04-27T14:31:33Z</time></trkpt><trkpt lat="45.920293140725995" lon="9.483470411891366"><ele>868.4</ele><time>2026-04-27T14:31:35Z</time></trkpt><trkpt lat="45.92037303231061" lon="9.483416190182949"><ele>863.6000000000001</ele><time>2026-04-27T14:31:36Z</time></trkpt><trkpt lat="45.920445044718996" lon="9.483359583030252"><ele>858.8000000000001</ele><time>2026-04-27T14:31:37Z</time></trkpt><trkpt lat="45.920511458758035" lon="9.48327602031237"><ele>854.0</ele><time>2026-04-27T14:31:38Z</time></trkpt><trkpt lat="45.920603598868425" lon="9.483126514029873"><ele>854.0</ele><time>2026-04-27T14:31:39Z</time></trkpt><trkpt lat="45.9206826107661" lon="9.483006117298714"><ele>854.0</ele><time>2026-04-27T14:31:40Z</time></trkpt><trkpt lat="45.92077304427144" lon="9.4828844301585"><ele>854.0</ele><time>2026-04-27T14:31:41Z</time></trkpt><trkpt lat="45.92089860261375" lon="9.482761969531293"><ele>854.0</ele><time>2026-04-27T14:31:42Z</time></trkpt><trkpt lat="45.92101479744347" lon="9.482657841994557"><ele>856.0</ele><time>2026-04-27T14:31:43Z</time></trkpt><trkpt lat="45.921112114126124" lon="9.482562219042824"><ele>858.0</ele><time>2026-04-27T14:31:44Z</time></trkpt><trkpt lat="45.92121136589095" lon="9.48245689317786"><ele>860.0</ele><time>2026-04-27T14:31:45Z</time></trkpt><trkpt lat="45.921296980213555" lon="9.48236579800158"><ele>862.0</ele><time>2026-04-27T14:31:46Z</time></trkpt><trkpt lat="45.921375954162755" lon="9.4822396181251"><ele>862.0</ele><time>2026-04-27T14:31:47Z</time></trkpt><trkpt lat="45.921473225957314" lon="9.482173845681679"><ele>862.0</ele><time>2026-04-27T14:31:48Z</time></trkpt><trkpt lat="45.92155479053771" lon="9.482102195195461"><ele>862.0</ele><time>2026-04-27T14:31:49Z</time></trkpt><trkpt lat="45.92165288350596" lon="9.482076192396256"><ele>862.0</ele><time>2026-04-27T14:31:50Z</time></trkpt><trkpt lat="45.92173451919782" lon="9.482020521426458"><ele>862.0</ele><time>2026-04-27T14:31:51Z</time></trkpt><trkpt lat="45.92181780584311" lon="9.481959102409613"><ele>858.6</ele><time>2026-04-27T14:31:52Z</time></trkpt><trkpt lat="45.92189326634319" lon="9.481903571146534"><ele>855.2</ele><time>2026-04-27T14:31:53Z</time></trkpt><trkpt lat="45.92198055982673" lon="9.48178612003304"><ele>851.8</ele><time>2026-04-27T14:31:55Z</time></trkpt><trkpt lat="45.922005056122266" lon="9.481687565930105"><ele>848.4</ele><time>2026-04-27T14:31:56Z</time></trkpt><trkpt lat="45.92202078586032" lon="9.481543874392989"><ele>845.0</ele><time>2026-04-27T14:31:58Z</time></trkpt><trkpt lat="45.922100626624925" lon="9.481424317686393"><ele>845.0000000000001</ele><time>2026-04-27T14:32:00Z</time></trkpt><trkpt lat="45.92215498426107" lon="9.481333088261064"><ele>845.0</ele><time>2026-04-27T14:32:01Z</time></trkpt><trkpt lat="45.92220405307629" lon="9.481270236811094"><ele>845.0</ele><time>2026-04-27T14:32:02Z</time></trkpt><trkpt lat="45.92224468273616" lon="9.481156234497057"><ele>845.0</ele><time>2026-04-27T14:32:03Z</time></trkpt><trkpt lat="45.92228802782537" lon="9.481046532117505"><ele>845.0000000000001</ele><time>2026-04-27T14:32:04Z</time></trkpt><trkpt lat="45.92233318320884" lon="9.480927884624082"><ele>845.0</ele><time>2026-04-27T14:32:05Z</time></trkpt><trkpt lat="45.92237746740432" lon="9.480811526315284"><ele>846.8333333333334</ele><time>2026-04-27T14:32:06Z</time></trkpt><trkpt lat="45.922414997775974" lon="9.480699116376199"><ele>848.6666666666667</ele><time>2026-04-27T14:32:07Z</time></trkpt><trkpt lat="45.922469096468774" lon="9.480614725865921"><ele>850.5</ele><time>2026-04-27T14:32:09Z</time></trkpt><trkpt lat="45.92253185633346" lon="9.480581410753967"><ele>852.3333333333333</ele><time>2026-04-27T14:32:10Z</time></trkpt><trkpt lat="45.922611993624756" lon="9.480565338253975"><ele>854.1666666666666</ele><time>2026-04-27T14:32:11Z</time></trkpt><trkpt lat="45.922712069742374" lon="9.480539251106137"><ele>856.0</ele><time>2026-04-27T14:32:12Z</time></trkpt><trkpt lat="45.92276287175339" lon="9.480474649815578"><ele>852.4</ele><time>2026-04-27T14:32:13Z</time></trkpt><trkpt lat="45.92279191513377" lon="9.480357737406383"><ele>848.8</ele><time>2026-04-27T14:32:14Z</time></trkpt><trkpt lat="45.922838224608746" lon="9.480206261674821"><ele>845.1999999999999</ele><time>2026-04-27T14:32:15Z</time></trkpt><trkpt lat="45.922887465929335" lon="9.480129309158837"><ele>841.5999999999999</ele><time>2026-04-27T14:32:16Z</time></trkpt><trkpt lat="45.922955733032474" lon="9.480013613564417"><ele>838.0</ele><time>2026-04-27T14:32:18Z</time></trkpt><trkpt lat="45.9230756278361" lon="9.479937421576816"><ele>837.9999999999999</ele><time>2026-04-27T14:32:20Z</time></trkpt><trkpt lat="45.92317893102646" lon="9.47983308258243"><ele>838.0</ele><time>2026-04-27T14:32:22Z</time></trkpt><trkpt lat="45.923210280023945" lon="9.47974997741583"><ele>838.0</ele><time>2026-04-27T14:32:23Z</time></trkpt><trkpt lat="45.92322911812319" lon="9.479654781405138"><ele>838.0</ele><time>2026-04-27T14:32:24Z</time></trkpt><trkpt lat="45.923250300475004" lon="9.479539802627594"><ele>837.9999999999999</ele><time>2026-04-27T14:32:25Z</time></trkpt><trkpt lat="45.92328217709721" lon="9.47942780737084"><ele>838.0</ele><time>2026-04-27T14:32:26Z</time></trkpt><trkpt lat="45.92332284954063" lon="9.479337735114177"><ele>839.5999999999999</ele><time>2026-04-27T14:32:27Z</time></trkpt><trkpt lat="45.9233421600045" lon="9.479229656788474"><ele>841.1999999999999</ele><time>2026-04-27T14:32:28Z</time></trkpt><trkpt lat="45.92343208235695" lon="9.47902498754846"><ele>842.8</ele><time>2026-04-27T14:32:30Z</time></trkpt><trkpt lat="45.92349941584261" lon="9.478911047278409"><ele>844.4</ele><time>2026-04-27T14:32:31Z</time></trkpt><trkpt lat="45.923571510288276" lon="9.47882293824974"><ele>846.0</ele><time>2026-04-27T14:32:32Z</time></trkpt><trkpt lat="45.9236276968611" lon="9.478675432476921"><ele>839.1999999999999</ele><time>2026-04-27T14:32:33Z</time></trkpt><trkpt lat="45.92370216631801" lon="9.478533290465034"><ele>832.4</ele><time>2026-04-27T14:32:34Z</time></trkpt><trkpt lat="45.92377558070656" lon="9.478391705183785"><ele>825.6</ele><time>2026-04-27T14:32:35Z</time></trkpt><trkpt lat="45.92381638261136" lon="9.478263800994409"><ele>818.8</ele><time>2026-04-27T14:32:36Z</time></trkpt><trkpt lat="45.923834138936314" lon="9.478146103504187"><ele>812.0</ele><time>2026-04-27T14:32:37Z</time></trkpt><trkpt lat="45.923866499167445" lon="9.478024365916692"><ele>813.0</ele><time>2026-04-27T14:32:38Z</time></trkpt><trkpt lat="45.923910690380296" lon="9.477905321253186"><ele>814.0</ele><time>2026-04-27T14:32:39Z</time></trkpt><trkpt lat="45.92392134378931" lon="9.47779428600034"><ele>815.0</ele><time>2026-04-27T14:32:40Z</time></trkpt><trkpt lat="45.92391826816853" lon="9.477652877245399"><ele>816.0</ele><time>2026-04-27T14:32:42Z</time></trkpt><trkpt lat="45.9239338920648" lon="9.477454215238419"><ele>817.0</ele><time>2026-04-27T14:32:44Z</time></trkpt><trkpt lat="45.92392795911255" lon="9.477342675419214"><ele>817.0</ele><time>2026-04-27T14:32:45Z</time></trkpt><trkpt lat="45.92391933881117" lon="9.4771933356441"><ele>817.0</ele><time>2026-04-27T14:32:47Z</time></trkpt><trkpt lat="45.9239274652214" lon="9.477074277403071"><ele>817.0</ele><time>2026-04-27T14:32:48Z</time></trkpt><trkpt lat="45.92389852093018" lon="9.476911661617791"><ele>817.0</ele><time>2026-04-27T14:32:49Z</time></trkpt><trkpt lat="45.923880967179564" lon="9.476740152578126"><ele>817.0</ele><time>2026-04-27T14:32:52Z</time></trkpt><trkpt lat="45.92387331624703" lon="9.476549469082837"><ele>819.75</ele><time>2026-04-27T14:32:53Z</time></trkpt><trkpt lat="45.92389822521796" lon="9.47639405165109"><ele>822.5</ele><time>2026-04-27T14:32:54Z</time></trkpt><trkpt lat="45.92395018960217" lon="9.47619557614303"><ele>825.25</ele><time>2026-04-27T14:32:56Z</time></trkpt><trkpt lat="45.92398784009488" lon="9.476070292923305"><ele>828.0</ele><time>2026-04-27T14:32:57Z</time></trkpt><trkpt lat="45.92404346882386" lon="9.475914993620165"><ele>830.0</ele><time>2026-04-27T14:32:58Z</time></trkpt><trkpt lat="45.92412096555442" lon="9.475743465898669"><ele>832.0</ele><time>2026-04-27T14:32:59Z</time></trkpt><trkpt lat="45.92417577432811" lon="9.475651071306116"><ele>834.0</ele><time>2026-04-27T14:33:00Z</time></trkpt><trkpt lat="45.924223571887836" lon="9.475557442706657"><ele>836.0</ele><time>2026-04-27T14:33:01Z</time></trkpt><trkpt lat="45.92452483392881" lon="9.475335706359706"><ele>832.4</ele><time>2026-04-27T14:33:02Z</time></trkpt><trkpt lat="45.92454646798076" lon="9.475211049485893"><ele>828.8</ele><time>2026-04-27T14:33:08Z</time></trkpt><trkpt lat="45.92458024936178" lon="9.475097518860895"><ele>825.1999999999999</ele><time>2026-04-27T14:33:10Z</time></trkpt><trkpt lat="45.924625743740506" lon="9.47500086606769"><ele>821.5999999999999</ele><time>2026-04-27T14:33:12Z</time></trkpt><trkpt lat="45.92466265803638" lon="9.474916417261836"><ele>818.0</ele><time>2026-04-27T14:33:14Z</time></trkpt><trkpt lat="45.924757434526356" lon="9.47466086833833"><ele>819.5</ele><time>2026-04-27T14:33:16Z</time></trkpt><trkpt lat="45.92477364431312" lon="9.474490212119976"><ele>821.0</ele><time>2026-04-27T14:33:17Z</time></trkpt><trkpt lat="45.92488584342691" lon="9.474353587601973"><ele>822.5</ele><time>2026-04-27T14:33:18Z</time></trkpt><trkpt lat="45.92494161435927" lon="9.474273417962525"><ele>824.0</ele><time>2026-04-27T14:33:19Z</time></trkpt><trkpt lat="45.92481874476582" lon="9.474314706432182"><ele>824.0</ele><time>2026-04-27T14:33:20Z</time></trkpt><trkpt lat="45.924881462354925" lon="9.474111300496414"><ele>824.0</ele><time>2026-04-27T14:33:22Z</time></trkpt><trkpt lat="45.925194163407284" lon="9.47420889656698"><ele>816.8000000000001</ele><time>2026-04-27T14:33:23Z</time></trkpt><trkpt lat="45.92518319987989" lon="9.474070415884773"><ele>809.6</ele><time>2026-04-27T14:33:24Z</time></trkpt><trkpt lat="45.92518400705919" lon="9.473937712328352"><ele>802.4</ele><time>2026-04-27T14:33:25Z</time></trkpt><trkpt lat="45.92515542034974" lon="9.47380117959249"><ele>795.2</ele><time>2026-04-27T14:33:26Z</time></trkpt><trkpt lat="45.92513718460032" lon="9.473698769360016"><ele>788.0</ele><time>2026-04-27T14:33:27Z</time></trkpt><trkpt lat="45.925161145379604" lon="9.473516462837347"><ele>788.0000000000001</ele><time>2026-04-27T14:33:29Z</time></trkpt><trkpt lat="45.925210331321544" lon="9.473431762366147"><ele>788.0</ele><time>2026-04-27T14:33:30Z</time></trkpt><trkpt lat="45.92526646726955" lon="9.473348321982046"><ele>788.0</ele><time>2026-04-27T14:33:31Z</time></trkpt><trkpt lat="45.925361692896665" lon="9.473227851142177"><ele>788.0</ele><time>2026-04-27T14:33:32Z</time></trkpt><trkpt lat="45.92541051013107" lon="9.473142461017861"><ele>788.0000000000001</ele><time>2026-04-27T14:33:33Z</time></trkpt><trkpt lat="45.92544832611581" lon="9.473059671144899"><ele>788.0</ele><time>2026-04-27T14:33:34Z</time></trkpt><trkpt lat="45.92545423818408" lon="9.472911327385798"><ele>790.2</ele><time>2026-04-27T14:33:35Z</time></trkpt><trkpt lat="45.925429659358045" lon="9.47274763054119"><ele>792.4</ele><time>2026-04-27T14:33:36Z</time></trkpt><trkpt lat="45.925437291988544" lon="9.472592680433035"><ele>794.6</ele><time>2026-04-27T14:33:37Z</time></trkpt><trkpt lat="45.925429676303715" lon="9.472471750215337"><ele>796.8000000000001</ele><time>2026-04-27T14:33:38Z</time></trkpt><trkpt lat="45.9254201384829" lon="9.472354258223241"><ele>799.0</ele><time>2026-04-27T14:33:39Z</time></trkpt><trkpt lat="45.92548603229837" lon="9.472252575574208"><ele>799.0</ele><time>2026-04-27T14:33:40Z</time></trkpt><trkpt lat="45.92551657770332" lon="9.472118876392999"><ele>799.0</ele><time>2026-04-27T14:33:41Z</time></trkpt><trkpt lat="45.9255358822438" lon="9.471907343077973"><ele>799.0</ele><time>2026-04-27T14:33:43Z</time></trkpt><trkpt lat="45.92554286543179" lon="9.471751864719923"><ele>799.0</ele><time>2026-04-27T14:33:45Z</time></trkpt><trkpt lat="45.92554386874206" lon="9.471630092194268"><ele>799.0</ele><time>2026-04-27T14:33:47Z</time></trkpt><trkpt lat="45.925588636535295" lon="9.471535670686464"><ele>800.4000000000001</ele><time>2026-04-27T14:33:49Z</time></trkpt><trkpt lat="45.92572394123009" lon="9.471360835379771"><ele>801.8</ele><time>2026-04-27T14:33:50Z</time></trkpt><trkpt lat="45.9257900635728" lon="9.47126934869887"><ele>803.2</ele><time>2026-04-27T14:33:51Z</time></trkpt><trkpt lat="45.925864871098504" lon="9.471187756996567"><ele>804.5999999999999</ele><time>2026-04-27T14:33:52Z</time></trkpt><trkpt lat="45.92593102425454" lon="9.471145181792537"><ele>806.0</ele><time>2026-04-27T14:33:53Z</time></trkpt><trkpt lat="45.926034756449" lon="9.47110306216478"><ele>806.0</ele><time>2026-04-27T14:33:54Z</time></trkpt><trkpt lat="45.92620671607813" lon="9.47100727669968"><ele>806.0</ele><time>2026-04-27T14:33:56Z</time></trkpt><trkpt lat="45.92627069442655" lon="9.470999739900437"><ele>806.0</ele><time>2026-04-27T14:33:57Z</time></trkpt><trkpt lat="45.926337985600874" lon="9.470930631161703"><ele>806.0</ele><time>2026-04-27T14:33:58Z</time></trkpt><trkpt lat="45.926400178508025" lon="9.470845302231421"><ele>806.0</ele><time>2026-04-27T14:33:59Z</time></trkpt><trkpt lat="45.926438119085326" lon="9.470704765417114"><ele>806.0</ele><time>2026-04-27T14:34:01Z</time></trkpt><trkpt lat="45.926499744736965" lon="9.470598634765492"><ele>806.0</ele><time>2026-04-27T14:34:02Z</time></trkpt><trkpt lat="45.92651543834412" lon="9.470459558005725"><ele>806.0</ele><time>2026-04-27T14:34:03Z</time></trkpt><trkpt lat="45.92653320604835" lon="9.470322474406855"><ele>806.0</ele><time>2026-04-27T14:34:04Z</time></trkpt><trkpt lat="45.926544485209334" lon="9.470178589682442"><ele>806.0</ele><time>2026-04-27T14:34:05Z</time></trkpt><trkpt lat="45.926550862942385" lon="9.47006763481307"><ele>805.5000000000001</ele><time>2026-04-27T14:34:06Z</time></trkpt><trkpt lat="45.92653149591344" lon="9.469953331354924"><ele>805.0</ele><time>2026-04-27T14:34:07Z</time></trkpt><trkpt lat="45.92650627832149" lon="9.46983455092369"><ele>804.5</ele><time>2026-04-27T14:34:08Z</time></trkpt><trkpt lat="45.92648174051606" lon="9.46973064296899"><ele>804.0</ele><time>2026-04-27T14:34:09Z</time></trkpt><trkpt lat="45.92644171713516" lon="9.46962634965976"><ele>803.5000000000001</ele><time>2026-04-27T14:34:10Z</time></trkpt><trkpt lat="45.926378349257185" lon="9.469486688031274"><ele>803.0</ele><time>2026-04-27T14:34:11Z</time></trkpt><trkpt lat="45.92634902200245" lon="9.469396179702475"><ele>802.4</ele><time>2026-04-27T14:34:12Z</time></trkpt><trkpt lat="45.92635200460297" lon="9.469206791000284"><ele>801.8</ele><time>2026-04-27T14:34:14Z</time></trkpt><trkpt lat="45.92639960443255" lon="9.469118420439873"><ele>801.2</ele><time>2026-04-27T14:34:15Z</time></trkpt><trkpt lat="45.9264228659585" lon="9.468985129763345"><ele>800.6</ele><time>2026-04-27T14:34:16Z</time></trkpt><trkpt lat="45.92646983478087" lon="9.46887835753853"><ele>800.0</ele><time>2026-04-27T14:34:17Z</time></trkpt><trkpt lat="45.92648338735203" lon="9.468784842836593"><ele>798.4</ele><time>2026-04-27T14:34:18Z</time></trkpt><trkpt lat="45.92648942141786" lon="9.468650971121798"><ele>796.8</ele><time>2026-04-27T14:34:19Z</time></trkpt><trkpt lat="45.926467395705274" lon="9.468496680339847"><ele>795.2</ele><time>2026-04-27T14:34:20Z</time></trkpt><trkpt lat="45.926438083441745" lon="9.468351775996895"><ele>793.6</ele><time>2026-04-27T14:34:21Z</time></trkpt><trkpt lat="45.92636941922764" lon="9.4682506837585"><ele>792.0</ele><time>2026-04-27T14:34:22Z</time></trkpt><trkpt lat="45.92631507931056" lon="9.46814968277645"><ele>792.0</ele><time>2026-04-27T14:34:23Z</time></trkpt><trkpt lat="45.92627344294971" lon="9.467944333447532"><ele>792.0</ele><time>2026-04-27T14:34:25Z</time></trkpt><trkpt lat="45.92625473047077" lon="9.467839345541943"><ele>792.0</ele><time>2026-04-27T14:34:26Z</time></trkpt><trkpt lat="45.926240303247724" lon="9.467744554148467"><ele>792.0</ele><time>2026-04-27T14:34:27Z</time></trkpt><trkpt lat="45.92622669368495" lon="9.467618537619304"><ele>792.0</ele><time>2026-04-27T14:34:29Z</time></trkpt><trkpt lat="45.92618270035298" lon="9.467529967993745"><ele>791.2</ele><time>2026-04-27T14:34:32Z</time></trkpt><trkpt lat="45.92618656046955" lon="9.467387269364586"><ele>790.4000000000001</ele><time>2026-04-27T14:34:34Z</time></trkpt><trkpt lat="45.92627413628454" lon="9.467346633875984"><ele>789.5999999999999</ele><time>2026-04-27T14:34:35Z</time></trkpt><trkpt lat="45.92634612359808" lon="9.46729285476531"><ele>788.8</ele><time>2026-04-27T14:34:37Z</time></trkpt><trkpt lat="45.92642083490375" lon="9.467190315464345"><ele>788.0</ele><time>2026-04-27T14:34:38Z</time></trkpt><trkpt lat="45.92650685966791" lon="9.46703807171148"><ele>788.0</ele><time>2026-04-27T14:34:39Z</time></trkpt><trkpt lat="45.92653259543961" lon="9.466869984329922"><ele>788.0</ele><time>2026-04-27T14:34:40Z</time></trkpt><trkpt lat="45.92656000161615" lon="9.466667336231728"><ele>788.0</ele><time>2026-04-27T14:34:41Z</time></trkpt><trkpt lat="45.92658644777499" lon="9.466497677737943"><ele>788.0</ele><time>2026-04-27T14:34:42Z</time></trkpt><trkpt lat="45.92663101387472" lon="9.466353346430447"><ele>788.2</ele><time>2026-04-27T14:34:43Z</time></trkpt><trkpt lat="45.92666067812843" lon="9.466203332944069"><ele>788.4</ele><time>2026-04-27T14:34:44Z</time></trkpt><trkpt lat="45.92669898958404" lon="9.466061190579113"><ele>788.6</ele><time>2026-04-27T14:34:45Z</time></trkpt><trkpt lat="45.926728276492625" lon="9.46591790516711"><ele>788.8000000000001</ele><time>2026-04-27T14:34:46Z</time></trkpt><trkpt lat="45.92675159139274" lon="9.465769530035399"><ele>789.0</ele><time>2026-04-27T14:34:47Z</time></trkpt><trkpt lat="45.926781383183084" lon="9.465619743358099"><ele>786.0</ele><time>2026-04-27T14:34:48Z</time></trkpt><trkpt lat="45.92680595520909" lon="9.465461809278679"><ele>783.0</ele><time>2026-04-27T14:34:49Z</time></trkpt><trkpt lat="45.926829198238416" lon="9.465311276548881"><ele>780.0</ele><time>2026-04-27T14:34:50Z</time></trkpt><trkpt lat="45.926856779883394" lon="9.465178787414493"><ele>777.0</ele><time>2026-04-27T14:34:51Z</time></trkpt><trkpt lat="45.92687543182396" lon="9.46502453529545"><ele>774.0</ele><time>2026-04-27T14:34:52Z</time></trkpt><trkpt lat="45.92685847771178" lon="9.464863638574133"><ele>774.0</ele><time>2026-04-27T14:34:53Z</time></trkpt><trkpt lat="45.92682985635832" lon="9.464705707956966"><ele>774.0</ele><time>2026-04-27T14:34:54Z</time></trkpt><trkpt lat="45.926809185934665" lon="9.464552937524962"><ele>774.0</ele><time>2026-04-27T14:34:55Z</time></trkpt><trkpt lat="45.92679209887181" lon="9.464419188771165"><ele>774.0</ele><time>2026-04-27T14:34:56Z</time></trkpt><trkpt lat="45.92679179890338" lon="9.464295702428695"><ele>774.0</ele><time>2026-04-27T14:34:57Z</time></trkpt><trkpt lat="45.92679496385302" lon="9.464175244619105"><ele>773.8000000000001</ele><time>2026-04-27T14:34:58Z</time></trkpt><trkpt lat="45.92681566437565" lon="9.46401920587515"><ele>773.6</ele><time>2026-04-27T14:34:59Z</time></trkpt><trkpt lat="45.92683140989508" lon="9.463881162474273"><ele>773.4</ele><time>2026-04-27T14:35:00Z</time></trkpt><trkpt lat="45.926886497884475" lon="9.463731840977337"><ele>773.2</ele><time>2026-04-27T14:35:01Z</time></trkpt><trkpt lat="45.92692758360238" lon="9.463597909691552"><ele>773.0</ele><time>2026-04-27T14:35:02Z</time></trkpt><trkpt lat="45.92693978606484" lon="9.463457414981667"><ele>773.0</ele><time>2026-04-27T14:35:03Z</time></trkpt><trkpt lat="45.926960795289745" lon="9.463333874170342"><ele>773.0</ele><time>2026-04-27T14:35:04Z</time></trkpt><trkpt lat="45.927020143609035" lon="9.463200121923348"><ele>773.0</ele><time>2026-04-27T14:35:05Z</time></trkpt><trkpt lat="45.9270345698177" lon="9.463066503866349"><ele>773.0</ele><time>2026-04-27T14:35:06Z</time></trkpt><trkpt lat="45.92704471958093" lon="9.462939072382767"><ele>773.0</ele><time>2026-04-27T14:35:07Z</time></trkpt><trkpt lat="45.92704110846698" lon="9.462806648118125"><ele>773.4</ele><time>2026-04-27T14:35:08Z</time></trkpt><trkpt lat="45.92703148877789" lon="9.46266610582226"><ele>773.8</ele><time>2026-04-27T14:35:09Z</time></trkpt><trkpt lat="45.927020361388166" lon="9.462502841250815"><ele>774.2</ele><time>2026-04-27T14:35:10Z</time></trkpt><trkpt lat="45.92700562010088" lon="9.46235383540704"><ele>774.6</ele><time>2026-04-27T14:35:11Z</time></trkpt><trkpt lat="45.92700671303046" lon="9.462206491534621"><ele>775.0</ele><time>2026-04-27T14:35:12Z</time></trkpt><trkpt lat="45.92701495618415" lon="9.46206601839166"><ele>775.2</ele><time>2026-04-27T14:35:13Z</time></trkpt><trkpt lat="45.92703301973528" lon="9.461919909418262"><ele>775.4</ele><time>2026-04-27T14:35:14Z</time></trkpt><trkpt lat="45.927053799207926" lon="9.461768777673942"><ele>775.5999999999999</ele><time>2026-04-27T14:35:15Z</time></trkpt><trkpt lat="45.92708401460323" lon="9.46163143404957"><ele>775.8</ele><time>2026-04-27T14:35:16Z</time></trkpt><trkpt lat="45.927089506139154" lon="9.461494110821365"><ele>776.0</ele><time>2026-04-27T14:35:17Z</time></trkpt><trkpt lat="45.92709921619799" lon="9.46139487821727"><ele>776.0000000000001</ele><time>2026-04-27T14:35:18Z</time></trkpt><trkpt lat="45.92710800003079" lon="9.461304748203025"><ele>776.0</ele><time>2026-04-27T14:35:19Z</time></trkpt><trkpt lat="45.92712162885118" lon="9.461189441861181"><ele>776.0</ele><time>2026-04-27T14:35:20Z</time></trkpt><trkpt lat="45.92714220198142" lon="9.461063388147606"><ele>776.0</ele><time>2026-04-27T14:35:21Z</time></trkpt><trkpt lat="45.92714669754583" lon="9.460931103894916"><ele>776.0000000000001</ele><time>2026-04-27T14:35:22Z</time></trkpt><trkpt lat="45.927132448449086" lon="9.460794165240355"><ele>776.0</ele><time>2026-04-27T14:35:23Z</time></trkpt><trkpt lat="45.92710319228446" lon="9.460670394807035"><ele>776.0000000000001</ele><time>2026-04-27T14:35:24Z</time></trkpt><trkpt lat="45.92706982155554" lon="9.460554380477209"><ele>776.0</ele><time>2026-04-27T14:35:25Z</time></trkpt><trkpt lat="45.92705289236072" lon="9.460426541575357"><ele>776.0</ele><time>2026-04-27T14:35:26Z</time></trkpt><trkpt lat="45.92703328874903" lon="9.460323395989299"><ele>776.0</ele><time>2026-04-27T14:35:27Z</time></trkpt><trkpt lat="45.927036557670895" lon="9.460187353510399"><ele>776.0000000000001</ele><time>2026-04-27T14:35:29Z</time></trkpt><trkpt lat="45.927005029149086" lon="9.460071187250582"><ele>776.0</ele><time>2026-04-27T14:35:39Z</time></trkpt><trkpt lat="45.92691653357849" lon="9.459907555186703"><ele>775.6666666666667</ele><time>2026-04-27T14:35:41Z</time></trkpt><trkpt lat="45.926849251466415" lon="9.459826931631287"><ele>775.3333333333334</ele><time>2026-04-27T14:35:42Z</time></trkpt><trkpt lat="45.92678952468452" lon="9.459735374575375"><ele>775.0</ele><time>2026-04-27T14:35:43Z</time></trkpt><trkpt lat="45.92673941820538" lon="9.459653782393792"><ele>774.6666666666667</ele><time>2026-04-27T14:35:44Z</time></trkpt><trkpt lat="45.92669594579485" lon="9.459575111277992"><ele>774.3333333333334</ele><time>2026-04-27T14:35:46Z</time></trkpt><trkpt lat="45.92662840495511" lon="9.45944267234797"><ele>774.0</ele><time>2026-04-27T14:35:54Z</time></trkpt><trkpt lat="45.92653415706908" lon="9.459324364553758"><ele>774.0</ele><time>2026-04-27T14:35:56Z</time></trkpt><trkpt lat="45.926501516475426" lon="9.459210830226464"><ele>774.0</ele><time>2026-04-27T14:35:58Z</time></trkpt><trkpt lat="45.92649266228534" lon="9.459114205452163"><ele>774.0</ele><time>2026-04-27T14:35:59Z</time></trkpt><trkpt lat="45.9265232182773" lon="9.458982963249506"><ele>774.0</ele><time>2026-04-27T14:36:00Z</time></trkpt><trkpt lat="45.92653684449252" lon="9.458831533980616"><ele>774.0</ele><time>2026-04-27T14:36:01Z</time></trkpt><trkpt lat="45.926545064083186" lon="9.458700979909823"><ele>774.0</ele><time>2026-04-27T14:36:02Z</time></trkpt><trkpt lat="45.92652403020861" lon="9.458581620535366"><ele>773.0</ele><time>2026-04-27T14:36:03Z</time></trkpt><trkpt lat="45.926521519996555" lon="9.45848675284549"><ele>772.0</ele><time>2026-04-27T14:36:04Z</time></trkpt><trkpt lat="45.92657513530478" lon="9.45833320050011"><ele>771.0</ele><time>2026-04-27T14:36:06Z</time></trkpt><trkpt lat="45.92660079875027" lon="9.458200641475752"><ele>770.0</ele><time>2026-04-27T14:36:12Z</time></trkpt><trkpt lat="45.926539392051126" lon="9.458117664973672"><ele>769.0</ele><time>2026-04-27T14:36:13Z</time></trkpt><trkpt lat="45.926473967946436" lon="9.458043056301129"><ele>768.0</ele><time>2026-04-27T14:36:14Z</time></trkpt><trkpt lat="45.92640901481186" lon="9.457940242454827"><ele>767.25</ele><time>2026-04-27T14:36:15Z</time></trkpt><trkpt lat="45.92633419271474" lon="9.457818455705748"><ele>766.5</ele><time>2026-04-27T14:36:16Z</time></trkpt><trkpt lat="45.92625431240863" lon="9.457674150974633"><ele>765.75</ele><time>2026-04-27T14:36:17Z</time></trkpt><trkpt lat="45.926188541106576" lon="9.457505991152477"><ele>765.0</ele><time>2026-04-27T14:36:18Z</time></trkpt><trkpt lat="45.926114006888" lon="9.4573445491206"><ele>765.0</ele><time>2026-04-27T14:36:19Z</time></trkpt><trkpt lat="45.9260434207381" lon="9.457194680958999"><ele>765.0</ele><time>2026-04-27T14:36:20Z</time></trkpt><trkpt lat="45.92597221356898" lon="9.457054616734267"><ele>765.0</ele><time>2026-04-27T14:36:21Z</time></trkpt><trkpt lat="45.92590158553614" lon="9.45690868172241"><ele>765.0</ele><time>2026-04-27T14:36:22Z</time></trkpt><trkpt lat="45.925833514566456" lon="9.456749334991942"><ele>765.25</ele><time>2026-04-27T14:36:23Z</time></trkpt><trkpt lat="45.925767492694405" lon="9.456606660323024"><ele>765.5</ele><time>2026-04-27T14:36:24Z</time></trkpt><trkpt lat="45.925706337986945" lon="9.456405505485913"><ele>765.75</ele><time>2026-04-27T14:36:25Z</time></trkpt><trkpt lat="45.92568379997268" lon="9.456164736623553"><ele>766.0</ele><time>2026-04-27T14:36:26Z</time></trkpt><trkpt lat="45.9256564743997" lon="9.455916065793165"><ele>765.25</ele><time>2026-04-27T14:36:27Z</time></trkpt><trkpt lat="45.9256277704818" lon="9.45569781835861"><ele>764.5</ele><time>2026-04-27T14:36:28Z</time></trkpt><trkpt lat="45.92566862351267" lon="9.455780358495728"><ele>763.75</ele><time>2026-04-27T14:36:29Z</time></trkpt><trkpt lat="45.9256471865352" lon="9.455613520602158"><ele>763.0</ele><time>2026-04-27T14:36:30Z</time></trkpt><trkpt lat="45.92564678094414" lon="9.455458958862133"><ele>762.4</ele><time>2026-04-27T14:36:31Z</time></trkpt><trkpt lat="45.92561252333615" lon="9.455323230030103"><ele>761.8</ele><time>2026-04-27T14:36:32Z</time></trkpt><trkpt lat="45.925562063065094" lon="9.455174916343953"><ele>761.2</ele><time>2026-04-27T14:36:33Z</time></trkpt><trkpt lat="45.925493533381264" lon="9.455080667672807"><ele>760.6</ele><time>2026-04-27T14:36:34Z</time></trkpt><trkpt lat="45.9253859111435" lon="9.454977943385073"><ele>760.0</ele><time>2026-04-27T14:36:35Z</time></trkpt><trkpt lat="45.925272147593546" lon="9.454928676890034"><ele>760.0</ele><time>2026-04-27T14:36:36Z</time></trkpt><trkpt lat="45.92513422742725" lon="9.45493351621765"><ele>760.0</ele><time>2026-04-27T14:36:37Z</time></trkpt><trkpt lat="45.9250225737067" lon="9.45498648946362"><ele>760.0</ele><time>2026-04-27T14:36:38Z</time></trkpt><trkpt lat="45.924913934264445" lon="9.45503550765062"><ele>760.0</ele><time>2026-04-27T14:36:39Z</time></trkpt><trkpt lat="45.92481432227382" lon="9.455089373055724"><ele>761.0</ele><time>2026-04-27T14:36:40Z</time></trkpt><trkpt lat="45.92470421345752" lon="9.455133748187798"><ele>762.0</ele><time>2026-04-27T14:36:41Z</time></trkpt><trkpt lat="45.92460308476752" lon="9.4551868395209"><ele>763.0</ele><time>2026-04-27T14:36:42Z</time></trkpt><trkpt lat="45.92451496000599" lon="9.455236726950199"><ele>764.0</ele><time>2026-04-27T14:36:43Z</time></trkpt><trkpt lat="45.924418048332214" lon="9.455254186770738"><ele>765.0</ele><time>2026-04-27T14:36:44Z</time></trkpt><trkpt lat="45.924309163680704" lon="9.455234914603793"><ele>765.6</ele><time>2026-04-27T14:36:45Z</time></trkpt><trkpt lat="45.92421443403381" lon="9.455134545512315"><ele>766.2</ele><time>2026-04-27T14:36:46Z</time></trkpt><trkpt lat="45.92412906437105" lon="9.455010231787808"><ele>766.8</ele><time>2026-04-27T14:36:47Z</time></trkpt><trkpt lat="45.9240541820965" lon="9.454889171050114"><ele>767.4</ele><time>2026-04-27T14:36:48Z</time></trkpt><trkpt lat="45.92399735598094" lon="9.45478374651182"><ele>768.0</ele><time>2026-04-27T14:36:49Z</time></trkpt><trkpt lat="45.92395916672723" lon="9.454670939718367"><ele>768.4</ele><time>2026-04-27T14:36:50Z</time></trkpt><trkpt lat="45.92395951813945" lon="9.454567692841591"><ele>768.8</ele><time>2026-04-27T14:36:51Z</time></trkpt><trkpt lat="45.9239993509818" lon="9.4544396570865"><ele>769.2</ele><time>2026-04-27T14:36:52Z</time></trkpt><trkpt lat="45.9240745461636" lon="9.45428048399335"><ele>769.6</ele><time>2026-04-27T14:36:53Z</time></trkpt><trkpt lat="45.92415414655339" lon="9.454165729102114"><ele>770.0</ele><time>2026-04-27T14:36:54Z</time></trkpt><trkpt lat="45.924240703530664" lon="9.45404373877241"><ele>766.75</ele><time>2026-04-27T14:36:55Z</time></trkpt><trkpt lat="45.924329588004326" lon="9.453915296667683"><ele>763.5</ele><time>2026-04-27T14:36:56Z</time></trkpt><trkpt lat="45.924387546589024" lon="9.45377766857418"><ele>760.25</ele><time>2026-04-27T14:36:57Z</time></trkpt><trkpt lat="45.92440796023" lon="9.453615810144914"><ele>757.0</ele><time>2026-04-27T14:36:58Z</time></trkpt><trkpt lat="45.92442006095557" lon="9.45344967923388"><ele>757.0</ele><time>2026-04-27T14:36:59Z</time></trkpt><trkpt lat="45.924406250044136" lon="9.453279031830863"><ele>757.0</ele><time>2026-04-27T14:37:00Z</time></trkpt><trkpt lat="45.92436772393164" lon="9.45312037587691"><ele>757.0</ele><time>2026-04-27T14:37:01Z</time></trkpt><trkpt lat="45.92435129331433" lon="9.45295569154724"><ele>757.0</ele><time>2026-04-27T14:37:02Z</time></trkpt><trkpt lat="45.92435673751814" lon="9.452779048054989"><ele>757.25</ele><time>2026-04-27T14:37:03Z</time></trkpt><trkpt lat="45.92438769599711" lon="9.452604991076072"><ele>757.5</ele><time>2026-04-27T14:37:04Z</time></trkpt><trkpt lat="45.92437965689691" lon="9.45243508314692"><ele>757.75</ele><time>2026-04-27T14:37:05Z</time></trkpt><trkpt lat="45.92437816559136" lon="9.452251825961255"><ele>758.0</ele><time>2026-04-27T14:37:06Z</time></trkpt><trkpt lat="45.92437915756185" lon="9.452090232597815"><ele>757.25</ele><time>2026-04-27T14:37:07Z</time></trkpt><trkpt lat="45.92436381718365" lon="9.451932137911816"><ele>756.5</ele><time>2026-04-27T14:37:08Z</time></trkpt><trkpt lat="45.92435647246844" lon="9.451773801593715"><ele>755.75</ele><time>2026-04-27T14:37:09Z</time></trkpt><trkpt lat="45.92434533678787" lon="9.451564202043695"><ele>755.0</ele><time>2026-04-27T14:37:10Z</time></trkpt><trkpt lat="45.92433207320416" lon="9.451374045599957"><ele>750.6666666666666</ele><time>2026-04-27T14:37:11Z</time></trkpt><trkpt lat="45.92431726389174" lon="9.451161728274728"><ele>746.3333333333334</ele><time>2026-04-27T14:37:12Z</time></trkpt><trkpt lat="45.92428994846782" lon="9.45090803389267"><ele>742.0</ele><time>2026-04-27T14:37:13Z</time></trkpt><trkpt lat="45.92428294177682" lon="9.450671105222115"><ele>742.0</ele><time>2026-04-27T14:37:15Z</time></trkpt><trkpt lat="45.92426239125377" lon="9.450497591002959"><ele>742.0</ele><time>2026-04-27T14:37:16Z</time></trkpt><trkpt lat="45.924238460067954" lon="9.450318409673097"><ele>742.0</ele><time>2026-04-27T14:37:17Z</time></trkpt><trkpt lat="45.92422219700609" lon="9.45014561376419"><ele>742.0</ele><time>2026-04-27T14:37:18Z</time></trkpt><trkpt lat="45.92420498809272" lon="9.450000492038413"><ele>740.6666666666667</ele><time>2026-04-27T14:37:19Z</time></trkpt><trkpt lat="45.92421006063168" lon="9.449814770264458"><ele>739.3333333333334</ele><time>2026-04-27T14:37:20Z</time></trkpt><trkpt lat="45.92421580410607" lon="9.449693609547111"><ele>738.0</ele><time>2026-04-27T14:37:21Z</time></trkpt><trkpt lat="45.92422378492049" lon="9.449573692675065"><ele>736.6666666666666</ele><time>2026-04-27T14:37:22Z</time></trkpt><trkpt lat="45.92424151753937" lon="9.449466766515572"><ele>735.3333333333333</ele><time>2026-04-27T14:37:24Z</time></trkpt><trkpt lat="45.924180209944424" lon="9.449491878233664"><ele>734.0</ele><time>2026-04-27T14:37:27Z</time></trkpt><trkpt lat="45.92410086732643" lon="9.449558926695783"><ele>742.4000000000001</ele><time>2026-04-27T14:37:28.001Z</time></trkpt><trkpt lat="45.92406636532326" lon="9.449671158569474"><ele>750.8</ele><time>2026-04-27T14:37:29.001Z</time></trkpt><trkpt lat="45.924044860200155" lon="9.449784327298007"><ele>759.2</ele><time>2026-04-27T14:37:30.001Z</time></trkpt><trkpt lat="45.92401286016924" lon="9.449977376924815"><ele>767.5999999999999</ele><time>2026-04-27T14:37:31.001Z</time></trkpt><trkpt lat="45.92396233201029" lon="9.450135664898372"><ele>776.0</ele><time>2026-04-27T14:37:32.001Z</time></trkpt><trkpt lat="45.92391996911948" lon="9.450279902363775"><ele>776.0</ele><time>2026-04-27T14:37:33.001Z</time></trkpt><trkpt lat="45.923892888531824" lon="9.450393205363396"><ele>776.0</ele><time>2026-04-27T14:37:34.001Z</time></trkpt><trkpt lat="45.923816063850026" lon="9.450450357845265"><ele>776.0</ele><time>2026-04-27T14:37:36.001Z</time></trkpt><trkpt lat="45.9236701586312" lon="9.450366187035009"><ele>776.0</ele><time>2026-04-27T14:37:38Z</time></trkpt><trkpt lat="45.923550851449185" lon="9.450325169596306"><ele>776.0</ele><time>2026-04-27T14:37:39Z</time></trkpt><trkpt lat="45.923471420351355" lon="9.45027926925412"><ele>776.0</ele><time>2026-04-27T14:37:40Z</time></trkpt><trkpt lat="45.92337983676427" lon="9.450230291534645"><ele>776.0</ele><time>2026-04-27T14:37:41Z</time></trkpt><trkpt lat="45.92325523041274" lon="9.450182661768068"><ele>776.0</ele><time>2026-04-27T14:37:42Z</time></trkpt><trkpt lat="45.92319685345112" lon="9.450088930777856"><ele>776.0</ele><time>2026-04-27T14:37:43Z</time></trkpt><trkpt lat="45.923172231837846" lon="9.449905830830188"><ele>778.1999999999999</ele><time>2026-04-27T14:37:44Z</time></trkpt><trkpt lat="45.92314475976086" lon="9.449687896522885"><ele>780.4</ele><time>2026-04-27T14:37:45Z</time></trkpt><trkpt lat="45.92314586933391" lon="9.449540696213276"><ele>782.6</ele><time>2026-04-27T14:37:46Z</time></trkpt><trkpt lat="45.923135491183835" lon="9.449425142251833"><ele>784.8</ele><time>2026-04-27T14:37:47Z</time></trkpt><trkpt lat="45.92311134030497" lon="9.449317831242082"><ele>787.0</ele><time>2026-04-27T14:37:48Z</time></trkpt><trkpt lat="45.92306451135928" lon="9.449234237605959"><ele>787.0</ele><time>2026-04-27T14:37:49Z</time></trkpt><trkpt lat="45.92298407162159" lon="9.44919180554484"><ele>787.0</ele><time>2026-04-27T14:37:50Z</time></trkpt><trkpt lat="45.922889178072275" lon="9.44917962009468"><ele>787.0</ele><time>2026-04-27T14:37:51Z</time></trkpt><trkpt lat="45.92278965369173" lon="9.449222134258685"><ele>787.0</ele><time>2026-04-27T14:37:52Z</time></trkpt><trkpt lat="45.92267053174002" lon="9.449275839965566"><ele>787.0</ele><time>2026-04-27T14:37:53Z</time></trkpt><trkpt lat="45.922586948015045" lon="9.44931728063742"><ele>789.8</ele><time>2026-04-27T14:37:54Z</time></trkpt><trkpt lat="45.92251385888407" lon="9.449382356560603"><ele>792.6</ele><time>2026-04-27T14:37:55Z</time></trkpt><trkpt lat="45.922415858553684" lon="9.449503074074107"><ele>795.4</ele><time>2026-04-27T14:37:56Z</time></trkpt><trkpt lat="45.92233201612325" lon="9.449590045742116"><ele>798.1999999999999</ele><time>2026-04-27T14:37:57Z</time></trkpt><trkpt lat="45.922267436964454" lon="9.449668580119672"><ele>801.0</ele><time>2026-04-27T14:37:58Z</time></trkpt><trkpt lat="45.92218947057802" lon="9.449723836764921"><ele>801.5999999999999</ele><time>2026-04-27T14:37:59Z</time></trkpt><trkpt lat="45.9220937166453" lon="9.44979898184392"><ele>802.2</ele><time>2026-04-27T14:38:01Z</time></trkpt><trkpt lat="45.92195747773389" lon="9.449750642858266"><ele>802.8</ele><time>2026-04-27T14:38:03Z</time></trkpt><trkpt lat="45.92185041132251" lon="9.44978499193824"><ele>803.4000000000001</ele><time>2026-04-27T14:38:04Z</time></trkpt><trkpt lat="45.92176586113815" lon="9.449805686725036"><ele>804.0</ele><time>2026-04-27T14:38:05Z</time></trkpt><trkpt lat="45.92167607811078" lon="9.449834594312243"><ele>804.0</ele><time>2026-04-27T14:38:06Z</time></trkpt><trkpt lat="45.92158031026486" lon="9.449833935730542"><ele>804.0</ele><time>2026-04-27T14:38:07Z</time></trkpt><trkpt lat="45.921495982204014" lon="9.44987253789041"><ele>804.0</ele><time>2026-04-27T14:38:08Z</time></trkpt><trkpt lat="45.92143155460743" lon="9.449924100339238"><ele>804.0</ele><time>2026-04-27T14:38:09Z</time></trkpt><trkpt lat="45.921375669559175" lon="9.449990948746024"><ele>804.0</ele><time>2026-04-27T14:38:10Z</time></trkpt><trkpt lat="45.921326519148906" lon="9.450065621974344"><ele>804.0</ele><time>2026-04-27T14:38:11Z</time></trkpt><trkpt lat="45.92128381319764" lon="9.450146319156222"><ele>804.0</ele><time>2026-04-27T14:38:12Z</time></trkpt><trkpt lat="45.92128955246413" lon="9.450291231369123"><ele>804.0</ele><time>2026-04-27T14:38:13Z</time></trkpt><trkpt lat="45.92128933214148" lon="9.450424657375466"><ele>804.0</ele><time>2026-04-27T14:38:14Z</time></trkpt><trkpt lat="45.921268231186524" lon="9.450558078966223"><ele>804.0</ele><time>2026-04-27T14:38:15Z</time></trkpt><trkpt lat="45.921241289315425" lon="9.450690802720965"><ele>804.0</ele><time>2026-04-27T14:38:16Z</time></trkpt><trkpt lat="45.92124791219775" lon="9.45079737843101"><ele>804.8000000000001</ele><time>2026-04-27T14:38:17Z</time></trkpt><trkpt lat="45.92122046737826" lon="9.450908764032025"><ele>805.6</ele><time>2026-04-27T14:38:18Z</time></trkpt><trkpt lat="45.92120838248691" lon="9.451004932362704"><ele>806.4</ele><time>2026-04-27T14:38:19Z</time></trkpt><trkpt lat="45.92119782674032" lon="9.451160015298715"><ele>807.2</ele><time>2026-04-27T14:38:21Z</time></trkpt><trkpt lat="45.92119104043756" lon="9.451260891820326"><ele>808.0</ele><time>2026-04-27T14:38:23Z</time></trkpt><trkpt lat="45.92100836066569" lon="9.451271636209796"><ele>807.9999999999999</ele><time>2026-04-27T14:38:25Z</time></trkpt><trkpt lat="45.920945291607985" lon="9.451249465970681"><ele>808.0</ele><time>2026-04-27T14:38:26Z</time></trkpt><trkpt lat="45.920875467751465" lon="9.451237452290236"><ele>808.0</ele><time>2026-04-27T14:38:27Z</time></trkpt><trkpt lat="45.92078524203824" lon="9.451201661821901"><ele>808.0</ele><time>2026-04-27T14:38:28Z</time></trkpt><trkpt lat="45.92071971092122" lon="9.451211670048188"><ele>807.9999999999999</ele><time>2026-04-27T14:38:29Z</time></trkpt><trkpt lat="45.9206457120019" lon="9.451139203994824"><ele>808.0</ele><time>2026-04-27T14:38:31Z</time></trkpt><trkpt lat="45.920662631206575" lon="9.451025114410795"><ele>811.5</ele><time>2026-04-27T14:38:34Z</time></trkpt><trkpt lat="45.92068098338156" lon="9.450819473566472"><ele>815.0</ele><time>2026-04-27T14:38:36Z</time></trkpt><trkpt lat="45.92068755152497" lon="9.450659844310719"><ele>818.5</ele><time>2026-04-27T14:38:38Z</time></trkpt><trkpt lat="45.92066788525668" lon="9.450511033875573"><ele>822.0</ele><time>2026-04-27T14:38:40Z</time></trkpt><trkpt lat="45.92058977510327" lon="9.450438695062918"><ele>822.0</ele><time>2026-04-27T14:38:41Z</time></trkpt><trkpt lat="45.92057351889021" lon="9.450346047971731"><ele>822.0</ele><time>2026-04-27T14:38:42Z</time></trkpt><trkpt lat="45.92056217642978" lon="9.450218159649816"><ele>822.0</ele><time>2026-04-27T14:38:43Z</time></trkpt><trkpt lat="45.9205286570957" lon="9.45010594740884"><ele>822.0</ele><time>2026-04-27T14:38:44Z</time></trkpt><trkpt lat="45.92049679461473" lon="9.450007894213421"><ele>822.0</ele><time>2026-04-27T14:38:45Z</time></trkpt><trkpt lat="45.920459015888916" lon="9.449924022923609"><ele>822.0</ele><time>2026-04-27T14:38:46Z</time></trkpt><trkpt lat="45.920405602495684" lon="9.449833967962245"><ele>822.0</ele><time>2026-04-27T14:38:47Z</time></trkpt><trkpt lat="45.92035560636818" lon="9.449762066114179"><ele>822.0</ele><time>2026-04-27T14:38:48Z</time></trkpt><trkpt lat="45.920316649532104" lon="9.449676023169841"><ele>822.0</ele><time>2026-04-27T14:38:49Z</time></trkpt><trkpt lat="45.92024252540309" lon="9.449543974021797"><ele>822.0</ele><time>2026-04-27T14:38:51Z</time></trkpt><trkpt lat="45.92018129741182" lon="9.449463705007588"><ele>822.0</ele><time>2026-04-27T14:38:53Z</time></trkpt><trkpt lat="45.92015101592179" lon="9.44937045658474"><ele>822.0</ele><time>2026-04-27T14:38:54Z</time></trkpt><trkpt lat="45.920129140611536" lon="9.449180757938555"><ele>821.8</ele><time>2026-04-27T14:38:56Z</time></trkpt><trkpt lat="45.92013566985326" lon="9.449073998405158"><ele>821.6</ele><time>2026-04-27T14:38:57Z</time></trkpt><trkpt lat="45.92011909875064" lon="9.448971283399331"><ele>821.4</ele><time>2026-04-27T14:38:58Z</time></trkpt><trkpt lat="45.92009756207139" lon="9.44880653146389"><ele>821.1999999999999</ele><time>2026-04-27T14:39:00Z</time></trkpt><trkpt lat="45.92005984317638" lon="9.448707909879877"><ele>821.0</ele><time>2026-04-27T14:39:01Z</time></trkpt><trkpt lat="45.920035704664265" lon="9.448553066387149"><ele>830.8</ele><time>2026-04-27T14:39:03Z</time></trkpt><trkpt lat="45.9199950665168" lon="9.448403013106155"><ele>840.5999999999999</ele><time>2026-04-27T14:39:06Z</time></trkpt><trkpt lat="45.919914596072786" lon="9.448275281190172"><ele>850.4</ele><time>2026-04-27T14:39:08Z</time></trkpt><trkpt lat="45.91984646399482" lon="9.448224281273827"><ele>860.2</ele><time>2026-04-27T14:39:09Z</time></trkpt><trkpt lat="45.91976338873658" lon="9.448155737049987"><ele>870.0</ele><time>2026-04-27T14:39:10Z</time></trkpt><trkpt lat="45.91970741440039" lon="9.448097015146532"><ele>870.0</ele><time>2026-04-27T14:39:11Z</time></trkpt><trkpt lat="45.91964872800758" lon="9.44804804183125"><ele>870.0</ele><time>2026-04-27T14:39:12Z</time></trkpt><trkpt lat="45.919571378400725" lon="9.447889734978164"><ele>870.0</ele><time>2026-04-27T14:39:14Z</time></trkpt><trkpt lat="45.91952726559173" lon="9.447707542403323"><ele>870.0</ele><time>2026-04-27T14:39:16Z</time></trkpt><trkpt lat="45.91949870457706" lon="9.447622266642966"><ele>870.0</ele><time>2026-04-27T14:39:17Z</time></trkpt><trkpt lat="45.91947559059065" lon="9.44746735353016"><ele>870.2857142857143</ele><time>2026-04-27T14:39:19Z</time></trkpt><trkpt lat="45.91945150006072" lon="9.447360470301275"><ele>870.5714285714286</ele><time>2026-04-27T14:39:20Z</time></trkpt><trkpt lat="45.91942791783855" lon="9.447268553790595"><ele>870.8571428571429</ele><time>2026-04-27T14:39:21Z</time></trkpt><trkpt lat="45.919404812535355" lon="9.447174482404169"><ele>871.1428571428571</ele><time>2026-04-27T14:39:22Z</time></trkpt><trkpt lat="45.91936890698248" lon="9.447078443291968"><ele>871.4285714285714</ele><time>2026-04-27T14:39:23Z</time></trkpt><trkpt lat="45.919355322966204" lon="9.446989132060748"><ele>871.7142857142858</ele><time>2026-04-27T14:39:24Z</time></trkpt><trkpt lat="45.91930633060287" lon="9.446886256575782"><ele>872.0</ele><time>2026-04-27T14:39:25Z</time></trkpt><trkpt lat="45.919318076920135" lon="9.44678657562413"><ele>870.2</ele><time>2026-04-27T14:39:27Z</time></trkpt><trkpt lat="45.919282051379994" lon="9.446667033323672"><ele>868.4000000000001</ele><time>2026-04-27T14:39:28Z</time></trkpt><trkpt lat="45.91920503090006" lon="9.44660959362452"><ele>866.5999999999999</ele><time>2026-04-27T14:39:30.001Z</time></trkpt><trkpt lat="45.91910491641569" lon="9.44655013246565"><ele>864.8</ele><time>2026-04-27T14:39:32.001Z</time></trkpt><trkpt lat="45.91905194596399" lon="9.446479876238339"><ele>863.0</ele><time>2026-04-27T14:39:34.001Z</time></trkpt><trkpt lat="45.91902714847927" lon="9.446336237084966"><ele>871.0</ele><time>2026-04-27T14:39:36.001Z</time></trkpt><trkpt lat="45.91897800294109" lon="9.446264198920074"><ele>879.0</ele><time>2026-04-27T14:39:37.001Z</time></trkpt><trkpt lat="45.91891997720957" lon="9.44615794179019"><ele>887.0</ele><time>2026-04-27T14:39:38.001Z</time></trkpt><trkpt lat="45.91885984865196" lon="9.44597157210738"><ele>895.0</ele><time>2026-04-27T14:39:40.001Z</time></trkpt><trkpt lat="45.9187414116253" lon="9.445825988281062"><ele>895.0</ele><time>2026-04-27T14:39:42.001Z</time></trkpt><trkpt lat="45.91868955773926" lon="9.445746205454627"><ele>895.0</ele><time>2026-04-27T14:39:43Z</time></trkpt><trkpt lat="45.918637480782756" lon="9.445586233015755"><ele>895.0</ele><time>2026-04-27T14:39:45Z</time></trkpt><trkpt lat="45.91860396798344" lon="9.445470775898055"><ele>895.0</ele><time>2026-04-27T14:39:46Z</time></trkpt><trkpt lat="45.91853670027172" lon="9.445310056768735"><ele>895.0</ele><time>2026-04-27T14:39:48Z</time></trkpt><trkpt lat="45.91852371310788" lon="9.445166006041413"><ele>894.8333333333333</ele><time>2026-04-27T14:39:49Z</time></trkpt><trkpt lat="45.91848183705236" lon="9.44502862978932"><ele>894.6666666666666</ele><time>2026-04-27T14:39:50Z</time></trkpt><trkpt lat="45.918447668242045" lon="9.444916855385658"><ele>894.5</ele><time>2026-04-27T14:39:51Z</time></trkpt><trkpt lat="45.91841024017403" lon="9.444824638500315"><ele>894.3333333333333</ele><time>2026-04-27T14:39:52Z</time></trkpt><trkpt lat="45.918389626855706" lon="9.444708363011197"><ele>894.1666666666666</ele><time>2026-04-27T14:39:54Z</time></trkpt><trkpt lat="45.91836616993043" lon="9.444600550252614"><ele>894.0</ele><time>2026-04-27T14:39:55Z</time></trkpt><trkpt lat="45.91834116703917" lon="9.444469239481109"><ele>901.6</ele><time>2026-04-27T14:39:57Z</time></trkpt><trkpt lat="45.91829350580678" lon="9.444333926351865"><ele>909.2</ele><time>2026-04-27T14:39:59Z</time></trkpt><trkpt lat="45.918210776077046" lon="9.444222769142486"><ele>916.8000000000001</ele><time>2026-04-27T14:40:01Z</time></trkpt><trkpt lat="45.918169335103215" lon="9.444152489334378"><ele>924.4000000000001</ele><time>2026-04-27T14:40:02Z</time></trkpt><trkpt lat="45.9181108742553" lon="9.44400265765283"><ele>932.0</ele><time>2026-04-27T14:40:04Z</time></trkpt><trkpt lat="45.91808484628533" lon="9.44388925075575"><ele>932.2</ele><time>2026-04-27T14:40:05Z</time></trkpt><trkpt lat="45.91803948603814" lon="9.443770537866229"><ele>932.4000000000001</ele><time>2026-04-27T14:40:06Z</time></trkpt><trkpt lat="45.91797189555065" lon="9.44366254103093"><ele>932.5999999999999</ele><time>2026-04-27T14:40:07Z</time></trkpt><trkpt lat="45.917969922128826" lon="9.443515409967048"><ele>932.8</ele><time>2026-04-27T14:40:09Z</time></trkpt><trkpt lat="45.918005539717896" lon="9.443384865627245"><ele>933.0</ele><time>2026-04-27T14:41:01Z</time></trkpt><trkpt lat="45.91805373445608" lon="9.443311443881305"><ele>933.0</ele><time>2026-04-27T14:41:03Z</time></trkpt><trkpt lat="45.91804636125381" lon="9.443221483002606"><ele>933.0</ele><time>2026-04-27T14:41:06Z</time></trkpt><trkpt lat="45.91798269680675" lon="9.44321684883743"><ele>933.0</ele><time>2026-04-27T14:41:08Z</time></trkpt><trkpt lat="45.91791756279751" lon="9.443278446689277"><ele>933.0</ele><time>2026-04-27T14:41:10Z</time></trkpt><trkpt lat="45.91794202598441" lon="9.443377869894693"><ele>933.0</ele><time>2026-04-27T14:41:12Z</time></trkpt><trkpt lat="45.91795053985654" lon="9.443497731401374"><ele>933.0</ele><time>2026-04-27T14:41:14Z</time></trkpt><trkpt lat="45.917985483678706" lon="9.443644136795502"><ele>933.0</ele><time>2026-04-27T14:41:16Z</time></trkpt><trkpt lat="45.918020832762124" lon="9.443778781754158"><ele>933.0</ele><time>2026-04-27T14:41:18Z</time></trkpt><trkpt lat="45.918053631963225" lon="9.443903025771457"><ele>933.0</ele><time>2026-04-27T14:41:20Z</time></trkpt><trkpt lat="45.91809090410453" lon="9.444053350297859"><ele>933.0</ele><time>2026-04-27T14:41:22Z</time></trkpt><trkpt lat="45.91812866705539" lon="9.444169806227947"><ele>933.0</ele><time>2026-04-27T14:41:24Z</time></trkpt><trkpt lat="45.91818798806677" lon="9.444315005518774"><ele>932.8333333333334</ele><time>2026-04-27T14:41:26Z</time></trkpt><trkpt lat="45.91823571421754" lon="9.444406612908317"><ele>932.6666666666667</ele><time>2026-04-27T14:41:28.001Z</time></trkpt><trkpt lat="45.91827792216615" lon="9.444490853336433"><ele>932.5</ele><time>2026-04-27T14:41:30.001Z</time></trkpt><trkpt lat="45.918328069481205" lon="9.444603178439573"><ele>932.3333333333334</ele><time>2026-04-27T14:41:32.001Z</time></trkpt><trkpt lat="45.91835174503162" lon="9.444747381180058"><ele>932.1666666666667</ele><time>2026-04-27T14:41:34.001Z</time></trkpt><trkpt lat="45.91836286341906" lon="9.44484418610338"><ele>932.0</ele><time>2026-04-27T14:41:36.001Z</time></trkpt><trkpt lat="45.91836594707648" lon="9.44494830396635"><ele>931.6</ele><time>2026-04-27T14:41:38.001Z</time></trkpt><trkpt lat="45.918371589428084" lon="9.445041674154593"><ele>931.2</ele><time>2026-04-27T14:41:39.001Z</time></trkpt><trkpt lat="45.91838537017044" lon="9.4451940437395"><ele>930.8</ele><time>2026-04-27T14:41:41.001Z</time></trkpt><trkpt lat="45.91840573354388" lon="9.445394046880875"><ele>930.4</ele><time>2026-04-27T14:41:43.001Z</time></trkpt><trkpt lat="45.918417903950335" lon="9.445492416733922"><ele>930.0</ele><time>2026-04-27T14:41:45.001Z</time></trkpt><trkpt lat="45.91850202524951" lon="9.445623858731324"><ele>924.1666666666666</ele><time>2026-04-27T14:41:47.001Z</time></trkpt><trkpt lat="45.918557538128965" lon="9.445711896912831"><ele>918.3333333333333</ele><time>2026-04-27T14:41:48.001Z</time></trkpt><trkpt lat="45.918617437921725" lon="9.445794975904148"><ele>912.5</ele><time>2026-04-27T14:41:49Z</time></trkpt><trkpt lat="45.91866926483611" lon="9.445849888846075"><ele>906.6666666666666</ele><time>2026-04-27T14:41:50Z</time></trkpt><trkpt lat="45.918737171004075" lon="9.445926868958018"><ele>900.8333333333333</ele><time>2026-04-27T14:41:51Z</time></trkpt><trkpt lat="45.91878663047711" lon="9.446077865700886"><ele>895.0</ele><time>2026-04-27T14:41:53Z</time></trkpt><trkpt lat="45.918856047235984" lon="9.446176657694918"><ele>894.9999999999999</ele><time>2026-04-27T14:41:55Z</time></trkpt><trkpt lat="45.918896006454" lon="9.446291792020952"><ele>895.0</ele><time>2026-04-27T14:41:57Z</time></trkpt><trkpt lat="45.91896108126651" lon="9.44636423996483"><ele>895.0</ele><time>2026-04-27T14:41:58Z</time></trkpt><trkpt lat="45.919005659744634" lon="9.446433237615054"><ele>895.0</ele><time>2026-04-27T14:42:02Z</time></trkpt><trkpt lat="45.91906972414254" lon="9.446535596155352"><ele>894.9999999999999</ele><time>2026-04-27T14:42:04Z</time></trkpt><trkpt lat="45.91913290982068" lon="9.446601314986003"><ele>895.0</ele><time>2026-04-27T14:42:05Z</time></trkpt><trkpt lat="45.91916274339533" lon="9.446693909507887"><ele>895.4</ele><time>2026-04-27T14:42:07Z</time></trkpt><trkpt lat="45.91919322873801" lon="9.44678931269874"><ele>895.8</ele><time>2026-04-27T14:42:10Z</time></trkpt><trkpt lat="45.91922923068019" lon="9.446933024510015"><ele>896.2</ele><time>2026-04-27T14:42:12Z</time></trkpt><trkpt lat="45.9192594951431" lon="9.44703565588949"><ele>896.6</ele><time>2026-04-27T14:42:14Z</time></trkpt><trkpt lat="45.91936740034762" lon="9.447066829953068"><ele>897.0</ele><time>2026-04-27T14:42:16Z</time></trkpt><trkpt lat="45.919414889033696" lon="9.447191858392271"><ele>892.8333333333334</ele><time>2026-04-27T14:42:18Z</time></trkpt><trkpt lat="45.91944424577441" lon="9.447326699876493"><ele>888.6666666666667</ele><time>2026-04-27T14:42:20Z</time></trkpt><trkpt lat="45.919449251691" lon="9.447424766175574"><ele>884.5</ele><time>2026-04-27T14:42:22Z</time></trkpt><trkpt lat="45.91949933638078" lon="9.447545894946286"><ele>880.3333333333334</ele><time>2026-04-27T14:42:24Z</time></trkpt><trkpt lat="45.9195078697432" lon="9.44766869304652"><ele>876.1666666666667</ele><time>2026-04-27T14:42:25Z</time></trkpt><trkpt lat="45.919577330986456" lon="9.447676627028954"><ele>872.0</ele><time>2026-04-27T14:42:32Z</time></trkpt><trkpt lat="45.91963055284687" lon="9.447788103254034"><ele>872.0</ele><time>2026-04-27T14:42:41Z</time></trkpt><trkpt lat="45.91965277790137" lon="9.447880531367673"><ele>872.0</ele><time>2026-04-27T14:42:43Z</time></trkpt><trkpt lat="45.919675316001936" lon="9.447984873792565"><ele>872.0</ele><time>2026-04-27T14:43:35Z</time></trkpt><trkpt lat="45.91976198953384" lon="9.448018904925663"><ele>872.0</ele><time>2026-04-27T14:43:37Z</time></trkpt><trkpt lat="45.91986068780033" lon="9.44810084889293"><ele>872.0</ele><time>2026-04-27T14:43:39Z</time></trkpt><trkpt lat="45.91967733045072" lon="9.448053518893314"><ele>871.7142857142858</ele><time>2026-04-27T14:43:40Z</time></trkpt><trkpt lat="45.91972656179213" lon="9.448121407515767"><ele>871.4285714285714</ele><time>2026-04-27T14:43:46Z</time></trkpt><trkpt lat="45.91963639831045" lon="9.44808147032527"><ele>871.1428571428571</ele><time>2026-04-27T14:43:49Z</time></trkpt><trkpt lat="45.91961977394781" lon="9.447985118615755"><ele>870.8571428571429</ele><time>2026-04-27T14:43:55Z</time></trkpt><trkpt lat="45.91964997633756" lon="9.448087416469557"><ele>870.5714285714286</ele><time>2026-04-27T14:44:16Z</time></trkpt><trkpt lat="45.91971421607542" lon="9.448072244065585"><ele>870.2857142857143</ele><time>2026-04-27T14:44:24Z</time></trkpt><trkpt lat="45.919739737571874" lon="9.448165479359954"><ele>870.0</ele><time>2026-04-27T14:44:26Z</time></trkpt><trkpt lat="45.91976831793649" lon="9.44825899444078"><ele>870.0</ele><time>2026-04-27T14:44:36Z</time></trkpt><trkpt lat="45.919829733347676" lon="9.448338392435833"><ele>870.0</ele><time>2026-04-27T14:44:39Z</time></trkpt><trkpt lat="45.919897034422384" lon="9.448394691483385"><ele>870.0</ele><time>2026-04-27T14:44:53Z</time></trkpt><trkpt lat="45.91995265806905" lon="9.448482406369177"><ele>870.0</ele><time>2026-04-27T14:45:01Z</time></trkpt><trkpt lat="45.91999667124632" lon="9.44862398429464"><ele>870.0</ele><time>2026-04-27T14:45:05Z</time></trkpt><trkpt lat="45.92000581535248" lon="9.448736575547485"><ele>870.0</ele><time>2026-04-27T14:45:08Z</time></trkpt><trkpt lat="45.92004403628772" lon="9.448828284598449"><ele>861.8333333333334</ele><time>2026-04-27T14:45:13Z</time></trkpt><trkpt lat="45.92008506515543" lon="9.448944603362852"><ele>853.6666666666667</ele><time>2026-04-27T14:45:16Z</time></trkpt><trkpt lat="45.92009469787712" lon="9.449080962445066"><ele>845.5</ele><time>2026-04-27T14:45:19Z</time></trkpt><trkpt lat="45.920121185030126" lon="9.449187663012228"><ele>837.3333333333334</ele><time>2026-04-27T14:45:21Z</time></trkpt><trkpt lat="45.920113924270495" lon="9.449311427284618"><ele>829.1666666666667</ele><time>2026-04-27T14:45:24Z</time></trkpt><trkpt lat="45.92009702605345" lon="9.44943569170754"><ele>821.0</ele><time>2026-04-27T14:45:26Z</time></trkpt><trkpt lat="45.920159786894736" lon="9.44957142210542"><ele>821.1666666666667</ele><time>2026-04-27T14:45:28Z</time></trkpt><trkpt lat="45.92021638438943" lon="9.44966121243242"><ele>821.3333333333334</ele><time>2026-04-27T14:45:30Z</time></trkpt><trkpt lat="45.9202879098051" lon="9.449777828265558"><ele>821.5</ele><time>2026-04-27T14:45:32Z</time></trkpt><trkpt lat="45.92036109981616" lon="9.44986619193987"><ele>821.6666666666667</ele><time>2026-04-27T14:45:35Z</time></trkpt><trkpt lat="45.92040891593788" lon="9.449930642458057"><ele>821.8333333333334</ele><time>2026-04-27T14:45:37Z</time></trkpt><trkpt lat="45.92044090765249" lon="9.450025466341469"><ele>822.0</ele><time>2026-04-27T14:45:40Z</time></trkpt><trkpt lat="45.920480323032756" lon="9.45014685729048"><ele>822.0</ele><time>2026-04-27T14:45:43Z</time></trkpt><trkpt lat="45.92051996319004" lon="9.450230364777317"><ele>822.0</ele><time>2026-04-27T14:45:45Z</time></trkpt><trkpt lat="45.920543925405894" lon="9.450337952254765"><ele>822.0</ele><time>2026-04-27T14:45:47Z</time></trkpt><trkpt lat="45.92059048909226" lon="9.450405462923268"><ele>822.0</ele><time>2026-04-27T14:45:49Z</time></trkpt><trkpt lat="45.92061680483721" lon="9.450504424205722"><ele>822.0</ele><time>2026-04-27T14:45:51Z</time></trkpt><trkpt lat="45.92066507953025" lon="9.45057202315515"><ele>822.0</ele><time>2026-04-27T14:45:52Z</time></trkpt><trkpt lat="45.92065924696812" lon="9.450679454061332"><ele>822.0</ele><time>2026-04-27T14:45:55Z</time></trkpt><trkpt lat="45.920700270746124" lon="9.450759820760494"><ele>822.6666666666666</ele><time>2026-04-27T14:45:58Z</time></trkpt><trkpt lat="45.920754807013765" lon="9.450846220767847"><ele>823.3333333333333</ele><time>2026-04-27T14:46:01Z</time></trkpt><trkpt lat="45.920739567439504" lon="9.450972972408177"><ele>824.0</ele><time>2026-04-27T14:46:03Z</time></trkpt><trkpt lat="45.92070459963949" lon="9.451102431087023"><ele>824.6666666666666</ele><time>2026-04-27T14:46:06Z</time></trkpt><trkpt lat="45.92071969543471" lon="9.451193836958263"><ele>825.3333333333333</ele><time>2026-04-27T14:46:09Z</time></trkpt><trkpt lat="45.92078658418297" lon="9.451218978837664"><ele>826.0</ele><time>2026-04-27T14:46:12Z</time></trkpt><trkpt lat="45.92086889532608" lon="9.451232709309025"><ele>823.6666666666666</ele><time>2026-04-27T14:46:13Z</time></trkpt><trkpt lat="45.92095678276151" lon="9.451228414581758"><ele>821.3333333333333</ele><time>2026-04-27T14:46:14Z</time></trkpt><trkpt lat="45.92101900678013" lon="9.451277716416826"><ele>819.0</ele><time>2026-04-27T14:46:15Z</time></trkpt><trkpt lat="45.92114569661264" lon="9.451293736781905"><ele>816.6666666666667</ele><time>2026-04-27T14:46:17Z</time></trkpt><trkpt lat="45.92116269498928" lon="9.451189558265188"><ele>814.3333333333334</ele><time>2026-04-27T14:46:18Z</time></trkpt><trkpt lat="45.921191319145656" lon="9.451104913822046"><ele>812.0</ele><time>2026-04-27T14:46:19Z</time></trkpt><trkpt lat="45.92123139804737" lon="9.450975228638484"><ele>811.2</ele><time>2026-04-27T14:46:21Z</time></trkpt><trkpt lat="45.92126663987595" lon="9.45081753610423"><ele>810.4000000000001</ele><time>2026-04-27T14:46:23Z</time></trkpt><trkpt lat="45.92128991443997" lon="9.450680223221154"><ele>809.5999999999999</ele><time>2026-04-27T14:46:25Z</time></trkpt><trkpt lat="45.92129914814512" lon="9.45054069212991"><ele>808.8</ele><time>2026-04-27T14:46:27Z</time></trkpt><trkpt lat="45.92131974443596" lon="9.450435039431815"><ele>808.0</ele><time>2026-04-27T14:46:29Z</time></trkpt><trkpt lat="45.921333807390944" lon="9.450344043517328"><ele>807.4285714285714</ele><time>2026-04-27T14:46:31Z</time></trkpt><trkpt lat="45.92135248466297" lon="9.450229666904946"><ele>806.8571428571429</ele><time>2026-04-27T14:46:34Z</time></trkpt><trkpt lat="45.921367836703915" lon="9.45013803512254"><ele>806.2857142857142</ele><time>2026-04-27T14:46:36Z</time></trkpt><trkpt lat="45.921386903728134" lon="9.450042826302473"><ele>805.7142857142858</ele><time>2026-04-27T14:46:40Z</time></trkpt><trkpt lat="45.92140728750505" lon="9.449945118754954"><ele>805.1428571428572</ele><time>2026-04-27T14:46:47Z</time></trkpt><trkpt lat="45.92146594986595" lon="9.449888273150675"><ele>804.5714285714286</ele><time>2026-04-27T14:49:05Z</time></trkpt><trkpt lat="45.921544044805636" lon="9.449887843218143"><ele>804.0</ele><time>2026-04-27T14:49:11Z</time></trkpt><trkpt lat="45.921598690033264" lon="9.449839989001182"><ele>804.0</ele><time>2026-04-27T14:49:48Z</time></trkpt><trkpt lat="45.92166173687788" lon="9.449807993192639"><ele>804.0</ele><time>2026-04-27T14:49:52Z</time></trkpt><trkpt lat="45.92173535784652" lon="9.449785582144894"><ele>804.0</ele><time>2026-04-27T14:49:55Z</time></trkpt><trkpt lat="45.92181913634382" lon="9.449778120789905"><ele>804.0</ele><time>2026-04-27T14:49:58Z</time></trkpt><trkpt lat="45.921903504883886" lon="9.449841769450424"><ele>804.0</ele><time>2026-04-27T14:50:00Z</time></trkpt><trkpt lat="45.92196984567452" lon="9.449837153377574"><ele>804.0</ele><time>2026-04-27T14:50:02Z</time></trkpt><trkpt lat="45.92206995323767" lon="9.449833332486289"><ele>804.0</ele><time>2026-04-27T14:50:05Z</time></trkpt><trkpt lat="45.92216163183808" lon="9.44983231033208"><ele>804.0</ele><time>2026-04-27T14:50:08Z</time></trkpt><trkpt lat="45.922243171586615" lon="9.449718929400428"><ele>804.0</ele><time>2026-04-27T14:50:10Z</time></trkpt><trkpt lat="45.922316917652346" lon="9.449659593474937"><ele>804.0</ele><time>2026-04-27T14:50:13Z</time></trkpt><trkpt lat="45.922390326565974" lon="9.44959002035784"><ele>804.0</ele><time>2026-04-27T14:50:16Z</time></trkpt><trkpt lat="45.92244396401334" lon="9.449506257277687"><ele>803.5</ele><time>2026-04-27T14:50:19Z</time></trkpt><trkpt lat="45.92250597261732" lon="9.449467417281253"><ele>803.0</ele><time>2026-04-27T14:50:21Z</time></trkpt><trkpt lat="45.92256780635645" lon="9.449424794580313"><ele>802.5</ele><time>2026-04-27T14:50:23Z</time></trkpt><trkpt lat="45.92264966912763" lon="9.44938943471581"><ele>802.0</ele><time>2026-04-27T14:50:25Z</time></trkpt><trkpt lat="45.92274912973286" lon="9.449349008657693"><ele>801.5</ele><time>2026-04-27T14:50:27Z</time></trkpt><trkpt lat="45.92282112051891" lon="9.44932428246616"><ele>801.0</ele><time>2026-04-27T14:50:30Z</time></trkpt><trkpt lat="45.92288895196273" lon="9.449291730710053"><ele>799.1666666666666</ele><time>2026-04-27T14:50:38Z</time></trkpt><trkpt lat="45.922959444465555" lon="9.449269558652645"><ele>797.3333333333333</ele><time>2026-04-27T14:50:40Z</time></trkpt><trkpt lat="45.92302243003428" lon="9.449290802484983"><ele>795.5</ele><time>2026-04-27T14:50:42Z</time></trkpt><trkpt lat="45.923042927439475" lon="9.449429909692634"><ele>793.6666666666666</ele><time>2026-04-27T14:50:44Z</time></trkpt><trkpt lat="45.9230699694689" lon="9.449516176309418"><ele>791.8333333333333</ele><time>2026-04-27T14:50:45Z</time></trkpt><trkpt lat="45.923088438553364" lon="9.4496509036765"><ele>790.0</ele><time>2026-04-27T14:50:47Z</time></trkpt><trkpt lat="45.923102358823286" lon="9.449753887264222"><ele>790.0</ele><time>2026-04-27T14:50:48Z</time></trkpt><trkpt lat="45.923111720972805" lon="9.449875807617072"><ele>790.0</ele><time>2026-04-27T14:50:51Z</time></trkpt><trkpt lat="45.92312841765269" lon="9.449967811433556"><ele>790.0</ele><time>2026-04-27T14:50:52Z</time></trkpt><trkpt lat="45.923195555922234" lon="9.450116901523021"><ele>790.0</ele><time>2026-04-27T14:50:54Z</time></trkpt><trkpt lat="45.92324141515971" lon="9.45020260852901"><ele>790.0</ele><time>2026-04-27T14:50:55Z</time></trkpt><trkpt lat="45.92333574972301" lon="9.45026354102667"><ele>787.2</ele><time>2026-04-27T14:50:57Z</time></trkpt><trkpt lat="45.923478440658876" lon="9.45033668749216"><ele>784.4</ele><time>2026-04-27T14:50:59Z</time></trkpt><trkpt lat="45.9235651527756" lon="9.450351705828469"><ele>781.5999999999999</ele><time>2026-04-27T14:51:00Z</time></trkpt><trkpt lat="45.92363750440404" lon="9.45040219181032"><ele>778.8</ele><time>2026-04-27T14:51:01Z</time></trkpt><trkpt lat="45.92371784925685" lon="9.450426507009999"><ele>776.0</ele><time>2026-04-27T14:51:02Z</time></trkpt><trkpt lat="45.923831584311394" lon="9.450453974286651"><ele>776.0000000000001</ele><time>2026-04-27T14:51:04Z</time></trkpt><trkpt lat="45.92393004836875" lon="9.450377981551364"><ele>776.0</ele><time>2026-04-27T14:51:06Z</time></trkpt><trkpt lat="45.923958361262116" lon="9.450247223232456"><ele>776.0</ele><time>2026-04-27T14:51:07Z</time></trkpt><trkpt lat="45.92398553644916" lon="9.450139467046704"><ele>776.0</ele><time>2026-04-27T14:51:08Z</time></trkpt><trkpt lat="45.9240171836137" lon="9.450033559568773"><ele>776.0000000000001</ele><time>2026-04-27T14:51:09Z</time></trkpt><trkpt lat="45.92403465569086" lon="9.44992799589644"><ele>776.0</ele><time>2026-04-27T14:51:10Z</time></trkpt><trkpt lat="45.9240766209872" lon="9.449782495266344"><ele>776.0000000000001</ele><time>2026-04-27T14:51:12Z</time></trkpt><trkpt lat="45.92410265834699" lon="9.449680450884784"><ele>776.0</ele><time>2026-04-27T14:51:14Z</time></trkpt><trkpt lat="45.92415968305873" lon="9.449588477345468"><ele>776.0</ele><time>2026-04-27T14:51:18Z</time></trkpt><trkpt lat="45.92420489276684" lon="9.449516701062795"><ele>776.0</ele><time>2026-04-27T14:51:19Z</time></trkpt><trkpt lat="45.924206306539126" lon="9.449377813335847"><ele>776.0000000000001</ele><time>2026-04-27T14:51:20Z</time></trkpt><trkpt lat="45.92420497463791" lon="9.449224349143506"><ele>776.0</ele><time>2026-04-27T14:51:21Z</time></trkpt><trkpt lat="45.92420859086888" lon="9.449046401053163"><ele>775.25</ele><time>2026-04-27T14:51:22Z</time></trkpt><trkpt lat="45.92422059306422" lon="9.448889102288163"><ele>774.5</ele><time>2026-04-27T14:51:23Z</time></trkpt><trkpt lat="45.92422690741681" lon="9.448683688743998"><ele>773.75</ele><time>2026-04-27T14:51:24Z</time></trkpt><trkpt lat="45.924242495928624" lon="9.448505171267474"><ele>773.0</ele><time>2026-04-27T14:51:25Z</time></trkpt><trkpt lat="45.924268679709314" lon="9.448340952413186"><ele>763.75</ele><time>2026-04-27T14:51:26Z</time></trkpt><trkpt lat="45.92426828958371" lon="9.448167490585485"><ele>754.5</ele><time>2026-04-27T14:51:27Z</time></trkpt><trkpt lat="45.92424489674399" lon="9.448024603235824"><ele>745.25</ele><time>2026-04-27T14:51:28Z</time></trkpt><trkpt lat="45.924266197578184" lon="9.447821457622013"><ele>736.0</ele><time>2026-04-27T14:51:29Z</time></trkpt><trkpt lat="45.92427893058613" lon="9.447648281326304"><ele>736.0</ele><time>2026-04-27T14:51:30Z</time></trkpt><trkpt lat="45.92426018511645" lon="9.447472678651573"><ele>736.0</ele><time>2026-04-27T14:51:31Z</time></trkpt><trkpt lat="45.92423926199521" lon="9.44729285374624"><ele>736.0</ele><time>2026-04-27T14:51:32Z</time></trkpt><trkpt lat="45.92420297016787" lon="9.447116526403446"><ele>736.0</ele><time>2026-04-27T14:51:33Z</time></trkpt><trkpt lat="45.92415852101897" lon="9.446953178543163"><ele>744.25</ele><time>2026-04-27T14:51:34Z</time></trkpt><trkpt lat="45.924099900622" lon="9.446787351524693"><ele>752.5</ele><time>2026-04-27T14:51:35Z</time></trkpt><trkpt lat="45.92403061140654" lon="9.446631048516757"><ele>760.75</ele><time>2026-04-27T14:51:36Z</time></trkpt><trkpt lat="45.923938948817444" lon="9.44649958188564"><ele>769.0</ele><time>2026-04-27T14:51:37Z</time></trkpt><trkpt lat="45.92383404366189" lon="9.4463588807111"><ele>768.5</ele><time>2026-04-27T14:51:38Z</time></trkpt><trkpt lat="45.92372327723089" lon="9.446230110055998"><ele>768.0</ele><time>2026-04-27T14:51:39Z</time></trkpt><trkpt lat="45.92361158240581" lon="9.446120108306951"><ele>767.5</ele><time>2026-04-27T14:51:40Z</time></trkpt><trkpt lat="45.92350934236484" lon="9.445984190198327"><ele>767.0</ele><time>2026-04-27T14:51:41Z</time></trkpt><trkpt lat="45.92338527592892" lon="9.445844192949552"><ele>767.0</ele><time>2026-04-27T14:51:42Z</time></trkpt><trkpt lat="45.92324921632386" lon="9.44572443140414"><ele>767.0</ele><time>2026-04-27T14:51:43Z</time></trkpt><trkpt lat="45.92313782117316" lon="9.445557618210232"><ele>767.0</ele><time>2026-04-27T14:51:44Z</time></trkpt><trkpt lat="45.92306416431601" lon="9.445392300246253"><ele>762.8</ele><time>2026-04-27T14:51:45Z</time></trkpt><trkpt lat="45.92298233136062" lon="9.445230107459873"><ele>758.6</ele><time>2026-04-27T14:51:46Z</time></trkpt><trkpt lat="45.92291992548715" lon="9.445093665696627"><ele>754.4</ele><time>2026-04-27T14:51:47Z</time></trkpt><trkpt lat="45.92290428231179" lon="9.444992035837984"><ele>750.1999999999999</ele><time>2026-04-27T14:51:48Z</time></trkpt><trkpt lat="45.9228199467655" lon="9.444868758248028"><ele>746.0</ele><time>2026-04-27T14:51:49Z</time></trkpt><trkpt lat="45.92275323859829" lon="9.444724060502248"><ele>748.25</ele><time>2026-04-27T14:51:50Z</time></trkpt><trkpt lat="45.92268671829432" lon="9.44457982854096"><ele>750.5</ele><time>2026-04-27T14:51:51Z</time></trkpt><trkpt lat="45.92261072409358" lon="9.4444411314413"><ele>752.75</ele><time>2026-04-27T14:51:52Z</time></trkpt><trkpt lat="45.92254218431209" lon="9.444303169577333"><ele>755.0</ele><time>2026-04-27T14:51:53Z</time></trkpt><trkpt lat="45.92246774565701" lon="9.44416677437766"><ele>755.0</ele><time>2026-04-27T14:51:54Z</time></trkpt><trkpt lat="45.92240230234622" lon="9.444053123609116"><ele>755.0</ele><time>2026-04-27T14:51:55Z</time></trkpt><trkpt lat="45.92231179355408" lon="9.443962544515308"><ele>755.0</ele><time>2026-04-27T14:51:56Z</time></trkpt><trkpt lat="45.9222254161682" lon="9.443902265603839"><ele>755.0</ele><time>2026-04-27T14:51:57Z</time></trkpt><trkpt lat="45.92209130867655" lon="9.443893307997032"><ele>755.0</ele><time>2026-04-27T14:51:58Z</time></trkpt><trkpt lat="45.92196365210569" lon="9.443901158030082"><ele>755.0</ele><time>2026-04-27T14:51:59Z</time></trkpt><trkpt lat="45.92184600282249" lon="9.443906272435825"><ele>755.0</ele><time>2026-04-27T14:52:00Z</time></trkpt><trkpt lat="45.921766205773295" lon="9.443897283565654"><ele>755.0</ele><time>2026-04-27T14:52:01Z</time></trkpt><trkpt lat="45.921741222489956" lon="9.443786385144897"><ele>755.0</ele><time>2026-04-27T14:52:02Z</time></trkpt><trkpt lat="45.92169534958229" lon="9.443663116648137"><ele>755.0</ele><time>2026-04-27T14:52:04Z</time></trkpt><trkpt lat="45.921662136950424" lon="9.443521487711454"><ele>757.6666666666666</ele><time>2026-04-27T14:52:05Z</time></trkpt><trkpt lat="45.92169275346824" lon="9.443334712623495"><ele>760.3333333333334</ele><time>2026-04-27T14:52:06Z</time></trkpt><trkpt lat="45.92174456367209" lon="9.44308000734958"><ele>763.0</ele><time>2026-04-27T14:52:07Z</time></trkpt><trkpt lat="45.921781388394685" lon="9.442892296933136"><ele>757.2</ele><time>2026-04-27T14:52:08Z</time></trkpt><trkpt lat="45.92179664351694" lon="9.442757538716792"><ele>751.4</ele><time>2026-04-27T14:52:09Z</time></trkpt><trkpt lat="45.921801002447886" lon="9.44258845659706"><ele>745.6</ele><time>2026-04-27T14:52:10Z</time></trkpt><trkpt lat="45.92179490434087" lon="9.442395017161752"><ele>739.8000000000001</ele><time>2026-04-27T14:52:11Z</time></trkpt><trkpt lat="45.92174612217916" lon="9.442271981578884"><ele>734.0</ele><time>2026-04-27T14:52:12Z</time></trkpt><trkpt lat="45.921703805487354" lon="9.442080999861384"><ele>734.0</ele><time>2026-04-27T14:52:13Z</time></trkpt><trkpt lat="45.92166695123453" lon="9.44191018287706"><ele>734.0</ele><time>2026-04-27T14:52:14Z</time></trkpt><trkpt lat="45.92164542081018" lon="9.441742400623378"><ele>734.0</ele><time>2026-04-27T14:52:15Z</time></trkpt><trkpt lat="45.921636888011214" lon="9.44162412940838"><ele>734.0</ele><time>2026-04-27T14:52:16Z</time></trkpt><trkpt lat="45.92152809960139" lon="9.441761872659976"><ele>734.0</ele><time>2026-04-27T14:52:19.999Z</time></trkpt><trkpt lat="45.92144022545135" lon="9.441945171251097"><ele>734.0</ele><time>2026-04-27T14:52:20.999Z</time></trkpt><trkpt lat="45.921322974535514" lon="9.442136193174738"><ele>734.0</ele><time>2026-04-27T14:52:21.999Z</time></trkpt><trkpt lat="45.921365591762715" lon="9.440537431973166"><ele>732.4000000000001</ele><time>2026-04-27T14:52:22.999Z</time></trkpt><trkpt lat="45.9213138949445" lon="9.440385901017176"><ele>730.8</ele><time>2026-04-27T14:52:23.999Z</time></trkpt><trkpt lat="45.921267387673794" lon="9.440254496014324"><ele>729.2</ele><time>2026-04-27T14:52:24.999Z</time></trkpt><trkpt lat="45.92121886335383" lon="9.440115954989585"><ele>727.5999999999999</ele><time>2026-04-27T14:52:25.999Z</time></trkpt><trkpt lat="45.921184802494466" lon="9.439964097183921"><ele>726.0</ele><time>2026-04-27T14:52:26.999Z</time></trkpt><trkpt lat="45.9211435531026" lon="9.439835879324416"><ele>726.0</ele><time>2026-04-27T14:52:27.999Z</time></trkpt><trkpt lat="45.921106121258134" lon="9.439740105234671"><ele>726.0</ele><time>2026-04-27T14:52:28.999Z</time></trkpt><trkpt lat="45.92106100852207" lon="9.439645872571186"><ele>726.0</ele><time>2026-04-27T14:52:30Z</time></trkpt><trkpt lat="45.92102440332005" lon="9.439540808499425"><ele>726.0</ele><time>2026-04-27T14:52:31Z</time></trkpt><trkpt lat="45.92105544465997" lon="9.439395124256183"><ele>726.0</ele><time>2026-04-27T14:52:33Z</time></trkpt><trkpt lat="45.92107367357278" lon="9.439234481491948"><ele>726.0</ele><time>2026-04-27T14:52:35Z</time></trkpt><trkpt lat="45.92102588653709" lon="9.439145765836916"><ele>726.0</ele><time>2026-04-27T14:52:36Z</time></trkpt><trkpt lat="45.9209618640591" lon="9.439071734797745"><ele>726.0</ele><time>2026-04-27T14:52:37Z</time></trkpt><trkpt lat="45.920896822799264" lon="9.439016325434178"><ele>726.0</ele><time>2026-04-27T14:52:38Z</time></trkpt><trkpt lat="45.920828263970805" lon="9.438939774564595"><ele>726.0</ele><time>2026-04-27T14:52:39Z</time></trkpt><trkpt lat="45.92076622735737" lon="9.438835096277465"><ele>726.0</ele><time>2026-04-27T14:52:40Z</time></trkpt><trkpt lat="45.920686309751545" lon="9.438767655024012"><ele>726.8</ele><time>2026-04-27T14:52:41Z</time></trkpt><trkpt lat="45.92062012135037" lon="9.438658712563974"><ele>727.5999999999999</ele><time>2026-04-27T14:52:42Z</time></trkpt><trkpt lat="45.92054210347377" lon="9.438550990290354"><ele>728.4</ele><time>2026-04-27T14:52:43Z</time></trkpt><trkpt lat="45.9204610189144" lon="9.43843031900533"><ele>729.2</ele><time>2026-04-27T14:52:44Z</time></trkpt><trkpt lat="45.92037814225882" lon="9.43832439505712"><ele>730.0</ele><time>2026-04-27T14:52:45Z</time></trkpt><trkpt lat="45.92026179338073" lon="9.438214917436344"><ele>730.0</ele><time>2026-04-27T14:52:46Z</time></trkpt><trkpt lat="45.920168874411026" lon="9.43810559592798"><ele>730.0</ele><time>2026-04-27T14:52:47Z</time></trkpt><trkpt lat="45.920060461758105" lon="9.437999037760417"><ele>730.0</ele><time>2026-04-27T14:52:48Z</time></trkpt><trkpt lat="45.91995875822131" lon="9.43787637038717"><ele>730.0</ele><time>2026-04-27T14:52:49Z</time></trkpt><trkpt lat="45.91984467253237" lon="9.437764748236269"><ele>729.25</ele><time>2026-04-27T14:52:50Z</time></trkpt><trkpt lat="45.91972080833201" lon="9.437633581006361"><ele>728.5</ele><time>2026-04-27T14:52:51Z</time></trkpt><trkpt lat="45.91959303151646" lon="9.437538720801085"><ele>727.75</ele><time>2026-04-27T14:52:52Z</time></trkpt><trkpt lat="45.919462214286426" lon="9.437440219652546"><ele>727.0</ele><time>2026-04-27T14:52:53Z</time></trkpt><trkpt lat="45.91934159698641" lon="9.437335078117343"><ele>727.5</ele><time>2026-04-27T14:52:54Z</time></trkpt><trkpt lat="45.91921395060785" lon="9.437239328354053"><ele>728.0</ele><time>2026-04-27T14:52:55Z</time></trkpt><trkpt lat="45.919089490976084" lon="9.437137826152199"><ele>728.5</ele><time>2026-04-27T14:52:56Z</time></trkpt><trkpt lat="45.91896941791954" lon="9.437041277222855"><ele>729.0</ele><time>2026-04-27T14:52:57Z</time></trkpt><trkpt lat="45.918831732119635" lon="9.436958372233141"><ele>727.5</ele><time>2026-04-27T14:52:58Z</time></trkpt><trkpt lat="45.91870273743639" lon="9.436856846991107"><ele>726.0</ele><time>2026-04-27T14:52:59Z</time></trkpt><trkpt lat="45.91857913513699" lon="9.436757433807422"><ele>724.5</ele><time>2026-04-27T14:53:00Z</time></trkpt><trkpt lat="45.91845882508656" lon="9.436654123229307"><ele>723.0</ele><time>2026-04-27T14:53:01Z</time></trkpt><trkpt lat="45.918331247476615" lon="9.436547083714629"><ele>722.5</ele><time>2026-04-27T14:53:02Z</time></trkpt><trkpt lat="45.91821768570414" lon="9.436429684487104"><ele>722.0</ele><time>2026-04-27T14:53:03Z</time></trkpt><trkpt lat="45.91809667583309" lon="9.436353679578184"><ele>721.5</ele><time>2026-04-27T14:53:04Z</time></trkpt><trkpt lat="45.91796414039072" lon="9.436265392732457"><ele>721.0</ele><time>2026-04-27T14:53:05Z</time></trkpt><trkpt lat="45.91785180117962" lon="9.436170994596226"><ele>721.0</ele><time>2026-04-27T14:53:06Z</time></trkpt><trkpt lat="45.91774025516598" lon="9.436077227107154"><ele>721.0</ele><time>2026-04-27T14:53:07Z</time></trkpt><trkpt lat="45.9176303123829" lon="9.435986400521553"><ele>721.0</ele><time>2026-04-27T14:53:08Z</time></trkpt><trkpt lat="45.91751940139778" lon="9.435896019413624"><ele>721.0</ele><time>2026-04-27T14:53:09Z</time></trkpt><trkpt lat="45.91739921186471" lon="9.435808186062971"><ele>721.75</ele><time>2026-04-27T14:53:10Z</time></trkpt><trkpt lat="45.9172797057918" lon="9.435719670294187"><ele>722.5</ele><time>2026-04-27T14:53:11Z</time></trkpt><trkpt lat="45.917139662548095" lon="9.435606169983897"><ele>723.25</ele><time>2026-04-27T14:53:12Z</time></trkpt><trkpt lat="45.91701216702137" lon="9.435499803137613"><ele>724.0</ele><time>2026-04-27T14:53:13Z</time></trkpt><trkpt lat="45.91688766571964" lon="9.435396570972786"><ele>724.0</ele><time>2026-04-27T14:53:14Z</time></trkpt><trkpt lat="45.916750412973165" lon="9.43528951424442"><ele>724.0</ele><time>2026-04-27T14:53:15Z</time></trkpt><trkpt lat="45.916623467107904" lon="9.435188866420122"><ele>724.0</ele><time>2026-04-27T14:53:16Z</time></trkpt><trkpt lat="45.91649756247996" lon="9.435086113437489"><ele>724.0</ele><time>2026-04-27T14:53:17Z</time></trkpt><trkpt lat="45.916363294491674" lon="9.434982299149933"><ele>725.0</ele><time>2026-04-27T14:53:18Z</time></trkpt><trkpt lat="45.91622910187233" lon="9.434878818192676"><ele>726.0</ele><time>2026-04-27T14:53:19Z</time></trkpt><trkpt lat="45.91609211221735" lon="9.434802257724149"><ele>727.0</ele><time>2026-04-27T14:53:20Z</time></trkpt><trkpt lat="45.91597137033858" lon="9.434686899006016"><ele>728.0</ele><time>2026-04-27T14:53:21Z</time></trkpt><trkpt lat="45.915857897937634" lon="9.434587534270133"><ele>728.0</ele><time>2026-04-27T14:53:22Z</time></trkpt><trkpt lat="45.915742687403885" lon="9.434493280243702"><ele>728.0</ele><time>2026-04-27T14:53:23Z</time></trkpt><trkpt lat="45.915630091829" lon="9.434416327672764"><ele>728.0</ele><time>2026-04-27T14:53:24Z</time></trkpt><trkpt lat="45.915531054144495" lon="9.43434962948827"><ele>728.0</ele><time>2026-04-27T14:53:25Z</time></trkpt><trkpt lat="45.91545551154336" lon="9.43429356657217"><ele>728.0</ele><time>2026-04-27T14:53:26Z</time></trkpt><trkpt lat="45.91539954731254" lon="9.434233735000491"><ele>728.0</ele><time>2026-04-27T14:53:27Z</time></trkpt><trkpt lat="45.91536354994648" lon="9.434150878188957"><ele>728.0</ele><time>2026-04-27T14:53:29Z</time></trkpt><trkpt lat="45.915338369806804" lon="9.434053289698857"><ele>728.0</ele><time>2026-04-27T14:53:32Z</time></trkpt><trkpt lat="45.91532722858395" lon="9.433963133564129"><ele>728.0</ele><time>2026-04-27T14:53:45Z</time></trkpt><trkpt lat="45.91524772100452" lon="9.433937193023883"><ele>728.0</ele><time>2026-04-27T14:53:57Z</time></trkpt><trkpt lat="45.91515368292237" lon="9.433882337804889"><ele>728.0</ele><time>2026-04-27T14:53:59Z</time></trkpt><trkpt lat="45.915103593652674" lon="9.433805822241032"><ele>728.0</ele><time>2026-04-27T14:54:01Z</time></trkpt><trkpt lat="45.91502784758289" lon="9.433735480216725"><ele>728.0</ele><time>2026-04-27T14:54:02Z</time></trkpt><trkpt lat="45.91490282521988" lon="9.433727257144378"><ele>728.0</ele><time>2026-04-27T14:54:03Z</time></trkpt><trkpt lat="45.914784843575426" lon="9.43367800822533"><ele>728.0</ele><time>2026-04-27T14:54:04Z</time></trkpt><trkpt lat="45.91467068187966" lon="9.433578449667944"><ele>722.6666666666666</ele><time>2026-04-27T14:54:05Z</time></trkpt><trkpt lat="45.914507904930865" lon="9.43346007031011"><ele>717.3333333333334</ele><time>2026-04-27T14:54:06Z</time></trkpt><trkpt lat="45.91433669219056" lon="9.43334503150827"><ele>712.0</ele><time>2026-04-27T14:54:07Z</time></trkpt><trkpt lat="45.914184055213674" lon="9.433167559547869"><ele>712.6666666666667</ele><time>2026-04-27T14:54:08Z</time></trkpt><trkpt lat="45.91401851157869" lon="9.433062584635142"><ele>713.3333333333334</ele><time>2026-04-27T14:54:09Z</time></trkpt><trkpt lat="45.913833639592845" lon="9.432933393649787"><ele>714.0</ele><time>2026-04-27T14:54:10Z</time></trkpt><trkpt lat="45.913651503697096" lon="9.432810520551815"><ele>714.0</ele><time>2026-04-27T14:54:11Z</time></trkpt><trkpt lat="45.913461791495564" lon="9.432689701798147"><ele>714.0</ele><time>2026-04-27T14:54:12Z</time></trkpt><trkpt lat="45.913277058304466" lon="9.432572661446228"><ele>714.0</ele><time>2026-04-27T14:54:13Z</time></trkpt><trkpt lat="45.913076889989284" lon="9.432449438174814"><ele>711.6666666666666</ele><time>2026-04-27T14:54:14Z</time></trkpt><trkpt lat="45.91289907016752" lon="9.432331052207868"><ele>709.3333333333333</ele><time>2026-04-27T14:54:15Z</time></trkpt><trkpt lat="45.91271316359048" lon="9.432202114148183"><ele>707.0</ele><time>2026-04-27T14:54:16Z</time></trkpt><trkpt lat="45.91251777788348" lon="9.432080321265781"><ele>707.0</ele><time>2026-04-27T14:54:17Z</time></trkpt><trkpt lat="45.91233424948453" lon="9.431956124933395"><ele>707.0</ele><time>2026-04-27T14:54:18Z</time></trkpt><trkpt lat="45.91214576502117" lon="9.431836141286224"><ele>707.0</ele><time>2026-04-27T14:54:19Z</time></trkpt><trkpt lat="45.91196599784602" lon="9.43171266687328"><ele>707.0</ele><time>2026-04-27T14:54:20Z</time></trkpt><trkpt lat="45.91176919770052" lon="9.431590726026169"><ele>707.0</ele><time>2026-04-27T14:54:21Z</time></trkpt><trkpt lat="45.91158799933502" lon="9.431485028428396"><ele>707.0</ele><time>2026-04-27T14:54:22Z</time></trkpt><trkpt lat="45.911404738248635" lon="9.431375252635336"><ele>706.0</ele><time>2026-04-27T14:54:23Z</time></trkpt><trkpt lat="45.911204034890034" lon="9.431281824768083"><ele>705.0</ele><time>2026-04-27T14:54:24Z</time></trkpt><trkpt lat="45.910997608344154" lon="9.431201778968086"><ele>704.0</ele><time>2026-04-27T14:54:25Z</time></trkpt><trkpt lat="45.91078985652627" lon="9.431128324983435"><ele>704.0</ele><time>2026-04-27T14:54:26Z</time></trkpt><trkpt lat="45.91058758951797" lon="9.43105906699445"><ele>704.0</ele><time>2026-04-27T14:54:27Z</time></trkpt><trkpt lat="45.91038673313279" lon="9.43099329885846"><ele>704.0</ele><time>2026-04-27T14:54:28Z</time></trkpt><trkpt lat="45.910186188254" lon="9.430928198014431"><ele>703.0</ele><time>2026-04-27T14:54:29Z</time></trkpt><trkpt lat="45.909976567560214" lon="9.430870818370376"><ele>702.0</ele><time>2026-04-27T14:54:30Z</time></trkpt><trkpt lat="45.909777300503485" lon="9.430838005833422"><ele>701.0</ele><time>2026-04-27T14:54:31Z</time></trkpt><trkpt lat="45.909566962195896" lon="9.430789825045535"><ele>701.0</ele><time>2026-04-27T14:54:32Z</time></trkpt><trkpt lat="45.90936423019406" lon="9.430720716414351"><ele>701.0</ele><time>2026-04-27T14:54:33Z</time></trkpt><trkpt lat="45.90915796216093" lon="9.430629268815405"><ele>701.0</ele><time>2026-04-27T14:54:34Z</time></trkpt><trkpt lat="45.908918457446696" lon="9.430542097491491"><ele>711.5</ele><time>2026-04-27T14:54:35Z</time></trkpt><trkpt lat="45.90869302262864" lon="9.430433999988768"><ele>722.0</ele><time>2026-04-27T14:54:36Z</time></trkpt><trkpt lat="45.908438947704504" lon="9.430380996988076"><ele>717.0</ele><time>2026-04-27T14:54:37Z</time></trkpt><trkpt lat="45.90821488015562" lon="9.43031507564291"><ele>712.0</ele><time>2026-04-27T14:54:38Z</time></trkpt><trkpt lat="45.90798642875244" lon="9.430241304056365"><ele>712.0</ele><time>2026-04-27T14:54:39Z</time></trkpt><trkpt lat="45.90778314110882" lon="9.430173993479434"><ele>712.0</ele><time>2026-04-27T14:54:40Z</time></trkpt><trkpt lat="45.90757944777005" lon="9.430088591717764"><ele>712.0</ele><time>2026-04-27T14:54:41Z</time></trkpt><trkpt lat="45.907363976965875" lon="9.430003542123076"><ele>703.5</ele><time>2026-04-27T14:54:42Z</time></trkpt><trkpt lat="45.90713179531066" lon="9.429883390967822"><ele>695.0</ele><time>2026-04-27T14:54:43Z</time></trkpt><trkpt lat="45.90693337319271" lon="9.429731030525057"><ele>695.0</ele><time>2026-04-27T14:54:44Z</time></trkpt><trkpt lat="45.90672934829408" lon="9.429620985176403"><ele>695.0</ele><time>2026-04-27T14:54:45Z</time></trkpt><trkpt lat="45.90655682441087" lon="9.429527301289637"><ele>695.0</ele><time>2026-04-27T14:54:46Z</time></trkpt><trkpt lat="45.90636446670423" lon="9.429427872264915"><ele>695.0</ele><time>2026-04-27T14:54:47Z</time></trkpt><trkpt lat="45.906190293139844" lon="9.429325900419325"><ele>695.0</ele><time>2026-04-27T14:54:48Z</time></trkpt><trkpt lat="45.90603449209297" lon="9.429218037063546"><ele>695.0</ele><time>2026-04-27T14:54:49Z</time></trkpt><trkpt lat="45.905867908105144" lon="9.429120548045786"><ele>692.3333333333333</ele><time>2026-04-27T14:54:50Z</time></trkpt><trkpt lat="45.905693504358624" lon="9.429024943247589"><ele>689.6666666666666</ele><time>2026-04-27T14:54:51Z</time></trkpt><trkpt lat="45.905522944478896" lon="9.428918894143242"><ele>687.0</ele><time>2026-04-27T14:54:52Z</time></trkpt><trkpt lat="45.905354598865195" lon="9.428822698778395"><ele>687.0</ele><time>2026-04-27T14:54:53Z</time></trkpt><trkpt lat="45.905196626241334" lon="9.42872083805411"><ele>687.0</ele><time>2026-04-27T14:54:54Z</time></trkpt><trkpt lat="45.90501364506779" lon="9.428630081601995"><ele>687.0</ele><time>2026-04-27T14:54:55Z</time></trkpt><trkpt lat="45.90484852157842" lon="9.428540597863531"><ele>687.6666666666666</ele><time>2026-04-27T14:54:56Z</time></trkpt><trkpt lat="45.904671137512146" lon="9.428451471810288"><ele>688.3333333333333</ele><time>2026-04-27T14:54:57Z</time></trkpt><trkpt lat="45.90450358501023" lon="9.428357564614105"><ele>689.0</ele><time>2026-04-27T14:54:58Z</time></trkpt><trkpt lat="45.90433489088222" lon="9.428261180364593"><ele>690.6666666666666</ele><time>2026-04-27T14:54:59Z</time></trkpt><trkpt lat="45.904166064359664" lon="9.428170405733866"><ele>692.3333333333334</ele><time>2026-04-27T14:55:00Z</time></trkpt><trkpt lat="45.90399686297505" lon="9.428083162415712"><ele>694.0</ele><time>2026-04-27T14:55:01Z</time></trkpt><trkpt lat="45.90383867572862" lon="9.428002201435167"><ele>693.75</ele><time>2026-04-27T14:55:02Z</time></trkpt><trkpt lat="45.903713907726356" lon="9.427916680077159"><ele>693.5</ele><time>2026-04-27T14:55:03Z</time></trkpt><trkpt lat="45.90358230848431" lon="9.427851993398264"><ele>693.25</ele><time>2026-04-27T14:55:04Z</time></trkpt><trkpt lat="45.90346884822716" lon="9.427784919357755"><ele>693.0</ele><time>2026-04-27T14:55:05Z</time></trkpt><trkpt lat="45.90331345039226" lon="9.427686143810845"><ele>694.0</ele><time>2026-04-27T14:55:06Z</time></trkpt><trkpt lat="45.90315480783396" lon="9.427601337493329"><ele>695.0</ele><time>2026-04-27T14:55:07Z</time></trkpt><trkpt lat="45.902987753466675" lon="9.427524263721232"><ele>696.0</ele><time>2026-04-27T14:55:08Z</time></trkpt><trkpt lat="45.902813719686556" lon="9.427447320572997"><ele>696.0</ele><time>2026-04-27T14:55:09Z</time></trkpt><trkpt lat="45.90263455950391" lon="9.427378499593223"><ele>696.0</ele><time>2026-04-27T14:55:10Z</time></trkpt><trkpt lat="45.902453183844024" lon="9.427315658220396"><ele>696.0</ele><time>2026-04-27T14:55:11Z</time></trkpt><trkpt lat="45.902267856931275" lon="9.427276250237012"><ele>696.6666666666666</ele><time>2026-04-27T14:55:12Z</time></trkpt><trkpt lat="45.902082195880034" lon="9.427217692284477"><ele>697.3333333333333</ele><time>2026-04-27T14:55:13Z</time></trkpt><trkpt lat="45.90189858276695" lon="9.427166967279948"><ele>698.0</ele><time>2026-04-27T14:55:14Z</time></trkpt><trkpt lat="45.90173342003377" lon="9.427108158707659"><ele>699.0</ele><time>2026-04-27T14:55:15Z</time></trkpt><trkpt lat="45.90157294657248" lon="9.427061850262053"><ele>700.0</ele><time>2026-04-27T14:55:16Z</time></trkpt><trkpt lat="45.90141587937349" lon="9.427010964897594"><ele>701.0</ele><time>2026-04-27T14:55:17Z</time></trkpt><trkpt lat="45.90128062708206" lon="9.426967263445812"><ele>701.0</ele><time>2026-04-27T14:55:18Z</time></trkpt><trkpt lat="45.90110494604223" lon="9.426912584224919"><ele>701.0</ele><time>2026-04-27T14:55:19Z</time></trkpt><trkpt lat="45.900939101475466" lon="9.426875372376365"><ele>701.0</ele><time>2026-04-27T14:55:20Z</time></trkpt><trkpt lat="45.900777075470714" lon="9.426812501101978"><ele>701.0</ele><time>2026-04-27T14:55:21Z</time></trkpt><trkpt lat="45.90060143521331" lon="9.426759008503481"><ele>701.0</ele><time>2026-04-27T14:55:22Z</time></trkpt><trkpt lat="45.900424856453036" lon="9.426708261324247"><ele>701.0</ele><time>2026-04-27T14:55:23Z</time></trkpt><trkpt lat="45.9002764110602" lon="9.42664869140658"><ele>701.0</ele><time>2026-04-27T14:55:24Z</time></trkpt><trkpt lat="45.90014547703046" lon="9.426621724648145"><ele>701.0</ele><time>2026-04-27T14:55:25Z</time></trkpt><trkpt lat="45.89997840766528" lon="9.426590840814804"><ele>701.0</ele><time>2026-04-27T14:55:27Z</time></trkpt><trkpt lat="45.89983245381761" lon="9.426528835688552"><ele>700.25</ele><time>2026-04-27T14:55:28Z</time></trkpt><trkpt lat="45.899689380124315" lon="9.426489584649609"><ele>699.5</ele><time>2026-04-27T14:55:29Z</time></trkpt><trkpt lat="45.89956121717561" lon="9.426452003198827"><ele>698.75</ele><time>2026-04-27T14:55:30Z</time></trkpt><trkpt lat="45.899463837865795" lon="9.426414329976"><ele>698.0</ele><time>2026-04-27T14:55:31Z</time></trkpt><trkpt lat="45.89936915378094" lon="9.426405413488663"><ele>698.0</ele><time>2026-04-27T14:55:32Z</time></trkpt><trkpt lat="45.89927735903565" lon="9.426414570970499"><ele>698.0</ele><time>2026-04-27T14:55:33Z</time></trkpt><trkpt lat="45.89917771126579" lon="9.426376178504723"><ele>698.0</ele><time>2026-04-27T14:55:34Z</time></trkpt><trkpt lat="45.899061188622156" lon="9.426304521090012"><ele>698.0</ele><time>2026-04-27T14:55:35Z</time></trkpt><trkpt lat="45.89894428067592" lon="9.426233264230225"><ele>698.0</ele><time>2026-04-27T14:55:36Z</time></trkpt><trkpt lat="45.89881836928172" lon="9.426160630382363"><ele>696.0</ele><time>2026-04-27T14:55:37Z</time></trkpt><trkpt lat="45.89870106196029" lon="9.426090684012744"><ele>694.0</ele><time>2026-04-27T14:55:38Z</time></trkpt><trkpt lat="45.89859847722891" lon="9.426017678822584"><ele>692.0</ele><time>2026-04-27T14:55:39Z</time></trkpt><trkpt lat="45.89842107354756" lon="9.42593866635923"><ele>690.0</ele><time>2026-04-27T14:55:40Z</time></trkpt><trkpt lat="45.898259959081166" lon="9.425842139532241"><ele>689.0</ele><time>2026-04-27T14:55:41Z</time></trkpt><trkpt lat="45.898096391322234" lon="9.425753602417284"><ele>688.0</ele><time>2026-04-27T14:55:42Z</time></trkpt><trkpt lat="45.89789053094541" lon="9.425653587618882"><ele>687.0</ele><time>2026-04-27T14:55:43Z</time></trkpt><trkpt lat="45.89772332327009" lon="9.425548211172343"><ele>685.3333333333334</ele><time>2026-04-27T14:55:44Z</time></trkpt><trkpt lat="45.89755487642079" lon="9.425464000548125"><ele>683.6666666666667</ele><time>2026-04-27T14:55:45Z</time></trkpt><trkpt lat="45.89742125104405" lon="9.425392199689279"><ele>682.0</ele><time>2026-04-27T14:55:46Z</time></trkpt><trkpt lat="45.89730133343887" lon="9.425325271900222"><ele>682.0</ele><time>2026-04-27T14:55:47Z</time></trkpt><trkpt lat="45.897175391305076" lon="9.42526732550364"><ele>682.0</ele><time>2026-04-27T14:55:48Z</time></trkpt><trkpt lat="45.897066906435455" lon="9.425219841093138"><ele>682.0</ele><time>2026-04-27T14:55:49Z</time></trkpt><trkpt lat="45.89695074053828" lon="9.425194577876628"><ele>682.0</ele><time>2026-04-27T14:55:50Z</time></trkpt><trkpt lat="45.89685005535242" lon="9.425166816657631"><ele>682.0</ele><time>2026-04-27T14:55:51Z</time></trkpt><trkpt lat="45.89676834244835" lon="9.425147419368118"><ele>682.0</ele><time>2026-04-27T14:55:52Z</time></trkpt><trkpt lat="45.89668703637291" lon="9.42513229598372"><ele>682.0</ele><time>2026-04-27T14:55:53Z</time></trkpt><trkpt lat="45.89661615754249" lon="9.42515384741452"><ele>682.0</ele><time>2026-04-27T14:55:54Z</time></trkpt><trkpt lat="45.89649466511642" lon="9.425177111723668"><ele>682.0</ele><time>2026-04-27T14:55:56Z</time></trkpt><trkpt lat="45.89634353825384" lon="9.425156858234708"><ele>680.5</ele><time>2026-04-27T14:55:58Z</time></trkpt><trkpt lat="45.896265674113685" lon="9.42516057348702"><ele>679.0</ele><time>2026-04-27T14:55:59Z</time></trkpt><trkpt lat="45.896173011642425" lon="9.42521298754268"><ele>677.5</ele><time>2026-04-27T14:56:00Z</time></trkpt><trkpt lat="45.89603663995898" lon="9.425254712728771"><ele>676.0</ele><time>2026-04-27T14:56:01Z</time></trkpt><trkpt lat="45.89589099646887" lon="9.425318399377044"><ele>674.0</ele><time>2026-04-27T14:56:02Z</time></trkpt><trkpt lat="45.89572195677403" lon="9.425353513534384"><ele>672.0</ele><time>2026-04-27T14:56:03Z</time></trkpt><trkpt lat="45.895527987108224" lon="9.425375279318121"><ele>670.0</ele><time>2026-04-27T14:56:04Z</time></trkpt><trkpt lat="45.89530664827836" lon="9.425317722144777"><ele>670.0</ele><time>2026-04-27T14:56:05Z</time></trkpt><trkpt lat="45.89509375845603" lon="9.42534441622692"><ele>670.0</ele><time>2026-04-27T14:56:06Z</time></trkpt><trkpt lat="45.89486913689742" lon="9.42537258136447"><ele>670.0</ele><time>2026-04-27T14:56:07Z</time></trkpt><trkpt lat="45.894660653040205" lon="9.425400458004233"><ele>668.3333333333334</ele><time>2026-04-27T14:56:08Z</time></trkpt><trkpt lat="45.89445605871511" lon="9.425427180013788"><ele>666.6666666666666</ele><time>2026-04-27T14:56:09Z</time></trkpt><trkpt lat="45.894254523899214" lon="9.425465538652114"><ele>665.0</ele><time>2026-04-27T14:56:10Z</time></trkpt><trkpt lat="45.894047548006625" lon="9.425462957281777"><ele>664.0</ele><time>2026-04-27T14:56:11Z</time></trkpt><trkpt lat="45.89384920395353" lon="9.425433968535426"><ele>663.0</ele><time>2026-04-27T14:56:12Z</time></trkpt><trkpt lat="45.89365474566069" lon="9.425382758683037"><ele>662.0</ele><time>2026-04-27T14:56:13Z</time></trkpt><trkpt lat="45.893458344914144" lon="9.42529973816866"><ele>660.0</ele><time>2026-04-27T14:56:14Z</time></trkpt><trkpt lat="45.893275771687414" lon="9.425188850788679"><ele>658.0</ele><time>2026-04-27T14:56:15Z</time></trkpt><trkpt lat="45.89310662941974" lon="9.42504343619624"><ele>656.0</ele><time>2026-04-27T14:56:16Z</time></trkpt><trkpt lat="45.89294991490853" lon="9.424878680096898"><ele>656.0</ele><time>2026-04-27T14:56:17Z</time></trkpt><trkpt lat="45.89279746421755" lon="9.424715053115825"><ele>656.0</ele><time>2026-04-27T14:56:18Z</time></trkpt><trkpt lat="45.89267143302205" lon="9.424564191362025"><ele>656.0</ele><time>2026-04-27T14:56:19Z</time></trkpt><trkpt lat="45.89254236611089" lon="9.424416319387818"><ele>655.0</ele><time>2026-04-27T14:56:20Z</time></trkpt><trkpt lat="45.89239568553824" lon="9.424257841427199"><ele>654.0</ele><time>2026-04-27T14:56:21Z</time></trkpt><trkpt lat="45.892268345932145" lon="9.424126613984699"><ele>653.0</ele><time>2026-04-27T14:56:22Z</time></trkpt><trkpt lat="45.89215816261174" lon="9.424006156383513"><ele>653.0</ele><time>2026-04-27T14:56:23Z</time></trkpt><trkpt lat="45.892061070992845" lon="9.423884990766545"><ele>653.0</ele><time>2026-04-27T14:56:24Z</time></trkpt><trkpt lat="45.89195117141855" lon="9.423796835101827"><ele>653.0</ele><time>2026-04-27T14:56:25Z</time></trkpt><trkpt lat="45.891861195286566" lon="9.423704817876512"><ele>653.0</ele><time>2026-04-27T14:56:26Z</time></trkpt><trkpt lat="45.891767426656074" lon="9.423609277183084"><ele>651.6666666666666</ele><time>2026-04-27T14:56:27Z</time></trkpt><trkpt lat="45.89165580801045" lon="9.423495665767389"><ele>650.3333333333334</ele><time>2026-04-27T14:56:28Z</time></trkpt><trkpt lat="45.891544402046726" lon="9.42338227098911"><ele>649.0</ele><time>2026-04-27T14:56:29Z</time></trkpt><trkpt lat="45.89109467383879" lon="9.423009411184186"><ele>648.5</ele><time>2026-04-27T14:56:30Z</time></trkpt><trkpt lat="45.89097721216966" lon="9.422876435133604"><ele>648.0</ele><time>2026-04-27T14:56:31Z</time></trkpt><trkpt lat="45.8908538178096" lon="9.422770044195772"><ele>647.5</ele><time>2026-04-27T14:56:32Z</time></trkpt><trkpt lat="45.89073664669172" lon="9.422655778944987"><ele>647.0</ele><time>2026-04-27T14:56:33Z</time></trkpt><trkpt lat="45.890631274513666" lon="9.422546885194473"><ele>647.0</ele><time>2026-04-27T14:56:34Z</time></trkpt><trkpt lat="45.89052060122348" lon="9.422432824884977"><ele>647.0</ele><time>2026-04-27T14:56:35Z</time></trkpt><trkpt lat="45.89040848464148" lon="9.422325787678622"><ele>647.0</ele><time>2026-04-27T14:56:36Z</time></trkpt><trkpt lat="45.890301618453684" lon="9.422188210873136"><ele>647.0</ele><time>2026-04-27T14:56:37Z</time></trkpt><trkpt lat="45.89018029906119" lon="9.4220937116973"><ele>647.75</ele><time>2026-04-27T14:56:38Z</time></trkpt><trkpt lat="45.89009297783399" lon="9.421962035727915"><ele>648.5</ele><time>2026-04-27T14:56:39Z</time></trkpt><trkpt lat="45.8899861332717" lon="9.421852337984166"><ele>649.25</ele><time>2026-04-27T14:56:40Z</time></trkpt><trkpt lat="45.8898824125057" lon="9.421741915202288"><ele>650.0</ele><time>2026-04-27T14:56:41Z</time></trkpt><trkpt lat="45.88978653506775" lon="9.421645661485131"><ele>650.0</ele><time>2026-04-27T14:56:42Z</time></trkpt><trkpt lat="45.88969513839175" lon="9.421549899869795"><ele>650.0</ele><time>2026-04-27T14:56:43Z</time></trkpt><trkpt lat="45.88959258924216" lon="9.421442258250089"><ele>650.0</ele><time>2026-04-27T14:56:44Z</time></trkpt><trkpt lat="45.88950050838052" lon="9.421342508750925"><ele>650.0</ele><time>2026-04-27T14:56:45Z</time></trkpt><trkpt lat="45.88941030179893" lon="9.4212512888963"><ele>649.75</ele><time>2026-04-27T14:56:46Z</time></trkpt><trkpt lat="45.88931070959491" lon="9.421157654680389"><ele>649.5</ele><time>2026-04-27T14:56:47Z</time></trkpt><trkpt lat="45.88919530802872" lon="9.421083718178565"><ele>649.25</ele><time>2026-04-27T14:56:48Z</time></trkpt><trkpt lat="45.88907445504618" lon="9.421013083166203"><ele>649.0</ele><time>2026-04-27T14:56:49Z</time></trkpt><trkpt lat="45.88896588443306" lon="9.420943753739389"><ele>649.0</ele><time>2026-04-27T14:56:50Z</time></trkpt><trkpt lat="45.888858557971886" lon="9.42089017772451"><ele>649.0</ele><time>2026-04-27T14:56:51Z</time></trkpt><trkpt lat="45.88874641570357" lon="9.420857287952526"><ele>649.0</ele><time>2026-04-27T14:56:52Z</time></trkpt><trkpt lat="45.88864719125104" lon="9.420830022267102"><ele>649.0</ele><time>2026-04-27T14:56:53Z</time></trkpt><trkpt lat="45.888536806108256" lon="9.420806603262863"><ele>649.0</ele><time>2026-04-27T14:56:54Z</time></trkpt><trkpt lat="45.88842882525224" lon="9.420783917632136"><ele>647.25</ele><time>2026-04-27T14:56:55Z</time></trkpt><trkpt lat="45.88831725412178" lon="9.420749781147467"><ele>645.5</ele><time>2026-04-27T14:56:56Z</time></trkpt><trkpt lat="45.888197771379964" lon="9.420700758659182"><ele>643.75</ele><time>2026-04-27T14:56:57Z</time></trkpt><trkpt lat="45.88809256047446" lon="9.42063333838465"><ele>642.0</ele><time>2026-04-27T14:56:58Z</time></trkpt><trkpt lat="45.88799854671809" lon="9.420538334040037"><ele>643.75</ele><time>2026-04-27T14:56:59Z</time></trkpt><trkpt lat="45.88791515057164" lon="9.420422976631329"><ele>645.5</ele><time>2026-04-27T14:57:00Z</time></trkpt><trkpt lat="45.88781726680758" lon="9.420293226823745"><ele>647.25</ele><time>2026-04-27T14:57:01Z</time></trkpt><trkpt lat="45.88772220451948" lon="9.420169362572889"><ele>649.0</ele><time>2026-04-27T14:57:02Z</time></trkpt><trkpt lat="45.88760479532147" lon="9.420084091516605"><ele>645.25</ele><time>2026-04-27T14:57:03Z</time></trkpt><trkpt lat="45.887478095937276" lon="9.420035060538895"><ele>641.5</ele><time>2026-04-27T14:57:04Z</time></trkpt><trkpt lat="45.8873375739903" lon="9.41999774838447"><ele>637.75</ele><time>2026-04-27T14:57:05Z</time></trkpt><trkpt lat="45.887180816567046" lon="9.420027028960803"><ele>634.0</ele><time>2026-04-27T14:57:06Z</time></trkpt><trkpt lat="45.88702013993538" lon="9.420076370583269"><ele>634.0</ele><time>2026-04-27T14:57:07Z</time></trkpt><trkpt lat="45.88688104498354" lon="9.420121553506778"><ele>634.0</ele><time>2026-04-27T14:57:08Z</time></trkpt><trkpt lat="45.88673799579841" lon="9.420155972313786"><ele>634.0</ele><time>2026-04-27T14:57:09Z</time></trkpt><trkpt lat="45.886601372581936" lon="9.420191202025809"><ele>634.0</ele><time>2026-04-27T14:57:10Z</time></trkpt><trkpt lat="45.88645956894713" lon="9.42019994412486"><ele>629.6666666666667</ele><time>2026-04-27T14:57:11Z</time></trkpt><trkpt lat="45.88631813184061" lon="9.420151985440055"><ele>625.3333333333334</ele><time>2026-04-27T14:57:12Z</time></trkpt><trkpt lat="45.88616971663813" lon="9.420093587083413"><ele>621.0</ele><time>2026-04-27T14:57:13Z</time></trkpt><trkpt lat="45.886028032072666" lon="9.420011234775952"><ele>622.5</ele><time>2026-04-27T14:57:14Z</time></trkpt><trkpt lat="45.885893932282" lon="9.419919019157518"><ele>624.0</ele><time>2026-04-27T14:57:15Z</time></trkpt><trkpt lat="45.885757720178155" lon="9.419839699600614"><ele>625.5</ele><time>2026-04-27T14:57:16Z</time></trkpt><trkpt lat="45.885627545109735" lon="9.41972458457561"><ele>627.0</ele><time>2026-04-27T14:57:17Z</time></trkpt><trkpt lat="45.88553069284414" lon="9.419665080872223"><ele>616.6666666666666</ele><time>2026-04-27T14:57:18Z</time></trkpt><trkpt lat="45.88533549766771" lon="9.419575938086549"><ele>606.3333333333333</ele><time>2026-04-27T14:57:19Z</time></trkpt><trkpt lat="45.885162912750516" lon="9.419538781382137"><ele>596.0</ele><time>2026-04-27T14:57:20Z</time></trkpt><trkpt lat="45.88500623919631" lon="9.41948046282791"><ele>596.0</ele><time>2026-04-27T14:57:21Z</time></trkpt><trkpt lat="45.884848899546895" lon="9.419447117145722"><ele>596.0</ele><time>2026-04-27T14:57:22Z</time></trkpt><trkpt lat="45.88471173592675" lon="9.419418193439794"><ele>596.0</ele><time>2026-04-27T14:57:23Z</time></trkpt><trkpt lat="45.88458078959461" lon="9.419385644688818"><ele>596.0</ele><time>2026-04-27T14:57:24Z</time></trkpt><trkpt lat="45.88446582542073" lon="9.419383616870512"><ele>596.0</ele><time>2026-04-27T14:57:25Z</time></trkpt><trkpt lat="45.88436329759189" lon="9.419392047093604"><ele>596.0</ele><time>2026-04-27T14:57:26Z</time></trkpt><trkpt lat="45.884262388605734" lon="9.419410964902292"><ele>596.0</ele><time>2026-04-27T14:57:27Z</time></trkpt><trkpt lat="45.88419142596198" lon="9.419426507799635"><ele>596.0</ele><time>2026-04-27T14:57:28Z</time></trkpt><trkpt lat="45.884128038275676" lon="9.419388292896077"><ele>596.0</ele><time>2026-04-27T14:57:29Z</time></trkpt><trkpt lat="45.8840917797647" lon="9.419291662602218"><ele>596.0</ele><time>2026-04-27T14:57:30Z</time></trkpt><trkpt lat="45.8840801072488" lon="9.419182875193158"><ele>596.0</ele><time>2026-04-27T14:57:31Z</time></trkpt><trkpt lat="45.88411267719288" lon="9.41908015643248"><ele>596.0</ele><time>2026-04-27T14:57:32Z</time></trkpt><trkpt lat="45.88419030801716" lon="9.419030571953906"><ele>596.0</ele><time>2026-04-27T14:57:33Z</time></trkpt><trkpt lat="45.88428877813885" lon="9.419026440223378"><ele>596.0</ele><time>2026-04-27T14:57:34Z</time></trkpt><trkpt lat="45.884389768805185" lon="9.419026799114746"><ele>596.0</ele><time>2026-04-27T14:57:35Z</time></trkpt><trkpt lat="45.88450375695253" lon="9.418994995216762"><ele>596.0</ele><time>2026-04-27T14:57:36Z</time></trkpt><trkpt lat="45.88466595536167" lon="9.418987729246451"><ele>596.0</ele><time>2026-04-27T14:57:37Z</time></trkpt><trkpt lat="45.884862449324345" lon="9.41896414078617"><ele>596.0</ele><time>2026-04-27T14:57:38Z</time></trkpt><trkpt lat="45.88512356823403" lon="9.418984002375462"><ele>595.0</ele><time>2026-04-27T14:57:39Z</time></trkpt><trkpt lat="45.88529804814295" lon="9.418984276350647"><ele>594.0</ele><time>2026-04-27T14:57:40Z</time></trkpt><trkpt lat="45.88558187772759" lon="9.419043911155219"><ele>594.0</ele><time>2026-04-27T14:57:41Z</time></trkpt><trkpt lat="45.88578979109496" lon="9.419060616560506"><ele>594.0</ele><time>2026-04-27T14:57:42Z</time></trkpt><trkpt lat="45.88597159609215" lon="9.419057126028642"><ele>594.0</ele><time>2026-04-27T14:57:43Z</time></trkpt><trkpt lat="45.88614396144771" lon="9.418961050562284"><ele>596.0</ele><time>2026-04-27T14:57:44Z</time></trkpt><trkpt lat="45.8863234641009" lon="9.418841846097084"><ele>598.0</ele><time>2026-04-27T14:57:45Z</time></trkpt><trkpt lat="45.8864756608494" lon="9.418640163718118"><ele>600.0</ele><time>2026-04-27T14:57:46Z</time></trkpt><trkpt lat="45.88661816219851" lon="9.418439362631279"><ele>597.3333333333334</ele><time>2026-04-27T14:57:47Z</time></trkpt><trkpt lat="45.886759120737786" lon="9.418277533229205"><ele>594.6666666666667</ele><time>2026-04-27T14:57:48Z</time></trkpt><trkpt lat="45.88688651369153" lon="9.418106819493042"><ele>592.0</ele><time>2026-04-27T14:57:49Z</time></trkpt><trkpt lat="45.887033552889385" lon="9.41801538077377"><ele>591.75</ele><time>2026-04-27T14:57:50Z</time></trkpt><trkpt lat="45.88718081986403" lon="9.417976285050909"><ele>591.5</ele><time>2026-04-27T14:57:51Z</time></trkpt><trkpt lat="45.88731131417236" lon="9.417953606178894"><ele>591.25</ele><time>2026-04-27T14:57:52Z</time></trkpt><trkpt lat="45.88739762923448" lon="9.417785761179404"><ele>591.0</ele><time>2026-04-27T14:57:54Z</time></trkpt><trkpt lat="45.887388919460875" lon="9.417628945994476"><ele>591.0</ele><time>2026-04-27T14:57:55Z</time></trkpt><trkpt lat="45.887329420414616" lon="9.417497955005194"><ele>591.0</ele><time>2026-04-27T14:57:56Z</time></trkpt><trkpt lat="45.88720431855839" lon="9.417411118233568"><ele>591.0</ele><time>2026-04-27T14:57:57Z</time></trkpt><trkpt lat="45.887084829185106" lon="9.417326636227799"><ele>591.0</ele><time>2026-04-27T14:57:58Z</time></trkpt><trkpt lat="45.88694461628179" lon="9.41722478128857"><ele>584.6666666666666</ele><time>2026-04-27T14:57:59Z</time></trkpt><trkpt lat="45.88680624786412" lon="9.41714055945012"><ele>578.3333333333333</ele><time>2026-04-27T14:58:00Z</time></trkpt><trkpt lat="45.88666238239515" lon="9.41705314274551"><ele>572.0</ele><time>2026-04-27T14:58:01Z</time></trkpt><trkpt lat="45.88652818797943" lon="9.416955487419454"><ele>572.0</ele><time>2026-04-27T14:58:02Z</time></trkpt><trkpt lat="45.88643751440165" lon="9.416817196016622"><ele>572.0</ele><time>2026-04-27T14:58:03Z</time></trkpt><trkpt lat="45.88639030720225" lon="9.416636897754382"><ele>572.0</ele><time>2026-04-27T14:58:04Z</time></trkpt><trkpt lat="45.88631853440864" lon="9.41641730215536"><ele>572.0</ele><time>2026-04-27T14:58:05Z</time></trkpt><trkpt lat="45.886275405020726" lon="9.416160402569433"><ele>574.0</ele><time>2026-04-27T14:58:06Z</time></trkpt><trkpt lat="45.886220996595156" lon="9.415900923478757"><ele>576.0</ele><time>2026-04-27T14:58:07Z</time></trkpt><trkpt lat="45.88617429553049" lon="9.41566340566605"><ele>578.0</ele><time>2026-04-27T14:58:08Z</time></trkpt><trkpt lat="45.8861507267265" lon="9.415420042158418"><ele>578.3333333333333</ele><time>2026-04-27T14:58:09Z</time></trkpt><trkpt lat="45.8861581698125" lon="9.415199944663964"><ele>578.6666666666666</ele><time>2026-04-27T14:58:10Z</time></trkpt><trkpt lat="45.88618528988464" lon="9.414922556917109"><ele>579.0</ele><time>2026-04-27T14:58:11Z</time></trkpt><trkpt lat="45.886219796785944" lon="9.414554887895736"><ele>574.6666666666666</ele><time>2026-04-27T14:58:12Z</time></trkpt><trkpt lat="45.88625503935648" lon="9.414296510058211"><ele>570.3333333333333</ele><time>2026-04-27T14:58:13Z</time></trkpt><trkpt lat="45.886302185406365" lon="9.41401631200492"><ele>566.0</ele><time>2026-04-27T14:58:14Z</time></trkpt><trkpt lat="45.88628927226222" lon="9.413817654002477"><ele>564.0</ele><time>2026-04-27T14:58:15Z</time></trkpt><trkpt lat="45.88624728976042" lon="9.413574366799773"><ele>562.0</ele><time>2026-04-27T14:58:16Z</time></trkpt><trkpt lat="45.886161812107346" lon="9.413328552408554"><ele>560.0</ele><time>2026-04-27T14:58:17Z</time></trkpt><trkpt lat="45.88605655745665" lon="9.41305470712654"><ele>566.0</ele><time>2026-04-27T14:58:18Z</time></trkpt><trkpt lat="45.885938591808404" lon="9.412763305859508"><ele>572.0</ele><time>2026-04-27T14:58:19Z</time></trkpt><trkpt lat="45.88584360161446" lon="9.412470761615994"><ele>565.0</ele><time>2026-04-27T14:58:20Z</time></trkpt><trkpt lat="45.88574103885699" lon="9.412185387317106"><ele>558.0</ele><time>2026-04-27T14:58:21Z</time></trkpt><trkpt lat="45.88565872484297" lon="9.411888903124135"><ele>551.0</ele><time>2026-04-27T14:58:22Z</time></trkpt><trkpt lat="45.88555306899951" lon="9.411638331707312"><ele>551.0</ele><time>2026-04-27T14:58:23Z</time></trkpt><trkpt lat="45.88545143548308" lon="9.41141004055986"><ele>551.0</ele><time>2026-04-27T14:58:24Z</time></trkpt><trkpt lat="45.885343839737835" lon="9.411200827206779"><ele>551.0</ele><time>2026-04-27T14:58:25Z</time></trkpt><trkpt lat="45.885207908838396" lon="9.411008187482842"><ele>542.3333333333333</ele><time>2026-04-27T14:58:26Z</time></trkpt><trkpt lat="45.885075708634865" lon="9.410812016015777"><ele>533.6666666666666</ele><time>2026-04-27T14:58:27Z</time></trkpt><trkpt lat="45.884987093293574" lon="9.410670371505189"><ele>525.0</ele><time>2026-04-27T14:58:28Z</time></trkpt><trkpt lat="45.884902971650625" lon="9.410476003859994"><ele>525.0</ele><time>2026-04-27T14:58:29Z</time></trkpt><trkpt lat="45.88484422103061" lon="9.410300390139952"><ele>525.0</ele><time>2026-04-27T14:58:30Z</time></trkpt><trkpt lat="45.88482325216059" lon="9.410204062870779"><ele>525.0</ele><time>2026-04-27T14:58:31Z</time></trkpt><trkpt lat="45.88473834673215" lon="9.410131118428884"><ele>525.0</ele><time>2026-04-27T14:58:33Z</time></trkpt><trkpt lat="45.88463234373347" lon="9.410182002271593"><ele>525.0</ele><time>2026-04-27T14:58:34Z</time></trkpt><trkpt lat="45.88456753708998" lon="9.410302877750958"><ele>525.0</ele><time>2026-04-27T14:58:35Z</time></trkpt><trkpt lat="45.88455486570068" lon="9.41046434089562"><ele>525.0</ele><time>2026-04-27T14:58:36Z</time></trkpt><trkpt lat="45.88459337605317" lon="9.410648016510855"><ele>525.0</ele><time>2026-04-27T14:58:37Z</time></trkpt><trkpt lat="45.88462831393618" lon="9.410861687277857"><ele>525.0</ele><time>2026-04-27T14:58:38Z</time></trkpt><trkpt lat="45.884666096135604" lon="9.411040619935246"><ele>523.0</ele><time>2026-04-27T14:58:39Z</time></trkpt><trkpt lat="45.884659784248996" lon="9.411192162436935"><ele>521.0</ele><time>2026-04-27T14:58:40Z</time></trkpt><trkpt lat="45.88466833344101" lon="9.41132689250492"><ele>519.0</ele><time>2026-04-27T14:58:41Z</time></trkpt><trkpt lat="45.884635064010695" lon="9.41146262584052"><ele>517.0</ele><time>2026-04-27T14:58:42Z</time></trkpt><trkpt lat="45.88457748760877" lon="9.411594953052756"><ele>515.0</ele><time>2026-04-27T14:58:43Z</time></trkpt><trkpt lat="45.88447373435973" lon="9.411649044785037"><ele>513.4</ele><time>2026-04-27T14:58:44Z</time></trkpt><trkpt lat="45.88434870598659" lon="9.411647180105186"><ele>511.8</ele><time>2026-04-27T14:58:45Z</time></trkpt><trkpt lat="45.88425143990622" lon="9.411601385130682"><ele>510.20000000000005</ele><time>2026-04-27T14:58:46Z</time></trkpt><trkpt lat="45.88418063060568" lon="9.411494014728282"><ele>508.6</ele><time>2026-04-27T14:58:47Z</time></trkpt><trkpt lat="45.88413832307844" lon="9.411338959463793"><ele>507.0</ele><time>2026-04-27T14:58:48Z</time></trkpt><trkpt lat="45.88409124646925" lon="9.41114107777274"><ele>499.33333333333337</ele><time>2026-04-27T14:58:49Z</time></trkpt><trkpt lat="45.884030999937096" lon="9.410916277643551"><ele>491.6666666666667</ele><time>2026-04-27T14:58:50Z</time></trkpt><trkpt lat="45.883970294257836" lon="9.410709410405108"><ele>484.0</ele><time>2026-04-27T14:58:51Z</time></trkpt><trkpt lat="45.883892592248166" lon="9.41051736736645"><ele>484.75</ele><time>2026-04-27T14:58:52Z</time></trkpt><trkpt lat="45.88382040353941" lon="9.410343591840963"><ele>485.5</ele><time>2026-04-27T14:58:53Z</time></trkpt><trkpt lat="45.8836983114736" lon="9.410222439690875"><ele>486.25</ele><time>2026-04-27T14:58:54Z</time></trkpt><trkpt lat="45.88358129319758" lon="9.410101858100262"><ele>487.0</ele><time>2026-04-27T14:58:55Z</time></trkpt><trkpt lat="45.88350393984496" lon="9.410008038339612"><ele>487.0</ele><time>2026-04-27T14:58:56Z</time></trkpt><trkpt lat="45.88345372031888" lon="9.409914108333265"><ele>487.00000000000006</ele><time>2026-04-27T14:58:57Z</time></trkpt><trkpt lat="45.883414562458626" lon="9.40983718029581"><ele>487.00000000000006</ele><time>2026-04-27T14:58:58Z</time></trkpt><trkpt lat="45.883424259370884" lon="9.409686619136917"><ele>487.0</ele><time>2026-04-27T14:59:00Z</time></trkpt><trkpt lat="45.88349028539995" lon="9.40963753034382"><ele>487.0</ele><time>2026-04-27T14:59:01Z</time></trkpt><trkpt lat="45.88360649329989" lon="9.409572888283273"><ele>486.20000000000005</ele><time>2026-04-27T14:59:03Z</time></trkpt><trkpt lat="45.88368774940388" lon="9.409522497527846"><ele>485.40000000000003</ele><time>2026-04-27T14:59:04Z</time></trkpt><trkpt lat="45.88376447149938" lon="9.409504770087972"><ele>484.59999999999997</ele><time>2026-04-27T14:59:05Z</time></trkpt><trkpt lat="45.88385509815667" lon="9.409479222838371"><ele>483.79999999999995</ele><time>2026-04-27T14:59:06Z</time></trkpt><trkpt lat="45.88395460388967" lon="9.409417959932743"><ele>483.0</ele><time>2026-04-27T14:59:08Z</time></trkpt><trkpt lat="45.88406646144645" lon="9.409314993958269"><ele>483.0</ele><time>2026-04-27T14:59:10Z</time></trkpt><trkpt lat="45.884132426916814" lon="9.409249811153414"><ele>482.99999999999994</ele><time>2026-04-27T14:59:11Z</time></trkpt><trkpt lat="45.8841780872525" lon="9.409163979462255"><ele>482.99999999999994</ele><time>2026-04-27T14:59:12Z</time></trkpt><trkpt lat="45.884178244831" lon="9.409029886463816"><ele>483.0</ele><time>2026-04-27T14:59:13Z</time></trkpt><trkpt lat="45.88408855486351" lon="9.408935233303062"><ele>483.0</ele><time>2026-04-27T14:59:14Z</time></trkpt><trkpt lat="45.883901204248694" lon="9.4090295934439"><ele>483.0</ele><time>2026-04-27T14:59:16Z</time></trkpt><trkpt lat="45.88377590097374" lon="9.409082915957594"><ele>482.99999999999994</ele><time>2026-04-27T14:59:17Z</time></trkpt><trkpt lat="45.88367953841001" lon="9.409138639665041"><ele>482.99999999999994</ele><time>2026-04-27T14:59:18Z</time></trkpt><trkpt lat="45.88358382077923" lon="9.409188001552845"><ele>483.0</ele><time>2026-04-27T14:59:19Z</time></trkpt><trkpt lat="45.88347679113013" lon="9.409229784331064"><ele>483.0</ele><time>2026-04-27T14:59:20Z</time></trkpt><trkpt lat="45.883384581573544" lon="9.409282147260571"><ele>476.5</ele><time>2026-04-27T14:59:21Z</time></trkpt><trkpt lat="45.883272327642736" lon="9.409330934054056"><ele>470.0</ele><time>2026-04-27T14:59:22Z</time></trkpt><trkpt lat="45.883167174836075" lon="9.4093859001036"><ele>463.5</ele><time>2026-04-27T14:59:23Z</time></trkpt><trkpt lat="45.883072565351405" lon="9.409445979472672"><ele>457.0</ele><time>2026-04-27T14:59:24Z</time></trkpt><trkpt lat="45.88295634853775" lon="9.409512059870032"><ele>457.0</ele><time>2026-04-27T14:59:25Z</time></trkpt><trkpt lat="45.882835085685485" lon="9.409568922395836"><ele>457.0</ele><time>2026-04-27T14:59:26Z</time></trkpt><trkpt lat="45.882727165943095" lon="9.409554907986795"><ele>457.0</ele><time>2026-04-27T14:59:27Z</time></trkpt><trkpt lat="45.88261523505562" lon="9.409528347287699"><ele>457.0</ele><time>2026-04-27T14:59:28Z</time></trkpt><trkpt lat="45.882518181182704" lon="9.409437617214529"><ele>457.0</ele><time>2026-04-27T14:59:29Z</time></trkpt><trkpt lat="45.88242731300581" lon="9.409349618881638"><ele>457.0</ele><time>2026-04-27T14:59:30Z</time></trkpt><trkpt lat="45.882321427559724" lon="9.409213959070438"><ele>457.0</ele><time>2026-04-27T14:59:31Z</time></trkpt><trkpt lat="45.8822200373718" lon="9.409092901343774"><ele>457.0</ele><time>2026-04-27T14:59:32Z</time></trkpt><trkpt lat="45.88210684749676" lon="9.409007499071286"><ele>457.0</ele><time>2026-04-27T14:59:33Z</time></trkpt><trkpt lat="45.881994791393076" lon="9.408974344102111"><ele>457.0</ele><time>2026-04-27T14:59:34Z</time></trkpt><trkpt lat="45.88181731016224" lon="9.408932987518993"><ele>457.0</ele><time>2026-04-27T14:59:35Z</time></trkpt><trkpt lat="45.88167610346421" lon="9.40889076865191"><ele>457.0</ele><time>2026-04-27T14:59:36Z</time></trkpt><trkpt lat="45.88154970652542" lon="9.408844193911909"><ele>457.0</ele><time>2026-04-27T14:59:37Z</time></trkpt><trkpt lat="45.88143007314187" lon="9.408752749201684"><ele>457.0</ele><time>2026-04-27T14:59:38Z</time></trkpt><trkpt lat="45.881321187240474" lon="9.408674495807832"><ele>457.0</ele><time>2026-04-27T14:59:39Z</time></trkpt><trkpt lat="45.881220745565074" lon="9.408584774290821"><ele>457.0</ele><time>2026-04-27T14:59:40Z</time></trkpt><trkpt lat="45.881141207723395" lon="9.408488633142921"><ele>457.0</ele><time>2026-04-27T14:59:41Z</time></trkpt><trkpt lat="45.881047200243984" lon="9.408328057808726"><ele>457.0</ele><time>2026-04-27T14:59:42Z</time></trkpt><trkpt lat="45.880967193965446" lon="9.408199277880472"><ele>457.0</ele><time>2026-04-27T14:59:43Z</time></trkpt><trkpt lat="45.88088485810374" lon="9.408116843506775"><ele>457.0</ele><time>2026-04-27T14:59:44Z</time></trkpt><trkpt lat="45.880793028104364" lon="9.407995426686448"><ele>454.40000000000003</ele><time>2026-04-27T14:59:45Z</time></trkpt><trkpt lat="45.88068181348901" lon="9.407891185806086"><ele>451.80000000000007</ele><time>2026-04-27T14:59:46Z</time></trkpt><trkpt lat="45.88058798967304" lon="9.407777738968395"><ele>449.2</ele><time>2026-04-27T14:59:47Z</time></trkpt><trkpt lat="45.88052854397357" lon="9.40767049607574"><ele>446.6</ele><time>2026-04-27T14:59:48Z</time></trkpt><trkpt lat="45.880455214305854" lon="9.407587405194304"><ele>444.0</ele><time>2026-04-27T14:59:49Z</time></trkpt><trkpt lat="45.880421692817436" lon="9.407486754740237"><ele>444.0</ele><time>2026-04-27T14:59:50Z</time></trkpt><trkpt lat="45.880344007076815" lon="9.407469194249538"><ele>444.0</ele><time>2026-04-27T14:59:51Z</time></trkpt><trkpt lat="45.880269322556224" lon="9.407455056683778"><ele>444.0</ele><time>2026-04-27T14:59:52Z</time></trkpt><trkpt lat="45.88017073889367" lon="9.407460556668834"><ele>444.0</ele><time>2026-04-27T14:59:53Z</time></trkpt><trkpt lat="45.880075975937416" lon="9.407440984731672"><ele>444.0</ele><time>2026-04-27T14:59:54Z</time></trkpt><trkpt lat="45.879990862714266" lon="9.407437465657345"><ele>444.0</ele><time>2026-04-27T14:59:55Z</time></trkpt><trkpt lat="45.879884191253254" lon="9.407416753316014"><ele>442.6</ele><time>2026-04-27T14:59:56Z</time></trkpt><trkpt lat="45.879798677522146" lon="9.407377204179863"><ele>441.2</ele><time>2026-04-27T14:59:57Z</time></trkpt><trkpt lat="45.879707157463216" lon="9.407334885361406"><ele>439.80000000000007</ele><time>2026-04-27T14:59:58Z</time></trkpt><trkpt lat="45.87961788610782" lon="9.407291370259918"><ele>438.40000000000003</ele><time>2026-04-27T14:59:59Z</time></trkpt><trkpt lat="45.879545872937875" lon="9.40719994507488"><ele>437.0</ele><time>2026-04-27T15:00:00Z</time></trkpt><trkpt lat="45.87946516016739" lon="9.407127904823406"><ele>436.6</ele><time>2026-04-27T15:00:01Z</time></trkpt><trkpt lat="45.879347311082356" lon="9.407089285216742"><ele>436.20000000000005</ele><time>2026-04-27T15:00:02Z</time></trkpt><trkpt lat="45.879254465163335" lon="9.407028920336925"><ele>435.8</ele><time>2026-04-27T15:00:03Z</time></trkpt><trkpt lat="45.879152546685184" lon="9.406966398585373"><ele>435.4</ele><time>2026-04-27T15:00:04Z</time></trkpt><trkpt lat="45.87906762195749" lon="9.406863515996374"><ele>435.0</ele><time>2026-04-27T15:00:05Z</time></trkpt><trkpt lat="45.878960880468114" lon="9.406745866466796"><ele>435.0</ele><time>2026-04-27T15:00:06Z</time></trkpt><trkpt lat="45.87886401914783" lon="9.406646735880816"><ele>435.0</ele><time>2026-04-27T15:00:07Z</time></trkpt><trkpt lat="45.87880054711443" lon="9.406526812233693"><ele>435.0</ele><time>2026-04-27T15:00:08Z</time></trkpt><trkpt lat="45.87871124695693" lon="9.406421683292013"><ele>435.0</ele><time>2026-04-27T15:00:09Z</time></trkpt><trkpt lat="45.878639825874025" lon="9.406309301946775"><ele>435.0</ele><time>2026-04-27T15:00:10Z</time></trkpt><trkpt lat="45.87855730020122" lon="9.406186083020398"><ele>436.75</ele><time>2026-04-27T15:00:11Z</time></trkpt><trkpt lat="45.87848145755811" lon="9.406051110810706"><ele>438.5</ele><time>2026-04-27T15:00:12Z</time></trkpt><trkpt lat="45.87839828716117" lon="9.405913109454373"><ele>440.25</ele><time>2026-04-27T15:00:13Z</time></trkpt><trkpt lat="45.878335812120085" lon="9.405779351541327"><ele>442.0</ele><time>2026-04-27T15:00:14Z</time></trkpt><trkpt lat="45.878273628207324" lon="9.405640846072487"><ele>440.75</ele><time>2026-04-27T15:00:15Z</time></trkpt><trkpt lat="45.87821207082728" lon="9.405488926487434"><ele>439.5</ele><time>2026-04-27T15:00:16Z</time></trkpt><trkpt lat="45.87814674602721" lon="9.405340266134681"><ele>438.25</ele><time>2026-04-27T15:00:17Z</time></trkpt><trkpt lat="45.878107377338985" lon="9.405218899085892"><ele>437.0</ele><time>2026-04-27T15:00:18Z</time></trkpt><trkpt lat="45.87801797473719" lon="9.405119030241975"><ele>437.0</ele><time>2026-04-27T15:00:19Z</time></trkpt><trkpt lat="45.87789991438738" lon="9.404991448634794"><ele>437.0</ele><time>2026-04-27T15:00:20Z</time></trkpt><trkpt lat="45.877768331621304" lon="9.404863849952855"><ele>437.0</ele><time>2026-04-27T15:00:21Z</time></trkpt><trkpt lat="45.877646948659134" lon="9.404758314952508"><ele>437.0</ele><time>2026-04-27T15:00:22Z</time></trkpt><trkpt lat="45.87753059918299" lon="9.404674279120457"><ele>438.0</ele><time>2026-04-27T15:00:23Z</time></trkpt><trkpt lat="45.87739842431978" lon="9.40462123325627"><ele>439.0</ele><time>2026-04-27T15:00:24Z</time></trkpt><trkpt lat="45.87724424015015" lon="9.40452185580775"><ele>440.0</ele><time>2026-04-27T15:00:25Z</time></trkpt><trkpt lat="45.87715312723562" lon="9.40443664957338"><ele>441.0</ele><time>2026-04-27T15:00:26Z</time></trkpt><trkpt lat="45.87703865828783" lon="9.404333486537897"><ele>441.0</ele><time>2026-04-27T15:00:27Z</time></trkpt><trkpt lat="45.87692614926446" lon="9.40422883906475"><ele>441.0</ele><time>2026-04-27T15:00:28Z</time></trkpt><trkpt lat="45.87682076236451" lon="9.404136412803277"><ele>441.0</ele><time>2026-04-27T15:00:29Z</time></trkpt><trkpt lat="45.87671800901036" lon="9.404041432624046"><ele>441.0</ele><time>2026-04-27T15:00:30Z</time></trkpt><trkpt lat="45.87659914140683" lon="9.40397972606824"><ele>447.0</ele><time>2026-04-27T15:00:31Z</time></trkpt><trkpt lat="45.87647237529243" lon="9.403922334456944"><ele>453.0</ele><time>2026-04-27T15:00:32Z</time></trkpt><trkpt lat="45.876359311588885" lon="9.403885894101139"><ele>459.0</ele><time>2026-04-27T15:00:33Z</time></trkpt><trkpt lat="45.876233611106294" lon="9.403825972117604"><ele>465.0</ele><time>2026-04-27T15:00:34Z</time></trkpt><trkpt lat="45.87613779225194" lon="9.403752596728843"><ele>465.0</ele><time>2026-04-27T15:00:35Z</time></trkpt><trkpt lat="45.87599864778695" lon="9.403691039058168"><ele>465.0</ele><time>2026-04-27T15:00:36Z</time></trkpt><trkpt lat="45.8758689103287" lon="9.403609877084206"><ele>465.0</ele><time>2026-04-27T15:00:37Z</time></trkpt><trkpt lat="45.875750096916725" lon="9.403522836340484"><ele>465.0</ele><time>2026-04-27T15:00:38Z</time></trkpt><trkpt lat="45.8756230348717" lon="9.403442988020426"><ele>454.25</ele><time>2026-04-27T15:00:39Z</time></trkpt><trkpt lat="45.87549032798182" lon="9.403354865694718"><ele>443.5</ele><time>2026-04-27T15:00:40Z</time></trkpt><trkpt lat="45.87537473995883" lon="9.403256175005266"><ele>432.75</ele><time>2026-04-27T15:00:41Z</time></trkpt><trkpt lat="45.875274653839476" lon="9.40316309022721"><ele>422.0</ele><time>2026-04-27T15:00:42Z</time></trkpt><trkpt lat="45.87517792547046" lon="9.403076356679588"><ele>418.0</ele><time>2026-04-27T15:00:43Z</time></trkpt><trkpt lat="45.87507992327224" lon="9.402974872401273"><ele>414.0</ele><time>2026-04-27T15:00:44Z</time></trkpt><trkpt lat="45.874974426550175" lon="9.402839327014156"><ele>410.0</ele><time>2026-04-27T15:00:45Z</time></trkpt><trkpt lat="45.87488299448212" lon="9.402747182761516"><ele>406.0</ele><time>2026-04-27T15:00:46Z</time></trkpt><trkpt lat="45.87479587968579" lon="9.40263399579501"><ele>406.0</ele><time>2026-04-27T15:00:47Z</time></trkpt><trkpt lat="45.87470033643993" lon="9.402524087340469"><ele>406.0</ele><time>2026-04-27T15:00:48Z</time></trkpt><trkpt lat="45.87460904688055" lon="9.402411875842594"><ele>406.0</ele><time>2026-04-27T15:00:49Z</time></trkpt><trkpt lat="45.87452509190804" lon="9.402324964444484"><ele>406.0</ele><time>2026-04-27T15:00:50Z</time></trkpt><trkpt lat="45.87442153373287" lon="9.4022676723672"><ele>406.0</ele><time>2026-04-27T15:00:51Z</time></trkpt><trkpt lat="45.87432492569829" lon="9.402202528348514"><ele>406.0</ele><time>2026-04-27T15:00:52Z</time></trkpt><trkpt lat="45.874229998858866" lon="9.402164193344957"><ele>406.0</ele><time>2026-04-27T15:00:53Z</time></trkpt><trkpt lat="45.87413285495896" lon="9.402105967128925"><ele>406.0</ele><time>2026-04-27T15:00:54Z</time></trkpt><trkpt lat="45.87404899933029" lon="9.402053716281422"><ele>406.0</ele><time>2026-04-27T15:00:55Z</time></trkpt><trkpt lat="45.87395553628833" lon="9.40200590668564"><ele>404.6666666666667</ele><time>2026-04-27T15:00:56Z</time></trkpt><trkpt lat="45.87387763536463" lon="9.401958770981455"><ele>403.33333333333337</ele><time>2026-04-27T15:00:57Z</time></trkpt><trkpt lat="45.87381027257208" lon="9.401901649557896"><ele>402.0</ele><time>2026-04-27T15:00:58Z</time></trkpt><trkpt lat="45.873717943814476" lon="9.401841699086196"><ele>400.66666666666663</ele><time>2026-04-27T15:01:00Z</time></trkpt><trkpt lat="45.87363444671496" lon="9.401816099586796"><ele>399.3333333333333</ele><time>2026-04-27T15:01:01Z</time></trkpt><trkpt lat="45.873621195766596" lon="9.401927729780441"><ele>398.0</ele><time>2026-04-27T15:01:02Z</time></trkpt><trkpt lat="45.87356023371626" lon="9.402073726054882"><ele>394.59999999999997</ele><time>2026-04-27T15:01:04Z</time></trkpt><trkpt lat="45.873511911245274" lon="9.402166510519436"><ele>391.2</ele><time>2026-04-27T15:01:05Z</time></trkpt><trkpt lat="45.87352981969188" lon="9.402298947746145"><ele>387.8</ele><time>2026-04-27T15:01:06Z</time></trkpt><trkpt lat="45.87357678321166" lon="9.402400382879938"><ele>384.4</ele><time>2026-04-27T15:01:07Z</time></trkpt><trkpt lat="45.87362868173583" lon="9.402502234980664"><ele>381.0</ele><time>2026-04-27T15:01:08Z</time></trkpt><trkpt lat="45.87369762918301" lon="9.402622565532706"><ele>381.0</ele><time>2026-04-27T15:01:09Z</time></trkpt><trkpt lat="45.87377171653343" lon="9.402739478337246"><ele>381.0</ele><time>2026-04-27T15:01:10Z</time></trkpt><trkpt lat="45.873869876455245" lon="9.40286105469689"><ele>381.0</ele><time>2026-04-27T15:01:11Z</time></trkpt><trkpt lat="45.873988257090886" lon="9.402943956686485"><ele>381.0</ele><time>2026-04-27T15:01:12Z</time></trkpt><trkpt lat="45.87409894909854" lon="9.40300015812964"><ele>382.20000000000005</ele><time>2026-04-27T15:01:13Z</time></trkpt><trkpt lat="45.87421089609182" lon="9.403054794751094"><ele>383.40000000000003</ele><time>2026-04-27T15:01:14Z</time></trkpt><trkpt lat="45.874316476181825" lon="9.4031032400843"><ele>384.6</ele><time>2026-04-27T15:01:15Z</time></trkpt><trkpt lat="45.8744149446652" lon="9.403157478995015"><ele>385.8</ele><time>2026-04-27T15:01:16Z</time></trkpt><trkpt lat="45.87451401555493" lon="9.403226061741309"><ele>387.0</ele><time>2026-04-27T15:01:17Z</time></trkpt><trkpt lat="45.874594866787525" lon="9.40329687415923"><ele>387.0</ele><time>2026-04-27T15:01:18Z</time></trkpt><trkpt lat="45.87471778388512" lon="9.403309224032164"><ele>387.0</ele><time>2026-04-27T15:01:19Z</time></trkpt><trkpt lat="45.8747860455672" lon="9.403443248544761"><ele>387.0</ele><time>2026-04-27T15:01:20Z</time></trkpt><trkpt lat="45.8748316445861" lon="9.40356961876072"><ele>387.0</ele><time>2026-04-27T15:01:21Z</time></trkpt><trkpt lat="45.87486533614403" lon="9.403693324116292"><ele>387.0</ele><time>2026-04-27T15:01:22Z</time></trkpt><trkpt lat="45.87484365380246" lon="9.40383290751272"><ele>387.0</ele><time>2026-04-27T15:01:23Z</time></trkpt><trkpt lat="45.8747482506006" lon="9.403923714078129"><ele>387.0</ele><time>2026-04-27T15:01:24Z</time></trkpt><trkpt lat="45.8747417305781" lon="9.403772515658757"><ele>387.0</ele><time>2026-04-27T15:01:25Z</time></trkpt><trkpt lat="45.87460677463059" lon="9.40390812056296"><ele>387.0</ele><time>2026-04-27T15:01:26Z</time></trkpt><trkpt lat="45.87449486815227" lon="9.403976475689692"><ele>384.6</ele><time>2026-04-27T15:01:27Z</time></trkpt><trkpt lat="45.87442225083449" lon="9.404056770349856"><ele>382.20000000000005</ele><time>2026-04-27T15:01:28Z</time></trkpt><trkpt lat="45.87433768960879" lon="9.404159590827678"><ele>379.8</ele><time>2026-04-27T15:01:29Z</time></trkpt><trkpt lat="45.874246986092906" lon="9.404233765442944"><ele>377.4</ele><time>2026-04-27T15:01:30Z</time></trkpt><trkpt lat="45.87416479123557" lon="9.40426258475186"><ele>375.0</ele><time>2026-04-27T15:01:31Z</time></trkpt><trkpt lat="45.87408188909857" lon="9.404280255603991"><ele>374.2</ele><time>2026-04-27T15:01:32Z</time></trkpt><trkpt lat="45.87400016488792" lon="9.404307770389446"><ele>373.4</ele><time>2026-04-27T15:01:33Z</time></trkpt><trkpt lat="45.873920023187324" lon="9.404274927003245"><ele>372.6</ele><time>2026-04-27T15:01:34Z</time></trkpt><trkpt lat="45.87380659992316" lon="9.4042346935518"><ele>371.8</ele><time>2026-04-27T15:01:35Z</time></trkpt><trkpt lat="45.8736964389153" lon="9.40419111009578"><ele>371.0</ele><time>2026-04-27T15:01:36Z</time></trkpt><trkpt lat="45.87358341326407" lon="9.40417312135103"><ele>371.0</ele><time>2026-04-27T15:01:37Z</time></trkpt><trkpt lat="45.873468217616534" lon="9.404150985247155"><ele>371.0</ele><time>2026-04-27T15:01:38Z</time></trkpt><trkpt lat="45.87333781883845" lon="9.404119548156816"><ele>371.0</ele><time>2026-04-27T15:01:39Z</time></trkpt><trkpt lat="45.87323079055034" lon="9.404101628018319"><ele>371.0</ele><time>2026-04-27T15:01:40Z</time></trkpt><trkpt lat="45.8731330459773" lon="9.404104768922663"><ele>370.8</ele><time>2026-04-27T15:01:41Z</time></trkpt><trkpt lat="45.873012608238746" lon="9.404119973847003"><ele>370.6</ele><time>2026-04-27T15:01:42Z</time></trkpt><trkpt lat="45.87288736903853" lon="9.404118746016428"><ele>370.4</ele><time>2026-04-27T15:01:43Z</time></trkpt><trkpt lat="45.87280795468789" lon="9.40413041867452"><ele>370.2</ele><time>2026-04-27T15:01:44Z</time></trkpt><trkpt lat="45.872689438190285" lon="9.404146602919488"><ele>370.0</ele><time>2026-04-27T15:01:45Z</time></trkpt><trkpt lat="45.87252381168162" lon="9.404149681409757"><ele>368.5</ele><time>2026-04-27T15:01:46Z</time></trkpt><trkpt lat="45.872409238156294" lon="9.404129420321588"><ele>367.0</ele><time>2026-04-27T15:01:47Z</time></trkpt><trkpt lat="45.87227752033659" lon="9.404064724741122"><ele>365.5</ele><time>2026-04-27T15:01:48Z</time></trkpt><trkpt lat="45.87218394611465" lon="9.403987499383948"><ele>364.0</ele><time>2026-04-27T15:01:49Z</time></trkpt><trkpt lat="45.872067224253676" lon="9.403899024443819"><ele>364.0</ele><time>2026-04-27T15:01:50Z</time></trkpt><trkpt lat="45.87200844847969" lon="9.4038348695812"><ele>364.0</ele><time>2026-04-27T15:01:51Z</time></trkpt><trkpt lat="45.87191396735259" lon="9.403730920295775"><ele>364.0</ele><time>2026-04-27T15:01:52Z</time></trkpt><trkpt lat="45.87181182071359" lon="9.403655855624443"><ele>364.0</ele><time>2026-04-27T15:01:53Z</time></trkpt><trkpt lat="45.87172138844645" lon="9.403579806722105"><ele>364.0</ele><time>2026-04-27T15:01:54Z</time></trkpt><trkpt lat="45.87157300286228" lon="9.403509608070783"><ele>359.25</ele><time>2026-04-27T15:01:55Z</time></trkpt><trkpt lat="45.87146142100754" lon="9.403384643554498"><ele>354.5</ele><time>2026-04-27T15:01:56Z</time></trkpt><trkpt lat="45.87134581342481" lon="9.403304742651127"><ele>349.75</ele><time>2026-04-27T15:01:57Z</time></trkpt><trkpt lat="45.8712524790021" lon="9.403219662373138"><ele>345.0</ele><time>2026-04-27T15:01:58Z</time></trkpt><trkpt lat="45.87114868944071" lon="9.403140871194863"><ele>345.0</ele><time>2026-04-27T15:01:59Z</time></trkpt><trkpt lat="45.87102682945282" lon="9.40305867196726"><ele>345.0</ele><time>2026-04-27T15:02:00Z</time></trkpt><trkpt lat="45.87091652373694" lon="9.402976586389173"><ele>345.0</ele><time>2026-04-27T15:02:01Z</time></trkpt><trkpt lat="45.870808224822916" lon="9.402958384989214"><ele>345.0</ele><time>2026-04-27T15:02:02Z</time></trkpt><trkpt lat="45.87071005751739" lon="9.402932246195169"><ele>343.2</ele><time>2026-04-27T15:02:03Z</time></trkpt><trkpt lat="45.87060105200452" lon="9.402926500656537"><ele>341.4</ele><time>2026-04-27T15:02:04Z</time></trkpt><trkpt lat="45.87049987724442" lon="9.402929949426376"><ele>339.6</ele><time>2026-04-27T15:02:05Z</time></trkpt><trkpt lat="45.87040524501539" lon="9.402933259750153"><ele>337.8</ele><time>2026-04-27T15:02:06Z</time></trkpt><trkpt lat="45.87028356769617" lon="9.402978566802659"><ele>336.0</ele><time>2026-04-27T15:02:07Z</time></trkpt><trkpt lat="45.87016683407169" lon="9.402989015933693"><ele>335.0</ele><time>2026-04-27T15:02:08Z</time></trkpt><trkpt lat="45.870051103113376" lon="9.4029784593753"><ele>334.0</ele><time>2026-04-27T15:02:09Z</time></trkpt><trkpt lat="45.86994429822812" lon="9.402930063875852"><ele>333.0</ele><time>2026-04-27T15:02:10Z</time></trkpt><trkpt lat="45.86984535418649" lon="9.40287371270276"><ele>332.0</ele><time>2026-04-27T15:02:11Z</time></trkpt><trkpt lat="45.86971426135367" lon="9.402820232360757"><ele>332.0</ele><time>2026-04-27T15:02:12Z</time></trkpt><trkpt lat="45.86961722085596" lon="9.40273503281196"><ele>332.0</ele><time>2026-04-27T15:02:13Z</time></trkpt><trkpt lat="45.86951530448233" lon="9.40264098060265"><ele>332.0</ele><time>2026-04-27T15:02:14Z</time></trkpt><trkpt lat="45.8694008702054" lon="9.402657322546624"><ele>332.0</ele><time>2026-04-27T15:02:15Z</time></trkpt><trkpt lat="45.86932221421902" lon="9.402647094095117"><ele>332.0</ele><time>2026-04-27T15:02:16Z</time></trkpt><trkpt lat="45.86917822553314" lon="9.4027177582933"><ele>331.40000000000003</ele><time>2026-04-27T15:02:17Z</time></trkpt><trkpt lat="45.869058123094796" lon="9.402752069000735"><ele>330.8</ele><time>2026-04-27T15:02:18Z</time></trkpt><trkpt lat="45.86895179726619" lon="9.402843163563256"><ele>330.2</ele><time>2026-04-27T15:02:19Z</time></trkpt><trkpt lat="45.86885257302007" lon="9.402917476177711"><ele>329.6</ele><time>2026-04-27T15:02:20Z</time></trkpt><trkpt lat="45.86878923286735" lon="9.40298619442444"><ele>329.0</ele><time>2026-04-27T15:02:21Z</time></trkpt><trkpt lat="45.86873176366551" lon="9.403126147350527"><ele>330.5</ele><time>2026-04-27T15:02:23Z</time></trkpt><trkpt lat="45.868705335443146" lon="9.403250216876943"><ele>332.0</ele><time>2026-04-27T15:02:24Z</time></trkpt><trkpt lat="45.86871300775274" lon="9.403372590775767"><ele>333.5</ele><time>2026-04-27T15:02:25Z</time></trkpt><trkpt lat="45.86869862970547" lon="9.403500845282739"><ele>335.0</ele><time>2026-04-27T15:02:26Z</time></trkpt><trkpt lat="45.86868138500733" lon="9.403632983387569"><ele>336.5</ele><time>2026-04-27T15:02:27Z</time></trkpt><trkpt lat="45.868647345994376" lon="9.403748052174375"><ele>338.0</ele><time>2026-04-27T15:02:28Z</time></trkpt><trkpt lat="45.86861479370281" lon="9.40383607071846"><ele>338.79999999999995</ele><time>2026-04-27T15:02:29Z</time></trkpt><trkpt lat="45.86856610114971" lon="9.403905506935665"><ele>339.6</ele><time>2026-04-27T15:02:30Z</time></trkpt><trkpt lat="45.86846392012456" lon="9.403859746937645"><ele>340.4</ele><time>2026-04-27T15:02:31Z</time></trkpt><trkpt lat="45.86831339623573" lon="9.403850273428331"><ele>341.20000000000005</ele><time>2026-04-27T15:02:32Z</time></trkpt><trkpt lat="45.86821911036875" lon="9.403816872419227"><ele>342.0</ele><time>2026-04-27T15:02:33Z</time></trkpt><trkpt lat="45.86812134148971" lon="9.403829555408308"><ele>337.0</ele><time>2026-04-27T15:02:34Z</time></trkpt><trkpt lat="45.86800515843137" lon="9.403813434609203"><ele>332.0</ele><time>2026-04-27T15:02:35Z</time></trkpt><trkpt lat="45.86790266308286" lon="9.403778601865795"><ele>327.0</ele><time>2026-04-27T15:02:36Z</time></trkpt><trkpt lat="45.86778283715313" lon="9.40369681302625"><ele>322.0</ele><time>2026-04-27T15:02:37Z</time></trkpt><trkpt lat="45.86762190638864" lon="9.403622760194297"><ele>321.0</ele><time>2026-04-27T15:02:38Z</time></trkpt><trkpt lat="45.86743990434926" lon="9.403543253033105"><ele>320.0</ele><time>2026-04-27T15:02:39Z</time></trkpt><trkpt lat="45.867226648631856" lon="9.403427426509877"><ele>319.0</ele><time>2026-04-27T15:02:40Z</time></trkpt><trkpt lat="45.8670140801481" lon="9.403307736803201"><ele>319.0</ele><time>2026-04-27T15:02:41Z</time></trkpt><trkpt lat="45.86683835921291" lon="9.403203750700047"><ele>319.0</ele><time>2026-04-27T15:02:42Z</time></trkpt><trkpt lat="45.866668130240875" lon="9.403111582545336"><ele>319.0</ele><time>2026-04-27T15:02:43Z</time></trkpt><trkpt lat="45.86650774067305" lon="9.40302787124827"><ele>317.0</ele><time>2026-04-27T15:02:44Z</time></trkpt><trkpt lat="45.866372217866875" lon="9.402937728030132"><ele>315.0</ele><time>2026-04-27T15:02:45Z</time></trkpt><trkpt lat="45.86626382642805" lon="9.402888089653265"><ele>313.0</ele><time>2026-04-27T15:02:46Z</time></trkpt><trkpt lat="45.866136729031034" lon="9.402877687608942"><ele>311.0</ele><time>2026-04-27T15:02:47Z</time></trkpt><trkpt lat="45.86602515147328" lon="9.402893807056023"><ele>308.75</ele><time>2026-04-27T15:02:48Z</time></trkpt><trkpt lat="45.86590414139919" lon="9.402965542062292"><ele>306.5</ele><time>2026-04-27T15:02:49Z</time></trkpt><trkpt lat="45.865792329714175" lon="9.403157570205536"><ele>304.25</ele><time>2026-04-27T15:02:50Z</time></trkpt><trkpt lat="45.865679143411114" lon="9.403274626818522"><ele>302.0</ele><time>2026-04-27T15:02:51Z</time></trkpt><trkpt lat="45.865576136882254" lon="9.403372994558037"><ele>302.0</ele><time>2026-04-27T15:02:52Z</time></trkpt><trkpt lat="45.8654535683891" lon="9.403435708655344"><ele>302.0</ele><time>2026-04-27T15:02:53Z</time></trkpt><trkpt lat="45.86534420327163" lon="9.403523155397435"><ele>302.0</ele><time>2026-04-27T15:02:54Z</time></trkpt><trkpt lat="45.86525159963564" lon="9.403659520114308"><ele>302.0</ele><time>2026-04-27T15:02:55Z</time></trkpt><trkpt lat="45.86517589945468" lon="9.40384155508605"><ele>303.0</ele><time>2026-04-27T15:02:56Z</time></trkpt><trkpt lat="45.86512220168492" lon="9.404090805975207"><ele>304.0</ele><time>2026-04-27T15:02:57Z</time></trkpt><trkpt lat="45.86508401289242" lon="9.40433949975347"><ele>305.0</ele><time>2026-04-27T15:02:58Z</time></trkpt><trkpt lat="45.865040802231825" lon="9.404541771561119"><ele>302.8</ele><time>2026-04-27T15:02:59Z</time></trkpt><trkpt lat="45.865005142802865" lon="9.404707058086672"><ele>300.6</ele><time>2026-04-27T15:03:00Z</time></trkpt><trkpt lat="45.86495044419243" lon="9.404815267858298"><ele>298.4</ele><time>2026-04-27T15:03:01Z</time></trkpt><trkpt lat="45.864891938423966" lon="9.404923911371707"><ele>296.2</ele><time>2026-04-27T15:03:02Z</time></trkpt><trkpt lat="45.864813129587624" lon="9.405013111275986"><ele>294.0</ele><time>2026-04-27T15:03:03Z</time></trkpt><trkpt lat="45.86467315948287" lon="9.404981976764834"><ele>294.0</ele><time>2026-04-27T15:03:04Z</time></trkpt><trkpt lat="45.864545348956916" lon="9.404874263210955"><ele>294.0</ele><time>2026-04-27T15:03:05Z</time></trkpt><trkpt lat="45.86441976678424" lon="9.404764234066894"><ele>294.0</ele><time>2026-04-27T15:03:06Z</time></trkpt><trkpt lat="45.86431208514121" lon="9.404690799742509"><ele>294.0</ele><time>2026-04-27T15:03:07Z</time></trkpt><trkpt lat="45.8642060764632" lon="9.404573039361773"><ele>291.3333333333333</ele><time>2026-04-27T15:03:08Z</time></trkpt><trkpt lat="45.864078996106635" lon="9.404367339974169"><ele>288.66666666666663</ele><time>2026-04-27T15:03:09Z</time></trkpt><trkpt lat="45.86399418831537" lon="9.404158354476715"><ele>286.0</ele><time>2026-04-27T15:03:10Z</time></trkpt><trkpt lat="45.86393339563967" lon="9.40401565758493"><ele>286.0</ele><time>2026-04-27T15:03:11Z</time></trkpt><trkpt lat="45.86398583689784" lon="9.403898465210492"><ele>286.0</ele><time>2026-04-27T15:03:12Z</time></trkpt><trkpt lat="45.863999757350435" lon="9.403775174215708"><ele>286.0</ele><time>2026-04-27T15:03:14Z</time></trkpt><trkpt lat="45.86402989027314" lon="9.403692879606266"><ele>286.0</ele><time>2026-04-27T15:03:19Z</time></trkpt><trkpt lat="45.86401078036428" lon="9.403591133144191"><ele>286.0</ele><time>2026-04-27T15:03:20Z</time></trkpt><trkpt lat="45.86395807032173" lon="9.4034810466378"><ele>286.0</ele><time>2026-04-27T15:03:21Z</time></trkpt><trkpt lat="45.863941245604146" lon="9.403387236378672"><ele>285.57142857142856</ele><time>2026-04-27T15:03:22Z</time></trkpt><trkpt lat="45.86394468425393" lon="9.40329316208907"><ele>285.1428571428571</ele><time>2026-04-27T15:03:23Z</time></trkpt><trkpt lat="45.86396993255158" lon="9.403204638029097"><ele>284.7142857142857</ele><time>2026-04-27T15:03:24Z</time></trkpt><trkpt lat="45.864007333809454" lon="9.40312108231592"><ele>284.2857142857143</ele><time>2026-04-27T15:03:25Z</time></trkpt><trkpt lat="45.86405132394821" lon="9.403053067354277"><ele>283.8571428571429</ele><time>2026-04-27T15:03:26Z</time></trkpt><trkpt lat="45.86410479229237" lon="9.402966385914853"><ele>283.42857142857144</ele><time>2026-04-27T15:03:27Z</time></trkpt><trkpt lat="45.86413184482715" lon="9.402884423404668"><ele>283.0</ele><time>2026-04-27T15:03:28Z</time></trkpt><trkpt lat="45.86412341124696" lon="9.402764949717694"><ele>282.4</ele><time>2026-04-27T15:03:29Z</time></trkpt><trkpt lat="45.86421102674784" lon="9.402688166920639"><ele>281.8</ele><time>2026-04-27T15:03:31Z</time></trkpt><trkpt lat="45.86425430788919" lon="9.402595939302998"><ele>281.2</ele><time>2026-04-27T15:03:33Z</time></trkpt><trkpt lat="45.864329924102236" lon="9.402447593301082"><ele>280.6</ele><time>2026-04-27T15:03:35Z</time></trkpt><trkpt lat="45.864398945419474" lon="9.402308220872843"><ele>280.0</ele><time>2026-04-27T15:03:37Z</time></trkpt><trkpt lat="45.864433447342556" lon="9.402218091886906"><ele>280.0</ele><time>2026-04-27T15:03:38Z</time></trkpt><trkpt lat="45.86446091622826" lon="9.40210935721715"><ele>280.0</ele><time>2026-04-27T15:03:40Z</time></trkpt><trkpt lat="45.86438738109629" lon="9.401865150561555"><ele>280.0</ele><time>2026-04-27T15:03:48Z</time></trkpt><trkpt lat="45.86428060114683" lon="9.402046969347085"><ele>280.0</ele><time>2026-04-27T15:04:02Z</time></trkpt><trkpt lat="45.86416011927713" lon="9.401930039846167"><ele>280.0</ele><time>2026-04-27T15:08:12Z</time></trkpt><trkpt lat="45.86412402352159" lon="9.40204699956747"><ele>280.0</ele><time>2026-04-27T15:08:41Z</time></trkpt><trkpt lat="45.86417917071006" lon="9.40215703536184"><ele>280.0</ele><time>2026-04-27T15:08:43Z</time></trkpt><trkpt lat="45.86421180951588" lon="9.402255285512648"><ele>280.0</ele><time>2026-04-27T15:08:46Z</time></trkpt><trkpt lat="45.864201443099944" lon="9.402370318434032"><ele>280.0</ele><time>2026-04-27T15:08:50Z</time></trkpt><trkpt lat="45.86417827955306" lon="9.402458652244382"><ele>280.0</ele><time>2026-04-27T15:08:52Z</time></trkpt><trkpt lat="45.86413509064667" lon="9.402564730349853"><ele>280.0</ele><time>2026-04-27T15:09:26Z</time></trkpt><trkpt lat="45.864104905691775" lon="9.402646657419515"><ele>280.0</ele><time>2026-04-27T15:09:30Z</time></trkpt><trkpt lat="45.86421623440332" lon="9.402652033473194"><ele>280.0</ele><time>2026-04-27T15:11:13Z</time></trkpt><trkpt lat="45.8642667941063" lon="9.402579966412283"><ele>280.0</ele><time>2026-04-27T15:29:38.999Z</time></trkpt><trkpt lat="45.86423517562996" lon="9.402480671972956"><ele>280.0</ele><time>2026-04-27T15:29:44.999Z</time></trkpt><trkpt lat="45.864158493657435" lon="9.402469280416875"><ele>280.0</ele><time>2026-04-27T15:30:18Z</time></trkpt><trkpt lat="45.8641707176719" lon="9.402560400797245"><ele>280.0</ele><time>2026-04-27T15:30:51Z</time></trkpt><trkpt lat="45.86415025977932" lon="9.402660834572822"><ele>280.0</ele><time>2026-04-27T15:30:55Z</time></trkpt><trkpt lat="45.86411812972526" lon="9.402759905574268"><ele>280.0</ele><time>2026-04-27T15:30:59Z</time></trkpt><trkpt lat="45.864079851234536" lon="9.402840667028661"><ele>280.0</ele><time>2026-04-27T15:31:01Z</time></trkpt><trkpt lat="45.86400777679738" lon="9.402861977561846"><ele>280.0</ele><time>2026-04-27T15:31:07Z</time></trkpt><trkpt lat="45.863943287255275" lon="9.402942465570936"><ele>280.0</ele><time>2026-04-27T15:31:12Z</time></trkpt><trkpt lat="45.863868496830285" lon="9.402990832688825"><ele>280.5</ele><time>2026-04-27T15:31:14Z</time></trkpt><trkpt lat="45.863796740275" lon="9.403084405045735"><ele>281.0</ele><time>2026-04-27T15:31:16Z</time></trkpt><trkpt lat="45.86376578293476" lon="9.403246722260404"><ele>281.5</ele><time>2026-04-27T15:31:18Z</time></trkpt><trkpt lat="45.8637511577399" lon="9.40334958631969"><ele>282.0</ele><time>2026-04-27T15:31:19Z</time></trkpt><trkpt lat="45.86372163354233" lon="9.403438846539833"><ele>282.5</ele><time>2026-04-27T15:31:20Z</time></trkpt><trkpt lat="45.86367614576878" lon="9.403534378181993"><ele>283.0</ele><time>2026-04-27T15:31:21Z</time></trkpt><trkpt lat="45.863629980276606" lon="9.40362532449803"><ele>283.0</ele><time>2026-04-27T15:31:22Z</time></trkpt><trkpt lat="45.863590269246934" lon="9.403701437892938"><ele>283.0</ele><time>2026-04-27T15:31:23Z</time></trkpt><trkpt lat="45.863577284588814" lon="9.403794935000017"><ele>283.0</ele><time>2026-04-27T15:31:24Z</time></trkpt><trkpt lat="45.8634702405759" lon="9.403948846648992"><ele>283.0</ele><time>2026-04-27T15:31:26Z</time></trkpt><trkpt lat="45.86341692868215" lon="9.404038780211652"><ele>283.0</ele><time>2026-04-27T15:31:27Z</time></trkpt><trkpt lat="45.863363461248" lon="9.404139674910901"><ele>281.0</ele><time>2026-04-27T15:31:28Z</time></trkpt><trkpt lat="45.86330578631086" lon="9.404231368135532"><ele>279.0</ele><time>2026-04-27T15:31:29Z</time></trkpt><trkpt lat="45.86324170384894" lon="9.404378328705727"><ele>277.0</ele><time>2026-04-27T15:31:30Z</time></trkpt><trkpt lat="45.86317994946359" lon="9.404491643115888"><ele>275.0</ele><time>2026-04-27T15:31:31Z</time></trkpt><trkpt lat="45.86315676855378" lon="9.404584710336149"><ele>273.0</ele><time>2026-04-27T15:31:32Z</time></trkpt><trkpt lat="45.863098363000034" lon="9.404675361414428"><ele>272.85714285714283</ele><time>2026-04-27T15:31:33Z</time></trkpt><trkpt lat="45.86307218509322" lon="9.404758577645737"><ele>272.7142857142857</ele><time>2026-04-27T15:31:34Z</time></trkpt><trkpt lat="45.863039560838565" lon="9.404838992019178"><ele>272.57142857142856</ele><time>2026-04-27T15:31:35Z</time></trkpt><trkpt lat="45.86299792034581" lon="9.404927487275218"><ele>272.42857142857144</ele><time>2026-04-27T15:31:36Z</time></trkpt><trkpt lat="45.86295885724158" lon="9.405013508932774"><ele>272.2857142857143</ele><time>2026-04-27T15:31:37Z</time></trkpt><trkpt lat="45.86290961573901" lon="9.405084844694443"><ele>272.1428571428571</ele><time>2026-04-27T15:31:38Z</time></trkpt><trkpt lat="45.86287830167224" lon="9.40516730132352"><ele>272.0</ele><time>2026-04-27T15:31:39Z</time></trkpt><trkpt lat="45.862828459656065" lon="9.40526485429385"><ele>272.0</ele><time>2026-04-27T15:31:40Z</time></trkpt><trkpt lat="45.86279064043486" lon="9.405344695486473"><ele>272.0</ele><time>2026-04-27T15:31:41Z</time></trkpt><trkpt lat="45.862761606146364" lon="9.405444764601206"><ele>272.0</ele><time>2026-04-27T15:31:42Z</time></trkpt><trkpt lat="45.86269491271485" lon="9.405545315463506"><ele>272.0</ele><time>2026-04-27T15:31:43Z</time></trkpt><trkpt lat="45.862641125733724" lon="9.405657586999363"><ele>272.0</ele><time>2026-04-27T15:31:44Z</time></trkpt><trkpt lat="45.862569258482374" lon="9.40574874544456"><ele>272.0</ele><time>2026-04-27T15:31:45Z</time></trkpt><trkpt lat="45.8625043655538" lon="9.405845791978443"><ele>271.6</ele><time>2026-04-27T15:31:46Z</time></trkpt><trkpt lat="45.86245809380096" lon="9.405926389375194"><ele>271.2</ele><time>2026-04-27T15:31:47Z</time></trkpt><trkpt lat="45.86237899825692" lon="9.406026285743632"><ele>270.8</ele><time>2026-04-27T15:31:48Z</time></trkpt><trkpt lat="45.862296241601875" lon="9.406130847413854"><ele>270.4</ele><time>2026-04-27T15:31:49Z</time></trkpt><trkpt lat="45.862219671032946" lon="9.406218035050934"><ele>270.0</ele><time>2026-04-27T15:31:50Z</time></trkpt><trkpt lat="45.86213753556463" lon="9.406306027454734"><ele>270.0</ele><time>2026-04-27T15:31:51Z</time></trkpt><trkpt lat="45.862049431551185" lon="9.406376173887145"><ele>270.0</ele><time>2026-04-27T15:31:52Z</time></trkpt><trkpt lat="45.861983335255175" lon="9.406436179982405"><ele>270.0</ele><time>2026-04-27T15:31:53Z</time></trkpt><trkpt lat="45.86190026330005" lon="9.406489380241426"><ele>270.0</ele><time>2026-04-27T15:31:54Z</time></trkpt><trkpt lat="45.86181646143597" lon="9.406546295199785"><ele>270.0</ele><time>2026-04-27T15:31:55Z</time></trkpt><trkpt lat="45.86173565124955" lon="9.406613665007983"><ele>267.8333333333333</ele><time>2026-04-27T15:31:56Z</time></trkpt><trkpt lat="45.86164193600036" lon="9.406665976707409"><ele>265.6666666666667</ele><time>2026-04-27T15:31:57Z</time></trkpt><trkpt lat="45.86156033550433" lon="9.406708515509498"><ele>263.5</ele><time>2026-04-27T15:31:58Z</time></trkpt><trkpt lat="45.86147267596248" lon="9.406756109071434"><ele>261.33333333333337</ele><time>2026-04-27T15:31:59Z</time></trkpt><trkpt lat="45.86139696588772" lon="9.406792214968474"><ele>259.1666666666667</ele><time>2026-04-27T15:32:00Z</time></trkpt><trkpt lat="45.861323803585236" lon="9.406829905537766"><ele>257.0</ele><time>2026-04-27T15:32:00.999Z</time></trkpt><trkpt lat="45.86125092977682" lon="9.406855924331255"><ele>257.0</ele><time>2026-04-27T15:32:01.999Z</time></trkpt><trkpt lat="45.86117922334319" lon="9.406878111671368"><ele>257.0</ele><time>2026-04-27T15:32:02.999Z</time></trkpt><trkpt lat="45.86110616550982" lon="9.406918114599875"><ele>257.0</ele><time>2026-04-27T15:32:03.999Z</time></trkpt><trkpt lat="45.861019913936154" lon="9.406956012392188"><ele>257.0</ele><time>2026-04-27T15:32:04.999Z</time></trkpt><trkpt lat="45.86092050539688" lon="9.40700496691568"><ele>257.0</ele><time>2026-04-27T15:32:05.999Z</time></trkpt><trkpt lat="45.86081721332925" lon="9.407043302906738"><ele>257.0</ele><time>2026-04-27T15:32:06.999Z</time></trkpt><trkpt lat="45.860713254620144" lon="9.407088974992572"><ele>257.0</ele><time>2026-04-27T15:32:07.999Z</time></trkpt><trkpt lat="45.860607021290285" lon="9.407146633851918"><ele>257.0</ele><time>2026-04-27T15:32:08.999Z</time></trkpt><trkpt lat="45.8604999985995" lon="9.407193045570196"><ele>257.0</ele><time>2026-04-27T15:32:09.999Z</time></trkpt><trkpt lat="45.86039253532" lon="9.407226176819485"><ele>257.0</ele><time>2026-04-27T15:32:10.999Z</time></trkpt><trkpt lat="45.86028132106691" lon="9.407274572879594"><ele>257.0</ele><time>2026-04-27T15:32:11.999Z</time></trkpt><trkpt lat="45.86018379786534" lon="9.407325671125857"><ele>257.0</ele><time>2026-04-27T15:32:12.999Z</time></trkpt><trkpt lat="45.8600944310122" lon="9.407367075366203"><ele>257.0</ele><time>2026-04-27T15:32:13.999Z</time></trkpt><trkpt lat="45.859999931411664" lon="9.407419475465263"><ele>257.0</ele><time>2026-04-27T15:32:14.999Z</time></trkpt><trkpt lat="45.8599060694936" lon="9.407464551792286"><ele>257.0</ele><time>2026-04-27T15:32:16Z</time></trkpt><trkpt lat="45.85981056996233" lon="9.407498667208166"><ele>256.2</ele><time>2026-04-27T15:32:17Z</time></trkpt><trkpt lat="45.85971405496327" lon="9.407561569149596"><ele>255.39999999999998</ele><time>2026-04-27T15:32:18Z</time></trkpt><trkpt lat="45.8596246223154" lon="9.40764844300382"><ele>254.60000000000002</ele><time>2026-04-27T15:32:19Z</time></trkpt><trkpt lat="45.859548464771066" lon="9.40775857414638"><ele>253.8</ele><time>2026-04-27T15:32:20Z</time></trkpt><trkpt lat="45.85948049549707" lon="9.40787339306217"><ele>253.0</ele><time>2026-04-27T15:32:21Z</time></trkpt><trkpt lat="45.85942255014322" lon="9.407949347626902"><ele>252.83333333333331</ele><time>2026-04-27T15:32:22Z</time></trkpt><trkpt lat="45.85936370113817" lon="9.408028838789646"><ele>252.66666666666666</ele><time>2026-04-27T15:32:23Z</time></trkpt><trkpt lat="45.85930094867468" lon="9.408106367510152"><ele>252.5</ele><time>2026-04-27T15:32:24Z</time></trkpt><trkpt lat="45.859244323207335" lon="9.408178605701941"><ele>252.33333333333331</ele><time>2026-04-27T15:32:25Z</time></trkpt><trkpt lat="45.859183253633724" lon="9.408257440858264"><ele>252.16666666666666</ele><time>2026-04-27T15:32:26Z</time></trkpt><trkpt lat="45.859105179709466" lon="9.40835409616448"><ele>252.0</ele><time>2026-04-27T15:32:27Z</time></trkpt><trkpt lat="45.859037525215285" lon="9.408433300745552"><ele>252.0</ele><time>2026-04-27T15:32:28Z</time></trkpt><trkpt lat="45.85898139451895" lon="9.408510607374632"><ele>252.0</ele><time>2026-04-27T15:32:29Z</time></trkpt><trkpt lat="45.858922711286084" lon="9.408591287350681"><ele>252.0</ele><time>2026-04-27T15:32:30Z</time></trkpt><trkpt lat="45.85886352519897" lon="9.408674483696686"><ele>252.0</ele><time>2026-04-27T15:32:31Z</time></trkpt><trkpt lat="45.858813248006115" lon="9.408744338140389"><ele>252.0</ele><time>2026-04-27T15:32:32Z</time></trkpt><trkpt lat="45.85875315057904" lon="9.408813519188284"><ele>252.0</ele><time>2026-04-27T15:32:33Z</time></trkpt><trkpt lat="45.85865676104582" lon="9.408890126241445"><ele>251.2</ele><time>2026-04-27T15:32:35Z</time></trkpt><trkpt lat="45.85859301470072" lon="9.40893081053861"><ele>250.39999999999998</ele><time>2026-04-27T15:32:36Z</time></trkpt><trkpt lat="45.8584962615422" lon="9.408963855484949"><ele>249.60000000000002</ele><time>2026-04-27T15:32:38Z</time></trkpt><trkpt lat="45.858435422989174" lon="9.409123839805787"><ele>248.8</ele><time>2026-04-27T15:32:40Z</time></trkpt><trkpt lat="45.85835405137697" lon="9.409292788725235"><ele>248.0</ele><time>2026-04-27T15:32:42Z</time></trkpt><trkpt lat="45.85829087688352" lon="9.409355756144182"><ele>248.0</ele><time>2026-04-27T15:32:43Z</time></trkpt><trkpt lat="45.8582455571117" lon="9.40944769589154"><ele>248.0</ele><time>2026-04-27T15:32:44Z</time></trkpt><trkpt lat="45.858197486167164" lon="9.40955380626977"><ele>248.0</ele><time>2026-04-27T15:32:45Z</time></trkpt><trkpt lat="45.85808800048174" lon="9.409632768884965"><ele>248.0</ele><time>2026-04-27T15:32:46Z</time></trkpt><trkpt lat="45.85800324405696" lon="9.409729650654688"><ele>248.0</ele><time>2026-04-27T15:32:47Z</time></trkpt><trkpt lat="45.85792024945039" lon="9.409828150206481"><ele>249.0</ele><time>2026-04-27T15:32:48Z</time></trkpt><trkpt lat="45.85784342704079" lon="9.409919542822168"><ele>250.0</ele><time>2026-04-27T15:32:49Z</time></trkpt><trkpt lat="45.857774554942814" lon="9.410037251207042"><ele>251.0</ele><time>2026-04-27T15:32:50Z</time></trkpt><trkpt lat="45.85769754451914" lon="9.41015515480858"><ele>252.0</ele><time>2026-04-27T15:32:51Z</time></trkpt><trkpt lat="45.857612223205514" lon="9.410278275913647"><ele>253.0</ele><time>2026-04-27T15:32:52Z</time></trkpt><trkpt lat="45.85750417195946" lon="9.410400343660587"><ele>252.75</ele><time>2026-04-27T15:32:53Z</time></trkpt><trkpt lat="45.857401580582625" lon="9.410527274721405"><ele>252.5</ele><time>2026-04-27T15:32:54Z</time></trkpt><trkpt lat="45.857302918364056" lon="9.41064972784694"><ele>252.25</ele><time>2026-04-27T15:32:55Z</time></trkpt><trkpt lat="45.857201743559955" lon="9.410763384361848"><ele>252.0</ele><time>2026-04-27T15:32:56Z</time></trkpt><trkpt lat="45.85710756274403" lon="9.410913999469132"><ele>252.0</ele><time>2026-04-27T15:32:57Z</time></trkpt><trkpt lat="45.85702019129024" lon="9.411032735572647"><ele>252.0</ele><time>2026-04-27T15:32:58Z</time></trkpt><trkpt lat="45.85692183516242" lon="9.41115759461127"><ele>252.0</ele><time>2026-04-27T15:32:59Z</time></trkpt><trkpt lat="45.85682128649837" lon="9.411268482919096"><ele>252.0</ele><time>2026-04-27T15:33:00Z</time></trkpt><trkpt lat="45.85673467424728" lon="9.411361305604801"><ele>251.75</ele><time>2026-04-27T15:33:01Z</time></trkpt><trkpt lat="45.85661994939835" lon="9.41145568453877"><ele>251.5</ele><time>2026-04-27T15:33:02Z</time></trkpt><trkpt lat="45.85650462189171" lon="9.411521492911941"><ele>251.25</ele><time>2026-04-27T15:33:03Z</time></trkpt><trkpt lat="45.856410253611735" lon="9.41159190923661"><ele>251.0</ele><time>2026-04-27T15:33:04Z</time></trkpt><trkpt lat="45.85632497219963" lon="9.41165508093095"><ele>251.00000000000003</ele><time>2026-04-27T15:33:05Z</time></trkpt><trkpt lat="45.85624431747245" lon="9.411710582885188"><ele>251.0</ele><time>2026-04-27T15:33:06Z</time></trkpt><trkpt lat="45.85617580330538" lon="9.411795498562576"><ele>251.0</ele><time>2026-04-27T15:33:07Z</time></trkpt><trkpt lat="45.85612058865536" lon="9.411842886540606"><ele>251.0</ele><time>2026-04-27T15:33:08Z</time></trkpt><trkpt lat="45.856034785182516" lon="9.41187429297145"><ele>251.00000000000003</ele><time>2026-04-27T15:33:09Z</time></trkpt><trkpt lat="45.85595531246809" lon="9.411917771684724"><ele>251.0</ele><time>2026-04-27T15:33:10Z</time></trkpt><trkpt lat="45.85585192027649" lon="9.411936258010067"><ele>250.60000000000002</ele><time>2026-04-27T15:33:11Z</time></trkpt><trkpt lat="45.855758238379956" lon="9.412006439178388"><ele>250.20000000000002</ele><time>2026-04-27T15:33:12Z</time></trkpt><trkpt lat="45.855646454046216" lon="9.412044903947361"><ele>249.79999999999998</ele><time>2026-04-27T15:33:13Z</time></trkpt><trkpt lat="45.85554630611548" lon="9.412097327422776"><ele>249.39999999999998</ele><time>2026-04-27T15:33:14Z</time></trkpt><trkpt lat="45.855445084148016" lon="9.412146584374455"><ele>249.0</ele><time>2026-04-27T15:33:15Z</time></trkpt><trkpt lat="45.855337788896264" lon="9.412181435876406"><ele>249.0</ele><time>2026-04-27T15:33:16Z</time></trkpt><trkpt lat="45.855235826854994" lon="9.412212827063442"><ele>248.99999999999997</ele><time>2026-04-27T15:33:17Z</time></trkpt><trkpt lat="45.85513267677609" lon="9.412246002804363"><ele>248.99999999999997</ele><time>2026-04-27T15:33:18Z</time></trkpt><trkpt lat="45.85501549469964" lon="9.412261476546709"><ele>249.0</ele><time>2026-04-27T15:33:19Z</time></trkpt><trkpt lat="45.85489954196256" lon="9.41228681647201"><ele>249.0</ele><time>2026-04-27T15:33:20Z</time></trkpt><trkpt lat="45.85480180459636" lon="9.412306378683454"><ele>248.79999999999998</ele><time>2026-04-27T15:33:21Z</time></trkpt><trkpt lat="45.85470101337954" lon="9.412324410749598"><ele>248.59999999999997</ele><time>2026-04-27T15:33:22Z</time></trkpt><trkpt lat="45.85461073430896" lon="9.412326432407783"><ele>248.4</ele><time>2026-04-27T15:33:23Z</time></trkpt><trkpt lat="45.8545157131633" lon="9.412335766072983"><ele>248.2</ele><time>2026-04-27T15:33:24Z</time></trkpt><trkpt lat="45.85441905355527" lon="9.412356627721449"><ele>248.0</ele><time>2026-04-27T15:33:25Z</time></trkpt><trkpt lat="45.854329654882214" lon="9.412376923264162"><ele>247.66666666666669</ele><time>2026-04-27T15:33:26Z</time></trkpt><trkpt lat="45.85424844938629" lon="9.412385156011318"><ele>247.33333333333334</ele><time>2026-04-27T15:33:27Z</time></trkpt><trkpt lat="45.854176078834584" lon="9.412397271165654"><ele>247.0</ele><time>2026-04-27T15:33:28Z</time></trkpt><trkpt lat="45.8541089563747" lon="9.41240846521377"><ele>246.66666666666669</ele><time>2026-04-27T15:33:29Z</time></trkpt><trkpt lat="45.854008365477675" lon="9.41242146215205"><ele>246.33333333333334</ele><time>2026-04-27T15:33:31Z</time></trkpt><trkpt lat="45.85390708092794" lon="9.412431814410917"><ele>246.0</ele><time>2026-04-27T15:33:34Z</time></trkpt><trkpt lat="45.853844674498994" lon="9.412449094117237"><ele>246.0</ele><time>2026-04-27T15:33:36Z</time></trkpt><trkpt lat="45.85375458801195" lon="9.412484839322284"><ele>246.00000000000003</ele><time>2026-04-27T15:33:42Z</time></trkpt><trkpt lat="45.853673804184936" lon="9.412468211993367"><ele>246.00000000000003</ele><time>2026-04-27T15:33:44Z</time></trkpt><trkpt lat="45.85358124573708" lon="9.41255205390531"><ele>246.0</ele><time>2026-04-27T15:33:46Z</time></trkpt><trkpt lat="45.85349334043365" lon="9.412578942135092"><ele>246.0</ele><time>2026-04-27T15:33:47Z</time></trkpt><trkpt lat="45.853409247322816" lon="9.412639135787169"><ele>246.0</ele><time>2026-04-27T15:33:48Z</time></trkpt><trkpt lat="45.85329876214066" lon="9.41271307347532"><ele>246.0</ele><time>2026-04-27T15:33:49Z</time></trkpt><trkpt lat="45.85319191032924" lon="9.412782071515684"><ele>246.0</ele><time>2026-04-27T15:33:50Z</time></trkpt><trkpt lat="45.85308008571679" lon="9.412857933567564"><ele>246.0</ele><time>2026-04-27T15:33:50.999Z</time></trkpt><trkpt lat="45.85297819756356" lon="9.412934609361544"><ele>246.60000000000002</ele><time>2026-04-27T15:33:51.999Z</time></trkpt><trkpt lat="45.85287151437953" lon="9.413008248659073"><ele>247.20000000000002</ele><time>2026-04-27T15:33:52.999Z</time></trkpt><trkpt lat="45.85277851921872" lon="9.413068012336113"><ele>247.79999999999998</ele><time>2026-04-27T15:33:53.999Z</time></trkpt><trkpt lat="45.85268416593074" lon="9.413138170971564"><ele>248.39999999999998</ele><time>2026-04-27T15:33:54.999Z</time></trkpt><trkpt lat="45.85260547011771" lon="9.413201682702528"><ele>249.0</ele><time>2026-04-27T15:33:55.999Z</time></trkpt><trkpt lat="45.852532477361365" lon="9.413255263672388"><ele>249.79999999999998</ele><time>2026-04-27T15:33:56.999Z</time></trkpt><trkpt lat="45.852456016046496" lon="9.413303385755631"><ele>250.59999999999997</ele><time>2026-04-27T15:33:57.999Z</time></trkpt><trkpt lat="45.852372265467686" lon="9.413362826301224"><ele>251.4</ele><time>2026-04-27T15:33:58.999Z</time></trkpt><trkpt lat="45.85229166396774" lon="9.413423743782023"><ele>252.2</ele><time>2026-04-27T15:33:59.999Z</time></trkpt><trkpt lat="45.85220539567301" lon="9.413487034061879"><ele>253.0</ele><time>2026-04-27T15:34:00.999Z</time></trkpt><trkpt lat="45.8521221201634" lon="9.4135459927278"><ele>252.99999999999997</ele><time>2026-04-27T15:34:01.999Z</time></trkpt><trkpt lat="45.85203917613113" lon="9.413605386537945"><ele>253.0</ele><time>2026-04-27T15:34:02.999Z</time></trkpt><trkpt lat="45.851965269452684" lon="9.413650136346861"><ele>253.0</ele><time>2026-04-27T15:34:03.999Z</time></trkpt><trkpt lat="45.851894693136785" lon="9.413693610123445"><ele>253.0</ele><time>2026-04-27T15:34:04.999Z</time></trkpt><trkpt lat="45.85182109393539" lon="9.41375269892925"><ele>252.99999999999997</ele><time>2026-04-27T15:34:05.999Z</time></trkpt><trkpt lat="45.85175451670187" lon="9.413802261448566"><ele>253.0</ele><time>2026-04-27T15:34:06.999Z</time></trkpt><trkpt lat="45.85164925883411" lon="9.413877059357821"><ele>252.83333333333331</ele><time>2026-04-27T15:34:08.999Z</time></trkpt><trkpt lat="45.85157720433829" lon="9.413904812364052"><ele>252.66666666666666</ele><time>2026-04-27T15:34:09.999Z</time></trkpt><trkpt lat="45.851504247026604" lon="9.413940970387408"><ele>252.5</ele><time>2026-04-27T15:34:10.999Z</time></trkpt><trkpt lat="45.85143884851952" lon="9.414023277733694"><ele>252.33333333333331</ele><time>2026-04-27T15:34:11.999Z</time></trkpt><trkpt lat="45.85135734770965" lon="9.414076604912816"><ele>252.16666666666666</ele><time>2026-04-27T15:34:12.999Z</time></trkpt><trkpt lat="45.85128863370855" lon="9.414117262935033"><ele>252.0</ele><time>2026-04-27T15:34:13.999Z</time></trkpt><trkpt lat="45.85120667527321" lon="9.41413730697853"><ele>252.0</ele><time>2026-04-27T15:34:14.999Z</time></trkpt><trkpt lat="45.8510804090051" lon="9.414161457010739"><ele>252.0</ele><time>2026-04-27T15:34:16.999Z</time></trkpt><trkpt lat="45.85100435834613" lon="9.414168775127287"><ele>252.0</ele><time>2026-04-27T15:34:17.999Z</time></trkpt><trkpt lat="45.85093656542369" lon="9.414150902588263"><ele>252.0</ele><time>2026-04-27T15:34:18.999Z</time></trkpt><trkpt lat="45.850841763704615" lon="9.414125183508881"><ele>252.0</ele><time>2026-04-27T15:34:19.999Z</time></trkpt><trkpt lat="45.85072769464684" lon="9.414087307621168"><ele>250.75</ele><time>2026-04-27T15:34:20.999Z</time></trkpt><trkpt lat="45.850608744386996" lon="9.414030305973863"><ele>249.5</ele><time>2026-04-27T15:34:22Z</time></trkpt><trkpt lat="45.85048721972783" lon="9.413927859525215"><ele>248.25</ele><time>2026-04-27T15:34:23Z</time></trkpt><trkpt lat="45.850370719463164" lon="9.413818108399136"><ele>247.0</ele><time>2026-04-27T15:34:24Z</time></trkpt><trkpt lat="45.850253125889786" lon="9.413718410737868"><ele>247.0</ele><time>2026-04-27T15:34:25Z</time></trkpt><trkpt lat="45.850132632381744" lon="9.413603771378499"><ele>247.0</ele><time>2026-04-27T15:34:26Z</time></trkpt><trkpt lat="45.85001245602871" lon="9.413484944265146"><ele>247.0</ele><time>2026-04-27T15:34:27Z</time></trkpt><trkpt lat="45.84989359666538" lon="9.413363665588522"><ele>247.0</ele><time>2026-04-27T15:34:28Z</time></trkpt><trkpt lat="45.84977326719829" lon="9.413240210207743"><ele>246.0</ele><time>2026-04-27T15:34:29Z</time></trkpt><trkpt lat="45.84964544778925" lon="9.413129267111305"><ele>245.0</ele><time>2026-04-27T15:34:30Z</time></trkpt><trkpt lat="45.84954819423232" lon="9.413035600968422"><ele>244.0</ele><time>2026-04-27T15:34:31Z</time></trkpt><trkpt lat="45.84944827345148" lon="9.412927363282048"><ele>243.0</ele><time>2026-04-27T15:34:32Z</time></trkpt><trkpt lat="45.849345620607124" lon="9.41282902891292"><ele>241.60000000000002</ele><time>2026-04-27T15:34:33Z</time></trkpt><trkpt lat="45.84924821117994" lon="9.412751807475702"><ele>240.20000000000002</ele><time>2026-04-27T15:34:34Z</time></trkpt><trkpt lat="45.84915780050508" lon="9.412692654841111"><ele>238.8</ele><time>2026-04-27T15:34:35Z</time></trkpt><trkpt lat="45.84907062145547" lon="9.412645751284273"><ele>237.4</ele><time>2026-04-27T15:34:36Z</time></trkpt><trkpt lat="45.84898341963102" lon="9.41257007324294"><ele>236.0</ele><time>2026-04-27T15:34:37Z</time></trkpt><trkpt lat="45.84890873143988" lon="9.41252822366017"><ele>236.0</ele><time>2026-04-27T15:34:38Z</time></trkpt><trkpt lat="45.84882182446441" lon="9.412455856719763"><ele>236.00000000000003</ele><time>2026-04-27T15:34:39Z</time></trkpt><trkpt lat="45.84871730946751" lon="9.41236161487205"><ele>236.00000000000003</ele><time>2026-04-27T15:34:40Z</time></trkpt><trkpt lat="45.84865095473405" lon="9.41227399147615"><ele>236.0</ele><time>2026-04-27T15:34:41Z</time></trkpt><trkpt lat="45.84859281659191" lon="9.412201227747019"><ele>236.0</ele><time>2026-04-27T15:34:42Z</time></trkpt><trkpt lat="45.848533536774" lon="9.41212053212508"><ele>236.00000000000003</ele><time>2026-04-27T15:34:43Z</time></trkpt><trkpt lat="45.84847628004783" lon="9.412037676513009"><ele>236.0</ele><time>2026-04-27T15:34:44Z</time></trkpt><trkpt lat="45.84841410854567" lon="9.411954426949407"><ele>236.0</ele><time>2026-04-27T15:34:45Z</time></trkpt><trkpt lat="45.84835962474492" lon="9.411865687451462"><ele>236.0</ele><time>2026-04-27T15:34:46Z</time></trkpt><trkpt lat="45.848309474803536" lon="9.411794571980831"><ele>236.00000000000003</ele><time>2026-04-27T15:34:47Z</time></trkpt><trkpt lat="45.84826546768699" lon="9.411727071638229"><ele>236.0</ele><time>2026-04-27T15:34:48Z</time></trkpt><trkpt lat="45.84821895925502" lon="9.411657172845588"><ele>235.20000000000002</ele><time>2026-04-27T15:34:49Z</time></trkpt><trkpt lat="45.848145768102164" lon="9.41156499258794"><ele>234.40000000000003</ele><time>2026-04-27T15:34:51Z</time></trkpt><trkpt lat="45.84808311472678" lon="9.411464287701737"><ele>233.6</ele><time>2026-04-27T15:34:54Z</time></trkpt><trkpt lat="45.848023730739904" lon="9.411362930805794"><ele>232.8</ele><time>2026-04-27T15:34:57Z</time></trkpt><trkpt lat="45.847969076685885" lon="9.411278734067539"><ele>232.0</ele><time>2026-04-27T15:34:59Z</time></trkpt><trkpt lat="45.84794179716398" lon="9.411122933836264"><ele>232.00000000000003</ele><time>2026-04-27T15:35:01Z</time></trkpt><trkpt lat="45.84789001908619" lon="9.411003204605704"><ele>232.0</ele><time>2026-04-27T15:35:03Z</time></trkpt><trkpt lat="45.84780968405325" lon="9.410999930067764"><ele>232.00000000000003</ele><time>2026-04-27T15:35:04Z</time></trkpt><trkpt lat="45.847747083311404" lon="9.410968461368219"><ele>232.00000000000003</ele><time>2026-04-27T15:35:05Z</time></trkpt><trkpt lat="45.84768705425789" lon="9.410929673429901"><ele>232.0</ele><time>2026-04-27T15:35:06Z</time></trkpt><trkpt lat="45.847635870390164" lon="9.410874665284137"><ele>232.00000000000003</ele><time>2026-04-27T15:35:07Z</time></trkpt><trkpt lat="45.84757827214789" lon="9.410819091808166"><ele>232.00000000000003</ele><time>2026-04-27T15:35:08Z</time></trkpt><trkpt lat="45.84751631730957" lon="9.410765705502614"><ele>231.16666666666666</ele><time>2026-04-27T15:35:09Z</time></trkpt><trkpt lat="45.84745445475456" lon="9.410698782277947"><ele>230.33333333333331</ele><time>2026-04-27T15:35:10Z</time></trkpt><trkpt lat="45.847392210877665" lon="9.410643679445528"><ele>229.5</ele><time>2026-04-27T15:35:11Z</time></trkpt><trkpt lat="45.8473157709397" lon="9.410577243635403"><ele>228.66666666666669</ele><time>2026-04-27T15:35:12Z</time></trkpt><trkpt lat="45.847241778863996" lon="9.410506851793958"><ele>227.83333333333334</ele><time>2026-04-27T15:35:13Z</time></trkpt><trkpt lat="45.84716741689749" lon="9.410434417734663"><ele>227.0</ele><time>2026-04-27T15:35:14Z</time></trkpt><trkpt lat="45.847094210904224" lon="9.410366512829166"><ele>227.00000000000003</ele><time>2026-04-27T15:35:15Z</time></trkpt><trkpt lat="45.847017730863215" lon="9.410328656330883"><ele>227.0</ele><time>2026-04-27T15:35:16Z</time></trkpt><trkpt lat="45.84692520161441" lon="9.41026761787973"><ele>227.0</ele><time>2026-04-27T15:35:17Z</time></trkpt><trkpt lat="45.84684821452672" lon="9.41025623826873"><ele>227.0</ele><time>2026-04-27T15:35:18Z</time></trkpt><trkpt lat="45.84676085046151" lon="9.410259276877332"><ele>227.00000000000003</ele><time>2026-04-27T15:35:19Z</time></trkpt><trkpt lat="45.84667308186783" lon="9.410269787996492"><ele>227.0</ele><time>2026-04-27T15:35:20Z</time></trkpt><trkpt lat="45.84658425407462" lon="9.41027495264859"><ele>226.33333333333334</ele><time>2026-04-27T15:35:21Z</time></trkpt><trkpt lat="45.84649524502852" lon="9.410274249419405"><ele>225.66666666666669</ele><time>2026-04-27T15:35:22Z</time></trkpt><trkpt lat="45.84640872331029" lon="9.410269026790615"><ele>225.0</ele><time>2026-04-27T15:35:23Z</time></trkpt><trkpt lat="45.84632052579892" lon="9.41023984386954"><ele>224.33333333333331</ele><time>2026-04-27T15:35:24Z</time></trkpt><trkpt lat="45.84624758792566" lon="9.41019783021425"><ele>223.66666666666666</ele><time>2026-04-27T15:35:25Z</time></trkpt><trkpt lat="45.84618775071145" lon="9.410136804670099"><ele>223.0</ele><time>2026-04-27T15:35:26Z</time></trkpt><trkpt lat="45.84609313950762" lon="9.410064834028331"><ele>223.0</ele><time>2026-04-27T15:35:28Z</time></trkpt><trkpt lat="45.845977258479415" lon="9.41013110866525"><ele>223.0</ele><time>2026-04-27T15:35:30Z</time></trkpt><trkpt lat="45.84592705096686" lon="9.410214456257636"><ele>223.0</ele><time>2026-04-27T15:35:31Z</time></trkpt><trkpt lat="45.84586040145968" lon="9.410295133785567"><ele>223.0</ele><time>2026-04-27T15:35:32Z</time></trkpt><trkpt lat="45.84578238629613" lon="9.41035943115331"><ele>223.0</ele><time>2026-04-27T15:35:33Z</time></trkpt><trkpt lat="45.845662316795895" lon="9.410362357020432"><ele>222.5</ele><time>2026-04-27T15:35:34Z</time></trkpt><trkpt lat="45.84553917087238" lon="9.410377470122814"><ele>222.0</ele><time>2026-04-27T15:35:35Z</time></trkpt><trkpt lat="45.84541794530983" lon="9.410364184020283"><ele>221.5</ele><time>2026-04-27T15:35:36Z</time></trkpt><trkpt lat="45.84528259846914" lon="9.410379519629581"><ele>221.0</ele><time>2026-04-27T15:35:37Z</time></trkpt><trkpt lat="45.845120646053466" lon="9.410391513215524"><ele>219.66666666666669</ele><time>2026-04-27T15:35:38Z</time></trkpt><trkpt lat="45.84495806440232" lon="9.4103945500968"><ele>218.33333333333331</ele><time>2026-04-27T15:35:39Z</time></trkpt><trkpt lat="45.844805666656214" lon="9.410398625744087"><ele>217.0</ele><time>2026-04-27T15:35:40Z</time></trkpt><trkpt lat="45.84465799575151" lon="9.41040558853654"><ele>217.0</ele><time>2026-04-27T15:35:41Z</time></trkpt><trkpt lat="45.84449011694578" lon="9.41042961985222"><ele>217.0</ele><time>2026-04-27T15:35:42Z</time></trkpt><trkpt lat="45.84432409359658" lon="9.410451715999416"><ele>217.0</ele><time>2026-04-27T15:35:43Z</time></trkpt><trkpt lat="45.84414568106601" lon="9.410472105940912"><ele>216.66666666666666</ele><time>2026-04-27T15:35:44Z</time></trkpt><trkpt lat="45.84396914590809" lon="9.41047307341977"><ele>216.33333333333331</ele><time>2026-04-27T15:35:45Z</time></trkpt><trkpt lat="45.84380515754967" lon="9.410474142695799"><ele>216.0</ele><time>2026-04-27T15:35:46Z</time></trkpt><trkpt lat="45.84363504727296" lon="9.410482380792555"><ele>216.33333333333331</ele><time>2026-04-27T15:35:47Z</time></trkpt><trkpt lat="45.84347693246582" lon="9.410492965537264"><ele>216.66666666666666</ele><time>2026-04-27T15:35:48Z</time></trkpt><trkpt lat="45.84332941220863" lon="9.410498508926324"><ele>217.0</ele><time>2026-04-27T15:35:49Z</time></trkpt><trkpt lat="45.84318421071819" lon="9.410507494395098"><ele>217.0</ele><time>2026-04-27T15:35:50Z</time></trkpt><trkpt lat="45.84303233565606" lon="9.410516480943446"><ele>217.0</ele><time>2026-04-27T15:35:51Z</time></trkpt><trkpt lat="45.842894989988544" lon="9.410538520341008"><ele>217.0</ele><time>2026-04-27T15:35:52Z</time></trkpt><trkpt lat="45.84275201271216" lon="9.410555334077566"><ele>217.0</ele><time>2026-04-27T15:35:53Z</time></trkpt><trkpt lat="45.84260094196481" lon="9.410568085353129"><ele>216.33333333333331</ele><time>2026-04-27T15:35:54Z</time></trkpt><trkpt lat="45.842447464155526" lon="9.410579912406412"><ele>215.66666666666669</ele><time>2026-04-27T15:35:55Z</time></trkpt><trkpt lat="45.84227042564784" lon="9.41060337882865"><ele>215.0</ele><time>2026-04-27T15:35:56Z</time></trkpt><trkpt lat="45.84208166290792" lon="9.410611312163551"><ele>215.0</ele><time>2026-04-27T15:35:57Z</time></trkpt><trkpt lat="45.84191697488472" lon="9.41061233536308"><ele>215.0</ele><time>2026-04-27T15:35:58Z</time></trkpt><trkpt lat="45.84175583374177" lon="9.410602128141353"><ele>215.0</ele><time>2026-04-27T15:35:59Z</time></trkpt><trkpt lat="45.84161438708464" lon="9.4106092945433"><ele>214.25</ele><time>2026-04-27T15:36:00Z</time></trkpt><trkpt lat="45.84146874026521" lon="9.41062933784007"><ele>213.5</ele><time>2026-04-27T15:36:01Z</time></trkpt><trkpt lat="45.84132549705996" lon="9.410632043262721"><ele>212.75</ele><time>2026-04-27T15:36:02Z</time></trkpt><trkpt lat="45.84118453508513" lon="9.410658833749025"><ele>212.0</ele><time>2026-04-27T15:36:03Z</time></trkpt><trkpt lat="45.84105890129422" lon="9.410678572389873"><ele>211.5</ele><time>2026-04-27T15:36:04Z</time></trkpt><trkpt lat="45.84093381358439" lon="9.410688793238691"><ele>211.0</ele><time>2026-04-27T15:36:05Z</time></trkpt><trkpt lat="45.840810718241734" lon="9.410689422069616"><ele>210.5</ele><time>2026-04-27T15:36:06Z</time></trkpt><trkpt lat="45.84069373022763" lon="9.410697672773104"><ele>210.0</ele><time>2026-04-27T15:36:07Z</time></trkpt><trkpt lat="45.84057804427398" lon="9.410704846502476"><ele>210.0</ele><time>2026-04-27T15:36:08Z</time></trkpt><trkpt lat="45.84045036062833" lon="9.410714706334966"><ele>210.0</ele><time>2026-04-27T15:36:09Z</time></trkpt><trkpt lat="45.84032685435198" lon="9.410729005526749"><ele>210.0</ele><time>2026-04-27T15:36:10Z</time></trkpt><trkpt lat="45.84022337365202" lon="9.410734477714966"><ele>210.0</ele><time>2026-04-27T15:36:11Z</time></trkpt><trkpt lat="45.84013471171797" lon="9.41074475478285"><ele>210.0</ele><time>2026-04-27T15:36:12Z</time></trkpt><trkpt lat="45.84002345970397" lon="9.410747832193705"><ele>209.4</ele><time>2026-04-27T15:36:14Z</time></trkpt><trkpt lat="45.83993547359222" lon="9.410729787955574"><ele>208.8</ele><time>2026-04-27T15:36:16Z</time></trkpt><trkpt lat="45.8398622963936" lon="9.410656088283844"><ele>208.2</ele><time>2026-04-27T15:36:18Z</time></trkpt><trkpt lat="45.83979066347124" lon="9.410532256870319"><ele>207.6</ele><time>2026-04-27T15:36:20Z</time></trkpt><trkpt lat="45.83967542548554" lon="9.41052054479296"><ele>207.0</ele><time>2026-04-27T15:36:22Z</time></trkpt><trkpt lat="45.839610188029525" lon="9.410576492686745"><ele>207.0</ele><time>2026-04-27T15:36:23Z</time></trkpt><trkpt lat="45.83956969903908" lon="9.410652083643281"><ele>207.0</ele><time>2026-04-27T15:36:24Z</time></trkpt><trkpt lat="45.83948854057969" lon="9.41067689829388"><ele>207.0</ele><time>2026-04-27T15:36:25Z</time></trkpt><trkpt lat="45.839424472212606" lon="9.410711512595286"><ele>207.0</ele><time>2026-04-27T15:36:26Z</time></trkpt><trkpt lat="45.83935630030118" lon="9.410728802327464"><ele>207.0</ele><time>2026-04-27T15:36:27Z</time></trkpt><trkpt lat="45.83928768348578" lon="9.410762546455691"><ele>207.0</ele><time>2026-04-27T15:36:28Z</time></trkpt><trkpt lat="45.83918656132051" lon="9.410765120929543"><ele>207.0</ele><time>2026-04-27T15:36:29Z</time></trkpt><trkpt lat="45.839080380315494" lon="9.410784319697202"><ele>207.0</ele><time>2026-04-27T15:36:30Z</time></trkpt><trkpt lat="45.838943053202385" lon="9.410808323128181"><ele>207.0</ele><time>2026-04-27T15:36:31Z</time></trkpt><trkpt lat="45.83878324682704" lon="9.41082175178272"><ele>207.0</ele><time>2026-04-27T15:36:32Z</time></trkpt><trkpt lat="45.838620835842335" lon="9.41082926995068"><ele>207.0</ele><time>2026-04-27T15:36:33Z</time></trkpt><trkpt lat="45.83848394015979" lon="9.41082784132694"><ele>207.0</ele><time>2026-04-27T15:36:34Z</time></trkpt><trkpt lat="45.83835143035997" lon="9.410819027373156"><ele>207.0</ele><time>2026-04-27T15:36:35Z</time></trkpt><trkpt lat="45.83820997689327" lon="9.410813211476425"><ele>207.0</ele><time>2026-04-27T15:36:36Z</time></trkpt><trkpt lat="45.838070507585606" lon="9.410825561443875"><ele>207.33333333333331</ele><time>2026-04-27T15:36:37Z</time></trkpt><trkpt lat="45.8379239867632" lon="9.410860284637968"><ele>207.66666666666666</ele><time>2026-04-27T15:36:38Z</time></trkpt><trkpt lat="45.83776488924562" lon="9.41088103005696"><ele>208.0</ele><time>2026-04-27T15:36:39Z</time></trkpt><trkpt lat="45.837608309291404" lon="9.410894202025858"><ele>208.66666666666666</ele><time>2026-04-27T15:36:40Z</time></trkpt><trkpt lat="45.83746491609857" lon="9.410918926730902"><ele>209.33333333333331</ele><time>2026-04-27T15:36:41Z</time></trkpt><trkpt lat="45.83730512077652" lon="9.410900498187596"><ele>210.0</ele><time>2026-04-27T15:36:42Z</time></trkpt><trkpt lat="45.83713405232376" lon="9.410909460529686"><ele>210.0</ele><time>2026-04-27T15:36:43Z</time></trkpt><trkpt lat="45.836976877039284" lon="9.410933460314242"><ele>210.0</ele><time>2026-04-27T15:36:44Z</time></trkpt><trkpt lat="45.836841447104256" lon="9.410932750178317"><ele>210.0</ele><time>2026-04-27T15:36:45Z</time></trkpt><trkpt lat="45.83670111496455" lon="9.410933991083335"><ele>210.0</ele><time>2026-04-27T15:36:46Z</time></trkpt><trkpt lat="45.836566686552324" lon="9.410942681439384"><ele>209.0</ele><time>2026-04-27T15:36:47Z</time></trkpt><trkpt lat="45.83642344639969" lon="9.410956147175254"><ele>208.0</ele><time>2026-04-27T15:36:48Z</time></trkpt><trkpt lat="45.83626787622681" lon="9.411000241484246"><ele>207.0</ele><time>2026-04-27T15:36:49Z</time></trkpt><trkpt lat="45.83609985751287" lon="9.41104164531003"><ele>208.33333333333331</ele><time>2026-04-27T15:36:50Z</time></trkpt><trkpt lat="45.83592765036464" lon="9.411120095382888"><ele>209.66666666666666</ele><time>2026-04-27T15:36:51Z</time></trkpt><trkpt lat="45.83574002779408" lon="9.411248372246716"><ele>211.0</ele><time>2026-04-27T15:36:52Z</time></trkpt><trkpt lat="45.835565295483185" lon="9.411373018444195"><ele>213.0</ele><time>2026-04-27T15:36:53Z</time></trkpt><trkpt lat="45.83539426713247" lon="9.411531172601814"><ele>215.0</ele><time>2026-04-27T15:36:54Z</time></trkpt><trkpt lat="45.835224618705055" lon="9.411665431466746"><ele>217.0</ele><time>2026-04-27T15:36:55Z</time></trkpt><trkpt lat="45.83505518917023" lon="9.411802916834299"><ele>217.66666666666666</ele><time>2026-04-27T15:36:56Z</time></trkpt><trkpt lat="45.83488536930919" lon="9.41194481698295"><ele>218.33333333333331</ele><time>2026-04-27T15:36:57Z</time></trkpt><trkpt lat="45.83469562988896" lon="9.412095860425458"><ele>219.0</ele><time>2026-04-27T15:36:58Z</time></trkpt><trkpt lat="45.83452343650041" lon="9.412231712097467"><ele>219.66666666666669</ele><time>2026-04-27T15:36:59Z</time></trkpt><trkpt lat="45.83436204498225" lon="9.412352869677768"><ele>220.33333333333334</ele><time>2026-04-27T15:37:00Z</time></trkpt><trkpt lat="45.83419508612633" lon="9.412481656178683"><ele>221.0</ele><time>2026-04-27T15:37:01Z</time></trkpt><trkpt lat="45.834027631136294" lon="9.412585655557434"><ele>221.0</ele><time>2026-04-27T15:37:02Z</time></trkpt><trkpt lat="45.83386383688869" lon="9.412723000343947"><ele>221.0</ele><time>2026-04-27T15:37:03Z</time></trkpt><trkpt lat="45.83371142573763" lon="9.41284600566236"><ele>221.0</ele><time>2026-04-27T15:37:04Z</time></trkpt><trkpt lat="45.833578319918345" lon="9.412964943094742"><ele>220.66666666666669</ele><time>2026-04-27T15:37:05Z</time></trkpt><trkpt lat="45.833441753724834" lon="9.413066770542422"><ele>220.33333333333331</ele><time>2026-04-27T15:37:06Z</time></trkpt><trkpt lat="45.83328768940111" lon="9.4131779400503"><ele>220.0</ele><time>2026-04-27T15:37:07Z</time></trkpt><trkpt lat="45.83313251954877" lon="9.413309970793186"><ele>220.0</ele><time>2026-04-27T15:37:08Z</time></trkpt><trkpt lat="45.83297596692861" lon="9.413433599619527"><ele>220.0</ele><time>2026-04-27T15:37:09Z</time></trkpt><trkpt lat="45.83281543147996" lon="9.41355853678873"><ele>220.0</ele><time>2026-04-27T15:37:10Z</time></trkpt><trkpt lat="45.83266868992711" lon="9.413680237191132"><ele>219.66666666666666</ele><time>2026-04-27T15:37:11Z</time></trkpt><trkpt lat="45.832529624931134" lon="9.413784439998818"><ele>219.33333333333331</ele><time>2026-04-27T15:37:12Z</time></trkpt><trkpt lat="45.83239557655845" lon="9.413887561853164"><ele>219.0</ele><time>2026-04-27T15:37:13Z</time></trkpt><trkpt lat="45.832271953382346" lon="9.4139886498453"><ele>219.0</ele><time>2026-04-27T15:37:14Z</time></trkpt><trkpt lat="45.83215184550314" lon="9.414080661564894"><ele>218.99999999999997</ele><time>2026-04-27T15:37:15Z</time></trkpt><trkpt lat="45.8320493517115" lon="9.414168879127242"><ele>218.99999999999997</ele><time>2026-04-27T15:37:16Z</time></trkpt><trkpt lat="45.83196190510883" lon="9.414238078345933"><ele>219.0</ele><time>2026-04-27T15:37:17Z</time></trkpt><trkpt lat="45.83187683154462" lon="9.414273734866148"><ele>219.0</ele><time>2026-04-27T15:37:18Z</time></trkpt><trkpt lat="45.83179815161436" lon="9.414332319261549"><ele>218.75</ele><time>2026-04-27T15:37:19Z</time></trkpt><trkpt lat="45.83170723439895" lon="9.41441288600409"><ele>218.5</ele><time>2026-04-27T15:37:21Z</time></trkpt><trkpt lat="45.83165277541759" lon="9.414475145864433"><ele>218.25</ele><time>2026-04-27T15:37:23Z</time></trkpt><trkpt lat="45.831498690943086" lon="9.41465343413006"><ele>218.0</ele><time>2026-04-27T15:38:32Z</time></trkpt><trkpt lat="45.8314151210795" lon="9.414701492142182"><ele>218.75</ele><time>2026-04-27T15:38:33Z</time></trkpt><trkpt lat="45.83132483947028" lon="9.414716747070106"><ele>219.5</ele><time>2026-04-27T15:38:34Z</time></trkpt><trkpt lat="45.831232712240606" lon="9.414789665380043"><ele>220.25</ele><time>2026-04-27T15:38:35Z</time></trkpt><trkpt lat="45.83111189530207" lon="9.414886164838121"><ele>221.0</ele><time>2026-04-27T15:38:36Z</time></trkpt><trkpt lat="45.83099951470159" lon="9.41497595523476"><ele>219.75</ele><time>2026-04-27T15:38:37Z</time></trkpt><trkpt lat="45.830892347302935" lon="9.415061580535042"><ele>218.5</ele><time>2026-04-27T15:38:38Z</time></trkpt><trkpt lat="45.83078749539809" lon="9.415145355544064"><ele>217.25</ele><time>2026-04-27T15:38:39Z</time></trkpt><trkpt lat="45.83068561263242" lon="9.415240608731764"><ele>216.0</ele><time>2026-04-27T15:38:40Z</time></trkpt><trkpt lat="45.83059194846267" lon="9.415325520604787"><ele>216.0</ele><time>2026-04-27T15:38:41Z</time></trkpt><trkpt lat="45.83046597829194" lon="9.415414717810378"><ele>216.0</ele><time>2026-04-27T15:38:42Z</time></trkpt><trkpt lat="45.83035858871347" lon="9.415549877486876"><ele>216.0</ele><time>2026-04-27T15:38:43Z</time></trkpt><trkpt lat="45.830238243926274" lon="9.415706409919828"><ele>216.0</ele><time>2026-04-27T15:38:44Z</time></trkpt><trkpt lat="45.8301229282978" lon="9.41583837779968"><ele>216.0</ele><time>2026-04-27T15:38:45Z</time></trkpt><trkpt lat="45.83001457799659" lon="9.415988625891059"><ele>216.0</ele><time>2026-04-27T15:38:46Z</time></trkpt><trkpt lat="45.82990041097118" lon="9.416141175210237"><ele>216.0</ele><time>2026-04-27T15:38:47Z</time></trkpt><trkpt lat="45.82986669106489" lon="9.416275815174433"><ele>216.0</ele><time>2026-04-27T15:38:48Z</time></trkpt><trkpt lat="45.82968149893567" lon="9.416413121375285"><ele>216.66666666666669</ele><time>2026-04-27T15:38:49Z</time></trkpt><trkpt lat="45.82955774046311" lon="9.416573433626587"><ele>217.33333333333334</ele><time>2026-04-27T15:38:50Z</time></trkpt><trkpt lat="45.82942766918981" lon="9.416725041879278"><ele>218.0</ele><time>2026-04-27T15:38:51Z</time></trkpt><trkpt lat="45.82932359788813" lon="9.41683175062345"><ele>216.0</ele><time>2026-04-27T15:38:52Z</time></trkpt><trkpt lat="45.8291625198543" lon="9.416924803980201"><ele>214.0</ele><time>2026-04-27T15:38:53Z</time></trkpt><trkpt lat="45.82902175376619" lon="9.416968779908467"><ele>212.0</ele><time>2026-04-27T15:38:54Z</time></trkpt><trkpt lat="45.828864897313565" lon="9.416967604912443"><ele>212.0</ele><time>2026-04-27T15:38:55Z</time></trkpt><trkpt lat="45.828719050747125" lon="9.416966741037927"><ele>212.0</ele><time>2026-04-27T15:38:56Z</time></trkpt><trkpt lat="45.82859702461338" lon="9.416922110952932"><ele>212.0</ele><time>2026-04-27T15:38:57Z</time></trkpt><trkpt lat="45.8284992528819" lon="9.416917439056416"><ele>212.0</ele><time>2026-04-27T15:38:58Z</time></trkpt><trkpt lat="45.82838802316251" lon="9.416909620566065"><ele>212.0</ele><time>2026-04-27T15:38:59Z</time></trkpt><trkpt lat="45.828261669922234" lon="9.416947599251074"><ele>212.0</ele><time>2026-04-27T15:39:00Z</time></trkpt><trkpt lat="45.82815226980491" lon="9.417006655924387"><ele>212.0</ele><time>2026-04-27T15:39:01Z</time></trkpt><trkpt lat="45.82800955595228" lon="9.417055203148387"><ele>212.0</ele><time>2026-04-27T15:39:02Z</time></trkpt><trkpt lat="45.827864633735835" lon="9.417067285959087"><ele>212.0</ele><time>2026-04-27T15:39:03Z</time></trkpt><trkpt lat="45.82770488151762" lon="9.417068832526388"><ele>212.0</ele><time>2026-04-27T15:39:04Z</time></trkpt><trkpt lat="45.827545435746444" lon="9.41708719693288"><ele>212.0</ele><time>2026-04-27T15:39:05Z</time></trkpt><trkpt lat="45.827389160175976" lon="9.417102669406614"><ele>212.0</ele><time>2026-04-27T15:39:06Z</time></trkpt><trkpt lat="45.827218047763054" lon="9.417118765613187"><ele>212.0</ele><time>2026-04-27T15:39:07Z</time></trkpt><trkpt lat="45.82704466881075" lon="9.41715166058914"><ele>212.0</ele><time>2026-04-27T15:39:08Z</time></trkpt><trkpt lat="45.826890889419914" lon="9.417173167840755"><ele>212.0</ele><time>2026-04-27T15:39:09Z</time></trkpt><trkpt lat="45.82675288246659" lon="9.417187786205075"><ele>212.0</ele><time>2026-04-27T15:39:10Z</time></trkpt><trkpt lat="45.826633574523655" lon="9.417183399916286"><ele>212.0</ele><time>2026-04-27T15:39:11Z</time></trkpt><trkpt lat="45.82651259838761" lon="9.417189304434757"><ele>212.0</ele><time>2026-04-27T15:39:12Z</time></trkpt><trkpt lat="45.82638055020866" lon="9.41720715933445"><ele>212.0</ele><time>2026-04-27T15:39:13Z</time></trkpt><trkpt lat="45.82622087933638" lon="9.417220645040324"><ele>212.0</ele><time>2026-04-27T15:39:14Z</time></trkpt><trkpt lat="45.82606598670188" lon="9.417238037148737"><ele>212.0</ele><time>2026-04-27T15:39:15Z</time></trkpt><trkpt lat="45.8258969140877" lon="9.417281230292415"><ele>212.0</ele><time>2026-04-27T15:39:16Z</time></trkpt><trkpt lat="45.82572829748708" lon="9.417349982114143"><ele>212.0</ele><time>2026-04-27T15:39:17Z</time></trkpt><trkpt lat="45.825541134227635" lon="9.41741581564602"><ele>212.0</ele><time>2026-04-27T15:39:18Z</time></trkpt><trkpt lat="45.825354919447264" lon="9.417476079701569"><ele>212.0</ele><time>2026-04-27T15:39:19Z</time></trkpt><trkpt lat="45.8251755393845" lon="9.41754155951862"><ele>212.0</ele><time>2026-04-27T15:39:20Z</time></trkpt><trkpt lat="45.82500363321144" lon="9.417627659623983"><ele>212.0</ele><time>2026-04-27T15:39:21Z</time></trkpt><trkpt lat="45.824830279406726" lon="9.417716160552528"><ele>211.0</ele><time>2026-04-27T15:39:22Z</time></trkpt><trkpt lat="45.82466202763687" lon="9.417803637128399"><ele>210.0</ele><time>2026-04-27T15:39:23Z</time></trkpt><trkpt lat="45.82449775896311" lon="9.417869279299348"><ele>209.0</ele><time>2026-04-27T15:39:24Z</time></trkpt><trkpt lat="45.82433516522046" lon="9.417950492915537"><ele>209.33333333333334</ele><time>2026-04-27T15:39:25Z</time></trkpt><trkpt lat="45.82418912668848" lon="9.41803083903834"><ele>209.66666666666669</ele><time>2026-04-27T15:39:26Z</time></trkpt><trkpt lat="45.82403387646999" lon="9.418074898825065"><ele>210.0</ele><time>2026-04-27T15:39:27Z</time></trkpt><trkpt lat="45.82387823990983" lon="9.418140826741213"><ele>210.0</ele><time>2026-04-27T15:39:28Z</time></trkpt><trkpt lat="45.82372773096201" lon="9.41822204175551"><ele>210.0</ele><time>2026-04-27T15:39:29Z</time></trkpt><trkpt lat="45.823587608981875" lon="9.418273315603216"><ele>210.0</ele><time>2026-04-27T15:39:30Z</time></trkpt><trkpt lat="45.823456874556896" lon="9.418338195212632"><ele>210.0</ele><time>2026-04-27T15:39:31Z</time></trkpt><trkpt lat="45.823335748399856" lon="9.418376667807419"><ele>209.83333333333334</ele><time>2026-04-27T15:39:32Z</time></trkpt><trkpt lat="45.82323731360426" lon="9.418420776697511"><ele>209.66666666666669</ele><time>2026-04-27T15:39:33Z</time></trkpt><trkpt lat="45.823165236400385" lon="9.418460037681239"><ele>209.5</ele><time>2026-04-27T15:39:34Z</time></trkpt><trkpt lat="45.82308364960677" lon="9.418478295068745"><ele>209.33333333333334</ele><time>2026-04-27T15:39:35Z</time></trkpt><trkpt lat="45.82300310843828" lon="9.41851245164792"><ele>209.16666666666669</ele><time>2026-04-27T15:39:36Z</time></trkpt><trkpt lat="45.82293116683598" lon="9.41855903409252"><ele>209.0</ele><time>2026-04-27T15:39:37Z</time></trkpt><trkpt lat="45.82285332469222" lon="9.418579245393577"><ele>209.0</ele><time>2026-04-27T15:39:38Z</time></trkpt><trkpt lat="45.822775370609826" lon="9.418624972865384"><ele>209.0</ele><time>2026-04-27T15:39:39Z</time></trkpt><trkpt lat="45.82268126077466" lon="9.418657196702165"><ele>209.0</ele><time>2026-04-27T15:39:40Z</time></trkpt><trkpt lat="45.822583354967264" lon="9.418686547136938"><ele>209.0</ele><time>2026-04-27T15:39:41Z</time></trkpt><trkpt lat="45.82247931259226" lon="9.418729174344568"><ele>209.0</ele><time>2026-04-27T15:39:42Z</time></trkpt><trkpt lat="45.8223806389531" lon="9.41876247947424"><ele>209.2</ele><time>2026-04-27T15:39:43Z</time></trkpt><trkpt lat="45.822273693288885" lon="9.418816214849807"><ele>209.39999999999998</ele><time>2026-04-27T15:39:44Z</time></trkpt><trkpt lat="45.82217783346774" lon="9.418851387110598"><ele>209.6</ele><time>2026-04-27T15:39:45Z</time></trkpt><trkpt lat="45.82209394450346" lon="9.418867701327263"><ele>209.8</ele><time>2026-04-27T15:39:46Z</time></trkpt><trkpt lat="45.82201930766636" lon="9.418884515114295"><ele>210.0</ele><time>2026-04-27T15:39:47Z</time></trkpt><trkpt lat="45.82194126301722" lon="9.418915102492743"><ele>210.0</ele><time>2026-04-27T15:39:48Z</time></trkpt><trkpt lat="45.821854131089744" lon="9.418942725098194"><ele>210.0</ele><time>2026-04-27T15:39:49Z</time></trkpt><trkpt lat="45.821759626039025" lon="9.418982433414623"><ele>210.0</ele><time>2026-04-27T15:39:50Z</time></trkpt><trkpt lat="45.82166332877085" lon="9.419006231369066"><ele>210.0</ele><time>2026-04-27T15:39:51Z</time></trkpt><trkpt lat="45.82155598240637" lon="9.419026025572292"><ele>210.0</ele><time>2026-04-27T15:39:52Z</time></trkpt><trkpt lat="45.821455729479325" lon="9.419047853944514"><ele>210.0</ele><time>2026-04-27T15:39:53Z</time></trkpt><trkpt lat="45.821380884378264" lon="9.419063215903988"><ele>210.0</ele><time>2026-04-27T15:39:54Z</time></trkpt><trkpt lat="45.82129060181267" lon="9.419069483235626"><ele>210.0</ele><time>2026-04-27T15:39:55Z</time></trkpt><trkpt lat="45.821188364352494" lon="9.419086471786676"><ele>210.0</ele><time>2026-04-27T15:39:56Z</time></trkpt><trkpt lat="45.821085944322974" lon="9.419062554929395"><ele>210.0</ele><time>2026-04-27T15:39:57Z</time></trkpt><trkpt lat="45.82096952929399" lon="9.419072676234311"><ele>210.2</ele><time>2026-04-27T15:39:58Z</time></trkpt><trkpt lat="45.82085685690813" lon="9.41907860713511"><ele>210.4</ele><time>2026-04-27T15:39:59Z</time></trkpt><trkpt lat="45.82074237697914" lon="9.419091719404953"><ele>210.60000000000002</ele><time>2026-04-27T15:40:00Z</time></trkpt><trkpt lat="45.82063450432104" lon="9.41908352885961"><ele>210.8</ele><time>2026-04-27T15:40:01Z</time></trkpt><trkpt lat="45.82052362354157" lon="9.419069677875397"><ele>211.0</ele><time>2026-04-27T15:40:02Z</time></trkpt><trkpt lat="45.820410144880434" lon="9.419060371555057"><ele>210.99999999999997</ele><time>2026-04-27T15:40:03Z</time></trkpt><trkpt lat="45.82030873310197" lon="9.419045979673799"><ele>211.0</ele><time>2026-04-27T15:40:04Z</time></trkpt><trkpt lat="45.820218636375984" lon="9.419041636833448"><ele>211.0</ele><time>2026-04-27T15:40:05Z</time></trkpt><trkpt lat="45.82013710182209" lon="9.419036339122021"><ele>211.0</ele><time>2026-04-27T15:40:06Z</time></trkpt><trkpt lat="45.82004764010857" lon="9.419030802117986"><ele>210.99999999999997</ele><time>2026-04-27T15:40:07Z</time></trkpt><trkpt lat="45.8199687015396" lon="9.419009003557482"><ele>211.0</ele><time>2026-04-27T15:40:08Z</time></trkpt><trkpt lat="45.819898908961946" lon="9.418992423726914"><ele>210.99999999999997</ele><time>2026-04-27T15:40:09Z</time></trkpt><trkpt lat="45.81983070165582" lon="9.418981390776773"><ele>211.0</ele><time>2026-04-27T15:40:10Z</time></trkpt><trkpt lat="45.819725264402294" lon="9.418922119205854"><ele>211.0</ele><time>2026-04-27T15:40:12Z</time></trkpt><trkpt lat="45.81967514823982" lon="9.418866972415485"><ele>211.0</ele><time>2026-04-27T15:40:19Z</time></trkpt><trkpt lat="45.81962323376454" lon="9.418726344867066"><ele>210.99999999999997</ele><time>2026-04-27T15:40:21Z</time></trkpt><trkpt lat="45.819588198221915" lon="9.418635642521428"><ele>211.0</ele><time>2026-04-27T15:40:23Z</time></trkpt><trkpt lat="45.81947191802584" lon="9.418641608955664"><ele>209.8</ele><time>2026-04-27T15:40:30Z</time></trkpt><trkpt lat="45.81940730807529" lon="9.418644942781976"><ele>208.60000000000002</ele><time>2026-04-27T15:40:31Z</time></trkpt><trkpt lat="45.819317510310974" lon="9.418643707716349"><ele>207.4</ele><time>2026-04-27T15:40:33Z</time></trkpt><trkpt lat="45.81923087691073" lon="9.418657685008496"><ele>206.2</ele><time>2026-04-27T15:40:35Z</time></trkpt><trkpt lat="45.819087969248045" lon="9.418659142960601"><ele>205.0</ele><time>2026-04-27T15:40:37Z</time></trkpt><trkpt lat="45.81901404034671" lon="9.418665628478323"><ele>204.66666666666666</ele><time>2026-04-27T15:40:38Z</time></trkpt><trkpt lat="45.81893988454826" lon="9.418705856756608"><ele>204.33333333333331</ele><time>2026-04-27T15:40:39Z</time></trkpt><trkpt lat="45.81886637924835" lon="9.418728677696024"><ele>204.0</ele><time>2026-04-27T15:40:40Z</time></trkpt><trkpt lat="45.81879908169797" lon="9.418767295092616"><ele>203.66666666666669</ele><time>2026-04-27T15:40:41Z</time></trkpt><trkpt lat="45.81873466220443" lon="9.418781449387167"><ele>203.33333333333334</ele><time>2026-04-27T15:40:42Z</time></trkpt><trkpt lat="45.818654749699164" lon="9.418824321089245"><ele>203.0</ele><time>2026-04-27T15:40:44Z</time></trkpt><trkpt lat="45.8185466367347" lon="9.418869215905229"><ele>204.8</ele><time>2026-04-27T15:40:46Z</time></trkpt><trkpt lat="45.818447975479835" lon="9.418915058289308"><ele>206.60000000000002</ele><time>2026-04-27T15:40:48Z</time></trkpt><trkpt lat="45.81833942483256" lon="9.4189466973035"><ele>208.39999999999998</ele><time>2026-04-27T15:40:50Z</time></trkpt><trkpt lat="45.818248575677806" lon="9.418913333563745"><ele>210.2</ele><time>2026-04-27T15:40:51Z</time></trkpt><trkpt lat="45.818137787236466" lon="9.418923272595425"><ele>212.0</ele><time>2026-04-27T15:40:52Z</time></trkpt><trkpt lat="45.818016811854164" lon="9.418957679372026"><ele>212.0</ele><time>2026-04-27T15:40:53Z</time></trkpt><trkpt lat="45.81794248596399" lon="9.418965596405979"><ele>212.0</ele><time>2026-04-27T15:40:54Z</time></trkpt><trkpt lat="45.81784888913768" lon="9.418953990314728"><ele>212.0</ele><time>2026-04-27T15:40:55Z</time></trkpt><trkpt lat="45.81775477223238" lon="9.41900186053748"><ele>212.0</ele><time>2026-04-27T15:40:56Z</time></trkpt><trkpt lat="45.817642678543194" lon="9.419029381068379"><ele>212.0</ele><time>2026-04-27T15:40:58Z</time></trkpt><trkpt lat="45.817573105590505" lon="9.419058731853573"><ele>211.39999999999998</ele><time>2026-04-27T15:41:00Z</time></trkpt><trkpt lat="45.81749987906305" lon="9.419108490122204"><ele>210.79999999999998</ele><time>2026-04-27T15:41:02Z</time></trkpt><trkpt lat="45.81739377396665" lon="9.419179922672651"><ele>210.2</ele><time>2026-04-27T15:41:04Z</time></trkpt><trkpt lat="45.81728894348988" lon="9.41927462025279"><ele>209.6</ele><time>2026-04-27T15:41:06Z</time></trkpt><trkpt lat="45.81722253880234" lon="9.419317870787934"><ele>209.0</ele><time>2026-04-27T15:41:07Z</time></trkpt><trkpt lat="45.81713507191461" lon="9.419417540223176"><ele>209.0</ele><time>2026-04-27T15:41:09Z</time></trkpt><trkpt lat="45.81708741890073" lon="9.41947979724066"><ele>209.0</ele><time>2026-04-27T15:41:10Z</time></trkpt><trkpt lat="45.81702741403053" lon="9.419524849883793"><ele>209.0</ele><time>2026-04-27T15:41:11Z</time></trkpt><trkpt lat="45.81696148718559" lon="9.419605532738732"><ele>209.0</ele><time>2026-04-27T15:41:12Z</time></trkpt><trkpt lat="45.81682818749472" lon="9.41977538642291"><ele>209.0</ele><time>2026-04-27T15:41:14Z</time></trkpt><trkpt lat="45.81674083306578" lon="9.419949765803432"><ele>209.75</ele><time>2026-04-27T15:41:15Z</time></trkpt><trkpt lat="45.816630657584405" lon="9.420078966926779"><ele>210.5</ele><time>2026-04-27T15:41:16Z</time></trkpt><trkpt lat="45.81652860474848" lon="9.420185753979448"><ele>211.25</ele><time>2026-04-27T15:41:17Z</time></trkpt><trkpt lat="45.816457924927455" lon="9.420306958432388"><ele>212.0</ele><time>2026-04-27T15:41:18Z</time></trkpt><trkpt lat="45.816339589726994" lon="9.420394808308668"><ele>211.0</ele><time>2026-04-27T15:41:19Z</time></trkpt><trkpt lat="45.81622820652166" lon="9.420532156580958"><ele>210.0</ele><time>2026-04-27T15:41:20Z</time></trkpt><trkpt lat="45.816116178541705" lon="9.420673829069704"><ele>209.0</ele><time>2026-04-27T15:41:21Z</time></trkpt><trkpt lat="45.81601539957017" lon="9.420803763368253"><ele>208.0</ele><time>2026-04-27T15:41:22Z</time></trkpt><trkpt lat="45.81594249161377" lon="9.420929346557312"><ele>208.0</ele><time>2026-04-27T15:41:23Z</time></trkpt><trkpt lat="45.81584926935741" lon="9.421013101617213"><ele>208.0</ele><time>2026-04-27T15:41:24Z</time></trkpt><trkpt lat="45.81575948588808" lon="9.42112248176881"><ele>208.0</ele><time>2026-04-27T15:41:25Z</time></trkpt><trkpt lat="45.815660675642775" lon="9.421231866368744"><ele>208.0</ele><time>2026-04-27T15:41:26Z</time></trkpt><trkpt lat="45.815545264373576" lon="9.421351068086457"><ele>209.33333333333331</ele><time>2026-04-27T15:41:27Z</time></trkpt><trkpt lat="45.8154032184316" lon="9.42149777969262"><ele>210.66666666666669</ele><time>2026-04-27T15:41:28Z</time></trkpt><trkpt lat="45.815260976997386" lon="9.421614760834013"><ele>212.0</ele><time>2026-04-27T15:41:29Z</time></trkpt><trkpt lat="45.81515060592259" lon="9.421745767980982"><ele>212.0</ele><time>2026-04-27T15:41:30Z</time></trkpt><trkpt lat="45.815047387762704" lon="9.421854070740563"><ele>212.0</ele><time>2026-04-27T15:41:31Z</time></trkpt><trkpt lat="45.81495283918362" lon="9.421956420492426"><ele>212.0</ele><time>2026-04-27T15:41:32Z</time></trkpt><trkpt lat="45.814872803980315" lon="9.421998389200985"><ele>212.0</ele><time>2026-04-27T15:41:33Z</time></trkpt><trkpt lat="45.8147842864861" lon="9.42209982169871"><ele>212.0</ele><time>2026-04-27T15:41:34Z</time></trkpt><trkpt lat="45.814698966692085" lon="9.422161674007775"><ele>217.75</ele><time>2026-04-27T15:41:35Z</time></trkpt><trkpt lat="45.81460139245444" lon="9.422268343463102"><ele>223.5</ele><time>2026-04-27T15:41:36Z</time></trkpt><trkpt lat="45.81453593023154" lon="9.422433660245133"><ele>229.25</ele><time>2026-04-27T15:41:37Z</time></trkpt><trkpt lat="45.81447325937718" lon="9.4226145419801"><ele>235.0</ele><time>2026-04-27T15:41:38Z</time></trkpt><trkpt lat="45.81438920440595" lon="9.42278049124982"><ele>235.0</ele><time>2026-04-27T15:41:39Z</time></trkpt><trkpt lat="45.81432986727319" lon="9.422905925782606"><ele>235.0</ele><time>2026-04-27T15:41:40Z</time></trkpt><trkpt lat="45.81428220086733" lon="9.422993638085876"><ele>235.0</ele><time>2026-04-27T15:41:41Z</time></trkpt><trkpt lat="45.81421543267178" lon="9.423115721439807"><ele>235.0</ele><time>2026-04-27T15:41:42Z</time></trkpt><trkpt lat="45.81415550254847" lon="9.423192225493734"><ele>235.0</ele><time>2026-04-27T15:41:43Z</time></trkpt><trkpt lat="45.814088694007225" lon="9.423300837243492"><ele>232.2</ele><time>2026-04-27T15:41:45Z</time></trkpt><trkpt lat="45.813984931243354" lon="9.423414259843753"><ele>229.4</ele><time>2026-04-27T15:41:47Z</time></trkpt><trkpt lat="45.81387111048633" lon="9.423501652263061"><ele>226.60000000000002</ele><time>2026-04-27T15:41:49Z</time></trkpt><trkpt lat="45.813785846477" lon="9.423545315098535"><ele>223.8</ele><time>2026-04-27T15:41:50Z</time></trkpt><trkpt lat="45.81370478518698" lon="9.423571399193866"><ele>221.0</ele><time>2026-04-27T15:41:51Z</time></trkpt><trkpt lat="45.81359346144556" lon="9.423616455137687"><ele>221.00000000000003</ele><time>2026-04-27T15:41:53Z</time></trkpt><trkpt lat="45.81352051890928" lon="9.423638425323727"><ele>221.0</ele><time>2026-04-27T15:41:55Z</time></trkpt><trkpt lat="45.81345467022196" lon="9.423677334613132"><ele>221.0</ele><time>2026-04-27T15:41:57Z</time></trkpt><trkpt lat="45.813376925967056" lon="9.423686765457827"><ele>221.0</ele><time>2026-04-27T15:42:00Z</time></trkpt><trkpt lat="45.81329938711116" lon="9.423714259972543"><ele>221.00000000000003</ele><time>2026-04-27T15:42:02Z</time></trkpt><trkpt lat="45.813191468879246" lon="9.423754039911149"><ele>221.0</ele><time>2026-04-27T15:42:05Z</time></trkpt><trkpt lat="45.8130932128988" lon="9.42373326920416"><ele>221.5</ele><time>2026-04-27T15:42:06Z</time></trkpt><trkpt lat="45.81297194727926" lon="9.423791406234209"><ele>222.0</ele><time>2026-04-27T15:42:07Z</time></trkpt><trkpt lat="45.81287381215231" lon="9.423816782862973"><ele>222.5</ele><time>2026-04-27T15:42:08Z</time></trkpt><trkpt lat="45.81273521557289" lon="9.4238966855695"><ele>223.0</ele><time>2026-04-27T15:42:09Z</time></trkpt><trkpt lat="45.81262962071098" lon="9.423934656421322"><ele>223.0</ele><time>2026-04-27T15:42:10Z</time></trkpt><trkpt lat="45.812528817046406" lon="9.424004825834684"><ele>223.0</ele><time>2026-04-27T15:42:11Z</time></trkpt><trkpt lat="45.81242423999287" lon="9.424046743686654"><ele>223.0</ele><time>2026-04-27T15:42:12Z</time></trkpt><trkpt lat="45.8123158630411" lon="9.424082183341707"><ele>223.0</ele><time>2026-04-27T15:42:13Z</time></trkpt><trkpt lat="45.81220311573784" lon="9.42412563998066"><ele>223.0</ele><time>2026-04-27T15:42:14Z</time></trkpt><trkpt lat="45.81210137784424" lon="9.424170402484942"><ele>223.0</ele><time>2026-04-27T15:42:15Z</time></trkpt><trkpt lat="45.812005971834175" lon="9.424197061630865"><ele>223.0</ele><time>2026-04-27T15:42:16Z</time></trkpt><trkpt lat="45.811927049775676" lon="9.424195813449732"><ele>223.0</ele><time>2026-04-27T15:42:17Z</time></trkpt><trkpt lat="45.81184704633842" lon="9.424203878765784"><ele>223.0</ele><time>2026-04-27T15:42:18Z</time></trkpt><trkpt lat="45.81175375756595" lon="9.424214611182295"><ele>223.0</ele><time>2026-04-27T15:42:19Z</time></trkpt><trkpt lat="45.811653254702954" lon="9.424191068713263"><ele>222.60000000000002</ele><time>2026-04-27T15:42:20Z</time></trkpt><trkpt lat="45.81155575291342" lon="9.424180380116034"><ele>222.20000000000002</ele><time>2026-04-27T15:42:21Z</time></trkpt><trkpt lat="45.81145557520304" lon="9.424158783051345"><ele>221.8</ele><time>2026-04-27T15:42:22Z</time></trkpt><trkpt lat="45.811359904988976" lon="9.424144387833282"><ele>221.4</ele><time>2026-04-27T15:42:23Z</time></trkpt><trkpt lat="45.81125563160753" lon="9.424121783008314"><ele>221.0</ele><time>2026-04-27T15:42:24Z</time></trkpt><trkpt lat="45.81115587525296" lon="9.424090454963181"><ele>221.0</ele><time>2026-04-27T15:42:25Z</time></trkpt><trkpt lat="45.81106831576619" lon="9.424067283773175"><ele>221.00000000000003</ele><time>2026-04-27T15:42:26Z</time></trkpt><trkpt lat="45.810976278693275" lon="9.4240492865915"><ele>221.00000000000003</ele><time>2026-04-27T15:42:27Z</time></trkpt><trkpt lat="45.81086946932635" lon="9.424020128526493"><ele>221.0</ele><time>2026-04-27T15:42:28Z</time></trkpt><trkpt lat="45.81074335165085" lon="9.423979151358703"><ele>221.0</ele><time>2026-04-27T15:42:29Z</time></trkpt><trkpt lat="45.81060359638751" lon="9.423935690246124"><ele>221.25</ele><time>2026-04-27T15:42:30Z</time></trkpt><trkpt lat="45.810467162016316" lon="9.42389820875456"><ele>221.5</ele><time>2026-04-27T15:42:31Z</time></trkpt><trkpt lat="45.81032808556967" lon="9.423870367647162"><ele>221.75</ele><time>2026-04-27T15:42:32Z</time></trkpt><trkpt lat="45.81019300206316" lon="9.423835299248607"><ele>222.0</ele><time>2026-04-27T15:42:33Z</time></trkpt><trkpt lat="45.810057468610545" lon="9.423806280787979"><ele>222.0</ele><time>2026-04-27T15:42:34Z</time></trkpt><trkpt lat="45.80992224238989" lon="9.423767612955547"><ele>222.0</ele><time>2026-04-27T15:42:35Z</time></trkpt><trkpt lat="45.80978600873612" lon="9.423719505064998"><ele>222.0</ele><time>2026-04-27T15:42:36Z</time></trkpt><trkpt lat="45.80966102236179" lon="9.423692261902263"><ele>222.0</ele><time>2026-04-27T15:42:37Z</time></trkpt><trkpt lat="45.809541814483175" lon="9.423651503328077"><ele>222.0</ele><time>2026-04-27T15:42:38Z</time></trkpt><trkpt lat="45.80941509678471" lon="9.423632171268302"><ele>222.0</ele><time>2026-04-27T15:42:39Z</time></trkpt><trkpt lat="45.809298977014386" lon="9.423625149426128"><ele>222.0</ele><time>2026-04-27T15:42:40Z</time></trkpt><trkpt lat="45.80918561582024" lon="9.423628203164807"><ele>222.0</ele><time>2026-04-27T15:42:41Z</time></trkpt><trkpt lat="45.80906862159715" lon="9.423644549275268"><ele>222.5</ele><time>2026-04-27T15:42:42Z</time></trkpt><trkpt lat="45.80894775428025" lon="9.423685591360123"><ele>223.0</ele><time>2026-04-27T15:42:43Z</time></trkpt><trkpt lat="45.808836726794354" lon="9.423731301872854"><ele>223.5</ele><time>2026-04-27T15:42:44Z</time></trkpt><trkpt lat="45.80872194646418" lon="9.423763163900471"><ele>224.0</ele><time>2026-04-27T15:42:45Z</time></trkpt><trkpt lat="45.80861453548834" lon="9.42379032377818"><ele>224.79999999999998</ele><time>2026-04-27T15:42:46Z</time></trkpt><trkpt lat="45.80850043936268" lon="9.423823996217418"><ele>225.59999999999997</ele><time>2026-04-27T15:42:47Z</time></trkpt><trkpt lat="45.808399748889556" lon="9.423855670944624"><ele>226.4</ele><time>2026-04-27T15:42:48Z</time></trkpt><trkpt lat="45.808288584007485" lon="9.423876440155958"><ele>227.2</ele><time>2026-04-27T15:42:49Z</time></trkpt><trkpt lat="45.808183001415244" lon="9.423905703096002"><ele>228.0</ele><time>2026-04-27T15:42:50Z</time></trkpt><trkpt lat="45.80808965199956" lon="9.423977181790791"><ele>228.0</ele><time>2026-04-27T15:42:51Z</time></trkpt><trkpt lat="45.80797924694665" lon="9.424017968021028"><ele>228.0</ele><time>2026-04-27T15:42:52Z</time></trkpt><trkpt lat="45.80786359351739" lon="9.424067378054083"><ele>228.0</ele><time>2026-04-27T15:42:53Z</time></trkpt><trkpt lat="45.80778628633604" lon="9.42409808832063"><ele>228.0</ele><time>2026-04-27T15:42:54Z</time></trkpt><trkpt lat="45.80769558705306" lon="9.424126480364864"><ele>228.0</ele><time>2026-04-27T15:42:55Z</time></trkpt><trkpt lat="45.807604795770025" lon="9.424154646008917"><ele>227.4</ele><time>2026-04-27T15:42:56Z</time></trkpt><trkpt lat="45.80750069108942" lon="9.424192595620518"><ele>226.8</ele><time>2026-04-27T15:42:57Z</time></trkpt><trkpt lat="45.80740473761004" lon="9.424240362066394"><ele>226.2</ele><time>2026-04-27T15:42:58Z</time></trkpt><trkpt lat="45.80731518828625" lon="9.424274943019222"><ele>225.6</ele><time>2026-04-27T15:42:59Z</time></trkpt><trkpt lat="45.807234048233724" lon="9.424329001272804"><ele>225.0</ele><time>2026-04-27T15:43:00Z</time></trkpt><trkpt lat="45.80715008157047" lon="9.424386706188585"><ele>225.0</ele><time>2026-04-27T15:43:01Z</time></trkpt><trkpt lat="45.80706509546672" lon="9.424449209650932"><ele>225.0</ele><time>2026-04-27T15:43:02Z</time></trkpt><trkpt lat="45.80697871163306" lon="9.424506424164381"><ele>225.0</ele><time>2026-04-27T15:43:03Z</time></trkpt><trkpt lat="45.806893157731345" lon="9.424570453945833"><ele>225.0</ele><time>2026-04-27T15:43:04Z</time></trkpt><trkpt lat="45.80680769361148" lon="9.424629501183412"><ele>225.0</ele><time>2026-04-27T15:43:05Z</time></trkpt><trkpt lat="45.806733177930354" lon="9.424693873657223"><ele>224.8</ele><time>2026-04-27T15:43:06Z</time></trkpt><trkpt lat="45.80665177382542" lon="9.42475465843503"><ele>224.6</ele><time>2026-04-27T15:43:07Z</time></trkpt><trkpt lat="45.80656625496887" lon="9.424800093645128"><ele>224.39999999999998</ele><time>2026-04-27T15:43:08Z</time></trkpt><trkpt lat="45.80650643049884" lon="9.424866795557703"><ele>224.2</ele><time>2026-04-27T15:43:09Z</time></trkpt><trkpt lat="45.80642326360127" lon="9.424948096367363"><ele>224.0</ele><time>2026-04-27T15:43:10Z</time></trkpt><trkpt lat="45.8063351894302" lon="9.424993384033412"><ele>224.0</ele><time>2026-04-27T15:43:11Z</time></trkpt><trkpt lat="45.80628114213338" lon="9.425066635629118"><ele>223.99999999999997</ele><time>2026-04-27T15:43:12Z</time></trkpt><trkpt lat="45.806196434276195" lon="9.425136783441578"><ele>223.99999999999997</ele><time>2026-04-27T15:43:13Z</time></trkpt><trkpt lat="45.806098451301224" lon="9.425201628695593"><ele>224.0</ele><time>2026-04-27T15:43:14Z</time></trkpt><trkpt lat="45.806001313379646" lon="9.425259603205086"><ele>224.0</ele><time>2026-04-27T15:43:15Z</time></trkpt><trkpt lat="45.80590302795486" lon="9.425360197414896"><ele>224.0</ele><time>2026-04-27T15:43:16Z</time></trkpt><trkpt lat="45.80583344473546" lon="9.425450327893511"><ele>223.99999999999997</ele><time>2026-04-27T15:43:17Z</time></trkpt><trkpt lat="45.80574516527727" lon="9.425525321585644"><ele>223.99999999999997</ele><time>2026-04-27T15:43:18Z</time></trkpt><trkpt lat="45.80564313163797" lon="9.425606710412168"><ele>224.0</ele><time>2026-04-27T15:43:19Z</time></trkpt><trkpt lat="45.80552863479668" lon="9.42569059797096"><ele>224.0</ele><time>2026-04-27T15:43:20Z</time></trkpt><trkpt lat="45.805409151510865" lon="9.425790249037897"><ele>223.5</ele><time>2026-04-27T15:43:21Z</time></trkpt><trkpt lat="45.805289466610645" lon="9.42586927175421"><ele>223.0</ele><time>2026-04-27T15:43:22Z</time></trkpt><trkpt lat="45.80517582093517" lon="9.425967769155653"><ele>222.5</ele><time>2026-04-27T15:43:23Z</time></trkpt><trkpt lat="45.80505812000819" lon="9.42604098858829"><ele>222.0</ele><time>2026-04-27T15:43:24Z</time></trkpt><trkpt lat="45.80496554212682" lon="9.426106727788849"><ele>221.6</ele><time>2026-04-27T15:43:25Z</time></trkpt><trkpt lat="45.804856382428255" lon="9.426162133618638"><ele>221.2</ele><time>2026-04-27T15:43:26Z</time></trkpt><trkpt lat="45.8047954019987" lon="9.426227864223781"><ele>220.8</ele><time>2026-04-27T15:43:27Z</time></trkpt><trkpt lat="45.80473255125416" lon="9.42628234250382"><ele>220.4</ele><time>2026-04-27T15:43:28Z</time></trkpt><trkpt lat="45.804648839346704" lon="9.426358516311943"><ele>220.0</ele><time>2026-04-27T15:43:30Z</time></trkpt><trkpt lat="45.80456180513273" lon="9.426400135649745"><ele>219.66666666666666</ele><time>2026-04-27T15:43:32Z</time></trkpt><trkpt lat="45.804490686087384" lon="9.426368560249074"><ele>219.33333333333331</ele><time>2026-04-27T15:43:34Z</time></trkpt><trkpt lat="45.804392363061325" lon="9.426404011877272"><ele>219.0</ele><time>2026-04-27T15:43:37Z</time></trkpt><trkpt lat="45.804363451728356" lon="9.426496879053488"><ele>218.66666666666669</ele><time>2026-04-27T15:43:38Z</time></trkpt><trkpt lat="45.80431830875333" lon="9.426588778419323"><ele>218.33333333333334</ele><time>2026-04-27T15:43:39Z</time></trkpt><trkpt lat="45.80425365343404" lon="9.426675441839896"><ele>218.0</ele><time>2026-04-27T15:43:40Z</time></trkpt><trkpt lat="45.804159500974784" lon="9.426762186221087"><ele>218.0</ele><time>2026-04-27T15:43:41Z</time></trkpt><trkpt lat="45.80403008510908" lon="9.426866092454231"><ele>218.0</ele><time>2026-04-27T15:43:42Z</time></trkpt><trkpt lat="45.8038720111768" lon="9.426979848334236"><ele>218.0</ele><time>2026-04-27T15:43:43Z</time></trkpt><trkpt lat="45.80371681592046" lon="9.427139493465274"><ele>217.0</ele><time>2026-04-27T15:43:44Z</time></trkpt><trkpt lat="45.80357666060874" lon="9.427325237811566"><ele>216.0</ele><time>2026-04-27T15:43:45Z</time></trkpt><trkpt lat="45.80345031652382" lon="9.42749938121092"><ele>215.0</ele><time>2026-04-27T15:43:46Z</time></trkpt><trkpt lat="45.80333774850557" lon="9.42768023999772"><ele>215.0</ele><time>2026-04-27T15:43:47Z</time></trkpt><trkpt lat="45.80323554052472" lon="9.427856902059855"><ele>215.0</ele><time>2026-04-27T15:43:48Z</time></trkpt><trkpt lat="45.80314714912504" lon="9.428039318960481"><ele>215.0</ele><time>2026-04-27T15:43:49Z</time></trkpt><trkpt lat="45.80305998937751" lon="9.428194179399142"><ele>217.0</ele><time>2026-04-27T15:43:50Z</time></trkpt><trkpt lat="45.802971148613196" lon="9.42835105377093"><ele>219.0</ele><time>2026-04-27T15:43:51Z</time></trkpt><trkpt lat="45.8028859070286" lon="9.428497255848574"><ele>221.0</ele><time>2026-04-27T15:43:52Z</time></trkpt><trkpt lat="45.802801358972665" lon="9.428637661201316"><ele>223.0</ele><time>2026-04-27T15:43:53Z</time></trkpt><trkpt lat="45.80272215737069" lon="9.42875861601764"><ele>221.8</ele><time>2026-04-27T15:43:54Z</time></trkpt><trkpt lat="45.80265779057007" lon="9.428890005845457"><ele>220.60000000000002</ele><time>2026-04-27T15:43:55Z</time></trkpt><trkpt lat="45.802598388430376" lon="9.429010008796485"><ele>219.39999999999998</ele><time>2026-04-27T15:43:56Z</time></trkpt><trkpt lat="45.80254204685997" lon="9.429126706932337"><ele>218.2</ele><time>2026-04-27T15:43:57Z</time></trkpt><trkpt lat="45.802476869870205" lon="9.429227251883953"><ele>217.0</ele><time>2026-04-27T15:43:58Z</time></trkpt><trkpt lat="45.80242694381565" lon="9.429332301601384"><ele>217.0</ele><time>2026-04-27T15:43:59Z</time></trkpt><trkpt lat="45.80234684411859" lon="9.429452573162632"><ele>217.0</ele><time>2026-04-27T15:44:00Z</time></trkpt><trkpt lat="45.80227595324075" lon="9.42957081711245"><ele>217.0</ele><time>2026-04-27T15:44:01Z</time></trkpt><trkpt lat="45.802218751115376" lon="9.429678316447383"><ele>217.0</ele><time>2026-04-27T15:44:02Z</time></trkpt><trkpt lat="45.802160983644384" lon="9.429794663767842"><ele>217.0</ele><time>2026-04-27T15:44:03Z</time></trkpt><trkpt lat="45.802100683882365" lon="9.429919958445804"><ele>216.6</ele><time>2026-04-27T15:44:04Z</time></trkpt><trkpt lat="45.80203776086625" lon="9.43003512455891"><ele>216.2</ele><time>2026-04-27T15:44:05Z</time></trkpt><trkpt lat="45.80197287443148" lon="9.430136818439516"><ele>215.8</ele><time>2026-04-27T15:44:06Z</time></trkpt><trkpt lat="45.801923046067934" lon="9.430216816729468"><ele>215.4</ele><time>2026-04-27T15:44:07Z</time></trkpt><trkpt lat="45.801822584245" lon="9.430384677152238"><ele>215.0</ele><time>2026-04-27T15:44:09Z</time></trkpt><trkpt lat="45.80176056086278" lon="9.430473454140735"><ele>215.6</ele><time>2026-04-27T15:44:10Z</time></trkpt><trkpt lat="45.801708549215164" lon="9.430575484122095"><ele>216.2</ele><time>2026-04-27T15:44:11Z</time></trkpt><trkpt lat="45.80165235455912" lon="9.430688126140335"><ele>216.8</ele><time>2026-04-27T15:44:12Z</time></trkpt><trkpt lat="45.801572585180175" lon="9.43080615462824"><ele>217.4</ele><time>2026-04-27T15:44:13Z</time></trkpt><trkpt lat="45.801496625764386" lon="9.430901906689439"><ele>218.0</ele><time>2026-04-27T15:44:14Z</time></trkpt><trkpt lat="45.80141886413295" lon="9.430978803939237"><ele>218.00000000000003</ele><time>2026-04-27T15:44:15Z</time></trkpt><trkpt lat="45.801346498646204" lon="9.431045063498349"><ele>218.0</ele><time>2026-04-27T15:44:16Z</time></trkpt><trkpt lat="45.80129421641837" lon="9.431105384866276"><ele>218.0</ele><time>2026-04-27T15:44:17Z</time></trkpt><trkpt lat="45.8012038970125" lon="9.431218629048777"><ele>218.0</ele><time>2026-04-27T15:44:19Z</time></trkpt><trkpt lat="45.80114406871428" lon="9.431289616209188"><ele>218.00000000000003</ele><time>2026-04-27T15:44:23Z</time></trkpt><trkpt lat="45.801090025142585" lon="9.43136754676136"><ele>218.0</ele><time>2026-04-27T15:44:32Z</time></trkpt><trkpt lat="45.801027818738945" lon="9.43145120225281"><ele>218.0</ele><time>2026-04-27T15:44:34Z</time></trkpt><trkpt lat="45.80096262447337" lon="9.431500279246563"><ele>218.0</ele><time>2026-04-27T15:44:36Z</time></trkpt><trkpt lat="45.80091739569778" lon="9.431565827266777"><ele>218.0</ele><time>2026-04-27T15:44:37Z</time></trkpt><trkpt lat="45.800815398207" lon="9.431636469110655"><ele>218.0</ele><time>2026-04-27T15:44:38Z</time></trkpt><trkpt lat="45.800685755654705" lon="9.431747249439898"><ele>218.0</ele><time>2026-04-27T15:44:39Z</time></trkpt><trkpt lat="45.8005791875222" lon="9.431834393132338"><ele>218.0</ele><time>2026-04-27T15:44:40Z</time></trkpt><trkpt lat="45.800480958124496" lon="9.431914717990256"><ele>218.0</ele><time>2026-04-27T15:44:41Z</time></trkpt><trkpt lat="45.80040419124184" lon="9.43197749242452"><ele>218.0</ele><time>2026-04-27T15:44:42Z</time></trkpt><trkpt lat="45.80031216084168" lon="9.43204748618106"><ele>218.0</ele><time>2026-04-27T15:44:43Z</time></trkpt><trkpt lat="45.80021885982381" lon="9.432119802597116"><ele>218.0</ele><time>2026-04-27T15:44:44Z</time></trkpt><trkpt lat="45.80012016574025" lon="9.432209056815351"><ele>217.60000000000002</ele><time>2026-04-27T15:44:45Z</time></trkpt><trkpt lat="45.8000302498808" lon="9.432261994719344"><ele>217.20000000000002</ele><time>2026-04-27T15:44:46Z</time></trkpt><trkpt lat="45.79994395104946" lon="9.432339197099967"><ele>216.8</ele><time>2026-04-27T15:44:47Z</time></trkpt><trkpt lat="45.79984297753595" lon="9.43240763947585"><ele>216.4</ele><time>2026-04-27T15:44:48Z</time></trkpt><trkpt lat="45.79975656400494" lon="9.432488011538007"><ele>216.0</ele><time>2026-04-27T15:44:49Z</time></trkpt><trkpt lat="45.7996648681211" lon="9.432553484980948"><ele>216.0</ele><time>2026-04-27T15:44:50Z</time></trkpt><trkpt lat="45.79955549182701" lon="9.432630884630012"><ele>216.0</ele><time>2026-04-27T15:44:51Z</time></trkpt><trkpt lat="45.79945131084577" lon="9.4327155360727"><ele>216.0</ele><time>2026-04-27T15:44:52Z</time></trkpt><trkpt lat="45.79933642760429" lon="9.432833368643491"><ele>216.0</ele><time>2026-04-27T15:44:53Z</time></trkpt><trkpt lat="45.799225987895525" lon="9.432894859722394"><ele>215.4</ele><time>2026-04-27T15:44:54Z</time></trkpt><trkpt lat="45.79912193917896" lon="9.43295241982254"><ele>214.8</ele><time>2026-04-27T15:44:55Z</time></trkpt><trkpt lat="45.799028332785475" lon="9.43301496581453"><ele>214.20000000000002</ele><time>2026-04-27T15:44:56Z</time></trkpt><trkpt lat="45.79894398994349" lon="9.433089802705977"><ele>213.60000000000002</ele><time>2026-04-27T15:44:57Z</time></trkpt><trkpt lat="45.79886342968935" lon="9.433161197411357"><ele>213.0</ele><time>2026-04-27T15:44:58Z</time></trkpt><trkpt lat="45.79879454440212" lon="9.433214017710766"><ele>212.8</ele><time>2026-04-27T15:44:59Z</time></trkpt><trkpt lat="45.79872723541479" lon="9.433263914823515"><ele>212.60000000000002</ele><time>2026-04-27T15:45:00Z</time></trkpt><trkpt lat="45.798635243772075" lon="9.433317520289137"><ele>212.39999999999998</ele><time>2026-04-27T15:45:01Z</time></trkpt><trkpt lat="45.79853614853536" lon="9.433385465182715"><ele>212.2</ele><time>2026-04-27T15:45:02Z</time></trkpt><trkpt lat="45.79845129381394" lon="9.433465332130108"><ele>212.0</ele><time>2026-04-27T15:45:03Z</time></trkpt><trkpt lat="45.79837893428037" lon="9.433519220593743"><ele>212.0</ele><time>2026-04-27T15:45:04Z</time></trkpt><trkpt lat="45.79832368824577" lon="9.433569194413002"><ele>212.0</ele><time>2026-04-27T15:45:05Z</time></trkpt><trkpt lat="45.79824011222707" lon="9.433583132964497"><ele>212.0</ele><time>2026-04-27T15:45:07Z</time></trkpt><trkpt lat="45.79820084356862" lon="9.433658842157069"><ele>212.0</ele><time>2026-04-27T15:45:15Z</time></trkpt><trkpt lat="45.7981348712866" lon="9.433709504564241"><ele>212.0</ele><time>2026-04-27T15:45:29Z</time></trkpt><trkpt lat="45.79807428524727" lon="9.433770430937837"><ele>212.0</ele><time>2026-04-27T15:45:30Z</time></trkpt><trkpt lat="45.798016730464205" lon="9.433816875871175"><ele>212.0</ele><time>2026-04-27T15:45:31Z</time></trkpt><trkpt lat="45.79795080312417" lon="9.43384469672763"><ele>212.0</ele><time>2026-04-27T15:45:32Z</time></trkpt><trkpt lat="45.79787475784421" lon="9.433917814914466"><ele>212.0</ele><time>2026-04-27T15:45:33Z</time></trkpt><trkpt lat="45.79780595211415" lon="9.433986938750573"><ele>212.0</ele><time>2026-04-27T15:45:34Z</time></trkpt><trkpt lat="45.79770781167195" lon="9.434048911214795"><ele>212.0</ele><time>2026-04-27T15:45:35Z</time></trkpt><trkpt lat="45.79757442551522" lon="9.434114186597528"><ele>212.0</ele><time>2026-04-27T15:45:36Z</time></trkpt><trkpt lat="45.79748450878225" lon="9.43421367730794"><ele>211.6</ele><time>2026-04-27T15:45:37Z</time></trkpt><trkpt lat="45.79739463412452" lon="9.434294365448121"><ele>211.2</ele><time>2026-04-27T15:45:38Z</time></trkpt><trkpt lat="45.797326392984886" lon="9.43435291772269"><ele>210.8</ele><time>2026-04-27T15:45:39Z</time></trkpt><trkpt lat="45.79722180529221" lon="9.434386419518109"><ele>210.4</ele><time>2026-04-27T15:45:40Z</time></trkpt><trkpt lat="45.79711976882564" lon="9.434470610650427"><ele>210.0</ele><time>2026-04-27T15:45:41Z</time></trkpt><trkpt lat="45.79702182848146" lon="9.434538434575224"><ele>210.75</ele><time>2026-04-27T15:45:42Z</time></trkpt><trkpt lat="45.796926784860496" lon="9.43465215711039"><ele>211.5</ele><time>2026-04-27T15:45:43Z</time></trkpt><trkpt lat="45.79681259483108" lon="9.434760672495793"><ele>212.25</ele><time>2026-04-27T15:45:44Z</time></trkpt><trkpt lat="45.796690936090705" lon="9.434870942291372"><ele>213.0</ele><time>2026-04-27T15:45:45Z</time></trkpt><trkpt lat="45.79659251871788" lon="9.434944494451011"><ele>213.5</ele><time>2026-04-27T15:45:46Z</time></trkpt><trkpt lat="45.79649462178707" lon="9.435032901390546"><ele>214.0</ele><time>2026-04-27T15:45:47Z</time></trkpt><trkpt lat="45.79636276353093" lon="9.435127037477692"><ele>214.5</ele><time>2026-04-27T15:45:48Z</time></trkpt><trkpt lat="45.796235065814145" lon="9.43522702987724"><ele>215.0</ele><time>2026-04-27T15:45:49Z</time></trkpt><trkpt lat="45.796116157104926" lon="9.43525801331841"><ele>215.0</ele><time>2026-04-27T15:45:50Z</time></trkpt><trkpt lat="45.79599398864951" lon="9.43538683151209"><ele>215.0</ele><time>2026-04-27T15:45:51Z</time></trkpt><trkpt lat="45.795872838903044" lon="9.435512084907845"><ele>215.0</ele><time>2026-04-27T15:45:52Z</time></trkpt><trkpt lat="45.79575825990712" lon="9.435570806103014"><ele>215.0</ele><time>2026-04-27T15:45:53Z</time></trkpt><trkpt lat="45.795633647360354" lon="9.435669631834063"><ele>215.75</ele><time>2026-04-27T15:45:54Z</time></trkpt><trkpt lat="45.795510094736926" lon="9.435759521380316"><ele>216.5</ele><time>2026-04-27T15:45:55Z</time></trkpt><trkpt lat="45.79539143326396" lon="9.435854387236692"><ele>217.25</ele><time>2026-04-27T15:45:56Z</time></trkpt><trkpt lat="45.79527811191391" lon="9.435966219188742"><ele>218.0</ele><time>2026-04-27T15:45:57Z</time></trkpt><trkpt lat="45.79517218167274" lon="9.436055909636961"><ele>217.5</ele><time>2026-04-27T15:45:58Z</time></trkpt><trkpt lat="45.79504774360771" lon="9.436163578059247"><ele>217.0</ele><time>2026-04-27T15:45:59Z</time></trkpt><trkpt lat="45.79492849497209" lon="9.436235172484237"><ele>216.5</ele><time>2026-04-27T15:46:00Z</time></trkpt><trkpt lat="45.79481312858882" lon="9.436324697009962"><ele>216.0</ele><time>2026-04-27T15:46:01Z</time></trkpt><trkpt lat="45.79467897849945" lon="9.436413419001415"><ele>217.25</ele><time>2026-04-27T15:46:02Z</time></trkpt><trkpt lat="45.79457732186305" lon="9.436485551609096"><ele>218.5</ele><time>2026-04-27T15:46:03Z</time></trkpt><trkpt lat="45.79449306154608" lon="9.436567946131326"><ele>219.75</ele><time>2026-04-27T15:46:04Z</time></trkpt><trkpt lat="45.79437198698155" lon="9.436641509302452"><ele>221.0</ele><time>2026-04-27T15:46:06Z</time></trkpt><trkpt lat="45.794412654379336" lon="9.436898678757165"><ele>221.0</ele><time>2026-04-27T15:46:14Z</time></trkpt><trkpt lat="45.79446672289393" lon="9.437111899114624"><ele>221.0</ele><time>2026-04-27T15:46:16Z</time></trkpt><trkpt lat="45.79450448506754" lon="9.437282328053643"><ele>221.0</ele><time>2026-04-27T15:46:17Z</time></trkpt><trkpt lat="45.79453119447181" lon="9.437449097008193"><ele>221.0</ele><time>2026-04-27T15:46:18Z</time></trkpt><trkpt lat="45.79459952634652" lon="9.437635700635669"><ele>222.0</ele><time>2026-04-27T15:46:19Z</time></trkpt><trkpt lat="45.79464589197724" lon="9.43781014544774"><ele>223.0</ele><time>2026-04-27T15:46:20Z</time></trkpt><trkpt lat="45.79468414772376" lon="9.437938476048933"><ele>224.0</ele><time>2026-04-27T15:46:21Z</time></trkpt><trkpt lat="45.79473077800672" lon="9.438110618905222"><ele>225.0</ele><time>2026-04-27T15:46:22Z</time></trkpt><trkpt lat="45.79477137624087" lon="9.43829970932917"><ele>225.4</ele><time>2026-04-27T15:46:23Z</time></trkpt><trkpt lat="45.79480870264416" lon="9.438484264558834"><ele>225.8</ele><time>2026-04-27T15:46:24Z</time></trkpt><trkpt lat="45.79483712703302" lon="9.438615058194369"><ele>226.2</ele><time>2026-04-27T15:46:25Z</time></trkpt><trkpt lat="45.79485854794633" lon="9.438740173821692"><ele>226.6</ele><time>2026-04-27T15:46:26Z</time></trkpt><trkpt lat="45.79484438007544" lon="9.438839329200034"><ele>227.0</ele><time>2026-04-27T15:46:27Z</time></trkpt><trkpt lat="45.79482495112584" lon="9.43893848027134"><ele>228.0</ele><time>2026-04-27T15:46:28Z</time></trkpt><trkpt lat="45.79482224430248" lon="9.439096346812825"><ele>229.0</ele><time>2026-04-27T15:46:30Z</time></trkpt><trkpt lat="45.7948770705727" lon="9.439168204131473"><ele>230.0</ele><time>2026-04-27T15:46:31Z</time></trkpt><trkpt lat="45.794944409901255" lon="9.43917760275431"><ele>231.0</ele><time>2026-04-27T15:46:32Z</time></trkpt><trkpt lat="45.79502439221295" lon="9.43911185910873"><ele>232.0</ele><time>2026-04-27T15:46:33Z</time></trkpt><trkpt lat="45.79513717646687" lon="9.439163695299014"><ele>231.99999999999997</ele><time>2026-04-27T15:46:34Z</time></trkpt><trkpt lat="45.79520959410956" lon="9.439183240404041"><ele>232.0</ele><time>2026-04-27T15:46:35Z</time></trkpt><trkpt lat="45.79527569609944" lon="9.43921078228007"><ele>232.0</ele><time>2026-04-27T15:46:36Z</time></trkpt><trkpt lat="45.79535344247739" lon="9.439242969443379"><ele>232.0</ele><time>2026-04-27T15:46:37Z</time></trkpt><trkpt lat="45.795455537649836" lon="9.439285039723448"><ele>231.99999999999997</ele><time>2026-04-27T15:46:38Z</time></trkpt><trkpt lat="45.79552977592256" lon="9.439315507436216"><ele>232.0</ele><time>2026-04-27T15:46:39Z</time></trkpt><trkpt lat="45.795640450356146" lon="9.439360928739214"><ele>231.99999999999997</ele><time>2026-04-27T15:46:41Z</time></trkpt><trkpt lat="45.79572739741087" lon="9.439396612210023"><ele>232.0</ele><time>2026-04-27T15:46:43Z</time></trkpt><trkpt lat="45.795799191808335" lon="9.439426076963706"><ele>232.0</ele><time>2026-04-27T15:46:44Z</time></trkpt><trkpt lat="45.79590860215368" lon="9.439489763660779"><ele>232.0</ele><time>2026-04-27T15:46:46Z</time></trkpt><trkpt lat="45.79597024388517" lon="9.439511341089457"><ele>231.99999999999997</ele><time>2026-04-27T15:46:47Z</time></trkpt><trkpt lat="45.79604231993142" lon="9.439536443044206"><ele>232.0</ele><time>2026-04-27T15:46:48Z</time></trkpt><trkpt lat="45.796145247638435" lon="9.439591101009846"><ele>232.66666666666666</ele><time>2026-04-27T15:46:51Z</time></trkpt><trkpt lat="45.79621163985625" lon="9.439638541822056"><ele>233.33333333333331</ele><time>2026-04-27T15:46:52Z</time></trkpt><trkpt lat="45.796194232353564" lon="9.439749871995877"><ele>234.0</ele><time>2026-04-27T15:46:53Z</time></trkpt><trkpt lat="45.796110666514316" lon="9.439879233380585"><ele>234.66666666666669</ele><time>2026-04-27T15:46:55Z</time></trkpt><trkpt lat="45.796055639034755" lon="9.439923495807003"><ele>235.33333333333334</ele><time>2026-04-27T15:46:56Z</time></trkpt><trkpt lat="45.796002794257426" lon="9.439978085016126"><ele>236.0</ele><time>2026-04-27T15:46:57Z</time></trkpt><trkpt lat="45.795942087806715" lon="9.44007790331749"><ele>236.0</ele><time>2026-04-27T15:46:58Z</time></trkpt><trkpt lat="45.79585893183115" lon="9.440214634906605"><ele>236.00000000000003</ele><time>2026-04-27T15:47:00Z</time></trkpt><trkpt lat="45.795809455862745" lon="9.440295987191453"><ele>236.00000000000003</ele><time>2026-04-27T15:47:01Z</time></trkpt><trkpt lat="45.79571671887029" lon="9.440433440961492"><ele>236.0</ele><time>2026-04-27T15:47:03Z</time></trkpt><trkpt lat="45.795659677767254" lon="9.440539411903094"><ele>236.0</ele><time>2026-04-27T15:47:05Z</time></trkpt><trkpt lat="45.79557718127548" lon="9.440575708823395"><ele>236.50000000000003</ele><time>2026-04-27T15:47:06Z</time></trkpt><trkpt lat="45.79552457591262" lon="9.440669343710008"><ele>237.0</ele><time>2026-04-27T15:47:07Z</time></trkpt><trkpt lat="45.79548302075487" lon="9.44074330978269"><ele>237.5</ele><time>2026-04-27T15:47:08Z</time></trkpt><trkpt lat="45.795551846179194" lon="9.440874532904184"><ele>238.0</ele><time>2026-04-27T15:47:10Z</time></trkpt><trkpt lat="45.795549960832346" lon="9.440979374085853"><ele>238.50000000000003</ele><time>2026-04-27T15:47:12Z</time></trkpt><trkpt lat="45.79561766030907" lon="9.441090488994085"><ele>239.0</ele><time>2026-04-27T15:47:17Z</time></trkpt><trkpt lat="45.79560739375448" lon="9.441237110021762"><ele>239.83333333333334</ele><time>2026-04-27T15:47:19Z</time></trkpt><trkpt lat="45.79558387798889" lon="9.44133989613114"><ele>240.66666666666669</ele><time>2026-04-27T15:47:21Z</time></trkpt><trkpt lat="45.795562016823986" lon="9.441434909811083"><ele>241.5</ele><time>2026-04-27T15:47:23Z</time></trkpt><trkpt lat="45.79550317292298" lon="9.44154593775708"><ele>242.33333333333331</ele><time>2026-04-27T15:47:26Z</time></trkpt><trkpt lat="45.79545658795251" lon="9.441624384596565"><ele>243.16666666666666</ele><time>2026-04-27T15:47:27Z</time></trkpt><trkpt lat="45.79541767618177" lon="9.441703092782788"><ele>244.0</ele><time>2026-04-27T15:47:28Z</time></trkpt><trkpt lat="45.795346972155215" lon="9.441784442539024"><ele>244.0</ele><time>2026-04-27T15:47:29Z</time></trkpt><trkpt lat="45.79522658521279" lon="9.441782287764187"><ele>244.0</ele><time>2026-04-27T15:47:31Z</time></trkpt><trkpt lat="45.79508417644792" lon="9.441882236533889"><ele>244.0</ele><time>2026-04-27T15:47:33Z</time></trkpt><trkpt lat="45.79500604741994" lon="9.441982229993974"><ele>244.0</ele><time>2026-04-27T15:47:34Z</time></trkpt><trkpt lat="45.79492023036635" lon="9.442067538878137"><ele>246.5</ele><time>2026-04-27T15:47:35Z</time></trkpt><trkpt lat="45.79479169567417" lon="9.442145094764811"><ele>249.0</ele><time>2026-04-27T15:47:36Z</time></trkpt><trkpt lat="45.79468386274711" lon="9.442265207625463"><ele>251.5</ele><time>2026-04-27T15:47:37Z</time></trkpt><trkpt lat="45.79458496648108" lon="9.442341006134715"><ele>254.0</ele><time>2026-04-27T15:47:38Z</time></trkpt><trkpt lat="45.79448176807869" lon="9.442425737531817"><ele>254.00000000000003</ele><time>2026-04-27T15:47:39Z</time></trkpt><trkpt lat="45.794393236060316" lon="9.442492511352059"><ele>254.0</ele><time>2026-04-27T15:47:40Z</time></trkpt><trkpt lat="45.79429731554151" lon="9.442550069693288"><ele>254.0</ele><time>2026-04-27T15:47:41Z</time></trkpt><trkpt lat="45.794215289486026" lon="9.442619452304678"><ele>254.0</ele><time>2026-04-27T15:47:42Z</time></trkpt><trkpt lat="45.79415112539367" lon="9.442653661183158"><ele>254.00000000000003</ele><time>2026-04-27T15:47:43Z</time></trkpt><trkpt lat="45.79409076602105" lon="9.442714837131232"><ele>254.0</ele><time>2026-04-27T15:47:44Z</time></trkpt><trkpt lat="45.79403039378512" lon="9.44276938580734"><ele>255.0</ele><time>2026-04-27T15:47:45Z</time></trkpt><trkpt lat="45.79395752410834" lon="9.4428297506014"><ele>255.99999999999997</ele><time>2026-04-27T15:47:46Z</time></trkpt><trkpt lat="45.793871675501784" lon="9.442921843711744"><ele>257.0</ele><time>2026-04-27T15:47:47Z</time></trkpt><trkpt lat="45.79378505812985" lon="9.44297136653907"><ele>258.0</ele><time>2026-04-27T15:47:48Z</time></trkpt><trkpt lat="45.79372991780021" lon="9.443029548624217"><ele>259.0</ele><time>2026-04-27T15:47:49Z</time></trkpt><trkpt lat="45.79362697683441" lon="9.443102099333522"><ele>259.0</ele><time>2026-04-27T15:47:51Z</time></trkpt><trkpt lat="45.79358593396549" lon="9.44317468445167"><ele>259.0</ele><time>2026-04-27T15:47:53Z</time></trkpt><trkpt lat="45.793517274244884" lon="9.443265026538333"><ele>259.0</ele><time>2026-04-27T15:47:54Z</time></trkpt><trkpt lat="45.79342061642333" lon="9.443329460132526"><ele>259.0</ele><time>2026-04-27T15:47:55Z</time></trkpt><trkpt lat="45.7932963463966" lon="9.443355778310654"><ele>259.0</ele><time>2026-04-27T15:47:56Z</time></trkpt><trkpt lat="45.793186803606986" lon="9.443477755422771"><ele>258.3333333333333</ele><time>2026-04-27T15:47:57Z</time></trkpt><trkpt lat="45.79306061181297" lon="9.443617714380855"><ele>257.6666666666667</ele><time>2026-04-27T15:47:58Z</time></trkpt><trkpt lat="45.79290356366608" lon="9.443718020946493"><ele>257.0</ele><time>2026-04-27T15:47:59Z</time></trkpt><trkpt lat="45.79273710293902" lon="9.443829400813813"><ele>252.0</ele><time>2026-04-27T15:48:00Z</time></trkpt><trkpt lat="45.79256104533297" lon="9.443969396587988"><ele>247.0</ele><time>2026-04-27T15:48:01Z</time></trkpt><trkpt lat="45.79236946414787" lon="9.444083077333628"><ele>242.0</ele><time>2026-04-27T15:48:02Z</time></trkpt><trkpt lat="45.792153737010004" lon="9.444191952491998"><ele>242.0</ele><time>2026-04-27T15:48:03Z</time></trkpt><trkpt lat="45.791935773142804" lon="9.444301571155627"><ele>242.0</ele><time>2026-04-27T15:48:04Z</time></trkpt><trkpt lat="45.791731317040764" lon="9.444370129228382"><ele>242.0</ele><time>2026-04-27T15:48:05Z</time></trkpt><trkpt lat="45.791525752628154" lon="9.444429069098463"><ele>241.0</ele><time>2026-04-27T15:48:06Z</time></trkpt><trkpt lat="45.79130519165541" lon="9.444495701168353"><ele>240.0</ele><time>2026-04-27T15:48:07Z</time></trkpt><trkpt lat="45.79111967286608" lon="9.444637502783555"><ele>239.0</ele><time>2026-04-27T15:48:08Z</time></trkpt><trkpt lat="45.790924933612615" lon="9.44484204058605"><ele>239.0</ele><time>2026-04-27T15:48:09Z</time></trkpt><trkpt lat="45.790734334235694" lon="9.445067603844116"><ele>239.0</ele><time>2026-04-27T15:48:10Z</time></trkpt><trkpt lat="45.79051367327141" lon="9.445241190772448"><ele>239.0</ele><time>2026-04-27T15:48:11Z</time></trkpt><trkpt lat="45.79029243611547" lon="9.445354318561881"><ele>239.0</ele><time>2026-04-27T15:48:12Z</time></trkpt><trkpt lat="45.790135038290686" lon="9.445474528398906"><ele>239.0</ele><time>2026-04-27T15:48:13Z</time></trkpt><trkpt lat="45.789958638719064" lon="9.445597912558197"><ele>243.66666666666669</ele><time>2026-04-27T15:48:14Z</time></trkpt><trkpt lat="45.789791865939826" lon="9.445730878051078"><ele>248.33333333333331</ele><time>2026-04-27T15:48:15Z</time></trkpt><trkpt lat="45.78966622143191" lon="9.44595220452013"><ele>253.0</ele><time>2026-04-27T15:48:16Z</time></trkpt><trkpt lat="45.789536013067945" lon="9.446174609740735"><ele>254.0</ele><time>2026-04-27T15:48:17Z</time></trkpt><trkpt lat="45.78941366320208" lon="9.446349909335717"><ele>255.0</ele><time>2026-04-27T15:48:18Z</time></trkpt><trkpt lat="45.78926387560795" lon="9.446508275410473"><ele>256.0</ele><time>2026-04-27T15:48:19Z</time></trkpt><trkpt lat="45.78916640939496" lon="9.446672557666494"><ele>256.0</ele><time>2026-04-27T15:48:20Z</time></trkpt><trkpt lat="45.789057173894506" lon="9.446819700898361"><ele>256.0</ele><time>2026-04-27T15:48:21Z</time></trkpt><trkpt lat="45.78896134102845" lon="9.446980125731635"><ele>256.0</ele><time>2026-04-27T15:48:22Z</time></trkpt><trkpt lat="45.788849724654625" lon="9.44710866359471"><ele>256.0</ele><time>2026-04-27T15:48:23Z</time></trkpt><trkpt lat="45.78873645835693" lon="9.447199620163287"><ele>256.25</ele><time>2026-04-27T15:48:24Z</time></trkpt><trkpt lat="45.78861947639637" lon="9.447285503478897"><ele>256.5</ele><time>2026-04-27T15:48:25Z</time></trkpt><trkpt lat="45.78852207149815" lon="9.447372346001144"><ele>256.75</ele><time>2026-04-27T15:48:26Z</time></trkpt><trkpt lat="45.788442067849424" lon="9.447471923633229"><ele>257.0</ele><time>2026-04-27T15:48:27Z</time></trkpt><trkpt lat="45.78836554634499" lon="9.4475806605345"><ele>257.0</ele><time>2026-04-27T15:48:28Z</time></trkpt><trkpt lat="45.78829341771557" lon="9.447663116106481"><ele>257.0</ele><time>2026-04-27T15:48:29Z</time></trkpt><trkpt lat="45.78822305045955" lon="9.447763076782515"><ele>257.0</ele><time>2026-04-27T15:48:30Z</time></trkpt><trkpt lat="45.78814515009519" lon="9.447852419731575"><ele>257.0</ele><time>2026-04-27T15:48:31Z</time></trkpt><trkpt lat="45.78806680160693" lon="9.447955531405011"><ele>257.0</ele><time>2026-04-27T15:48:32Z</time></trkpt><trkpt lat="45.787990463111626" lon="9.448060703978163"><ele>260.4</ele><time>2026-04-27T15:48:33Z</time></trkpt><trkpt lat="45.78793568231128" lon="9.44817413315925"><ele>263.79999999999995</ele><time>2026-04-27T15:48:34Z</time></trkpt><trkpt lat="45.78787383197925" lon="9.448270001878612"><ele>267.2</ele><time>2026-04-27T15:48:35Z</time></trkpt><trkpt lat="45.78780905356364" lon="9.448356026473567"><ele>270.59999999999997</ele><time>2026-04-27T15:48:36Z</time></trkpt><trkpt lat="45.787740999910056" lon="9.448436096067434"><ele>274.0</ele><time>2026-04-27T15:48:37Z</time></trkpt><trkpt lat="45.78769047826831" lon="9.448545901393203"><ele>275.3333333333333</ele><time>2026-04-27T15:48:38Z</time></trkpt><trkpt lat="45.787626768761456" lon="9.448630055296167"><ele>276.66666666666663</ele><time>2026-04-27T15:48:39Z</time></trkpt><trkpt lat="45.787573708725326" lon="9.448698352592428"><ele>278.0</ele><time>2026-04-27T15:48:40Z</time></trkpt><trkpt lat="45.78751946459334" lon="9.448754605133434"><ele>279.3333333333333</ele><time>2026-04-27T15:48:41Z</time></trkpt><trkpt lat="45.78744802544506" lon="9.448786006153746"><ele>280.6666666666667</ele><time>2026-04-27T15:48:42Z</time></trkpt><trkpt lat="45.78733738533024" lon="9.448892023318924"><ele>282.0</ele><time>2026-04-27T15:48:44Z</time></trkpt><trkpt lat="45.78720818884712" lon="9.448942021130032"><ele>282.0</ele><time>2026-04-27T15:48:46Z</time></trkpt><trkpt lat="45.78713719438887" lon="9.44896536553662"><ele>282.0</ele><time>2026-04-27T15:48:47Z</time></trkpt><trkpt lat="45.78704624878698" lon="9.448969689655081"><ele>282.0</ele><time>2026-04-27T15:48:48Z</time></trkpt><trkpt lat="45.78694675406407" lon="9.449000001693085"><ele>282.0</ele><time>2026-04-27T15:48:49Z</time></trkpt><trkpt lat="45.78685273899704" lon="9.449088766257393"><ele>282.0</ele><time>2026-04-27T15:48:50Z</time></trkpt><trkpt lat="45.78675436268612" lon="9.449187431973884"><ele>280.8333333333333</ele><time>2026-04-27T15:48:51Z</time></trkpt><trkpt lat="45.78668548585756" lon="9.449295142208085"><ele>279.6666666666667</ele><time>2026-04-27T15:48:52Z</time></trkpt><trkpt lat="45.78663677313564" lon="9.449395179224274"><ele>278.5</ele><time>2026-04-27T15:48:53Z</time></trkpt><trkpt lat="45.78658886130767" lon="9.449491157063317"><ele>277.33333333333337</ele><time>2026-04-27T15:48:54Z</time></trkpt><trkpt lat="45.78654352360056" lon="9.449580799949956"><ele>276.1666666666667</ele><time>2026-04-27T15:48:55Z</time></trkpt><trkpt lat="45.786481968402214" lon="9.44965646423734"><ele>275.0</ele><time>2026-04-27T15:48:56Z</time></trkpt><trkpt lat="45.7864175334481" lon="9.44973739194082"><ele>278.83333333333337</ele><time>2026-04-27T15:48:57Z</time></trkpt><trkpt lat="45.78635339347923" lon="9.449812939383465"><ele>282.6666666666667</ele><time>2026-04-27T15:48:58Z</time></trkpt><trkpt lat="45.7862759461272" lon="9.449886040002527"><ele>286.5</ele><time>2026-04-27T15:48:59Z</time></trkpt><trkpt lat="45.78621140686245" lon="9.44996562240596"><ele>290.3333333333333</ele><time>2026-04-27T15:49:00Z</time></trkpt><trkpt lat="45.786180129261204" lon="9.450059228909074"><ele>294.16666666666663</ele><time>2026-04-27T15:49:01Z</time></trkpt><trkpt lat="45.78613798044324" lon="9.45016334567644"><ele>298.0</ele><time>2026-04-27T15:49:02Z</time></trkpt><trkpt lat="45.78611298096011" lon="9.450260827976116"><ele>298.0</ele><time>2026-04-27T15:49:03Z</time></trkpt><trkpt lat="45.78607339019344" lon="9.450349510419079"><ele>298.0</ele><time>2026-04-27T15:49:04Z</time></trkpt><trkpt lat="45.786013345357794" lon="9.450409467917538"><ele>298.0</ele><time>2026-04-27T15:49:05Z</time></trkpt><trkpt lat="45.78595463256866" lon="9.450459471600627"><ele>298.0</ele><time>2026-04-27T15:49:06Z</time></trkpt><trkpt lat="45.78586687230623" lon="9.45044503673764"><ele>298.0</ele><time>2026-04-27T15:49:07Z</time></trkpt><trkpt lat="45.78578837967294" lon="9.450411072173788"><ele>298.0</ele><time>2026-04-27T15:49:08Z</time></trkpt><trkpt lat="45.78571688462461" lon="9.450363727776924"><ele>296.66666666666663</ele><time>2026-04-27T15:49:09Z</time></trkpt><trkpt lat="45.78566092513142" lon="9.450307859007099"><ele>295.3333333333333</ele><time>2026-04-27T15:49:10Z</time></trkpt><trkpt lat="45.785595081968836" lon="9.450281873028896"><ele>294.0</ele><time>2026-04-27T15:49:11Z</time></trkpt><trkpt lat="45.785496239831794" lon="9.450266384731565"><ele>292.6666666666667</ele><time>2026-04-27T15:49:12Z</time></trkpt><trkpt lat="45.78541834338247" lon="9.450242746360711"><ele>291.33333333333337</ele><time>2026-04-27T15:49:13Z</time></trkpt><trkpt lat="45.7853052575424" lon="9.45024744466559"><ele>290.0</ele><time>2026-04-27T15:49:14Z</time></trkpt><trkpt lat="45.78517097751662" lon="9.450294960015317"><ele>290.0</ele><time>2026-04-27T15:49:15Z</time></trkpt><trkpt lat="45.78502152135781" lon="9.450333077510548"><ele>290.0</ele><time>2026-04-27T15:49:16Z</time></trkpt><trkpt lat="45.78486210691772" lon="9.450377150568258"><ele>290.0</ele><time>2026-04-27T15:49:17Z</time></trkpt><trkpt lat="45.78467178765792" lon="9.450403375928284"><ele>290.0</ele><time>2026-04-27T15:49:18Z</time></trkpt><trkpt lat="45.784523594804384" lon="9.45042648021936"><ele>290.0</ele><time>2026-04-27T15:49:19Z</time></trkpt><trkpt lat="45.78439384980505" lon="9.450448841721743"><ele>290.0</ele><time>2026-04-27T15:49:20Z</time></trkpt><trkpt lat="45.7842748633264" lon="9.450463988938782"><ele>290.0</ele><time>2026-04-27T15:49:21Z</time></trkpt><trkpt lat="45.784140668381305" lon="9.450470955248976"><ele>292.33333333333337</ele><time>2026-04-27T15:49:22Z</time></trkpt><trkpt lat="45.783974025191604" lon="9.450476096731979"><ele>294.6666666666667</ele><time>2026-04-27T15:49:23Z</time></trkpt><trkpt lat="45.783810309293926" lon="9.45044138187523"><ele>297.0</ele><time>2026-04-27T15:49:24Z</time></trkpt><trkpt lat="45.78362223269017" lon="9.450433166355955"><ele>299.3333333333333</ele><time>2026-04-27T15:49:25Z</time></trkpt><trkpt lat="45.78342739200482" lon="9.450392371664684"><ele>301.66666666666663</ele><time>2026-04-27T15:49:26Z</time></trkpt><trkpt lat="45.78323224148507" lon="9.450339722226456"><ele>304.0</ele><time>2026-04-27T15:49:27Z</time></trkpt><trkpt lat="45.78303746299588" lon="9.450323663129511"><ele>304.0</ele><time>2026-04-27T15:49:28Z</time></trkpt><trkpt lat="45.78287729757147" lon="9.45030678217363"><ele>304.0</ele><time>2026-04-27T15:49:29Z</time></trkpt><trkpt lat="45.78274022695729" lon="9.450267093112581"><ele>304.0</ele><time>2026-04-27T15:49:30Z</time></trkpt><trkpt lat="45.7825916409568" lon="9.450300285920273"><ele>302.3333333333333</ele><time>2026-04-27T15:49:31Z</time></trkpt><trkpt lat="45.78245121230451" lon="9.450395336097346"><ele>300.6666666666667</ele><time>2026-04-27T15:49:32Z</time></trkpt><trkpt lat="45.782309055097755" lon="9.450547853721082"><ele>299.0</ele><time>2026-04-27T15:49:33Z</time></trkpt><trkpt lat="45.78216799556641" lon="9.450707329728377"><ele>303.6666666666667</ele><time>2026-04-27T15:49:34Z</time></trkpt><trkpt lat="45.782019983633155" lon="9.450808736762932"><ele>308.3333333333333</ele><time>2026-04-27T15:49:35Z</time></trkpt><trkpt lat="45.78185016269832" lon="9.450884584879649"><ele>313.0</ele><time>2026-04-27T15:49:36Z</time></trkpt><trkpt lat="45.78172229862614" lon="9.450969699149184"><ele>313.0</ele><time>2026-04-27T15:49:37Z</time></trkpt><trkpt lat="45.78162086519862" lon="9.451027273861236"><ele>313.0</ele><time>2026-04-27T15:49:38Z</time></trkpt><trkpt lat="45.781550435431086" lon="9.451201673184972"><ele>313.0</ele><time>2026-04-27T15:49:39Z</time></trkpt><trkpt lat="45.78154013043228" lon="9.451403135680275"><ele>313.0</ele><time>2026-04-27T15:49:40Z</time></trkpt><trkpt lat="45.78153944385506" lon="9.451637056994208"><ele>318.0</ele><time>2026-04-27T15:49:41Z</time></trkpt><trkpt lat="45.781536056506916" lon="9.4518811512484"><ele>323.0</ele><time>2026-04-27T15:49:42Z</time></trkpt><trkpt lat="45.78155793413462" lon="9.45214902432697"><ele>328.0</ele><time>2026-04-27T15:49:43Z</time></trkpt><trkpt lat="45.78158522986094" lon="9.452432681109338"><ele>330.0</ele><time>2026-04-27T15:49:44Z</time></trkpt><trkpt lat="45.78161462148753" lon="9.452695008274212"><ele>332.0</ele><time>2026-04-27T15:49:45Z</time></trkpt><trkpt lat="45.78162315328088" lon="9.452926638600232"><ele>334.0</ele><time>2026-04-27T15:49:46Z</time></trkpt><trkpt lat="45.78158839122855" lon="9.453156102384227"><ele>337.3333333333333</ele><time>2026-04-27T15:49:47Z</time></trkpt><trkpt lat="45.781487809241625" lon="9.45335163350178"><ele>340.6666666666667</ele><time>2026-04-27T15:49:48Z</time></trkpt><trkpt lat="45.781384736493244" lon="9.453587963484674"><ele>344.0</ele><time>2026-04-27T15:49:49Z</time></trkpt><trkpt lat="45.781277133513086" lon="9.453815364003209"><ele>346.0</ele><time>2026-04-27T15:49:50Z</time></trkpt><trkpt lat="45.78116534302438" lon="9.454061430607153"><ele>348.0</ele><time>2026-04-27T15:49:51Z</time></trkpt><trkpt lat="45.781035899385195" lon="9.454321921223908"><ele>350.0</ele><time>2026-04-27T15:49:52Z</time></trkpt><trkpt lat="45.780869140172115" lon="9.45454866503194"><ele>353.0</ele><time>2026-04-27T15:49:53Z</time></trkpt><trkpt lat="45.78071048958575" lon="9.454733117638948"><ele>356.0</ele><time>2026-04-27T15:49:54Z</time></trkpt><trkpt lat="45.780572445457935" lon="9.454902264169492"><ele>359.0</ele><time>2026-04-27T15:49:55Z</time></trkpt><trkpt lat="45.78047639334264" lon="9.455104558185845"><ele>359.0</ele><time>2026-04-27T15:49:56Z</time></trkpt><trkpt lat="45.780383742669926" lon="9.455352144526131"><ele>359.0</ele><time>2026-04-27T15:49:57Z</time></trkpt><trkpt lat="45.78033794967612" lon="9.455612452145273"><ele>359.0</ele><time>2026-04-27T15:49:58Z</time></trkpt><trkpt lat="45.78032240191811" lon="9.455903780382684"><ele>362.0</ele><time>2026-04-27T15:49:59Z</time></trkpt><trkpt lat="45.78028541529289" lon="9.45621293350544"><ele>365.0</ele><time>2026-04-27T15:50:00Z</time></trkpt><trkpt lat="45.780260860836364" lon="9.45653819091048"><ele>368.0</ele><time>2026-04-27T15:50:01Z</time></trkpt><trkpt lat="45.78024413666748" lon="9.456845575886872"><ele>369.33333333333337</ele><time>2026-04-27T15:50:02Z</time></trkpt><trkpt lat="45.780184239795716" lon="9.457119332243604"><ele>370.6666666666667</ele><time>2026-04-27T15:50:03Z</time></trkpt><trkpt lat="45.780104647552314" lon="9.45736947882946"><ele>372.0</ele><time>2026-04-27T15:50:04Z</time></trkpt><trkpt lat="45.77999962218436" lon="9.457599976108101"><ele>372.0</ele><time>2026-04-27T15:50:05Z</time></trkpt><trkpt lat="45.7798937894924" lon="9.457840913858643"><ele>372.0</ele><time>2026-04-27T15:50:06Z</time></trkpt><trkpt lat="45.77977284316734" lon="9.458098697158393"><ele>372.0</ele><time>2026-04-27T15:50:07Z</time></trkpt><trkpt lat="45.77965679250993" lon="9.458312864749196"><ele>373.6666666666667</ele><time>2026-04-27T15:50:08Z</time></trkpt><trkpt lat="45.77955401292913" lon="9.458517021882024"><ele>375.33333333333337</ele><time>2026-04-27T15:50:09Z</time></trkpt><trkpt lat="45.7794446422931" lon="9.458766769108989"><ele>377.0</ele><time>2026-04-27T15:50:10Z</time></trkpt><trkpt lat="45.77931578697756" lon="9.458936372366287"><ele>380.0</ele><time>2026-04-27T15:50:11Z</time></trkpt><trkpt lat="45.77916401586529" lon="9.45913252634089"><ele>383.0</ele><time>2026-04-27T15:50:12Z</time></trkpt><trkpt lat="45.77898599254242" lon="9.45932759869843"><ele>386.0</ele><time>2026-04-27T15:50:13Z</time></trkpt><trkpt lat="45.77883164051647" lon="9.459508917218388"><ele>387.0</ele><time>2026-04-27T15:50:14Z</time></trkpt><trkpt lat="45.778714470711556" lon="9.45966789639587"><ele>388.0</ele><time>2026-04-27T15:50:15Z</time></trkpt><trkpt lat="45.778625068056165" lon="9.459877173766197"><ele>389.0</ele><time>2026-04-27T15:50:16Z</time></trkpt><trkpt lat="45.778561905183" lon="9.460144084293319"><ele>391.3333333333333</ele><time>2026-04-27T15:50:17Z</time></trkpt><trkpt lat="45.778497287414346" lon="9.46041020515233"><ele>393.66666666666663</ele><time>2026-04-27T15:50:18Z</time></trkpt><trkpt lat="45.77845367175703" lon="9.460636467196755"><ele>396.0</ele><time>2026-04-27T15:50:19Z</time></trkpt><trkpt lat="45.778414740541926" lon="9.460838427851726"><ele>396.5</ele><time>2026-04-27T15:50:20Z</time></trkpt><trkpt lat="45.77838208957524" lon="9.461007809232948"><ele>397.0</ele><time>2026-04-27T15:50:21Z</time></trkpt><trkpt lat="45.77835295976318" lon="9.461159364996297"><ele>397.5</ele><time>2026-04-27T15:50:22Z</time></trkpt><trkpt lat="45.77832249424678" lon="9.461318390243795"><ele>398.0</ele><time>2026-04-27T15:50:23Z</time></trkpt><trkpt lat="45.77829240436664" lon="9.461474870221869"><ele>399.2</ele><time>2026-04-27T15:50:24Z</time></trkpt><trkpt lat="45.778260507638166" lon="9.461608724103453"><ele>400.4</ele><time>2026-04-27T15:50:25Z</time></trkpt><trkpt lat="45.77822030593875" lon="9.461734213515587"><ele>401.59999999999997</ele><time>2026-04-27T15:50:26Z</time></trkpt><trkpt lat="45.778168752017734" lon="9.461889771409036"><ele>402.79999999999995</ele><time>2026-04-27T15:50:27Z</time></trkpt><trkpt lat="45.77811686976576" lon="9.46202853133552"><ele>404.0</ele><time>2026-04-27T15:50:28Z</time></trkpt><trkpt lat="45.77806884794799" lon="9.462170094548338"><ele>405.2</ele><time>2026-04-27T15:50:29Z</time></trkpt><trkpt lat="45.77801477964552" lon="9.462292972266978"><ele>406.4</ele><time>2026-04-27T15:50:30Z</time></trkpt><trkpt lat="45.777970605491106" lon="9.46244078212639"><ele>407.6</ele><time>2026-04-27T15:50:31Z</time></trkpt><trkpt lat="45.77793044576701" lon="9.46258669207797"><ele>408.8</ele><time>2026-04-27T15:50:32Z</time></trkpt><trkpt lat="45.77789629422009" lon="9.462740658008139"><ele>410.0</ele><time>2026-04-27T15:50:33Z</time></trkpt><trkpt lat="45.777847442385685" lon="9.462910874416488"><ele>410.25</ele><time>2026-04-27T15:50:34Z</time></trkpt><trkpt lat="45.77779739577457" lon="9.463083209996913"><ele>410.5</ele><time>2026-04-27T15:50:35Z</time></trkpt><trkpt lat="45.77775248739508" lon="9.4632358364256"><ele>410.75</ele><time>2026-04-27T15:50:36Z</time></trkpt><trkpt lat="45.777698547427185" lon="9.46340605641666"><ele>411.0</ele><time>2026-04-27T15:50:37Z</time></trkpt><trkpt lat="45.77762892434757" lon="9.463580122387269"><ele>409.5</ele><time>2026-04-27T15:50:38Z</time></trkpt><trkpt lat="45.77755713181601" lon="9.463728946916921"><ele>408.0</ele><time>2026-04-27T15:50:39Z</time></trkpt><trkpt lat="45.777471702090224" lon="9.463867831379412"><ele>406.5</ele><time>2026-04-27T15:50:40Z</time></trkpt><trkpt lat="45.777385819350926" lon="9.464019607536299"><ele>405.0</ele><time>2026-04-27T15:50:41Z</time></trkpt><trkpt lat="45.77730232138534" lon="9.464175028426109"><ele>405.0</ele><time>2026-04-27T15:50:42Z</time></trkpt><trkpt lat="45.77720323617009" lon="9.464319919123348"><ele>405.0</ele><time>2026-04-27T15:50:43Z</time></trkpt><trkpt lat="45.77712433402353" lon="9.464453027595434"><ele>405.0</ele><time>2026-04-27T15:50:44Z</time></trkpt><trkpt lat="45.77702644182239" lon="9.464598440249903"><ele>405.0</ele><time>2026-04-27T15:50:45Z</time></trkpt><trkpt lat="45.77693265950958" lon="9.464764069033814"><ele>405.66666666666663</ele><time>2026-04-27T15:50:46Z</time></trkpt><trkpt lat="45.776832619127056" lon="9.464983477382393"><ele>406.3333333333333</ele><time>2026-04-27T15:50:47Z</time></trkpt><trkpt lat="45.776740689497316" lon="9.465227698264515"><ele>407.0</ele><time>2026-04-27T15:50:48Z</time></trkpt><trkpt lat="45.776638948568866" lon="9.465469991756763"><ele>407.0</ele><time>2026-04-27T15:50:49Z</time></trkpt><trkpt lat="45.77651469391645" lon="9.465736807318239"><ele>407.0</ele><time>2026-04-27T15:50:50Z</time></trkpt><trkpt lat="45.77638338083678" lon="9.466004140653798"><ele>407.5</ele><time>2026-04-27T15:50:51Z</time></trkpt><trkpt lat="45.77624413484711" lon="9.466298320758979"><ele>408.0</ele><time>2026-04-27T15:50:52Z</time></trkpt><trkpt lat="45.77608364720563" lon="9.46658064537916"><ele>408.0</ele><time>2026-04-27T15:50:53Z</time></trkpt><trkpt lat="45.77591580659374" lon="9.466876152398381"><ele>408.0</ele><time>2026-04-27T15:50:54Z</time></trkpt><trkpt lat="45.775740587440716" lon="9.467184984484092"><ele>408.0</ele><time>2026-04-27T15:50:55Z</time></trkpt><trkpt lat="45.77554735088551" lon="9.46751447113447"><ele>408.0</ele><time>2026-04-27T15:50:56Z</time></trkpt><trkpt lat="45.77536428466905" lon="9.467839156979961"><ele>408.0</ele><time>2026-04-27T15:50:57Z</time></trkpt><trkpt lat="45.7751875827999" lon="9.468152868068866"><ele>408.0</ele><time>2026-04-27T15:50:58Z</time></trkpt><trkpt lat="45.77501177296651" lon="9.468463730811436"><ele>408.0</ele><time>2026-04-27T15:50:59Z</time></trkpt><trkpt lat="45.77486435433789" lon="9.468767177208079"><ele>408.0</ele><time>2026-04-27T15:51:00Z</time></trkpt><trkpt lat="45.77469814657696" lon="9.469006748786276"><ele>409.0</ele><time>2026-04-27T15:51:01Z</time></trkpt><trkpt lat="45.77452609383465" lon="9.469251315637434"><ele>410.0</ele><time>2026-04-27T15:51:02Z</time></trkpt><trkpt lat="45.77432475105227" lon="9.46951046258119"><ele>404.5</ele><time>2026-04-27T15:51:03Z</time></trkpt><trkpt lat="45.7741106876725" lon="9.469768629321274"><ele>399.0</ele><time>2026-04-27T15:51:04Z</time></trkpt><trkpt lat="45.7738916840118" lon="9.470040269372946"><ele>399.0</ele><time>2026-04-27T15:51:05Z</time></trkpt><trkpt lat="45.77366540554868" lon="9.470326826689055"><ele>399.0</ele><time>2026-04-27T15:51:06Z</time></trkpt><trkpt lat="45.77344441793337" lon="9.470592692506118"><ele>398.0</ele><time>2026-04-27T15:51:07Z</time></trkpt><trkpt lat="45.773242192654486" lon="9.470853861057092"><ele>397.0</ele><time>2026-04-27T15:51:08Z</time></trkpt><trkpt lat="45.77304867513183" lon="9.471089739005633"><ele>391.5</ele><time>2026-04-27T15:51:09Z</time></trkpt><trkpt lat="45.7728657961705" lon="9.47132297060133"><ele>386.0</ele><time>2026-04-27T15:51:10Z</time></trkpt><trkpt lat="45.77269385052446" lon="9.471549026353099"><ele>391.5</ele><time>2026-04-27T15:51:11Z</time></trkpt><trkpt lat="45.772518847781676" lon="9.471799497000523"><ele>397.0</ele><time>2026-04-27T15:51:12Z</time></trkpt><trkpt lat="45.7723499508634" lon="9.472070010661055"><ele>388.5</ele><time>2026-04-27T15:51:13Z</time></trkpt><trkpt lat="45.77220580487664" lon="9.47236170099087"><ele>380.0</ele><time>2026-04-27T15:51:14Z</time></trkpt><trkpt lat="45.77204541149107" lon="9.47266712907564"><ele>380.0</ele><time>2026-04-27T15:51:15Z</time></trkpt><trkpt lat="45.771908583024725" lon="9.473017006920339"><ele>380.0</ele><time>2026-04-27T15:51:16Z</time></trkpt><trkpt lat="45.77178635166854" lon="9.47339784518819"><ele>381.0</ele><time>2026-04-27T15:51:17Z</time></trkpt><trkpt lat="45.77166142751425" lon="9.473761759129832"><ele>382.0</ele><time>2026-04-27T15:51:18Z</time></trkpt><trkpt lat="45.771530098964696" lon="9.47408857922459"><ele>378.5</ele><time>2026-04-27T15:51:19Z</time></trkpt><trkpt lat="45.77143010006399" lon="9.474407929149674"><ele>375.0</ele><time>2026-04-27T15:51:20Z</time></trkpt><trkpt lat="45.77132051487709" lon="9.474705745908322"><ele>374.0</ele><time>2026-04-27T15:51:21Z</time></trkpt><trkpt lat="45.77121890560652" lon="9.474978298825313"><ele>373.0</ele><time>2026-04-27T15:51:22Z</time></trkpt><trkpt lat="45.77112749305072" lon="9.475230955730938"><ele>372.0</ele><time>2026-04-27T15:51:23Z</time></trkpt><trkpt lat="45.77103909677374" lon="9.47545309375612"><ele>373.5</ele><time>2026-04-27T15:51:24Z</time></trkpt><trkpt lat="45.770972446625635" lon="9.475661371212288"><ele>375.0</ele><time>2026-04-27T15:51:25Z</time></trkpt><trkpt lat="45.77092000304755" lon="9.475845674627854"><ele>376.5</ele><time>2026-04-27T15:51:26Z</time></trkpt><trkpt lat="45.77087169604543" lon="9.476012146462933"><ele>378.0</ele><time>2026-04-27T15:51:27Z</time></trkpt><trkpt lat="45.77082562957417" lon="9.476167797615611"><ele>376.79999999999995</ele><time>2026-04-27T15:51:28Z</time></trkpt><trkpt lat="45.77077559051964" lon="9.47631830831145"><ele>375.6</ele><time>2026-04-27T15:51:29Z</time></trkpt><trkpt lat="45.77072966226159" lon="9.476451894804049"><ele>374.4</ele><time>2026-04-27T15:51:30Z</time></trkpt><trkpt lat="45.77068607216445" lon="9.476553808217364"><ele>373.20000000000005</ele><time>2026-04-27T15:51:31Z</time></trkpt><trkpt lat="45.770656987466865" lon="9.476637205879044"><ele>372.0</ele><time>2026-04-27T15:51:34Z</time></trkpt><trkpt lat="45.77056377246228" lon="9.47679913280407"><ele>372.0</ele><time>2026-04-27T15:52:02Z</time></trkpt><trkpt lat="45.77068695755176" lon="9.476932624487338"><ele>372.0</ele><time>2026-04-27T15:52:03Z</time></trkpt><trkpt lat="45.770761216757805" lon="9.477025062586963"><ele>372.0</ele><time>2026-04-27T15:52:04Z</time></trkpt><trkpt lat="45.77085870991669" lon="9.477100443927009"><ele>372.0</ele><time>2026-04-27T15:52:05Z</time></trkpt><trkpt lat="45.77094975561875" lon="9.477226789025202"><ele>373.0</ele><time>2026-04-27T15:52:06Z</time></trkpt><trkpt lat="45.77105363054196" lon="9.477356434942369"><ele>374.0</ele><time>2026-04-27T15:52:07Z</time></trkpt><trkpt lat="45.77111831993035" lon="9.477500942365618"><ele>375.0</ele><time>2026-04-27T15:52:08Z</time></trkpt><trkpt lat="45.771045897135714" lon="9.477754537573707"><ele>376.0</ele><time>2026-04-27T15:52:09Z</time></trkpt><trkpt lat="45.771023162431895" lon="9.47793717118643"><ele>378.25</ele><time>2026-04-27T15:52:10Z</time></trkpt><trkpt lat="45.77097629811235" lon="9.478114715894575"><ele>380.5</ele><time>2026-04-27T15:52:11Z</time></trkpt><trkpt lat="45.77087001296565" lon="9.478251981843854"><ele>382.75</ele><time>2026-04-27T15:52:12Z</time></trkpt><trkpt lat="45.77074719975019" lon="9.47841367525065"><ele>385.0</ele><time>2026-04-27T15:52:13Z</time></trkpt><trkpt lat="45.77063630013833" lon="9.478547405183333"><ele>385.0</ele><time>2026-04-27T15:52:14Z</time></trkpt><trkpt lat="45.77053580099845" lon="9.478690612593716"><ele>385.0</ele><time>2026-04-27T15:52:15Z</time></trkpt><trkpt lat="45.77041662668351" lon="9.478806328232993"><ele>385.0</ele><time>2026-04-27T15:52:16Z</time></trkpt><trkpt lat="45.77030520187432" lon="9.478935899272091"><ele>385.0</ele><time>2026-04-27T15:52:17Z</time></trkpt><trkpt lat="45.77020435331129" lon="9.479064903907947"><ele>387.0</ele><time>2026-04-27T15:52:18Z</time></trkpt><trkpt lat="45.77008571164834" lon="9.479189409885842"><ele>389.0</ele><time>2026-04-27T15:52:19Z</time></trkpt><trkpt lat="45.76998181760738" lon="9.479316325592759"><ele>391.0</ele><time>2026-04-27T15:52:20Z</time></trkpt><trkpt lat="45.769889119631756" lon="9.479411517440711"><ele>393.0</ele><time>2026-04-27T15:52:21Z</time></trkpt><trkpt lat="45.769816341965516" lon="9.479461400805343"><ele>393.0</ele><time>2026-04-27T15:52:22Z</time></trkpt><trkpt lat="45.76975082303625" lon="9.479571861574655"><ele>393.0</ele><time>2026-04-27T15:52:23Z</time></trkpt><trkpt lat="45.7697063669057" lon="9.479694665451476"><ele>393.0</ele><time>2026-04-27T15:52:24Z</time></trkpt><trkpt lat="45.769697768377945" lon="9.479825162724225"><ele>393.0</ele><time>2026-04-27T15:52:25Z</time></trkpt><trkpt lat="45.76971946583586" lon="9.479952597292812"><ele>393.0</ele><time>2026-04-27T15:52:26Z</time></trkpt><trkpt lat="45.76974825800091" lon="9.480122464355254"><ele>396.4</ele><time>2026-04-27T15:52:27Z</time></trkpt><trkpt lat="45.769763514193755" lon="9.480279563791402"><ele>399.79999999999995</ele><time>2026-04-27T15:52:29Z</time></trkpt><trkpt lat="45.76982751719466" lon="9.48042665605473"><ele>403.2</ele><time>2026-04-27T15:52:31Z</time></trkpt><trkpt lat="45.769892674010364" lon="9.480445081827602"><ele>406.6</ele><time>2026-04-27T15:52:32Z</time></trkpt><trkpt lat="45.76995917609231" lon="9.480397276231324"><ele>410.0</ele><time>2026-04-27T15:52:33Z</time></trkpt><trkpt lat="45.76999777651978" lon="9.480259346156439"><ele>410.0</ele><time>2026-04-27T15:52:34Z</time></trkpt><trkpt lat="45.76999313879395" lon="9.480117492027802"><ele>410.0</ele><time>2026-04-27T15:52:35Z</time></trkpt><trkpt lat="45.770117643739596" lon="9.48007995221974"><ele>410.0</ele><time>2026-04-27T15:52:36Z</time></trkpt><trkpt lat="45.77020803764973" lon="9.480014952477278"><ele>410.0</ele><time>2026-04-27T15:52:37Z</time></trkpt><trkpt lat="45.77038694916655" lon="9.479923451699367"><ele>412.0</ele><time>2026-04-27T15:52:39Z</time></trkpt><trkpt lat="45.77049760914234" lon="9.479876051196385"><ele>414.0</ele><time>2026-04-27T15:52:40Z</time></trkpt><trkpt lat="45.7706037207791" lon="9.479868611143068"><ele>416.0</ele><time>2026-04-27T15:52:41Z</time></trkpt><trkpt lat="45.770706029968814" lon="9.479861956239182"><ele>418.0</ele><time>2026-04-27T15:52:42Z</time></trkpt><trkpt lat="45.770817841180296" lon="9.479864659548829"><ele>420.0</ele><time>2026-04-27T15:52:43Z</time></trkpt><trkpt lat="45.77089748497167" lon="9.479869618574366"><ele>420.0</ele><time>2026-04-27T15:52:44Z</time></trkpt><trkpt lat="45.77100653820489" lon="9.4798698034731"><ele>420.0</ele><time>2026-04-27T15:52:45Z</time></trkpt><trkpt lat="45.77112271941674" lon="9.479872441492422"><ele>420.0</ele><time>2026-04-27T15:52:46Z</time></trkpt><trkpt lat="45.771252387655636" lon="9.479870440450416"><ele>420.0</ele><time>2026-04-27T15:52:47Z</time></trkpt><trkpt lat="45.7713847660178" lon="9.479863166761975"><ele>423.25</ele><time>2026-04-27T15:52:48Z</time></trkpt><trkpt lat="45.771535838130035" lon="9.479870857005453"><ele>426.5</ele><time>2026-04-27T15:52:49Z</time></trkpt><trkpt lat="45.77166235439806" lon="9.479824173208073"><ele>429.75</ele><time>2026-04-27T15:52:50Z</time></trkpt><trkpt lat="45.77176209639317" lon="9.479759453155546"><ele>433.0</ele><time>2026-04-27T15:52:51Z</time></trkpt><trkpt lat="45.77182774161996" lon="9.479741557025044"><ele>433.0</ele><time>2026-04-27T15:52:52Z</time></trkpt><trkpt lat="45.77188109690815" lon="9.479798547502572"><ele>432.99999999999994</ele><time>2026-04-27T15:52:54Z</time></trkpt><trkpt lat="45.77184588086499" lon="9.479956807796453"><ele>432.99999999999994</ele><time>2026-04-27T15:52:56Z</time></trkpt><trkpt lat="45.77173559773082" lon="9.480038693837376"><ele>433.0</ele><time>2026-04-27T15:52:57Z</time></trkpt><trkpt lat="45.77169011901551" lon="9.480176415590693"><ele>433.0</ele><time>2026-04-27T15:52:58Z</time></trkpt><trkpt lat="45.77163646476387" lon="9.480329188804854"><ele>435.75</ele><time>2026-04-27T15:52:59Z</time></trkpt><trkpt lat="45.77158382673189" lon="9.480504954203482"><ele>438.5</ele><time>2026-04-27T15:53:00Z</time></trkpt><trkpt lat="45.77155539915727" lon="9.480686695265295"><ele>441.25</ele><time>2026-04-27T15:53:01Z</time></trkpt><trkpt lat="45.77153144848331" lon="9.480869328567795"><ele>444.0</ele><time>2026-04-27T15:53:02Z</time></trkpt><trkpt lat="45.77152901040772" lon="9.481023571699568"><ele>444.0</ele><time>2026-04-27T15:53:03Z</time></trkpt><trkpt lat="45.77150593999483" lon="9.481153510834206"><ele>444.0</ele><time>2026-04-27T15:53:04Z</time></trkpt><trkpt lat="45.77151650602771" lon="9.481259448673155"><ele>444.0</ele><time>2026-04-27T15:53:05Z</time></trkpt><trkpt lat="45.77143734047591" lon="9.481264968812548"><ele>444.0</ele><time>2026-04-27T15:53:09Z</time></trkpt><trkpt lat="45.77132582616577" lon="9.481264680166683"><ele>444.0</ele><time>2026-04-27T15:53:10Z</time></trkpt><trkpt lat="45.77125235435104" lon="9.48128709229315"><ele>444.0</ele><time>2026-04-27T15:53:11Z</time></trkpt><trkpt lat="45.77113379731981" lon="9.481395583131249"><ele>445.3333333333333</ele><time>2026-04-27T15:53:13Z</time></trkpt><trkpt lat="45.77110573701065" lon="9.481486718151956"><ele>446.66666666666663</ele><time>2026-04-27T15:53:14Z</time></trkpt><trkpt lat="45.771022258445434" lon="9.481535470716299"><ele>448.0</ele><time>2026-04-27T15:53:17Z</time></trkpt><trkpt lat="45.77100342796127" lon="9.48142745141206"><ele>449.3333333333333</ele><time>2026-04-27T15:53:18Z</time></trkpt><trkpt lat="45.770912194909315" lon="9.481373682771755"><ele>450.66666666666663</ele><time>2026-04-27T15:53:20Z</time></trkpt><trkpt lat="45.77088526019122" lon="9.481271134158687"><ele>452.0</ele><time>2026-04-27T15:53:21Z</time></trkpt><trkpt lat="45.770761912640204" lon="9.481346430736567"><ele>451.99999999999994</ele><time>2026-04-27T15:53:23Z</time></trkpt><trkpt lat="45.77069366700819" lon="9.481351859395357"><ele>452.0</ele><time>2026-04-27T15:53:24Z</time></trkpt><trkpt lat="45.77062102764182" lon="9.481414700962098"><ele>452.0</ele><time>2026-04-27T15:53:25Z</time></trkpt><trkpt lat="45.77054197148842" lon="9.481415542543854"><ele>452.0</ele><time>2026-04-27T15:53:26Z</time></trkpt><trkpt lat="45.77045613536595" lon="9.481377209562977"><ele>451.99999999999994</ele><time>2026-04-27T15:53:27Z</time></trkpt><trkpt lat="45.770385928464385" lon="9.481383120181626"><ele>452.0</ele><time>2026-04-27T15:53:28Z</time></trkpt><trkpt lat="45.77028092253889" lon="9.481398090580305"><ele>452.0</ele><time>2026-04-27T15:53:30Z</time></trkpt><trkpt lat="45.77036065477266" lon="9.481726424850086"><ele>452.0</ele><time>2026-04-27T15:53:35Z</time></trkpt><trkpt lat="45.77040763582282" lon="9.481833946178604"><ele>452.0</ele><time>2026-04-27T15:53:36Z</time></trkpt><trkpt lat="45.77046099048564" lon="9.481945198152271"><ele>452.0</ele><time>2026-04-27T15:53:37Z</time></trkpt><trkpt lat="45.77049139115098" lon="9.48205938760651"><ele>453.8333333333333</ele><time>2026-04-27T15:53:38Z</time></trkpt><trkpt lat="45.77052743870412" lon="9.48215271758066"><ele>455.66666666666663</ele><time>2026-04-27T15:53:39Z</time></trkpt><trkpt lat="45.77057123440989" lon="9.482265804782125"><ele>457.5</ele><time>2026-04-27T15:53:40Z</time></trkpt><trkpt lat="45.770611707805436" lon="9.482383415804637"><ele>459.33333333333337</ele><time>2026-04-27T15:53:41Z</time></trkpt><trkpt lat="45.77063105037002" lon="9.48247632315229"><ele>461.1666666666667</ele><time>2026-04-27T15:53:42Z</time></trkpt><trkpt lat="45.77065803506446" lon="9.482608695908176"><ele>463.0</ele><time>2026-04-27T15:53:43Z</time></trkpt><trkpt lat="45.77069959320817" lon="9.482709160371723"><ele>463.0</ele><time>2026-04-27T15:53:44Z</time></trkpt><trkpt lat="45.77070868529546" lon="9.482802292587568"><ele>462.99999999999994</ele><time>2026-04-27T15:53:45Z</time></trkpt><trkpt lat="45.770693621459415" lon="9.48294933369802"><ele>462.99999999999994</ele><time>2026-04-27T15:53:47Z</time></trkpt><trkpt lat="45.77068191985752" lon="9.483142029681696"><ele>463.0</ele><time>2026-04-27T15:53:49Z</time></trkpt><trkpt lat="45.770680100241655" lon="9.483271680357314"><ele>463.0</ele><time>2026-04-27T15:53:50Z</time></trkpt><trkpt lat="45.77067346136042" lon="9.483403034539874"><ele>464.83333333333337</ele><time>2026-04-27T15:53:51Z</time></trkpt><trkpt lat="45.77073857289257" lon="9.483539602295577"><ele>466.6666666666667</ele><time>2026-04-27T15:53:53Z</time></trkpt><trkpt lat="45.77076241286146" lon="9.483624382075869"><ele>468.5</ele><time>2026-04-27T15:53:54Z</time></trkpt><trkpt lat="45.77076861516267" lon="9.483717745635609"><ele>470.33333333333337</ele><time>2026-04-27T15:53:55Z</time></trkpt><trkpt lat="45.770771423195335" lon="9.483850973804687"><ele>472.1666666666667</ele><time>2026-04-27T15:53:56Z</time></trkpt><trkpt lat="45.77077785391185" lon="9.483963238667672"><ele>474.0</ele><time>2026-04-27T15:53:57Z</time></trkpt><trkpt lat="45.77082962635992" lon="9.484137722354578"><ele>475.8333333333333</ele><time>2026-04-27T15:53:59Z</time></trkpt><trkpt lat="45.77086522827826" lon="9.484228600983448"><ele>477.66666666666663</ele><time>2026-04-27T15:54:00Z</time></trkpt><trkpt lat="45.77088488180425" lon="9.484314813795256"><ele>479.5</ele><time>2026-04-27T15:54:01Z</time></trkpt><trkpt lat="45.77088270354775" lon="9.484420019807644"><ele>481.3333333333333</ele><time>2026-04-27T15:54:02Z</time></trkpt><trkpt lat="45.770865858000775" lon="9.484552676171319"><ele>483.16666666666663</ele><time>2026-04-27T15:54:03Z</time></trkpt><trkpt lat="45.770842897014084" lon="9.484756125670502"><ele>485.0</ele><time>2026-04-27T15:54:04Z</time></trkpt><trkpt lat="45.77081276737464" lon="9.484960774505025"><ele>487.6</ele><time>2026-04-27T15:54:05Z</time></trkpt><trkpt lat="45.77078555549119" lon="9.485111296564469"><ele>490.2</ele><time>2026-04-27T15:54:06Z</time></trkpt><trkpt lat="45.770760051172026" lon="9.485218928404842"><ele>492.79999999999995</ele><time>2026-04-27T15:54:07Z</time></trkpt><trkpt lat="45.770702868110774" lon="9.485311107150288"><ele>495.4</ele><time>2026-04-27T15:54:09Z</time></trkpt><trkpt lat="45.77061607407985" lon="9.4853719879294"><ele>498.0</ele><time>2026-04-27T15:54:11Z</time></trkpt><trkpt lat="45.77049917868966" lon="9.485403841642082"><ele>502.59999999999997</ele><time>2026-04-27T15:54:13Z</time></trkpt><trkpt lat="45.77040156271214" lon="9.48545633016803"><ele>507.19999999999993</ele><time>2026-04-27T15:54:15Z</time></trkpt><trkpt lat="45.770322466615816" lon="9.485544035131818"><ele>511.8</ele><time>2026-04-27T15:54:19Z</time></trkpt><trkpt lat="45.770247645339396" lon="9.485701990793672"><ele>516.4</ele><time>2026-04-27T15:54:22Z</time></trkpt><trkpt lat="45.77021908914792" lon="9.485798752792842"><ele>521.0</ele><time>2026-04-27T15:54:23Z</time></trkpt><trkpt lat="45.77019399128184" lon="9.485883796436767"><ele>521.0</ele><time>2026-04-27T15:54:24Z</time></trkpt><trkpt lat="45.77016510578269" lon="9.48598167440292"><ele>521.0</ele><time>2026-04-27T15:54:25Z</time></trkpt><trkpt lat="45.77013528099161" lon="9.486082735155279"><ele>521.0</ele><time>2026-04-27T15:54:26Z</time></trkpt><trkpt lat="45.77016198372655" lon="9.486209087462596"><ele>521.0</ele><time>2026-04-27T15:54:27Z</time></trkpt><trkpt lat="45.770114608415156" lon="9.48628086236823"><ele>521.0</ele><time>2026-04-27T15:54:28Z</time></trkpt><trkpt lat="45.77004470127488" lon="9.486406976671844"><ele>521.0</ele><time>2026-04-27T15:54:30Z</time></trkpt><trkpt lat="45.7700272784129" lon="9.486535212464025"><ele>521.0</ele><time>2026-04-27T15:54:31Z</time></trkpt><trkpt lat="45.7699914633175" lon="9.48672490036012"><ele>521.0</ele><time>2026-04-27T15:54:33Z</time></trkpt><trkpt lat="45.76991334221143" lon="9.486823605727725"><ele>521.0</ele><time>2026-04-27T15:54:34Z</time></trkpt><trkpt lat="45.769834494999714" lon="9.486938004012652"><ele>521.0</ele><time>2026-04-27T15:54:35Z</time></trkpt><trkpt lat="45.769778177541745" lon="9.487020400853384"><ele>521.0</ele><time>2026-04-27T15:54:36Z</time></trkpt><trkpt lat="45.76965808591848" lon="9.487095697166328"><ele>524.8333333333333</ele><time>2026-04-27T15:54:38Z</time></trkpt><trkpt lat="45.76954885053937" lon="9.487120890789177"><ele>528.6666666666666</ele><time>2026-04-27T15:54:40Z</time></trkpt><trkpt lat="45.769489258684075" lon="9.487226636781026"><ele>532.5</ele><time>2026-04-27T15:54:42Z</time></trkpt><trkpt lat="45.76942423585263" lon="9.487261669869996"><ele>536.3333333333334</ele><time>2026-04-27T15:54:43Z</time></trkpt><trkpt lat="45.76939922741284" lon="9.487371126596198"><ele>540.1666666666667</ele><time>2026-04-27T15:54:47Z</time></trkpt><trkpt lat="45.7694022375431" lon="9.487463979043781"><ele>544.0</ele><time>2026-04-27T15:54:49Z</time></trkpt><trkpt lat="45.769417463451624" lon="9.487656969745471"><ele>544.0</ele><time>2026-04-27T15:54:52Z</time></trkpt><trkpt lat="45.76953664308632" lon="9.487771700211297"><ele>544.0</ele><time>2026-04-27T15:55:02Z</time></trkpt><trkpt lat="45.769606973595195" lon="9.487693329150337"><ele>544.0</ele><time>2026-04-27T15:55:03Z</time></trkpt><trkpt lat="45.76966505109236" lon="9.487615700788991"><ele>544.0</ele><time>2026-04-27T15:55:04Z</time></trkpt><trkpt lat="45.76973934973143" lon="9.4875161832392"><ele>544.0</ele><time>2026-04-27T15:55:05Z</time></trkpt><trkpt lat="45.76978311521516" lon="9.487439718183499"><ele>544.0</ele><time>2026-04-27T15:55:06Z</time></trkpt><trkpt lat="45.76982822076419" lon="9.487358366542418"><ele>544.0</ele><time>2026-04-27T15:55:07Z</time></trkpt><trkpt lat="45.76991836716847" lon="9.487335703671253"><ele>544.0</ele><time>2026-04-27T15:55:08Z</time></trkpt><trkpt lat="45.77002147547917" lon="9.487336793863678"><ele>544.0</ele><time>2026-04-27T15:55:09Z</time></trkpt><trkpt lat="45.7701287734081" lon="9.487371260916472"><ele>544.0</ele><time>2026-04-27T15:55:10Z</time></trkpt><trkpt lat="45.77034159639222" lon="9.487181511369334"><ele>543.8</ele><time>2026-04-27T15:55:13Z</time></trkpt><trkpt lat="45.770407252276165" lon="9.48703489515246"><ele>543.5999999999999</ele><time>2026-04-27T15:55:14Z</time></trkpt><trkpt lat="45.770451816894884" lon="9.486895910111253"><ele>543.4</ele><time>2026-04-27T15:55:15Z</time></trkpt><trkpt lat="45.77053845248171" lon="9.486837204120874"><ele>543.1999999999999</ele><time>2026-04-27T15:55:16Z</time></trkpt><trkpt lat="45.77061891496765" lon="9.486800166404093"><ele>543.0</ele><time>2026-04-27T15:55:18Z</time></trkpt><trkpt lat="45.77071892593101" lon="9.486799256593079"><ele>543.0</ele><time>2026-04-27T15:55:20Z</time></trkpt><trkpt lat="45.77078192304303" lon="9.486767544956042"><ele>543.0</ele><time>2026-04-27T15:55:21Z</time></trkpt><trkpt lat="45.77087773446881" lon="9.486824140651668"><ele>543.0</ele><time>2026-04-27T15:55:23Z</time></trkpt><trkpt lat="45.7709553894682" lon="9.486863718353911"><ele>543.0</ele><time>2026-04-27T15:55:24Z</time></trkpt><trkpt lat="45.771056621762725" lon="9.48684228815795"><ele>543.0</ele><time>2026-04-27T15:55:25Z</time></trkpt><trkpt lat="45.77115266463712" lon="9.486823255003937"><ele>547.6</ele><time>2026-04-27T15:55:26Z</time></trkpt><trkpt lat="45.7712446741779" lon="9.48679210870656"><ele>552.1999999999999</ele><time>2026-04-27T15:55:27Z</time></trkpt><trkpt lat="45.77136504423718" lon="9.486688458620666"><ele>556.8</ele><time>2026-04-27T15:55:28Z</time></trkpt><trkpt lat="45.77146748342591" lon="9.486632971051032"><ele>561.4</ele><time>2026-04-27T15:55:29Z</time></trkpt><trkpt lat="45.77153373018125" lon="9.4865770958407"><ele>566.0</ele><time>2026-04-27T15:55:30Z</time></trkpt><trkpt lat="45.77163277094936" lon="9.48645369091152"><ele>566.0</ele><time>2026-04-27T15:55:32Z</time></trkpt><trkpt lat="45.771641285543716" lon="9.486350856528095"><ele>566.0</ele><time>2026-04-27T15:55:33Z</time></trkpt><trkpt lat="45.771602239731486" lon="9.486227486270371"><ele>566.0</ele><time>2026-04-27T15:55:34Z</time></trkpt><trkpt lat="45.77165071200345" lon="9.486165291885994"><ele>566.0</ele><time>2026-04-27T15:55:35Z</time></trkpt><trkpt lat="45.77169818181392" lon="9.486080801819464"><ele>566.0</ele><time>2026-04-27T15:55:38Z</time></trkpt><trkpt lat="45.771777545808675" lon="9.485984313523968"><ele>566.0</ele><time>2026-04-27T15:55:40Z</time></trkpt><trkpt lat="45.771805098102114" lon="9.485817071827322"><ele>562.1666666666666</ele><time>2026-04-27T15:55:41Z</time></trkpt><trkpt lat="45.771840461611504" lon="9.485721003345489"><ele>558.3333333333333</ele><time>2026-04-27T15:55:42Z</time></trkpt><trkpt lat="45.7718499112346" lon="9.485598350387969"><ele>554.5</ele><time>2026-04-27T15:55:43Z</time></trkpt><trkpt lat="45.771850871036754" lon="9.485489371403693"><ele>550.6666666666666</ele><time>2026-04-27T15:55:44Z</time></trkpt><trkpt lat="45.771853824879685" lon="9.485397077287171"><ele>546.8333333333334</ele><time>2026-04-27T15:55:45Z</time></trkpt><trkpt lat="45.77189902612326" lon="9.48528633677637"><ele>543.0</ele><time>2026-04-27T15:55:48Z</time></trkpt><trkpt lat="45.771944550341665" lon="9.485185853455665"><ele>542.1666666666666</ele><time>2026-04-27T15:55:50Z</time></trkpt><trkpt lat="45.771910826342165" lon="9.485059861807521"><ele>541.3333333333334</ele><time>2026-04-27T15:55:52Z</time></trkpt><trkpt lat="45.77187710596046" lon="9.485142443273782"><ele>540.5</ele><time>2026-04-27T15:55:58Z</time></trkpt><trkpt lat="45.771915533295875" lon="9.485229058101195"><ele>539.6666666666667</ele><time>2026-04-27T15:56:02Z</time></trkpt><trkpt lat="45.77192091800274" lon="9.48533580096017"><ele>538.8333333333334</ele><time>2026-04-27T15:56:05Z</time></trkpt><trkpt lat="45.771880155909045" lon="9.485487298422232"><ele>538.0</ele><time>2026-04-27T15:56:07Z</time></trkpt><trkpt lat="45.77192888794152" lon="9.485639584924499"><ele>540.1666666666667</ele><time>2026-04-27T15:56:09Z</time></trkpt><trkpt lat="45.77193746527866" lon="9.4857308577366"><ele>542.3333333333334</ele><time>2026-04-27T15:56:10Z</time></trkpt><trkpt lat="45.77192496075824" lon="9.485834141529088"><ele>544.5</ele><time>2026-04-27T15:56:11Z</time></trkpt><trkpt lat="45.771925630774234" lon="9.4859481621485"><ele>546.6666666666666</ele><time>2026-04-27T15:56:13Z</time></trkpt><trkpt lat="45.771939478240995" lon="9.486058331853068"><ele>548.8333333333333</ele><time>2026-04-27T15:56:15Z</time></trkpt><trkpt lat="45.77194028003377" lon="9.486181942125247"><ele>551.0</ele><time>2026-04-27T15:56:17Z</time></trkpt><trkpt lat="45.77192775533163" lon="9.486281035246943"><ele>551.0</ele><time>2026-04-27T15:56:19Z</time></trkpt><trkpt lat="45.77186462368491" lon="9.486301347293953"><ele>551.0</ele><time>2026-04-27T15:56:21Z</time></trkpt><trkpt lat="45.77178853147224" lon="9.486281265512048"><ele>551.0</ele><time>2026-04-27T15:56:24Z</time></trkpt><trkpt lat="45.77186129353159" lon="9.486208468982609"><ele>551.0</ele><time>2026-04-27T15:56:35Z</time></trkpt><trkpt lat="45.77188757545712" lon="9.486050148666127"><ele>551.0</ele><time>2026-04-27T15:56:38Z</time></trkpt><trkpt lat="45.77189648957983" lon="9.485937082726666"><ele>551.0</ele><time>2026-04-27T15:56:41Z</time></trkpt><trkpt lat="45.77186728944776" lon="9.48583217082488"><ele>551.0</ele><time>2026-04-27T15:56:45Z</time></trkpt><trkpt lat="45.771811274875674" lon="9.485762212921959"><ele>551.0</ele><time>2026-04-27T15:56:48Z</time></trkpt><trkpt lat="45.77188180460644" lon="9.48560719676731"><ele>551.0</ele><time>2026-04-27T15:56:52Z</time></trkpt><trkpt lat="45.77184180328901" lon="9.48553463219757"><ele>551.0</ele><time>2026-04-27T15:56:55Z</time></trkpt><trkpt lat="45.771899716039066" lon="9.485475742858547"><ele>551.0</ele><time>2026-04-27T15:57:04Z</time></trkpt><trkpt lat="45.77183708755872" lon="9.485447556989177"><ele>551.0</ele><time>2026-04-27T15:57:09Z</time></trkpt><trkpt lat="45.77191987331779" lon="9.485647362705327"><ele>551.0</ele><time>2026-04-27T15:57:58Z</time></trkpt><trkpt lat="45.77190648081766" lon="9.48582676184639"><ele>551.0</ele><time>2026-04-27T15:58:00Z</time></trkpt><trkpt lat="45.771912150715565" lon="9.485942138926822"><ele>551.0</ele><time>2026-04-27T15:58:02Z</time></trkpt><trkpt lat="45.77191711005086" lon="9.486035359633668"><ele>551.0</ele><time>2026-04-27T15:58:04Z</time></trkpt><trkpt lat="45.7719056349822" lon="9.48618591530423"><ele>551.0</ele><time>2026-04-27T15:58:06Z</time></trkpt><trkpt lat="45.77189879510177" lon="9.486285960976689"><ele>551.0</ele><time>2026-04-27T15:58:08Z</time></trkpt><trkpt lat="45.77183287057184" lon="9.486315179706258"><ele>551.0</ele><time>2026-04-27T15:58:16Z</time></trkpt><trkpt lat="45.77186385347134" lon="9.48621726467047"><ele>551.0</ele><time>2026-04-27T15:58:35Z</time></trkpt><trkpt lat="45.77190307646613" lon="9.486114300083512"><ele>551.0</ele><time>2026-04-27T15:58:38Z</time></trkpt><trkpt lat="45.77193622840065" lon="9.485983922854064"><ele>551.0</ele><time>2026-04-27T15:58:41Z</time></trkpt><trkpt lat="45.771919327823696" lon="9.485883641730304"><ele>551.0</ele><time>2026-04-27T15:58:45Z</time></trkpt><trkpt lat="45.77184721973258" lon="9.485770444712186"><ele>551.0</ele><time>2026-04-27T15:58:48Z</time></trkpt><trkpt lat="45.77183790596455" lon="9.485673901359673"><ele>551.0</ele><time>2026-04-27T15:59:03Z</time></trkpt><trkpt lat="45.7719066340518" lon="9.485588213178405"><ele>551.0</ele><time>2026-04-27T15:59:07Z</time></trkpt><trkpt lat="45.77192437107196" lon="9.485498961352933"><ele>551.0</ele><time>2026-04-27T15:59:09Z</time></trkpt><trkpt lat="45.77184841247422" lon="9.485567946147988"><ele>551.0</ele><time>2026-04-27T15:59:32Z</time></trkpt><trkpt lat="45.77182696614795" lon="9.485657110587642"><ele>551.0</ele><time>2026-04-27T15:59:37Z</time></trkpt><trkpt lat="45.77189139066486" lon="9.485793155347977"><ele>551.0</ele><time>2026-04-27T15:59:48Z</time></trkpt><trkpt lat="45.77189501926225" lon="9.4858949141372"><ele>551.0</ele><time>2026-04-27T15:59:49Z</time></trkpt><trkpt lat="45.77189536007517" lon="9.48603225934665"><ele>551.0</ele><time>2026-04-27T15:59:52Z</time></trkpt><trkpt lat="45.7719047062442" lon="9.48617295383737"><ele>551.0</ele><time>2026-04-27T15:59:55Z</time></trkpt><trkpt lat="45.77188345817848" lon="9.48626567943495"><ele>551.0</ele><time>2026-04-27T15:59:56Z</time></trkpt><trkpt lat="45.77185025515201" lon="9.486388358276397"><ele>551.0</ele><time>2026-04-27T16:00:03Z</time></trkpt><trkpt lat="45.77189109397402" lon="9.486304091945861"><ele>551.0</ele><time>2026-04-27T16:00:05Z</time></trkpt><trkpt lat="45.771918459863464" lon="9.48622008355794"><ele>551.0</ele><time>2026-04-27T16:00:08Z</time></trkpt><trkpt lat="45.77189854437918" lon="9.486084005849776"><ele>551.0</ele><time>2026-04-27T16:00:11Z</time></trkpt><trkpt lat="45.77193504424326" lon="9.485941162278571"><ele>551.0</ele><time>2026-04-27T16:00:14Z</time></trkpt><trkpt lat="45.77193556879073" lon="9.485831555210732"><ele>551.0</ele><time>2026-04-27T16:00:17Z</time></trkpt><trkpt lat="45.77184184665088" lon="9.485814994287123"><ele>551.0</ele><time>2026-04-27T16:00:19Z</time></trkpt><trkpt lat="45.771788333587025" lon="9.485874568837774"><ele>551.0</ele><time>2026-04-27T16:00:21Z</time></trkpt><trkpt lat="45.77174947606666" lon="9.485947567266239"><ele>549.4</ele><time>2026-04-27T16:00:24Z</time></trkpt><trkpt lat="45.77169142559987" lon="9.48606244073282"><ele>547.8</ele><time>2026-04-27T16:00:27Z</time></trkpt><trkpt lat="45.77169970946709" lon="9.486161689202586"><ele>546.1999999999999</ele><time>2026-04-27T16:00:29Z</time></trkpt><trkpt lat="45.77158609015343" lon="9.486183099154875"><ele>544.6</ele><time>2026-04-27T16:00:32Z</time></trkpt><trkpt lat="45.771478574296" lon="9.486292236470458"><ele>543.0</ele><time>2026-04-27T16:00:33Z</time></trkpt><trkpt lat="45.77135857545241" lon="9.486407788779081"><ele>543.0</ele><time>2026-04-27T16:00:34Z</time></trkpt><trkpt lat="45.77121313250411" lon="9.486570588265785"><ele>543.0</ele><time>2026-04-27T16:00:35Z</time></trkpt><trkpt lat="45.77109880781757" lon="9.486679607129167"><ele>543.0</ele><time>2026-04-27T16:00:36Z</time></trkpt><trkpt lat="45.771038626156766" lon="9.486736117113715"><ele>543.0</ele><time>2026-04-27T16:00:37Z</time></trkpt><trkpt lat="45.77095519187155" lon="9.48675089021161"><ele>543.0</ele><time>2026-04-27T16:00:38Z</time></trkpt><trkpt lat="45.770887825308456" lon="9.486737625030184"><ele>543.0</ele><time>2026-04-27T16:00:39Z</time></trkpt><trkpt lat="45.77080686025554" lon="9.486703502867938"><ele>543.0</ele><time>2026-04-27T16:00:41Z</time></trkpt><trkpt lat="45.770750463759065" lon="9.486791539514392"><ele>543.0</ele><time>2026-04-27T16:00:42Z</time></trkpt><trkpt lat="45.77069944903924" lon="9.486953978423237"><ele>543.0</ele><time>2026-04-27T16:00:44Z</time></trkpt><trkpt lat="45.77067100640972" lon="9.487074314347817"><ele>543.0</ele><time>2026-04-27T16:00:46Z</time></trkpt><trkpt lat="45.770764148232985" lon="9.487117625947048"><ele>543.0</ele><time>2026-04-27T16:00:59Z</time></trkpt><trkpt lat="45.770781411008564" lon="9.486994831698372"><ele>543.0</ele><time>2026-04-27T16:01:01Z</time></trkpt><trkpt lat="45.77079407347418" lon="9.486887588600188"><ele>543.0</ele><time>2026-04-27T16:01:03Z</time></trkpt><trkpt lat="45.77061880890512" lon="9.48674207025818"><ele>543.0</ele><time>2026-04-27T16:01:11Z</time></trkpt><trkpt lat="45.77055764417705" lon="9.486765472285805"><ele>543.0</ele><time>2026-04-27T16:01:12Z</time></trkpt><trkpt lat="45.77044229125693" lon="9.486834273412951"><ele>543.0</ele><time>2026-04-27T16:01:14Z</time></trkpt><trkpt lat="45.77033691061309" lon="9.487022659580363"><ele>543.0</ele><time>2026-04-27T16:01:16Z</time></trkpt><trkpt lat="45.77025519661535" lon="9.48719411654405"><ele>543.0</ele><time>2026-04-27T16:01:17Z</time></trkpt><trkpt lat="45.77021278784881" lon="9.4873165928946"><ele>543.0</ele><time>2026-04-27T16:01:18Z</time></trkpt><trkpt lat="45.770139333096076" lon="9.487378245282493"><ele>543.1666666666666</ele><time>2026-04-27T16:01:19Z</time></trkpt><trkpt lat="45.77005835432572" lon="9.487443116556628"><ele>543.3333333333334</ele><time>2026-04-27T16:01:20Z</time></trkpt><trkpt lat="45.769984803618065" lon="9.487470667121844"><ele>543.5</ele><time>2026-04-27T16:01:21Z</time></trkpt><trkpt lat="45.7698921811404" lon="9.487501742499022"><ele>543.6666666666667</ele><time>2026-04-27T16:01:22Z</time></trkpt><trkpt lat="45.769808590674046" lon="9.487501899818264"><ele>543.8333333333334</ele><time>2026-04-27T16:01:23Z</time></trkpt><trkpt lat="45.769739897031805" lon="9.487490440876423"><ele>544.0</ele><time>2026-04-27T16:01:24Z</time></trkpt><trkpt lat="45.76961421932367" lon="9.48755734130909"><ele>544.0</ele><time>2026-04-27T16:01:26Z</time></trkpt><trkpt lat="45.76956225573274" lon="9.487665381891786"><ele>544.0</ele><time>2026-04-27T16:01:27Z</time></trkpt><trkpt lat="45.76949939661718" lon="9.487776458567199"><ele>544.0</ele><time>2026-04-27T16:01:28Z</time></trkpt><trkpt lat="45.76942277714137" lon="9.487904447917595"><ele>544.0</ele><time>2026-04-27T16:01:29Z</time></trkpt><trkpt lat="45.76936932523826" lon="9.4880076030507"><ele>544.0</ele><time>2026-04-27T16:01:30Z</time></trkpt><trkpt lat="45.769332849683316" lon="9.488085212494227"><ele>540.6</ele><time>2026-04-27T16:01:31Z</time></trkpt><trkpt lat="45.769313364630584" lon="9.488202292485841"><ele>537.2</ele><time>2026-04-27T16:01:33Z</time></trkpt><trkpt lat="45.76926508529021" lon="9.488064797533369"><ele>533.8000000000001</ele><time>2026-04-27T16:01:35.999Z</time></trkpt><trkpt lat="45.76931100066763" lon="9.487990265391455"><ele>530.4</ele><time>2026-04-27T16:01:37.999Z</time></trkpt><trkpt lat="45.769309814532576" lon="9.487893737522988"><ele>527.0</ele><time>2026-04-27T16:01:41Z</time></trkpt><trkpt lat="45.7693468859056" lon="9.487721456823063"><ele>525.8000000000001</ele><time>2026-04-27T16:01:43Z</time></trkpt><trkpt lat="45.76936502248914" lon="9.487583115586524"><ele>524.6</ele><time>2026-04-27T16:01:44Z</time></trkpt><trkpt lat="45.76949031094416" lon="9.487448855822118"><ele>523.4000000000001</ele><time>2026-04-27T16:01:45Z</time></trkpt><trkpt lat="45.76952966534074" lon="9.487298598577315"><ele>522.2</ele><time>2026-04-27T16:01:46Z</time></trkpt><trkpt lat="45.769556811653125" lon="9.487187686914602"><ele>521.0</ele><time>2026-04-27T16:01:47Z</time></trkpt><trkpt lat="45.769587957178736" lon="9.48708912753721"><ele>521.0</ele><time>2026-04-27T16:01:48Z</time></trkpt><trkpt lat="45.76969986466762" lon="9.487003411964224"><ele>521.0</ele><time>2026-04-27T16:01:50Z</time></trkpt><trkpt lat="45.76979508628015" lon="9.486936003822112"><ele>521.0</ele><time>2026-04-27T16:01:52Z</time></trkpt><trkpt lat="45.76985564534213" lon="9.486773920838354"><ele>521.0</ele><time>2026-04-27T16:01:54Z</time></trkpt><trkpt lat="45.76989700383484" lon="9.486705214204774"><ele>521.0</ele><time>2026-04-27T16:01:55Z</time></trkpt><trkpt lat="45.76996095043558" lon="9.486629110462518"><ele>521.0</ele><time>2026-04-27T16:01:56Z</time></trkpt><trkpt lat="45.77005186941372" lon="9.486590977359857"><ele>521.0</ele><time>2026-04-27T16:01:57Z</time></trkpt><trkpt lat="45.77009805372306" lon="9.486528231100456"><ele>521.0</ele><time>2026-04-27T16:01:58Z</time></trkpt><trkpt lat="45.770075068264845" lon="9.486428709398542"><ele>521.0</ele><time>2026-04-27T16:01:59Z</time></trkpt><trkpt lat="45.770028532805384" lon="9.486364903094678"><ele>521.0</ele><time>2026-04-27T16:02:01Z</time></trkpt><trkpt lat="45.77008280631785" lon="9.486276189268454"><ele>521.0</ele><time>2026-04-27T16:02:05Z</time></trkpt><trkpt lat="45.77018008441179" lon="9.486222468424323"><ele>521.0</ele><time>2026-04-27T16:02:08Z</time></trkpt><trkpt lat="45.77019400102422" lon="9.486122931083123"><ele>521.0</ele><time>2026-04-27T16:02:09Z</time></trkpt><trkpt lat="45.77027285379412" lon="9.485902997336344"><ele>521.0</ele><time>2026-04-27T16:02:11Z</time></trkpt><trkpt lat="45.770292323866904" lon="9.48578784377434"><ele>521.0</ele><time>2026-04-27T16:02:12Z</time></trkpt><trkpt lat="45.77033239177703" lon="9.485687071600417"><ele>521.0</ele><time>2026-04-27T16:02:15Z</time></trkpt><trkpt lat="45.77042774116874" lon="9.485608209704331"><ele>521.0</ele><time>2026-04-27T16:02:18Z</time></trkpt><trkpt lat="45.77051802269882" lon="9.485583091888197"><ele>521.0</ele><time>2026-04-27T16:02:19Z</time></trkpt><trkpt lat="45.77060732957525" lon="9.485556923614732"><ele>521.0</ele><time>2026-04-27T16:02:20Z</time></trkpt><trkpt lat="45.7707252675132" lon="9.485477564595397"><ele>521.0</ele><time>2026-04-27T16:02:22Z</time></trkpt><trkpt lat="45.770741911192914" lon="9.48532734057339"><ele>521.0</ele><time>2026-04-27T16:02:23Z</time></trkpt><trkpt lat="45.770790099239065" lon="9.485233151086119"><ele>515.25</ele><time>2026-04-27T16:02:24Z</time></trkpt><trkpt lat="45.77085474380982" lon="9.48509350434452"><ele>509.5</ele><time>2026-04-27T16:02:25Z</time></trkpt><trkpt lat="45.77085445893308" lon="9.484917784383825"><ele>503.75</ele><time>2026-04-27T16:02:26Z</time></trkpt><trkpt lat="45.77087937001705" lon="9.484737086368996"><ele>498.0</ele><time>2026-04-27T16:02:27Z</time></trkpt><trkpt lat="45.77089345523284" lon="9.484605650442816"><ele>495.4</ele><time>2026-04-27T16:02:28Z</time></trkpt><trkpt lat="45.77090615109895" lon="9.484456287757757"><ele>492.79999999999995</ele><time>2026-04-27T16:02:29Z</time></trkpt><trkpt lat="45.770911610277636" lon="9.484332343320453"><ele>490.2</ele><time>2026-04-27T16:02:30Z</time></trkpt><trkpt lat="45.77090347373016" lon="9.4841797569018"><ele>487.6</ele><time>2026-04-27T16:02:31Z</time></trkpt><trkpt lat="45.770816961275614" lon="9.484030102817147"><ele>485.0</ele><time>2026-04-27T16:02:32Z</time></trkpt><trkpt lat="45.77080873097669" lon="9.483926248706759"><ele>484.99999999999994</ele><time>2026-04-27T16:02:33Z</time></trkpt><trkpt lat="45.77080368110924" lon="9.4838266961899"><ele>485.0</ele><time>2026-04-27T16:02:34Z</time></trkpt><trkpt lat="45.770803224550654" lon="9.483691119961374"><ele>485.0</ele><time>2026-04-27T16:02:36Z</time></trkpt><trkpt lat="45.770783046066654" lon="9.48356906402771"><ele>485.0</ele><time>2026-04-27T16:02:38Z</time></trkpt><trkpt lat="45.77074132174626" lon="9.483456291286796"><ele>484.99999999999994</ele><time>2026-04-27T16:02:40Z</time></trkpt><trkpt lat="45.77069572815753" lon="9.48336391014119"><ele>485.0</ele><time>2026-04-27T16:02:42Z</time></trkpt><trkpt lat="45.770715021425545" lon="9.483228948013124"><ele>482.8</ele><time>2026-04-27T16:02:44Z</time></trkpt><trkpt lat="45.770732915464066" lon="9.483111471406378"><ele>480.6</ele><time>2026-04-27T16:02:45Z</time></trkpt><trkpt lat="45.77074138891969" lon="9.482943816985065"><ele>478.4</ele><time>2026-04-27T16:02:47Z</time></trkpt><trkpt lat="45.77071769765346" lon="9.482783946921499"><ele>476.2</ele><time>2026-04-27T16:02:49Z</time></trkpt><trkpt lat="45.77067751863616" lon="9.48262744079274"><ele>474.0</ele><time>2026-04-27T16:02:51Z</time></trkpt><trkpt lat="45.77065727981475" lon="9.48253267913829"><ele>472.42857142857133</ele><time>2026-04-27T16:02:52Z</time></trkpt><trkpt lat="45.770628778123054" lon="9.482451699114199"><ele>470.85714285714283</ele><time>2026-04-27T16:02:53Z</time></trkpt><trkpt lat="45.77063081282891" lon="9.482354972221083"><ele>469.2857142857142</ele><time>2026-04-27T16:02:54Z</time></trkpt><trkpt lat="45.77062348150535" lon="9.482264606959173"><ele>467.71428571428567</ele><time>2026-04-27T16:02:55Z</time></trkpt><trkpt lat="45.77059054574028" lon="9.48217259937937"><ele>466.1428571428571</ele><time>2026-04-27T16:02:56Z</time></trkpt><trkpt lat="45.77055283739698" lon="9.482034746321192"><ele>464.57142857142856</ele><time>2026-04-27T16:02:58Z</time></trkpt><trkpt lat="45.770510403738754" lon="9.481966786222998"><ele>463.0</ele><time>2026-04-27T16:03:00Z</time></trkpt><trkpt lat="45.770434724497804" lon="9.481926286223569"><ele>461.4285714285714</ele><time>2026-04-27T16:03:01Z</time></trkpt><trkpt lat="45.7703795860239" lon="9.481852634915496"><ele>459.8571428571428</ele><time>2026-04-27T16:03:03Z</time></trkpt><trkpt lat="45.77036325009889" lon="9.481747401457518"><ele>458.2857142857143</ele><time>2026-04-27T16:03:04Z</time></trkpt><trkpt lat="45.77034098999859" lon="9.481649552613884"><ele>456.71428571428567</ele><time>2026-04-27T16:03:06Z</time></trkpt><trkpt lat="45.77028626593268" lon="9.481588055656013"><ele>455.1428571428571</ele><time>2026-04-27T16:03:09Z</time></trkpt><trkpt lat="45.7702333625875" lon="9.481639446741125"><ele>453.57142857142856</ele><time>2026-04-27T16:03:11Z</time></trkpt><trkpt lat="45.77018563761468" lon="9.481721208217785"><ele>452.0</ele><time>2026-04-27T16:03:15Z</time></trkpt><trkpt lat="45.77013792309568" lon="9.481815095528066"><ele>450.0</ele><time>2026-04-27T16:03:26Z</time></trkpt><trkpt lat="45.77013244672374" lon="9.481905280994063"><ele>448.0</ele><time>2026-04-27T16:03:33Z</time></trkpt><trkpt lat="45.769780534362205" lon="9.481341149666795"><ele>448.0</ele><time>2026-04-27T16:03:46Z</time></trkpt><trkpt lat="45.7696755541418" lon="9.4815388737301"><ele>448.0</ele><time>2026-04-27T16:03:47.999Z</time></trkpt><trkpt lat="45.77024079067733" lon="9.48223914321412"><ele>448.0</ele><time>2026-04-27T16:03:52Z</time></trkpt><trkpt lat="45.770213110343626" lon="9.48198742652925"><ele>447.99999999999994</ele><time>2026-04-27T16:03:53Z</time></trkpt><trkpt lat="45.770194589965335" lon="9.481885495384208"><ele>447.99999999999994</ele><time>2026-04-27T16:03:57Z</time></trkpt><trkpt lat="45.77025254835281" lon="9.481936170624852"><ele>448.0</ele><time>2026-04-27T16:04:18Z</time></trkpt><trkpt lat="45.77023558927315" lon="9.48178772282681"><ele>448.0</ele><time>2026-04-27T16:04:31Z</time></trkpt><trkpt lat="45.77016462211414" lon="9.481738482515711"><ele>448.0</ele><time>2026-04-27T16:04:32Z</time></trkpt><trkpt lat="45.77009228512205" lon="9.481720574500438"><ele>447.99999999999994</ele><time>2026-04-27T16:04:38Z</time></trkpt><trkpt lat="45.77004563043361" lon="9.481845454605388"><ele>447.99999999999994</ele><time>2026-04-27T16:04:51Z</time></trkpt><trkpt lat="45.770119823163704" lon="9.481857409350033"><ele>448.0</ele><time>2026-04-27T16:04:55Z</time></trkpt><trkpt lat="45.770133101240134" lon="9.481965102367306"><ele>448.0</ele><time>2026-04-27T16:05:06Z</time></trkpt><trkpt lat="45.770277149005686" lon="9.481984184525427"><ele>448.0</ele><time>2026-04-27T16:05:55.999Z</time></trkpt><trkpt lat="45.77020862329779" lon="9.48191664936769"><ele>448.0</ele><time>2026-04-27T16:06:04Z</time></trkpt><trkpt lat="45.770228872993634" lon="9.482054018728652"><ele>448.0</ele><time>2026-04-27T16:06:06Z</time></trkpt><trkpt lat="45.770152086481" lon="9.482017101759382"><ele>448.0</ele><time>2026-04-27T16:07:01.13Z</time></trkpt><trkpt lat="45.77023182245818" lon="9.481743333287136"><ele>452.0</ele><time>2026-04-27T16:07:04.018Z</time></trkpt><trkpt lat="45.77015328556778" lon="9.481826518933747"><ele>448.0</ele><time>2026-04-27T16:10:15.447Z</time></trkpt></trkseg></trk></gpx>